<?xml version="1.0" encoding="UTF-8" standalone="no" ?>
<gpx xmlns="http://www.topografix.com/GPX/1/1" xmlns:xsi="http://www.w3.org/2001/XMLSchema-instance" xsi:schemaLocation="http://www.topografix.com/GPX/1/1 http://www.topografix.com/GPX/1/1/gpx.xsd" version="1.1" creator="VisuGPX - https://www.visugpx.com">
  <metadata>
    <name>25-07-15</name>
    <desc><![CDATA[TDF-USMétro]]></desc>
  </metadata>
  <trk>
    <name><![CDATA[25-07-15_1]]></name>
    <trkseg>
      <trkpt lat="44.24311" lon="6.75515">
        <ele>1814.2</ele>
        <time>2025-07-15T05:24:48Z</time>
      </trkpt>
      <trkpt lat="44.24311" lon="6.75515">
        <ele>1859.2</ele>
        <time>2025-07-15T05:24:49Z</time>
      </trkpt>
      <trkpt lat="44.24299" lon="6.7551">
        <ele>1859.4</ele>
        <time>2025-07-15T05:25:03Z</time>
      </trkpt>
      <trkpt lat="44.24297" lon="6.75503">
        <ele>1859.4</ele>
        <time>2025-07-15T05:25:05Z</time>
      </trkpt>
      <trkpt lat="44.2429" lon="6.75481">
        <ele>1859</ele>
        <time>2025-07-15T05:25:09Z</time>
      </trkpt>
      <trkpt lat="44.24276" lon="6.7544">
        <ele>1857.2</ele>
        <time>2025-07-15T05:25:14Z</time>
      </trkpt>
      <trkpt lat="44.24268" lon="6.7541">
        <ele>1856.2</ele>
        <time>2025-07-15T05:25:17Z</time>
      </trkpt>
      <trkpt lat="44.24262" lon="6.75392">
        <ele>1855</ele>
        <time>2025-07-15T05:25:19Z</time>
      </trkpt>
      <trkpt lat="44.24258" lon="6.7538">
        <ele>1854.8</ele>
        <time>2025-07-15T05:25:20Z</time>
      </trkpt>
      <trkpt lat="44.24251" lon="6.7536">
        <ele>1853.8</ele>
        <time>2025-07-15T05:25:22Z</time>
      </trkpt>
      <trkpt lat="44.24241" lon="6.75328">
        <ele>1852.6</ele>
        <time>2025-07-15T05:25:25Z</time>
      </trkpt>
      <trkpt lat="44.24235" lon="6.75307">
        <ele>1851</ele>
        <time>2025-07-15T05:25:27Z</time>
      </trkpt>
      <trkpt lat="44.24227" lon="6.75285">
        <ele>1849.6</ele>
        <time>2025-07-15T05:25:30Z</time>
      </trkpt>
      <trkpt lat="44.24223" lon="6.75276">
        <ele>1848.4</ele>
        <time>2025-07-15T05:25:31Z</time>
      </trkpt>
      <trkpt lat="44.24215" lon="6.7526">
        <ele>1847.2</ele>
        <time>2025-07-15T05:25:33Z</time>
      </trkpt>
      <trkpt lat="44.24202" lon="6.75247">
        <ele>1846</ele>
        <time>2025-07-15T05:25:35Z</time>
      </trkpt>
      <trkpt lat="44.24187" lon="6.75238">
        <ele>1844.8</ele>
        <time>2025-07-15T05:25:37Z</time>
      </trkpt>
      <trkpt lat="44.24169" lon="6.75235">
        <ele>1844</ele>
        <time>2025-07-15T05:25:39Z</time>
      </trkpt>
      <trkpt lat="44.2416" lon="6.75235">
        <ele>1843.2</ele>
        <time>2025-07-15T05:25:40Z</time>
      </trkpt>
      <trkpt lat="44.24142" lon="6.75236">
        <ele>1841.8</ele>
        <time>2025-07-15T05:25:42Z</time>
      </trkpt>
      <trkpt lat="44.24125" lon="6.75239">
        <ele>1840.6</ele>
        <time>2025-07-15T05:25:44Z</time>
      </trkpt>
      <trkpt lat="44.24108" lon="6.7524">
        <ele>1839.2</ele>
        <time>2025-07-15T05:25:46Z</time>
      </trkpt>
      <trkpt lat="44.241" lon="6.75238">
        <ele>1838.8</ele>
        <time>2025-07-15T05:25:47Z</time>
      </trkpt>
      <trkpt lat="44.24091" lon="6.75234">
        <ele>1837.4</ele>
        <time>2025-07-15T05:25:48Z</time>
      </trkpt>
      <trkpt lat="44.24074" lon="6.75225">
        <ele>1835.6</ele>
        <time>2025-07-15T05:25:50Z</time>
      </trkpt>
      <trkpt lat="44.24057" lon="6.75213">
        <ele>1834.2</ele>
        <time>2025-07-15T05:25:52Z</time>
      </trkpt>
      <trkpt lat="44.2404" lon="6.75201">
        <ele>1833.2</ele>
        <time>2025-07-15T05:25:54Z</time>
      </trkpt>
      <trkpt lat="44.24021" lon="6.75191">
        <ele>1831.8</ele>
        <time>2025-07-15T05:25:56Z</time>
      </trkpt>
      <trkpt lat="44.24012" lon="6.75187">
        <ele>1830.8</ele>
        <time>2025-07-15T05:25:57Z</time>
      </trkpt>
      <trkpt lat="44.24002" lon="6.75184">
        <ele>1829.8</ele>
        <time>2025-07-15T05:25:58Z</time>
      </trkpt>
      <trkpt lat="44.23992" lon="6.75182">
        <ele>1829.2</ele>
        <time>2025-07-15T05:25:59Z</time>
      </trkpt>
      <trkpt lat="44.23981" lon="6.75179">
        <ele>1828.2</ele>
        <time>2025-07-15T05:26:00Z</time>
      </trkpt>
      <trkpt lat="44.23959" lon="6.75173">
        <ele>1826.6</ele>
        <time>2025-07-15T05:26:02Z</time>
      </trkpt>
      <trkpt lat="44.23947" lon="6.7517">
        <ele>1825.8</ele>
        <time>2025-07-15T05:26:03Z</time>
      </trkpt>
      <trkpt lat="44.23935" lon="6.75166">
        <ele>1825</ele>
        <time>2025-07-15T05:26:04Z</time>
      </trkpt>
      <trkpt lat="44.23924" lon="6.75162">
        <ele>1824</ele>
        <time>2025-07-15T05:26:05Z</time>
      </trkpt>
      <trkpt lat="44.23914" lon="6.75157">
        <ele>1823.6</ele>
        <time>2025-07-15T05:26:06Z</time>
      </trkpt>
      <trkpt lat="44.23904" lon="6.75149">
        <ele>1822.6</ele>
        <time>2025-07-15T05:26:07Z</time>
      </trkpt>
      <trkpt lat="44.23894" lon="6.7514">
        <ele>1822</ele>
        <time>2025-07-15T05:26:08Z</time>
      </trkpt>
      <trkpt lat="44.23885" lon="6.7513">
        <ele>1820.6</ele>
        <time>2025-07-15T05:26:09Z</time>
      </trkpt>
      <trkpt lat="44.23877" lon="6.75121">
        <ele>1819.2</ele>
        <time>2025-07-15T05:26:10Z</time>
      </trkpt>
      <trkpt lat="44.2386" lon="6.75109">
        <ele>1817.6</ele>
        <time>2025-07-15T05:26:12Z</time>
      </trkpt>
      <trkpt lat="44.23848" lon="6.75106">
        <ele>1817</ele>
        <time>2025-07-15T05:26:13Z</time>
      </trkpt>
      <trkpt lat="44.23837" lon="6.75107">
        <ele>1816.2</ele>
        <time>2025-07-15T05:26:14Z</time>
      </trkpt>
      <trkpt lat="44.23827" lon="6.75111">
        <ele>1815</ele>
        <time>2025-07-15T05:26:15Z</time>
      </trkpt>
      <trkpt lat="44.2382" lon="6.75117">
        <ele>1814.4</ele>
        <time>2025-07-15T05:26:16Z</time>
      </trkpt>
      <trkpt lat="44.23809" lon="6.75127">
        <ele>1813.6</ele>
        <time>2025-07-15T05:26:17Z</time>
      </trkpt>
      <trkpt lat="44.23792" lon="6.75146">
        <ele>1812.2</ele>
        <time>2025-07-15T05:26:19Z</time>
      </trkpt>
      <trkpt lat="44.23782" lon="6.75153">
        <ele>1811.8</ele>
        <time>2025-07-15T05:26:20Z</time>
      </trkpt>
      <trkpt lat="44.23773" lon="6.75156">
        <ele>1811</ele>
        <time>2025-07-15T05:26:21Z</time>
      </trkpt>
      <trkpt lat="44.23748" lon="6.75158">
        <ele>1810</ele>
        <time>2025-07-15T05:26:23Z</time>
      </trkpt>
      <trkpt lat="44.23736" lon="6.75156">
        <ele>1809.2</ele>
        <time>2025-07-15T05:26:24Z</time>
      </trkpt>
      <trkpt lat="44.23713" lon="6.75154">
        <ele>1808.2</ele>
        <time>2025-07-15T05:26:26Z</time>
      </trkpt>
      <trkpt lat="44.23704" lon="6.75152">
        <ele>1807.4</ele>
        <time>2025-07-15T05:26:27Z</time>
      </trkpt>
      <trkpt lat="44.23694" lon="6.75148">
        <ele>1807</ele>
        <time>2025-07-15T05:26:28Z</time>
      </trkpt>
      <trkpt lat="44.23671" lon="6.75137">
        <ele>1805.6</ele>
        <time>2025-07-15T05:26:30Z</time>
      </trkpt>
      <trkpt lat="44.2365" lon="6.75128">
        <ele>1804</ele>
        <time>2025-07-15T05:26:32Z</time>
      </trkpt>
      <trkpt lat="44.2364" lon="6.75122">
        <ele>1803</ele>
        <time>2025-07-15T05:26:33Z</time>
      </trkpt>
      <trkpt lat="44.23629" lon="6.75117">
        <ele>1802</ele>
        <time>2025-07-15T05:26:34Z</time>
      </trkpt>
      <trkpt lat="44.23609" lon="6.75108">
        <ele>1800.8</ele>
        <time>2025-07-15T05:26:36Z</time>
      </trkpt>
      <trkpt lat="44.23588" lon="6.75108">
        <ele>1799.4</ele>
        <time>2025-07-15T05:26:38Z</time>
      </trkpt>
      <trkpt lat="44.2358" lon="6.75114">
        <ele>1798.2</ele>
        <time>2025-07-15T05:26:39Z</time>
      </trkpt>
      <trkpt lat="44.23572" lon="6.75123">
        <ele>1798</ele>
        <time>2025-07-15T05:26:40Z</time>
      </trkpt>
      <trkpt lat="44.23558" lon="6.75145">
        <ele>1797</ele>
        <time>2025-07-15T05:26:42Z</time>
      </trkpt>
      <trkpt lat="44.23546" lon="6.75168">
        <ele>1796</ele>
        <time>2025-07-15T05:26:44Z</time>
      </trkpt>
      <trkpt lat="44.2354" lon="6.75178">
        <ele>1795.4</ele>
        <time>2025-07-15T05:26:45Z</time>
      </trkpt>
      <trkpt lat="44.23534" lon="6.75188">
        <ele>1795</ele>
        <time>2025-07-15T05:26:46Z</time>
      </trkpt>
      <trkpt lat="44.23509" lon="6.75225">
        <ele>1794</ele>
        <time>2025-07-15T05:26:50Z</time>
      </trkpt>
      <trkpt lat="44.23501" lon="6.75232">
        <ele>1794</ele>
        <time>2025-07-15T05:26:51Z</time>
      </trkpt>
      <trkpt lat="44.23493" lon="6.75236">
        <ele>1793.8</ele>
        <time>2025-07-15T05:26:52Z</time>
      </trkpt>
      <trkpt lat="44.23486" lon="6.75238">
        <ele>1793.6</ele>
        <time>2025-07-15T05:26:53Z</time>
      </trkpt>
      <trkpt lat="44.23476" lon="6.7524">
        <ele>1793.4</ele>
        <time>2025-07-15T05:26:54Z</time>
      </trkpt>
      <trkpt lat="44.23457" lon="6.7524">
        <ele>1792.8</ele>
        <time>2025-07-15T05:26:56Z</time>
      </trkpt>
      <trkpt lat="44.23449" lon="6.7524">
        <ele>1792.6</ele>
        <time>2025-07-15T05:26:57Z</time>
      </trkpt>
      <trkpt lat="44.23401" lon="6.7524">
        <ele>1791</ele>
        <time>2025-07-15T05:27:02Z</time>
      </trkpt>
      <trkpt lat="44.23391" lon="6.75238">
        <ele>1790</ele>
        <time>2025-07-15T05:27:03Z</time>
      </trkpt>
      <trkpt lat="44.2338" lon="6.75236">
        <ele>1789.8</ele>
        <time>2025-07-15T05:27:04Z</time>
      </trkpt>
      <trkpt lat="44.23361" lon="6.7523">
        <ele>1788.2</ele>
        <time>2025-07-15T05:27:06Z</time>
      </trkpt>
      <trkpt lat="44.23351" lon="6.75227">
        <ele>1787.2</ele>
        <time>2025-07-15T05:27:07Z</time>
      </trkpt>
      <trkpt lat="44.23331" lon="6.75219">
        <ele>1786.2</ele>
        <time>2025-07-15T05:27:09Z</time>
      </trkpt>
      <trkpt lat="44.23311" lon="6.7521">
        <ele>1785</ele>
        <time>2025-07-15T05:27:11Z</time>
      </trkpt>
      <trkpt lat="44.23291" lon="6.752">
        <ele>1783.8</ele>
        <time>2025-07-15T05:27:13Z</time>
      </trkpt>
      <trkpt lat="44.23273" lon="6.75189">
        <ele>1782.2</ele>
        <time>2025-07-15T05:27:15Z</time>
      </trkpt>
      <trkpt lat="44.23261" lon="6.75173">
        <ele>1780.4</ele>
        <time>2025-07-15T05:27:17Z</time>
      </trkpt>
      <trkpt lat="44.23256" lon="6.75148">
        <ele>1779</ele>
        <time>2025-07-15T05:27:19Z</time>
      </trkpt>
      <trkpt lat="44.23253" lon="6.75136">
        <ele>1778</ele>
        <time>2025-07-15T05:27:20Z</time>
      </trkpt>
      <trkpt lat="44.2325" lon="6.75124">
        <ele>1777.6</ele>
        <time>2025-07-15T05:27:21Z</time>
      </trkpt>
      <trkpt lat="44.23245" lon="6.75113">
        <ele>1776.6</ele>
        <time>2025-07-15T05:27:22Z</time>
      </trkpt>
      <trkpt lat="44.2324" lon="6.75104">
        <ele>1776.2</ele>
        <time>2025-07-15T05:27:23Z</time>
      </trkpt>
      <trkpt lat="44.23233" lon="6.75095">
        <ele>1775.2</ele>
        <time>2025-07-15T05:27:24Z</time>
      </trkpt>
      <trkpt lat="44.23214" lon="6.7509">
        <ele>1773.4</ele>
        <time>2025-07-15T05:27:26Z</time>
      </trkpt>
      <trkpt lat="44.23204" lon="6.75091">
        <ele>1772.2</ele>
        <time>2025-07-15T05:27:27Z</time>
      </trkpt>
      <trkpt lat="44.23184" lon="6.75093">
        <ele>1770.4</ele>
        <time>2025-07-15T05:27:29Z</time>
      </trkpt>
      <trkpt lat="44.23167" lon="6.75085">
        <ele>1769.2</ele>
        <time>2025-07-15T05:27:31Z</time>
      </trkpt>
      <trkpt lat="44.23158" lon="6.75067">
        <ele>1768.2</ele>
        <time>2025-07-15T05:27:33Z</time>
      </trkpt>
      <trkpt lat="44.23157" lon="6.75055">
        <ele>1766.4</ele>
        <time>2025-07-15T05:27:34Z</time>
      </trkpt>
      <trkpt lat="44.23154" lon="6.75029">
        <ele>1765.2</ele>
        <time>2025-07-15T05:27:36Z</time>
      </trkpt>
      <trkpt lat="44.23144" lon="6.75005">
        <ele>1763.8</ele>
        <time>2025-07-15T05:27:38Z</time>
      </trkpt>
      <trkpt lat="44.23136" lon="6.74995">
        <ele>1763.2</ele>
        <time>2025-07-15T05:27:39Z</time>
      </trkpt>
      <trkpt lat="44.23126" lon="6.74986">
        <ele>1762.4</ele>
        <time>2025-07-15T05:27:40Z</time>
      </trkpt>
      <trkpt lat="44.23116" lon="6.74979">
        <ele>1761</ele>
        <time>2025-07-15T05:27:41Z</time>
      </trkpt>
      <trkpt lat="44.23105" lon="6.74974">
        <ele>1760.6</ele>
        <time>2025-07-15T05:27:42Z</time>
      </trkpt>
      <trkpt lat="44.23095" lon="6.74971">
        <ele>1759.2</ele>
        <time>2025-07-15T05:27:43Z</time>
      </trkpt>
      <trkpt lat="44.23085" lon="6.74968">
        <ele>1757.8</ele>
        <time>2025-07-15T05:27:44Z</time>
      </trkpt>
      <trkpt lat="44.23076" lon="6.74967">
        <ele>1757.2</ele>
        <time>2025-07-15T05:27:45Z</time>
      </trkpt>
      <trkpt lat="44.23068" lon="6.74962">
        <ele>1756.2</ele>
        <time>2025-07-15T05:27:46Z</time>
      </trkpt>
      <trkpt lat="44.23062" lon="6.74954">
        <ele>1755.8</ele>
        <time>2025-07-15T05:27:47Z</time>
      </trkpt>
      <trkpt lat="44.23058" lon="6.74943">
        <ele>1754.6</ele>
        <time>2025-07-15T05:27:48Z</time>
      </trkpt>
      <trkpt lat="44.23056" lon="6.74931">
        <ele>1753.4</ele>
        <time>2025-07-15T05:27:49Z</time>
      </trkpt>
      <trkpt lat="44.23053" lon="6.74918">
        <ele>1752.8</ele>
        <time>2025-07-15T05:27:50Z</time>
      </trkpt>
      <trkpt lat="44.23048" lon="6.74905">
        <ele>1751.4</ele>
        <time>2025-07-15T05:27:51Z</time>
      </trkpt>
      <trkpt lat="44.23041" lon="6.74893">
        <ele>1750.8</ele>
        <time>2025-07-15T05:27:52Z</time>
      </trkpt>
      <trkpt lat="44.23034" lon="6.74883">
        <ele>1749.8</ele>
        <time>2025-07-15T05:27:53Z</time>
      </trkpt>
      <trkpt lat="44.23024" lon="6.74875">
        <ele>1749</ele>
        <time>2025-07-15T05:27:54Z</time>
      </trkpt>
      <trkpt lat="44.23014" lon="6.74869">
        <ele>1748.2</ele>
        <time>2025-07-15T05:27:55Z</time>
      </trkpt>
      <trkpt lat="44.23003" lon="6.74867">
        <ele>1747</ele>
        <time>2025-07-15T05:27:56Z</time>
      </trkpt>
      <trkpt lat="44.2298" lon="6.74869">
        <ele>1745.4</ele>
        <time>2025-07-15T05:27:58Z</time>
      </trkpt>
      <trkpt lat="44.22958" lon="6.74876">
        <ele>1743.8</ele>
        <time>2025-07-15T05:28:00Z</time>
      </trkpt>
      <trkpt lat="44.22947" lon="6.7488">
        <ele>1742.8</ele>
        <time>2025-07-15T05:28:01Z</time>
      </trkpt>
      <trkpt lat="44.22925" lon="6.74888">
        <ele>1740.4</ele>
        <time>2025-07-15T05:28:03Z</time>
      </trkpt>
      <trkpt lat="44.22914" lon="6.74892">
        <ele>1739.8</ele>
        <time>2025-07-15T05:28:04Z</time>
      </trkpt>
      <trkpt lat="44.22903" lon="6.74896">
        <ele>1738.4</ele>
        <time>2025-07-15T05:28:05Z</time>
      </trkpt>
      <trkpt lat="44.22892" lon="6.74899">
        <ele>1737.8</ele>
        <time>2025-07-15T05:28:06Z</time>
      </trkpt>
      <trkpt lat="44.22883" lon="6.749">
        <ele>1736.4</ele>
        <time>2025-07-15T05:28:07Z</time>
      </trkpt>
      <trkpt lat="44.22873" lon="6.74898">
        <ele>1735.2</ele>
        <time>2025-07-15T05:28:08Z</time>
      </trkpt>
      <trkpt lat="44.22855" lon="6.74885">
        <ele>1733.4</ele>
        <time>2025-07-15T05:28:10Z</time>
      </trkpt>
      <trkpt lat="44.22845" lon="6.7488">
        <ele>1732.8</ele>
        <time>2025-07-15T05:28:11Z</time>
      </trkpt>
      <trkpt lat="44.22835" lon="6.74877">
        <ele>1731.4</ele>
        <time>2025-07-15T05:28:12Z</time>
      </trkpt>
      <trkpt lat="44.22825" lon="6.74877">
        <ele>1730.6</ele>
        <time>2025-07-15T05:28:13Z</time>
      </trkpt>
      <trkpt lat="44.22814" lon="6.74879">
        <ele>1730.2</ele>
        <time>2025-07-15T05:28:14Z</time>
      </trkpt>
      <trkpt lat="44.22804" lon="6.74882">
        <ele>1728.6</ele>
        <time>2025-07-15T05:28:15Z</time>
      </trkpt>
      <trkpt lat="44.22782" lon="6.74882">
        <ele>1726.4</ele>
        <time>2025-07-15T05:28:17Z</time>
      </trkpt>
      <trkpt lat="44.22771" lon="6.74879">
        <ele>1725.4</ele>
        <time>2025-07-15T05:28:18Z</time>
      </trkpt>
      <trkpt lat="44.22761" lon="6.74874">
        <ele>1724.4</ele>
        <time>2025-07-15T05:28:19Z</time>
      </trkpt>
      <trkpt lat="44.22751" lon="6.74868">
        <ele>1723.2</ele>
        <time>2025-07-15T05:28:20Z</time>
      </trkpt>
      <trkpt lat="44.22741" lon="6.74863">
        <ele>1722.4</ele>
        <time>2025-07-15T05:28:21Z</time>
      </trkpt>
      <trkpt lat="44.22731" lon="6.7486">
        <ele>1721</ele>
        <time>2025-07-15T05:28:22Z</time>
      </trkpt>
      <trkpt lat="44.22721" lon="6.7486">
        <ele>1720.4</ele>
        <time>2025-07-15T05:28:23Z</time>
      </trkpt>
      <trkpt lat="44.22711" lon="6.74863">
        <ele>1719.4</ele>
        <time>2025-07-15T05:28:24Z</time>
      </trkpt>
      <trkpt lat="44.22691" lon="6.74872">
        <ele>1718.2</ele>
        <time>2025-07-15T05:28:26Z</time>
      </trkpt>
      <trkpt lat="44.2267" lon="6.74876">
        <ele>1716.8</ele>
        <time>2025-07-15T05:28:28Z</time>
      </trkpt>
      <trkpt lat="44.2266" lon="6.74876">
        <ele>1715.8</ele>
        <time>2025-07-15T05:28:29Z</time>
      </trkpt>
      <trkpt lat="44.2265" lon="6.74874">
        <ele>1715</ele>
        <time>2025-07-15T05:28:30Z</time>
      </trkpt>
      <trkpt lat="44.22641" lon="6.74869">
        <ele>1714.2</ele>
        <time>2025-07-15T05:28:31Z</time>
      </trkpt>
      <trkpt lat="44.22632" lon="6.74861">
        <ele>1713.4</ele>
        <time>2025-07-15T05:28:32Z</time>
      </trkpt>
      <trkpt lat="44.22622" lon="6.74854">
        <ele>1712.6</ele>
        <time>2025-07-15T05:28:33Z</time>
      </trkpt>
      <trkpt lat="44.22614" lon="6.7485">
        <ele>1711.4</ele>
        <time>2025-07-15T05:28:34Z</time>
      </trkpt>
      <trkpt lat="44.22602" lon="6.74846">
        <ele>1710.8</ele>
        <time>2025-07-15T05:28:35Z</time>
      </trkpt>
      <trkpt lat="44.22591" lon="6.74846">
        <ele>1710</ele>
        <time>2025-07-15T05:28:36Z</time>
      </trkpt>
      <trkpt lat="44.22579" lon="6.74847">
        <ele>1708.8</ele>
        <time>2025-07-15T05:28:37Z</time>
      </trkpt>
      <trkpt lat="44.22568" lon="6.7485">
        <ele>1708.4</ele>
        <time>2025-07-15T05:28:38Z</time>
      </trkpt>
      <trkpt lat="44.22557" lon="6.74853">
        <ele>1707</ele>
        <time>2025-07-15T05:28:39Z</time>
      </trkpt>
      <trkpt lat="44.22538" lon="6.74858">
        <ele>1705</ele>
        <time>2025-07-15T05:28:41Z</time>
      </trkpt>
      <trkpt lat="44.22528" lon="6.74857">
        <ele>1703.6</ele>
        <time>2025-07-15T05:28:42Z</time>
      </trkpt>
      <trkpt lat="44.22509" lon="6.74847">
        <ele>1702.4</ele>
        <time>2025-07-15T05:28:44Z</time>
      </trkpt>
      <trkpt lat="44.22491" lon="6.74832">
        <ele>1700.6</ele>
        <time>2025-07-15T05:28:46Z</time>
      </trkpt>
      <trkpt lat="44.22481" lon="6.74826">
        <ele>1699.6</ele>
        <time>2025-07-15T05:28:47Z</time>
      </trkpt>
      <trkpt lat="44.2247" lon="6.74822">
        <ele>1699.2</ele>
        <time>2025-07-15T05:28:48Z</time>
      </trkpt>
      <trkpt lat="44.22459" lon="6.7482">
        <ele>1698</ele>
        <time>2025-07-15T05:28:49Z</time>
      </trkpt>
      <trkpt lat="44.22436" lon="6.74817">
        <ele>1696.6</ele>
        <time>2025-07-15T05:28:51Z</time>
      </trkpt>
      <trkpt lat="44.22413" lon="6.74814">
        <ele>1694.8</ele>
        <time>2025-07-15T05:28:53Z</time>
      </trkpt>
      <trkpt lat="44.2239" lon="6.74813">
        <ele>1693.6</ele>
        <time>2025-07-15T05:28:55Z</time>
      </trkpt>
      <trkpt lat="44.22367" lon="6.74811">
        <ele>1692.4</ele>
        <time>2025-07-15T05:28:57Z</time>
      </trkpt>
      <trkpt lat="44.22356" lon="6.7481">
        <ele>1690.6</ele>
        <time>2025-07-15T05:28:58Z</time>
      </trkpt>
      <trkpt lat="44.22331" lon="6.74808">
        <ele>1689.2</ele>
        <time>2025-07-15T05:29:00Z</time>
      </trkpt>
      <trkpt lat="44.22319" lon="6.74808">
        <ele>1687.6</ele>
        <time>2025-07-15T05:29:01Z</time>
      </trkpt>
      <trkpt lat="44.22306" lon="6.74809">
        <ele>1687.2</ele>
        <time>2025-07-15T05:29:02Z</time>
      </trkpt>
      <trkpt lat="44.22294" lon="6.74809">
        <ele>1686.2</ele>
        <time>2025-07-15T05:29:03Z</time>
      </trkpt>
      <trkpt lat="44.22268" lon="6.74811">
        <ele>1684.4</ele>
        <time>2025-07-15T05:29:05Z</time>
      </trkpt>
      <trkpt lat="44.22255" lon="6.74812">
        <ele>1683</ele>
        <time>2025-07-15T05:29:06Z</time>
      </trkpt>
      <trkpt lat="44.22229" lon="6.74811">
        <ele>1681.4</ele>
        <time>2025-07-15T05:29:08Z</time>
      </trkpt>
      <trkpt lat="44.22203" lon="6.74808">
        <ele>1678.8</ele>
        <time>2025-07-15T05:29:10Z</time>
      </trkpt>
      <trkpt lat="44.2219" lon="6.74806">
        <ele>1677.2</ele>
        <time>2025-07-15T05:29:11Z</time>
      </trkpt>
      <trkpt lat="44.22166" lon="6.74801">
        <ele>1675.2</ele>
        <time>2025-07-15T05:29:13Z</time>
      </trkpt>
      <trkpt lat="44.22155" lon="6.74797">
        <ele>1674.8</ele>
        <time>2025-07-15T05:29:14Z</time>
      </trkpt>
      <trkpt lat="44.22145" lon="6.7479">
        <ele>1673.4</ele>
        <time>2025-07-15T05:29:15Z</time>
      </trkpt>
      <trkpt lat="44.22135" lon="6.74782">
        <ele>1672</ele>
        <time>2025-07-15T05:29:16Z</time>
      </trkpt>
      <trkpt lat="44.22125" lon="6.74772">
        <ele>1671.4</ele>
        <time>2025-07-15T05:29:17Z</time>
      </trkpt>
      <trkpt lat="44.22117" lon="6.74761">
        <ele>1669.6</ele>
        <time>2025-07-15T05:29:18Z</time>
      </trkpt>
      <trkpt lat="44.22097" lon="6.74739">
        <ele>1668.2</ele>
        <time>2025-07-15T05:29:20Z</time>
      </trkpt>
      <trkpt lat="44.22079" lon="6.74716">
        <ele>1666.6</ele>
        <time>2025-07-15T05:29:22Z</time>
      </trkpt>
      <trkpt lat="44.22071" lon="6.74703">
        <ele>1665.4</ele>
        <time>2025-07-15T05:29:23Z</time>
      </trkpt>
      <trkpt lat="44.22058" lon="6.74673">
        <ele>1663.6</ele>
        <time>2025-07-15T05:29:25Z</time>
      </trkpt>
      <trkpt lat="44.22044" lon="6.74642">
        <ele>1661.6</ele>
        <time>2025-07-15T05:29:27Z</time>
      </trkpt>
      <trkpt lat="44.22037" lon="6.74627">
        <ele>1660.4</ele>
        <time>2025-07-15T05:29:28Z</time>
      </trkpt>
      <trkpt lat="44.22022" lon="6.74598">
        <ele>1658</ele>
        <time>2025-07-15T05:29:30Z</time>
      </trkpt>
      <trkpt lat="44.22013" lon="6.74585">
        <ele>1657.4</ele>
        <time>2025-07-15T05:29:31Z</time>
      </trkpt>
      <trkpt lat="44.22004" lon="6.74576">
        <ele>1656.2</ele>
        <time>2025-07-15T05:29:32Z</time>
      </trkpt>
      <trkpt lat="44.21993" lon="6.74569">
        <ele>1654.6</ele>
        <time>2025-07-15T05:29:33Z</time>
      </trkpt>
      <trkpt lat="44.21969" lon="6.74561">
        <ele>1652.4</ele>
        <time>2025-07-15T05:29:35Z</time>
      </trkpt>
      <trkpt lat="44.21957" lon="6.74559">
        <ele>1652</ele>
        <time>2025-07-15T05:29:36Z</time>
      </trkpt>
      <trkpt lat="44.21945" lon="6.74557">
        <ele>1651</ele>
        <time>2025-07-15T05:29:37Z</time>
      </trkpt>
      <trkpt lat="44.21923" lon="6.74552">
        <ele>1648.6</ele>
        <time>2025-07-15T05:29:39Z</time>
      </trkpt>
      <trkpt lat="44.21914" lon="6.74548">
        <ele>1647</ele>
        <time>2025-07-15T05:29:40Z</time>
      </trkpt>
      <trkpt lat="44.21899" lon="6.74538">
        <ele>1645.6</ele>
        <time>2025-07-15T05:29:42Z</time>
      </trkpt>
      <trkpt lat="44.21892" lon="6.74535">
        <ele>1645</ele>
        <time>2025-07-15T05:29:43Z</time>
      </trkpt>
      <trkpt lat="44.21886" lon="6.74536">
        <ele>1644</ele>
        <time>2025-07-15T05:29:44Z</time>
      </trkpt>
      <trkpt lat="44.21882" lon="6.7454">
        <ele>1643</ele>
        <time>2025-07-15T05:29:45Z</time>
      </trkpt>
      <trkpt lat="44.2188" lon="6.74556">
        <ele>1641.4</ele>
        <time>2025-07-15T05:29:47Z</time>
      </trkpt>
      <trkpt lat="44.21889" lon="6.74569">
        <ele>1640.2</ele>
        <time>2025-07-15T05:29:49Z</time>
      </trkpt>
      <trkpt lat="44.21903" lon="6.74574">
        <ele>1639.2</ele>
        <time>2025-07-15T05:29:51Z</time>
      </trkpt>
      <trkpt lat="44.21919" lon="6.74578">
        <ele>1638.2</ele>
        <time>2025-07-15T05:29:53Z</time>
      </trkpt>
      <trkpt lat="44.21943" lon="6.74584">
        <ele>1637</ele>
        <time>2025-07-15T05:29:56Z</time>
      </trkpt>
      <trkpt lat="44.21957" lon="6.74594">
        <ele>1635.6</ele>
        <time>2025-07-15T05:29:58Z</time>
      </trkpt>
      <trkpt lat="44.21971" lon="6.7461">
        <ele>1634.4</ele>
        <time>2025-07-15T05:30:00Z</time>
      </trkpt>
      <trkpt lat="44.21977" lon="6.74619">
        <ele>1633.8</ele>
        <time>2025-07-15T05:30:01Z</time>
      </trkpt>
      <trkpt lat="44.21982" lon="6.7463">
        <ele>1633</ele>
        <time>2025-07-15T05:30:02Z</time>
      </trkpt>
      <trkpt lat="44.21985" lon="6.74642">
        <ele>1632.6</ele>
        <time>2025-07-15T05:30:03Z</time>
      </trkpt>
      <trkpt lat="44.21987" lon="6.74654">
        <ele>1631.4</ele>
        <time>2025-07-15T05:30:04Z</time>
      </trkpt>
      <trkpt lat="44.21988" lon="6.74667">
        <ele>1631</ele>
        <time>2025-07-15T05:30:05Z</time>
      </trkpt>
      <trkpt lat="44.21987" lon="6.7468">
        <ele>1629.4</ele>
        <time>2025-07-15T05:30:06Z</time>
      </trkpt>
      <trkpt lat="44.21985" lon="6.74693">
        <ele>1628.8</ele>
        <time>2025-07-15T05:30:07Z</time>
      </trkpt>
      <trkpt lat="44.21982" lon="6.74706">
        <ele>1627.8</ele>
        <time>2025-07-15T05:30:08Z</time>
      </trkpt>
      <trkpt lat="44.21978" lon="6.74719">
        <ele>1627.2</ele>
        <time>2025-07-15T05:30:09Z</time>
      </trkpt>
      <trkpt lat="44.2197" lon="6.74744">
        <ele>1625.8</ele>
        <time>2025-07-15T05:30:11Z</time>
      </trkpt>
      <trkpt lat="44.21966" lon="6.74757">
        <ele>1625.4</ele>
        <time>2025-07-15T05:30:12Z</time>
      </trkpt>
      <trkpt lat="44.21961" lon="6.7477">
        <ele>1624.4</ele>
        <time>2025-07-15T05:30:13Z</time>
      </trkpt>
      <trkpt lat="44.21951" lon="6.74793">
        <ele>1623.2</ele>
        <time>2025-07-15T05:30:15Z</time>
      </trkpt>
      <trkpt lat="44.21945" lon="6.74802">
        <ele>1621.8</ele>
        <time>2025-07-15T05:30:16Z</time>
      </trkpt>
      <trkpt lat="44.21938" lon="6.74808">
        <ele>1621.2</ele>
        <time>2025-07-15T05:30:17Z</time>
      </trkpt>
      <trkpt lat="44.2193" lon="6.74811">
        <ele>1620</ele>
        <time>2025-07-15T05:30:18Z</time>
      </trkpt>
      <trkpt lat="44.21922" lon="6.74811">
        <ele>1619.4</ele>
        <time>2025-07-15T05:30:19Z</time>
      </trkpt>
      <trkpt lat="44.21914" lon="6.74808">
        <ele>1618</ele>
        <time>2025-07-15T05:30:20Z</time>
      </trkpt>
      <trkpt lat="44.21898" lon="6.74799">
        <ele>1617.2</ele>
        <time>2025-07-15T05:30:22Z</time>
      </trkpt>
      <trkpt lat="44.21875" lon="6.74785">
        <ele>1615.6</ele>
        <time>2025-07-15T05:30:25Z</time>
      </trkpt>
      <trkpt lat="44.2186" lon="6.7478">
        <ele>1614.6</ele>
        <time>2025-07-15T05:30:27Z</time>
      </trkpt>
      <trkpt lat="44.21852" lon="6.7478">
        <ele>1614</ele>
        <time>2025-07-15T05:30:28Z</time>
      </trkpt>
      <trkpt lat="44.21845" lon="6.74782">
        <ele>1613.8</ele>
        <time>2025-07-15T05:30:29Z</time>
      </trkpt>
      <trkpt lat="44.21824" lon="6.74794">
        <ele>1613.4</ele>
        <time>2025-07-15T05:30:32Z</time>
      </trkpt>
      <trkpt lat="44.21811" lon="6.74801">
        <ele>1613.2</ele>
        <time>2025-07-15T05:30:34Z</time>
      </trkpt>
      <trkpt lat="44.21805" lon="6.74803">
        <ele>1613</ele>
        <time>2025-07-15T05:30:35Z</time>
      </trkpt>
      <trkpt lat="44.21797" lon="6.7481">
        <ele>1613</ele>
        <time>2025-07-15T05:30:36Z</time>
      </trkpt>
      <trkpt lat="44.21792" lon="6.74815">
        <ele>1613</ele>
        <time>2025-07-15T05:30:37Z</time>
      </trkpt>
      <trkpt lat="44.2172" lon="6.74895">
        <ele>1610.8</ele>
        <time>2025-07-15T05:30:49Z</time>
      </trkpt>
      <trkpt lat="44.21708" lon="6.74892">
        <ele>1610.6</ele>
        <time>2025-07-15T05:30:50Z</time>
      </trkpt>
      <trkpt lat="44.21663" lon="6.74906">
        <ele>1610</ele>
        <time>2025-07-15T05:30:56Z</time>
      </trkpt>
      <trkpt lat="44.21647" lon="6.7491">
        <ele>1610</ele>
        <time>2025-07-15T05:30:58Z</time>
      </trkpt>
      <trkpt lat="44.21632" lon="6.74907">
        <ele>1609.4</ele>
        <time>2025-07-15T05:31:00Z</time>
      </trkpt>
      <trkpt lat="44.21619" lon="6.74896">
        <ele>1608.8</ele>
        <time>2025-07-15T05:31:02Z</time>
      </trkpt>
      <trkpt lat="44.21614" lon="6.74888">
        <ele>1608.8</ele>
        <time>2025-07-15T05:31:03Z</time>
      </trkpt>
      <trkpt lat="44.21612" lon="6.74878">
        <ele>1608.6</ele>
        <time>2025-07-15T05:31:04Z</time>
      </trkpt>
      <trkpt lat="44.21607" lon="6.74857">
        <ele>1608.4</ele>
        <time>2025-07-15T05:31:06Z</time>
      </trkpt>
      <trkpt lat="44.21598" lon="6.7484">
        <ele>1607.8</ele>
        <time>2025-07-15T05:31:08Z</time>
      </trkpt>
      <trkpt lat="44.21592" lon="6.74834">
        <ele>1607.6</ele>
        <time>2025-07-15T05:31:09Z</time>
      </trkpt>
      <trkpt lat="44.21585" lon="6.74829">
        <ele>1607.6</ele>
        <time>2025-07-15T05:31:10Z</time>
      </trkpt>
      <trkpt lat="44.2157" lon="6.74821">
        <ele>1607.2</ele>
        <time>2025-07-15T05:31:12Z</time>
      </trkpt>
      <trkpt lat="44.21532" lon="6.74805">
        <ele>1606.6</ele>
        <time>2025-07-15T05:31:17Z</time>
      </trkpt>
      <trkpt lat="44.21526" lon="6.748">
        <ele>1606.4</ele>
        <time>2025-07-15T05:31:18Z</time>
      </trkpt>
      <trkpt lat="44.21497" lon="6.74779">
        <ele>1605.6</ele>
        <time>2025-07-15T05:31:22Z</time>
      </trkpt>
      <trkpt lat="44.21489" lon="6.74776">
        <ele>1605.2</ele>
        <time>2025-07-15T05:31:23Z</time>
      </trkpt>
      <trkpt lat="44.21481" lon="6.74773">
        <ele>1604.8</ele>
        <time>2025-07-15T05:31:24Z</time>
      </trkpt>
      <trkpt lat="44.21441" lon="6.7477">
        <ele>1604.4</ele>
        <time>2025-07-15T05:31:29Z</time>
      </trkpt>
      <trkpt lat="44.21426" lon="6.74772">
        <ele>1604.2</ele>
        <time>2025-07-15T05:31:31Z</time>
      </trkpt>
      <trkpt lat="44.21401" lon="6.74775">
        <ele>1603.6</ele>
        <time>2025-07-15T05:31:34Z</time>
      </trkpt>
      <trkpt lat="44.21393" lon="6.74774">
        <ele>1603.4</ele>
        <time>2025-07-15T05:31:35Z</time>
      </trkpt>
      <trkpt lat="44.21377" lon="6.74772">
        <ele>1603.2</ele>
        <time>2025-07-15T05:31:37Z</time>
      </trkpt>
      <trkpt lat="44.21369" lon="6.74773">
        <ele>1603</ele>
        <time>2025-07-15T05:31:38Z</time>
      </trkpt>
      <trkpt lat="44.21362" lon="6.74774">
        <ele>1603.2</ele>
        <time>2025-07-15T05:31:39Z</time>
      </trkpt>
      <trkpt lat="44.21346" lon="6.74778">
        <ele>1602.8</ele>
        <time>2025-07-15T05:31:41Z</time>
      </trkpt>
      <trkpt lat="44.21332" lon="6.74773">
        <ele>1602.4</ele>
        <time>2025-07-15T05:31:43Z</time>
      </trkpt>
      <trkpt lat="44.21321" lon="6.74761">
        <ele>1601.8</ele>
        <time>2025-07-15T05:31:45Z</time>
      </trkpt>
      <trkpt lat="44.21314" lon="6.74752">
        <ele>1601.6</ele>
        <time>2025-07-15T05:31:46Z</time>
      </trkpt>
      <trkpt lat="44.21284" lon="6.74732">
        <ele>1600.6</ele>
        <time>2025-07-15T05:31:50Z</time>
      </trkpt>
      <trkpt lat="44.21276" lon="6.74728">
        <ele>1600.4</ele>
        <time>2025-07-15T05:31:51Z</time>
      </trkpt>
      <trkpt lat="44.2124" lon="6.74726">
        <ele>1599.8</ele>
        <time>2025-07-15T05:31:55Z</time>
      </trkpt>
      <trkpt lat="44.21231" lon="6.74725">
        <ele>1599.6</ele>
        <time>2025-07-15T05:31:56Z</time>
      </trkpt>
      <trkpt lat="44.21222" lon="6.74723">
        <ele>1599.6</ele>
        <time>2025-07-15T05:31:57Z</time>
      </trkpt>
      <trkpt lat="44.21214" lon="6.74719">
        <ele>1599.6</ele>
        <time>2025-07-15T05:31:58Z</time>
      </trkpt>
      <trkpt lat="44.21199" lon="6.74711">
        <ele>1599</ele>
        <time>2025-07-15T05:32:00Z</time>
      </trkpt>
      <trkpt lat="44.21179" lon="6.74707">
        <ele>1598.8</ele>
        <time>2025-07-15T05:32:02Z</time>
      </trkpt>
      <trkpt lat="44.21169" lon="6.74707">
        <ele>1598.6</ele>
        <time>2025-07-15T05:32:03Z</time>
      </trkpt>
      <trkpt lat="44.21141" lon="6.74707">
        <ele>1597.6</ele>
        <time>2025-07-15T05:32:06Z</time>
      </trkpt>
      <trkpt lat="44.21134" lon="6.74704">
        <ele>1596.8</ele>
        <time>2025-07-15T05:32:07Z</time>
      </trkpt>
      <trkpt lat="44.21126" lon="6.74698">
        <ele>1596.4</ele>
        <time>2025-07-15T05:32:08Z</time>
      </trkpt>
      <trkpt lat="44.21119" lon="6.74689">
        <ele>1595.6</ele>
        <time>2025-07-15T05:32:09Z</time>
      </trkpt>
      <trkpt lat="44.21114" lon="6.74679">
        <ele>1595.2</ele>
        <time>2025-07-15T05:32:10Z</time>
      </trkpt>
      <trkpt lat="44.21108" lon="6.74669">
        <ele>1594.2</ele>
        <time>2025-07-15T05:32:11Z</time>
      </trkpt>
      <trkpt lat="44.21102" lon="6.7466">
        <ele>1593.4</ele>
        <time>2025-07-15T05:32:12Z</time>
      </trkpt>
      <trkpt lat="44.21094" lon="6.74652">
        <ele>1593</ele>
        <time>2025-07-15T05:32:13Z</time>
      </trkpt>
      <trkpt lat="44.21087" lon="6.74647">
        <ele>1592.2</ele>
        <time>2025-07-15T05:32:14Z</time>
      </trkpt>
      <trkpt lat="44.21078" lon="6.74645">
        <ele>1592</ele>
        <time>2025-07-15T05:32:15Z</time>
      </trkpt>
      <trkpt lat="44.21069" lon="6.74645">
        <ele>1590.6</ele>
        <time>2025-07-15T05:32:16Z</time>
      </trkpt>
      <trkpt lat="44.2106" lon="6.74647">
        <ele>1589.6</ele>
        <time>2025-07-15T05:32:17Z</time>
      </trkpt>
      <trkpt lat="44.2104" lon="6.74651">
        <ele>1588.4</ele>
        <time>2025-07-15T05:32:19Z</time>
      </trkpt>
      <trkpt lat="44.2103" lon="6.7465">
        <ele>1588</ele>
        <time>2025-07-15T05:32:20Z</time>
      </trkpt>
      <trkpt lat="44.21021" lon="6.74647">
        <ele>1587</ele>
        <time>2025-07-15T05:32:21Z</time>
      </trkpt>
      <trkpt lat="44.21013" lon="6.7464">
        <ele>1586</ele>
        <time>2025-07-15T05:32:22Z</time>
      </trkpt>
      <trkpt lat="44.21005" lon="6.74632">
        <ele>1585.6</ele>
        <time>2025-07-15T05:32:23Z</time>
      </trkpt>
      <trkpt lat="44.20999" lon="6.74622">
        <ele>1584.4</ele>
        <time>2025-07-15T05:32:24Z</time>
      </trkpt>
      <trkpt lat="44.20987" lon="6.74598">
        <ele>1582.6</ele>
        <time>2025-07-15T05:32:26Z</time>
      </trkpt>
      <trkpt lat="44.20981" lon="6.74587">
        <ele>1582.2</ele>
        <time>2025-07-15T05:32:27Z</time>
      </trkpt>
      <trkpt lat="44.20974" lon="6.74575">
        <ele>1581.4</ele>
        <time>2025-07-15T05:32:28Z</time>
      </trkpt>
      <trkpt lat="44.20968" lon="6.74562">
        <ele>1579.8</ele>
        <time>2025-07-15T05:32:29Z</time>
      </trkpt>
      <trkpt lat="44.20962" lon="6.74549">
        <ele>1579.4</ele>
        <time>2025-07-15T05:32:30Z</time>
      </trkpt>
      <trkpt lat="44.20956" lon="6.74536">
        <ele>1578.4</ele>
        <time>2025-07-15T05:32:31Z</time>
      </trkpt>
      <trkpt lat="44.20944" lon="6.74512">
        <ele>1576.8</ele>
        <time>2025-07-15T05:32:33Z</time>
      </trkpt>
      <trkpt lat="44.20937" lon="6.745">
        <ele>1575.6</ele>
        <time>2025-07-15T05:32:34Z</time>
      </trkpt>
      <trkpt lat="44.2093" lon="6.74488">
        <ele>1574.8</ele>
        <time>2025-07-15T05:32:35Z</time>
      </trkpt>
      <trkpt lat="44.20923" lon="6.74477">
        <ele>1574</ele>
        <time>2025-07-15T05:32:36Z</time>
      </trkpt>
      <trkpt lat="44.20916" lon="6.74468">
        <ele>1573.4</ele>
        <time>2025-07-15T05:32:37Z</time>
      </trkpt>
      <trkpt lat="44.20908" lon="6.74461">
        <ele>1572.2</ele>
        <time>2025-07-15T05:32:38Z</time>
      </trkpt>
      <trkpt lat="44.20901" lon="6.74457">
        <ele>1571.6</ele>
        <time>2025-07-15T05:32:39Z</time>
      </trkpt>
      <trkpt lat="44.20892" lon="6.74456">
        <ele>1570.4</ele>
        <time>2025-07-15T05:32:40Z</time>
      </trkpt>
      <trkpt lat="44.20883" lon="6.74458">
        <ele>1569.2</ele>
        <time>2025-07-15T05:32:41Z</time>
      </trkpt>
      <trkpt lat="44.20866" lon="6.74469">
        <ele>1567.6</ele>
        <time>2025-07-15T05:32:43Z</time>
      </trkpt>
      <trkpt lat="44.20849" lon="6.74485">
        <ele>1566.2</ele>
        <time>2025-07-15T05:32:45Z</time>
      </trkpt>
      <trkpt lat="44.20842" lon="6.74495">
        <ele>1565.2</ele>
        <time>2025-07-15T05:32:46Z</time>
      </trkpt>
      <trkpt lat="44.20835" lon="6.74507">
        <ele>1564.8</ele>
        <time>2025-07-15T05:32:47Z</time>
      </trkpt>
      <trkpt lat="44.20829" lon="6.7452">
        <ele>1563.6</ele>
        <time>2025-07-15T05:32:48Z</time>
      </trkpt>
      <trkpt lat="44.20814" lon="6.74545">
        <ele>1562.8</ele>
        <time>2025-07-15T05:32:50Z</time>
      </trkpt>
      <trkpt lat="44.20805" lon="6.74556">
        <ele>1562</ele>
        <time>2025-07-15T05:32:51Z</time>
      </trkpt>
      <trkpt lat="44.20785" lon="6.74576">
        <ele>1560.2</ele>
        <time>2025-07-15T05:32:53Z</time>
      </trkpt>
      <trkpt lat="44.20766" lon="6.74595">
        <ele>1558.4</ele>
        <time>2025-07-15T05:32:55Z</time>
      </trkpt>
      <trkpt lat="44.20749" lon="6.74611">
        <ele>1556.6</ele>
        <time>2025-07-15T05:32:57Z</time>
      </trkpt>
      <trkpt lat="44.2074" lon="6.74616">
        <ele>1555.6</ele>
        <time>2025-07-15T05:32:58Z</time>
      </trkpt>
      <trkpt lat="44.20731" lon="6.74618">
        <ele>1555</ele>
        <time>2025-07-15T05:32:59Z</time>
      </trkpt>
      <trkpt lat="44.20722" lon="6.74618">
        <ele>1553.8</ele>
        <time>2025-07-15T05:33:00Z</time>
      </trkpt>
      <trkpt lat="44.20713" lon="6.74614">
        <ele>1553.4</ele>
        <time>2025-07-15T05:33:01Z</time>
      </trkpt>
      <trkpt lat="44.20706" lon="6.74605">
        <ele>1551.6</ele>
        <time>2025-07-15T05:33:02Z</time>
      </trkpt>
      <trkpt lat="44.207" lon="6.74596">
        <ele>1550.4</ele>
        <time>2025-07-15T05:33:03Z</time>
      </trkpt>
      <trkpt lat="44.20692" lon="6.74587">
        <ele>1549.8</ele>
        <time>2025-07-15T05:33:04Z</time>
      </trkpt>
      <trkpt lat="44.20682" lon="6.74581">
        <ele>1548.6</ele>
        <time>2025-07-15T05:33:05Z</time>
      </trkpt>
      <trkpt lat="44.20672" lon="6.74577">
        <ele>1548</ele>
        <time>2025-07-15T05:33:06Z</time>
      </trkpt>
      <trkpt lat="44.20662" lon="6.74575">
        <ele>1547.2</ele>
        <time>2025-07-15T05:33:07Z</time>
      </trkpt>
      <trkpt lat="44.20651" lon="6.74573">
        <ele>1546.4</ele>
        <time>2025-07-15T05:33:08Z</time>
      </trkpt>
      <trkpt lat="44.2064" lon="6.74572">
        <ele>1545</ele>
        <time>2025-07-15T05:33:09Z</time>
      </trkpt>
      <trkpt lat="44.20629" lon="6.7457">
        <ele>1543.8</ele>
        <time>2025-07-15T05:33:10Z</time>
      </trkpt>
      <trkpt lat="44.20618" lon="6.74569">
        <ele>1543.2</ele>
        <time>2025-07-15T05:33:11Z</time>
      </trkpt>
      <trkpt lat="44.20607" lon="6.74571">
        <ele>1542.2</ele>
        <time>2025-07-15T05:33:12Z</time>
      </trkpt>
      <trkpt lat="44.20596" lon="6.74574">
        <ele>1541.8</ele>
        <time>2025-07-15T05:33:13Z</time>
      </trkpt>
      <trkpt lat="44.20585" lon="6.74579">
        <ele>1540.4</ele>
        <time>2025-07-15T05:33:14Z</time>
      </trkpt>
      <trkpt lat="44.20574" lon="6.74584">
        <ele>1539</ele>
        <time>2025-07-15T05:33:15Z</time>
      </trkpt>
      <trkpt lat="44.20563" lon="6.74588">
        <ele>1538.4</ele>
        <time>2025-07-15T05:33:16Z</time>
      </trkpt>
      <trkpt lat="44.20552" lon="6.74593">
        <ele>1537.2</ele>
        <time>2025-07-15T05:33:17Z</time>
      </trkpt>
      <trkpt lat="44.2053" lon="6.74603">
        <ele>1535.4</ele>
        <time>2025-07-15T05:33:19Z</time>
      </trkpt>
      <trkpt lat="44.20509" lon="6.74614">
        <ele>1533.8</ele>
        <time>2025-07-15T05:33:21Z</time>
      </trkpt>
      <trkpt lat="44.20499" lon="6.74619">
        <ele>1532.4</ele>
        <time>2025-07-15T05:33:22Z</time>
      </trkpt>
      <trkpt lat="44.20489" lon="6.74622">
        <ele>1532</ele>
        <time>2025-07-15T05:33:23Z</time>
      </trkpt>
      <trkpt lat="44.20479" lon="6.74623">
        <ele>1531.2</ele>
        <time>2025-07-15T05:33:24Z</time>
      </trkpt>
      <trkpt lat="44.2047" lon="6.74621">
        <ele>1530.6</ele>
        <time>2025-07-15T05:33:25Z</time>
      </trkpt>
      <trkpt lat="44.20461" lon="6.74616">
        <ele>1529.2</ele>
        <time>2025-07-15T05:33:26Z</time>
      </trkpt>
      <trkpt lat="44.20453" lon="6.74608">
        <ele>1527.4</ele>
        <time>2025-07-15T05:33:27Z</time>
      </trkpt>
      <trkpt lat="44.2044" lon="6.7459">
        <ele>1525.4</ele>
        <time>2025-07-15T05:33:29Z</time>
      </trkpt>
      <trkpt lat="44.20427" lon="6.74575">
        <ele>1524</ele>
        <time>2025-07-15T05:33:31Z</time>
      </trkpt>
      <trkpt lat="44.20419" lon="6.74571">
        <ele>1523.6</ele>
        <time>2025-07-15T05:33:32Z</time>
      </trkpt>
      <trkpt lat="44.20412" lon="6.74569">
        <ele>1522.6</ele>
        <time>2025-07-15T05:33:33Z</time>
      </trkpt>
      <trkpt lat="44.20404" lon="6.74572">
        <ele>1521.2</ele>
        <time>2025-07-15T05:33:34Z</time>
      </trkpt>
      <trkpt lat="44.20399" lon="6.74578">
        <ele>1521</ele>
        <time>2025-07-15T05:33:35Z</time>
      </trkpt>
      <trkpt lat="44.20395" lon="6.74588">
        <ele>1520</ele>
        <time>2025-07-15T05:33:36Z</time>
      </trkpt>
      <trkpt lat="44.20392" lon="6.746">
        <ele>1519.6</ele>
        <time>2025-07-15T05:33:37Z</time>
      </trkpt>
      <trkpt lat="44.20386" lon="6.74626">
        <ele>1518</ele>
        <time>2025-07-15T05:33:39Z</time>
      </trkpt>
      <trkpt lat="44.20382" lon="6.7464">
        <ele>1517.6</ele>
        <time>2025-07-15T05:33:40Z</time>
      </trkpt>
      <trkpt lat="44.20377" lon="6.74652">
        <ele>1517</ele>
        <time>2025-07-15T05:33:41Z</time>
      </trkpt>
      <trkpt lat="44.20361" lon="6.74673">
        <ele>1515</ele>
        <time>2025-07-15T05:33:43Z</time>
      </trkpt>
      <trkpt lat="44.20341" lon="6.74681">
        <ele>1513.6</ele>
        <time>2025-07-15T05:33:45Z</time>
      </trkpt>
      <trkpt lat="44.20319" lon="6.74678">
        <ele>1512.2</ele>
        <time>2025-07-15T05:33:47Z</time>
      </trkpt>
      <trkpt lat="44.20308" lon="6.74675">
        <ele>1511</ele>
        <time>2025-07-15T05:33:48Z</time>
      </trkpt>
      <trkpt lat="44.20285" lon="6.74668">
        <ele>1509</ele>
        <time>2025-07-15T05:33:50Z</time>
      </trkpt>
      <trkpt lat="44.20275" lon="6.74665">
        <ele>1507.4</ele>
        <time>2025-07-15T05:33:51Z</time>
      </trkpt>
      <trkpt lat="44.20256" lon="6.74659">
        <ele>1505.4</ele>
        <time>2025-07-15T05:33:53Z</time>
      </trkpt>
      <trkpt lat="44.20239" lon="6.74654">
        <ele>1503.6</ele>
        <time>2025-07-15T05:33:55Z</time>
      </trkpt>
      <trkpt lat="44.20231" lon="6.74655">
        <ele>1503.2</ele>
        <time>2025-07-15T05:33:56Z</time>
      </trkpt>
      <trkpt lat="44.20222" lon="6.7466">
        <ele>1502</ele>
        <time>2025-07-15T05:33:57Z</time>
      </trkpt>
      <trkpt lat="44.20215" lon="6.74667">
        <ele>1500.6</ele>
        <time>2025-07-15T05:33:58Z</time>
      </trkpt>
      <trkpt lat="44.20209" lon="6.74677">
        <ele>1500</ele>
        <time>2025-07-15T05:33:59Z</time>
      </trkpt>
      <trkpt lat="44.20203" lon="6.74689">
        <ele>1499.2</ele>
        <time>2025-07-15T05:34:00Z</time>
      </trkpt>
      <trkpt lat="44.20196" lon="6.747">
        <ele>1498.8</ele>
        <time>2025-07-15T05:34:01Z</time>
      </trkpt>
      <trkpt lat="44.20189" lon="6.74711">
        <ele>1498</ele>
        <time>2025-07-15T05:34:02Z</time>
      </trkpt>
      <trkpt lat="44.20171" lon="6.74727">
        <ele>1496.6</ele>
        <time>2025-07-15T05:34:04Z</time>
      </trkpt>
      <trkpt lat="44.20162" lon="6.74733">
        <ele>1495.4</ele>
        <time>2025-07-15T05:34:05Z</time>
      </trkpt>
      <trkpt lat="44.20153" lon="6.74737">
        <ele>1494.8</ele>
        <time>2025-07-15T05:34:06Z</time>
      </trkpt>
      <trkpt lat="44.20144" lon="6.74739">
        <ele>1493.8</ele>
        <time>2025-07-15T05:34:07Z</time>
      </trkpt>
      <trkpt lat="44.20135" lon="6.74738">
        <ele>1493.2</ele>
        <time>2025-07-15T05:34:08Z</time>
      </trkpt>
      <trkpt lat="44.20127" lon="6.74735">
        <ele>1492.2</ele>
        <time>2025-07-15T05:34:09Z</time>
      </trkpt>
      <trkpt lat="44.20118" lon="6.74733">
        <ele>1491</ele>
        <time>2025-07-15T05:34:10Z</time>
      </trkpt>
      <trkpt lat="44.20102" lon="6.74735">
        <ele>1489.4</ele>
        <time>2025-07-15T05:34:12Z</time>
      </trkpt>
      <trkpt lat="44.20094" lon="6.74741">
        <ele>1489</ele>
        <time>2025-07-15T05:34:13Z</time>
      </trkpt>
      <trkpt lat="44.20088" lon="6.7475">
        <ele>1488</ele>
        <time>2025-07-15T05:34:14Z</time>
      </trkpt>
      <trkpt lat="44.20074" lon="6.74772">
        <ele>1486.6</ele>
        <time>2025-07-15T05:34:16Z</time>
      </trkpt>
      <trkpt lat="44.2006" lon="6.74791">
        <ele>1485.8</ele>
        <time>2025-07-15T05:34:18Z</time>
      </trkpt>
      <trkpt lat="44.20052" lon="6.74798">
        <ele>1484.8</ele>
        <time>2025-07-15T05:34:19Z</time>
      </trkpt>
      <trkpt lat="44.20043" lon="6.74805">
        <ele>1483.8</ele>
        <time>2025-07-15T05:34:20Z</time>
      </trkpt>
      <trkpt lat="44.20024" lon="6.74813">
        <ele>1482.6</ele>
        <time>2025-07-15T05:34:22Z</time>
      </trkpt>
      <trkpt lat="44.20014" lon="6.74815">
        <ele>1481.8</ele>
        <time>2025-07-15T05:34:23Z</time>
      </trkpt>
      <trkpt lat="44.20003" lon="6.74817">
        <ele>1481</ele>
        <time>2025-07-15T05:34:24Z</time>
      </trkpt>
      <trkpt lat="44.1998" lon="6.74822">
        <ele>1479.2</ele>
        <time>2025-07-15T05:34:26Z</time>
      </trkpt>
      <trkpt lat="44.19968" lon="6.74825">
        <ele>1478</ele>
        <time>2025-07-15T05:34:27Z</time>
      </trkpt>
      <trkpt lat="44.19956" lon="6.74829">
        <ele>1477.4</ele>
        <time>2025-07-15T05:34:28Z</time>
      </trkpt>
      <trkpt lat="44.19946" lon="6.74832">
        <ele>1476</ele>
        <time>2025-07-15T05:34:29Z</time>
      </trkpt>
      <trkpt lat="44.1992" lon="6.74836">
        <ele>1474</ele>
        <time>2025-07-15T05:34:31Z</time>
      </trkpt>
      <trkpt lat="44.1991" lon="6.74837">
        <ele>1472.6</ele>
        <time>2025-07-15T05:34:32Z</time>
      </trkpt>
      <trkpt lat="44.19891" lon="6.74838">
        <ele>1470.2</ele>
        <time>2025-07-15T05:34:34Z</time>
      </trkpt>
      <trkpt lat="44.19882" lon="6.7484">
        <ele>1469.6</ele>
        <time>2025-07-15T05:34:35Z</time>
      </trkpt>
      <trkpt lat="44.19874" lon="6.74845">
        <ele>1468.6</ele>
        <time>2025-07-15T05:34:36Z</time>
      </trkpt>
      <trkpt lat="44.19867" lon="6.74853">
        <ele>1468.4</ele>
        <time>2025-07-15T05:34:37Z</time>
      </trkpt>
      <trkpt lat="44.19861" lon="6.74863">
        <ele>1467.2</ele>
        <time>2025-07-15T05:34:38Z</time>
      </trkpt>
      <trkpt lat="44.19856" lon="6.74874">
        <ele>1466</ele>
        <time>2025-07-15T05:34:39Z</time>
      </trkpt>
      <trkpt lat="44.19849" lon="6.74895">
        <ele>1464.6</ele>
        <time>2025-07-15T05:34:41Z</time>
      </trkpt>
      <trkpt lat="44.19847" lon="6.74906">
        <ele>1464.2</ele>
        <time>2025-07-15T05:34:42Z</time>
      </trkpt>
      <trkpt lat="44.19846" lon="6.74916">
        <ele>1463.4</ele>
        <time>2025-07-15T05:34:43Z</time>
      </trkpt>
      <trkpt lat="44.19844" lon="6.74925">
        <ele>1462.8</ele>
        <time>2025-07-15T05:34:44Z</time>
      </trkpt>
      <trkpt lat="44.1984" lon="6.74932">
        <ele>1462.6</ele>
        <time>2025-07-15T05:34:45Z</time>
      </trkpt>
      <trkpt lat="44.19835" lon="6.74936">
        <ele>1462.2</ele>
        <time>2025-07-15T05:34:46Z</time>
      </trkpt>
      <trkpt lat="44.19824" lon="6.74934">
        <ele>1461</ele>
        <time>2025-07-15T05:34:48Z</time>
      </trkpt>
      <trkpt lat="44.19815" lon="6.74918">
        <ele>1460</ele>
        <time>2025-07-15T05:34:50Z</time>
      </trkpt>
      <trkpt lat="44.1981" lon="6.74909">
        <ele>1459.4</ele>
        <time>2025-07-15T05:34:51Z</time>
      </trkpt>
      <trkpt lat="44.19805" lon="6.749">
        <ele>1459.2</ele>
        <time>2025-07-15T05:34:52Z</time>
      </trkpt>
      <trkpt lat="44.19799" lon="6.74891">
        <ele>1458.4</ele>
        <time>2025-07-15T05:34:53Z</time>
      </trkpt>
      <trkpt lat="44.19786" lon="6.74874">
        <ele>1456.8</ele>
        <time>2025-07-15T05:34:55Z</time>
      </trkpt>
      <trkpt lat="44.1978" lon="6.74866">
        <ele>1456.2</ele>
        <time>2025-07-15T05:34:56Z</time>
      </trkpt>
      <trkpt lat="44.19766" lon="6.74859">
        <ele>1455</ele>
        <time>2025-07-15T05:34:58Z</time>
      </trkpt>
      <trkpt lat="44.19752" lon="6.74863">
        <ele>1453</ele>
        <time>2025-07-15T05:35:00Z</time>
      </trkpt>
      <trkpt lat="44.19741" lon="6.7488">
        <ele>1451.4</ele>
        <time>2025-07-15T05:35:02Z</time>
      </trkpt>
      <trkpt lat="44.19732" lon="6.74899">
        <ele>1450.2</ele>
        <time>2025-07-15T05:35:04Z</time>
      </trkpt>
      <trkpt lat="44.19725" lon="6.74905">
        <ele>1449.2</ele>
        <time>2025-07-15T05:35:05Z</time>
      </trkpt>
      <trkpt lat="44.19709" lon="6.74915">
        <ele>1447.8</ele>
        <time>2025-07-15T05:35:07Z</time>
      </trkpt>
      <trkpt lat="44.19701" lon="6.74921">
        <ele>1446.6</ele>
        <time>2025-07-15T05:35:08Z</time>
      </trkpt>
      <trkpt lat="44.19685" lon="6.74932">
        <ele>1445.2</ele>
        <time>2025-07-15T05:35:10Z</time>
      </trkpt>
      <trkpt lat="44.19671" lon="6.74934">
        <ele>1443.8</ele>
        <time>2025-07-15T05:35:12Z</time>
      </trkpt>
      <trkpt lat="44.19661" lon="6.74918">
        <ele>1442</ele>
        <time>2025-07-15T05:35:14Z</time>
      </trkpt>
      <trkpt lat="44.19657" lon="6.74907">
        <ele>1441</ele>
        <time>2025-07-15T05:35:15Z</time>
      </trkpt>
      <trkpt lat="44.19653" lon="6.74895">
        <ele>1440.6</ele>
        <time>2025-07-15T05:35:16Z</time>
      </trkpt>
      <trkpt lat="44.19649" lon="6.74885">
        <ele>1439.8</ele>
        <time>2025-07-15T05:35:17Z</time>
      </trkpt>
      <trkpt lat="44.19639" lon="6.74858">
        <ele>1438.6</ele>
        <time>2025-07-15T05:35:19Z</time>
      </trkpt>
      <trkpt lat="44.19634" lon="6.74848">
        <ele>1438</ele>
        <time>2025-07-15T05:35:20Z</time>
      </trkpt>
      <trkpt lat="44.19628" lon="6.74839">
        <ele>1437.6</ele>
        <time>2025-07-15T05:35:21Z</time>
      </trkpt>
      <trkpt lat="44.19622" lon="6.74834">
        <ele>1437</ele>
        <time>2025-07-15T05:35:22Z</time>
      </trkpt>
      <trkpt lat="44.19615" lon="6.74833">
        <ele>1436.4</ele>
        <time>2025-07-15T05:35:23Z</time>
      </trkpt>
      <trkpt lat="44.19609" lon="6.74837">
        <ele>1435.2</ele>
        <time>2025-07-15T05:35:24Z</time>
      </trkpt>
      <trkpt lat="44.19604" lon="6.74844">
        <ele>1434.8</ele>
        <time>2025-07-15T05:35:25Z</time>
      </trkpt>
      <trkpt lat="44.19598" lon="6.74853">
        <ele>1433.8</ele>
        <time>2025-07-15T05:35:26Z</time>
      </trkpt>
      <trkpt lat="44.19591" lon="6.74861">
        <ele>1432.8</ele>
        <time>2025-07-15T05:35:27Z</time>
      </trkpt>
      <trkpt lat="44.19584" lon="6.74869">
        <ele>1432.4</ele>
        <time>2025-07-15T05:35:28Z</time>
      </trkpt>
      <trkpt lat="44.19575" lon="6.74876">
        <ele>1431.6</ele>
        <time>2025-07-15T05:35:29Z</time>
      </trkpt>
      <trkpt lat="44.19568" lon="6.74885">
        <ele>1431</ele>
        <time>2025-07-15T05:35:30Z</time>
      </trkpt>
      <trkpt lat="44.19562" lon="6.74895">
        <ele>1430.2</ele>
        <time>2025-07-15T05:35:31Z</time>
      </trkpt>
      <trkpt lat="44.19557" lon="6.74907">
        <ele>1429.2</ele>
        <time>2025-07-15T05:35:32Z</time>
      </trkpt>
      <trkpt lat="44.19552" lon="6.74918">
        <ele>1428.6</ele>
        <time>2025-07-15T05:35:33Z</time>
      </trkpt>
      <trkpt lat="44.19546" lon="6.74927">
        <ele>1427.8</ele>
        <time>2025-07-15T05:35:34Z</time>
      </trkpt>
      <trkpt lat="44.19538" lon="6.74935">
        <ele>1427.4</ele>
        <time>2025-07-15T05:35:35Z</time>
      </trkpt>
      <trkpt lat="44.19521" lon="6.74945">
        <ele>1425.8</ele>
        <time>2025-07-15T05:35:37Z</time>
      </trkpt>
      <trkpt lat="44.19513" lon="6.74946">
        <ele>1424.6</ele>
        <time>2025-07-15T05:35:38Z</time>
      </trkpt>
      <trkpt lat="44.19506" lon="6.74944">
        <ele>1423.8</ele>
        <time>2025-07-15T05:35:39Z</time>
      </trkpt>
      <trkpt lat="44.195" lon="6.74937">
        <ele>1423.2</ele>
        <time>2025-07-15T05:35:40Z</time>
      </trkpt>
      <trkpt lat="44.19496" lon="6.74928">
        <ele>1422.2</ele>
        <time>2025-07-15T05:35:41Z</time>
      </trkpt>
      <trkpt lat="44.19494" lon="6.74917">
        <ele>1422</ele>
        <time>2025-07-15T05:35:42Z</time>
      </trkpt>
      <trkpt lat="44.19493" lon="6.74905">
        <ele>1420.8</ele>
        <time>2025-07-15T05:35:43Z</time>
      </trkpt>
      <trkpt lat="44.19494" lon="6.74878">
        <ele>1419.8</ele>
        <time>2025-07-15T05:35:45Z</time>
      </trkpt>
      <trkpt lat="44.19492" lon="6.7485">
        <ele>1418.8</ele>
        <time>2025-07-15T05:35:47Z</time>
      </trkpt>
      <trkpt lat="44.19489" lon="6.74837">
        <ele>1418</ele>
        <time>2025-07-15T05:35:48Z</time>
      </trkpt>
      <trkpt lat="44.19485" lon="6.74825">
        <ele>1416.8</ele>
        <time>2025-07-15T05:35:49Z</time>
      </trkpt>
      <trkpt lat="44.19474" lon="6.74807">
        <ele>1415.4</ele>
        <time>2025-07-15T05:35:51Z</time>
      </trkpt>
      <trkpt lat="44.1946" lon="6.74802">
        <ele>1413.8</ele>
        <time>2025-07-15T05:35:53Z</time>
      </trkpt>
      <trkpt lat="44.19445" lon="6.7481">
        <ele>1412.2</ele>
        <time>2025-07-15T05:35:55Z</time>
      </trkpt>
      <trkpt lat="44.19429" lon="6.74821">
        <ele>1411</ele>
        <time>2025-07-15T05:35:57Z</time>
      </trkpt>
      <trkpt lat="44.19422" lon="6.74827">
        <ele>1410</ele>
        <time>2025-07-15T05:35:58Z</time>
      </trkpt>
      <trkpt lat="44.19414" lon="6.74833">
        <ele>1409.6</ele>
        <time>2025-07-15T05:35:59Z</time>
      </trkpt>
      <trkpt lat="44.19408" lon="6.74835">
        <ele>1408.8</ele>
        <time>2025-07-15T05:36:00Z</time>
      </trkpt>
      <trkpt lat="44.19403" lon="6.74832">
        <ele>1408.4</ele>
        <time>2025-07-15T05:36:01Z</time>
      </trkpt>
      <trkpt lat="44.19401" lon="6.74824">
        <ele>1407.8</ele>
        <time>2025-07-15T05:36:02Z</time>
      </trkpt>
      <trkpt lat="44.19404" lon="6.74808">
        <ele>1406.6</ele>
        <time>2025-07-15T05:36:04Z</time>
      </trkpt>
      <trkpt lat="44.1941" lon="6.74802">
        <ele>1405.6</ele>
        <time>2025-07-15T05:36:05Z</time>
      </trkpt>
      <trkpt lat="44.19416" lon="6.74798">
        <ele>1405.2</ele>
        <time>2025-07-15T05:36:06Z</time>
      </trkpt>
      <trkpt lat="44.19431" lon="6.74788">
        <ele>1404</ele>
        <time>2025-07-15T05:36:08Z</time>
      </trkpt>
      <trkpt lat="44.1944" lon="6.74782">
        <ele>1403.8</ele>
        <time>2025-07-15T05:36:09Z</time>
      </trkpt>
      <trkpt lat="44.19457" lon="6.74772">
        <ele>1402.8</ele>
        <time>2025-07-15T05:36:11Z</time>
      </trkpt>
      <trkpt lat="44.19474" lon="6.74763">
        <ele>1401.8</ele>
        <time>2025-07-15T05:36:13Z</time>
      </trkpt>
      <trkpt lat="44.19483" lon="6.74761">
        <ele>1401.4</ele>
        <time>2025-07-15T05:36:14Z</time>
      </trkpt>
      <trkpt lat="44.19494" lon="6.74761">
        <ele>1400.8</ele>
        <time>2025-07-15T05:36:15Z</time>
      </trkpt>
      <trkpt lat="44.19515" lon="6.74764">
        <ele>1399.2</ele>
        <time>2025-07-15T05:36:17Z</time>
      </trkpt>
      <trkpt lat="44.19534" lon="6.74766">
        <ele>1397.4</ele>
        <time>2025-07-15T05:36:19Z</time>
      </trkpt>
      <trkpt lat="44.19542" lon="6.74764">
        <ele>1396.8</ele>
        <time>2025-07-15T05:36:20Z</time>
      </trkpt>
      <trkpt lat="44.19547" lon="6.74761">
        <ele>1396.2</ele>
        <time>2025-07-15T05:36:21Z</time>
      </trkpt>
      <trkpt lat="44.19553" lon="6.74753">
        <ele>1395.2</ele>
        <time>2025-07-15T05:36:22Z</time>
      </trkpt>
      <trkpt lat="44.19556" lon="6.74739">
        <ele>1394.4</ele>
        <time>2025-07-15T05:36:23Z</time>
      </trkpt>
      <trkpt lat="44.19556" lon="6.74726">
        <ele>1393.4</ele>
        <time>2025-07-15T05:36:24Z</time>
      </trkpt>
      <trkpt lat="44.19556" lon="6.74712">
        <ele>1392.2</ele>
        <time>2025-07-15T05:36:25Z</time>
      </trkpt>
      <trkpt lat="44.19554" lon="6.74686">
        <ele>1390.8</ele>
        <time>2025-07-15T05:36:27Z</time>
      </trkpt>
      <trkpt lat="44.19554" lon="6.74671">
        <ele>1390.4</ele>
        <time>2025-07-15T05:36:28Z</time>
      </trkpt>
      <trkpt lat="44.19555" lon="6.74658">
        <ele>1389.6</ele>
        <time>2025-07-15T05:36:29Z</time>
      </trkpt>
      <trkpt lat="44.19557" lon="6.74646">
        <ele>1389</ele>
        <time>2025-07-15T05:36:30Z</time>
      </trkpt>
      <trkpt lat="44.19561" lon="6.74634">
        <ele>1388</ele>
        <time>2025-07-15T05:36:31Z</time>
      </trkpt>
      <trkpt lat="44.19567" lon="6.74627">
        <ele>1387.2</ele>
        <time>2025-07-15T05:36:32Z</time>
      </trkpt>
      <trkpt lat="44.19575" lon="6.74625">
        <ele>1386.8</ele>
        <time>2025-07-15T05:36:33Z</time>
      </trkpt>
      <trkpt lat="44.19584" lon="6.74628">
        <ele>1386</ele>
        <time>2025-07-15T05:36:34Z</time>
      </trkpt>
      <trkpt lat="44.19593" lon="6.74634">
        <ele>1385.4</ele>
        <time>2025-07-15T05:36:35Z</time>
      </trkpt>
      <trkpt lat="44.19602" lon="6.7464">
        <ele>1384.6</ele>
        <time>2025-07-15T05:36:36Z</time>
      </trkpt>
      <trkpt lat="44.1961" lon="6.74646">
        <ele>1383.2</ele>
        <time>2025-07-15T05:36:37Z</time>
      </trkpt>
      <trkpt lat="44.19619" lon="6.74653">
        <ele>1382.6</ele>
        <time>2025-07-15T05:36:38Z</time>
      </trkpt>
      <trkpt lat="44.19623" lon="6.74659">
        <ele>1381.6</ele>
        <time>2025-07-15T05:36:39Z</time>
      </trkpt>
      <trkpt lat="44.19629" lon="6.74665">
        <ele>1381.4</ele>
        <time>2025-07-15T05:36:40Z</time>
      </trkpt>
      <trkpt lat="44.19635" lon="6.7467">
        <ele>1380.4</ele>
        <time>2025-07-15T05:36:41Z</time>
      </trkpt>
      <trkpt lat="44.19641" lon="6.74672">
        <ele>1379.6</ele>
        <time>2025-07-15T05:36:42Z</time>
      </trkpt>
      <trkpt lat="44.19646" lon="6.74671">
        <ele>1378.6</ele>
        <time>2025-07-15T05:36:43Z</time>
      </trkpt>
      <trkpt lat="44.1965" lon="6.74666">
        <ele>1378</ele>
        <time>2025-07-15T05:36:44Z</time>
      </trkpt>
      <trkpt lat="44.19651" lon="6.74659">
        <ele>1377.4</ele>
        <time>2025-07-15T05:36:45Z</time>
      </trkpt>
      <trkpt lat="44.19647" lon="6.74652">
        <ele>1376.8</ele>
        <time>2025-07-15T05:36:46Z</time>
      </trkpt>
      <trkpt lat="44.19641" lon="6.74645">
        <ele>1376.6</ele>
        <time>2025-07-15T05:36:47Z</time>
      </trkpt>
      <trkpt lat="44.19633" lon="6.7464">
        <ele>1376</ele>
        <time>2025-07-15T05:36:48Z</time>
      </trkpt>
      <trkpt lat="44.19627" lon="6.74635">
        <ele>1375.6</ele>
        <time>2025-07-15T05:36:49Z</time>
      </trkpt>
      <trkpt lat="44.19614" lon="6.74623">
        <ele>1374.8</ele>
        <time>2025-07-15T05:36:51Z</time>
      </trkpt>
      <trkpt lat="44.19591" lon="6.74603">
        <ele>1373.6</ele>
        <time>2025-07-15T05:36:54Z</time>
      </trkpt>
      <trkpt lat="44.19575" lon="6.74591">
        <ele>1372.4</ele>
        <time>2025-07-15T05:36:56Z</time>
      </trkpt>
      <trkpt lat="44.1956" lon="6.74586">
        <ele>1371</ele>
        <time>2025-07-15T05:36:58Z</time>
      </trkpt>
      <trkpt lat="44.19552" lon="6.74587">
        <ele>1370.6</ele>
        <time>2025-07-15T05:36:59Z</time>
      </trkpt>
      <trkpt lat="44.19544" lon="6.74594">
        <ele>1370</ele>
        <time>2025-07-15T05:37:00Z</time>
      </trkpt>
      <trkpt lat="44.1954" lon="6.74602">
        <ele>1369.2</ele>
        <time>2025-07-15T05:37:01Z</time>
      </trkpt>
      <trkpt lat="44.19537" lon="6.74613">
        <ele>1368.6</ele>
        <time>2025-07-15T05:37:02Z</time>
      </trkpt>
      <trkpt lat="44.19535" lon="6.74625">
        <ele>1367.8</ele>
        <time>2025-07-15T05:37:03Z</time>
      </trkpt>
      <trkpt lat="44.19534" lon="6.74636">
        <ele>1367.4</ele>
        <time>2025-07-15T05:37:04Z</time>
      </trkpt>
      <trkpt lat="44.19532" lon="6.74646">
        <ele>1367</ele>
        <time>2025-07-15T05:37:05Z</time>
      </trkpt>
      <trkpt lat="44.19522" lon="6.74659">
        <ele>1365.8</ele>
        <time>2025-07-15T05:37:07Z</time>
      </trkpt>
      <trkpt lat="44.19509" lon="6.74659">
        <ele>1364.6</ele>
        <time>2025-07-15T05:37:09Z</time>
      </trkpt>
      <trkpt lat="44.19499" lon="6.74643">
        <ele>1363.4</ele>
        <time>2025-07-15T05:37:11Z</time>
      </trkpt>
      <trkpt lat="44.19492" lon="6.74635">
        <ele>1362.4</ele>
        <time>2025-07-15T05:37:12Z</time>
      </trkpt>
      <trkpt lat="44.19486" lon="6.74632">
        <ele>1361.8</ele>
        <time>2025-07-15T05:37:13Z</time>
      </trkpt>
      <trkpt lat="44.19478" lon="6.74631">
        <ele>1361.6</ele>
        <time>2025-07-15T05:37:14Z</time>
      </trkpt>
      <trkpt lat="44.1947" lon="6.74635">
        <ele>1360.8</ele>
        <time>2025-07-15T05:37:15Z</time>
      </trkpt>
      <trkpt lat="44.1945" lon="6.74643">
        <ele>1359.2</ele>
        <time>2025-07-15T05:37:17Z</time>
      </trkpt>
      <trkpt lat="44.19432" lon="6.74643">
        <ele>1358.4</ele>
        <time>2025-07-15T05:37:19Z</time>
      </trkpt>
      <trkpt lat="44.19421" lon="6.7464">
        <ele>1357.8</ele>
        <time>2025-07-15T05:37:20Z</time>
      </trkpt>
      <trkpt lat="44.19404" lon="6.74637">
        <ele>1356.4</ele>
        <time>2025-07-15T05:37:22Z</time>
      </trkpt>
      <trkpt lat="44.19395" lon="6.74639">
        <ele>1355.8</ele>
        <time>2025-07-15T05:37:23Z</time>
      </trkpt>
      <trkpt lat="44.19387" lon="6.74643">
        <ele>1354.8</ele>
        <time>2025-07-15T05:37:24Z</time>
      </trkpt>
      <trkpt lat="44.19377" lon="6.74651">
        <ele>1353.6</ele>
        <time>2025-07-15T05:37:25Z</time>
      </trkpt>
      <trkpt lat="44.1937" lon="6.74656">
        <ele>1353</ele>
        <time>2025-07-15T05:37:26Z</time>
      </trkpt>
      <trkpt lat="44.19361" lon="6.74661">
        <ele>1352.2</ele>
        <time>2025-07-15T05:37:27Z</time>
      </trkpt>
      <trkpt lat="44.19341" lon="6.7467">
        <ele>1350.6</ele>
        <time>2025-07-15T05:37:29Z</time>
      </trkpt>
      <trkpt lat="44.19331" lon="6.74675">
        <ele>1350</ele>
        <time>2025-07-15T05:37:30Z</time>
      </trkpt>
      <trkpt lat="44.19322" lon="6.74682">
        <ele>1349.2</ele>
        <time>2025-07-15T05:37:31Z</time>
      </trkpt>
      <trkpt lat="44.19313" lon="6.7469">
        <ele>1347.8</ele>
        <time>2025-07-15T05:37:32Z</time>
      </trkpt>
      <trkpt lat="44.19297" lon="6.74708">
        <ele>1346</ele>
        <time>2025-07-15T05:37:34Z</time>
      </trkpt>
      <trkpt lat="44.19286" lon="6.74729">
        <ele>1344.2</ele>
        <time>2025-07-15T05:37:36Z</time>
      </trkpt>
      <trkpt lat="44.19281" lon="6.74739">
        <ele>1342.2</ele>
        <time>2025-07-15T05:37:37Z</time>
      </trkpt>
      <trkpt lat="44.19267" lon="6.74751">
        <ele>1340</ele>
        <time>2025-07-15T05:37:39Z</time>
      </trkpt>
      <trkpt lat="44.19256" lon="6.74753">
        <ele>1339.6</ele>
        <time>2025-07-15T05:37:40Z</time>
      </trkpt>
      <trkpt lat="44.19248" lon="6.74753">
        <ele>1338.8</ele>
        <time>2025-07-15T05:37:41Z</time>
      </trkpt>
      <trkpt lat="44.19229" lon="6.7475">
        <ele>1337.6</ele>
        <time>2025-07-15T05:37:43Z</time>
      </trkpt>
      <trkpt lat="44.19209" lon="6.74747">
        <ele>1336.2</ele>
        <time>2025-07-15T05:37:45Z</time>
      </trkpt>
      <trkpt lat="44.19199" lon="6.74745">
        <ele>1334.8</ele>
        <time>2025-07-15T05:37:46Z</time>
      </trkpt>
      <trkpt lat="44.1918" lon="6.74744">
        <ele>1333.8</ele>
        <time>2025-07-15T05:37:48Z</time>
      </trkpt>
      <trkpt lat="44.19164" lon="6.7475">
        <ele>1332.2</ele>
        <time>2025-07-15T05:37:50Z</time>
      </trkpt>
      <trkpt lat="44.19159" lon="6.74756">
        <ele>1331.2</ele>
        <time>2025-07-15T05:37:51Z</time>
      </trkpt>
      <trkpt lat="44.19143" lon="6.74775">
        <ele>1330</ele>
        <time>2025-07-15T05:37:53Z</time>
      </trkpt>
      <trkpt lat="44.19127" lon="6.74792">
        <ele>1328.6</ele>
        <time>2025-07-15T05:37:55Z</time>
      </trkpt>
      <trkpt lat="44.1912" lon="6.74799">
        <ele>1327.6</ele>
        <time>2025-07-15T05:37:56Z</time>
      </trkpt>
      <trkpt lat="44.19109" lon="6.7481">
        <ele>1327</ele>
        <time>2025-07-15T05:37:57Z</time>
      </trkpt>
      <trkpt lat="44.19101" lon="6.74818">
        <ele>1326.2</ele>
        <time>2025-07-15T05:37:58Z</time>
      </trkpt>
      <trkpt lat="44.19092" lon="6.74827">
        <ele>1325.6</ele>
        <time>2025-07-15T05:37:59Z</time>
      </trkpt>
      <trkpt lat="44.19082" lon="6.74834">
        <ele>1324.6</ele>
        <time>2025-07-15T05:38:00Z</time>
      </trkpt>
      <trkpt lat="44.19071" lon="6.74841">
        <ele>1323.4</ele>
        <time>2025-07-15T05:38:01Z</time>
      </trkpt>
      <trkpt lat="44.19048" lon="6.74857">
        <ele>1321.8</ele>
        <time>2025-07-15T05:38:03Z</time>
      </trkpt>
      <trkpt lat="44.1903" lon="6.74872">
        <ele>1319.8</ele>
        <time>2025-07-15T05:38:05Z</time>
      </trkpt>
      <trkpt lat="44.1902" lon="6.7488">
        <ele>1319.4</ele>
        <time>2025-07-15T05:38:06Z</time>
      </trkpt>
      <trkpt lat="44.19008" lon="6.74889">
        <ele>1318.2</ele>
        <time>2025-07-15T05:38:07Z</time>
      </trkpt>
      <trkpt lat="44.18998" lon="6.74894">
        <ele>1317.2</ele>
        <time>2025-07-15T05:38:08Z</time>
      </trkpt>
      <trkpt lat="44.18988" lon="6.74899">
        <ele>1316.8</ele>
        <time>2025-07-15T05:38:09Z</time>
      </trkpt>
      <trkpt lat="44.18981" lon="6.74903">
        <ele>1315.2</ele>
        <time>2025-07-15T05:38:10Z</time>
      </trkpt>
      <trkpt lat="44.18963" lon="6.74909">
        <ele>1313.8</ele>
        <time>2025-07-15T05:38:12Z</time>
      </trkpt>
      <trkpt lat="44.18952" lon="6.7491">
        <ele>1312.2</ele>
        <time>2025-07-15T05:38:13Z</time>
      </trkpt>
      <trkpt lat="44.18939" lon="6.74908">
        <ele>1310.8</ele>
        <time>2025-07-15T05:38:15Z</time>
      </trkpt>
      <trkpt lat="44.18925" lon="6.74902">
        <ele>1309.2</ele>
        <time>2025-07-15T05:38:17Z</time>
      </trkpt>
      <trkpt lat="44.18918" lon="6.74898">
        <ele>1308</ele>
        <time>2025-07-15T05:38:18Z</time>
      </trkpt>
      <trkpt lat="44.18913" lon="6.74894">
        <ele>1307.8</ele>
        <time>2025-07-15T05:38:19Z</time>
      </trkpt>
      <trkpt lat="44.18905" lon="6.74889">
        <ele>1306.2</ele>
        <time>2025-07-15T05:38:20Z</time>
      </trkpt>
      <trkpt lat="44.18892" lon="6.74881">
        <ele>1304.8</ele>
        <time>2025-07-15T05:38:22Z</time>
      </trkpt>
      <trkpt lat="44.18878" lon="6.74874">
        <ele>1303.6</ele>
        <time>2025-07-15T05:38:24Z</time>
      </trkpt>
      <trkpt lat="44.18862" lon="6.74868">
        <ele>1302.4</ele>
        <time>2025-07-15T05:38:26Z</time>
      </trkpt>
      <trkpt lat="44.18848" lon="6.74863">
        <ele>1301.4</ele>
        <time>2025-07-15T05:38:28Z</time>
      </trkpt>
      <trkpt lat="44.18835" lon="6.74858">
        <ele>1300.2</ele>
        <time>2025-07-15T05:38:30Z</time>
      </trkpt>
      <trkpt lat="44.18811" lon="6.74848">
        <ele>1298.6</ele>
        <time>2025-07-15T05:38:34Z</time>
      </trkpt>
      <trkpt lat="44.18798" lon="6.74842">
        <ele>1297.8</ele>
        <time>2025-07-15T05:38:36Z</time>
      </trkpt>
      <trkpt lat="44.18791" lon="6.74837">
        <ele>1297</ele>
        <time>2025-07-15T05:38:37Z</time>
      </trkpt>
      <trkpt lat="44.18776" lon="6.74826">
        <ele>1296.4</ele>
        <time>2025-07-15T05:38:39Z</time>
      </trkpt>
      <trkpt lat="44.18771" lon="6.74821">
        <ele>1296.2</ele>
        <time>2025-07-15T05:38:40Z</time>
      </trkpt>
      <trkpt lat="44.18764" lon="6.74814">
        <ele>1295.2</ele>
        <time>2025-07-15T05:38:41Z</time>
      </trkpt>
      <trkpt lat="44.18747" lon="6.74795">
        <ele>1294</ele>
        <time>2025-07-15T05:38:44Z</time>
      </trkpt>
      <trkpt lat="44.18741" lon="6.74789">
        <ele>1293.8</ele>
        <time>2025-07-15T05:38:45Z</time>
      </trkpt>
      <trkpt lat="44.18734" lon="6.74784">
        <ele>1293.4</ele>
        <time>2025-07-15T05:38:46Z</time>
      </trkpt>
      <trkpt lat="44.18719" lon="6.74777">
        <ele>1292.8</ele>
        <time>2025-07-15T05:38:48Z</time>
      </trkpt>
      <trkpt lat="44.18705" lon="6.74774">
        <ele>1292.4</ele>
        <time>2025-07-15T05:38:50Z</time>
      </trkpt>
      <trkpt lat="44.18697" lon="6.74775">
        <ele>1292.2</ele>
        <time>2025-07-15T05:38:51Z</time>
      </trkpt>
      <trkpt lat="44.18691" lon="6.74776">
        <ele>1292.2</ele>
        <time>2025-07-15T05:38:52Z</time>
      </trkpt>
      <trkpt lat="44.18684" lon="6.74779">
        <ele>1292</ele>
        <time>2025-07-15T05:38:53Z</time>
      </trkpt>
      <trkpt lat="44.1867" lon="6.74788">
        <ele>1291.8</ele>
        <time>2025-07-15T05:38:55Z</time>
      </trkpt>
      <trkpt lat="44.18665" lon="6.74792">
        <ele>1291.6</ele>
        <time>2025-07-15T05:38:56Z</time>
      </trkpt>
      <trkpt lat="44.18646" lon="6.74803">
        <ele>1291</ele>
        <time>2025-07-15T05:38:59Z</time>
      </trkpt>
      <trkpt lat="44.18638" lon="6.74806">
        <ele>1290.6</ele>
        <time>2025-07-15T05:39:00Z</time>
      </trkpt>
      <trkpt lat="44.18618" lon="6.74815">
        <ele>1289.4</ele>
        <time>2025-07-15T05:39:03Z</time>
      </trkpt>
      <trkpt lat="44.18595" lon="6.74825">
        <ele>1288.8</ele>
        <time>2025-07-15T05:39:06Z</time>
      </trkpt>
      <trkpt lat="44.18571" lon="6.74837">
        <ele>1288.4</ele>
        <time>2025-07-15T05:39:09Z</time>
      </trkpt>
      <trkpt lat="44.18555" lon="6.74845">
        <ele>1288</ele>
        <time>2025-07-15T05:39:11Z</time>
      </trkpt>
      <trkpt lat="44.18538" lon="6.74852">
        <ele>1287.4</ele>
        <time>2025-07-15T05:39:13Z</time>
      </trkpt>
      <trkpt lat="44.18513" lon="6.74863">
        <ele>1286.2</ele>
        <time>2025-07-15T05:39:16Z</time>
      </trkpt>
      <trkpt lat="44.18502" lon="6.74867">
        <ele>1285.6</ele>
        <time>2025-07-15T05:39:17Z</time>
      </trkpt>
      <trkpt lat="44.18495" lon="6.7487">
        <ele>1285.2</ele>
        <time>2025-07-15T05:39:18Z</time>
      </trkpt>
      <trkpt lat="44.18469" lon="6.74881">
        <ele>1284</ele>
        <time>2025-07-15T05:39:21Z</time>
      </trkpt>
      <trkpt lat="44.1844" lon="6.74892">
        <ele>1283.2</ele>
        <time>2025-07-15T05:39:24Z</time>
      </trkpt>
      <trkpt lat="44.18414" lon="6.749">
        <ele>1282</ele>
        <time>2025-07-15T05:39:27Z</time>
      </trkpt>
      <trkpt lat="44.18386" lon="6.74904">
        <ele>1280.6</ele>
        <time>2025-07-15T05:39:30Z</time>
      </trkpt>
      <trkpt lat="44.18366" lon="6.74903">
        <ele>1279.4</ele>
        <time>2025-07-15T05:39:32Z</time>
      </trkpt>
      <trkpt lat="44.18346" lon="6.749">
        <ele>1278.4</ele>
        <time>2025-07-15T05:39:34Z</time>
      </trkpt>
      <trkpt lat="44.18336" lon="6.74898">
        <ele>1278</ele>
        <time>2025-07-15T05:39:35Z</time>
      </trkpt>
      <trkpt lat="44.18314" lon="6.74892">
        <ele>1277.4</ele>
        <time>2025-07-15T05:39:37Z</time>
      </trkpt>
      <trkpt lat="44.18295" lon="6.7488">
        <ele>1276.4</ele>
        <time>2025-07-15T05:39:39Z</time>
      </trkpt>
      <trkpt lat="44.18286" lon="6.74873">
        <ele>1276.2</ele>
        <time>2025-07-15T05:39:40Z</time>
      </trkpt>
      <trkpt lat="44.18268" lon="6.7486">
        <ele>1275</ele>
        <time>2025-07-15T05:39:42Z</time>
      </trkpt>
      <trkpt lat="44.18232" lon="6.74834">
        <ele>1273.8</ele>
        <time>2025-07-15T05:39:46Z</time>
      </trkpt>
      <trkpt lat="44.18217" lon="6.74823">
        <ele>1273</ele>
        <time>2025-07-15T05:39:48Z</time>
      </trkpt>
      <trkpt lat="44.18208" lon="6.74816">
        <ele>1272.6</ele>
        <time>2025-07-15T05:39:49Z</time>
      </trkpt>
      <trkpt lat="44.1819" lon="6.74809">
        <ele>1272.2</ele>
        <time>2025-07-15T05:39:51Z</time>
      </trkpt>
      <trkpt lat="44.18174" lon="6.74812">
        <ele>1271.4</ele>
        <time>2025-07-15T05:39:53Z</time>
      </trkpt>
      <trkpt lat="44.18165" lon="6.74815">
        <ele>1271</ele>
        <time>2025-07-15T05:39:54Z</time>
      </trkpt>
      <trkpt lat="44.18155" lon="6.74822">
        <ele>1271</ele>
        <time>2025-07-15T05:39:55Z</time>
      </trkpt>
      <trkpt lat="44.18138" lon="6.74836">
        <ele>1270.4</ele>
        <time>2025-07-15T05:39:57Z</time>
      </trkpt>
      <trkpt lat="44.18131" lon="6.74842">
        <ele>1270</ele>
        <time>2025-07-15T05:39:58Z</time>
      </trkpt>
      <trkpt lat="44.18122" lon="6.74849">
        <ele>1269.6</ele>
        <time>2025-07-15T05:39:59Z</time>
      </trkpt>
      <trkpt lat="44.18103" lon="6.74859">
        <ele>1269.2</ele>
        <time>2025-07-15T05:40:01Z</time>
      </trkpt>
      <trkpt lat="44.18093" lon="6.74863">
        <ele>1268.8</ele>
        <time>2025-07-15T05:40:02Z</time>
      </trkpt>
      <trkpt lat="44.18083" lon="6.74868">
        <ele>1268.2</ele>
        <time>2025-07-15T05:40:03Z</time>
      </trkpt>
      <trkpt lat="44.18056" lon="6.74883">
        <ele>1267.4</ele>
        <time>2025-07-15T05:40:06Z</time>
      </trkpt>
      <trkpt lat="44.18047" lon="6.74886">
        <ele>1267</ele>
        <time>2025-07-15T05:40:07Z</time>
      </trkpt>
      <trkpt lat="44.18008" lon="6.74897">
        <ele>1265.6</ele>
        <time>2025-07-15T05:40:11Z</time>
      </trkpt>
      <trkpt lat="44.17998" lon="6.74898">
        <ele>1265.4</ele>
        <time>2025-07-15T05:40:12Z</time>
      </trkpt>
      <trkpt lat="44.17981" lon="6.74896">
        <ele>1265.4</ele>
        <time>2025-07-15T05:40:14Z</time>
      </trkpt>
      <trkpt lat="44.17971" lon="6.74894">
        <ele>1265.2</ele>
        <time>2025-07-15T05:40:15Z</time>
      </trkpt>
      <trkpt lat="44.17952" lon="6.7489">
        <ele>1264.6</ele>
        <time>2025-07-15T05:40:17Z</time>
      </trkpt>
      <trkpt lat="44.17931" lon="6.74889">
        <ele>1264</ele>
        <time>2025-07-15T05:40:19Z</time>
      </trkpt>
      <trkpt lat="44.17921" lon="6.74891">
        <ele>1263.6</ele>
        <time>2025-07-15T05:40:20Z</time>
      </trkpt>
      <trkpt lat="44.1788" lon="6.74894">
        <ele>1262.6</ele>
        <time>2025-07-15T05:40:24Z</time>
      </trkpt>
      <trkpt lat="44.17862" lon="6.74895">
        <ele>1262</ele>
        <time>2025-07-15T05:40:26Z</time>
      </trkpt>
      <trkpt lat="44.17853" lon="6.74896">
        <ele>1261.4</ele>
        <time>2025-07-15T05:40:27Z</time>
      </trkpt>
      <trkpt lat="44.17834" lon="6.74897">
        <ele>1260.8</ele>
        <time>2025-07-15T05:40:29Z</time>
      </trkpt>
      <trkpt lat="44.17824" lon="6.74895">
        <ele>1260.2</ele>
        <time>2025-07-15T05:40:30Z</time>
      </trkpt>
      <trkpt lat="44.17815" lon="6.7489">
        <ele>1259.8</ele>
        <time>2025-07-15T05:40:31Z</time>
      </trkpt>
      <trkpt lat="44.17801" lon="6.74875">
        <ele>1259.4</ele>
        <time>2025-07-15T05:40:33Z</time>
      </trkpt>
      <trkpt lat="44.17796" lon="6.74864">
        <ele>1259</ele>
        <time>2025-07-15T05:40:34Z</time>
      </trkpt>
      <trkpt lat="44.17787" lon="6.74841">
        <ele>1258.4</ele>
        <time>2025-07-15T05:40:36Z</time>
      </trkpt>
      <trkpt lat="44.17773" lon="6.74823">
        <ele>1257.8</ele>
        <time>2025-07-15T05:40:38Z</time>
      </trkpt>
      <trkpt lat="44.17757" lon="6.74815">
        <ele>1257.6</ele>
        <time>2025-07-15T05:40:40Z</time>
      </trkpt>
      <trkpt lat="44.17748" lon="6.74818">
        <ele>1257.4</ele>
        <time>2025-07-15T05:40:41Z</time>
      </trkpt>
      <trkpt lat="44.17738" lon="6.74821">
        <ele>1257.2</ele>
        <time>2025-07-15T05:40:42Z</time>
      </trkpt>
      <trkpt lat="44.1772" lon="6.74829">
        <ele>1256.8</ele>
        <time>2025-07-15T05:40:44Z</time>
      </trkpt>
      <trkpt lat="44.17681" lon="6.74843">
        <ele>1255.8</ele>
        <time>2025-07-15T05:40:48Z</time>
      </trkpt>
      <trkpt lat="44.17673" lon="6.74849">
        <ele>1255.4</ele>
        <time>2025-07-15T05:40:49Z</time>
      </trkpt>
      <trkpt lat="44.17664" lon="6.74857">
        <ele>1255.2</ele>
        <time>2025-07-15T05:40:50Z</time>
      </trkpt>
      <trkpt lat="44.17656" lon="6.74865">
        <ele>1254.8</ele>
        <time>2025-07-15T05:40:51Z</time>
      </trkpt>
      <trkpt lat="44.17638" lon="6.74879">
        <ele>1254.2</ele>
        <time>2025-07-15T05:40:53Z</time>
      </trkpt>
      <trkpt lat="44.17629" lon="6.74887">
        <ele>1254</ele>
        <time>2025-07-15T05:40:54Z</time>
      </trkpt>
      <trkpt lat="44.17601" lon="6.74908">
        <ele>1252.8</ele>
        <time>2025-07-15T05:40:57Z</time>
      </trkpt>
      <trkpt lat="44.17589" lon="6.74915">
        <ele>1252.6</ele>
        <time>2025-07-15T05:40:58Z</time>
      </trkpt>
      <trkpt lat="44.17581" lon="6.74918">
        <ele>1251.8</ele>
        <time>2025-07-15T05:40:59Z</time>
      </trkpt>
      <trkpt lat="44.17571" lon="6.7492">
        <ele>1251.6</ele>
        <time>2025-07-15T05:41:00Z</time>
      </trkpt>
      <trkpt lat="44.1756" lon="6.74923">
        <ele>1250.8</ele>
        <time>2025-07-15T05:41:01Z</time>
      </trkpt>
      <trkpt lat="44.17551" lon="6.74926">
        <ele>1250.4</ele>
        <time>2025-07-15T05:41:02Z</time>
      </trkpt>
      <trkpt lat="44.17544" lon="6.7493">
        <ele>1250</ele>
        <time>2025-07-15T05:41:03Z</time>
      </trkpt>
      <trkpt lat="44.17525" lon="6.7494">
        <ele>1249.6</ele>
        <time>2025-07-15T05:41:05Z</time>
      </trkpt>
      <trkpt lat="44.17508" lon="6.74944">
        <ele>1249.2</ele>
        <time>2025-07-15T05:41:07Z</time>
      </trkpt>
      <trkpt lat="44.17498" lon="6.74945">
        <ele>1249</ele>
        <time>2025-07-15T05:41:08Z</time>
      </trkpt>
      <trkpt lat="44.1748" lon="6.74948">
        <ele>1249</ele>
        <time>2025-07-15T05:41:10Z</time>
      </trkpt>
      <trkpt lat="44.17471" lon="6.74953">
        <ele>1248.6</ele>
        <time>2025-07-15T05:41:11Z</time>
      </trkpt>
      <trkpt lat="44.1746" lon="6.7496">
        <ele>1248.2</ele>
        <time>2025-07-15T05:41:12Z</time>
      </trkpt>
      <trkpt lat="44.17454" lon="6.74967">
        <ele>1247.2</ele>
        <time>2025-07-15T05:41:13Z</time>
      </trkpt>
      <trkpt lat="44.1743" lon="6.74997">
        <ele>1245.6</ele>
        <time>2025-07-15T05:41:16Z</time>
      </trkpt>
      <trkpt lat="44.17423" lon="6.75006">
        <ele>1245.2</ele>
        <time>2025-07-15T05:41:17Z</time>
      </trkpt>
      <trkpt lat="44.17413" lon="6.75011">
        <ele>1244.6</ele>
        <time>2025-07-15T05:41:18Z</time>
      </trkpt>
      <trkpt lat="44.17403" lon="6.75014">
        <ele>1244.2</ele>
        <time>2025-07-15T05:41:19Z</time>
      </trkpt>
      <trkpt lat="44.17393" lon="6.75015">
        <ele>1243.4</ele>
        <time>2025-07-15T05:41:20Z</time>
      </trkpt>
      <trkpt lat="44.17382" lon="6.75018">
        <ele>1242.8</ele>
        <time>2025-07-15T05:41:21Z</time>
      </trkpt>
      <trkpt lat="44.1737" lon="6.75022">
        <ele>1242.4</ele>
        <time>2025-07-15T05:41:22Z</time>
      </trkpt>
      <trkpt lat="44.17362" lon="6.75024">
        <ele>1241.6</ele>
        <time>2025-07-15T05:41:23Z</time>
      </trkpt>
      <trkpt lat="44.1735" lon="6.75025">
        <ele>1241.2</ele>
        <time>2025-07-15T05:41:24Z</time>
      </trkpt>
      <trkpt lat="44.17332" lon="6.7502">
        <ele>1240</ele>
        <time>2025-07-15T05:41:26Z</time>
      </trkpt>
      <trkpt lat="44.17322" lon="6.75014">
        <ele>1239.6</ele>
        <time>2025-07-15T05:41:27Z</time>
      </trkpt>
      <trkpt lat="44.1731" lon="6.75006">
        <ele>1238.8</ele>
        <time>2025-07-15T05:41:28Z</time>
      </trkpt>
      <trkpt lat="44.17302" lon="6.75001">
        <ele>1238.4</ele>
        <time>2025-07-15T05:41:29Z</time>
      </trkpt>
      <trkpt lat="44.17291" lon="6.74995">
        <ele>1237.4</ele>
        <time>2025-07-15T05:41:30Z</time>
      </trkpt>
      <trkpt lat="44.17279" lon="6.74991">
        <ele>1236.8</ele>
        <time>2025-07-15T05:41:31Z</time>
      </trkpt>
      <trkpt lat="44.17268" lon="6.74989">
        <ele>1235.6</ele>
        <time>2025-07-15T05:41:32Z</time>
      </trkpt>
      <trkpt lat="44.17245" lon="6.74991">
        <ele>1234.6</ele>
        <time>2025-07-15T05:41:34Z</time>
      </trkpt>
      <trkpt lat="44.17234" lon="6.74995">
        <ele>1233.4</ele>
        <time>2025-07-15T05:41:35Z</time>
      </trkpt>
      <trkpt lat="44.17213" lon="6.75007">
        <ele>1232.2</ele>
        <time>2025-07-15T05:41:37Z</time>
      </trkpt>
      <trkpt lat="44.17184" lon="6.75028">
        <ele>1230.8</ele>
        <time>2025-07-15T05:41:40Z</time>
      </trkpt>
      <trkpt lat="44.17166" lon="6.75045">
        <ele>1230.2</ele>
        <time>2025-07-15T05:41:42Z</time>
      </trkpt>
      <trkpt lat="44.17158" lon="6.75055">
        <ele>1229.6</ele>
        <time>2025-07-15T05:41:43Z</time>
      </trkpt>
      <trkpt lat="44.17141" lon="6.75077">
        <ele>1228.2</ele>
        <time>2025-07-15T05:41:45Z</time>
      </trkpt>
      <trkpt lat="44.17134" lon="6.75085">
        <ele>1228</ele>
        <time>2025-07-15T05:41:46Z</time>
      </trkpt>
      <trkpt lat="44.17124" lon="6.75092">
        <ele>1227.4</ele>
        <time>2025-07-15T05:41:47Z</time>
      </trkpt>
      <trkpt lat="44.17114" lon="6.75096">
        <ele>1227.2</ele>
        <time>2025-07-15T05:41:48Z</time>
      </trkpt>
      <trkpt lat="44.17093" lon="6.75102">
        <ele>1226.4</ele>
        <time>2025-07-15T05:41:50Z</time>
      </trkpt>
      <trkpt lat="44.17073" lon="6.75114">
        <ele>1225.6</ele>
        <time>2025-07-15T05:41:52Z</time>
      </trkpt>
      <trkpt lat="44.17053" lon="6.75125">
        <ele>1224.6</ele>
        <time>2025-07-15T05:41:54Z</time>
      </trkpt>
      <trkpt lat="44.17023" lon="6.75138">
        <ele>1223</ele>
        <time>2025-07-15T05:41:57Z</time>
      </trkpt>
      <trkpt lat="44.17002" lon="6.75146">
        <ele>1222.2</ele>
        <time>2025-07-15T05:41:59Z</time>
      </trkpt>
      <trkpt lat="44.16991" lon="6.75149">
        <ele>1221.8</ele>
        <time>2025-07-15T05:42:00Z</time>
      </trkpt>
      <trkpt lat="44.1698" lon="6.75151">
        <ele>1221</ele>
        <time>2025-07-15T05:42:01Z</time>
      </trkpt>
      <trkpt lat="44.1697" lon="6.7515">
        <ele>1220.6</ele>
        <time>2025-07-15T05:42:02Z</time>
      </trkpt>
      <trkpt lat="44.16948" lon="6.75148">
        <ele>1219.6</ele>
        <time>2025-07-15T05:42:04Z</time>
      </trkpt>
      <trkpt lat="44.16937" lon="6.75148">
        <ele>1219.2</ele>
        <time>2025-07-15T05:42:05Z</time>
      </trkpt>
      <trkpt lat="44.16926" lon="6.75149">
        <ele>1218.2</ele>
        <time>2025-07-15T05:42:06Z</time>
      </trkpt>
      <trkpt lat="44.16893" lon="6.75152">
        <ele>1216.8</ele>
        <time>2025-07-15T05:42:09Z</time>
      </trkpt>
      <trkpt lat="44.1686" lon="6.75154">
        <ele>1215.8</ele>
        <time>2025-07-15T05:42:12Z</time>
      </trkpt>
      <trkpt lat="44.16838" lon="6.75158">
        <ele>1214.6</ele>
        <time>2025-07-15T05:42:14Z</time>
      </trkpt>
      <trkpt lat="44.16817" lon="6.75165">
        <ele>1213.6</ele>
        <time>2025-07-15T05:42:16Z</time>
      </trkpt>
      <trkpt lat="44.16807" lon="6.7517">
        <ele>1213.2</ele>
        <time>2025-07-15T05:42:17Z</time>
      </trkpt>
      <trkpt lat="44.16786" lon="6.75178">
        <ele>1212.6</ele>
        <time>2025-07-15T05:42:19Z</time>
      </trkpt>
      <trkpt lat="44.16776" lon="6.7518">
        <ele>1212.2</ele>
        <time>2025-07-15T05:42:20Z</time>
      </trkpt>
      <trkpt lat="44.16765" lon="6.75184">
        <ele>1211.6</ele>
        <time>2025-07-15T05:42:21Z</time>
      </trkpt>
      <trkpt lat="44.16756" lon="6.75188">
        <ele>1211</ele>
        <time>2025-07-15T05:42:22Z</time>
      </trkpt>
      <trkpt lat="44.16746" lon="6.75194">
        <ele>1210.4</ele>
        <time>2025-07-15T05:42:23Z</time>
      </trkpt>
      <trkpt lat="44.16728" lon="6.75208">
        <ele>1210</ele>
        <time>2025-07-15T05:42:25Z</time>
      </trkpt>
      <trkpt lat="44.16702" lon="6.75235">
        <ele>1208.6</ele>
        <time>2025-07-15T05:42:28Z</time>
      </trkpt>
      <trkpt lat="44.16692" lon="6.75243">
        <ele>1208.2</ele>
        <time>2025-07-15T05:42:29Z</time>
      </trkpt>
      <trkpt lat="44.16672" lon="6.75257">
        <ele>1207</ele>
        <time>2025-07-15T05:42:31Z</time>
      </trkpt>
      <trkpt lat="44.16652" lon="6.75269">
        <ele>1206</ele>
        <time>2025-07-15T05:42:33Z</time>
      </trkpt>
      <trkpt lat="44.16642" lon="6.75275">
        <ele>1205.6</ele>
        <time>2025-07-15T05:42:34Z</time>
      </trkpt>
      <trkpt lat="44.16619" lon="6.75293">
        <ele>1204.4</ele>
        <time>2025-07-15T05:42:36Z</time>
      </trkpt>
      <trkpt lat="44.16612" lon="6.75301">
        <ele>1204</ele>
        <time>2025-07-15T05:42:37Z</time>
      </trkpt>
      <trkpt lat="44.16602" lon="6.75309">
        <ele>1203.4</ele>
        <time>2025-07-15T05:42:38Z</time>
      </trkpt>
      <trkpt lat="44.16582" lon="6.75322">
        <ele>1202.4</ele>
        <time>2025-07-15T05:42:40Z</time>
      </trkpt>
      <trkpt lat="44.16571" lon="6.75326">
        <ele>1202.2</ele>
        <time>2025-07-15T05:42:41Z</time>
      </trkpt>
      <trkpt lat="44.1655" lon="6.7533">
        <ele>1201</ele>
        <time>2025-07-15T05:42:43Z</time>
      </trkpt>
      <trkpt lat="44.16539" lon="6.75332">
        <ele>1200.6</ele>
        <time>2025-07-15T05:42:44Z</time>
      </trkpt>
      <trkpt lat="44.16528" lon="6.75335">
        <ele>1199.8</ele>
        <time>2025-07-15T05:42:45Z</time>
      </trkpt>
      <trkpt lat="44.16507" lon="6.7534">
        <ele>1199</ele>
        <time>2025-07-15T05:42:47Z</time>
      </trkpt>
      <trkpt lat="44.16485" lon="6.75348">
        <ele>1198</ele>
        <time>2025-07-15T05:42:49Z</time>
      </trkpt>
      <trkpt lat="44.16474" lon="6.75352">
        <ele>1197.4</ele>
        <time>2025-07-15T05:42:50Z</time>
      </trkpt>
      <trkpt lat="44.16452" lon="6.75362">
        <ele>1196.2</ele>
        <time>2025-07-15T05:42:52Z</time>
      </trkpt>
      <trkpt lat="44.16419" lon="6.75372">
        <ele>1194.6</ele>
        <time>2025-07-15T05:42:55Z</time>
      </trkpt>
      <trkpt lat="44.16398" lon="6.75377">
        <ele>1193.8</ele>
        <time>2025-07-15T05:42:57Z</time>
      </trkpt>
      <trkpt lat="44.16389" lon="6.75381">
        <ele>1193.4</ele>
        <time>2025-07-15T05:42:58Z</time>
      </trkpt>
      <trkpt lat="44.1638" lon="6.75386">
        <ele>1192.8</ele>
        <time>2025-07-15T05:42:59Z</time>
      </trkpt>
      <trkpt lat="44.16371" lon="6.7539">
        <ele>1192</ele>
        <time>2025-07-15T05:43:00Z</time>
      </trkpt>
      <trkpt lat="44.16353" lon="6.75391">
        <ele>1191</ele>
        <time>2025-07-15T05:43:02Z</time>
      </trkpt>
      <trkpt lat="44.16337" lon="6.75379">
        <ele>1190.2</ele>
        <time>2025-07-15T05:43:04Z</time>
      </trkpt>
      <trkpt lat="44.1633" lon="6.75369">
        <ele>1189.2</ele>
        <time>2025-07-15T05:43:05Z</time>
      </trkpt>
      <trkpt lat="44.16316" lon="6.75349">
        <ele>1188</ele>
        <time>2025-07-15T05:43:07Z</time>
      </trkpt>
      <trkpt lat="44.16307" lon="6.75343">
        <ele>1187.4</ele>
        <time>2025-07-15T05:43:08Z</time>
      </trkpt>
      <trkpt lat="44.16298" lon="6.75341">
        <ele>1187</ele>
        <time>2025-07-15T05:43:09Z</time>
      </trkpt>
      <trkpt lat="44.1629" lon="6.75343">
        <ele>1186.6</ele>
        <time>2025-07-15T05:43:10Z</time>
      </trkpt>
      <trkpt lat="44.16282" lon="6.75349">
        <ele>1186.2</ele>
        <time>2025-07-15T05:43:11Z</time>
      </trkpt>
      <trkpt lat="44.16276" lon="6.75357">
        <ele>1185.4</ele>
        <time>2025-07-15T05:43:12Z</time>
      </trkpt>
      <trkpt lat="44.16272" lon="6.75366">
        <ele>1185.2</ele>
        <time>2025-07-15T05:43:13Z</time>
      </trkpt>
      <trkpt lat="44.16268" lon="6.75388">
        <ele>1184.4</ele>
        <time>2025-07-15T05:43:15Z</time>
      </trkpt>
      <trkpt lat="44.1627" lon="6.75399">
        <ele>1184</ele>
        <time>2025-07-15T05:43:16Z</time>
      </trkpt>
      <trkpt lat="44.16274" lon="6.75427">
        <ele>1183.4</ele>
        <time>2025-07-15T05:43:18Z</time>
      </trkpt>
      <trkpt lat="44.16277" lon="6.75451">
        <ele>1183.2</ele>
        <time>2025-07-15T05:43:20Z</time>
      </trkpt>
      <trkpt lat="44.16278" lon="6.75465">
        <ele>1183</ele>
        <time>2025-07-15T05:43:21Z</time>
      </trkpt>
      <trkpt lat="44.16281" lon="6.75503">
        <ele>1182</ele>
        <time>2025-07-15T05:43:24Z</time>
      </trkpt>
      <trkpt lat="44.16278" lon="6.75515">
        <ele>1181.6</ele>
        <time>2025-07-15T05:43:25Z</time>
      </trkpt>
      <trkpt lat="44.16273" lon="6.75525">
        <ele>1181.2</ele>
        <time>2025-07-15T05:43:26Z</time>
      </trkpt>
      <trkpt lat="44.16257" lon="6.75543">
        <ele>1180.6</ele>
        <time>2025-07-15T05:43:28Z</time>
      </trkpt>
      <trkpt lat="44.1625" lon="6.75547">
        <ele>1180.2</ele>
        <time>2025-07-15T05:43:29Z</time>
      </trkpt>
      <trkpt lat="44.16241" lon="6.75552">
        <ele>1180</ele>
        <time>2025-07-15T05:43:30Z</time>
      </trkpt>
      <trkpt lat="44.16223" lon="6.7556">
        <ele>1179.2</ele>
        <time>2025-07-15T05:43:32Z</time>
      </trkpt>
      <trkpt lat="44.16205" lon="6.75567">
        <ele>1178.2</ele>
        <time>2025-07-15T05:43:34Z</time>
      </trkpt>
      <trkpt lat="44.16169" lon="6.75581">
        <ele>1177</ele>
        <time>2025-07-15T05:43:38Z</time>
      </trkpt>
      <trkpt lat="44.1616" lon="6.75587">
        <ele>1176.6</ele>
        <time>2025-07-15T05:43:39Z</time>
      </trkpt>
      <trkpt lat="44.16152" lon="6.75594">
        <ele>1176.6</ele>
        <time>2025-07-15T05:43:40Z</time>
      </trkpt>
      <trkpt lat="44.16144" lon="6.75601">
        <ele>1176</ele>
        <time>2025-07-15T05:43:41Z</time>
      </trkpt>
      <trkpt lat="44.1611" lon="6.75629">
        <ele>1174.4</ele>
        <time>2025-07-15T05:43:45Z</time>
      </trkpt>
      <trkpt lat="44.16093" lon="6.75642">
        <ele>1173.6</ele>
        <time>2025-07-15T05:43:47Z</time>
      </trkpt>
      <trkpt lat="44.16085" lon="6.75649">
        <ele>1173.2</ele>
        <time>2025-07-15T05:43:48Z</time>
      </trkpt>
      <trkpt lat="44.16061" lon="6.75673">
        <ele>1172</ele>
        <time>2025-07-15T05:43:51Z</time>
      </trkpt>
      <trkpt lat="44.16054" lon="6.75683">
        <ele>1172</ele>
        <time>2025-07-15T05:43:52Z</time>
      </trkpt>
      <trkpt lat="44.16049" lon="6.75694">
        <ele>1171.6</ele>
        <time>2025-07-15T05:43:53Z</time>
      </trkpt>
      <trkpt lat="44.1604" lon="6.75717">
        <ele>1170.8</ele>
        <time>2025-07-15T05:43:55Z</time>
      </trkpt>
      <trkpt lat="44.16024" lon="6.75735">
        <ele>1170.2</ele>
        <time>2025-07-15T05:43:57Z</time>
      </trkpt>
      <trkpt lat="44.16015" lon="6.7574">
        <ele>1169.6</ele>
        <time>2025-07-15T05:43:58Z</time>
      </trkpt>
      <trkpt lat="44.16005" lon="6.75744">
        <ele>1169.4</ele>
        <time>2025-07-15T05:43:59Z</time>
      </trkpt>
      <trkpt lat="44.15985" lon="6.75744">
        <ele>1168.4</ele>
        <time>2025-07-15T05:44:01Z</time>
      </trkpt>
      <trkpt lat="44.15964" lon="6.75742">
        <ele>1167.2</ele>
        <time>2025-07-15T05:44:03Z</time>
      </trkpt>
      <trkpt lat="44.15954" lon="6.75742">
        <ele>1167</ele>
        <time>2025-07-15T05:44:04Z</time>
      </trkpt>
      <trkpt lat="44.15943" lon="6.75743">
        <ele>1166.6</ele>
        <time>2025-07-15T05:44:05Z</time>
      </trkpt>
      <trkpt lat="44.1592" lon="6.75745">
        <ele>1166</ele>
        <time>2025-07-15T05:44:07Z</time>
      </trkpt>
      <trkpt lat="44.15909" lon="6.75744">
        <ele>1165.2</ele>
        <time>2025-07-15T05:44:08Z</time>
      </trkpt>
      <trkpt lat="44.15898" lon="6.75741">
        <ele>1164.8</ele>
        <time>2025-07-15T05:44:09Z</time>
      </trkpt>
      <trkpt lat="44.15885" lon="6.75735">
        <ele>1164.2</ele>
        <time>2025-07-15T05:44:10Z</time>
      </trkpt>
      <trkpt lat="44.15865" lon="6.75727">
        <ele>1163</ele>
        <time>2025-07-15T05:44:12Z</time>
      </trkpt>
      <trkpt lat="44.15853" lon="6.75725">
        <ele>1162.6</ele>
        <time>2025-07-15T05:44:13Z</time>
      </trkpt>
      <trkpt lat="44.15841" lon="6.75723">
        <ele>1161.8</ele>
        <time>2025-07-15T05:44:14Z</time>
      </trkpt>
      <trkpt lat="44.15829" lon="6.75722">
        <ele>1160.8</ele>
        <time>2025-07-15T05:44:15Z</time>
      </trkpt>
      <trkpt lat="44.15802" lon="6.7572">
        <ele>1159</ele>
        <time>2025-07-15T05:44:17Z</time>
      </trkpt>
      <trkpt lat="44.15543" lon="6.7572">
        <ele>1144.4</ele>
        <time>2025-07-15T05:44:39Z</time>
      </trkpt>
      <trkpt lat="44.15533" lon="6.75721">
        <ele>1143.8</ele>
        <time>2025-07-15T05:44:40Z</time>
      </trkpt>
      <trkpt lat="44.15517" lon="6.75719">
        <ele>1143</ele>
        <time>2025-07-15T05:44:42Z</time>
      </trkpt>
      <trkpt lat="44.15507" lon="6.75716">
        <ele>1142.6</ele>
        <time>2025-07-15T05:44:43Z</time>
      </trkpt>
      <trkpt lat="44.15485" lon="6.75707">
        <ele>1141.6</ele>
        <time>2025-07-15T05:44:45Z</time>
      </trkpt>
      <trkpt lat="44.15474" lon="6.75702">
        <ele>1141.2</ele>
        <time>2025-07-15T05:44:46Z</time>
      </trkpt>
      <trkpt lat="44.15455" lon="6.75688">
        <ele>1140.4</ele>
        <time>2025-07-15T05:44:48Z</time>
      </trkpt>
      <trkpt lat="44.15445" lon="6.75684">
        <ele>1140</ele>
        <time>2025-07-15T05:44:49Z</time>
      </trkpt>
      <trkpt lat="44.15417" lon="6.75672">
        <ele>1139.4</ele>
        <time>2025-07-15T05:44:52Z</time>
      </trkpt>
      <trkpt lat="44.15396" lon="6.75662">
        <ele>1138.6</ele>
        <time>2025-07-15T05:44:54Z</time>
      </trkpt>
      <trkpt lat="44.15358" lon="6.75643">
        <ele>1137.8</ele>
        <time>2025-07-15T05:44:58Z</time>
      </trkpt>
      <trkpt lat="44.15351" lon="6.75641">
        <ele>1137.8</ele>
        <time>2025-07-15T05:44:59Z</time>
      </trkpt>
      <trkpt lat="44.15339" lon="6.7564">
        <ele>1137</ele>
        <time>2025-07-15T05:45:00Z</time>
      </trkpt>
      <trkpt lat="44.15321" lon="6.7564">
        <ele>1136.4</ele>
        <time>2025-07-15T05:45:02Z</time>
      </trkpt>
      <trkpt lat="44.15291" lon="6.75639">
        <ele>1135.4</ele>
        <time>2025-07-15T05:45:05Z</time>
      </trkpt>
      <trkpt lat="44.15261" lon="6.75635">
        <ele>1134.4</ele>
        <time>2025-07-15T05:45:08Z</time>
      </trkpt>
      <trkpt lat="44.15251" lon="6.75635">
        <ele>1134.2</ele>
        <time>2025-07-15T05:45:09Z</time>
      </trkpt>
      <trkpt lat="44.15221" lon="6.7564">
        <ele>1132.8</ele>
        <time>2025-07-15T05:45:12Z</time>
      </trkpt>
      <trkpt lat="44.15172" lon="6.75653">
        <ele>1131.6</ele>
        <time>2025-07-15T05:45:17Z</time>
      </trkpt>
      <trkpt lat="44.15162" lon="6.75655">
        <ele>1131.2</ele>
        <time>2025-07-15T05:45:18Z</time>
      </trkpt>
      <trkpt lat="44.15133" lon="6.75659">
        <ele>1130.6</ele>
        <time>2025-07-15T05:45:21Z</time>
      </trkpt>
      <trkpt lat="44.15114" lon="6.75665">
        <ele>1129.6</ele>
        <time>2025-07-15T05:45:23Z</time>
      </trkpt>
      <trkpt lat="44.15104" lon="6.75669">
        <ele>1129.4</ele>
        <time>2025-07-15T05:45:24Z</time>
      </trkpt>
      <trkpt lat="44.15085" lon="6.75668">
        <ele>1128.8</ele>
        <time>2025-07-15T05:45:26Z</time>
      </trkpt>
      <trkpt lat="44.15076" lon="6.75665">
        <ele>1128.4</ele>
        <time>2025-07-15T05:45:27Z</time>
      </trkpt>
      <trkpt lat="44.15067" lon="6.75659">
        <ele>1128.2</ele>
        <time>2025-07-15T05:45:28Z</time>
      </trkpt>
      <trkpt lat="44.15059" lon="6.75652">
        <ele>1128</ele>
        <time>2025-07-15T05:45:29Z</time>
      </trkpt>
      <trkpt lat="44.15042" lon="6.7564">
        <ele>1127.6</ele>
        <time>2025-07-15T05:45:31Z</time>
      </trkpt>
      <trkpt lat="44.15033" lon="6.75637">
        <ele>1127.2</ele>
        <time>2025-07-15T05:45:32Z</time>
      </trkpt>
      <trkpt lat="44.15024" lon="6.75636">
        <ele>1127</ele>
        <time>2025-07-15T05:45:33Z</time>
      </trkpt>
      <trkpt lat="44.15006" lon="6.75639">
        <ele>1126.4</ele>
        <time>2025-07-15T05:45:35Z</time>
      </trkpt>
      <trkpt lat="44.14959" lon="6.75648">
        <ele>1125</ele>
        <time>2025-07-15T05:45:40Z</time>
      </trkpt>
      <trkpt lat="44.14949" lon="6.75651">
        <ele>1124.8</ele>
        <time>2025-07-15T05:45:41Z</time>
      </trkpt>
      <trkpt lat="44.1494" lon="6.75655">
        <ele>1124.4</ele>
        <time>2025-07-15T05:45:42Z</time>
      </trkpt>
      <trkpt lat="44.14921" lon="6.75666">
        <ele>1123.8</ele>
        <time>2025-07-15T05:45:44Z</time>
      </trkpt>
      <trkpt lat="44.14903" lon="6.75677">
        <ele>1123.4</ele>
        <time>2025-07-15T05:45:46Z</time>
      </trkpt>
      <trkpt lat="44.14894" lon="6.75683">
        <ele>1122.8</ele>
        <time>2025-07-15T05:45:47Z</time>
      </trkpt>
      <trkpt lat="44.14855" lon="6.75704">
        <ele>1121.4</ele>
        <time>2025-07-15T05:45:51Z</time>
      </trkpt>
      <trkpt lat="44.14835" lon="6.75714">
        <ele>1120.6</ele>
        <time>2025-07-15T05:45:53Z</time>
      </trkpt>
      <trkpt lat="44.14826" lon="6.75718">
        <ele>1120</ele>
        <time>2025-07-15T05:45:54Z</time>
      </trkpt>
      <trkpt lat="44.14775" lon="6.75731">
        <ele>1118.6</ele>
        <time>2025-07-15T05:45:59Z</time>
      </trkpt>
      <trkpt lat="44.14746" lon="6.7573">
        <ele>1117.6</ele>
        <time>2025-07-15T05:46:02Z</time>
      </trkpt>
      <trkpt lat="44.14737" lon="6.75727">
        <ele>1117.2</ele>
        <time>2025-07-15T05:46:03Z</time>
      </trkpt>
      <trkpt lat="44.14708" lon="6.75723">
        <ele>1116.6</ele>
        <time>2025-07-15T05:46:06Z</time>
      </trkpt>
      <trkpt lat="44.14698" lon="6.75725">
        <ele>1116.4</ele>
        <time>2025-07-15T05:46:07Z</time>
      </trkpt>
      <trkpt lat="44.1466" lon="6.75738">
        <ele>1115.4</ele>
        <time>2025-07-15T05:46:11Z</time>
      </trkpt>
      <trkpt lat="44.14641" lon="6.75745">
        <ele>1114.4</ele>
        <time>2025-07-15T05:46:13Z</time>
      </trkpt>
      <trkpt lat="44.14632" lon="6.75748">
        <ele>1114.2</ele>
        <time>2025-07-15T05:46:14Z</time>
      </trkpt>
      <trkpt lat="44.14604" lon="6.75759">
        <ele>1113</ele>
        <time>2025-07-15T05:46:17Z</time>
      </trkpt>
      <trkpt lat="44.14577" lon="6.7577">
        <ele>1111.8</ele>
        <time>2025-07-15T05:46:20Z</time>
      </trkpt>
      <trkpt lat="44.14551" lon="6.75785">
        <ele>1111</ele>
        <time>2025-07-15T05:46:23Z</time>
      </trkpt>
      <trkpt lat="44.14534" lon="6.75796">
        <ele>1110.6</ele>
        <time>2025-07-15T05:46:25Z</time>
      </trkpt>
      <trkpt lat="44.14526" lon="6.75803">
        <ele>1110.2</ele>
        <time>2025-07-15T05:46:26Z</time>
      </trkpt>
      <trkpt lat="44.14519" lon="6.75811">
        <ele>1109.8</ele>
        <time>2025-07-15T05:46:27Z</time>
      </trkpt>
      <trkpt lat="44.14512" lon="6.7582">
        <ele>1109.4</ele>
        <time>2025-07-15T05:46:28Z</time>
      </trkpt>
      <trkpt lat="44.14501" lon="6.75841">
        <ele>1108.6</ele>
        <time>2025-07-15T05:46:30Z</time>
      </trkpt>
      <trkpt lat="44.14489" lon="6.75864">
        <ele>1108</ele>
        <time>2025-07-15T05:46:32Z</time>
      </trkpt>
      <trkpt lat="44.14483" lon="6.75875">
        <ele>1107.2</ele>
        <time>2025-07-15T05:46:33Z</time>
      </trkpt>
      <trkpt lat="44.14469" lon="6.75896">
        <ele>1106.4</ele>
        <time>2025-07-15T05:46:35Z</time>
      </trkpt>
      <trkpt lat="44.14456" lon="6.75917">
        <ele>1105.8</ele>
        <time>2025-07-15T05:46:37Z</time>
      </trkpt>
      <trkpt lat="44.1445" lon="6.75928">
        <ele>1105.4</ele>
        <time>2025-07-15T05:46:38Z</time>
      </trkpt>
      <trkpt lat="44.14422" lon="6.75969">
        <ele>1103.8</ele>
        <time>2025-07-15T05:46:42Z</time>
      </trkpt>
      <trkpt lat="44.14415" lon="6.75979">
        <ele>1103.6</ele>
        <time>2025-07-15T05:46:43Z</time>
      </trkpt>
      <trkpt lat="44.14406" lon="6.75988">
        <ele>1103.2</ele>
        <time>2025-07-15T05:46:44Z</time>
      </trkpt>
      <trkpt lat="44.14399" lon="6.75995">
        <ele>1103</ele>
        <time>2025-07-15T05:46:45Z</time>
      </trkpt>
      <trkpt lat="44.14385" lon="6.76006">
        <ele>1102</ele>
        <time>2025-07-15T05:46:47Z</time>
      </trkpt>
      <trkpt lat="44.14378" lon="6.76012">
        <ele>1101.4</ele>
        <time>2025-07-15T05:46:48Z</time>
      </trkpt>
      <trkpt lat="44.14356" lon="6.76033">
        <ele>1100.2</ele>
        <time>2025-07-15T05:46:51Z</time>
      </trkpt>
      <trkpt lat="44.14347" lon="6.76043">
        <ele>1099.6</ele>
        <time>2025-07-15T05:46:52Z</time>
      </trkpt>
      <trkpt lat="44.14335" lon="6.76061">
        <ele>1098.6</ele>
        <time>2025-07-15T05:46:54Z</time>
      </trkpt>
      <trkpt lat="44.14322" lon="6.76082">
        <ele>1097.8</ele>
        <time>2025-07-15T05:46:56Z</time>
      </trkpt>
      <trkpt lat="44.14315" lon="6.76093">
        <ele>1097.2</ele>
        <time>2025-07-15T05:46:57Z</time>
      </trkpt>
      <trkpt lat="44.14309" lon="6.76099">
        <ele>1097</ele>
        <time>2025-07-15T05:46:58Z</time>
      </trkpt>
      <trkpt lat="44.14302" lon="6.76104">
        <ele>1097</ele>
        <time>2025-07-15T05:46:59Z</time>
      </trkpt>
      <trkpt lat="44.14295" lon="6.76109">
        <ele>1096.8</ele>
        <time>2025-07-15T05:47:00Z</time>
      </trkpt>
      <trkpt lat="44.14281" lon="6.76115">
        <ele>1095.8</ele>
        <time>2025-07-15T05:47:02Z</time>
      </trkpt>
      <trkpt lat="44.14276" lon="6.76117">
        <ele>1095.6</ele>
        <time>2025-07-15T05:47:03Z</time>
      </trkpt>
      <trkpt lat="44.14266" lon="6.76119">
        <ele>1094.6</ele>
        <time>2025-07-15T05:47:06Z</time>
      </trkpt>
      <trkpt lat="44.14247" lon="6.76132">
        <ele>1093.8</ele>
        <time>2025-07-15T05:47:12Z</time>
      </trkpt>
      <trkpt lat="44.14245" lon="6.76135">
        <ele>1093.8</ele>
        <time>2025-07-15T05:47:13Z</time>
      </trkpt>
      <trkpt lat="44.14226" lon="6.76153">
        <ele>1094</ele>
        <time>2025-07-15T05:47:19Z</time>
      </trkpt>
      <trkpt lat="44.14223" lon="6.76157">
        <ele>1094</ele>
        <time>2025-07-15T05:47:20Z</time>
      </trkpt>
      <trkpt lat="44.14201" lon="6.76179">
        <ele>1094.2</ele>
        <time>2025-07-15T05:47:25Z</time>
      </trkpt>
      <trkpt lat="44.14177" lon="6.76203">
        <ele>1094</ele>
        <time>2025-07-15T05:47:30Z</time>
      </trkpt>
      <trkpt lat="44.14173" lon="6.7621">
        <ele>1094</ele>
        <time>2025-07-15T05:47:31Z</time>
      </trkpt>
      <trkpt lat="44.14171" lon="6.76218">
        <ele>1094</ele>
        <time>2025-07-15T05:47:32Z</time>
      </trkpt>
      <trkpt lat="44.14162" lon="6.76242">
        <ele>1093.6</ele>
        <time>2025-07-15T05:47:35Z</time>
      </trkpt>
      <trkpt lat="44.14153" lon="6.76256">
        <ele>1093.6</ele>
        <time>2025-07-15T05:47:37Z</time>
      </trkpt>
      <trkpt lat="44.14145" lon="6.7626">
        <ele>1093.4</ele>
        <time>2025-07-15T05:47:39Z</time>
      </trkpt>
      <trkpt lat="44.14144" lon="6.76253">
        <ele>1093.4</ele>
        <time>2025-07-15T05:47:41Z</time>
      </trkpt>
      <trkpt lat="44.1415" lon="6.76244">
        <ele>1093.2</ele>
        <time>2025-07-15T05:47:43Z</time>
      </trkpt>
      <trkpt lat="44.14161" lon="6.76227">
        <ele>1093</ele>
        <time>2025-07-15T05:47:46Z</time>
      </trkpt>
      <trkpt lat="44.14175" lon="6.76206">
        <ele>1092.4</ele>
        <time>2025-07-15T05:47:49Z</time>
      </trkpt>
      <trkpt lat="44.14181" lon="6.76199">
        <ele>1092.2</ele>
        <time>2025-07-15T05:47:50Z</time>
      </trkpt>
      <trkpt lat="44.14187" lon="6.76192">
        <ele>1092.2</ele>
        <time>2025-07-15T05:47:51Z</time>
      </trkpt>
      <trkpt lat="44.14199" lon="6.76181">
        <ele>1091.6</ele>
        <time>2025-07-15T05:47:53Z</time>
      </trkpt>
      <trkpt lat="44.14203" lon="6.76175">
        <ele>1091.8</ele>
        <time>2025-07-15T05:47:54Z</time>
      </trkpt>
      <trkpt lat="44.14207" lon="6.76169">
        <ele>1091.4</ele>
        <time>2025-07-15T05:47:55Z</time>
      </trkpt>
      <trkpt lat="44.14217" lon="6.76154">
        <ele>1090.8</ele>
        <time>2025-07-15T05:47:58Z</time>
      </trkpt>
      <trkpt lat="44.14225" lon="6.76141">
        <ele>1090</ele>
        <time>2025-07-15T05:48:00Z</time>
      </trkpt>
      <trkpt lat="44.14238" lon="6.76119">
        <ele>1089.6</ele>
        <time>2025-07-15T05:48:03Z</time>
      </trkpt>
      <trkpt lat="44.14242" lon="6.7611">
        <ele>1089.2</ele>
        <time>2025-07-15T05:48:04Z</time>
      </trkpt>
      <trkpt lat="44.14245" lon="6.761">
        <ele>1088.8</ele>
        <time>2025-07-15T05:48:05Z</time>
      </trkpt>
      <trkpt lat="44.14247" lon="6.7609">
        <ele>1088.8</ele>
        <time>2025-07-15T05:48:06Z</time>
      </trkpt>
      <trkpt lat="44.14244" lon="6.76069">
        <ele>1087.8</ele>
        <time>2025-07-15T05:48:08Z</time>
      </trkpt>
      <trkpt lat="44.1424" lon="6.76059">
        <ele>1087.2</ele>
        <time>2025-07-15T05:48:09Z</time>
      </trkpt>
      <trkpt lat="44.14235" lon="6.76051">
        <ele>1087</ele>
        <time>2025-07-15T05:48:10Z</time>
      </trkpt>
      <trkpt lat="44.1423" lon="6.76044">
        <ele>1086.8</ele>
        <time>2025-07-15T05:48:11Z</time>
      </trkpt>
      <trkpt lat="44.14223" lon="6.7604">
        <ele>1086.8</ele>
        <time>2025-07-15T05:48:12Z</time>
      </trkpt>
      <trkpt lat="44.14208" lon="6.76037">
        <ele>1086.4</ele>
        <time>2025-07-15T05:48:14Z</time>
      </trkpt>
      <trkpt lat="44.142" lon="6.76038">
        <ele>1086.2</ele>
        <time>2025-07-15T05:48:15Z</time>
      </trkpt>
      <trkpt lat="44.14192" lon="6.76042">
        <ele>1086</ele>
        <time>2025-07-15T05:48:16Z</time>
      </trkpt>
      <trkpt lat="44.14186" lon="6.76047">
        <ele>1085.8</ele>
        <time>2025-07-15T05:48:17Z</time>
      </trkpt>
      <trkpt lat="44.1418" lon="6.76054">
        <ele>1085.6</ele>
        <time>2025-07-15T05:48:18Z</time>
      </trkpt>
      <trkpt lat="44.14169" lon="6.7607">
        <ele>1085.4</ele>
        <time>2025-07-15T05:48:20Z</time>
      </trkpt>
      <trkpt lat="44.14158" lon="6.76086">
        <ele>1085.2</ele>
        <time>2025-07-15T05:48:22Z</time>
      </trkpt>
      <trkpt lat="44.14146" lon="6.76096">
        <ele>1084.6</ele>
        <time>2025-07-15T05:48:24Z</time>
      </trkpt>
      <trkpt lat="44.14129" lon="6.76105">
        <ele>1084</ele>
        <time>2025-07-15T05:48:26Z</time>
      </trkpt>
      <trkpt lat="44.14111" lon="6.76115">
        <ele>1083</ele>
        <time>2025-07-15T05:48:28Z</time>
      </trkpt>
      <trkpt lat="44.14085" lon="6.7613">
        <ele>1081.8</ele>
        <time>2025-07-15T05:48:31Z</time>
      </trkpt>
      <trkpt lat="44.14069" lon="6.76145">
        <ele>1080.8</ele>
        <time>2025-07-15T05:48:33Z</time>
      </trkpt>
      <trkpt lat="44.14062" lon="6.76155">
        <ele>1080.2</ele>
        <time>2025-07-15T05:48:34Z</time>
      </trkpt>
      <trkpt lat="44.14056" lon="6.76165">
        <ele>1080</ele>
        <time>2025-07-15T05:48:35Z</time>
      </trkpt>
      <trkpt lat="44.14049" lon="6.76175">
        <ele>1079.6</ele>
        <time>2025-07-15T05:48:36Z</time>
      </trkpt>
      <trkpt lat="44.14043" lon="6.76187">
        <ele>1079.4</ele>
        <time>2025-07-15T05:48:37Z</time>
      </trkpt>
      <trkpt lat="44.14035" lon="6.76212">
        <ele>1078.4</ele>
        <time>2025-07-15T05:48:39Z</time>
      </trkpt>
      <trkpt lat="44.14035" lon="6.76241">
        <ele>1077</ele>
        <time>2025-07-15T05:48:41Z</time>
      </trkpt>
      <trkpt lat="44.14038" lon="6.76271">
        <ele>1075.8</ele>
        <time>2025-07-15T05:48:43Z</time>
      </trkpt>
      <trkpt lat="44.14039" lon="6.76299">
        <ele>1075</ele>
        <time>2025-07-15T05:48:45Z</time>
      </trkpt>
      <trkpt lat="44.14036" lon="6.7631">
        <ele>1074.4</ele>
        <time>2025-07-15T05:48:46Z</time>
      </trkpt>
      <trkpt lat="44.14031" lon="6.76321">
        <ele>1074</ele>
        <time>2025-07-15T05:48:47Z</time>
      </trkpt>
      <trkpt lat="44.14023" lon="6.7633">
        <ele>1073.2</ele>
        <time>2025-07-15T05:48:48Z</time>
      </trkpt>
      <trkpt lat="44.14014" lon="6.76335">
        <ele>1072.6</ele>
        <time>2025-07-15T05:48:49Z</time>
      </trkpt>
      <trkpt lat="44.14004" lon="6.76339">
        <ele>1071.6</ele>
        <time>2025-07-15T05:48:50Z</time>
      </trkpt>
      <trkpt lat="44.13978" lon="6.76355">
        <ele>1070</ele>
        <time>2025-07-15T05:48:53Z</time>
      </trkpt>
      <trkpt lat="44.13962" lon="6.76368">
        <ele>1069</ele>
        <time>2025-07-15T05:48:55Z</time>
      </trkpt>
      <trkpt lat="44.13954" lon="6.76375">
        <ele>1068.8</ele>
        <time>2025-07-15T05:48:56Z</time>
      </trkpt>
      <trkpt lat="44.13932" lon="6.76396">
        <ele>1067.8</ele>
        <time>2025-07-15T05:48:59Z</time>
      </trkpt>
      <trkpt lat="44.13917" lon="6.76413">
        <ele>1067.6</ele>
        <time>2025-07-15T05:49:01Z</time>
      </trkpt>
      <trkpt lat="44.13902" lon="6.7643">
        <ele>1066.8</ele>
        <time>2025-07-15T05:49:03Z</time>
      </trkpt>
      <trkpt lat="44.1387" lon="6.76457">
        <ele>1065.6</ele>
        <time>2025-07-15T05:49:07Z</time>
      </trkpt>
      <trkpt lat="44.13854" lon="6.7647">
        <ele>1064.6</ele>
        <time>2025-07-15T05:49:09Z</time>
      </trkpt>
      <trkpt lat="44.13813" lon="6.76502">
        <ele>1063.6</ele>
        <time>2025-07-15T05:49:14Z</time>
      </trkpt>
      <trkpt lat="44.13796" lon="6.76516">
        <ele>1063.4</ele>
        <time>2025-07-15T05:49:16Z</time>
      </trkpt>
      <trkpt lat="44.13774" lon="6.76541">
        <ele>1062.4</ele>
        <time>2025-07-15T05:49:19Z</time>
      </trkpt>
      <trkpt lat="44.13742" lon="6.76574">
        <ele>1061.2</ele>
        <time>2025-07-15T05:49:23Z</time>
      </trkpt>
      <trkpt lat="44.13711" lon="6.76607">
        <ele>1060</ele>
        <time>2025-07-15T05:49:27Z</time>
      </trkpt>
      <trkpt lat="44.13704" lon="6.76617">
        <ele>1059.8</ele>
        <time>2025-07-15T05:49:28Z</time>
      </trkpt>
      <trkpt lat="44.13698" lon="6.76627">
        <ele>1059.6</ele>
        <time>2025-07-15T05:49:29Z</time>
      </trkpt>
      <trkpt lat="44.13682" lon="6.76661">
        <ele>1059</ele>
        <time>2025-07-15T05:49:32Z</time>
      </trkpt>
      <trkpt lat="44.13663" lon="6.76711">
        <ele>1058</ele>
        <time>2025-07-15T05:49:36Z</time>
      </trkpt>
      <trkpt lat="44.13647" lon="6.76746">
        <ele>1056.8</ele>
        <time>2025-07-15T05:49:39Z</time>
      </trkpt>
      <trkpt lat="44.13631" lon="6.7678">
        <ele>1056.6</ele>
        <time>2025-07-15T05:49:42Z</time>
      </trkpt>
      <trkpt lat="44.13617" lon="6.76799">
        <ele>1055.8</ele>
        <time>2025-07-15T05:49:44Z</time>
      </trkpt>
      <trkpt lat="44.13601" lon="6.76813">
        <ele>1055.2</ele>
        <time>2025-07-15T05:49:46Z</time>
      </trkpt>
      <trkpt lat="44.13583" lon="6.76822">
        <ele>1054.6</ele>
        <time>2025-07-15T05:49:48Z</time>
      </trkpt>
      <trkpt lat="44.13566" lon="6.76832">
        <ele>1054</ele>
        <time>2025-07-15T05:49:50Z</time>
      </trkpt>
      <trkpt lat="44.13558" lon="6.76837">
        <ele>1053.8</ele>
        <time>2025-07-15T05:49:51Z</time>
      </trkpt>
      <trkpt lat="44.13543" lon="6.76851">
        <ele>1053.6</ele>
        <time>2025-07-15T05:49:53Z</time>
      </trkpt>
      <trkpt lat="44.13522" lon="6.76874">
        <ele>1053.4</ele>
        <time>2025-07-15T05:49:56Z</time>
      </trkpt>
      <trkpt lat="44.13488" lon="6.76907">
        <ele>1053.2</ele>
        <time>2025-07-15T05:50:01Z</time>
      </trkpt>
      <trkpt lat="44.13451" lon="6.76927">
        <ele>1053</ele>
        <time>2025-07-15T05:50:06Z</time>
      </trkpt>
      <trkpt lat="44.13435" lon="6.76932">
        <ele>1052.8</ele>
        <time>2025-07-15T05:50:08Z</time>
      </trkpt>
      <trkpt lat="44.13396" lon="6.76945">
        <ele>1052.4</ele>
        <time>2025-07-15T05:50:13Z</time>
      </trkpt>
      <trkpt lat="44.13374" lon="6.76954">
        <ele>1052.2</ele>
        <time>2025-07-15T05:50:16Z</time>
      </trkpt>
      <trkpt lat="44.13368" lon="6.7696">
        <ele>1052.2</ele>
        <time>2025-07-15T05:50:17Z</time>
      </trkpt>
      <trkpt lat="44.13362" lon="6.76968">
        <ele>1052.2</ele>
        <time>2025-07-15T05:50:18Z</time>
      </trkpt>
      <trkpt lat="44.13352" lon="6.76984">
        <ele>1052</ele>
        <time>2025-07-15T05:50:20Z</time>
      </trkpt>
      <trkpt lat="44.13347" lon="6.76993">
        <ele>1052</ele>
        <time>2025-07-15T05:50:21Z</time>
      </trkpt>
      <trkpt lat="44.13342" lon="6.77003">
        <ele>1052</ele>
        <time>2025-07-15T05:50:22Z</time>
      </trkpt>
      <trkpt lat="44.1331" lon="6.77071">
        <ele>1051.4</ele>
        <time>2025-07-15T05:50:29Z</time>
      </trkpt>
      <trkpt lat="44.13295" lon="6.771">
        <ele>1051.2</ele>
        <time>2025-07-15T05:50:32Z</time>
      </trkpt>
      <trkpt lat="44.1328" lon="6.77133">
        <ele>1050.2</ele>
        <time>2025-07-15T05:50:35Z</time>
      </trkpt>
      <trkpt lat="44.13275" lon="6.77144">
        <ele>1049.8</ele>
        <time>2025-07-15T05:50:36Z</time>
      </trkpt>
      <trkpt lat="44.13263" lon="6.77178">
        <ele>1048.6</ele>
        <time>2025-07-15T05:50:39Z</time>
      </trkpt>
      <trkpt lat="44.13255" lon="6.77204">
        <ele>1048</ele>
        <time>2025-07-15T05:50:41Z</time>
      </trkpt>
      <trkpt lat="44.13248" lon="6.77226">
        <ele>1047.6</ele>
        <time>2025-07-15T05:50:43Z</time>
      </trkpt>
      <trkpt lat="44.13243" lon="6.77237">
        <ele>1047.6</ele>
        <time>2025-07-15T05:50:44Z</time>
      </trkpt>
      <trkpt lat="44.13232" lon="6.77259">
        <ele>1046.8</ele>
        <time>2025-07-15T05:50:46Z</time>
      </trkpt>
      <trkpt lat="44.13221" lon="6.7728">
        <ele>1046.4</ele>
        <time>2025-07-15T05:50:48Z</time>
      </trkpt>
      <trkpt lat="44.13197" lon="6.77323">
        <ele>1045.2</ele>
        <time>2025-07-15T05:50:52Z</time>
      </trkpt>
      <trkpt lat="44.13179" lon="6.77355">
        <ele>1044.2</ele>
        <time>2025-07-15T05:50:55Z</time>
      </trkpt>
      <trkpt lat="44.13172" lon="6.77366">
        <ele>1043.6</ele>
        <time>2025-07-15T05:50:56Z</time>
      </trkpt>
      <trkpt lat="44.13156" lon="6.77383">
        <ele>1043</ele>
        <time>2025-07-15T05:50:58Z</time>
      </trkpt>
      <trkpt lat="44.13146" lon="6.7739">
        <ele>1042.8</ele>
        <time>2025-07-15T05:50:59Z</time>
      </trkpt>
      <trkpt lat="44.13127" lon="6.77401">
        <ele>1042</ele>
        <time>2025-07-15T05:51:01Z</time>
      </trkpt>
      <trkpt lat="44.13106" lon="6.77405">
        <ele>1041.2</ele>
        <time>2025-07-15T05:51:03Z</time>
      </trkpt>
      <trkpt lat="44.13096" lon="6.77404">
        <ele>1041</ele>
        <time>2025-07-15T05:51:04Z</time>
      </trkpt>
      <trkpt lat="44.13086" lon="6.77403">
        <ele>1040.6</ele>
        <time>2025-07-15T05:51:05Z</time>
      </trkpt>
      <trkpt lat="44.13078" lon="6.77401">
        <ele>1040</ele>
        <time>2025-07-15T05:51:06Z</time>
      </trkpt>
      <trkpt lat="44.13056" lon="6.77396">
        <ele>1039</ele>
        <time>2025-07-15T05:51:08Z</time>
      </trkpt>
      <trkpt lat="44.13025" lon="6.77391">
        <ele>1037.8</ele>
        <time>2025-07-15T05:51:11Z</time>
      </trkpt>
      <trkpt lat="44.13015" lon="6.77389">
        <ele>1037.8</ele>
        <time>2025-07-15T05:51:12Z</time>
      </trkpt>
      <trkpt lat="44.13005" lon="6.77389">
        <ele>1037.2</ele>
        <time>2025-07-15T05:51:13Z</time>
      </trkpt>
      <trkpt lat="44.12985" lon="6.77392">
        <ele>1036.6</ele>
        <time>2025-07-15T05:51:15Z</time>
      </trkpt>
      <trkpt lat="44.12975" lon="6.77396">
        <ele>1036.6</ele>
        <time>2025-07-15T05:51:16Z</time>
      </trkpt>
      <trkpt lat="44.12967" lon="6.77404">
        <ele>1036.2</ele>
        <time>2025-07-15T05:51:17Z</time>
      </trkpt>
      <trkpt lat="44.12959" lon="6.77413">
        <ele>1035.8</ele>
        <time>2025-07-15T05:51:18Z</time>
      </trkpt>
      <trkpt lat="44.12953" lon="6.77425">
        <ele>1035.6</ele>
        <time>2025-07-15T05:51:19Z</time>
      </trkpt>
      <trkpt lat="44.12946" lon="6.77452">
        <ele>1034.8</ele>
        <time>2025-07-15T05:51:21Z</time>
      </trkpt>
      <trkpt lat="44.12945" lon="6.77466">
        <ele>1034</ele>
        <time>2025-07-15T05:51:22Z</time>
      </trkpt>
      <trkpt lat="44.12942" lon="6.77496">
        <ele>1033.2</ele>
        <time>2025-07-15T05:51:24Z</time>
      </trkpt>
      <trkpt lat="44.12939" lon="6.7751">
        <ele>1033</ele>
        <time>2025-07-15T05:51:25Z</time>
      </trkpt>
      <trkpt lat="44.12935" lon="6.77521">
        <ele>1032.6</ele>
        <time>2025-07-15T05:51:26Z</time>
      </trkpt>
      <trkpt lat="44.12919" lon="6.77545">
        <ele>1032</ele>
        <time>2025-07-15T05:51:28Z</time>
      </trkpt>
      <trkpt lat="44.12911" lon="6.77554">
        <ele>1031.6</ele>
        <time>2025-07-15T05:51:29Z</time>
      </trkpt>
      <trkpt lat="44.12888" lon="6.77582">
        <ele>1030.8</ele>
        <time>2025-07-15T05:51:32Z</time>
      </trkpt>
      <trkpt lat="44.12882" lon="6.77592">
        <ele>1030.6</ele>
        <time>2025-07-15T05:51:33Z</time>
      </trkpt>
      <trkpt lat="44.12876" lon="6.77603">
        <ele>1030.2</ele>
        <time>2025-07-15T05:51:34Z</time>
      </trkpt>
      <trkpt lat="44.12847" lon="6.7766">
        <ele>1029.4</ele>
        <time>2025-07-15T05:51:39Z</time>
      </trkpt>
      <trkpt lat="44.12836" lon="6.77682">
        <ele>1029</ele>
        <time>2025-07-15T05:51:41Z</time>
      </trkpt>
      <trkpt lat="44.1283" lon="6.77692">
        <ele>1028.8</ele>
        <time>2025-07-15T05:51:42Z</time>
      </trkpt>
      <trkpt lat="44.12815" lon="6.77709">
        <ele>1028.4</ele>
        <time>2025-07-15T05:51:44Z</time>
      </trkpt>
      <trkpt lat="44.12806" lon="6.77715">
        <ele>1028.2</ele>
        <time>2025-07-15T05:51:45Z</time>
      </trkpt>
      <trkpt lat="44.12798" lon="6.77722">
        <ele>1027.8</ele>
        <time>2025-07-15T05:51:46Z</time>
      </trkpt>
      <trkpt lat="44.12784" lon="6.7774">
        <ele>1027.2</ele>
        <time>2025-07-15T05:51:48Z</time>
      </trkpt>
      <trkpt lat="44.12779" lon="6.7775">
        <ele>1027</ele>
        <time>2025-07-15T05:51:49Z</time>
      </trkpt>
      <trkpt lat="44.12764" lon="6.77784">
        <ele>1026</ele>
        <time>2025-07-15T05:51:52Z</time>
      </trkpt>
      <trkpt lat="44.12759" lon="6.77794">
        <ele>1026</ele>
        <time>2025-07-15T05:51:53Z</time>
      </trkpt>
      <trkpt lat="44.12742" lon="6.77826">
        <ele>1025.4</ele>
        <time>2025-07-15T05:51:56Z</time>
      </trkpt>
      <trkpt lat="44.12737" lon="6.77837">
        <ele>1025.4</ele>
        <time>2025-07-15T05:51:57Z</time>
      </trkpt>
      <trkpt lat="44.12734" lon="6.77849">
        <ele>1025</ele>
        <time>2025-07-15T05:51:58Z</time>
      </trkpt>
      <trkpt lat="44.12728" lon="6.77886">
        <ele>1024.2</ele>
        <time>2025-07-15T05:52:01Z</time>
      </trkpt>
      <trkpt lat="44.12725" lon="6.77914">
        <ele>1024</ele>
        <time>2025-07-15T05:52:03Z</time>
      </trkpt>
      <trkpt lat="44.12718" lon="6.77988">
        <ele>1022.8</ele>
        <time>2025-07-15T05:52:09Z</time>
      </trkpt>
      <trkpt lat="44.12715" lon="6.78013">
        <ele>1022.4</ele>
        <time>2025-07-15T05:52:11Z</time>
      </trkpt>
      <trkpt lat="44.12707" lon="6.78049">
        <ele>1022</ele>
        <time>2025-07-15T05:52:14Z</time>
      </trkpt>
      <trkpt lat="44.12704" lon="6.7806">
        <ele>1021.8</ele>
        <time>2025-07-15T05:52:15Z</time>
      </trkpt>
      <trkpt lat="44.12698" lon="6.7807">
        <ele>1021.6</ele>
        <time>2025-07-15T05:52:16Z</time>
      </trkpt>
      <trkpt lat="44.12685" lon="6.78089">
        <ele>1021.4</ele>
        <time>2025-07-15T05:52:18Z</time>
      </trkpt>
      <trkpt lat="44.12674" lon="6.78111">
        <ele>1020.8</ele>
        <time>2025-07-15T05:52:20Z</time>
      </trkpt>
      <trkpt lat="44.12671" lon="6.78123">
        <ele>1020</ele>
        <time>2025-07-15T05:52:21Z</time>
      </trkpt>
      <trkpt lat="44.1267" lon="6.78136">
        <ele>1019.8</ele>
        <time>2025-07-15T05:52:22Z</time>
      </trkpt>
      <trkpt lat="44.12672" lon="6.78149">
        <ele>1019.4</ele>
        <time>2025-07-15T05:52:23Z</time>
      </trkpt>
      <trkpt lat="44.12676" lon="6.78176">
        <ele>1018.6</ele>
        <time>2025-07-15T05:52:25Z</time>
      </trkpt>
      <trkpt lat="44.12676" lon="6.78189">
        <ele>1018</ele>
        <time>2025-07-15T05:52:26Z</time>
      </trkpt>
      <trkpt lat="44.12675" lon="6.78202">
        <ele>1017.8</ele>
        <time>2025-07-15T05:52:27Z</time>
      </trkpt>
      <trkpt lat="44.12666" lon="6.78221">
        <ele>1017</ele>
        <time>2025-07-15T05:52:29Z</time>
      </trkpt>
      <trkpt lat="44.12657" lon="6.78229">
        <ele>1016.2</ele>
        <time>2025-07-15T05:52:30Z</time>
      </trkpt>
      <trkpt lat="44.12638" lon="6.78233">
        <ele>1015.4</ele>
        <time>2025-07-15T05:52:32Z</time>
      </trkpt>
      <trkpt lat="44.12629" lon="6.78236">
        <ele>1015</ele>
        <time>2025-07-15T05:52:33Z</time>
      </trkpt>
      <trkpt lat="44.12611" lon="6.78246">
        <ele>1014.2</ele>
        <time>2025-07-15T05:52:35Z</time>
      </trkpt>
      <trkpt lat="44.12603" lon="6.78254">
        <ele>1014</ele>
        <time>2025-07-15T05:52:36Z</time>
      </trkpt>
      <trkpt lat="44.12597" lon="6.78264">
        <ele>1013.8</ele>
        <time>2025-07-15T05:52:37Z</time>
      </trkpt>
      <trkpt lat="44.1259" lon="6.78275">
        <ele>1013.2</ele>
        <time>2025-07-15T05:52:38Z</time>
      </trkpt>
      <trkpt lat="44.12585" lon="6.78287">
        <ele>1013</ele>
        <time>2025-07-15T05:52:39Z</time>
      </trkpt>
      <trkpt lat="44.12577" lon="6.78309">
        <ele>1012.4</ele>
        <time>2025-07-15T05:52:41Z</time>
      </trkpt>
      <trkpt lat="44.1257" lon="6.78318">
        <ele>1012</ele>
        <time>2025-07-15T05:52:42Z</time>
      </trkpt>
      <trkpt lat="44.12562" lon="6.78327">
        <ele>1011.8</ele>
        <time>2025-07-15T05:52:43Z</time>
      </trkpt>
      <trkpt lat="44.12545" lon="6.78339">
        <ele>1010.8</ele>
        <time>2025-07-15T05:52:45Z</time>
      </trkpt>
      <trkpt lat="44.12531" lon="6.78356">
        <ele>1010.2</ele>
        <time>2025-07-15T05:52:47Z</time>
      </trkpt>
      <trkpt lat="44.12526" lon="6.78367">
        <ele>1010</ele>
        <time>2025-07-15T05:52:48Z</time>
      </trkpt>
      <trkpt lat="44.12519" lon="6.78391">
        <ele>1009.6</ele>
        <time>2025-07-15T05:52:50Z</time>
      </trkpt>
      <trkpt lat="44.12507" lon="6.78424">
        <ele>1009</ele>
        <time>2025-07-15T05:52:53Z</time>
      </trkpt>
      <trkpt lat="44.12501" lon="6.78433">
        <ele>1009</ele>
        <time>2025-07-15T05:52:54Z</time>
      </trkpt>
      <trkpt lat="44.12492" lon="6.78442">
        <ele>1008.8</ele>
        <time>2025-07-15T05:52:55Z</time>
      </trkpt>
      <trkpt lat="44.12483" lon="6.78448">
        <ele>1008.6</ele>
        <time>2025-07-15T05:52:56Z</time>
      </trkpt>
      <trkpt lat="44.12473" lon="6.78451">
        <ele>1008.4</ele>
        <time>2025-07-15T05:52:57Z</time>
      </trkpt>
      <trkpt lat="44.12456" lon="6.78455">
        <ele>1007.6</ele>
        <time>2025-07-15T05:52:59Z</time>
      </trkpt>
      <trkpt lat="44.12445" lon="6.78459">
        <ele>1007.4</ele>
        <time>2025-07-15T05:53:00Z</time>
      </trkpt>
      <trkpt lat="44.1243" lon="6.78471">
        <ele>1006.2</ele>
        <time>2025-07-15T05:53:02Z</time>
      </trkpt>
      <trkpt lat="44.12422" lon="6.78479">
        <ele>1006.2</ele>
        <time>2025-07-15T05:53:03Z</time>
      </trkpt>
      <trkpt lat="44.12415" lon="6.78491">
        <ele>1005.8</ele>
        <time>2025-07-15T05:53:04Z</time>
      </trkpt>
      <trkpt lat="44.12397" lon="6.78523">
        <ele>1005</ele>
        <time>2025-07-15T05:53:07Z</time>
      </trkpt>
      <trkpt lat="44.12385" lon="6.78544">
        <ele>1004.4</ele>
        <time>2025-07-15T05:53:09Z</time>
      </trkpt>
      <trkpt lat="44.12378" lon="6.78569">
        <ele>1004.2</ele>
        <time>2025-07-15T05:53:11Z</time>
      </trkpt>
      <trkpt lat="44.12376" lon="6.78623">
        <ele>1003.2</ele>
        <time>2025-07-15T05:53:15Z</time>
      </trkpt>
      <trkpt lat="44.12371" lon="6.78671">
        <ele>1001.8</ele>
        <time>2025-07-15T05:53:19Z</time>
      </trkpt>
      <trkpt lat="44.12369" lon="6.78685">
        <ele>1001.8</ele>
        <time>2025-07-15T05:53:20Z</time>
      </trkpt>
      <trkpt lat="44.12367" lon="6.78697">
        <ele>1001.8</ele>
        <time>2025-07-15T05:53:21Z</time>
      </trkpt>
      <trkpt lat="44.12361" lon="6.78715">
        <ele>1001.6</ele>
        <time>2025-07-15T05:53:23Z</time>
      </trkpt>
      <trkpt lat="44.12348" lon="6.78732">
        <ele>1001.4</ele>
        <time>2025-07-15T05:53:25Z</time>
      </trkpt>
      <trkpt lat="44.12317" lon="6.78744">
        <ele>1001.2</ele>
        <time>2025-07-15T05:53:29Z</time>
      </trkpt>
      <trkpt lat="44.12298" lon="6.78754">
        <ele>1001</ele>
        <time>2025-07-15T05:53:32Z</time>
      </trkpt>
      <trkpt lat="44.1229" lon="6.78761">
        <ele>1001.2</ele>
        <time>2025-07-15T05:53:33Z</time>
      </trkpt>
      <trkpt lat="44.12284" lon="6.78769">
        <ele>1001.2</ele>
        <time>2025-07-15T05:53:34Z</time>
      </trkpt>
      <trkpt lat="44.12277" lon="6.78785">
        <ele>1001.2</ele>
        <time>2025-07-15T05:53:36Z</time>
      </trkpt>
      <trkpt lat="44.12275" lon="6.78795">
        <ele>1001.2</ele>
        <time>2025-07-15T05:53:37Z</time>
      </trkpt>
      <trkpt lat="44.12276" lon="6.78849">
        <ele>1001.2</ele>
        <time>2025-07-15T05:53:42Z</time>
      </trkpt>
      <trkpt lat="44.12283" lon="6.78871">
        <ele>1001.2</ele>
        <time>2025-07-15T05:53:44Z</time>
      </trkpt>
      <trkpt lat="44.12291" lon="6.78889">
        <ele>1001</ele>
        <time>2025-07-15T05:53:46Z</time>
      </trkpt>
      <trkpt lat="44.12298" lon="6.78908">
        <ele>1001</ele>
        <time>2025-07-15T05:53:48Z</time>
      </trkpt>
      <trkpt lat="44.12301" lon="6.7893">
        <ele>1001</ele>
        <time>2025-07-15T05:53:50Z</time>
      </trkpt>
      <trkpt lat="44.12296" lon="6.7895">
        <ele>1000.8</ele>
        <time>2025-07-15T05:53:52Z</time>
      </trkpt>
      <trkpt lat="44.12292" lon="6.78959">
        <ele>1000.8</ele>
        <time>2025-07-15T05:53:53Z</time>
      </trkpt>
      <trkpt lat="44.12269" lon="6.79014">
        <ele>1000.6</ele>
        <time>2025-07-15T05:53:59Z</time>
      </trkpt>
      <trkpt lat="44.12265" lon="6.79023">
        <ele>1000.6</ele>
        <time>2025-07-15T05:54:00Z</time>
      </trkpt>
      <trkpt lat="44.1226" lon="6.79052">
        <ele>1000.6</ele>
        <time>2025-07-15T05:54:03Z</time>
      </trkpt>
      <trkpt lat="44.12259" lon="6.79064">
        <ele>1000.6</ele>
        <time>2025-07-15T05:54:04Z</time>
      </trkpt>
      <trkpt lat="44.12255" lon="6.79105">
        <ele>1000.4</ele>
        <time>2025-07-15T05:54:08Z</time>
      </trkpt>
      <trkpt lat="44.12249" lon="6.79124">
        <ele>1000.2</ele>
        <time>2025-07-15T05:54:10Z</time>
      </trkpt>
      <trkpt lat="44.1224" lon="6.79139">
        <ele>1000.2</ele>
        <time>2025-07-15T05:54:12Z</time>
      </trkpt>
      <trkpt lat="44.12235" lon="6.79146">
        <ele>1000.4</ele>
        <time>2025-07-15T05:54:13Z</time>
      </trkpt>
      <trkpt lat="44.12225" lon="6.79159">
        <ele>1000.2</ele>
        <time>2025-07-15T05:54:15Z</time>
      </trkpt>
      <trkpt lat="44.12217" lon="6.79175">
        <ele>1000.2</ele>
        <time>2025-07-15T05:54:17Z</time>
      </trkpt>
      <trkpt lat="44.12213" lon="6.79193">
        <ele>1000.2</ele>
        <time>2025-07-15T05:54:19Z</time>
      </trkpt>
      <trkpt lat="44.12213" lon="6.79213">
        <ele>1000.2</ele>
        <time>2025-07-15T05:54:21Z</time>
      </trkpt>
      <trkpt lat="44.12214" lon="6.79241">
        <ele>1000.4</ele>
        <time>2025-07-15T05:54:24Z</time>
      </trkpt>
      <trkpt lat="44.12212" lon="6.7926">
        <ele>1000.4</ele>
        <time>2025-07-15T05:54:26Z</time>
      </trkpt>
      <trkpt lat="44.12205" lon="6.79277">
        <ele>1000.4</ele>
        <time>2025-07-15T05:54:28Z</time>
      </trkpt>
      <trkpt lat="44.12201" lon="6.79285">
        <ele>1000.4</ele>
        <time>2025-07-15T05:54:29Z</time>
      </trkpt>
      <trkpt lat="44.12195" lon="6.79292">
        <ele>1000.4</ele>
        <time>2025-07-15T05:54:30Z</time>
      </trkpt>
      <trkpt lat="44.12172" lon="6.79317">
        <ele>1000</ele>
        <time>2025-07-15T05:54:34Z</time>
      </trkpt>
      <trkpt lat="44.12141" lon="6.79359">
        <ele>999.8</ele>
        <time>2025-07-15T05:54:40Z</time>
      </trkpt>
      <trkpt lat="44.12112" lon="6.79407">
        <ele>999.2</ele>
        <time>2025-07-15T05:54:46Z</time>
      </trkpt>
      <trkpt lat="44.12088" lon="6.79448">
        <ele>976.8</ele>
        <time>2025-07-15T05:54:51Z</time>
      </trkpt>
      <trkpt lat="44.12062" lon="6.79487">
        <ele>998.8</ele>
        <time>2025-07-15T05:54:56Z</time>
      </trkpt>
      <trkpt lat="44.12053" lon="6.79499">
        <ele>998.6</ele>
        <time>2025-07-15T05:54:58Z</time>
      </trkpt>
      <trkpt lat="44.12042" lon="6.79511">
        <ele>998.4</ele>
        <time>2025-07-15T05:55:00Z</time>
      </trkpt>
      <trkpt lat="44.12031" lon="6.79524">
        <ele>998.2</ele>
        <time>2025-07-15T05:55:02Z</time>
      </trkpt>
      <trkpt lat="44.12022" lon="6.79539">
        <ele>998</ele>
        <time>2025-07-15T05:55:04Z</time>
      </trkpt>
      <trkpt lat="44.11992" lon="6.79596">
        <ele>997.6</ele>
        <time>2025-07-15T05:55:11Z</time>
      </trkpt>
      <trkpt lat="44.11954" lon="6.79644">
        <ele>996.4</ele>
        <time>2025-07-15T05:55:18Z</time>
      </trkpt>
      <trkpt lat="44.11947" lon="6.79654">
        <ele>996.4</ele>
        <time>2025-07-15T05:55:19Z</time>
      </trkpt>
      <trkpt lat="44.11928" lon="6.79677">
        <ele>995.2</ele>
        <time>2025-07-15T05:55:22Z</time>
      </trkpt>
      <trkpt lat="44.11907" lon="6.79701">
        <ele>994</ele>
        <time>2025-07-15T05:55:25Z</time>
      </trkpt>
      <trkpt lat="44.11901" lon="6.79708">
        <ele>993.8</ele>
        <time>2025-07-15T05:55:26Z</time>
      </trkpt>
      <trkpt lat="44.11888" lon="6.79725">
        <ele>993</ele>
        <time>2025-07-15T05:55:28Z</time>
      </trkpt>
      <trkpt lat="44.11868" lon="6.7975">
        <ele>992.2</ele>
        <time>2025-07-15T05:55:31Z</time>
      </trkpt>
      <trkpt lat="44.11863" lon="6.79759">
        <ele>992</ele>
        <time>2025-07-15T05:55:32Z</time>
      </trkpt>
      <trkpt lat="44.11858" lon="6.79768">
        <ele>992</ele>
        <time>2025-07-15T05:55:33Z</time>
      </trkpt>
      <trkpt lat="44.11834" lon="6.79823">
        <ele>991.6</ele>
        <time>2025-07-15T05:55:38Z</time>
      </trkpt>
      <trkpt lat="44.11824" lon="6.79861">
        <ele>991.2</ele>
        <time>2025-07-15T05:55:41Z</time>
      </trkpt>
      <trkpt lat="44.11821" lon="6.79875">
        <ele>990.6</ele>
        <time>2025-07-15T05:55:42Z</time>
      </trkpt>
      <trkpt lat="44.11816" lon="6.79901">
        <ele>989.8</ele>
        <time>2025-07-15T05:55:44Z</time>
      </trkpt>
      <trkpt lat="44.11813" lon="6.79934">
        <ele>988.4</ele>
        <time>2025-07-15T05:55:46Z</time>
      </trkpt>
      <trkpt lat="44.11812" lon="6.79946">
        <ele>987.6</ele>
        <time>2025-07-15T05:55:47Z</time>
      </trkpt>
      <trkpt lat="44.1181" lon="6.79965">
        <ele>987.2</ele>
        <time>2025-07-15T05:55:48Z</time>
      </trkpt>
      <trkpt lat="44.1181" lon="6.79977">
        <ele>986.2</ele>
        <time>2025-07-15T05:55:49Z</time>
      </trkpt>
      <trkpt lat="44.11809" lon="6.79996">
        <ele>985.6</ele>
        <time>2025-07-15T05:55:50Z</time>
      </trkpt>
      <trkpt lat="44.1181" lon="6.80012">
        <ele>985</ele>
        <time>2025-07-15T05:55:51Z</time>
      </trkpt>
      <trkpt lat="44.11812" lon="6.80024">
        <ele>984.4</ele>
        <time>2025-07-15T05:55:52Z</time>
      </trkpt>
      <trkpt lat="44.11816" lon="6.80038">
        <ele>984</ele>
        <time>2025-07-15T05:55:53Z</time>
      </trkpt>
      <trkpt lat="44.11821" lon="6.80052">
        <ele>983.4</ele>
        <time>2025-07-15T05:55:54Z</time>
      </trkpt>
      <trkpt lat="44.11825" lon="6.80066">
        <ele>983.2</ele>
        <time>2025-07-15T05:55:55Z</time>
      </trkpt>
      <trkpt lat="44.11828" lon="6.80084">
        <ele>982.4</ele>
        <time>2025-07-15T05:55:56Z</time>
      </trkpt>
      <trkpt lat="44.11828" lon="6.80098">
        <ele>982</ele>
        <time>2025-07-15T05:55:57Z</time>
      </trkpt>
      <trkpt lat="44.11826" lon="6.80109">
        <ele>981.2</ele>
        <time>2025-07-15T05:55:58Z</time>
      </trkpt>
      <trkpt lat="44.1182" lon="6.80125">
        <ele>980.2</ele>
        <time>2025-07-15T05:55:59Z</time>
      </trkpt>
      <trkpt lat="44.11814" lon="6.80137">
        <ele>979.6</ele>
        <time>2025-07-15T05:56:00Z</time>
      </trkpt>
      <trkpt lat="44.118" lon="6.80161">
        <ele>978.8</ele>
        <time>2025-07-15T05:56:02Z</time>
      </trkpt>
      <trkpt lat="44.11795" lon="6.80171">
        <ele>978.2</ele>
        <time>2025-07-15T05:56:03Z</time>
      </trkpt>
      <trkpt lat="44.11785" lon="6.80203">
        <ele>977.2</ele>
        <time>2025-07-15T05:56:05Z</time>
      </trkpt>
      <trkpt lat="44.11783" lon="6.80215">
        <ele>976.6</ele>
        <time>2025-07-15T05:56:06Z</time>
      </trkpt>
      <trkpt lat="44.11782" lon="6.8023">
        <ele>976.4</ele>
        <time>2025-07-15T05:56:07Z</time>
      </trkpt>
      <trkpt lat="44.11785" lon="6.80245">
        <ele>975.6</ele>
        <time>2025-07-15T05:56:08Z</time>
      </trkpt>
      <trkpt lat="44.11791" lon="6.8026">
        <ele>975.2</ele>
        <time>2025-07-15T05:56:09Z</time>
      </trkpt>
      <trkpt lat="44.11799" lon="6.8027">
        <ele>974.4</ele>
        <time>2025-07-15T05:56:10Z</time>
      </trkpt>
      <trkpt lat="44.11809" lon="6.80277">
        <ele>973.6</ele>
        <time>2025-07-15T05:56:11Z</time>
      </trkpt>
      <trkpt lat="44.11819" lon="6.80283">
        <ele>973.2</ele>
        <time>2025-07-15T05:56:12Z</time>
      </trkpt>
      <trkpt lat="44.11827" lon="6.80287">
        <ele>972.2</ele>
        <time>2025-07-15T05:56:13Z</time>
      </trkpt>
      <trkpt lat="44.11839" lon="6.80296">
        <ele>971.8</ele>
        <time>2025-07-15T05:56:14Z</time>
      </trkpt>
      <trkpt lat="44.11848" lon="6.80306">
        <ele>970.8</ele>
        <time>2025-07-15T05:56:15Z</time>
      </trkpt>
      <trkpt lat="44.11855" lon="6.80319">
        <ele>970</ele>
        <time>2025-07-15T05:56:16Z</time>
      </trkpt>
      <trkpt lat="44.11859" lon="6.8033">
        <ele>969.4</ele>
        <time>2025-07-15T05:56:17Z</time>
      </trkpt>
      <trkpt lat="44.11862" lon="6.80344">
        <ele>968.2</ele>
        <time>2025-07-15T05:56:18Z</time>
      </trkpt>
      <trkpt lat="44.11856" lon="6.80373">
        <ele>967</ele>
        <time>2025-07-15T05:56:20Z</time>
      </trkpt>
      <trkpt lat="44.11841" lon="6.80394">
        <ele>965.8</ele>
        <time>2025-07-15T05:56:22Z</time>
      </trkpt>
      <trkpt lat="44.11819" lon="6.80407">
        <ele>964.4</ele>
        <time>2025-07-15T05:56:24Z</time>
      </trkpt>
      <trkpt lat="44.11809" lon="6.80409">
        <ele>963.8</ele>
        <time>2025-07-15T05:56:25Z</time>
      </trkpt>
      <trkpt lat="44.11788" lon="6.80414">
        <ele>963.2</ele>
        <time>2025-07-15T05:56:27Z</time>
      </trkpt>
      <trkpt lat="44.11769" lon="6.80422">
        <ele>962.8</ele>
        <time>2025-07-15T05:56:29Z</time>
      </trkpt>
      <trkpt lat="44.11759" lon="6.80427">
        <ele>962.6</ele>
        <time>2025-07-15T05:56:30Z</time>
      </trkpt>
      <trkpt lat="44.11742" lon="6.80441">
        <ele>962.2</ele>
        <time>2025-07-15T05:56:32Z</time>
      </trkpt>
      <trkpt lat="44.11719" lon="6.80464">
        <ele>961.8</ele>
        <time>2025-07-15T05:56:35Z</time>
      </trkpt>
      <trkpt lat="44.11694" lon="6.80503">
        <ele>961.4</ele>
        <time>2025-07-15T05:56:39Z</time>
      </trkpt>
      <trkpt lat="44.11689" lon="6.80515">
        <ele>961</ele>
        <time>2025-07-15T05:56:40Z</time>
      </trkpt>
      <trkpt lat="44.11667" lon="6.80556">
        <ele>960.2</ele>
        <time>2025-07-15T05:56:44Z</time>
      </trkpt>
      <trkpt lat="44.1166" lon="6.80565">
        <ele>960</ele>
        <time>2025-07-15T05:56:45Z</time>
      </trkpt>
      <trkpt lat="44.11638" lon="6.80594">
        <ele>959.4</ele>
        <time>2025-07-15T05:56:48Z</time>
      </trkpt>
      <trkpt lat="44.11629" lon="6.80618">
        <ele>959.4</ele>
        <time>2025-07-15T05:56:50Z</time>
      </trkpt>
      <trkpt lat="44.11627" lon="6.80628">
        <ele>959.2</ele>
        <time>2025-07-15T05:56:51Z</time>
      </trkpt>
      <trkpt lat="44.11623" lon="6.8064">
        <ele>959</ele>
        <time>2025-07-15T05:56:52Z</time>
      </trkpt>
      <trkpt lat="44.11619" lon="6.80655">
        <ele>959</ele>
        <time>2025-07-15T05:56:53Z</time>
      </trkpt>
      <trkpt lat="44.11606" lon="6.80686">
        <ele>958.4</ele>
        <time>2025-07-15T05:56:56Z</time>
      </trkpt>
      <trkpt lat="44.11593" lon="6.8072">
        <ele>957.8</ele>
        <time>2025-07-15T05:56:59Z</time>
      </trkpt>
      <trkpt lat="44.11588" lon="6.80741">
        <ele>957.4</ele>
        <time>2025-07-15T05:57:01Z</time>
      </trkpt>
      <trkpt lat="44.11577" lon="6.80801">
        <ele>956.8</ele>
        <time>2025-07-15T05:57:06Z</time>
      </trkpt>
      <trkpt lat="44.11566" lon="6.80838">
        <ele>956.2</ele>
        <time>2025-07-15T05:57:09Z</time>
      </trkpt>
      <trkpt lat="44.11557" lon="6.80856">
        <ele>955.8</ele>
        <time>2025-07-15T05:57:11Z</time>
      </trkpt>
      <trkpt lat="44.11537" lon="6.80886">
        <ele>955.2</ele>
        <time>2025-07-15T05:57:14Z</time>
      </trkpt>
      <trkpt lat="44.11526" lon="6.80902">
        <ele>955</ele>
        <time>2025-07-15T05:57:16Z</time>
      </trkpt>
      <trkpt lat="44.11517" lon="6.80924">
        <ele>954.6</ele>
        <time>2025-07-15T05:57:18Z</time>
      </trkpt>
      <trkpt lat="44.11512" lon="6.80939">
        <ele>954.4</ele>
        <time>2025-07-15T05:57:19Z</time>
      </trkpt>
      <trkpt lat="44.1151" lon="6.80951">
        <ele>954.2</ele>
        <time>2025-07-15T05:57:20Z</time>
      </trkpt>
      <trkpt lat="44.11508" lon="6.80965">
        <ele>953.8</ele>
        <time>2025-07-15T05:57:21Z</time>
      </trkpt>
      <trkpt lat="44.11507" lon="6.80989">
        <ele>953.4</ele>
        <time>2025-07-15T05:57:23Z</time>
      </trkpt>
      <trkpt lat="44.11504" lon="6.81016">
        <ele>952.8</ele>
        <time>2025-07-15T05:57:25Z</time>
      </trkpt>
      <trkpt lat="44.11501" lon="6.81056">
        <ele>951.6</ele>
        <time>2025-07-15T05:57:28Z</time>
      </trkpt>
      <trkpt lat="44.11499" lon="6.81087">
        <ele>951.4</ele>
        <time>2025-07-15T05:57:30Z</time>
      </trkpt>
      <trkpt lat="44.11497" lon="6.81098">
        <ele>950.8</ele>
        <time>2025-07-15T05:57:31Z</time>
      </trkpt>
      <trkpt lat="44.1149" lon="6.81142">
        <ele>949.8</ele>
        <time>2025-07-15T05:57:34Z</time>
      </trkpt>
      <trkpt lat="44.11488" lon="6.81153">
        <ele>949.2</ele>
        <time>2025-07-15T05:57:35Z</time>
      </trkpt>
      <trkpt lat="44.1148" lon="6.81184">
        <ele>948.6</ele>
        <time>2025-07-15T05:57:37Z</time>
      </trkpt>
      <trkpt lat="44.11469" lon="6.81228">
        <ele>947.4</ele>
        <time>2025-07-15T05:57:40Z</time>
      </trkpt>
      <trkpt lat="44.11466" lon="6.8124">
        <ele>947</ele>
        <time>2025-07-15T05:57:41Z</time>
      </trkpt>
      <trkpt lat="44.11462" lon="6.81259">
        <ele>946</ele>
        <time>2025-07-15T05:57:42Z</time>
      </trkpt>
      <trkpt lat="44.11455" lon="6.81287">
        <ele>945</ele>
        <time>2025-07-15T05:57:44Z</time>
      </trkpt>
      <trkpt lat="44.11448" lon="6.81319">
        <ele>943.8</ele>
        <time>2025-07-15T05:57:46Z</time>
      </trkpt>
      <trkpt lat="44.11444" lon="6.81335">
        <ele>942.4</ele>
        <time>2025-07-15T05:57:47Z</time>
      </trkpt>
      <trkpt lat="44.11438" lon="6.81354">
        <ele>941.6</ele>
        <time>2025-07-15T05:57:48Z</time>
      </trkpt>
      <trkpt lat="44.11434" lon="6.8137">
        <ele>940.4</ele>
        <time>2025-07-15T05:57:49Z</time>
      </trkpt>
      <trkpt lat="44.1143" lon="6.81383">
        <ele>939.4</ele>
        <time>2025-07-15T05:57:50Z</time>
      </trkpt>
      <trkpt lat="44.11421" lon="6.81415">
        <ele>937.6</ele>
        <time>2025-07-15T05:57:52Z</time>
      </trkpt>
      <trkpt lat="44.1141" lon="6.81448">
        <ele>936.2</ele>
        <time>2025-07-15T05:57:54Z</time>
      </trkpt>
      <trkpt lat="44.11407" lon="6.8146">
        <ele>935.4</ele>
        <time>2025-07-15T05:57:55Z</time>
      </trkpt>
      <trkpt lat="44.11402" lon="6.81475">
        <ele>934.8</ele>
        <time>2025-07-15T05:57:56Z</time>
      </trkpt>
      <trkpt lat="44.11391" lon="6.81519">
        <ele>933.4</ele>
        <time>2025-07-15T05:57:59Z</time>
      </trkpt>
      <trkpt lat="44.11387" lon="6.81534">
        <ele>933.2</ele>
        <time>2025-07-15T05:58:00Z</time>
      </trkpt>
      <trkpt lat="44.11377" lon="6.81579">
        <ele>932.4</ele>
        <time>2025-07-15T05:58:03Z</time>
      </trkpt>
      <trkpt lat="44.11368" lon="6.81617">
        <ele>931.6</ele>
        <time>2025-07-15T05:58:06Z</time>
      </trkpt>
      <trkpt lat="44.11364" lon="6.81629">
        <ele>931.4</ele>
        <time>2025-07-15T05:58:07Z</time>
      </trkpt>
      <trkpt lat="44.11351" lon="6.81664">
        <ele>931</ele>
        <time>2025-07-15T05:58:10Z</time>
      </trkpt>
      <trkpt lat="44.11324" lon="6.81712">
        <ele>930.8</ele>
        <time>2025-07-15T05:58:15Z</time>
      </trkpt>
      <trkpt lat="44.11288" lon="6.81773">
        <ele>931.2</ele>
        <time>2025-07-15T05:58:22Z</time>
      </trkpt>
      <trkpt lat="44.11282" lon="6.81782">
        <ele>931.4</ele>
        <time>2025-07-15T05:58:23Z</time>
      </trkpt>
      <trkpt lat="44.11246" lon="6.81825">
        <ele>931.6</ele>
        <time>2025-07-15T05:58:29Z</time>
      </trkpt>
      <trkpt lat="44.11204" lon="6.81879">
        <ele>931.2</ele>
        <time>2025-07-15T05:58:36Z</time>
      </trkpt>
      <trkpt lat="44.112" lon="6.81886">
        <ele>931.2</ele>
        <time>2025-07-15T05:58:37Z</time>
      </trkpt>
      <trkpt lat="44.1119" lon="6.81903">
        <ele>931</ele>
        <time>2025-07-15T05:58:39Z</time>
      </trkpt>
      <trkpt lat="44.11185" lon="6.81924">
        <ele>931</ele>
        <time>2025-07-15T05:58:41Z</time>
      </trkpt>
      <trkpt lat="44.11188" lon="6.81946">
        <ele>930.6</ele>
        <time>2025-07-15T05:58:43Z</time>
      </trkpt>
      <trkpt lat="44.11191" lon="6.81956">
        <ele>930.4</ele>
        <time>2025-07-15T05:58:44Z</time>
      </trkpt>
      <trkpt lat="44.11199" lon="6.8198">
        <ele>930.4</ele>
        <time>2025-07-15T05:58:46Z</time>
      </trkpt>
      <trkpt lat="44.11201" lon="6.82">
        <ele>930.4</ele>
        <time>2025-07-15T05:58:48Z</time>
      </trkpt>
      <trkpt lat="44.11194" lon="6.82019">
        <ele>930.4</ele>
        <time>2025-07-15T05:58:50Z</time>
      </trkpt>
      <trkpt lat="44.11179" lon="6.82032">
        <ele>930.4</ele>
        <time>2025-07-15T05:58:53Z</time>
      </trkpt>
      <trkpt lat="44.11158" lon="6.82041">
        <ele>931.8</ele>
        <time>2025-07-15T05:58:57Z</time>
      </trkpt>
      <trkpt lat="44.11154" lon="6.82042">
        <ele>932.2</ele>
        <time>2025-07-15T05:58:58Z</time>
      </trkpt>
      <trkpt lat="44.11149" lon="6.82043">
        <ele>932.4</ele>
        <time>2025-07-15T05:58:59Z</time>
      </trkpt>
      <trkpt lat="44.11134" lon="6.82047">
        <ele>933.6</ele>
        <time>2025-07-15T05:59:03Z</time>
      </trkpt>
      <trkpt lat="44.11116" lon="6.82055">
        <ele>934.6</ele>
        <time>2025-07-15T05:59:08Z</time>
      </trkpt>
      <trkpt lat="44.1111" lon="6.82059">
        <ele>935.2</ele>
        <time>2025-07-15T05:59:10Z</time>
      </trkpt>
      <trkpt lat="44.11098" lon="6.8207">
        <ele>936</ele>
        <time>2025-07-15T05:59:14Z</time>
      </trkpt>
      <trkpt lat="44.1109" lon="6.82081">
        <ele>936.6</ele>
        <time>2025-07-15T05:59:17Z</time>
      </trkpt>
      <trkpt lat="44.11083" lon="6.82092">
        <ele>937</ele>
        <time>2025-07-15T05:59:20Z</time>
      </trkpt>
      <trkpt lat="44.11068" lon="6.82114">
        <ele>938.2</ele>
        <time>2025-07-15T05:59:26Z</time>
      </trkpt>
      <trkpt lat="44.11064" lon="6.82122">
        <ele>938.4</ele>
        <time>2025-07-15T05:59:28Z</time>
      </trkpt>
      <trkpt lat="44.11057" lon="6.82135">
        <ele>939.2</ele>
        <time>2025-07-15T05:59:31Z</time>
      </trkpt>
      <trkpt lat="44.11051" lon="6.82155">
        <ele>939.8</ele>
        <time>2025-07-15T05:59:35Z</time>
      </trkpt>
      <trkpt lat="44.11047" lon="6.8217">
        <ele>940.4</ele>
        <time>2025-07-15T05:59:38Z</time>
      </trkpt>
      <trkpt lat="44.1104" lon="6.82191">
        <ele>941</ele>
        <time>2025-07-15T05:59:42Z</time>
      </trkpt>
      <trkpt lat="44.11027" lon="6.82224">
        <ele>941.6</ele>
        <time>2025-07-15T05:59:48Z</time>
      </trkpt>
      <trkpt lat="44.11023" lon="6.82235">
        <ele>941.6</ele>
        <time>2025-07-15T05:59:50Z</time>
      </trkpt>
      <trkpt lat="44.11017" lon="6.82253">
        <ele>941.6</ele>
        <time>2025-07-15T05:59:53Z</time>
      </trkpt>
      <trkpt lat="44.11014" lon="6.82259">
        <ele>941.6</ele>
        <time>2025-07-15T05:59:54Z</time>
      </trkpt>
      <trkpt lat="44.11006" lon="6.82267">
        <ele>941.6</ele>
        <time>2025-07-15T05:59:56Z</time>
      </trkpt>
      <trkpt lat="44.11001" lon="6.82271">
        <ele>941.6</ele>
        <time>2025-07-15T05:59:57Z</time>
      </trkpt>
      <trkpt lat="44.10996" lon="6.82273">
        <ele>941.6</ele>
        <time>2025-07-15T05:59:58Z</time>
      </trkpt>
      <trkpt lat="44.10985" lon="6.82278">
        <ele>941.6</ele>
        <time>2025-07-15T06:00:00Z</time>
      </trkpt>
      <trkpt lat="44.1098" lon="6.82281">
        <ele>941.6</ele>
        <time>2025-07-15T06:00:01Z</time>
      </trkpt>
      <trkpt lat="44.10975" lon="6.82286">
        <ele>941.6</ele>
        <time>2025-07-15T06:00:02Z</time>
      </trkpt>
      <trkpt lat="44.10963" lon="6.82301">
        <ele>941.6</ele>
        <time>2025-07-15T06:00:05Z</time>
      </trkpt>
      <trkpt lat="44.10933" lon="6.8234">
        <ele>942</ele>
        <time>2025-07-15T06:00:12Z</time>
      </trkpt>
      <trkpt lat="44.10927" lon="6.82355">
        <ele>942</ele>
        <time>2025-07-15T06:00:14Z</time>
      </trkpt>
      <trkpt lat="44.10919" lon="6.82378">
        <ele>942</ele>
        <time>2025-07-15T06:00:17Z</time>
      </trkpt>
      <trkpt lat="44.10914" lon="6.82404">
        <ele>941.8</ele>
        <time>2025-07-15T06:00:20Z</time>
      </trkpt>
      <trkpt lat="44.10907" lon="6.82464">
        <ele>942</ele>
        <time>2025-07-15T06:00:27Z</time>
      </trkpt>
      <trkpt lat="44.10906" lon="6.82473">
        <ele>942</ele>
        <time>2025-07-15T06:00:28Z</time>
      </trkpt>
      <trkpt lat="44.10906" lon="6.82543">
        <ele>941.6</ele>
        <time>2025-07-15T06:00:36Z</time>
      </trkpt>
      <trkpt lat="44.10906" lon="6.82578">
        <ele>941.6</ele>
        <time>2025-07-15T06:00:40Z</time>
      </trkpt>
      <trkpt lat="44.10909" lon="6.82595">
        <ele>941.6</ele>
        <time>2025-07-15T06:00:42Z</time>
      </trkpt>
      <trkpt lat="44.10922" lon="6.82656">
        <ele>941.6</ele>
        <time>2025-07-15T06:00:49Z</time>
      </trkpt>
      <trkpt lat="44.1092" lon="6.82675">
        <ele>941.6</ele>
        <time>2025-07-15T06:00:51Z</time>
      </trkpt>
      <trkpt lat="44.10917" lon="6.82683">
        <ele>941.6</ele>
        <time>2025-07-15T06:00:52Z</time>
      </trkpt>
      <trkpt lat="44.10891" lon="6.82757">
        <ele>941.8</ele>
        <time>2025-07-15T06:01:01Z</time>
      </trkpt>
      <trkpt lat="44.10884" lon="6.82794">
        <ele>941.8</ele>
        <time>2025-07-15T06:01:05Z</time>
      </trkpt>
      <trkpt lat="44.10883" lon="6.82804">
        <ele>941.6</ele>
        <time>2025-07-15T06:01:06Z</time>
      </trkpt>
      <trkpt lat="44.10881" lon="6.82833">
        <ele>941.4</ele>
        <time>2025-07-15T06:01:09Z</time>
      </trkpt>
      <trkpt lat="44.10878" lon="6.8287">
        <ele>940.8</ele>
        <time>2025-07-15T06:01:13Z</time>
      </trkpt>
      <trkpt lat="44.10876" lon="6.82923">
        <ele>940.4</ele>
        <time>2025-07-15T06:01:18Z</time>
      </trkpt>
      <trkpt lat="44.10877" lon="6.82934">
        <ele>940.4</ele>
        <time>2025-07-15T06:01:19Z</time>
      </trkpt>
      <trkpt lat="44.10879" lon="6.82946">
        <ele>940</ele>
        <time>2025-07-15T06:01:20Z</time>
      </trkpt>
      <trkpt lat="44.10888" lon="6.82984">
        <ele>939.6</ele>
        <time>2025-07-15T06:01:24Z</time>
      </trkpt>
      <trkpt lat="44.10889" lon="6.82994">
        <ele>939.4</ele>
        <time>2025-07-15T06:01:25Z</time>
      </trkpt>
      <trkpt lat="44.1089" lon="6.83006">
        <ele>939.4</ele>
        <time>2025-07-15T06:01:26Z</time>
      </trkpt>
      <trkpt lat="44.1089" lon="6.83017">
        <ele>939.2</ele>
        <time>2025-07-15T06:01:27Z</time>
      </trkpt>
      <trkpt lat="44.10889" lon="6.83025">
        <ele>939</ele>
        <time>2025-07-15T06:01:28Z</time>
      </trkpt>
      <trkpt lat="44.10885" lon="6.83067">
        <ele>938.4</ele>
        <time>2025-07-15T06:01:32Z</time>
      </trkpt>
      <trkpt lat="44.10881" lon="6.83102">
        <ele>938.4</ele>
        <time>2025-07-15T06:01:35Z</time>
      </trkpt>
      <trkpt lat="44.10882" lon="6.83151">
        <ele>937.6</ele>
        <time>2025-07-15T06:01:39Z</time>
      </trkpt>
      <trkpt lat="44.10883" lon="6.83163">
        <ele>937.4</ele>
        <time>2025-07-15T06:01:40Z</time>
      </trkpt>
      <trkpt lat="44.10892" lon="6.83235">
        <ele>937</ele>
        <time>2025-07-15T06:01:47Z</time>
      </trkpt>
      <trkpt lat="44.1091" lon="6.83315">
        <ele>937</ele>
        <time>2025-07-15T06:01:54Z</time>
      </trkpt>
      <trkpt lat="44.10923" lon="6.83343">
        <ele>936.8</ele>
        <time>2025-07-15T06:01:57Z</time>
      </trkpt>
      <trkpt lat="44.10929" lon="6.83351">
        <ele>936.6</ele>
        <time>2025-07-15T06:01:58Z</time>
      </trkpt>
      <trkpt lat="44.10935" lon="6.83359">
        <ele>936.6</ele>
        <time>2025-07-15T06:01:59Z</time>
      </trkpt>
      <trkpt lat="44.10956" lon="6.83378">
        <ele>935.6</ele>
        <time>2025-07-15T06:02:02Z</time>
      </trkpt>
      <trkpt lat="44.10956" lon="6.83378">
        <ele>935.2</ele>
        <time>2025-07-15T06:02:03Z</time>
      </trkpt>
      <trkpt lat="44.10964" lon="6.83384">
        <ele>935</ele>
        <time>2025-07-15T06:02:04Z</time>
      </trkpt>
      <trkpt lat="44.10996" lon="6.83402">
        <ele>934.2</ele>
        <time>2025-07-15T06:02:07Z</time>
      </trkpt>
      <trkpt lat="44.11013" lon="6.83407">
        <ele>933.8</ele>
        <time>2025-07-15T06:02:09Z</time>
      </trkpt>
      <trkpt lat="44.11022" lon="6.83409">
        <ele>933.2</ele>
        <time>2025-07-15T06:02:11Z</time>
      </trkpt>
      <trkpt lat="44.11076" lon="6.83419">
        <ele>931.8</ele>
        <time>2025-07-15T06:02:16Z</time>
      </trkpt>
      <trkpt lat="44.11085" lon="6.83422">
        <ele>931.6</ele>
        <time>2025-07-15T06:02:17Z</time>
      </trkpt>
      <trkpt lat="44.11094" lon="6.83426">
        <ele>931.2</ele>
        <time>2025-07-15T06:02:18Z</time>
      </trkpt>
      <trkpt lat="44.11102" lon="6.83431">
        <ele>930.8</ele>
        <time>2025-07-15T06:02:20Z</time>
      </trkpt>
      <trkpt lat="44.11117" lon="6.83444">
        <ele>930.4</ele>
        <time>2025-07-15T06:02:21Z</time>
      </trkpt>
      <trkpt lat="44.11125" lon="6.83452">
        <ele>929.8</ele>
        <time>2025-07-15T06:02:23Z</time>
      </trkpt>
      <trkpt lat="44.11141" lon="6.83466">
        <ele>929</ele>
        <time>2025-07-15T06:02:25Z</time>
      </trkpt>
      <trkpt lat="44.11157" lon="6.83481">
        <ele>928.6</ele>
        <time>2025-07-15T06:02:27Z</time>
      </trkpt>
      <trkpt lat="44.11188" lon="6.83515">
        <ele>927.4</ele>
        <time>2025-07-15T06:02:31Z</time>
      </trkpt>
      <trkpt lat="44.11221" lon="6.8356">
        <ele>926.2</ele>
        <time>2025-07-15T06:02:35Z</time>
      </trkpt>
      <trkpt lat="44.11224" lon="6.8357">
        <ele>926</ele>
        <time>2025-07-15T06:02:36Z</time>
      </trkpt>
      <trkpt lat="44.11226" lon="6.83581">
        <ele>925.8</ele>
        <time>2025-07-15T06:02:37Z</time>
      </trkpt>
      <trkpt lat="44.11224" lon="6.83593">
        <ele>925.6</ele>
        <time>2025-07-15T06:02:38Z</time>
      </trkpt>
      <trkpt lat="44.11221" lon="6.83617">
        <ele>925.2</ele>
        <time>2025-07-15T06:02:41Z</time>
      </trkpt>
      <trkpt lat="44.11217" lon="6.83649">
        <ele>925</ele>
        <time>2025-07-15T06:02:43Z</time>
      </trkpt>
      <trkpt lat="44.11213" lon="6.83662">
        <ele>924.8</ele>
        <time>2025-07-15T06:02:45Z</time>
      </trkpt>
      <trkpt lat="44.11194" lon="6.83682">
        <ele>924.8</ele>
        <time>2025-07-15T06:02:47Z</time>
      </trkpt>
      <trkpt lat="44.11151" lon="6.8369">
        <ele>924.6</ele>
        <time>2025-07-15T06:02:52Z</time>
      </trkpt>
      <trkpt lat="44.11134" lon="6.83692">
        <ele>924.2</ele>
        <time>2025-07-15T06:02:54Z</time>
      </trkpt>
      <trkpt lat="44.11099" lon="6.83692">
        <ele>923.8</ele>
        <time>2025-07-15T06:02:58Z</time>
      </trkpt>
      <trkpt lat="44.11082" lon="6.83693">
        <ele>923.6</ele>
        <time>2025-07-15T06:03:00Z</time>
      </trkpt>
      <trkpt lat="44.11049" lon="6.83702">
        <ele>923.2</ele>
        <time>2025-07-15T06:03:04Z</time>
      </trkpt>
      <trkpt lat="44.11025" lon="6.83711">
        <ele>923.2</ele>
        <time>2025-07-15T06:03:07Z</time>
      </trkpt>
      <trkpt lat="44.11005" lon="6.83724">
        <ele>923.2</ele>
        <time>2025-07-15T06:03:10Z</time>
      </trkpt>
      <trkpt lat="44.10956" lon="6.83758">
        <ele>923</ele>
        <time>2025-07-15T06:03:17Z</time>
      </trkpt>
      <trkpt lat="44.10913" lon="6.83778">
        <ele>923.2</ele>
        <time>2025-07-15T06:03:23Z</time>
      </trkpt>
      <trkpt lat="44.10905" lon="6.8378">
        <ele>923.2</ele>
        <time>2025-07-15T06:03:24Z</time>
      </trkpt>
      <trkpt lat="44.1087" lon="6.83796">
        <ele>923</ele>
        <time>2025-07-15T06:03:29Z</time>
      </trkpt>
      <trkpt lat="44.10852" lon="6.83808">
        <ele>923</ele>
        <time>2025-07-15T06:03:32Z</time>
      </trkpt>
      <trkpt lat="44.10839" lon="6.83821">
        <ele>923</ele>
        <time>2025-07-15T06:03:35Z</time>
      </trkpt>
      <trkpt lat="44.10811" lon="6.83852">
        <ele>923</ele>
        <time>2025-07-15T06:03:39Z</time>
      </trkpt>
      <trkpt lat="44.10808" lon="6.83861">
        <ele>923</ele>
        <time>2025-07-15T06:03:40Z</time>
      </trkpt>
      <trkpt lat="44.10806" lon="6.83868">
        <ele>923</ele>
        <time>2025-07-15T06:03:41Z</time>
      </trkpt>
      <trkpt lat="44.10799" lon="6.839">
        <ele>923</ele>
        <time>2025-07-15T06:03:44Z</time>
      </trkpt>
      <trkpt lat="44.10796" lon="6.83909">
        <ele>923</ele>
        <time>2025-07-15T06:03:45Z</time>
      </trkpt>
      <trkpt lat="44.10787" lon="6.83934">
        <ele>922.8</ele>
        <time>2025-07-15T06:03:48Z</time>
      </trkpt>
      <trkpt lat="44.10783" lon="6.83955">
        <ele>922.8</ele>
        <time>2025-07-15T06:03:50Z</time>
      </trkpt>
      <trkpt lat="44.10783" lon="6.83966">
        <ele>922.8</ele>
        <time>2025-07-15T06:03:52Z</time>
      </trkpt>
      <trkpt lat="44.10783" lon="6.83985">
        <ele>922.8</ele>
        <time>2025-07-15T06:03:53Z</time>
      </trkpt>
      <trkpt lat="44.10781" lon="6.83996">
        <ele>922.8</ele>
        <time>2025-07-15T06:03:54Z</time>
      </trkpt>
      <trkpt lat="44.10759" lon="6.84055">
        <ele>922.6</ele>
        <time>2025-07-15T06:04:00Z</time>
      </trkpt>
      <trkpt lat="44.10745" lon="6.8409">
        <ele>922.2</ele>
        <time>2025-07-15T06:04:04Z</time>
      </trkpt>
      <trkpt lat="44.10736" lon="6.84107">
        <ele>922</ele>
        <time>2025-07-15T06:04:06Z</time>
      </trkpt>
      <trkpt lat="44.10731" lon="6.84116">
        <ele>921.8</ele>
        <time>2025-07-15T06:04:07Z</time>
      </trkpt>
      <trkpt lat="44.10727" lon="6.84124">
        <ele>921.8</ele>
        <time>2025-07-15T06:04:08Z</time>
      </trkpt>
      <trkpt lat="44.10724" lon="6.84134">
        <ele>921.8</ele>
        <time>2025-07-15T06:04:10Z</time>
      </trkpt>
      <trkpt lat="44.10721" lon="6.84144">
        <ele>921.6</ele>
        <time>2025-07-15T06:04:11Z</time>
      </trkpt>
      <trkpt lat="44.10717" lon="6.84188">
        <ele>921.4</ele>
        <time>2025-07-15T06:04:14Z</time>
      </trkpt>
      <trkpt lat="44.10711" lon="6.84211">
        <ele>921</ele>
        <time>2025-07-15T06:04:16Z</time>
      </trkpt>
      <trkpt lat="44.10704" lon="6.84233">
        <ele>920.8</ele>
        <time>2025-07-15T06:04:18Z</time>
      </trkpt>
      <trkpt lat="44.10692" lon="6.84266">
        <ele>919.8</ele>
        <time>2025-07-15T06:04:21Z</time>
      </trkpt>
      <trkpt lat="44.1068" lon="6.84298">
        <ele>918.6</ele>
        <time>2025-07-15T06:04:25Z</time>
      </trkpt>
      <trkpt lat="44.10676" lon="6.84309">
        <ele>918.4</ele>
        <time>2025-07-15T06:04:26Z</time>
      </trkpt>
      <trkpt lat="44.10663" lon="6.84353">
        <ele>917.6</ele>
        <time>2025-07-15T06:04:29Z</time>
      </trkpt>
      <trkpt lat="44.10663" lon="6.84364">
        <ele>917.6</ele>
        <time>2025-07-15T06:04:30Z</time>
      </trkpt>
      <trkpt lat="44.10663" lon="6.84375">
        <ele>917.2</ele>
        <time>2025-07-15T06:04:31Z</time>
      </trkpt>
      <trkpt lat="44.10667" lon="6.84397">
        <ele>916.8</ele>
        <time>2025-07-15T06:04:33Z</time>
      </trkpt>
      <trkpt lat="44.10668" lon="6.84408">
        <ele>916.6</ele>
        <time>2025-07-15T06:04:34Z</time>
      </trkpt>
      <trkpt lat="44.10664" lon="6.84428">
        <ele>916.4</ele>
        <time>2025-07-15T06:04:36Z</time>
      </trkpt>
      <trkpt lat="44.10653" lon="6.8444">
        <ele>916.2</ele>
        <time>2025-07-15T06:04:38Z</time>
      </trkpt>
      <trkpt lat="44.10645" lon="6.84455">
        <ele>916.2</ele>
        <time>2025-07-15T06:04:40Z</time>
      </trkpt>
      <trkpt lat="44.10642" lon="6.84475">
        <ele>916.2</ele>
        <time>2025-07-15T06:04:42Z</time>
      </trkpt>
      <trkpt lat="44.10638" lon="6.84496">
        <ele>915.8</ele>
        <time>2025-07-15T06:04:44Z</time>
      </trkpt>
      <trkpt lat="44.10636" lon="6.84506">
        <ele>915.8</ele>
        <time>2025-07-15T06:04:45Z</time>
      </trkpt>
      <trkpt lat="44.10616" lon="6.84566">
        <ele>915.6</ele>
        <time>2025-07-15T06:04:51Z</time>
      </trkpt>
      <trkpt lat="44.10605" lon="6.84594">
        <ele>915.4</ele>
        <time>2025-07-15T06:04:54Z</time>
      </trkpt>
      <trkpt lat="44.10596" lon="6.8461">
        <ele>915.2</ele>
        <time>2025-07-15T06:04:56Z</time>
      </trkpt>
      <trkpt lat="44.10586" lon="6.84623">
        <ele>915.2</ele>
        <time>2025-07-15T06:04:58Z</time>
      </trkpt>
      <trkpt lat="44.10563" lon="6.84649">
        <ele>915</ele>
        <time>2025-07-15T06:05:02Z</time>
      </trkpt>
      <trkpt lat="44.10537" lon="6.84678">
        <ele>915</ele>
        <time>2025-07-15T06:05:06Z</time>
      </trkpt>
      <trkpt lat="44.10531" lon="6.84686">
        <ele>914.8</ele>
        <time>2025-07-15T06:05:07Z</time>
      </trkpt>
      <trkpt lat="44.10513" lon="6.84711">
        <ele>914</ele>
        <time>2025-07-15T06:05:10Z</time>
      </trkpt>
      <trkpt lat="44.10502" lon="6.8473">
        <ele>913.2</ele>
        <time>2025-07-15T06:05:13Z</time>
      </trkpt>
      <trkpt lat="44.1049" lon="6.8475">
        <ele>912.8</ele>
        <time>2025-07-15T06:05:14Z</time>
      </trkpt>
      <trkpt lat="44.10475" lon="6.84769">
        <ele>912</ele>
        <time>2025-07-15T06:05:16Z</time>
      </trkpt>
      <trkpt lat="44.10467" lon="6.84778">
        <ele>911.6</ele>
        <time>2025-07-15T06:05:17Z</time>
      </trkpt>
      <trkpt lat="44.1046" lon="6.84788">
        <ele>911.2</ele>
        <time>2025-07-15T06:05:18Z</time>
      </trkpt>
      <trkpt lat="44.10448" lon="6.84809">
        <ele>910.2</ele>
        <time>2025-07-15T06:05:20Z</time>
      </trkpt>
      <trkpt lat="44.10432" lon="6.8483">
        <ele>908.8</ele>
        <time>2025-07-15T06:05:22Z</time>
      </trkpt>
      <trkpt lat="44.10416" lon="6.84848">
        <ele>907.6</ele>
        <time>2025-07-15T06:05:24Z</time>
      </trkpt>
      <trkpt lat="44.10405" lon="6.84871">
        <ele>906.6</ele>
        <time>2025-07-15T06:05:26Z</time>
      </trkpt>
      <trkpt lat="44.10399" lon="6.84899">
        <ele>905.4</ele>
        <time>2025-07-15T06:05:28Z</time>
      </trkpt>
      <trkpt lat="44.10397" lon="6.84913">
        <ele>904.6</ele>
        <time>2025-07-15T06:05:29Z</time>
      </trkpt>
      <trkpt lat="44.10393" lon="6.84925">
        <ele>904.2</ele>
        <time>2025-07-15T06:05:30Z</time>
      </trkpt>
      <trkpt lat="44.10387" lon="6.84934">
        <ele>903.4</ele>
        <time>2025-07-15T06:05:31Z</time>
      </trkpt>
      <trkpt lat="44.10379" lon="6.8494">
        <ele>902.4</ele>
        <time>2025-07-15T06:05:32Z</time>
      </trkpt>
      <trkpt lat="44.10371" lon="6.84942">
        <ele>901.8</ele>
        <time>2025-07-15T06:05:33Z</time>
      </trkpt>
      <trkpt lat="44.10371" lon="6.84942">
        <ele>901.2</ele>
        <time>2025-07-15T06:05:34Z</time>
      </trkpt>
      <trkpt lat="44.10354" lon="6.8494">
        <ele>900.8</ele>
        <time>2025-07-15T06:05:35Z</time>
      </trkpt>
      <trkpt lat="44.10345" lon="6.84938">
        <ele>900</ele>
        <time>2025-07-15T06:05:36Z</time>
      </trkpt>
      <trkpt lat="44.10336" lon="6.84936">
        <ele>899.8</ele>
        <time>2025-07-15T06:05:37Z</time>
      </trkpt>
      <trkpt lat="44.10306" lon="6.8493">
        <ele>898.8</ele>
        <time>2025-07-15T06:05:40Z</time>
      </trkpt>
      <trkpt lat="44.10266" lon="6.84923">
        <ele>897.4</ele>
        <time>2025-07-15T06:05:44Z</time>
      </trkpt>
      <trkpt lat="44.10224" lon="6.84915">
        <ele>896</ele>
        <time>2025-07-15T06:05:48Z</time>
      </trkpt>
      <trkpt lat="44.10203" lon="6.84909">
        <ele>895.2</ele>
        <time>2025-07-15T06:05:50Z</time>
      </trkpt>
      <trkpt lat="44.10193" lon="6.84904">
        <ele>895</ele>
        <time>2025-07-15T06:05:51Z</time>
      </trkpt>
      <trkpt lat="44.10152" lon="6.84885">
        <ele>893.4</ele>
        <time>2025-07-15T06:05:55Z</time>
      </trkpt>
      <trkpt lat="44.10142" lon="6.84879">
        <ele>892.8</ele>
        <time>2025-07-15T06:05:56Z</time>
      </trkpt>
      <trkpt lat="44.10122" lon="6.84867">
        <ele>892</ele>
        <time>2025-07-15T06:05:58Z</time>
      </trkpt>
      <trkpt lat="44.10104" lon="6.84852">
        <ele>891.4</ele>
        <time>2025-07-15T06:06:00Z</time>
      </trkpt>
      <trkpt lat="44.10094" lon="6.84845">
        <ele>890.6</ele>
        <time>2025-07-15T06:06:01Z</time>
      </trkpt>
      <trkpt lat="44.10074" lon="6.84839">
        <ele>890</ele>
        <time>2025-07-15T06:06:03Z</time>
      </trkpt>
      <trkpt lat="44.10056" lon="6.84844">
        <ele>889.2</ele>
        <time>2025-07-15T06:06:05Z</time>
      </trkpt>
      <trkpt lat="44.10056" lon="6.84844">
        <ele>889</ele>
        <time>2025-07-15T06:06:06Z</time>
      </trkpt>
      <trkpt lat="44.10036" lon="6.8486">
        <ele>888.6</ele>
        <time>2025-07-15T06:06:07Z</time>
      </trkpt>
      <trkpt lat="44.10027" lon="6.84868">
        <ele>888.2</ele>
        <time>2025-07-15T06:06:08Z</time>
      </trkpt>
      <trkpt lat="44.10018" lon="6.84876">
        <ele>888.2</ele>
        <time>2025-07-15T06:06:09Z</time>
      </trkpt>
      <trkpt lat="44.1001" lon="6.8488">
        <ele>888</ele>
        <time>2025-07-15T06:06:10Z</time>
      </trkpt>
      <trkpt lat="44.09999" lon="6.84883">
        <ele>887.8</ele>
        <time>2025-07-15T06:06:11Z</time>
      </trkpt>
      <trkpt lat="44.09985" lon="6.84882">
        <ele>887.2</ele>
        <time>2025-07-15T06:06:12Z</time>
      </trkpt>
      <trkpt lat="44.09985" lon="6.84882">
        <ele>886.6</ele>
        <time>2025-07-15T06:06:13Z</time>
      </trkpt>
      <trkpt lat="44.09962" lon="6.84881">
        <ele>886.2</ele>
        <time>2025-07-15T06:06:14Z</time>
      </trkpt>
      <trkpt lat="44.09951" lon="6.84886">
        <ele>885.8</ele>
        <time>2025-07-15T06:06:15Z</time>
      </trkpt>
      <trkpt lat="44.09941" lon="6.84889">
        <ele>885.4</ele>
        <time>2025-07-15T06:06:16Z</time>
      </trkpt>
      <trkpt lat="44.09907" lon="6.84901">
        <ele>883.8</ele>
        <time>2025-07-15T06:06:19Z</time>
      </trkpt>
      <trkpt lat="44.09898" lon="6.84907">
        <ele>883</ele>
        <time>2025-07-15T06:06:20Z</time>
      </trkpt>
      <trkpt lat="44.0989" lon="6.84911">
        <ele>882.6</ele>
        <time>2025-07-15T06:06:21Z</time>
      </trkpt>
      <trkpt lat="44.09878" lon="6.84917">
        <ele>881.8</ele>
        <time>2025-07-15T06:06:22Z</time>
      </trkpt>
      <trkpt lat="44.09878" lon="6.84917">
        <ele>881.4</ele>
        <time>2025-07-15T06:06:23Z</time>
      </trkpt>
      <trkpt lat="44.09857" lon="6.84919">
        <ele>880.8</ele>
        <time>2025-07-15T06:06:24Z</time>
      </trkpt>
      <trkpt lat="44.09849" lon="6.84919">
        <ele>880.4</ele>
        <time>2025-07-15T06:06:25Z</time>
      </trkpt>
      <trkpt lat="44.09839" lon="6.8492">
        <ele>880.2</ele>
        <time>2025-07-15T06:06:26Z</time>
      </trkpt>
      <trkpt lat="44.09818" lon="6.84929">
        <ele>879.4</ele>
        <time>2025-07-15T06:06:28Z</time>
      </trkpt>
      <trkpt lat="44.09808" lon="6.84934">
        <ele>879.2</ele>
        <time>2025-07-15T06:06:29Z</time>
      </trkpt>
      <trkpt lat="44.09799" lon="6.84939">
        <ele>879</ele>
        <time>2025-07-15T06:06:30Z</time>
      </trkpt>
      <trkpt lat="44.09761" lon="6.84956">
        <ele>878</ele>
        <time>2025-07-15T06:06:34Z</time>
      </trkpt>
      <trkpt lat="44.09751" lon="6.84961">
        <ele>877.8</ele>
        <time>2025-07-15T06:06:35Z</time>
      </trkpt>
      <trkpt lat="44.09724" lon="6.84977">
        <ele>877</ele>
        <time>2025-07-15T06:06:38Z</time>
      </trkpt>
      <trkpt lat="44.09697" lon="6.84997">
        <ele>876</ele>
        <time>2025-07-15T06:06:41Z</time>
      </trkpt>
      <trkpt lat="44.09673" lon="6.85022">
        <ele>874.6</ele>
        <time>2025-07-15T06:06:44Z</time>
      </trkpt>
      <trkpt lat="44.09665" lon="6.85032">
        <ele>874.4</ele>
        <time>2025-07-15T06:06:45Z</time>
      </trkpt>
      <trkpt lat="44.09658" lon="6.85042">
        <ele>873.4</ele>
        <time>2025-07-15T06:06:46Z</time>
      </trkpt>
      <trkpt lat="44.09645" lon="6.85065">
        <ele>872.6</ele>
        <time>2025-07-15T06:06:48Z</time>
      </trkpt>
      <trkpt lat="44.09639" lon="6.85073">
        <ele>871.8</ele>
        <time>2025-07-15T06:06:49Z</time>
      </trkpt>
      <trkpt lat="44.09602" lon="6.85108">
        <ele>870.8</ele>
        <time>2025-07-15T06:06:53Z</time>
      </trkpt>
      <trkpt lat="44.09593" lon="6.85115">
        <ele>870.6</ele>
        <time>2025-07-15T06:06:54Z</time>
      </trkpt>
      <trkpt lat="44.09578" lon="6.85127">
        <ele>869.8</ele>
        <time>2025-07-15T06:06:56Z</time>
      </trkpt>
      <trkpt lat="44.09562" lon="6.8514">
        <ele>868.6</ele>
        <time>2025-07-15T06:06:58Z</time>
      </trkpt>
      <trkpt lat="44.09536" lon="6.85159">
        <ele>867.2</ele>
        <time>2025-07-15T06:07:01Z</time>
      </trkpt>
      <trkpt lat="44.0953" lon="6.85167">
        <ele>867</ele>
        <time>2025-07-15T06:07:02Z</time>
      </trkpt>
      <trkpt lat="44.09517" lon="6.85171">
        <ele>866.6</ele>
        <time>2025-07-15T06:07:03Z</time>
      </trkpt>
      <trkpt lat="44.09496" lon="6.85188">
        <ele>866</ele>
        <time>2025-07-15T06:07:05Z</time>
      </trkpt>
      <trkpt lat="44.09485" lon="6.85193">
        <ele>865.4</ele>
        <time>2025-07-15T06:07:06Z</time>
      </trkpt>
      <trkpt lat="44.09475" lon="6.85198">
        <ele>865.2</ele>
        <time>2025-07-15T06:07:07Z</time>
      </trkpt>
      <trkpt lat="44.09475" lon="6.85198">
        <ele>865</ele>
        <time>2025-07-15T06:07:08Z</time>
      </trkpt>
      <trkpt lat="44.09453" lon="6.85198">
        <ele>864.8</ele>
        <time>2025-07-15T06:07:09Z</time>
      </trkpt>
      <trkpt lat="44.09443" lon="6.85203">
        <ele>864.4</ele>
        <time>2025-07-15T06:07:10Z</time>
      </trkpt>
      <trkpt lat="44.09435" lon="6.85212">
        <ele>863.8</ele>
        <time>2025-07-15T06:07:11Z</time>
      </trkpt>
      <trkpt lat="44.09427" lon="6.85223">
        <ele>863.6</ele>
        <time>2025-07-15T06:07:12Z</time>
      </trkpt>
      <trkpt lat="44.09406" lon="6.85232">
        <ele>863.2</ele>
        <time>2025-07-15T06:07:14Z</time>
      </trkpt>
      <trkpt lat="44.09397" lon="6.85233">
        <ele>862.8</ele>
        <time>2025-07-15T06:07:15Z</time>
      </trkpt>
      <trkpt lat="44.09389" lon="6.85237">
        <ele>862.4</ele>
        <time>2025-07-15T06:07:16Z</time>
      </trkpt>
      <trkpt lat="44.09382" lon="6.85241">
        <ele>862.2</ele>
        <time>2025-07-15T06:07:17Z</time>
      </trkpt>
      <trkpt lat="44.09373" lon="6.85238">
        <ele>861.4</ele>
        <time>2025-07-15T06:07:18Z</time>
      </trkpt>
      <trkpt lat="44.09356" lon="6.85244">
        <ele>861</ele>
        <time>2025-07-15T06:07:20Z</time>
      </trkpt>
      <trkpt lat="44.09328" lon="6.85248">
        <ele>860.2</ele>
        <time>2025-07-15T06:07:23Z</time>
      </trkpt>
      <trkpt lat="44.09318" lon="6.85248">
        <ele>860</ele>
        <time>2025-07-15T06:07:24Z</time>
      </trkpt>
      <trkpt lat="44.09308" lon="6.85246">
        <ele>859.4</ele>
        <time>2025-07-15T06:07:25Z</time>
      </trkpt>
      <trkpt lat="44.09299" lon="6.85242">
        <ele>859</ele>
        <time>2025-07-15T06:07:26Z</time>
      </trkpt>
      <trkpt lat="44.09289" lon="6.85237">
        <ele>858.4</ele>
        <time>2025-07-15T06:07:27Z</time>
      </trkpt>
      <trkpt lat="44.0928" lon="6.85231">
        <ele>858</ele>
        <time>2025-07-15T06:07:28Z</time>
      </trkpt>
      <trkpt lat="44.09261" lon="6.85221">
        <ele>857</ele>
        <time>2025-07-15T06:07:30Z</time>
      </trkpt>
      <trkpt lat="44.09254" lon="6.85219">
        <ele>856.8</ele>
        <time>2025-07-15T06:07:31Z</time>
      </trkpt>
      <trkpt lat="44.09245" lon="6.8522">
        <ele>856.2</ele>
        <time>2025-07-15T06:07:32Z</time>
      </trkpt>
      <trkpt lat="44.09235" lon="6.85223">
        <ele>855.6</ele>
        <time>2025-07-15T06:07:33Z</time>
      </trkpt>
      <trkpt lat="44.09225" lon="6.85227">
        <ele>855.2</ele>
        <time>2025-07-15T06:07:34Z</time>
      </trkpt>
      <trkpt lat="44.09215" lon="6.85232">
        <ele>854.2</ele>
        <time>2025-07-15T06:07:35Z</time>
      </trkpt>
      <trkpt lat="44.09184" lon="6.85247">
        <ele>853</ele>
        <time>2025-07-15T06:07:38Z</time>
      </trkpt>
      <trkpt lat="44.09165" lon="6.85256">
        <ele>851.4</ele>
        <time>2025-07-15T06:07:40Z</time>
      </trkpt>
      <trkpt lat="44.09148" lon="6.85264">
        <ele>850.6</ele>
        <time>2025-07-15T06:07:42Z</time>
      </trkpt>
      <trkpt lat="44.09137" lon="6.85269">
        <ele>850.2</ele>
        <time>2025-07-15T06:07:43Z</time>
      </trkpt>
      <trkpt lat="44.09104" lon="6.85284">
        <ele>849</ele>
        <time>2025-07-15T06:07:47Z</time>
      </trkpt>
      <trkpt lat="44.09096" lon="6.85289">
        <ele>849</ele>
        <time>2025-07-15T06:07:48Z</time>
      </trkpt>
      <trkpt lat="44.09065" lon="6.85307">
        <ele>848</ele>
        <time>2025-07-15T06:07:52Z</time>
      </trkpt>
      <trkpt lat="44.09052" lon="6.85313">
        <ele>847.4</ele>
        <time>2025-07-15T06:07:54Z</time>
      </trkpt>
      <trkpt lat="44.09034" lon="6.85321">
        <ele>846.6</ele>
        <time>2025-07-15T06:07:57Z</time>
      </trkpt>
      <trkpt lat="44.09016" lon="6.85329">
        <ele>846</ele>
        <time>2025-07-15T06:08:00Z</time>
      </trkpt>
      <trkpt lat="44.09012" lon="6.8533">
        <ele>845.4</ele>
        <time>2025-07-15T06:08:02Z</time>
      </trkpt>
      <trkpt lat="44.08997" lon="6.85333">
        <ele>845</ele>
        <time>2025-07-15T06:08:04Z</time>
      </trkpt>
      <trkpt lat="44.08993" lon="6.85333">
        <ele>844.8</ele>
        <time>2025-07-15T06:08:05Z</time>
      </trkpt>
      <trkpt lat="44.08984" lon="6.85336">
        <ele>844.8</ele>
        <time>2025-07-15T06:08:07Z</time>
      </trkpt>
      <trkpt lat="44.08977" lon="6.85336">
        <ele>844.8</ele>
        <time>2025-07-15T06:08:09Z</time>
      </trkpt>
      <trkpt lat="44.08974" lon="6.85335">
        <ele>844.8</ele>
        <time>2025-07-15T06:08:10Z</time>
      </trkpt>
      <trkpt lat="44.08958" lon="6.85343">
        <ele>844.8</ele>
        <time>2025-07-15T06:08:15Z</time>
      </trkpt>
      <trkpt lat="44.08946" lon="6.85347">
        <ele>845.2</ele>
        <time>2025-07-15T06:08:21Z</time>
      </trkpt>
      <trkpt lat="44.08944" lon="6.85346">
        <ele>845.2</ele>
        <time>2025-07-15T06:08:23Z</time>
      </trkpt>
      <trkpt lat="44.08944" lon="6.85346">
        <ele>845.2</ele>
        <time>2025-07-15T06:08:25Z</time>
      </trkpt>
      <trkpt lat="44.08944" lon="6.85346">
        <ele>845.2</ele>
        <time>2025-07-15T06:08:26Z</time>
      </trkpt>
      <trkpt lat="44.08915" lon="6.85366">
        <ele>846.8</ele>
        <time>2025-07-15T06:09:22Z</time>
      </trkpt>
      <trkpt lat="44.08913" lon="6.8537">
        <ele>846.8</ele>
        <time>2025-07-15T06:09:25Z</time>
      </trkpt>
      <trkpt lat="44.08912" lon="6.85372">
        <ele>846.8</ele>
        <time>2025-07-15T06:09:27Z</time>
      </trkpt>
      <trkpt lat="44.08909" lon="6.8538">
        <ele>847</ele>
        <time>2025-07-15T06:09:32Z</time>
      </trkpt>
      <trkpt lat="44.08906" lon="6.85382">
        <ele>847</ele>
        <time>2025-07-15T06:09:38Z</time>
      </trkpt>
      <trkpt lat="44.08903" lon="6.85408">
        <ele>849</ele>
        <time>2025-07-15T06:16:11Z</time>
      </trkpt>
      <trkpt lat="44.08906" lon="6.85418">
        <ele>849</ele>
        <time>2025-07-15T06:16:16Z</time>
      </trkpt>
      <trkpt lat="44.08915" lon="6.85435">
        <ele>849.4</ele>
        <time>2025-07-15T06:16:23Z</time>
      </trkpt>
      <trkpt lat="44.08923" lon="6.85455">
        <ele>849.6</ele>
        <time>2025-07-15T06:16:29Z</time>
      </trkpt>
      <trkpt lat="44.08929" lon="6.85467">
        <ele>850.2</ele>
        <time>2025-07-15T06:16:33Z</time>
      </trkpt>
      <trkpt lat="44.08934" lon="6.85479">
        <ele>850.8</ele>
        <time>2025-07-15T06:16:37Z</time>
      </trkpt>
      <trkpt lat="44.0894" lon="6.85491">
        <ele>851.4</ele>
        <time>2025-07-15T06:16:41Z</time>
      </trkpt>
      <trkpt lat="44.08947" lon="6.85506">
        <ele>852</ele>
        <time>2025-07-15T06:16:46Z</time>
      </trkpt>
      <trkpt lat="44.08949" lon="6.85511">
        <ele>852.4</ele>
        <time>2025-07-15T06:16:48Z</time>
      </trkpt>
      <trkpt lat="44.08955" lon="6.85527">
        <ele>853</ele>
        <time>2025-07-15T06:16:53Z</time>
      </trkpt>
      <trkpt lat="44.08963" lon="6.85548">
        <ele>853.6</ele>
        <time>2025-07-15T06:16:59Z</time>
      </trkpt>
      <trkpt lat="44.08964" lon="6.8555">
        <ele>853.8</ele>
        <time>2025-07-15T06:17:00Z</time>
      </trkpt>
      <trkpt lat="44.08974" lon="6.85568">
        <ele>854.4</ele>
        <time>2025-07-15T06:17:06Z</time>
      </trkpt>
      <trkpt lat="44.08978" lon="6.85577">
        <ele>854.8</ele>
        <time>2025-07-15T06:17:09Z</time>
      </trkpt>
      <trkpt lat="44.08987" lon="6.85596">
        <ele>855.6</ele>
        <time>2025-07-15T06:17:15Z</time>
      </trkpt>
      <trkpt lat="44.08989" lon="6.85599">
        <ele>855.8</ele>
        <time>2025-07-15T06:17:16Z</time>
      </trkpt>
      <trkpt lat="44.09" lon="6.85623">
        <ele>857.2</ele>
        <time>2025-07-15T06:17:24Z</time>
      </trkpt>
      <trkpt lat="44.09006" lon="6.85639">
        <ele>858</ele>
        <time>2025-07-15T06:17:29Z</time>
      </trkpt>
      <trkpt lat="44.09009" lon="6.85642">
        <ele>858.4</ele>
        <time>2025-07-15T06:17:31Z</time>
      </trkpt>
      <trkpt lat="44.09018" lon="6.85652">
        <ele>859</ele>
        <time>2025-07-15T06:17:36Z</time>
      </trkpt>
      <trkpt lat="44.09022" lon="6.85656">
        <ele>859.2</ele>
        <time>2025-07-15T06:17:38Z</time>
      </trkpt>
      <trkpt lat="44.09032" lon="6.85667">
        <ele>860.2</ele>
        <time>2025-07-15T06:17:44Z</time>
      </trkpt>
      <trkpt lat="44.09034" lon="6.85668">
        <ele>860.4</ele>
        <time>2025-07-15T06:17:45Z</time>
      </trkpt>
      <trkpt lat="44.09046" lon="6.85675">
        <ele>861</ele>
        <time>2025-07-15T06:17:50Z</time>
      </trkpt>
      <trkpt lat="44.09051" lon="6.85679">
        <ele>861.4</ele>
        <time>2025-07-15T06:17:52Z</time>
      </trkpt>
      <trkpt lat="44.09061" lon="6.8569">
        <ele>862.6</ele>
        <time>2025-07-15T06:17:57Z</time>
      </trkpt>
      <trkpt lat="44.09062" lon="6.85693">
        <ele>862.8</ele>
        <time>2025-07-15T06:17:58Z</time>
      </trkpt>
      <trkpt lat="44.09067" lon="6.85702">
        <ele>863.2</ele>
        <time>2025-07-15T06:18:01Z</time>
      </trkpt>
      <trkpt lat="44.09071" lon="6.85711">
        <ele>863.8</ele>
        <time>2025-07-15T06:18:04Z</time>
      </trkpt>
      <trkpt lat="44.09075" lon="6.85727">
        <ele>864.2</ele>
        <time>2025-07-15T06:18:08Z</time>
      </trkpt>
      <trkpt lat="44.09077" lon="6.85741">
        <ele>865</ele>
        <time>2025-07-15T06:18:12Z</time>
      </trkpt>
      <trkpt lat="44.0908" lon="6.85764">
        <ele>865.6</ele>
        <time>2025-07-15T06:18:19Z</time>
      </trkpt>
      <trkpt lat="44.09081" lon="6.85771">
        <ele>865.8</ele>
        <time>2025-07-15T06:18:21Z</time>
      </trkpt>
      <trkpt lat="44.09083" lon="6.85779">
        <ele>866.2</ele>
        <time>2025-07-15T06:18:24Z</time>
      </trkpt>
      <trkpt lat="44.09085" lon="6.85791">
        <ele>866.8</ele>
        <time>2025-07-15T06:18:28Z</time>
      </trkpt>
      <trkpt lat="44.09087" lon="6.85798">
        <ele>867.4</ele>
        <time>2025-07-15T06:18:31Z</time>
      </trkpt>
      <trkpt lat="44.09091" lon="6.85817">
        <ele>868.6</ele>
        <time>2025-07-15T06:18:41Z</time>
      </trkpt>
      <trkpt lat="44.09092" lon="6.85818">
        <ele>869</ele>
        <time>2025-07-15T06:18:43Z</time>
      </trkpt>
      <trkpt lat="44.09096" lon="6.8582">
        <ele>869.4</ele>
        <time>2025-07-15T06:18:45Z</time>
      </trkpt>
      <trkpt lat="44.09098" lon="6.85823">
        <ele>869.6</ele>
        <time>2025-07-15T06:18:46Z</time>
      </trkpt>
      <trkpt lat="44.091" lon="6.85826">
        <ele>869.8</ele>
        <time>2025-07-15T06:18:47Z</time>
      </trkpt>
      <trkpt lat="44.09103" lon="6.8583">
        <ele>870</ele>
        <time>2025-07-15T06:18:49Z</time>
      </trkpt>
      <trkpt lat="44.09106" lon="6.8583">
        <ele>870.2</ele>
        <time>2025-07-15T06:18:50Z</time>
      </trkpt>
      <trkpt lat="44.09125" lon="6.85875">
        <ele>871.8</ele>
        <time>2025-07-15T06:19:01Z</time>
      </trkpt>
      <trkpt lat="44.0913" lon="6.8588">
        <ele>872.2</ele>
        <time>2025-07-15T06:19:04Z</time>
      </trkpt>
      <trkpt lat="44.09135" lon="6.85893">
        <ele>872.8</ele>
        <time>2025-07-15T06:19:09Z</time>
      </trkpt>
      <trkpt lat="44.09136" lon="6.85906">
        <ele>873.4</ele>
        <time>2025-07-15T06:19:14Z</time>
      </trkpt>
      <trkpt lat="44.09137" lon="6.85908">
        <ele>873.4</ele>
        <time>2025-07-15T06:19:15Z</time>
      </trkpt>
      <trkpt lat="44.09138" lon="6.85916">
        <ele>873.6</ele>
        <time>2025-07-15T06:19:18Z</time>
      </trkpt>
      <trkpt lat="44.09139" lon="6.85921">
        <ele>873.8</ele>
        <time>2025-07-15T06:19:20Z</time>
      </trkpt>
      <trkpt lat="44.09139" lon="6.85924">
        <ele>874.2</ele>
        <time>2025-07-15T06:19:21Z</time>
      </trkpt>
      <trkpt lat="44.09139" lon="6.8593">
        <ele>874.4</ele>
        <time>2025-07-15T06:19:23Z</time>
      </trkpt>
      <trkpt lat="44.0914" lon="6.85939">
        <ele>874.8</ele>
        <time>2025-07-15T06:19:26Z</time>
      </trkpt>
      <trkpt lat="44.09142" lon="6.85952">
        <ele>875.8</ele>
        <time>2025-07-15T06:19:31Z</time>
      </trkpt>
      <trkpt lat="44.09142" lon="6.85957">
        <ele>876.2</ele>
        <time>2025-07-15T06:19:33Z</time>
      </trkpt>
      <trkpt lat="44.09143" lon="6.85969">
        <ele>877</ele>
        <time>2025-07-15T06:19:37Z</time>
      </trkpt>
      <trkpt lat="44.09143" lon="6.85977">
        <ele>877.6</ele>
        <time>2025-07-15T06:19:40Z</time>
      </trkpt>
      <trkpt lat="44.09142" lon="6.85985">
        <ele>878</ele>
        <time>2025-07-15T06:19:43Z</time>
      </trkpt>
      <trkpt lat="44.09143" lon="6.85988">
        <ele>878</ele>
        <time>2025-07-15T06:19:44Z</time>
      </trkpt>
      <trkpt lat="44.09143" lon="6.85993">
        <ele>878.4</ele>
        <time>2025-07-15T06:19:46Z</time>
      </trkpt>
      <trkpt lat="44.09141" lon="6.86005">
        <ele>879</ele>
        <time>2025-07-15T06:19:50Z</time>
      </trkpt>
      <trkpt lat="44.09138" lon="6.86017">
        <ele>879.6</ele>
        <time>2025-07-15T06:19:54Z</time>
      </trkpt>
      <trkpt lat="44.09135" lon="6.86027">
        <ele>880.2</ele>
        <time>2025-07-15T06:19:58Z</time>
      </trkpt>
      <trkpt lat="44.09135" lon="6.8603">
        <ele>880.4</ele>
        <time>2025-07-15T06:19:59Z</time>
      </trkpt>
      <trkpt lat="44.09134" lon="6.86037">
        <ele>880.6</ele>
        <time>2025-07-15T06:20:01Z</time>
      </trkpt>
      <trkpt lat="44.09131" lon="6.86045">
        <ele>881.2</ele>
        <time>2025-07-15T06:20:04Z</time>
      </trkpt>
      <trkpt lat="44.09129" lon="6.86055">
        <ele>881.8</ele>
        <time>2025-07-15T06:20:08Z</time>
      </trkpt>
      <trkpt lat="44.09126" lon="6.86068">
        <ele>882.4</ele>
        <time>2025-07-15T06:20:13Z</time>
      </trkpt>
      <trkpt lat="44.09128" lon="6.86075">
        <ele>883</ele>
        <time>2025-07-15T06:20:16Z</time>
      </trkpt>
      <trkpt lat="44.09128" lon="6.86089">
        <ele>883.6</ele>
        <time>2025-07-15T06:20:21Z</time>
      </trkpt>
      <trkpt lat="44.09129" lon="6.86092">
        <ele>883.8</ele>
        <time>2025-07-15T06:20:22Z</time>
      </trkpt>
      <trkpt lat="44.09132" lon="6.86112">
        <ele>884.6</ele>
        <time>2025-07-15T06:20:29Z</time>
      </trkpt>
      <trkpt lat="44.09132" lon="6.86114">
        <ele>884.8</ele>
        <time>2025-07-15T06:20:30Z</time>
      </trkpt>
      <trkpt lat="44.09133" lon="6.86122">
        <ele>885.4</ele>
        <time>2025-07-15T06:20:33Z</time>
      </trkpt>
      <trkpt lat="44.09133" lon="6.86134">
        <ele>886</ele>
        <time>2025-07-15T06:20:37Z</time>
      </trkpt>
      <trkpt lat="44.09132" lon="6.8614">
        <ele>886</ele>
        <time>2025-07-15T06:20:39Z</time>
      </trkpt>
      <trkpt lat="44.0913" lon="6.86155">
        <ele>886.8</ele>
        <time>2025-07-15T06:20:44Z</time>
      </trkpt>
      <trkpt lat="44.09127" lon="6.86167">
        <ele>887.8</ele>
        <time>2025-07-15T06:20:48Z</time>
      </trkpt>
      <trkpt lat="44.09126" lon="6.8617">
        <ele>888.2</ele>
        <time>2025-07-15T06:20:49Z</time>
      </trkpt>
      <trkpt lat="44.0912" lon="6.86191">
        <ele>889.2</ele>
        <time>2025-07-15T06:20:57Z</time>
      </trkpt>
      <trkpt lat="44.09118" lon="6.8621">
        <ele>890</ele>
        <time>2025-07-15T06:21:03Z</time>
      </trkpt>
      <trkpt lat="44.09119" lon="6.86213">
        <ele>890.2</ele>
        <time>2025-07-15T06:21:04Z</time>
      </trkpt>
      <trkpt lat="44.09119" lon="6.86234">
        <ele>891.4</ele>
        <time>2025-07-15T06:21:11Z</time>
      </trkpt>
      <trkpt lat="44.0912" lon="6.86236">
        <ele>891.4</ele>
        <time>2025-07-15T06:21:12Z</time>
      </trkpt>
      <trkpt lat="44.09122" lon="6.86255">
        <ele>892.4</ele>
        <time>2025-07-15T06:21:18Z</time>
      </trkpt>
      <trkpt lat="44.09122" lon="6.86261">
        <ele>892.6</ele>
        <time>2025-07-15T06:21:20Z</time>
      </trkpt>
      <trkpt lat="44.09124" lon="6.8628">
        <ele>893.6</ele>
        <time>2025-07-15T06:21:27Z</time>
      </trkpt>
      <trkpt lat="44.09124" lon="6.86283">
        <ele>893.8</ele>
        <time>2025-07-15T06:21:28Z</time>
      </trkpt>
      <trkpt lat="44.09123" lon="6.863">
        <ele>894.8</ele>
        <time>2025-07-15T06:21:34Z</time>
      </trkpt>
      <trkpt lat="44.09122" lon="6.86311">
        <ele>895.4</ele>
        <time>2025-07-15T06:21:38Z</time>
      </trkpt>
      <trkpt lat="44.09122" lon="6.86323">
        <ele>896</ele>
        <time>2025-07-15T06:21:42Z</time>
      </trkpt>
      <trkpt lat="44.0912" lon="6.86336">
        <ele>896.6</ele>
        <time>2025-07-15T06:21:47Z</time>
      </trkpt>
      <trkpt lat="44.0912" lon="6.86346">
        <ele>897</ele>
        <time>2025-07-15T06:21:50Z</time>
      </trkpt>
      <trkpt lat="44.09118" lon="6.86368">
        <ele>898</ele>
        <time>2025-07-15T06:21:58Z</time>
      </trkpt>
      <trkpt lat="44.09118" lon="6.86371">
        <ele>898.2</ele>
        <time>2025-07-15T06:21:59Z</time>
      </trkpt>
      <trkpt lat="44.09118" lon="6.86385">
        <ele>899.2</ele>
        <time>2025-07-15T06:22:04Z</time>
      </trkpt>
      <trkpt lat="44.0912" lon="6.86391">
        <ele>899.4</ele>
        <time>2025-07-15T06:22:06Z</time>
      </trkpt>
      <trkpt lat="44.09128" lon="6.86408">
        <ele>900.2</ele>
        <time>2025-07-15T06:22:13Z</time>
      </trkpt>
      <trkpt lat="44.09145" lon="6.86426">
        <ele>901.6</ele>
        <time>2025-07-15T06:22:22Z</time>
      </trkpt>
      <trkpt lat="44.0916" lon="6.86437">
        <ele>902.6</ele>
        <time>2025-07-15T06:22:29Z</time>
      </trkpt>
      <trkpt lat="44.09165" lon="6.86441">
        <ele>903</ele>
        <time>2025-07-15T06:22:32Z</time>
      </trkpt>
      <trkpt lat="44.09174" lon="6.86447">
        <ele>903.8</ele>
        <time>2025-07-15T06:22:37Z</time>
      </trkpt>
      <trkpt lat="44.09183" lon="6.86454">
        <ele>904.2</ele>
        <time>2025-07-15T06:22:41Z</time>
      </trkpt>
      <trkpt lat="44.09192" lon="6.86463">
        <ele>904.8</ele>
        <time>2025-07-15T06:22:46Z</time>
      </trkpt>
      <trkpt lat="44.092" lon="6.86471">
        <ele>905.2</ele>
        <time>2025-07-15T06:22:50Z</time>
      </trkpt>
      <trkpt lat="44.09209" lon="6.86483">
        <ele>905.6</ele>
        <time>2025-07-15T06:22:55Z</time>
      </trkpt>
      <trkpt lat="44.09212" lon="6.86484">
        <ele>905.8</ele>
        <time>2025-07-15T06:22:56Z</time>
      </trkpt>
      <trkpt lat="44.09214" lon="6.86486">
        <ele>906</ele>
        <time>2025-07-15T06:22:57Z</time>
      </trkpt>
      <trkpt lat="44.09226" lon="6.86499">
        <ele>906.6</ele>
        <time>2025-07-15T06:23:03Z</time>
      </trkpt>
      <trkpt lat="44.09231" lon="6.86507">
        <ele>907</ele>
        <time>2025-07-15T06:23:06Z</time>
      </trkpt>
      <trkpt lat="44.09236" lon="6.86514">
        <ele>907.2</ele>
        <time>2025-07-15T06:23:09Z</time>
      </trkpt>
      <trkpt lat="44.09238" lon="6.86517">
        <ele>907.6</ele>
        <time>2025-07-15T06:23:10Z</time>
      </trkpt>
      <trkpt lat="44.09248" lon="6.86527">
        <ele>908</ele>
        <time>2025-07-15T06:23:15Z</time>
      </trkpt>
      <trkpt lat="44.09252" lon="6.8653">
        <ele>908.2</ele>
        <time>2025-07-15T06:23:17Z</time>
      </trkpt>
      <trkpt lat="44.0927" lon="6.86549">
        <ele>909.2</ele>
        <time>2025-07-15T06:23:25Z</time>
      </trkpt>
      <trkpt lat="44.09277" lon="6.86555">
        <ele>909.4</ele>
        <time>2025-07-15T06:23:28Z</time>
      </trkpt>
      <trkpt lat="44.09294" lon="6.8657">
        <ele>910.4</ele>
        <time>2025-07-15T06:23:36Z</time>
      </trkpt>
      <trkpt lat="44.09296" lon="6.86571">
        <ele>910.4</ele>
        <time>2025-07-15T06:23:37Z</time>
      </trkpt>
      <trkpt lat="44.09307" lon="6.86573">
        <ele>911.4</ele>
        <time>2025-07-15T06:23:41Z</time>
      </trkpt>
      <trkpt lat="44.09317" lon="6.86574">
        <ele>912.2</ele>
        <time>2025-07-15T06:23:45Z</time>
      </trkpt>
      <trkpt lat="44.09325" lon="6.86577">
        <ele>912.8</ele>
        <time>2025-07-15T06:23:48Z</time>
      </trkpt>
      <trkpt lat="44.09335" lon="6.86583">
        <ele>913</ele>
        <time>2025-07-15T06:23:52Z</time>
      </trkpt>
      <trkpt lat="44.09344" lon="6.866">
        <ele>913.8</ele>
        <time>2025-07-15T06:23:58Z</time>
      </trkpt>
      <trkpt lat="44.09346" lon="6.86604">
        <ele>913.8</ele>
        <time>2025-07-15T06:23:59Z</time>
      </trkpt>
      <trkpt lat="44.09347" lon="6.86636">
        <ele>914.4</ele>
        <time>2025-07-15T06:24:07Z</time>
      </trkpt>
      <trkpt lat="44.09347" lon="6.86647">
        <ele>914.8</ele>
        <time>2025-07-15T06:24:10Z</time>
      </trkpt>
      <trkpt lat="44.09345" lon="6.86663">
        <ele>915.6</ele>
        <time>2025-07-15T06:24:15Z</time>
      </trkpt>
      <trkpt lat="44.09344" lon="6.8667">
        <ele>915.8</ele>
        <time>2025-07-15T06:24:17Z</time>
      </trkpt>
      <trkpt lat="44.09342" lon="6.86685">
        <ele>916.6</ele>
        <time>2025-07-15T06:24:22Z</time>
      </trkpt>
      <trkpt lat="44.09341" lon="6.86691">
        <ele>917</ele>
        <time>2025-07-15T06:24:24Z</time>
      </trkpt>
      <trkpt lat="44.09338" lon="6.86708">
        <ele>918</ele>
        <time>2025-07-15T06:24:30Z</time>
      </trkpt>
      <trkpt lat="44.09338" lon="6.86711">
        <ele>918.2</ele>
        <time>2025-07-15T06:24:31Z</time>
      </trkpt>
      <trkpt lat="44.0934" lon="6.86728">
        <ele>919.2</ele>
        <time>2025-07-15T06:24:37Z</time>
      </trkpt>
      <trkpt lat="44.09343" lon="6.86746">
        <ele>920.4</ele>
        <time>2025-07-15T06:24:44Z</time>
      </trkpt>
      <trkpt lat="44.09347" lon="6.86759">
        <ele>921.2</ele>
        <time>2025-07-15T06:24:49Z</time>
      </trkpt>
      <trkpt lat="44.09347" lon="6.86761">
        <ele>921.4</ele>
        <time>2025-07-15T06:24:50Z</time>
      </trkpt>
      <trkpt lat="44.09349" lon="6.86768">
        <ele>922.2</ele>
        <time>2025-07-15T06:24:53Z</time>
      </trkpt>
      <trkpt lat="44.0935" lon="6.86773">
        <ele>922.6</ele>
        <time>2025-07-15T06:24:55Z</time>
      </trkpt>
      <trkpt lat="44.09353" lon="6.86783">
        <ele>923.8</ele>
        <time>2025-07-15T06:24:59Z</time>
      </trkpt>
      <trkpt lat="44.09357" lon="6.86795">
        <ele>924.8</ele>
        <time>2025-07-15T06:25:04Z</time>
      </trkpt>
      <trkpt lat="44.09359" lon="6.868">
        <ele>925</ele>
        <time>2025-07-15T06:25:06Z</time>
      </trkpt>
      <trkpt lat="44.09363" lon="6.86813">
        <ele>925.8</ele>
        <time>2025-07-15T06:25:11Z</time>
      </trkpt>
      <trkpt lat="44.09366" lon="6.86824">
        <ele>926.8</ele>
        <time>2025-07-15T06:25:15Z</time>
      </trkpt>
      <trkpt lat="44.09368" lon="6.86834">
        <ele>928.2</ele>
        <time>2025-07-15T06:25:19Z</time>
      </trkpt>
      <trkpt lat="44.09371" lon="6.86842">
        <ele>928.4</ele>
        <time>2025-07-15T06:25:22Z</time>
      </trkpt>
      <trkpt lat="44.09372" lon="6.86849">
        <ele>929.2</ele>
        <time>2025-07-15T06:25:25Z</time>
      </trkpt>
      <trkpt lat="44.09375" lon="6.86859">
        <ele>930</ele>
        <time>2025-07-15T06:25:29Z</time>
      </trkpt>
      <trkpt lat="44.09378" lon="6.86863">
        <ele>930.4</ele>
        <time>2025-07-15T06:25:31Z</time>
      </trkpt>
      <trkpt lat="44.09382" lon="6.86876">
        <ele>931</ele>
        <time>2025-07-15T06:25:37Z</time>
      </trkpt>
      <trkpt lat="44.09383" lon="6.86884">
        <ele>931.6</ele>
        <time>2025-07-15T06:25:40Z</time>
      </trkpt>
      <trkpt lat="44.09384" lon="6.86901">
        <ele>932.2</ele>
        <time>2025-07-15T06:25:46Z</time>
      </trkpt>
      <trkpt lat="44.09385" lon="6.86912">
        <ele>932.6</ele>
        <time>2025-07-15T06:25:50Z</time>
      </trkpt>
      <trkpt lat="44.09385" lon="6.86922">
        <ele>933.2</ele>
        <time>2025-07-15T06:25:54Z</time>
      </trkpt>
      <trkpt lat="44.09384" lon="6.86932">
        <ele>933.8</ele>
        <time>2025-07-15T06:25:57Z</time>
      </trkpt>
      <trkpt lat="44.09385" lon="6.86945">
        <ele>934.8</ele>
        <time>2025-07-15T06:26:02Z</time>
      </trkpt>
      <trkpt lat="44.09386" lon="6.8695">
        <ele>935</ele>
        <time>2025-07-15T06:26:04Z</time>
      </trkpt>
      <trkpt lat="44.09388" lon="6.86968">
        <ele>936</ele>
        <time>2025-07-15T06:26:11Z</time>
      </trkpt>
      <trkpt lat="44.09392" lon="6.86989">
        <ele>937.2</ele>
        <time>2025-07-15T06:26:19Z</time>
      </trkpt>
      <trkpt lat="44.09393" lon="6.86992">
        <ele>937.4</ele>
        <time>2025-07-15T06:26:20Z</time>
      </trkpt>
      <trkpt lat="44.09397" lon="6.87009">
        <ele>938.2</ele>
        <time>2025-07-15T06:26:27Z</time>
      </trkpt>
      <trkpt lat="44.09398" lon="6.87015">
        <ele>938.6</ele>
        <time>2025-07-15T06:26:30Z</time>
      </trkpt>
      <trkpt lat="44.09398" lon="6.87023">
        <ele>939.4</ele>
        <time>2025-07-15T06:26:33Z</time>
      </trkpt>
      <trkpt lat="44.09397" lon="6.87033">
        <ele>940</ele>
        <time>2025-07-15T06:26:37Z</time>
      </trkpt>
      <trkpt lat="44.09397" lon="6.8704">
        <ele>940.4</ele>
        <time>2025-07-15T06:26:40Z</time>
      </trkpt>
      <trkpt lat="44.09397" lon="6.87052">
        <ele>941.6</ele>
        <time>2025-07-15T06:26:45Z</time>
      </trkpt>
      <trkpt lat="44.09397" lon="6.87055">
        <ele>941.8</ele>
        <time>2025-07-15T06:26:46Z</time>
      </trkpt>
      <trkpt lat="44.09397" lon="6.8707">
        <ele>942.8</ele>
        <time>2025-07-15T06:26:52Z</time>
      </trkpt>
      <trkpt lat="44.09397" lon="6.87077">
        <ele>943.2</ele>
        <time>2025-07-15T06:26:55Z</time>
      </trkpt>
      <trkpt lat="44.09397" lon="6.87084">
        <ele>943.8</ele>
        <time>2025-07-15T06:26:58Z</time>
      </trkpt>
      <trkpt lat="44.09397" lon="6.87089">
        <ele>944.2</ele>
        <time>2025-07-15T06:27:00Z</time>
      </trkpt>
      <trkpt lat="44.09398" lon="6.87097">
        <ele>944.8</ele>
        <time>2025-07-15T06:27:03Z</time>
      </trkpt>
      <trkpt lat="44.09398" lon="6.87099">
        <ele>945</ele>
        <time>2025-07-15T06:27:04Z</time>
      </trkpt>
      <trkpt lat="44.09397" lon="6.87112">
        <ele>946.2</ele>
        <time>2025-07-15T06:27:09Z</time>
      </trkpt>
      <trkpt lat="44.09397" lon="6.87117">
        <ele>946.4</ele>
        <time>2025-07-15T06:27:11Z</time>
      </trkpt>
      <trkpt lat="44.09397" lon="6.87127">
        <ele>947.2</ele>
        <time>2025-07-15T06:27:15Z</time>
      </trkpt>
      <trkpt lat="44.09396" lon="6.87139">
        <ele>948</ele>
        <time>2025-07-15T06:27:20Z</time>
      </trkpt>
      <trkpt lat="44.09395" lon="6.87141">
        <ele>948.2</ele>
        <time>2025-07-15T06:27:21Z</time>
      </trkpt>
      <trkpt lat="44.09392" lon="6.87152">
        <ele>949.4</ele>
        <time>2025-07-15T06:27:26Z</time>
      </trkpt>
      <trkpt lat="44.09391" lon="6.87154">
        <ele>949.6</ele>
        <time>2025-07-15T06:27:27Z</time>
      </trkpt>
      <trkpt lat="44.0939" lon="6.87156">
        <ele>949.8</ele>
        <time>2025-07-15T06:27:28Z</time>
      </trkpt>
      <trkpt lat="44.09387" lon="6.87164">
        <ele>950.4</ele>
        <time>2025-07-15T06:27:32Z</time>
      </trkpt>
      <trkpt lat="44.09384" lon="6.87168">
        <ele>950.8</ele>
        <time>2025-07-15T06:27:34Z</time>
      </trkpt>
      <trkpt lat="44.0938" lon="6.87177">
        <ele>951.4</ele>
        <time>2025-07-15T06:27:39Z</time>
      </trkpt>
      <trkpt lat="44.09377" lon="6.87185">
        <ele>952</ele>
        <time>2025-07-15T06:27:42Z</time>
      </trkpt>
      <trkpt lat="44.09374" lon="6.87197">
        <ele>952.4</ele>
        <time>2025-07-15T06:27:47Z</time>
      </trkpt>
      <trkpt lat="44.09373" lon="6.87204">
        <ele>952.8</ele>
        <time>2025-07-15T06:27:50Z</time>
      </trkpt>
      <trkpt lat="44.09372" lon="6.87208">
        <ele>953</ele>
        <time>2025-07-15T06:27:52Z</time>
      </trkpt>
      <trkpt lat="44.09372" lon="6.8721">
        <ele>953.2</ele>
        <time>2025-07-15T06:27:53Z</time>
      </trkpt>
      <trkpt lat="44.09369" lon="6.87211">
        <ele>953.6</ele>
        <time>2025-07-15T06:27:56Z</time>
      </trkpt>
      <trkpt lat="44.09382" lon="6.87389">
        <ele>953.8</ele>
        <time>2025-07-15T06:28:25Z</time>
      </trkpt>
      <trkpt lat="44.09386" lon="6.87394">
        <ele>953.8</ele>
        <time>2025-07-15T06:28:27Z</time>
      </trkpt>
      <trkpt lat="44.09391" lon="6.87408">
        <ele>954.2</ele>
        <time>2025-07-15T06:28:32Z</time>
      </trkpt>
      <trkpt lat="44.09392" lon="6.87411">
        <ele>954.4</ele>
        <time>2025-07-15T06:28:33Z</time>
      </trkpt>
      <trkpt lat="44.09399" lon="6.87428">
        <ele>955.4</ele>
        <time>2025-07-15T06:28:39Z</time>
      </trkpt>
      <trkpt lat="44.09402" lon="6.87434">
        <ele>955.6</ele>
        <time>2025-07-15T06:28:41Z</time>
      </trkpt>
      <trkpt lat="44.09407" lon="6.87444">
        <ele>956.2</ele>
        <time>2025-07-15T06:28:45Z</time>
      </trkpt>
      <trkpt lat="44.0941" lon="6.8745">
        <ele>956.4</ele>
        <time>2025-07-15T06:28:47Z</time>
      </trkpt>
      <trkpt lat="44.09419" lon="6.87462">
        <ele>957.6</ele>
        <time>2025-07-15T06:28:53Z</time>
      </trkpt>
      <trkpt lat="44.0942" lon="6.87465">
        <ele>957.6</ele>
        <time>2025-07-15T06:28:54Z</time>
      </trkpt>
      <trkpt lat="44.09427" lon="6.87478">
        <ele>958.4</ele>
        <time>2025-07-15T06:29:00Z</time>
      </trkpt>
      <trkpt lat="44.09429" lon="6.87483">
        <ele>958.8</ele>
        <time>2025-07-15T06:29:02Z</time>
      </trkpt>
      <trkpt lat="44.09431" lon="6.87498">
        <ele>959.4</ele>
        <time>2025-07-15T06:29:07Z</time>
      </trkpt>
      <trkpt lat="44.09432" lon="6.87504">
        <ele>959.8</ele>
        <time>2025-07-15T06:29:09Z</time>
      </trkpt>
      <trkpt lat="44.09433" lon="6.87519">
        <ele>960.8</ele>
        <time>2025-07-15T06:29:14Z</time>
      </trkpt>
      <trkpt lat="44.09436" lon="6.87533">
        <ele>962</ele>
        <time>2025-07-15T06:29:19Z</time>
      </trkpt>
      <trkpt lat="44.09437" lon="6.87536">
        <ele>962</ele>
        <time>2025-07-15T06:29:20Z</time>
      </trkpt>
      <trkpt lat="44.0944" lon="6.87555">
        <ele>962.8</ele>
        <time>2025-07-15T06:29:26Z</time>
      </trkpt>
      <trkpt lat="44.09441" lon="6.8756">
        <ele>963</ele>
        <time>2025-07-15T06:29:28Z</time>
      </trkpt>
      <trkpt lat="44.09444" lon="6.87571">
        <ele>963.6</ele>
        <time>2025-07-15T06:29:32Z</time>
      </trkpt>
      <trkpt lat="44.09448" lon="6.87577">
        <ele>964.6</ele>
        <time>2025-07-15T06:29:35Z</time>
      </trkpt>
      <trkpt lat="44.09454" lon="6.87584">
        <ele>965.4</ele>
        <time>2025-07-15T06:29:39Z</time>
      </trkpt>
      <trkpt lat="44.09456" lon="6.87585">
        <ele>965.8</ele>
        <time>2025-07-15T06:29:40Z</time>
      </trkpt>
      <trkpt lat="44.09465" lon="6.8759">
        <ele>966.2</ele>
        <time>2025-07-15T06:29:44Z</time>
      </trkpt>
      <trkpt lat="44.09472" lon="6.87591">
        <ele>967</ele>
        <time>2025-07-15T06:29:47Z</time>
      </trkpt>
      <trkpt lat="44.09486" lon="6.87593">
        <ele>967.8</ele>
        <time>2025-07-15T06:29:53Z</time>
      </trkpt>
      <trkpt lat="44.09492" lon="6.87594">
        <ele>968</ele>
        <time>2025-07-15T06:29:55Z</time>
      </trkpt>
      <trkpt lat="44.09509" lon="6.876">
        <ele>968.4</ele>
        <time>2025-07-15T06:30:01Z</time>
      </trkpt>
      <trkpt lat="44.09528" lon="6.87611">
        <ele>969</ele>
        <time>2025-07-15T06:30:07Z</time>
      </trkpt>
      <trkpt lat="44.09531" lon="6.87612">
        <ele>969</ele>
        <time>2025-07-15T06:30:08Z</time>
      </trkpt>
      <trkpt lat="44.0955" lon="6.87626">
        <ele>969.6</ele>
        <time>2025-07-15T06:30:14Z</time>
      </trkpt>
      <trkpt lat="44.0956" lon="6.8764">
        <ele>970.2</ele>
        <time>2025-07-15T06:30:18Z</time>
      </trkpt>
      <trkpt lat="44.09565" lon="6.87653">
        <ele>970.4</ele>
        <time>2025-07-15T06:30:21Z</time>
      </trkpt>
      <trkpt lat="44.09578" lon="6.87687">
        <ele>971</ele>
        <time>2025-07-15T06:30:29Z</time>
      </trkpt>
      <trkpt lat="44.09581" lon="6.87701">
        <ele>971.2</ele>
        <time>2025-07-15T06:30:32Z</time>
      </trkpt>
      <trkpt lat="44.09588" lon="6.87727">
        <ele>971.6</ele>
        <time>2025-07-15T06:30:38Z</time>
      </trkpt>
      <trkpt lat="44.09592" lon="6.87745">
        <ele>972.2</ele>
        <time>2025-07-15T06:30:42Z</time>
      </trkpt>
      <trkpt lat="44.09599" lon="6.87772">
        <ele>973.4</ele>
        <time>2025-07-15T06:30:48Z</time>
      </trkpt>
      <trkpt lat="44.096" lon="6.87776">
        <ele>973.6</ele>
        <time>2025-07-15T06:30:49Z</time>
      </trkpt>
      <trkpt lat="44.09603" lon="6.8779">
        <ele>974</ele>
        <time>2025-07-15T06:30:52Z</time>
      </trkpt>
      <trkpt lat="44.09608" lon="6.87807">
        <ele>974.4</ele>
        <time>2025-07-15T06:30:56Z</time>
      </trkpt>
      <trkpt lat="44.09612" lon="6.87819">
        <ele>974.8</ele>
        <time>2025-07-15T06:30:59Z</time>
      </trkpt>
      <trkpt lat="44.09619" lon="6.87841">
        <ele>975.6</ele>
        <time>2025-07-15T06:31:04Z</time>
      </trkpt>
      <trkpt lat="44.09624" lon="6.87858">
        <ele>976.2</ele>
        <time>2025-07-15T06:31:08Z</time>
      </trkpt>
      <trkpt lat="44.09628" lon="6.87871">
        <ele>976.8</ele>
        <time>2025-07-15T06:31:11Z</time>
      </trkpt>
      <trkpt lat="44.09635" lon="6.87892">
        <ele>977.4</ele>
        <time>2025-07-15T06:31:16Z</time>
      </trkpt>
      <trkpt lat="44.09641" lon="6.87908">
        <ele>977.8</ele>
        <time>2025-07-15T06:31:20Z</time>
      </trkpt>
      <trkpt lat="44.09646" lon="6.87921">
        <ele>978.4</ele>
        <time>2025-07-15T06:31:24Z</time>
      </trkpt>
      <trkpt lat="44.09651" lon="6.87933">
        <ele>979</ele>
        <time>2025-07-15T06:31:28Z</time>
      </trkpt>
      <trkpt lat="44.09654" lon="6.87938">
        <ele>979.4</ele>
        <time>2025-07-15T06:31:30Z</time>
      </trkpt>
      <trkpt lat="44.09659" lon="6.87948">
        <ele>980.2</ele>
        <time>2025-07-15T06:31:34Z</time>
      </trkpt>
      <trkpt lat="44.09666" lon="6.87961">
        <ele>981</ele>
        <time>2025-07-15T06:31:39Z</time>
      </trkpt>
      <trkpt lat="44.09668" lon="6.87966">
        <ele>981.2</ele>
        <time>2025-07-15T06:31:41Z</time>
      </trkpt>
      <trkpt lat="44.09673" lon="6.8798">
        <ele>982.4</ele>
        <time>2025-07-15T06:31:46Z</time>
      </trkpt>
      <trkpt lat="44.09674" lon="6.87982">
        <ele>982.6</ele>
        <time>2025-07-15T06:31:47Z</time>
      </trkpt>
      <trkpt lat="44.0968" lon="6.87996">
        <ele>983.4</ele>
        <time>2025-07-15T06:31:52Z</time>
      </trkpt>
      <trkpt lat="44.09683" lon="6.88002">
        <ele>984</ele>
        <time>2025-07-15T06:31:54Z</time>
      </trkpt>
      <trkpt lat="44.09689" lon="6.88011">
        <ele>984.6</ele>
        <time>2025-07-15T06:31:58Z</time>
      </trkpt>
      <trkpt lat="44.09693" lon="6.88019">
        <ele>985</ele>
        <time>2025-07-15T06:32:01Z</time>
      </trkpt>
      <trkpt lat="44.09695" lon="6.88028">
        <ele>985.8</ele>
        <time>2025-07-15T06:32:04Z</time>
      </trkpt>
      <trkpt lat="44.09696" lon="6.8804">
        <ele>987</ele>
        <time>2025-07-15T06:32:08Z</time>
      </trkpt>
      <trkpt lat="44.09696" lon="6.88042">
        <ele>987.2</ele>
        <time>2025-07-15T06:32:09Z</time>
      </trkpt>
      <trkpt lat="44.09699" lon="6.88054">
        <ele>988</ele>
        <time>2025-07-15T06:32:13Z</time>
      </trkpt>
      <trkpt lat="44.097" lon="6.88057">
        <ele>988.4</ele>
        <time>2025-07-15T06:32:14Z</time>
      </trkpt>
      <trkpt lat="44.09702" lon="6.88062">
        <ele>988.6</ele>
        <time>2025-07-15T06:32:16Z</time>
      </trkpt>
      <trkpt lat="44.09705" lon="6.88071">
        <ele>989.2</ele>
        <time>2025-07-15T06:32:19Z</time>
      </trkpt>
      <trkpt lat="44.09711" lon="6.88088">
        <ele>990.2</ele>
        <time>2025-07-15T06:32:25Z</time>
      </trkpt>
      <trkpt lat="44.09711" lon="6.8809">
        <ele>990.4</ele>
        <time>2025-07-15T06:32:26Z</time>
      </trkpt>
      <trkpt lat="44.09716" lon="6.88111">
        <ele>991.6</ele>
        <time>2025-07-15T06:32:33Z</time>
      </trkpt>
      <trkpt lat="44.09717" lon="6.88117">
        <ele>991.8</ele>
        <time>2025-07-15T06:32:35Z</time>
      </trkpt>
      <trkpt lat="44.09719" lon="6.88132">
        <ele>992.6</ele>
        <time>2025-07-15T06:32:40Z</time>
      </trkpt>
      <trkpt lat="44.0972" lon="6.88139">
        <ele>992.8</ele>
        <time>2025-07-15T06:32:42Z</time>
      </trkpt>
      <trkpt lat="44.0972" lon="6.88157">
        <ele>993.6</ele>
        <time>2025-07-15T06:32:48Z</time>
      </trkpt>
      <trkpt lat="44.09722" lon="6.88166">
        <ele>994</ele>
        <time>2025-07-15T06:32:51Z</time>
      </trkpt>
      <trkpt lat="44.09722" lon="6.88178">
        <ele>994.8</ele>
        <time>2025-07-15T06:32:55Z</time>
      </trkpt>
      <trkpt lat="44.09723" lon="6.88188">
        <ele>995.2</ele>
        <time>2025-07-15T06:32:58Z</time>
      </trkpt>
      <trkpt lat="44.09724" lon="6.882">
        <ele>996</ele>
        <time>2025-07-15T06:33:02Z</time>
      </trkpt>
      <trkpt lat="44.09726" lon="6.88216">
        <ele>997</ele>
        <time>2025-07-15T06:33:07Z</time>
      </trkpt>
      <trkpt lat="44.09729" lon="6.88228">
        <ele>997.8</ele>
        <time>2025-07-15T06:33:11Z</time>
      </trkpt>
      <trkpt lat="44.09732" lon="6.88236">
        <ele>998.4</ele>
        <time>2025-07-15T06:33:14Z</time>
      </trkpt>
      <trkpt lat="44.09737" lon="6.88254">
        <ele>999.4</ele>
        <time>2025-07-15T06:33:20Z</time>
      </trkpt>
      <trkpt lat="44.09738" lon="6.88264">
        <ele>1000</ele>
        <time>2025-07-15T06:33:23Z</time>
      </trkpt>
      <trkpt lat="44.09738" lon="6.88271">
        <ele>1000.2</ele>
        <time>2025-07-15T06:33:25Z</time>
      </trkpt>
      <trkpt lat="44.09737" lon="6.88274">
        <ele>1000.6</ele>
        <time>2025-07-15T06:33:26Z</time>
      </trkpt>
      <trkpt lat="44.09735" lon="6.88291">
        <ele>1001.8</ele>
        <time>2025-07-15T06:33:32Z</time>
      </trkpt>
      <trkpt lat="44.09732" lon="6.88312">
        <ele>1003</ele>
        <time>2025-07-15T06:33:39Z</time>
      </trkpt>
      <trkpt lat="44.09732" lon="6.88319">
        <ele>1003.4</ele>
        <time>2025-07-15T06:33:41Z</time>
      </trkpt>
      <trkpt lat="44.09733" lon="6.88328">
        <ele>1004</ele>
        <time>2025-07-15T06:33:44Z</time>
      </trkpt>
      <trkpt lat="44.09736" lon="6.88337">
        <ele>1004.4</ele>
        <time>2025-07-15T06:33:47Z</time>
      </trkpt>
      <trkpt lat="44.09743" lon="6.88348">
        <ele>1005</ele>
        <time>2025-07-15T06:33:52Z</time>
      </trkpt>
      <trkpt lat="44.09745" lon="6.8835">
        <ele>1005.2</ele>
        <time>2025-07-15T06:33:53Z</time>
      </trkpt>
      <trkpt lat="44.09748" lon="6.88355">
        <ele>1005.6</ele>
        <time>2025-07-15T06:33:55Z</time>
      </trkpt>
      <trkpt lat="44.09754" lon="6.88364">
        <ele>1006.4</ele>
        <time>2025-07-15T06:33:59Z</time>
      </trkpt>
      <trkpt lat="44.09762" lon="6.88376">
        <ele>1007.2</ele>
        <time>2025-07-15T06:34:04Z</time>
      </trkpt>
      <trkpt lat="44.09764" lon="6.88378">
        <ele>1007.4</ele>
        <time>2025-07-15T06:34:05Z</time>
      </trkpt>
      <trkpt lat="44.0977" lon="6.8839">
        <ele>1008.6</ele>
        <time>2025-07-15T06:34:10Z</time>
      </trkpt>
      <trkpt lat="44.09777" lon="6.88403">
        <ele>1009.6</ele>
        <time>2025-07-15T06:34:15Z</time>
      </trkpt>
      <trkpt lat="44.09786" lon="6.88422">
        <ele>1010.6</ele>
        <time>2025-07-15T06:34:22Z</time>
      </trkpt>
      <trkpt lat="44.09793" lon="6.88439">
        <ele>1011.4</ele>
        <time>2025-07-15T06:34:28Z</time>
      </trkpt>
      <trkpt lat="44.09796" lon="6.88444">
        <ele>1011.6</ele>
        <time>2025-07-15T06:34:30Z</time>
      </trkpt>
      <trkpt lat="44.09801" lon="6.88458">
        <ele>1012.6</ele>
        <time>2025-07-15T06:34:35Z</time>
      </trkpt>
      <trkpt lat="44.09802" lon="6.88461">
        <ele>1012.8</ele>
        <time>2025-07-15T06:34:36Z</time>
      </trkpt>
      <trkpt lat="44.0981" lon="6.88482">
        <ele>1014</ele>
        <time>2025-07-15T06:34:43Z</time>
      </trkpt>
      <trkpt lat="44.0981" lon="6.88485">
        <ele>1014.2</ele>
        <time>2025-07-15T06:34:44Z</time>
      </trkpt>
      <trkpt lat="44.09814" lon="6.885">
        <ele>1015</ele>
        <time>2025-07-15T06:34:49Z</time>
      </trkpt>
      <trkpt lat="44.0982" lon="6.88517">
        <ele>1016.2</ele>
        <time>2025-07-15T06:34:55Z</time>
      </trkpt>
      <trkpt lat="44.09826" lon="6.88532">
        <ele>1017.2</ele>
        <time>2025-07-15T06:35:00Z</time>
      </trkpt>
      <trkpt lat="44.09828" lon="6.88541">
        <ele>1018</ele>
        <time>2025-07-15T06:35:03Z</time>
      </trkpt>
      <trkpt lat="44.09829" lon="6.88544">
        <ele>1018.2</ele>
        <time>2025-07-15T06:35:04Z</time>
      </trkpt>
      <trkpt lat="44.0983" lon="6.88547">
        <ele>1018.4</ele>
        <time>2025-07-15T06:35:05Z</time>
      </trkpt>
      <trkpt lat="44.09831" lon="6.88553">
        <ele>1018.6</ele>
        <time>2025-07-15T06:35:07Z</time>
      </trkpt>
      <trkpt lat="44.09835" lon="6.88575">
        <ele>1019.4</ele>
        <time>2025-07-15T06:35:14Z</time>
      </trkpt>
      <trkpt lat="44.09835" lon="6.88578">
        <ele>1019.6</ele>
        <time>2025-07-15T06:35:15Z</time>
      </trkpt>
      <trkpt lat="44.09838" lon="6.88587">
        <ele>1020.6</ele>
        <time>2025-07-15T06:35:18Z</time>
      </trkpt>
      <trkpt lat="44.09842" lon="6.88596">
        <ele>1021.2</ele>
        <time>2025-07-15T06:35:21Z</time>
      </trkpt>
      <trkpt lat="44.09845" lon="6.88601">
        <ele>1021.8</ele>
        <time>2025-07-15T06:35:23Z</time>
      </trkpt>
      <trkpt lat="44.09853" lon="6.88618">
        <ele>1023</ele>
        <time>2025-07-15T06:35:29Z</time>
      </trkpt>
      <trkpt lat="44.09854" lon="6.88624">
        <ele>1023.4</ele>
        <time>2025-07-15T06:35:31Z</time>
      </trkpt>
      <trkpt lat="44.09855" lon="6.88638">
        <ele>1024</ele>
        <time>2025-07-15T06:35:35Z</time>
      </trkpt>
      <trkpt lat="44.09853" lon="6.88647">
        <ele>1024.6</ele>
        <time>2025-07-15T06:35:38Z</time>
      </trkpt>
      <trkpt lat="44.09854" lon="6.8866">
        <ele>1025.2</ele>
        <time>2025-07-15T06:35:42Z</time>
      </trkpt>
      <trkpt lat="44.09857" lon="6.88667">
        <ele>1025.6</ele>
        <time>2025-07-15T06:35:44Z</time>
      </trkpt>
      <trkpt lat="44.09862" lon="6.88677">
        <ele>1026.2</ele>
        <time>2025-07-15T06:35:48Z</time>
      </trkpt>
      <trkpt lat="44.09871" lon="6.88694">
        <ele>1027.2</ele>
        <time>2025-07-15T06:35:54Z</time>
      </trkpt>
      <trkpt lat="44.09872" lon="6.88696">
        <ele>1027.2</ele>
        <time>2025-07-15T06:35:55Z</time>
      </trkpt>
      <trkpt lat="44.09881" lon="6.88712">
        <ele>1028.4</ele>
        <time>2025-07-15T06:36:01Z</time>
      </trkpt>
      <trkpt lat="44.09886" lon="6.88719">
        <ele>1029.2</ele>
        <time>2025-07-15T06:36:04Z</time>
      </trkpt>
      <trkpt lat="44.09894" lon="6.88721">
        <ele>1029.6</ele>
        <time>2025-07-15T06:36:07Z</time>
      </trkpt>
      <trkpt lat="44.09902" lon="6.88718">
        <ele>1030</ele>
        <time>2025-07-15T06:36:10Z</time>
      </trkpt>
      <trkpt lat="44.09914" lon="6.88712">
        <ele>1030.8</ele>
        <time>2025-07-15T06:36:15Z</time>
      </trkpt>
      <trkpt lat="44.09919" lon="6.88708">
        <ele>1031</ele>
        <time>2025-07-15T06:36:17Z</time>
      </trkpt>
      <trkpt lat="44.09936" lon="6.88701">
        <ele>1032</ele>
        <time>2025-07-15T06:36:23Z</time>
      </trkpt>
      <trkpt lat="44.09941" lon="6.88701">
        <ele>1032.4</ele>
        <time>2025-07-15T06:36:25Z</time>
      </trkpt>
      <trkpt lat="44.09961" lon="6.887">
        <ele>1033.2</ele>
        <time>2025-07-15T06:36:32Z</time>
      </trkpt>
      <trkpt lat="44.09977" lon="6.88702">
        <ele>1033.8</ele>
        <time>2025-07-15T06:36:38Z</time>
      </trkpt>
      <trkpt lat="44.09986" lon="6.88704">
        <ele>1034.2</ele>
        <time>2025-07-15T06:36:41Z</time>
      </trkpt>
      <trkpt lat="44.10005" lon="6.88706">
        <ele>1035.4</ele>
        <time>2025-07-15T06:36:48Z</time>
      </trkpt>
      <trkpt lat="44.10007" lon="6.88707">
        <ele>1035.4</ele>
        <time>2025-07-15T06:36:49Z</time>
      </trkpt>
      <trkpt lat="44.10026" lon="6.88711">
        <ele>1036.6</ele>
        <time>2025-07-15T06:36:56Z</time>
      </trkpt>
      <trkpt lat="44.10029" lon="6.88712">
        <ele>1036.8</ele>
        <time>2025-07-15T06:36:57Z</time>
      </trkpt>
      <trkpt lat="44.10034" lon="6.88712">
        <ele>1037</ele>
        <time>2025-07-15T06:36:59Z</time>
      </trkpt>
      <trkpt lat="44.10043" lon="6.88712">
        <ele>1037.6</ele>
        <time>2025-07-15T06:37:02Z</time>
      </trkpt>
      <trkpt lat="44.10057" lon="6.88717">
        <ele>1038.4</ele>
        <time>2025-07-15T06:37:07Z</time>
      </trkpt>
      <trkpt lat="44.10065" lon="6.8872">
        <ele>1038.8</ele>
        <time>2025-07-15T06:37:10Z</time>
      </trkpt>
      <trkpt lat="44.1007" lon="6.88723">
        <ele>1039</ele>
        <time>2025-07-15T06:37:12Z</time>
      </trkpt>
      <trkpt lat="44.10087" lon="6.88738">
        <ele>1039.8</ele>
        <time>2025-07-15T06:37:19Z</time>
      </trkpt>
      <trkpt lat="44.10103" lon="6.88755">
        <ele>1040.8</ele>
        <time>2025-07-15T06:37:26Z</time>
      </trkpt>
      <trkpt lat="44.10104" lon="6.88757">
        <ele>1041</ele>
        <time>2025-07-15T06:37:27Z</time>
      </trkpt>
      <trkpt lat="44.10117" lon="6.88776">
        <ele>1042</ele>
        <time>2025-07-15T06:37:34Z</time>
      </trkpt>
      <trkpt lat="44.1013" lon="6.88795">
        <ele>1042.8</ele>
        <time>2025-07-15T06:37:41Z</time>
      </trkpt>
      <trkpt lat="44.10131" lon="6.88798">
        <ele>1043</ele>
        <time>2025-07-15T06:37:42Z</time>
      </trkpt>
      <trkpt lat="44.10143" lon="6.88815">
        <ele>1044</ele>
        <time>2025-07-15T06:37:49Z</time>
      </trkpt>
      <trkpt lat="44.10147" lon="6.88821">
        <ele>1044.2</ele>
        <time>2025-07-15T06:37:51Z</time>
      </trkpt>
      <trkpt lat="44.10154" lon="6.88831">
        <ele>1045.2</ele>
        <time>2025-07-15T06:37:55Z</time>
      </trkpt>
      <trkpt lat="44.10163" lon="6.88845">
        <ele>1046.2</ele>
        <time>2025-07-15T06:38:00Z</time>
      </trkpt>
      <trkpt lat="44.10169" lon="6.88852">
        <ele>1046.6</ele>
        <time>2025-07-15T06:38:03Z</time>
      </trkpt>
      <trkpt lat="44.10177" lon="6.88866">
        <ele>1047.4</ele>
        <time>2025-07-15T06:38:08Z</time>
      </trkpt>
      <trkpt lat="44.10184" lon="6.88876">
        <ele>1048.4</ele>
        <time>2025-07-15T06:38:12Z</time>
      </trkpt>
      <trkpt lat="44.10186" lon="6.88879">
        <ele>1048.6</ele>
        <time>2025-07-15T06:38:13Z</time>
      </trkpt>
      <trkpt lat="44.10195" lon="6.88891">
        <ele>1049.6</ele>
        <time>2025-07-15T06:38:18Z</time>
      </trkpt>
      <trkpt lat="44.10201" lon="6.889">
        <ele>1050.2</ele>
        <time>2025-07-15T06:38:22Z</time>
      </trkpt>
      <trkpt lat="44.10205" lon="6.88905">
        <ele>1050.6</ele>
        <time>2025-07-15T06:38:24Z</time>
      </trkpt>
      <trkpt lat="44.10213" lon="6.88919">
        <ele>1051.8</ele>
        <time>2025-07-15T06:38:29Z</time>
      </trkpt>
      <trkpt lat="44.10215" lon="6.88922">
        <ele>1052</ele>
        <time>2025-07-15T06:38:30Z</time>
      </trkpt>
      <trkpt lat="44.10217" lon="6.88924">
        <ele>1052.2</ele>
        <time>2025-07-15T06:38:31Z</time>
      </trkpt>
      <trkpt lat="44.10224" lon="6.88933">
        <ele>1052.8</ele>
        <time>2025-07-15T06:38:35Z</time>
      </trkpt>
      <trkpt lat="44.10233" lon="6.88941">
        <ele>1053.4</ele>
        <time>2025-07-15T06:38:39Z</time>
      </trkpt>
      <trkpt lat="44.10237" lon="6.88946">
        <ele>1053.8</ele>
        <time>2025-07-15T06:38:41Z</time>
      </trkpt>
      <trkpt lat="44.10244" lon="6.88956">
        <ele>1054.8</ele>
        <time>2025-07-15T06:38:45Z</time>
      </trkpt>
      <trkpt lat="44.10251" lon="6.88965">
        <ele>1055.6</ele>
        <time>2025-07-15T06:38:49Z</time>
      </trkpt>
      <trkpt lat="44.10257" lon="6.88971">
        <ele>1056</ele>
        <time>2025-07-15T06:38:52Z</time>
      </trkpt>
      <trkpt lat="44.10266" lon="6.88985">
        <ele>1057</ele>
        <time>2025-07-15T06:38:58Z</time>
      </trkpt>
      <trkpt lat="44.10279" lon="6.89003">
        <ele>1058</ele>
        <time>2025-07-15T06:39:04Z</time>
      </trkpt>
      <trkpt lat="44.10282" lon="6.89009">
        <ele>1058.4</ele>
        <time>2025-07-15T06:39:06Z</time>
      </trkpt>
      <trkpt lat="44.10289" lon="6.89023">
        <ele>1059.2</ele>
        <time>2025-07-15T06:39:11Z</time>
      </trkpt>
      <trkpt lat="44.10293" lon="6.89033">
        <ele>1059.4</ele>
        <time>2025-07-15T06:39:14Z</time>
      </trkpt>
      <trkpt lat="44.103" lon="6.89048">
        <ele>1060.2</ele>
        <time>2025-07-15T06:39:19Z</time>
      </trkpt>
      <trkpt lat="44.10307" lon="6.89059">
        <ele>1060.8</ele>
        <time>2025-07-15T06:39:23Z</time>
      </trkpt>
      <trkpt lat="44.10311" lon="6.89063">
        <ele>1061.4</ele>
        <time>2025-07-15T06:39:25Z</time>
      </trkpt>
      <trkpt lat="44.10326" lon="6.89073">
        <ele>1062.2</ele>
        <time>2025-07-15T06:39:31Z</time>
      </trkpt>
      <trkpt lat="44.10334" lon="6.89077">
        <ele>1062.4</ele>
        <time>2025-07-15T06:39:34Z</time>
      </trkpt>
      <trkpt lat="44.10345" lon="6.89086">
        <ele>1063.6</ele>
        <time>2025-07-15T06:39:39Z</time>
      </trkpt>
      <trkpt lat="44.1035" lon="6.89089">
        <ele>1064</ele>
        <time>2025-07-15T06:39:41Z</time>
      </trkpt>
      <trkpt lat="44.1036" lon="6.89095">
        <ele>1064.8</ele>
        <time>2025-07-15T06:39:45Z</time>
      </trkpt>
      <trkpt lat="44.10367" lon="6.89104">
        <ele>1065.4</ele>
        <time>2025-07-15T06:39:49Z</time>
      </trkpt>
      <trkpt lat="44.10371" lon="6.89108">
        <ele>1065.8</ele>
        <time>2025-07-15T06:39:51Z</time>
      </trkpt>
      <trkpt lat="44.10383" lon="6.89119">
        <ele>1066.8</ele>
        <time>2025-07-15T06:39:57Z</time>
      </trkpt>
      <trkpt lat="44.10398" lon="6.89128">
        <ele>1068</ele>
        <time>2025-07-15T06:40:04Z</time>
      </trkpt>
      <trkpt lat="44.10401" lon="6.8913">
        <ele>1068.4</ele>
        <time>2025-07-15T06:40:05Z</time>
      </trkpt>
      <trkpt lat="44.10409" lon="6.89136">
        <ele>1069</ele>
        <time>2025-07-15T06:40:09Z</time>
      </trkpt>
      <trkpt lat="44.10413" lon="6.89139">
        <ele>1069.4</ele>
        <time>2025-07-15T06:40:11Z</time>
      </trkpt>
      <trkpt lat="44.1042" lon="6.89147">
        <ele>1070.2</ele>
        <time>2025-07-15T06:40:15Z</time>
      </trkpt>
      <trkpt lat="44.10423" lon="6.89149">
        <ele>1070.4</ele>
        <time>2025-07-15T06:40:16Z</time>
      </trkpt>
      <trkpt lat="44.10429" lon="6.89158">
        <ele>1071</ele>
        <time>2025-07-15T06:40:20Z</time>
      </trkpt>
      <trkpt lat="44.10433" lon="6.89166">
        <ele>1071.6</ele>
        <time>2025-07-15T06:40:23Z</time>
      </trkpt>
      <trkpt lat="44.10437" lon="6.89174">
        <ele>1072</ele>
        <time>2025-07-15T06:40:26Z</time>
      </trkpt>
      <trkpt lat="44.10444" lon="6.89188">
        <ele>1073.2</ele>
        <time>2025-07-15T06:40:31Z</time>
      </trkpt>
      <trkpt lat="44.10449" lon="6.89197">
        <ele>1073.8</ele>
        <time>2025-07-15T06:40:34Z</time>
      </trkpt>
      <trkpt lat="44.10453" lon="6.89205">
        <ele>1074.2</ele>
        <time>2025-07-15T06:40:37Z</time>
      </trkpt>
      <trkpt lat="44.10463" lon="6.89228">
        <ele>1075.2</ele>
        <time>2025-07-15T06:40:45Z</time>
      </trkpt>
      <trkpt lat="44.10465" lon="6.89234">
        <ele>1075.4</ele>
        <time>2025-07-15T06:40:47Z</time>
      </trkpt>
      <trkpt lat="44.10467" lon="6.8925">
        <ele>1076.4</ele>
        <time>2025-07-15T06:40:52Z</time>
      </trkpt>
      <trkpt lat="44.10467" lon="6.89268">
        <ele>1077.2</ele>
        <time>2025-07-15T06:40:57Z</time>
      </trkpt>
      <trkpt lat="44.10467" lon="6.89271">
        <ele>1077.4</ele>
        <time>2025-07-15T06:40:58Z</time>
      </trkpt>
      <trkpt lat="44.10471" lon="6.89288">
        <ele>1078.4</ele>
        <time>2025-07-15T06:41:03Z</time>
      </trkpt>
      <trkpt lat="44.10473" lon="6.89291">
        <ele>1078.4</ele>
        <time>2025-07-15T06:41:04Z</time>
      </trkpt>
      <trkpt lat="44.1048" lon="6.89296">
        <ele>1079.2</ele>
        <time>2025-07-15T06:41:07Z</time>
      </trkpt>
      <trkpt lat="44.10488" lon="6.893">
        <ele>1079.6</ele>
        <time>2025-07-15T06:41:10Z</time>
      </trkpt>
      <trkpt lat="44.10505" lon="6.89309">
        <ele>1080.6</ele>
        <time>2025-07-15T06:41:16Z</time>
      </trkpt>
      <trkpt lat="44.10509" lon="6.89311">
        <ele>1080.8</ele>
        <time>2025-07-15T06:41:17Z</time>
      </trkpt>
      <trkpt lat="44.10519" lon="6.89324">
        <ele>1081.2</ele>
        <time>2025-07-15T06:41:21Z</time>
      </trkpt>
      <trkpt lat="44.1052" lon="6.8933">
        <ele>1081.2</ele>
        <time>2025-07-15T06:41:22Z</time>
      </trkpt>
      <trkpt lat="44.10521" lon="6.89349">
        <ele>1081.4</ele>
        <time>2025-07-15T06:41:25Z</time>
      </trkpt>
      <trkpt lat="44.10523" lon="6.89385">
        <ele>1081.4</ele>
        <time>2025-07-15T06:41:31Z</time>
      </trkpt>
      <trkpt lat="44.10526" lon="6.89397">
        <ele>1081.6</ele>
        <time>2025-07-15T06:41:33Z</time>
      </trkpt>
      <trkpt lat="44.10529" lon="6.89408">
        <ele>1081.8</ele>
        <time>2025-07-15T06:41:35Z</time>
      </trkpt>
      <trkpt lat="44.10536" lon="6.89423">
        <ele>1081.8</ele>
        <time>2025-07-15T06:41:38Z</time>
      </trkpt>
      <trkpt lat="44.10538" lon="6.89428">
        <ele>1081.8</ele>
        <time>2025-07-15T06:41:39Z</time>
      </trkpt>
      <trkpt lat="44.10544" lon="6.89463">
        <ele>1082</ele>
        <time>2025-07-15T06:41:45Z</time>
      </trkpt>
      <trkpt lat="44.10546" lon="6.89468">
        <ele>1082</ele>
        <time>2025-07-15T06:41:46Z</time>
      </trkpt>
      <trkpt lat="44.10564" lon="6.89501">
        <ele>1082.4</ele>
        <time>2025-07-15T06:41:53Z</time>
      </trkpt>
      <trkpt lat="44.10566" lon="6.89504">
        <ele>1082.6</ele>
        <time>2025-07-15T06:41:54Z</time>
      </trkpt>
      <trkpt lat="44.10585" lon="6.89539">
        <ele>1083.2</ele>
        <time>2025-07-15T06:42:03Z</time>
      </trkpt>
      <trkpt lat="44.10587" lon="6.89542">
        <ele>1083.4</ele>
        <time>2025-07-15T06:42:04Z</time>
      </trkpt>
      <trkpt lat="44.10599" lon="6.89568">
        <ele>1084.4</ele>
        <time>2025-07-15T06:42:11Z</time>
      </trkpt>
      <trkpt lat="44.10601" lon="6.89575">
        <ele>1084.6</ele>
        <time>2025-07-15T06:42:13Z</time>
      </trkpt>
      <trkpt lat="44.10603" lon="6.89597">
        <ele>1085.2</ele>
        <time>2025-07-15T06:42:18Z</time>
      </trkpt>
      <trkpt lat="44.10602" lon="6.89605">
        <ele>1085.6</ele>
        <time>2025-07-15T06:42:20Z</time>
      </trkpt>
      <trkpt lat="44.10602" lon="6.89627">
        <ele>1086.2</ele>
        <time>2025-07-15T06:42:25Z</time>
      </trkpt>
      <trkpt lat="44.10604" lon="6.89644">
        <ele>1086.6</ele>
        <time>2025-07-15T06:42:29Z</time>
      </trkpt>
      <trkpt lat="44.10607" lon="6.89672">
        <ele>1087.2</ele>
        <time>2025-07-15T06:42:35Z</time>
      </trkpt>
      <trkpt lat="44.10608" lon="6.89693">
        <ele>1087.8</ele>
        <time>2025-07-15T06:42:40Z</time>
      </trkpt>
      <trkpt lat="44.1061" lon="6.89718">
        <ele>1088.8</ele>
        <time>2025-07-15T06:42:46Z</time>
      </trkpt>
      <trkpt lat="44.10611" lon="6.89749">
        <ele>1090.2</ele>
        <time>2025-07-15T06:42:54Z</time>
      </trkpt>
      <trkpt lat="44.10611" lon="6.89757">
        <ele>1090.8</ele>
        <time>2025-07-15T06:42:56Z</time>
      </trkpt>
      <trkpt lat="44.10612" lon="6.89771">
        <ele>1091.2</ele>
        <time>2025-07-15T06:43:00Z</time>
      </trkpt>
      <trkpt lat="44.10614" lon="6.89798">
        <ele>1091.8</ele>
        <time>2025-07-15T06:43:07Z</time>
      </trkpt>
      <trkpt lat="44.10614" lon="6.89802">
        <ele>1092</ele>
        <time>2025-07-15T06:43:08Z</time>
      </trkpt>
      <trkpt lat="44.10615" lon="6.8982">
        <ele>1093.2</ele>
        <time>2025-07-15T06:43:13Z</time>
      </trkpt>
      <trkpt lat="44.10616" lon="6.89824">
        <ele>1093.4</ele>
        <time>2025-07-15T06:43:14Z</time>
      </trkpt>
      <trkpt lat="44.10619" lon="6.89842">
        <ele>1094.2</ele>
        <time>2025-07-15T06:43:19Z</time>
      </trkpt>
      <trkpt lat="44.10623" lon="6.8986">
        <ele>1095</ele>
        <time>2025-07-15T06:43:24Z</time>
      </trkpt>
      <trkpt lat="44.10626" lon="6.89869">
        <ele>1095.2</ele>
        <time>2025-07-15T06:43:27Z</time>
      </trkpt>
      <trkpt lat="44.1063" lon="6.89886">
        <ele>1096</ele>
        <time>2025-07-15T06:43:32Z</time>
      </trkpt>
      <trkpt lat="44.10632" lon="6.89892">
        <ele>1096.4</ele>
        <time>2025-07-15T06:43:34Z</time>
      </trkpt>
      <trkpt lat="44.10635" lon="6.89911">
        <ele>1097.2</ele>
        <time>2025-07-15T06:43:40Z</time>
      </trkpt>
      <trkpt lat="44.10636" lon="6.89914">
        <ele>1097.4</ele>
        <time>2025-07-15T06:43:41Z</time>
      </trkpt>
      <trkpt lat="44.1064" lon="6.89933">
        <ele>1098.6</ele>
        <time>2025-07-15T06:43:47Z</time>
      </trkpt>
      <trkpt lat="44.10644" lon="6.89948">
        <ele>1099.6</ele>
        <time>2025-07-15T06:43:52Z</time>
      </trkpt>
      <trkpt lat="44.1065" lon="6.89961">
        <ele>1100.6</ele>
        <time>2025-07-15T06:43:57Z</time>
      </trkpt>
      <trkpt lat="44.10652" lon="6.89965">
        <ele>1100.6</ele>
        <time>2025-07-15T06:43:58Z</time>
      </trkpt>
      <trkpt lat="44.10659" lon="6.8998">
        <ele>1101.6</ele>
        <time>2025-07-15T06:44:04Z</time>
      </trkpt>
      <trkpt lat="44.10662" lon="6.89985">
        <ele>1102</ele>
        <time>2025-07-15T06:44:06Z</time>
      </trkpt>
      <trkpt lat="44.10665" lon="6.89993">
        <ele>1102.6</ele>
        <time>2025-07-15T06:44:09Z</time>
      </trkpt>
      <trkpt lat="44.10671" lon="6.90006">
        <ele>1103.8</ele>
        <time>2025-07-15T06:44:14Z</time>
      </trkpt>
      <trkpt lat="44.10673" lon="6.90009">
        <ele>1104</ele>
        <time>2025-07-15T06:44:15Z</time>
      </trkpt>
      <trkpt lat="44.1068" lon="6.90026">
        <ele>1105.2</ele>
        <time>2025-07-15T06:44:21Z</time>
      </trkpt>
      <trkpt lat="44.10683" lon="6.90035">
        <ele>1105.6</ele>
        <time>2025-07-15T06:44:24Z</time>
      </trkpt>
      <trkpt lat="44.10685" lon="6.90044">
        <ele>1106.2</ele>
        <time>2025-07-15T06:44:27Z</time>
      </trkpt>
      <trkpt lat="44.10688" lon="6.9006">
        <ele>1107.2</ele>
        <time>2025-07-15T06:44:32Z</time>
      </trkpt>
      <trkpt lat="44.10689" lon="6.90064">
        <ele>1107.2</ele>
        <time>2025-07-15T06:44:33Z</time>
      </trkpt>
      <trkpt lat="44.10693" lon="6.9008">
        <ele>1108.4</ele>
        <time>2025-07-15T06:44:39Z</time>
      </trkpt>
      <trkpt lat="44.10694" lon="6.90083">
        <ele>1108.6</ele>
        <time>2025-07-15T06:44:40Z</time>
      </trkpt>
      <trkpt lat="44.10701" lon="6.90095">
        <ele>1109.2</ele>
        <time>2025-07-15T06:44:45Z</time>
      </trkpt>
      <trkpt lat="44.10703" lon="6.90098">
        <ele>1109.4</ele>
        <time>2025-07-15T06:44:46Z</time>
      </trkpt>
      <trkpt lat="44.1071" lon="6.90112">
        <ele>1110.6</ele>
        <time>2025-07-15T06:44:51Z</time>
      </trkpt>
      <trkpt lat="44.10715" lon="6.90123">
        <ele>1111.4</ele>
        <time>2025-07-15T06:44:55Z</time>
      </trkpt>
      <trkpt lat="44.10716" lon="6.90125">
        <ele>1111.6</ele>
        <time>2025-07-15T06:44:56Z</time>
      </trkpt>
      <trkpt lat="44.10724" lon="6.90142">
        <ele>1112.6</ele>
        <time>2025-07-15T06:45:02Z</time>
      </trkpt>
      <trkpt lat="44.1073" lon="6.90152">
        <ele>1113.2</ele>
        <time>2025-07-15T06:45:06Z</time>
      </trkpt>
      <trkpt lat="44.10732" lon="6.90157">
        <ele>1113.8</ele>
        <time>2025-07-15T06:45:08Z</time>
      </trkpt>
      <trkpt lat="44.10737" lon="6.90171">
        <ele>1114.6</ele>
        <time>2025-07-15T06:45:13Z</time>
      </trkpt>
      <trkpt lat="44.10739" lon="6.90174">
        <ele>1115</ele>
        <time>2025-07-15T06:45:14Z</time>
      </trkpt>
      <trkpt lat="44.10744" lon="6.90188">
        <ele>1116</ele>
        <time>2025-07-15T06:45:19Z</time>
      </trkpt>
      <trkpt lat="44.10746" lon="6.90193">
        <ele>1116.4</ele>
        <time>2025-07-15T06:45:21Z</time>
      </trkpt>
      <trkpt lat="44.10749" lon="6.90201">
        <ele>1117.2</ele>
        <time>2025-07-15T06:45:24Z</time>
      </trkpt>
      <trkpt lat="44.10757" lon="6.90213">
        <ele>1118.4</ele>
        <time>2025-07-15T06:45:29Z</time>
      </trkpt>
      <trkpt lat="44.10758" lon="6.90216">
        <ele>1118.4</ele>
        <time>2025-07-15T06:45:30Z</time>
      </trkpt>
      <trkpt lat="44.10765" lon="6.90227">
        <ele>1119.4</ele>
        <time>2025-07-15T06:45:35Z</time>
      </trkpt>
      <trkpt lat="44.10767" lon="6.90229">
        <ele>1119.6</ele>
        <time>2025-07-15T06:45:36Z</time>
      </trkpt>
      <trkpt lat="44.1077" lon="6.90236">
        <ele>1120.4</ele>
        <time>2025-07-15T06:45:39Z</time>
      </trkpt>
      <trkpt lat="44.10777" lon="6.90246">
        <ele>1121.4</ele>
        <time>2025-07-15T06:45:44Z</time>
      </trkpt>
      <trkpt lat="44.1078" lon="6.9025">
        <ele>1121.8</ele>
        <time>2025-07-15T06:45:46Z</time>
      </trkpt>
      <trkpt lat="44.10783" lon="6.90254">
        <ele>1122.6</ele>
        <time>2025-07-15T06:45:48Z</time>
      </trkpt>
      <trkpt lat="44.10793" lon="6.90267">
        <ele>1123.8</ele>
        <time>2025-07-15T06:45:54Z</time>
      </trkpt>
      <trkpt lat="44.10799" lon="6.90276">
        <ele>1124.6</ele>
        <time>2025-07-15T06:45:58Z</time>
      </trkpt>
      <trkpt lat="44.10801" lon="6.90278">
        <ele>1124.8</ele>
        <time>2025-07-15T06:45:59Z</time>
      </trkpt>
      <trkpt lat="44.10809" lon="6.90286">
        <ele>1126.2</ele>
        <time>2025-07-15T06:46:04Z</time>
      </trkpt>
      <trkpt lat="44.10815" lon="6.90289">
        <ele>1127</ele>
        <time>2025-07-15T06:46:07Z</time>
      </trkpt>
      <trkpt lat="44.10819" lon="6.90291">
        <ele>1127.2</ele>
        <time>2025-07-15T06:46:09Z</time>
      </trkpt>
      <trkpt lat="44.10832" lon="6.90297">
        <ele>1128.4</ele>
        <time>2025-07-15T06:46:15Z</time>
      </trkpt>
      <trkpt lat="44.10834" lon="6.90298">
        <ele>1128.6</ele>
        <time>2025-07-15T06:46:16Z</time>
      </trkpt>
      <trkpt lat="44.10841" lon="6.90308">
        <ele>1129.4</ele>
        <time>2025-07-15T06:46:21Z</time>
      </trkpt>
      <trkpt lat="44.10843" lon="6.90309">
        <ele>1129.6</ele>
        <time>2025-07-15T06:46:22Z</time>
      </trkpt>
      <trkpt lat="44.10849" lon="6.90321">
        <ele>1130.6</ele>
        <time>2025-07-15T06:46:27Z</time>
      </trkpt>
      <trkpt lat="44.10854" lon="6.90329">
        <ele>1131.2</ele>
        <time>2025-07-15T06:46:31Z</time>
      </trkpt>
      <trkpt lat="44.10858" lon="6.90336">
        <ele>1131.6</ele>
        <time>2025-07-15T06:46:34Z</time>
      </trkpt>
      <trkpt lat="44.10864" lon="6.90347">
        <ele>1132.6</ele>
        <time>2025-07-15T06:46:39Z</time>
      </trkpt>
      <trkpt lat="44.10866" lon="6.90349">
        <ele>1132.8</ele>
        <time>2025-07-15T06:46:40Z</time>
      </trkpt>
      <trkpt lat="44.10874" lon="6.90362">
        <ele>1133.8</ele>
        <time>2025-07-15T06:46:46Z</time>
      </trkpt>
      <trkpt lat="44.10879" lon="6.90368">
        <ele>1134.6</ele>
        <time>2025-07-15T06:46:49Z</time>
      </trkpt>
      <trkpt lat="44.10883" lon="6.90371">
        <ele>1135</ele>
        <time>2025-07-15T06:46:51Z</time>
      </trkpt>
      <trkpt lat="44.10892" lon="6.90382">
        <ele>1136</ele>
        <time>2025-07-15T06:46:57Z</time>
      </trkpt>
      <trkpt lat="44.10896" lon="6.90385">
        <ele>1136.4</ele>
        <time>2025-07-15T06:46:59Z</time>
      </trkpt>
      <trkpt lat="44.10904" lon="6.9039">
        <ele>1137.2</ele>
        <time>2025-07-15T06:47:03Z</time>
      </trkpt>
      <trkpt lat="44.10914" lon="6.90398">
        <ele>1138.4</ele>
        <time>2025-07-15T06:47:09Z</time>
      </trkpt>
      <trkpt lat="44.10916" lon="6.904">
        <ele>1138.6</ele>
        <time>2025-07-15T06:47:10Z</time>
      </trkpt>
      <trkpt lat="44.10921" lon="6.90405">
        <ele>1139.2</ele>
        <time>2025-07-15T06:47:13Z</time>
      </trkpt>
      <trkpt lat="44.10928" lon="6.90411">
        <ele>1140.2</ele>
        <time>2025-07-15T06:47:17Z</time>
      </trkpt>
      <trkpt lat="44.10929" lon="6.90413">
        <ele>1140.4</ele>
        <time>2025-07-15T06:47:18Z</time>
      </trkpt>
      <trkpt lat="44.10936" lon="6.90422">
        <ele>1141.2</ele>
        <time>2025-07-15T06:47:23Z</time>
      </trkpt>
      <trkpt lat="44.10938" lon="6.90426">
        <ele>1141.6</ele>
        <time>2025-07-15T06:47:25Z</time>
      </trkpt>
      <trkpt lat="44.10944" lon="6.90433">
        <ele>1142.4</ele>
        <time>2025-07-15T06:47:29Z</time>
      </trkpt>
      <trkpt lat="44.10953" lon="6.90443">
        <ele>1143.6</ele>
        <time>2025-07-15T06:47:34Z</time>
      </trkpt>
      <trkpt lat="44.10961" lon="6.90445">
        <ele>1144.6</ele>
        <time>2025-07-15T06:47:38Z</time>
      </trkpt>
      <trkpt lat="44.10965" lon="6.90445">
        <ele>1145</ele>
        <time>2025-07-15T06:47:40Z</time>
      </trkpt>
      <trkpt lat="44.10971" lon="6.90443">
        <ele>1145.6</ele>
        <time>2025-07-15T06:47:43Z</time>
      </trkpt>
      <trkpt lat="44.1098" lon="6.90435">
        <ele>1147</ele>
        <time>2025-07-15T06:47:48Z</time>
      </trkpt>
      <trkpt lat="44.1099" lon="6.90426">
        <ele>1148.2</ele>
        <time>2025-07-15T06:47:54Z</time>
      </trkpt>
      <trkpt lat="44.10996" lon="6.90423">
        <ele>1148.6</ele>
        <time>2025-07-15T06:47:57Z</time>
      </trkpt>
      <trkpt lat="44.11002" lon="6.90421">
        <ele>1149.2</ele>
        <time>2025-07-15T06:48:00Z</time>
      </trkpt>
      <trkpt lat="44.11013" lon="6.90421">
        <ele>1150</ele>
        <time>2025-07-15T06:48:05Z</time>
      </trkpt>
      <trkpt lat="44.11018" lon="6.90421">
        <ele>1150.4</ele>
        <time>2025-07-15T06:48:07Z</time>
      </trkpt>
      <trkpt lat="44.11027" lon="6.90421">
        <ele>1151.4</ele>
        <time>2025-07-15T06:48:12Z</time>
      </trkpt>
      <trkpt lat="44.11029" lon="6.9042">
        <ele>1151.8</ele>
        <time>2025-07-15T06:48:13Z</time>
      </trkpt>
      <trkpt lat="44.11036" lon="6.90419">
        <ele>1152.6</ele>
        <time>2025-07-15T06:48:16Z</time>
      </trkpt>
      <trkpt lat="44.11047" lon="6.90419">
        <ele>1153.4</ele>
        <time>2025-07-15T06:48:21Z</time>
      </trkpt>
      <trkpt lat="44.11049" lon="6.90419">
        <ele>1153.8</ele>
        <time>2025-07-15T06:48:22Z</time>
      </trkpt>
      <trkpt lat="44.1106" lon="6.90418">
        <ele>1154.8</ele>
        <time>2025-07-15T06:48:27Z</time>
      </trkpt>
      <trkpt lat="44.11073" lon="6.90418">
        <ele>1156</ele>
        <time>2025-07-15T06:48:33Z</time>
      </trkpt>
      <trkpt lat="44.11087" lon="6.90421">
        <ele>1157</ele>
        <time>2025-07-15T06:48:40Z</time>
      </trkpt>
      <trkpt lat="44.11097" lon="6.90424">
        <ele>1158.2</ele>
        <time>2025-07-15T06:48:45Z</time>
      </trkpt>
      <trkpt lat="44.11099" lon="6.90424">
        <ele>1158.4</ele>
        <time>2025-07-15T06:48:46Z</time>
      </trkpt>
      <trkpt lat="44.11108" lon="6.90427">
        <ele>1159.2</ele>
        <time>2025-07-15T06:48:50Z</time>
      </trkpt>
      <trkpt lat="44.11112" lon="6.90427">
        <ele>1159.6</ele>
        <time>2025-07-15T06:48:52Z</time>
      </trkpt>
      <trkpt lat="44.11114" lon="6.90427">
        <ele>1159.8</ele>
        <time>2025-07-15T06:48:53Z</time>
      </trkpt>
      <trkpt lat="44.11121" lon="6.90428">
        <ele>1160.4</ele>
        <time>2025-07-15T06:48:56Z</time>
      </trkpt>
      <trkpt lat="44.11134" lon="6.90432">
        <ele>1161.6</ele>
        <time>2025-07-15T06:49:02Z</time>
      </trkpt>
      <trkpt lat="44.11136" lon="6.90433">
        <ele>1162</ele>
        <time>2025-07-15T06:49:03Z</time>
      </trkpt>
      <trkpt lat="44.11144" lon="6.90434">
        <ele>1162.8</ele>
        <time>2025-07-15T06:49:07Z</time>
      </trkpt>
      <trkpt lat="44.1115" lon="6.90436">
        <ele>1163.6</ele>
        <time>2025-07-15T06:49:10Z</time>
      </trkpt>
      <trkpt lat="44.11154" lon="6.90437">
        <ele>1164</ele>
        <time>2025-07-15T06:49:12Z</time>
      </trkpt>
      <trkpt lat="44.11169" lon="6.90442">
        <ele>1165.2</ele>
        <time>2025-07-15T06:49:19Z</time>
      </trkpt>
      <trkpt lat="44.11172" lon="6.90442">
        <ele>1165.4</ele>
        <time>2025-07-15T06:49:20Z</time>
      </trkpt>
      <trkpt lat="44.1118" lon="6.90446">
        <ele>1166.2</ele>
        <time>2025-07-15T06:49:24Z</time>
      </trkpt>
      <trkpt lat="44.11186" lon="6.90449">
        <ele>1166.8</ele>
        <time>2025-07-15T06:49:27Z</time>
      </trkpt>
      <trkpt lat="44.1119" lon="6.90453">
        <ele>1167.4</ele>
        <time>2025-07-15T06:49:29Z</time>
      </trkpt>
      <trkpt lat="44.11201" lon="6.90462">
        <ele>1168.4</ele>
        <time>2025-07-15T06:49:35Z</time>
      </trkpt>
      <trkpt lat="44.11203" lon="6.90463">
        <ele>1168.6</ele>
        <time>2025-07-15T06:49:36Z</time>
      </trkpt>
      <trkpt lat="44.11212" lon="6.9047">
        <ele>1169.6</ele>
        <time>2025-07-15T06:49:41Z</time>
      </trkpt>
      <trkpt lat="44.11217" lon="6.90474">
        <ele>1170</ele>
        <time>2025-07-15T06:49:44Z</time>
      </trkpt>
      <trkpt lat="44.11225" lon="6.9048">
        <ele>1170.8</ele>
        <time>2025-07-15T06:49:48Z</time>
      </trkpt>
      <trkpt lat="44.11237" lon="6.90487">
        <ele>1172</ele>
        <time>2025-07-15T06:49:54Z</time>
      </trkpt>
      <trkpt lat="44.11239" lon="6.90489">
        <ele>1172.2</ele>
        <time>2025-07-15T06:49:55Z</time>
      </trkpt>
      <trkpt lat="44.11253" lon="6.90498">
        <ele>1173.2</ele>
        <time>2025-07-15T06:50:02Z</time>
      </trkpt>
      <trkpt lat="44.11255" lon="6.905">
        <ele>1173.2</ele>
        <time>2025-07-15T06:50:03Z</time>
      </trkpt>
      <trkpt lat="44.11271" lon="6.90512">
        <ele>1174.4</ele>
        <time>2025-07-15T06:50:11Z</time>
      </trkpt>
      <trkpt lat="44.11276" lon="6.90517">
        <ele>1174.8</ele>
        <time>2025-07-15T06:50:14Z</time>
      </trkpt>
      <trkpt lat="44.11281" lon="6.90522">
        <ele>1175.4</ele>
        <time>2025-07-15T06:50:17Z</time>
      </trkpt>
      <trkpt lat="44.11291" lon="6.90533">
        <ele>1176.4</ele>
        <time>2025-07-15T06:50:23Z</time>
      </trkpt>
      <trkpt lat="44.11299" lon="6.90541">
        <ele>1177.6</ele>
        <time>2025-07-15T06:50:28Z</time>
      </trkpt>
      <trkpt lat="44.11306" lon="6.90548">
        <ele>1178.2</ele>
        <time>2025-07-15T06:50:32Z</time>
      </trkpt>
      <trkpt lat="44.11313" lon="6.9055">
        <ele>1178.8</ele>
        <time>2025-07-15T06:50:35Z</time>
      </trkpt>
      <trkpt lat="44.11319" lon="6.90553">
        <ele>1179.4</ele>
        <time>2025-07-15T06:50:38Z</time>
      </trkpt>
      <trkpt lat="44.11325" lon="6.90555">
        <ele>1180.2</ele>
        <time>2025-07-15T06:50:41Z</time>
      </trkpt>
      <trkpt lat="44.11334" lon="6.90556">
        <ele>1181</ele>
        <time>2025-07-15T06:50:45Z</time>
      </trkpt>
      <trkpt lat="44.11336" lon="6.90557">
        <ele>1181.2</ele>
        <time>2025-07-15T06:50:46Z</time>
      </trkpt>
      <trkpt lat="44.11351" lon="6.90559">
        <ele>1182.2</ele>
        <time>2025-07-15T06:50:53Z</time>
      </trkpt>
      <trkpt lat="44.11353" lon="6.90559">
        <ele>1182.4</ele>
        <time>2025-07-15T06:50:54Z</time>
      </trkpt>
      <trkpt lat="44.11364" lon="6.90561">
        <ele>1183.4</ele>
        <time>2025-07-15T06:50:59Z</time>
      </trkpt>
      <trkpt lat="44.1137" lon="6.90563">
        <ele>1184</ele>
        <time>2025-07-15T06:51:02Z</time>
      </trkpt>
      <trkpt lat="44.11376" lon="6.90565">
        <ele>1184.6</ele>
        <time>2025-07-15T06:51:05Z</time>
      </trkpt>
      <trkpt lat="44.11382" lon="6.90566">
        <ele>1184.8</ele>
        <time>2025-07-15T06:51:08Z</time>
      </trkpt>
      <trkpt lat="44.11389" lon="6.90568">
        <ele>1185.2</ele>
        <time>2025-07-15T06:51:12Z</time>
      </trkpt>
      <trkpt lat="44.11396" lon="6.9057">
        <ele>1185.6</ele>
        <time>2025-07-15T06:51:16Z</time>
      </trkpt>
      <trkpt lat="44.11397" lon="6.9057">
        <ele>1185.8</ele>
        <time>2025-07-15T06:51:17Z</time>
      </trkpt>
      <trkpt lat="44.11397" lon="6.9057">
        <ele>1186</ele>
        <time>2025-07-15T06:51:18Z</time>
      </trkpt>
      <trkpt lat="44.11403" lon="6.90572">
        <ele>1186.4</ele>
        <time>2025-07-15T06:52:01Z</time>
      </trkpt>
      <trkpt lat="44.11407" lon="6.90572">
        <ele>1186.6</ele>
        <time>2025-07-15T06:52:03Z</time>
      </trkpt>
      <trkpt lat="44.11419" lon="6.90575">
        <ele>1186.8</ele>
        <time>2025-07-15T06:52:08Z</time>
      </trkpt>
      <trkpt lat="44.11424" lon="6.90576">
        <ele>1187</ele>
        <time>2025-07-15T06:52:10Z</time>
      </trkpt>
      <trkpt lat="44.1144" lon="6.90577">
        <ele>1188</ele>
        <time>2025-07-15T06:52:17Z</time>
      </trkpt>
      <trkpt lat="44.11443" lon="6.90577">
        <ele>1188.2</ele>
        <time>2025-07-15T06:52:18Z</time>
      </trkpt>
      <trkpt lat="44.11455" lon="6.90576">
        <ele>1189.4</ele>
        <time>2025-07-15T06:52:23Z</time>
      </trkpt>
      <trkpt lat="44.1146" lon="6.90576">
        <ele>1190</ele>
        <time>2025-07-15T06:52:25Z</time>
      </trkpt>
      <trkpt lat="44.11464" lon="6.90575">
        <ele>1190.4</ele>
        <time>2025-07-15T06:52:27Z</time>
      </trkpt>
      <trkpt lat="44.11477" lon="6.90574">
        <ele>1191.8</ele>
        <time>2025-07-15T06:52:33Z</time>
      </trkpt>
      <trkpt lat="44.11487" lon="6.90574">
        <ele>1192.4</ele>
        <time>2025-07-15T06:52:38Z</time>
      </trkpt>
      <trkpt lat="44.11494" lon="6.90573">
        <ele>1192.8</ele>
        <time>2025-07-15T06:52:41Z</time>
      </trkpt>
      <trkpt lat="44.11496" lon="6.90573">
        <ele>1193.2</ele>
        <time>2025-07-15T06:52:42Z</time>
      </trkpt>
      <trkpt lat="44.11507" lon="6.90574">
        <ele>1194</ele>
        <time>2025-07-15T06:52:47Z</time>
      </trkpt>
      <trkpt lat="44.11511" lon="6.90575">
        <ele>1194.4</ele>
        <time>2025-07-15T06:52:49Z</time>
      </trkpt>
      <trkpt lat="44.11522" lon="6.90574">
        <ele>1195</ele>
        <time>2025-07-15T06:52:54Z</time>
      </trkpt>
      <trkpt lat="44.1153" lon="6.90572">
        <ele>1195.8</ele>
        <time>2025-07-15T06:52:58Z</time>
      </trkpt>
      <trkpt lat="44.11535" lon="6.9057">
        <ele>1196</ele>
        <time>2025-07-15T06:53:00Z</time>
      </trkpt>
      <trkpt lat="44.11547" lon="6.90566">
        <ele>1197.2</ele>
        <time>2025-07-15T06:53:06Z</time>
      </trkpt>
      <trkpt lat="44.11549" lon="6.90566">
        <ele>1197.4</ele>
        <time>2025-07-15T06:53:07Z</time>
      </trkpt>
      <trkpt lat="44.11557" lon="6.9057">
        <ele>1198.4</ele>
        <time>2025-07-15T06:53:11Z</time>
      </trkpt>
      <trkpt lat="44.11561" lon="6.90576">
        <ele>1199</ele>
        <time>2025-07-15T06:53:14Z</time>
      </trkpt>
      <trkpt lat="44.11564" lon="6.9058">
        <ele>1199.4</ele>
        <time>2025-07-15T06:53:16Z</time>
      </trkpt>
      <trkpt lat="44.11565" lon="6.90582">
        <ele>1199.4</ele>
        <time>2025-07-15T06:53:17Z</time>
      </trkpt>
      <trkpt lat="44.11568" lon="6.90582">
        <ele>1199.8</ele>
        <time>2025-07-15T06:53:19Z</time>
      </trkpt>
      <trkpt lat="44.1157" lon="6.90581">
        <ele>1200.2</ele>
        <time>2025-07-15T06:53:20Z</time>
      </trkpt>
      <trkpt lat="44.11571" lon="6.90576">
        <ele>1200.6</ele>
        <time>2025-07-15T06:53:22Z</time>
      </trkpt>
      <trkpt lat="44.11571" lon="6.90574">
        <ele>1200.8</ele>
        <time>2025-07-15T06:53:23Z</time>
      </trkpt>
      <trkpt lat="44.1157" lon="6.90572">
        <ele>1201</ele>
        <time>2025-07-15T06:53:27Z</time>
      </trkpt>
      <trkpt lat="44.11569" lon="6.90572">
        <ele>1201.4</ele>
        <time>2025-07-15T06:53:42Z</time>
      </trkpt>
      <trkpt lat="44.11566" lon="6.90576">
        <ele>1201.4</ele>
        <time>2025-07-15T06:53:44Z</time>
      </trkpt>
      <trkpt lat="44.11567" lon="6.90587">
        <ele>1201</ele>
        <time>2025-07-15T06:53:48Z</time>
      </trkpt>
      <trkpt lat="44.11575" lon="6.90604">
        <ele>1201.4</ele>
        <time>2025-07-15T06:53:55Z</time>
      </trkpt>
      <trkpt lat="44.11584" lon="6.90622">
        <ele>1202</ele>
        <time>2025-07-15T06:54:02Z</time>
      </trkpt>
      <trkpt lat="44.11586" lon="6.90627">
        <ele>1202.4</ele>
        <time>2025-07-15T06:54:04Z</time>
      </trkpt>
      <trkpt lat="44.11593" lon="6.90642">
        <ele>1203.4</ele>
        <time>2025-07-15T06:54:10Z</time>
      </trkpt>
      <trkpt lat="44.11602" lon="6.90657">
        <ele>1204.6</ele>
        <time>2025-07-15T06:54:16Z</time>
      </trkpt>
      <trkpt lat="44.11609" lon="6.90665">
        <ele>1205.6</ele>
        <time>2025-07-15T06:54:20Z</time>
      </trkpt>
      <trkpt lat="44.11611" lon="6.90667">
        <ele>1205.6</ele>
        <time>2025-07-15T06:54:21Z</time>
      </trkpt>
      <trkpt lat="44.11619" lon="6.90672">
        <ele>1206.8</ele>
        <time>2025-07-15T06:54:25Z</time>
      </trkpt>
      <trkpt lat="44.11624" lon="6.90677">
        <ele>1207.4</ele>
        <time>2025-07-15T06:54:28Z</time>
      </trkpt>
      <trkpt lat="44.11634" lon="6.90683">
        <ele>1208</ele>
        <time>2025-07-15T06:54:33Z</time>
      </trkpt>
      <trkpt lat="44.1164" lon="6.90686">
        <ele>1208.8</ele>
        <time>2025-07-15T06:54:36Z</time>
      </trkpt>
      <trkpt lat="44.11644" lon="6.90687">
        <ele>1209.2</ele>
        <time>2025-07-15T06:54:38Z</time>
      </trkpt>
      <trkpt lat="44.11653" lon="6.90689">
        <ele>1210.4</ele>
        <time>2025-07-15T06:54:42Z</time>
      </trkpt>
      <trkpt lat="44.11658" lon="6.90691">
        <ele>1211.2</ele>
        <time>2025-07-15T06:54:45Z</time>
      </trkpt>
      <trkpt lat="44.11659" lon="6.90692">
        <ele>1211.4</ele>
        <time>2025-07-15T06:54:46Z</time>
      </trkpt>
      <trkpt lat="44.1166" lon="6.90693">
        <ele>1211.4</ele>
        <time>2025-07-15T06:54:47Z</time>
      </trkpt>
      <trkpt lat="44.11661" lon="6.90693">
        <ele>1211.6</ele>
        <time>2025-07-15T06:54:48Z</time>
      </trkpt>
      <trkpt lat="44.11661" lon="6.90693">
        <ele>1211.8</ele>
        <time>2025-07-15T06:54:49Z</time>
      </trkpt>
      <trkpt lat="44.11667" lon="6.90696">
        <ele>1212.2</ele>
        <time>2025-07-15T07:02:25Z</time>
      </trkpt>
      <trkpt lat="44.11672" lon="6.90702">
        <ele>1212.2</ele>
        <time>2025-07-15T07:02:28Z</time>
      </trkpt>
      <trkpt lat="44.1168" lon="6.90712">
        <ele>1212.4</ele>
        <time>2025-07-15T07:02:32Z</time>
      </trkpt>
      <trkpt lat="44.11682" lon="6.90715">
        <ele>1212.4</ele>
        <time>2025-07-15T07:02:33Z</time>
      </trkpt>
      <trkpt lat="44.11694" lon="6.90729">
        <ele>1212.4</ele>
        <time>2025-07-15T07:02:38Z</time>
      </trkpt>
      <trkpt lat="44.11712" lon="6.9075">
        <ele>1212.8</ele>
        <time>2025-07-15T07:02:46Z</time>
      </trkpt>
      <trkpt lat="44.11723" lon="6.90764">
        <ele>1213.4</ele>
        <time>2025-07-15T07:02:51Z</time>
      </trkpt>
      <trkpt lat="44.11736" lon="6.90781">
        <ele>1214.6</ele>
        <time>2025-07-15T07:02:57Z</time>
      </trkpt>
      <trkpt lat="44.11742" lon="6.90804">
        <ele>1215.6</ele>
        <time>2025-07-15T07:03:03Z</time>
      </trkpt>
      <trkpt lat="44.11743" lon="6.90808">
        <ele>1216</ele>
        <time>2025-07-15T07:03:04Z</time>
      </trkpt>
      <trkpt lat="44.11745" lon="6.90822">
        <ele>1216.6</ele>
        <time>2025-07-15T07:03:09Z</time>
      </trkpt>
      <trkpt lat="44.11747" lon="6.9083">
        <ele>1217.2</ele>
        <time>2025-07-15T07:03:11Z</time>
      </trkpt>
      <trkpt lat="44.1175" lon="6.90849">
        <ele>1218</ele>
        <time>2025-07-15T07:03:16Z</time>
      </trkpt>
      <trkpt lat="44.1175" lon="6.90857">
        <ele>1218.2</ele>
        <time>2025-07-15T07:03:18Z</time>
      </trkpt>
      <trkpt lat="44.11748" lon="6.90882">
        <ele>1218.8</ele>
        <time>2025-07-15T07:03:24Z</time>
      </trkpt>
      <trkpt lat="44.11746" lon="6.90897">
        <ele>1219.4</ele>
        <time>2025-07-15T07:03:28Z</time>
      </trkpt>
      <trkpt lat="44.11743" lon="6.90913">
        <ele>1219.8</ele>
        <time>2025-07-15T07:03:32Z</time>
      </trkpt>
      <trkpt lat="44.11734" lon="6.90943">
        <ele>1220.4</ele>
        <time>2025-07-15T07:03:40Z</time>
      </trkpt>
      <trkpt lat="44.11732" lon="6.90946">
        <ele>1220.4</ele>
        <time>2025-07-15T07:03:41Z</time>
      </trkpt>
      <trkpt lat="44.11728" lon="6.90962">
        <ele>1221</ele>
        <time>2025-07-15T07:03:45Z</time>
      </trkpt>
      <trkpt lat="44.11725" lon="6.90971">
        <ele>1221.4</ele>
        <time>2025-07-15T07:03:48Z</time>
      </trkpt>
      <trkpt lat="44.11723" lon="6.90977">
        <ele>1221.6</ele>
        <time>2025-07-15T07:03:50Z</time>
      </trkpt>
      <trkpt lat="44.11716" lon="6.90996">
        <ele>1222.2</ele>
        <time>2025-07-15T07:03:57Z</time>
      </trkpt>
      <trkpt lat="44.11714" lon="6.91">
        <ele>1222.4</ele>
        <time>2025-07-15T07:03:59Z</time>
      </trkpt>
      <trkpt lat="44.11706" lon="6.9101">
        <ele>1222.8</ele>
        <time>2025-07-15T07:04:04Z</time>
      </trkpt>
      <trkpt lat="44.11697" lon="6.91024">
        <ele>1223.4</ele>
        <time>2025-07-15T07:04:10Z</time>
      </trkpt>
      <trkpt lat="44.11694" lon="6.91033">
        <ele>1223.8</ele>
        <time>2025-07-15T07:04:13Z</time>
      </trkpt>
      <trkpt lat="44.11693" lon="6.91046">
        <ele>1224.2</ele>
        <time>2025-07-15T07:04:17Z</time>
      </trkpt>
      <trkpt lat="44.11696" lon="6.91064">
        <ele>1224.6</ele>
        <time>2025-07-15T07:04:22Z</time>
      </trkpt>
      <trkpt lat="44.11699" lon="6.91073">
        <ele>1224.6</ele>
        <time>2025-07-15T07:04:25Z</time>
      </trkpt>
      <trkpt lat="44.11714" lon="6.911">
        <ele>1225</ele>
        <time>2025-07-15T07:04:34Z</time>
      </trkpt>
      <trkpt lat="44.11722" lon="6.91117">
        <ele>1225.6</ele>
        <time>2025-07-15T07:04:40Z</time>
      </trkpt>
      <trkpt lat="44.11725" lon="6.91125">
        <ele>1226</ele>
        <time>2025-07-15T07:04:43Z</time>
      </trkpt>
      <trkpt lat="44.11726" lon="6.91138">
        <ele>1226.6</ele>
        <time>2025-07-15T07:04:48Z</time>
      </trkpt>
      <trkpt lat="44.11725" lon="6.91144">
        <ele>1227</ele>
        <time>2025-07-15T07:04:50Z</time>
      </trkpt>
      <trkpt lat="44.11722" lon="6.9116">
        <ele>1227.6</ele>
        <time>2025-07-15T07:04:56Z</time>
      </trkpt>
      <trkpt lat="44.11718" lon="6.91172">
        <ele>1228.4</ele>
        <time>2025-07-15T07:05:01Z</time>
      </trkpt>
      <trkpt lat="44.11717" lon="6.91178">
        <ele>1228.6</ele>
        <time>2025-07-15T07:05:03Z</time>
      </trkpt>
      <trkpt lat="44.11712" lon="6.91195">
        <ele>1229.6</ele>
        <time>2025-07-15T07:05:09Z</time>
      </trkpt>
      <trkpt lat="44.11708" lon="6.91211">
        <ele>1230.6</ele>
        <time>2025-07-15T07:05:15Z</time>
      </trkpt>
      <trkpt lat="44.11706" lon="6.91231">
        <ele>1231.6</ele>
        <time>2025-07-15T07:05:22Z</time>
      </trkpt>
      <trkpt lat="44.11706" lon="6.91235">
        <ele>1231.8</ele>
        <time>2025-07-15T07:05:23Z</time>
      </trkpt>
      <trkpt lat="44.11705" lon="6.91252">
        <ele>1233</ele>
        <time>2025-07-15T07:05:29Z</time>
      </trkpt>
      <trkpt lat="44.11704" lon="6.9126">
        <ele>1233.6</ele>
        <time>2025-07-15T07:05:32Z</time>
      </trkpt>
      <trkpt lat="44.11703" lon="6.9127">
        <ele>1234.2</ele>
        <time>2025-07-15T07:05:36Z</time>
      </trkpt>
      <trkpt lat="44.11702" lon="6.9129">
        <ele>1235</ele>
        <time>2025-07-15T07:05:43Z</time>
      </trkpt>
      <trkpt lat="44.11702" lon="6.91296">
        <ele>1235.2</ele>
        <time>2025-07-15T07:05:45Z</time>
      </trkpt>
      <trkpt lat="44.11701" lon="6.91314">
        <ele>1236.2</ele>
        <time>2025-07-15T07:05:52Z</time>
      </trkpt>
      <trkpt lat="44.11701" lon="6.91319">
        <ele>1236.4</ele>
        <time>2025-07-15T07:05:54Z</time>
      </trkpt>
      <trkpt lat="44.117" lon="6.91335">
        <ele>1237.4</ele>
        <time>2025-07-15T07:06:00Z</time>
      </trkpt>
      <trkpt lat="44.11699" lon="6.91351">
        <ele>1238.4</ele>
        <time>2025-07-15T07:06:06Z</time>
      </trkpt>
      <trkpt lat="44.11699" lon="6.91353">
        <ele>1238.6</ele>
        <time>2025-07-15T07:06:07Z</time>
      </trkpt>
      <trkpt lat="44.11699" lon="6.91371">
        <ele>1239.6</ele>
        <time>2025-07-15T07:06:14Z</time>
      </trkpt>
      <trkpt lat="44.11698" lon="6.91382">
        <ele>1240</ele>
        <time>2025-07-15T07:06:18Z</time>
      </trkpt>
      <trkpt lat="44.11699" lon="6.91396">
        <ele>1240.6</ele>
        <time>2025-07-15T07:06:23Z</time>
      </trkpt>
      <trkpt lat="44.11699" lon="6.91404">
        <ele>1241.2</ele>
        <time>2025-07-15T07:06:26Z</time>
      </trkpt>
      <trkpt lat="44.11701" lon="6.91417">
        <ele>1241.8</ele>
        <time>2025-07-15T07:06:31Z</time>
      </trkpt>
      <trkpt lat="44.11702" lon="6.91428">
        <ele>1242.4</ele>
        <time>2025-07-15T07:06:35Z</time>
      </trkpt>
      <trkpt lat="44.11703" lon="6.91436">
        <ele>1242.8</ele>
        <time>2025-07-15T07:06:38Z</time>
      </trkpt>
      <trkpt lat="44.11704" lon="6.91455">
        <ele>1244</ele>
        <time>2025-07-15T07:06:45Z</time>
      </trkpt>
      <trkpt lat="44.11704" lon="6.91458">
        <ele>1244</ele>
        <time>2025-07-15T07:06:46Z</time>
      </trkpt>
      <trkpt lat="44.11702" lon="6.91476">
        <ele>1245</ele>
        <time>2025-07-15T07:06:53Z</time>
      </trkpt>
      <trkpt lat="44.11701" lon="6.91483">
        <ele>1245.4</ele>
        <time>2025-07-15T07:06:56Z</time>
      </trkpt>
      <trkpt lat="44.11699" lon="6.91491">
        <ele>1246</ele>
        <time>2025-07-15T07:06:59Z</time>
      </trkpt>
      <trkpt lat="44.11696" lon="6.91498">
        <ele>1246.4</ele>
        <time>2025-07-15T07:07:02Z</time>
      </trkpt>
      <trkpt lat="44.11693" lon="6.91508">
        <ele>1247</ele>
        <time>2025-07-15T07:07:06Z</time>
      </trkpt>
      <trkpt lat="44.1169" lon="6.91517">
        <ele>1247.4</ele>
        <time>2025-07-15T07:07:10Z</time>
      </trkpt>
      <trkpt lat="44.11686" lon="6.91524">
        <ele>1248</ele>
        <time>2025-07-15T07:07:13Z</time>
      </trkpt>
      <trkpt lat="44.11679" lon="6.91534">
        <ele>1248.8</ele>
        <time>2025-07-15T07:07:18Z</time>
      </trkpt>
      <trkpt lat="44.11678" lon="6.91536">
        <ele>1249.2</ele>
        <time>2025-07-15T07:07:19Z</time>
      </trkpt>
      <trkpt lat="44.11673" lon="6.91543">
        <ele>1250.2</ele>
        <time>2025-07-15T07:07:23Z</time>
      </trkpt>
      <trkpt lat="44.11666" lon="6.9155">
        <ele>1251.4</ele>
        <time>2025-07-15T07:07:27Z</time>
      </trkpt>
      <trkpt lat="44.11658" lon="6.91561">
        <ele>1252.4</ele>
        <time>2025-07-15T07:07:33Z</time>
      </trkpt>
      <trkpt lat="44.11655" lon="6.91567">
        <ele>1252.8</ele>
        <time>2025-07-15T07:07:36Z</time>
      </trkpt>
      <trkpt lat="44.11652" lon="6.91571">
        <ele>1253</ele>
        <time>2025-07-15T07:07:38Z</time>
      </trkpt>
      <trkpt lat="44.11649" lon="6.91578">
        <ele>1253.4</ele>
        <time>2025-07-15T07:07:41Z</time>
      </trkpt>
      <trkpt lat="44.11646" lon="6.91583">
        <ele>1253.6</ele>
        <time>2025-07-15T07:07:43Z</time>
      </trkpt>
      <trkpt lat="44.1164" lon="6.91593">
        <ele>1254.4</ele>
        <time>2025-07-15T07:07:48Z</time>
      </trkpt>
      <trkpt lat="44.11638" lon="6.91597">
        <ele>1254.8</ele>
        <time>2025-07-15T07:07:50Z</time>
      </trkpt>
      <trkpt lat="44.11631" lon="6.91609">
        <ele>1255.4</ele>
        <time>2025-07-15T07:07:56Z</time>
      </trkpt>
      <trkpt lat="44.11627" lon="6.91615">
        <ele>1256</ele>
        <time>2025-07-15T07:07:59Z</time>
      </trkpt>
      <trkpt lat="44.1162" lon="6.91622">
        <ele>1256.4</ele>
        <time>2025-07-15T07:08:03Z</time>
      </trkpt>
      <trkpt lat="44.11612" lon="6.91629">
        <ele>1257.2</ele>
        <time>2025-07-15T07:08:08Z</time>
      </trkpt>
      <trkpt lat="44.1161" lon="6.91631">
        <ele>1257.6</ele>
        <time>2025-07-15T07:08:09Z</time>
      </trkpt>
      <trkpt lat="44.11599" lon="6.91641">
        <ele>1258.4</ele>
        <time>2025-07-15T07:08:16Z</time>
      </trkpt>
      <trkpt lat="44.11597" lon="6.91642">
        <ele>1258.4</ele>
        <time>2025-07-15T07:08:17Z</time>
      </trkpt>
      <trkpt lat="44.11595" lon="6.91643">
        <ele>1258.8</ele>
        <time>2025-07-15T07:08:18Z</time>
      </trkpt>
      <trkpt lat="44.11583" lon="6.91652">
        <ele>1259.8</ele>
        <time>2025-07-15T07:08:25Z</time>
      </trkpt>
      <trkpt lat="44.11572" lon="6.91671">
        <ele>1260.4</ele>
        <time>2025-07-15T07:08:34Z</time>
      </trkpt>
      <trkpt lat="44.11571" lon="6.91679">
        <ele>1260.8</ele>
        <time>2025-07-15T07:08:37Z</time>
      </trkpt>
      <trkpt lat="44.1157" lon="6.91691">
        <ele>1261.4</ele>
        <time>2025-07-15T07:08:41Z</time>
      </trkpt>
      <trkpt lat="44.1157" lon="6.91698">
        <ele>1262.2</ele>
        <time>2025-07-15T07:08:44Z</time>
      </trkpt>
      <trkpt lat="44.11569" lon="6.91713">
        <ele>1262.8</ele>
        <time>2025-07-15T07:08:49Z</time>
      </trkpt>
      <trkpt lat="44.11569" lon="6.91724">
        <ele>1263.4</ele>
        <time>2025-07-15T07:08:53Z</time>
      </trkpt>
      <trkpt lat="44.11569" lon="6.91744">
        <ele>1264.4</ele>
        <time>2025-07-15T07:09:00Z</time>
      </trkpt>
      <trkpt lat="44.11569" lon="6.91759">
        <ele>1265.4</ele>
        <time>2025-07-15T07:09:05Z</time>
      </trkpt>
      <trkpt lat="44.11568" lon="6.91774">
        <ele>1265.6</ele>
        <time>2025-07-15T07:09:10Z</time>
      </trkpt>
      <trkpt lat="44.11564" lon="6.91788">
        <ele>1266.4</ele>
        <time>2025-07-15T07:09:15Z</time>
      </trkpt>
      <trkpt lat="44.11563" lon="6.91791">
        <ele>1266.6</ele>
        <time>2025-07-15T07:09:16Z</time>
      </trkpt>
      <trkpt lat="44.1156" lon="6.91801">
        <ele>1267.6</ele>
        <time>2025-07-15T07:09:20Z</time>
      </trkpt>
      <trkpt lat="44.11555" lon="6.91811">
        <ele>1268.6</ele>
        <time>2025-07-15T07:09:24Z</time>
      </trkpt>
      <trkpt lat="44.1155" lon="6.91823">
        <ele>1269.8</ele>
        <time>2025-07-15T07:09:29Z</time>
      </trkpt>
      <trkpt lat="44.11547" lon="6.91828">
        <ele>1270</ele>
        <time>2025-07-15T07:09:31Z</time>
      </trkpt>
      <trkpt lat="44.11542" lon="6.91841">
        <ele>1270.8</ele>
        <time>2025-07-15T07:09:36Z</time>
      </trkpt>
      <trkpt lat="44.11538" lon="6.91851">
        <ele>1271.6</ele>
        <time>2025-07-15T07:09:40Z</time>
      </trkpt>
      <trkpt lat="44.11537" lon="6.91856">
        <ele>1271.8</ele>
        <time>2025-07-15T07:09:42Z</time>
      </trkpt>
      <trkpt lat="44.11535" lon="6.91864">
        <ele>1272.2</ele>
        <time>2025-07-15T07:09:45Z</time>
      </trkpt>
      <trkpt lat="44.11533" lon="6.91874">
        <ele>1273</ele>
        <time>2025-07-15T07:09:48Z</time>
      </trkpt>
      <trkpt lat="44.11532" lon="6.91891">
        <ele>1273.6</ele>
        <time>2025-07-15T07:09:54Z</time>
      </trkpt>
      <trkpt lat="44.11531" lon="6.91896">
        <ele>1274</ele>
        <time>2025-07-15T07:09:56Z</time>
      </trkpt>
      <trkpt lat="44.11529" lon="6.91913">
        <ele>1275.2</ele>
        <time>2025-07-15T07:10:02Z</time>
      </trkpt>
      <trkpt lat="44.11528" lon="6.91921">
        <ele>1275.6</ele>
        <time>2025-07-15T07:10:05Z</time>
      </trkpt>
      <trkpt lat="44.11527" lon="6.91928">
        <ele>1276.2</ele>
        <time>2025-07-15T07:10:07Z</time>
      </trkpt>
      <trkpt lat="44.11525" lon="6.91947">
        <ele>1277.4</ele>
        <time>2025-07-15T07:10:14Z</time>
      </trkpt>
      <trkpt lat="44.11524" lon="6.91966">
        <ele>1278.4</ele>
        <time>2025-07-15T07:10:20Z</time>
      </trkpt>
      <trkpt lat="44.11522" lon="6.91977">
        <ele>1279</ele>
        <time>2025-07-15T07:10:24Z</time>
      </trkpt>
      <trkpt lat="44.11521" lon="6.91991">
        <ele>1279.4</ele>
        <time>2025-07-15T07:10:29Z</time>
      </trkpt>
      <trkpt lat="44.11519" lon="6.92007">
        <ele>1280.6</ele>
        <time>2025-07-15T07:10:34Z</time>
      </trkpt>
      <trkpt lat="44.11516" lon="6.9203">
        <ele>1282</ele>
        <time>2025-07-15T07:10:42Z</time>
      </trkpt>
      <trkpt lat="44.11515" lon="6.92037">
        <ele>1282.2</ele>
        <time>2025-07-15T07:10:44Z</time>
      </trkpt>
      <trkpt lat="44.11514" lon="6.92051">
        <ele>1283</ele>
        <time>2025-07-15T07:10:49Z</time>
      </trkpt>
      <trkpt lat="44.11512" lon="6.92066">
        <ele>1283.6</ele>
        <time>2025-07-15T07:10:54Z</time>
      </trkpt>
      <trkpt lat="44.11511" lon="6.92072">
        <ele>1284</ele>
        <time>2025-07-15T07:10:56Z</time>
      </trkpt>
      <trkpt lat="44.11509" lon="6.92093">
        <ele>1285.2</ele>
        <time>2025-07-15T07:11:03Z</time>
      </trkpt>
      <trkpt lat="44.11506" lon="6.92111">
        <ele>1285.8</ele>
        <time>2025-07-15T07:11:09Z</time>
      </trkpt>
      <trkpt lat="44.11505" lon="6.92117">
        <ele>1286.2</ele>
        <time>2025-07-15T07:11:11Z</time>
      </trkpt>
      <trkpt lat="44.11502" lon="6.92134">
        <ele>1286.8</ele>
        <time>2025-07-15T07:11:17Z</time>
      </trkpt>
      <trkpt lat="44.11501" lon="6.92139">
        <ele>1287.2</ele>
        <time>2025-07-15T07:11:19Z</time>
      </trkpt>
      <trkpt lat="44.11501" lon="6.92153">
        <ele>1288.2</ele>
        <time>2025-07-15T07:11:24Z</time>
      </trkpt>
      <trkpt lat="44.11501" lon="6.92159">
        <ele>1288.4</ele>
        <time>2025-07-15T07:11:26Z</time>
      </trkpt>
      <trkpt lat="44.11501" lon="6.92171">
        <ele>1289.4</ele>
        <time>2025-07-15T07:11:30Z</time>
      </trkpt>
      <trkpt lat="44.115" lon="6.92188">
        <ele>1290.4</ele>
        <time>2025-07-15T07:11:36Z</time>
      </trkpt>
      <trkpt lat="44.115" lon="6.92191">
        <ele>1290.4</ele>
        <time>2025-07-15T07:11:37Z</time>
      </trkpt>
      <trkpt lat="44.11497" lon="6.92209">
        <ele>1291.4</ele>
        <time>2025-07-15T07:11:43Z</time>
      </trkpt>
      <trkpt lat="44.11495" lon="6.92215">
        <ele>1291.6</ele>
        <time>2025-07-15T07:11:45Z</time>
      </trkpt>
      <trkpt lat="44.1149" lon="6.92227">
        <ele>1292.6</ele>
        <time>2025-07-15T07:11:50Z</time>
      </trkpt>
      <trkpt lat="44.11482" lon="6.92237">
        <ele>1293.4</ele>
        <time>2025-07-15T07:11:55Z</time>
      </trkpt>
      <trkpt lat="44.11478" lon="6.9224">
        <ele>1293.6</ele>
        <time>2025-07-15T07:11:57Z</time>
      </trkpt>
      <trkpt lat="44.11468" lon="6.92244">
        <ele>1295</ele>
        <time>2025-07-15T07:12:02Z</time>
      </trkpt>
      <trkpt lat="44.11466" lon="6.92244">
        <ele>1295</ele>
        <time>2025-07-15T07:12:03Z</time>
      </trkpt>
      <trkpt lat="44.11454" lon="6.9224">
        <ele>1296</ele>
        <time>2025-07-15T07:12:08Z</time>
      </trkpt>
      <trkpt lat="44.1145" lon="6.92237">
        <ele>1296.4</ele>
        <time>2025-07-15T07:12:10Z</time>
      </trkpt>
      <trkpt lat="44.11439" lon="6.92223">
        <ele>1296.8</ele>
        <time>2025-07-15T07:12:16Z</time>
      </trkpt>
      <trkpt lat="44.11438" lon="6.92206">
        <ele>1297</ele>
        <time>2025-07-15T07:12:21Z</time>
      </trkpt>
      <trkpt lat="44.11439" lon="6.92201">
        <ele>1297</ele>
        <time>2025-07-15T07:12:22Z</time>
      </trkpt>
      <trkpt lat="44.11438" lon="6.92182">
        <ele>1297.6</ele>
        <time>2025-07-15T07:12:28Z</time>
      </trkpt>
      <trkpt lat="44.11437" lon="6.9217">
        <ele>1298.2</ele>
        <time>2025-07-15T07:12:32Z</time>
      </trkpt>
      <trkpt lat="44.11436" lon="6.9216">
        <ele>1298.6</ele>
        <time>2025-07-15T07:12:35Z</time>
      </trkpt>
      <trkpt lat="44.11434" lon="6.92142">
        <ele>1299.2</ele>
        <time>2025-07-15T07:12:41Z</time>
      </trkpt>
      <trkpt lat="44.11433" lon="6.92134">
        <ele>1299.4</ele>
        <time>2025-07-15T07:12:43Z</time>
      </trkpt>
      <trkpt lat="44.11433" lon="6.92122">
        <ele>1300.2</ele>
        <time>2025-07-15T07:12:47Z</time>
      </trkpt>
      <trkpt lat="44.11432" lon="6.9211">
        <ele>1300.8</ele>
        <time>2025-07-15T07:12:51Z</time>
      </trkpt>
      <trkpt lat="44.11431" lon="6.92103">
        <ele>1301</ele>
        <time>2025-07-15T07:12:53Z</time>
      </trkpt>
      <trkpt lat="44.1143" lon="6.92085">
        <ele>1302</ele>
        <time>2025-07-15T07:12:59Z</time>
      </trkpt>
      <trkpt lat="44.11429" lon="6.92067">
        <ele>1303.2</ele>
        <time>2025-07-15T07:13:05Z</time>
      </trkpt>
      <trkpt lat="44.11428" lon="6.92059">
        <ele>1303.6</ele>
        <time>2025-07-15T07:13:08Z</time>
      </trkpt>
      <trkpt lat="44.11425" lon="6.92048">
        <ele>1304.2</ele>
        <time>2025-07-15T07:13:12Z</time>
      </trkpt>
      <trkpt lat="44.11421" lon="6.92041">
        <ele>1305</ele>
        <time>2025-07-15T07:13:15Z</time>
      </trkpt>
      <trkpt lat="44.1142" lon="6.92039">
        <ele>1305</ele>
        <time>2025-07-15T07:13:16Z</time>
      </trkpt>
      <trkpt lat="44.11418" lon="6.92032">
        <ele>1305.2</ele>
        <time>2025-07-15T07:13:18Z</time>
      </trkpt>
      <trkpt lat="44.11416" lon="6.92027">
        <ele>1305.6</ele>
        <time>2025-07-15T07:13:20Z</time>
      </trkpt>
      <trkpt lat="44.11416" lon="6.92025">
        <ele>1305.6</ele>
        <time>2025-07-15T07:13:21Z</time>
      </trkpt>
      <trkpt lat="44.11417" lon="6.92018">
        <ele>1306</ele>
        <time>2025-07-15T07:13:24Z</time>
      </trkpt>
      <trkpt lat="44.11416" lon="6.92012">
        <ele>1306.2</ele>
        <time>2025-07-15T07:13:26Z</time>
      </trkpt>
      <trkpt lat="44.11415" lon="6.91999">
        <ele>1307</ele>
        <time>2025-07-15T07:13:29Z</time>
      </trkpt>
      <trkpt lat="44.11407" lon="6.91985">
        <ele>1307.6</ele>
        <time>2025-07-15T07:13:33Z</time>
      </trkpt>
      <trkpt lat="44.11402" lon="6.9197">
        <ele>1308</ele>
        <time>2025-07-15T07:13:37Z</time>
      </trkpt>
      <trkpt lat="44.11402" lon="6.91959">
        <ele>1308.8</ele>
        <time>2025-07-15T07:13:41Z</time>
      </trkpt>
      <trkpt lat="44.114" lon="6.91951">
        <ele>1309.2</ele>
        <time>2025-07-15T07:13:44Z</time>
      </trkpt>
      <trkpt lat="44.114" lon="6.91949">
        <ele>1309.4</ele>
        <time>2025-07-15T07:13:45Z</time>
      </trkpt>
      <trkpt lat="44.114" lon="6.91947">
        <ele>1310</ele>
        <time>2025-07-15T07:13:48Z</time>
      </trkpt>
      <trkpt lat="44.114" lon="6.9194">
        <ele>1310</ele>
        <time>2025-07-15T07:13:51Z</time>
      </trkpt>
      <trkpt lat="44.11398" lon="6.91929">
        <ele>1311</ele>
        <time>2025-07-15T07:13:55Z</time>
      </trkpt>
      <trkpt lat="44.11397" lon="6.91922">
        <ele>1311.2</ele>
        <time>2025-07-15T07:13:58Z</time>
      </trkpt>
      <trkpt lat="44.11396" lon="6.9192">
        <ele>1311.4</ele>
        <time>2025-07-15T07:13:59Z</time>
      </trkpt>
      <trkpt lat="44.11396" lon="6.91908">
        <ele>1312</ele>
        <time>2025-07-15T07:14:02Z</time>
      </trkpt>
      <trkpt lat="44.11389" lon="6.91878">
        <ele>1313.2</ele>
        <time>2025-07-15T07:14:09Z</time>
      </trkpt>
      <trkpt lat="44.11389" lon="6.9187">
        <ele>1313.4</ele>
        <time>2025-07-15T07:14:11Z</time>
      </trkpt>
      <trkpt lat="44.11388" lon="6.91867">
        <ele>1313.6</ele>
        <time>2025-07-15T07:14:12Z</time>
      </trkpt>
      <trkpt lat="44.11388" lon="6.91858">
        <ele>1314.2</ele>
        <time>2025-07-15T07:14:15Z</time>
      </trkpt>
      <trkpt lat="44.11388" lon="6.91854">
        <ele>1314.4</ele>
        <time>2025-07-15T07:14:16Z</time>
      </trkpt>
      <trkpt lat="44.11389" lon="6.91841">
        <ele>1315.2</ele>
        <time>2025-07-15T07:14:21Z</time>
      </trkpt>
      <trkpt lat="44.11389" lon="6.91838">
        <ele>1315.4</ele>
        <time>2025-07-15T07:14:22Z</time>
      </trkpt>
      <trkpt lat="44.1139" lon="6.91821">
        <ele>1316.2</ele>
        <time>2025-07-15T07:14:28Z</time>
      </trkpt>
      <trkpt lat="44.11392" lon="6.91808">
        <ele>1317</ele>
        <time>2025-07-15T07:14:32Z</time>
      </trkpt>
      <trkpt lat="44.11393" lon="6.91805">
        <ele>1317</ele>
        <time>2025-07-15T07:14:33Z</time>
      </trkpt>
      <trkpt lat="44.11396" lon="6.91796">
        <ele>1317.6</ele>
        <time>2025-07-15T07:14:36Z</time>
      </trkpt>
      <trkpt lat="44.114" lon="6.91792">
        <ele>1317.8</ele>
        <time>2025-07-15T07:14:38Z</time>
      </trkpt>
      <trkpt lat="44.11408" lon="6.91785">
        <ele>1318.2</ele>
        <time>2025-07-15T07:14:42Z</time>
      </trkpt>
      <trkpt lat="44.1141" lon="6.91784">
        <ele>1318.4</ele>
        <time>2025-07-15T07:14:43Z</time>
      </trkpt>
      <trkpt lat="44.1142" lon="6.91777">
        <ele>1319.4</ele>
        <time>2025-07-15T07:14:49Z</time>
      </trkpt>
      <trkpt lat="44.11424" lon="6.91761">
        <ele>1320.4</ele>
        <time>2025-07-15T07:14:54Z</time>
      </trkpt>
      <trkpt lat="44.11424" lon="6.91758">
        <ele>1320.6</ele>
        <time>2025-07-15T07:14:55Z</time>
      </trkpt>
      <trkpt lat="44.11422" lon="6.91741">
        <ele>1321.6</ele>
        <time>2025-07-15T07:15:00Z</time>
      </trkpt>
      <trkpt lat="44.11423" lon="6.91733">
        <ele>1322.2</ele>
        <time>2025-07-15T07:15:03Z</time>
      </trkpt>
      <trkpt lat="44.11424" lon="6.91724">
        <ele>1322.8</ele>
        <time>2025-07-15T07:15:06Z</time>
      </trkpt>
      <trkpt lat="44.11423" lon="6.91715">
        <ele>1323</ele>
        <time>2025-07-15T07:15:09Z</time>
      </trkpt>
      <trkpt lat="44.11418" lon="6.91712">
        <ele>1323.8</ele>
        <time>2025-07-15T07:15:12Z</time>
      </trkpt>
      <trkpt lat="44.11416" lon="6.91713">
        <ele>1324</ele>
        <time>2025-07-15T07:15:13Z</time>
      </trkpt>
      <trkpt lat="44.11414" lon="6.91715">
        <ele>1324</ele>
        <time>2025-07-15T07:15:14Z</time>
      </trkpt>
      <trkpt lat="44.11413" lon="6.91725">
        <ele>1324.2</ele>
        <time>2025-07-15T07:15:17Z</time>
      </trkpt>
      <trkpt lat="44.11415" lon="6.91748">
        <ele>1325</ele>
        <time>2025-07-15T07:15:24Z</time>
      </trkpt>
      <trkpt lat="44.11414" lon="6.91754">
        <ele>1325.2</ele>
        <time>2025-07-15T07:15:26Z</time>
      </trkpt>
      <trkpt lat="44.11408" lon="6.9176">
        <ele>1325.4</ele>
        <time>2025-07-15T07:15:29Z</time>
      </trkpt>
      <trkpt lat="44.11395" lon="6.91761">
        <ele>1326.2</ele>
        <time>2025-07-15T07:15:34Z</time>
      </trkpt>
      <trkpt lat="44.11386" lon="6.91759">
        <ele>1327.2</ele>
        <time>2025-07-15T07:15:38Z</time>
      </trkpt>
      <trkpt lat="44.11378" lon="6.9176">
        <ele>1327.8</ele>
        <time>2025-07-15T07:15:42Z</time>
      </trkpt>
      <trkpt lat="44.11373" lon="6.91764">
        <ele>1328.4</ele>
        <time>2025-07-15T07:15:45Z</time>
      </trkpt>
      <trkpt lat="44.11367" lon="6.91775">
        <ele>1329</ele>
        <time>2025-07-15T07:15:49Z</time>
      </trkpt>
      <trkpt lat="44.11364" lon="6.91783">
        <ele>1329.4</ele>
        <time>2025-07-15T07:15:52Z</time>
      </trkpt>
      <trkpt lat="44.11361" lon="6.91788">
        <ele>1329.6</ele>
        <time>2025-07-15T07:15:54Z</time>
      </trkpt>
      <trkpt lat="44.11359" lon="6.91802">
        <ele>1330.6</ele>
        <time>2025-07-15T07:15:58Z</time>
      </trkpt>
      <trkpt lat="44.11359" lon="6.91805">
        <ele>1330.8</ele>
        <time>2025-07-15T07:15:59Z</time>
      </trkpt>
      <trkpt lat="44.1136" lon="6.91819">
        <ele>1331.6</ele>
        <time>2025-07-15T07:16:03Z</time>
      </trkpt>
      <trkpt lat="44.1136" lon="6.91825">
        <ele>1331.8</ele>
        <time>2025-07-15T07:16:05Z</time>
      </trkpt>
      <trkpt lat="44.1136" lon="6.91829">
        <ele>1332</ele>
        <time>2025-07-15T07:16:06Z</time>
      </trkpt>
      <trkpt lat="44.11359" lon="6.91838">
        <ele>1332.4</ele>
        <time>2025-07-15T07:16:08Z</time>
      </trkpt>
      <trkpt lat="44.11355" lon="6.91854">
        <ele>1333.6</ele>
        <time>2025-07-15T07:16:12Z</time>
      </trkpt>
      <trkpt lat="44.11354" lon="6.91857">
        <ele>1333.8</ele>
        <time>2025-07-15T07:16:13Z</time>
      </trkpt>
      <trkpt lat="44.11347" lon="6.91882">
        <ele>1334.6</ele>
        <time>2025-07-15T07:16:20Z</time>
      </trkpt>
      <trkpt lat="44.11348" lon="6.91886">
        <ele>1335</ele>
        <time>2025-07-15T07:16:21Z</time>
      </trkpt>
      <trkpt lat="44.1135" lon="6.91904">
        <ele>1336</ele>
        <time>2025-07-15T07:16:26Z</time>
      </trkpt>
      <trkpt lat="44.11352" lon="6.9191">
        <ele>1336.4</ele>
        <time>2025-07-15T07:16:28Z</time>
      </trkpt>
      <trkpt lat="44.11355" lon="6.9192">
        <ele>1337</ele>
        <time>2025-07-15T07:16:31Z</time>
      </trkpt>
      <trkpt lat="44.11355" lon="6.9193">
        <ele>1337.6</ele>
        <time>2025-07-15T07:16:34Z</time>
      </trkpt>
      <trkpt lat="44.11354" lon="6.9194">
        <ele>1337.8</ele>
        <time>2025-07-15T07:16:37Z</time>
      </trkpt>
      <trkpt lat="44.11352" lon="6.91953">
        <ele>1338.4</ele>
        <time>2025-07-15T07:16:41Z</time>
      </trkpt>
      <trkpt lat="44.11352" lon="6.91968">
        <ele>1339</ele>
        <time>2025-07-15T07:16:45Z</time>
      </trkpt>
      <trkpt lat="44.11353" lon="6.91983">
        <ele>1339.8</ele>
        <time>2025-07-15T07:16:49Z</time>
      </trkpt>
      <trkpt lat="44.11353" lon="6.9199">
        <ele>1340.2</ele>
        <time>2025-07-15T07:16:51Z</time>
      </trkpt>
      <trkpt lat="44.11356" lon="6.92006">
        <ele>1341.2</ele>
        <time>2025-07-15T07:16:56Z</time>
      </trkpt>
      <trkpt lat="44.11358" lon="6.92013">
        <ele>1341.6</ele>
        <time>2025-07-15T07:16:58Z</time>
      </trkpt>
      <trkpt lat="44.11361" lon="6.9203">
        <ele>1342.2</ele>
        <time>2025-07-15T07:17:03Z</time>
      </trkpt>
      <trkpt lat="44.11361" lon="6.92033">
        <ele>1342.4</ele>
        <time>2025-07-15T07:17:04Z</time>
      </trkpt>
      <trkpt lat="44.1136" lon="6.92045">
        <ele>1342.8</ele>
        <time>2025-07-15T07:17:08Z</time>
      </trkpt>
      <trkpt lat="44.11361" lon="6.92055">
        <ele>1343.2</ele>
        <time>2025-07-15T07:17:11Z</time>
      </trkpt>
      <trkpt lat="44.11363" lon="6.92062">
        <ele>1343.4</ele>
        <time>2025-07-15T07:17:13Z</time>
      </trkpt>
      <trkpt lat="44.11363" lon="6.92087">
        <ele>1344.4</ele>
        <time>2025-07-15T07:17:20Z</time>
      </trkpt>
      <trkpt lat="44.11358" lon="6.92107">
        <ele>1345.2</ele>
        <time>2025-07-15T07:17:26Z</time>
      </trkpt>
      <trkpt lat="44.11358" lon="6.92111">
        <ele>1345.6</ele>
        <time>2025-07-15T07:17:27Z</time>
      </trkpt>
      <trkpt lat="44.11357" lon="6.92129">
        <ele>1346.2</ele>
        <time>2025-07-15T07:17:32Z</time>
      </trkpt>
      <trkpt lat="44.11355" lon="6.9213">
        <ele>1346.2</ele>
        <time>2025-07-15T07:17:33Z</time>
      </trkpt>
      <trkpt lat="44.11353" lon="6.92131">
        <ele>1346.6</ele>
        <time>2025-07-15T07:17:34Z</time>
      </trkpt>
      <trkpt lat="44.11351" lon="6.92131">
        <ele>1346.6</ele>
        <time>2025-07-15T07:17:35Z</time>
      </trkpt>
      <trkpt lat="44.11349" lon="6.92126">
        <ele>1347</ele>
        <time>2025-07-15T07:17:37Z</time>
      </trkpt>
      <trkpt lat="44.11349" lon="6.92123">
        <ele>1347.4</ele>
        <time>2025-07-15T07:17:38Z</time>
      </trkpt>
      <trkpt lat="44.1135" lon="6.9212">
        <ele>1347.8</ele>
        <time>2025-07-15T07:17:39Z</time>
      </trkpt>
      <trkpt lat="44.11353" lon="6.92111">
        <ele>1348.4</ele>
        <time>2025-07-15T07:17:42Z</time>
      </trkpt>
      <trkpt lat="44.11354" lon="6.92104">
        <ele>1348.8</ele>
        <time>2025-07-15T07:17:44Z</time>
      </trkpt>
      <trkpt lat="44.11357" lon="6.92086">
        <ele>1349.8</ele>
        <time>2025-07-15T07:17:49Z</time>
      </trkpt>
      <trkpt lat="44.11357" lon="6.92082">
        <ele>1350</ele>
        <time>2025-07-15T07:17:50Z</time>
      </trkpt>
      <trkpt lat="44.11359" lon="6.92063">
        <ele>1351</ele>
        <time>2025-07-15T07:17:55Z</time>
      </trkpt>
      <trkpt lat="44.11359" lon="6.92059">
        <ele>1351.4</ele>
        <time>2025-07-15T07:17:56Z</time>
      </trkpt>
      <trkpt lat="44.11356" lon="6.92044">
        <ele>1352</ele>
        <time>2025-07-15T07:18:00Z</time>
      </trkpt>
      <trkpt lat="44.11355" lon="6.92033">
        <ele>1352.4</ele>
        <time>2025-07-15T07:18:03Z</time>
      </trkpt>
      <trkpt lat="44.11348" lon="6.92014">
        <ele>1353.2</ele>
        <time>2025-07-15T07:18:09Z</time>
      </trkpt>
      <trkpt lat="44.11347" lon="6.92011">
        <ele>1353.2</ele>
        <time>2025-07-15T07:18:10Z</time>
      </trkpt>
      <trkpt lat="44.1134" lon="6.9199">
        <ele>1354.2</ele>
        <time>2025-07-15T07:18:16Z</time>
      </trkpt>
      <trkpt lat="44.11337" lon="6.9198">
        <ele>1354.8</ele>
        <time>2025-07-15T07:18:19Z</time>
      </trkpt>
      <trkpt lat="44.11335" lon="6.91971">
        <ele>1355.2</ele>
        <time>2025-07-15T07:18:22Z</time>
      </trkpt>
      <trkpt lat="44.11334" lon="6.91968">
        <ele>1355.6</ele>
        <time>2025-07-15T07:18:23Z</time>
      </trkpt>
      <trkpt lat="44.11334" lon="6.91965">
        <ele>1355.8</ele>
        <time>2025-07-15T07:18:24Z</time>
      </trkpt>
      <trkpt lat="44.11333" lon="6.91953">
        <ele>1356.2</ele>
        <time>2025-07-15T07:18:28Z</time>
      </trkpt>
      <trkpt lat="44.11332" lon="6.91943">
        <ele>1356.8</ele>
        <time>2025-07-15T07:18:31Z</time>
      </trkpt>
      <trkpt lat="44.11331" lon="6.91937">
        <ele>1357.2</ele>
        <time>2025-07-15T07:18:33Z</time>
      </trkpt>
      <trkpt lat="44.11325" lon="6.91926">
        <ele>1357.8</ele>
        <time>2025-07-15T07:18:37Z</time>
      </trkpt>
      <trkpt lat="44.1132" lon="6.91918">
        <ele>1358.2</ele>
        <time>2025-07-15T07:18:40Z</time>
      </trkpt>
      <trkpt lat="44.11313" lon="6.91906">
        <ele>1358.8</ele>
        <time>2025-07-15T07:18:44Z</time>
      </trkpt>
      <trkpt lat="44.11308" lon="6.91896">
        <ele>1359.4</ele>
        <time>2025-07-15T07:18:47Z</time>
      </trkpt>
      <trkpt lat="44.11304" lon="6.91877">
        <ele>1360.2</ele>
        <time>2025-07-15T07:18:52Z</time>
      </trkpt>
      <trkpt lat="44.11304" lon="6.9187">
        <ele>1360.4</ele>
        <time>2025-07-15T07:18:54Z</time>
      </trkpt>
      <trkpt lat="44.1131" lon="6.91849">
        <ele>1361.6</ele>
        <time>2025-07-15T07:19:00Z</time>
      </trkpt>
      <trkpt lat="44.11316" lon="6.91833">
        <ele>1362.4</ele>
        <time>2025-07-15T07:19:05Z</time>
      </trkpt>
      <trkpt lat="44.11316" lon="6.9183">
        <ele>1362.8</ele>
        <time>2025-07-15T07:19:06Z</time>
      </trkpt>
      <trkpt lat="44.11319" lon="6.91816">
        <ele>1363.6</ele>
        <time>2025-07-15T07:19:10Z</time>
      </trkpt>
      <trkpt lat="44.11319" lon="6.91806">
        <ele>1364.2</ele>
        <time>2025-07-15T07:19:13Z</time>
      </trkpt>
      <trkpt lat="44.11318" lon="6.91791">
        <ele>1364.8</ele>
        <time>2025-07-15T07:19:17Z</time>
      </trkpt>
      <trkpt lat="44.11318" lon="6.91788">
        <ele>1365</ele>
        <time>2025-07-15T07:19:18Z</time>
      </trkpt>
      <trkpt lat="44.11318" lon="6.91773">
        <ele>1365.8</ele>
        <time>2025-07-15T07:19:23Z</time>
      </trkpt>
      <trkpt lat="44.11319" lon="6.9177">
        <ele>1365.8</ele>
        <time>2025-07-15T07:19:24Z</time>
      </trkpt>
      <trkpt lat="44.11321" lon="6.91768">
        <ele>1366</ele>
        <time>2025-07-15T07:19:25Z</time>
      </trkpt>
      <trkpt lat="44.11322" lon="6.91762">
        <ele>1366.2</ele>
        <time>2025-07-15T07:19:27Z</time>
      </trkpt>
      <trkpt lat="44.11323" lon="6.91752">
        <ele>1366.6</ele>
        <time>2025-07-15T07:19:30Z</time>
      </trkpt>
      <trkpt lat="44.11323" lon="6.91745">
        <ele>1367.2</ele>
        <time>2025-07-15T07:19:32Z</time>
      </trkpt>
      <trkpt lat="44.11327" lon="6.91729">
        <ele>1367.4</ele>
        <time>2025-07-15T07:19:36Z</time>
      </trkpt>
      <trkpt lat="44.1133" lon="6.91718">
        <ele>1368.2</ele>
        <time>2025-07-15T07:19:39Z</time>
      </trkpt>
      <trkpt lat="44.11334" lon="6.91712">
        <ele>1368.4</ele>
        <time>2025-07-15T07:19:41Z</time>
      </trkpt>
      <trkpt lat="44.11341" lon="6.91702">
        <ele>1369.2</ele>
        <time>2025-07-15T07:19:45Z</time>
      </trkpt>
      <trkpt lat="44.11346" lon="6.91686">
        <ele>1369.6</ele>
        <time>2025-07-15T07:19:49Z</time>
      </trkpt>
      <trkpt lat="44.11348" lon="6.91676">
        <ele>1370.2</ele>
        <time>2025-07-15T07:19:52Z</time>
      </trkpt>
      <trkpt lat="44.11349" lon="6.91673">
        <ele>1370.8</ele>
        <time>2025-07-15T07:19:53Z</time>
      </trkpt>
      <trkpt lat="44.1135" lon="6.9167">
        <ele>1371</ele>
        <time>2025-07-15T07:19:54Z</time>
      </trkpt>
      <trkpt lat="44.11352" lon="6.91659">
        <ele>1371.4</ele>
        <time>2025-07-15T07:19:57Z</time>
      </trkpt>
      <trkpt lat="44.11352" lon="6.91653">
        <ele>1371.8</ele>
        <time>2025-07-15T07:19:59Z</time>
      </trkpt>
      <trkpt lat="44.11354" lon="6.91643">
        <ele>1372.4</ele>
        <time>2025-07-15T07:20:02Z</time>
      </trkpt>
      <trkpt lat="44.11357" lon="6.91629">
        <ele>1373</ele>
        <time>2025-07-15T07:20:06Z</time>
      </trkpt>
      <trkpt lat="44.11356" lon="6.91621">
        <ele>1373.4</ele>
        <time>2025-07-15T07:20:08Z</time>
      </trkpt>
      <trkpt lat="44.11357" lon="6.91617">
        <ele>1373.6</ele>
        <time>2025-07-15T07:20:09Z</time>
      </trkpt>
      <trkpt lat="44.11359" lon="6.9161">
        <ele>1374</ele>
        <time>2025-07-15T07:20:11Z</time>
      </trkpt>
      <trkpt lat="44.1136" lon="6.91606">
        <ele>1374</ele>
        <time>2025-07-15T07:20:12Z</time>
      </trkpt>
      <trkpt lat="44.11363" lon="6.91595">
        <ele>1374.2</ele>
        <time>2025-07-15T07:20:15Z</time>
      </trkpt>
      <trkpt lat="44.11365" lon="6.91588">
        <ele>1374.8</ele>
        <time>2025-07-15T07:20:17Z</time>
      </trkpt>
      <trkpt lat="44.11373" lon="6.91574">
        <ele>1375.4</ele>
        <time>2025-07-15T07:20:21Z</time>
      </trkpt>
      <trkpt lat="44.11375" lon="6.91569">
        <ele>1375.4</ele>
        <time>2025-07-15T07:20:22Z</time>
      </trkpt>
      <trkpt lat="44.11382" lon="6.91559">
        <ele>1376.2</ele>
        <time>2025-07-15T07:20:26Z</time>
      </trkpt>
      <trkpt lat="44.11383" lon="6.91553">
        <ele>1376.4</ele>
        <time>2025-07-15T07:20:28Z</time>
      </trkpt>
      <trkpt lat="44.11381" lon="6.91542">
        <ele>1377.2</ele>
        <time>2025-07-15T07:20:32Z</time>
      </trkpt>
      <trkpt lat="44.11378" lon="6.91543">
        <ele>1377.4</ele>
        <time>2025-07-15T07:20:33Z</time>
      </trkpt>
      <trkpt lat="44.11373" lon="6.91552">
        <ele>1378</ele>
        <time>2025-07-15T07:20:37Z</time>
      </trkpt>
      <trkpt lat="44.11367" lon="6.91572">
        <ele>1378.6</ele>
        <time>2025-07-15T07:20:43Z</time>
      </trkpt>
      <trkpt lat="44.11361" lon="6.91595">
        <ele>1379.2</ele>
        <time>2025-07-15T07:20:50Z</time>
      </trkpt>
      <trkpt lat="44.11357" lon="6.91605">
        <ele>1379.6</ele>
        <time>2025-07-15T07:20:53Z</time>
      </trkpt>
      <trkpt lat="44.11351" lon="6.91624">
        <ele>1380.2</ele>
        <time>2025-07-15T07:20:59Z</time>
      </trkpt>
      <trkpt lat="44.11349" lon="6.91629">
        <ele>1380.6</ele>
        <time>2025-07-15T07:21:01Z</time>
      </trkpt>
      <trkpt lat="44.11343" lon="6.9164">
        <ele>1381.2</ele>
        <time>2025-07-15T07:21:05Z</time>
      </trkpt>
      <trkpt lat="44.11339" lon="6.91647">
        <ele>1381.6</ele>
        <time>2025-07-15T07:21:07Z</time>
      </trkpt>
      <trkpt lat="44.11333" lon="6.91659">
        <ele>1382.6</ele>
        <time>2025-07-15T07:21:11Z</time>
      </trkpt>
      <trkpt lat="44.11329" lon="6.91665">
        <ele>1383</ele>
        <time>2025-07-15T07:21:13Z</time>
      </trkpt>
      <trkpt lat="44.11325" lon="6.91669">
        <ele>1383.4</ele>
        <time>2025-07-15T07:21:15Z</time>
      </trkpt>
      <trkpt lat="44.11322" lon="6.91671">
        <ele>1383.8</ele>
        <time>2025-07-15T07:21:16Z</time>
      </trkpt>
      <trkpt lat="44.11316" lon="6.91673">
        <ele>1384</ele>
        <time>2025-07-15T07:21:18Z</time>
      </trkpt>
      <trkpt lat="44.11314" lon="6.91674">
        <ele>1384</ele>
        <time>2025-07-15T07:21:19Z</time>
      </trkpt>
      <trkpt lat="44.11309" lon="6.91675">
        <ele>1384.4</ele>
        <time>2025-07-15T07:21:21Z</time>
      </trkpt>
      <trkpt lat="44.11304" lon="6.91678">
        <ele>1384.8</ele>
        <time>2025-07-15T07:21:23Z</time>
      </trkpt>
      <trkpt lat="44.11301" lon="6.91682">
        <ele>1385.2</ele>
        <time>2025-07-15T07:21:25Z</time>
      </trkpt>
      <trkpt lat="44.11298" lon="6.91684">
        <ele>1385.4</ele>
        <time>2025-07-15T07:21:26Z</time>
      </trkpt>
      <trkpt lat="44.11298" lon="6.91686">
        <ele>1385.6</ele>
        <time>2025-07-15T07:21:27Z</time>
      </trkpt>
      <trkpt lat="44.11296" lon="6.9169">
        <ele>1386</ele>
        <time>2025-07-15T07:21:29Z</time>
      </trkpt>
      <trkpt lat="44.11295" lon="6.91693">
        <ele>1386.4</ele>
        <time>2025-07-15T07:21:30Z</time>
      </trkpt>
      <trkpt lat="44.11297" lon="6.91711">
        <ele>1387.2</ele>
        <time>2025-07-15T07:21:34Z</time>
      </trkpt>
      <trkpt lat="44.11298" lon="6.91715">
        <ele>1387.6</ele>
        <time>2025-07-15T07:21:35Z</time>
      </trkpt>
      <trkpt lat="44.11296" lon="6.91722">
        <ele>1388</ele>
        <time>2025-07-15T07:21:37Z</time>
      </trkpt>
      <trkpt lat="44.11294" lon="6.91729">
        <ele>1388</ele>
        <time>2025-07-15T07:21:39Z</time>
      </trkpt>
      <trkpt lat="44.11291" lon="6.91736">
        <ele>1388.4</ele>
        <time>2025-07-15T07:21:41Z</time>
      </trkpt>
      <trkpt lat="44.11292" lon="6.91741">
        <ele>1388.6</ele>
        <time>2025-07-15T07:21:42Z</time>
      </trkpt>
      <trkpt lat="44.11293" lon="6.91746">
        <ele>1388.6</ele>
        <time>2025-07-15T07:21:43Z</time>
      </trkpt>
      <trkpt lat="44.11291" lon="6.91769">
        <ele>1389.6</ele>
        <time>2025-07-15T07:21:49Z</time>
      </trkpt>
      <trkpt lat="44.1129" lon="6.91785">
        <ele>1390.6</ele>
        <time>2025-07-15T07:21:54Z</time>
      </trkpt>
      <trkpt lat="44.11289" lon="6.91793">
        <ele>1391</ele>
        <time>2025-07-15T07:21:56Z</time>
      </trkpt>
      <trkpt lat="44.11288" lon="6.91796">
        <ele>1391</ele>
        <time>2025-07-15T07:21:57Z</time>
      </trkpt>
      <trkpt lat="44.11284" lon="6.91797">
        <ele>1391.2</ele>
        <time>2025-07-15T07:21:59Z</time>
      </trkpt>
      <trkpt lat="44.11283" lon="6.91795">
        <ele>1391.4</ele>
        <time>2025-07-15T07:22:00Z</time>
      </trkpt>
      <trkpt lat="44.11284" lon="6.91789">
        <ele>1391.8</ele>
        <time>2025-07-15T07:22:02Z</time>
      </trkpt>
      <trkpt lat="44.11285" lon="6.91778">
        <ele>1392.6</ele>
        <time>2025-07-15T07:22:05Z</time>
      </trkpt>
      <trkpt lat="44.11286" lon="6.9177">
        <ele>1393.2</ele>
        <time>2025-07-15T07:22:07Z</time>
      </trkpt>
      <trkpt lat="44.11285" lon="6.91762">
        <ele>1393.6</ele>
        <time>2025-07-15T07:22:09Z</time>
      </trkpt>
      <trkpt lat="44.11285" lon="6.91743">
        <ele>1394.4</ele>
        <time>2025-07-15T07:22:14Z</time>
      </trkpt>
      <trkpt lat="44.11285" lon="6.9174">
        <ele>1394.6</ele>
        <time>2025-07-15T07:22:15Z</time>
      </trkpt>
      <trkpt lat="44.11284" lon="6.91736">
        <ele>1394.8</ele>
        <time>2025-07-15T07:22:16Z</time>
      </trkpt>
      <trkpt lat="44.11284" lon="6.91729">
        <ele>1395.2</ele>
        <time>2025-07-15T07:22:18Z</time>
      </trkpt>
      <trkpt lat="44.11285" lon="6.91716">
        <ele>1395.8</ele>
        <time>2025-07-15T07:22:22Z</time>
      </trkpt>
      <trkpt lat="44.11285" lon="6.91713">
        <ele>1396</ele>
        <time>2025-07-15T07:22:23Z</time>
      </trkpt>
      <trkpt lat="44.11283" lon="6.91699">
        <ele>1396.8</ele>
        <time>2025-07-15T07:22:27Z</time>
      </trkpt>
      <trkpt lat="44.11283" lon="6.91696">
        <ele>1397</ele>
        <time>2025-07-15T07:22:28Z</time>
      </trkpt>
      <trkpt lat="44.11289" lon="6.91679">
        <ele>1398</ele>
        <time>2025-07-15T07:22:33Z</time>
      </trkpt>
      <trkpt lat="44.11291" lon="6.91678">
        <ele>1398.2</ele>
        <time>2025-07-15T07:22:34Z</time>
      </trkpt>
      <trkpt lat="44.113" lon="6.91666">
        <ele>1399</ele>
        <time>2025-07-15T07:22:39Z</time>
      </trkpt>
      <trkpt lat="44.11302" lon="6.9166">
        <ele>1399.4</ele>
        <time>2025-07-15T07:22:41Z</time>
      </trkpt>
      <trkpt lat="44.11304" lon="6.91654">
        <ele>1399.8</ele>
        <time>2025-07-15T07:22:43Z</time>
      </trkpt>
      <trkpt lat="44.11306" lon="6.91647">
        <ele>1399.8</ele>
        <time>2025-07-15T07:22:45Z</time>
      </trkpt>
      <trkpt lat="44.11308" lon="6.91636">
        <ele>1400.2</ele>
        <time>2025-07-15T07:22:48Z</time>
      </trkpt>
      <trkpt lat="44.11315" lon="6.91619">
        <ele>1401.6</ele>
        <time>2025-07-15T07:22:53Z</time>
      </trkpt>
      <trkpt lat="44.11319" lon="6.91591">
        <ele>1402.6</ele>
        <time>2025-07-15T07:23:00Z</time>
      </trkpt>
      <trkpt lat="44.11319" lon="6.91584">
        <ele>1403</ele>
        <time>2025-07-15T07:23:02Z</time>
      </trkpt>
      <trkpt lat="44.11324" lon="6.91571">
        <ele>1403.8</ele>
        <time>2025-07-15T07:23:06Z</time>
      </trkpt>
      <trkpt lat="44.11325" lon="6.91561">
        <ele>1404.2</ele>
        <time>2025-07-15T07:23:09Z</time>
      </trkpt>
      <trkpt lat="44.11331" lon="6.91546">
        <ele>1404.8</ele>
        <time>2025-07-15T07:23:14Z</time>
      </trkpt>
      <trkpt lat="44.11332" lon="6.9154">
        <ele>1405.2</ele>
        <time>2025-07-15T07:23:16Z</time>
      </trkpt>
      <trkpt lat="44.11335" lon="6.91529">
        <ele>1406</ele>
        <time>2025-07-15T07:23:20Z</time>
      </trkpt>
      <trkpt lat="44.11338" lon="6.91524">
        <ele>1406.4</ele>
        <time>2025-07-15T07:23:22Z</time>
      </trkpt>
      <trkpt lat="44.11347" lon="6.91511">
        <ele>1407</ele>
        <time>2025-07-15T07:23:27Z</time>
      </trkpt>
      <trkpt lat="44.11349" lon="6.91508">
        <ele>1407.2</ele>
        <time>2025-07-15T07:23:28Z</time>
      </trkpt>
      <trkpt lat="44.11361" lon="6.91495">
        <ele>1408.4</ele>
        <time>2025-07-15T07:23:33Z</time>
      </trkpt>
      <trkpt lat="44.11363" lon="6.91491">
        <ele>1408.4</ele>
        <time>2025-07-15T07:23:34Z</time>
      </trkpt>
      <trkpt lat="44.11367" lon="6.91482">
        <ele>1409</ele>
        <time>2025-07-15T07:23:37Z</time>
      </trkpt>
      <trkpt lat="44.11367" lon="6.91474">
        <ele>1409.4</ele>
        <time>2025-07-15T07:23:39Z</time>
      </trkpt>
      <trkpt lat="44.11366" lon="6.91457">
        <ele>1410.6</ele>
        <time>2025-07-15T07:23:44Z</time>
      </trkpt>
      <trkpt lat="44.11366" lon="6.91453">
        <ele>1410.8</ele>
        <time>2025-07-15T07:23:45Z</time>
      </trkpt>
      <trkpt lat="44.11366" lon="6.91439">
        <ele>1411.8</ele>
        <time>2025-07-15T07:23:49Z</time>
      </trkpt>
      <trkpt lat="44.11368" lon="6.91433">
        <ele>1412.2</ele>
        <time>2025-07-15T07:23:51Z</time>
      </trkpt>
      <trkpt lat="44.11372" lon="6.91422">
        <ele>1412.8</ele>
        <time>2025-07-15T07:23:55Z</time>
      </trkpt>
      <trkpt lat="44.11373" lon="6.91418">
        <ele>1413</ele>
        <time>2025-07-15T07:23:56Z</time>
      </trkpt>
      <trkpt lat="44.11374" lon="6.91416">
        <ele>1413</ele>
        <time>2025-07-15T07:23:57Z</time>
      </trkpt>
      <trkpt lat="44.11378" lon="6.91405">
        <ele>1413.8</ele>
        <time>2025-07-15T07:24:01Z</time>
      </trkpt>
      <trkpt lat="44.1138" lon="6.91402">
        <ele>1414</ele>
        <time>2025-07-15T07:24:02Z</time>
      </trkpt>
      <trkpt lat="44.11392" lon="6.9139">
        <ele>1415</ele>
        <time>2025-07-15T07:24:08Z</time>
      </trkpt>
      <trkpt lat="44.11394" lon="6.91388">
        <ele>1415</ele>
        <time>2025-07-15T07:24:09Z</time>
      </trkpt>
      <trkpt lat="44.11407" lon="6.91379">
        <ele>1416</ele>
        <time>2025-07-15T07:24:15Z</time>
      </trkpt>
      <trkpt lat="44.1141" lon="6.91373">
        <ele>1416.4</ele>
        <time>2025-07-15T07:24:17Z</time>
      </trkpt>
      <trkpt lat="44.11413" lon="6.91361">
        <ele>1417</ele>
        <time>2025-07-15T07:24:21Z</time>
      </trkpt>
      <trkpt lat="44.11413" lon="6.91355">
        <ele>1417.4</ele>
        <time>2025-07-15T07:24:23Z</time>
      </trkpt>
      <trkpt lat="44.11412" lon="6.9134">
        <ele>1418.2</ele>
        <time>2025-07-15T07:24:28Z</time>
      </trkpt>
      <trkpt lat="44.11411" lon="6.91338">
        <ele>1418.4</ele>
        <time>2025-07-15T07:24:29Z</time>
      </trkpt>
      <trkpt lat="44.11411" lon="6.91335">
        <ele>1418.6</ele>
        <time>2025-07-15T07:24:30Z</time>
      </trkpt>
      <trkpt lat="44.11407" lon="6.91325">
        <ele>1419.2</ele>
        <time>2025-07-15T07:24:33Z</time>
      </trkpt>
      <trkpt lat="44.11399" lon="6.91312">
        <ele>1419.8</ele>
        <time>2025-07-15T07:24:37Z</time>
      </trkpt>
      <trkpt lat="44.11395" lon="6.91305">
        <ele>1420.4</ele>
        <time>2025-07-15T07:24:39Z</time>
      </trkpt>
      <trkpt lat="44.11377" lon="6.91282">
        <ele>1421.4</ele>
        <time>2025-07-15T07:24:47Z</time>
      </trkpt>
      <trkpt lat="44.1137" lon="6.91268">
        <ele>1422.4</ele>
        <time>2025-07-15T07:24:52Z</time>
      </trkpt>
      <trkpt lat="44.11367" lon="6.91264">
        <ele>1422.8</ele>
        <time>2025-07-15T07:24:54Z</time>
      </trkpt>
      <trkpt lat="44.11361" lon="6.91252">
        <ele>1423.4</ele>
        <time>2025-07-15T07:24:58Z</time>
      </trkpt>
      <trkpt lat="44.11358" lon="6.91246">
        <ele>1423.8</ele>
        <time>2025-07-15T07:25:00Z</time>
      </trkpt>
      <trkpt lat="44.11353" lon="6.91232">
        <ele>1424.8</ele>
        <time>2025-07-15T07:25:04Z</time>
      </trkpt>
      <trkpt lat="44.11348" lon="6.91221">
        <ele>1425.4</ele>
        <time>2025-07-15T07:25:07Z</time>
      </trkpt>
      <trkpt lat="44.11339" lon="6.91207">
        <ele>1426</ele>
        <time>2025-07-15T07:25:11Z</time>
      </trkpt>
      <trkpt lat="44.11334" lon="6.91205">
        <ele>1426.4</ele>
        <time>2025-07-15T07:25:13Z</time>
      </trkpt>
      <trkpt lat="44.1133" lon="6.91209">
        <ele>1426.6</ele>
        <time>2025-07-15T07:25:15Z</time>
      </trkpt>
      <trkpt lat="44.11329" lon="6.91212">
        <ele>1426.6</ele>
        <time>2025-07-15T07:25:16Z</time>
      </trkpt>
      <trkpt lat="44.11331" lon="6.91224">
        <ele>1427.2</ele>
        <time>2025-07-15T07:25:19Z</time>
      </trkpt>
      <trkpt lat="44.11335" lon="6.91231">
        <ele>1427.4</ele>
        <time>2025-07-15T07:25:21Z</time>
      </trkpt>
      <trkpt lat="44.11347" lon="6.91253">
        <ele>1428</ele>
        <time>2025-07-15T07:25:28Z</time>
      </trkpt>
      <trkpt lat="44.1135" lon="6.9126">
        <ele>1428.2</ele>
        <time>2025-07-15T07:25:30Z</time>
      </trkpt>
      <trkpt lat="44.11353" lon="6.91274">
        <ele>1428.8</ele>
        <time>2025-07-15T07:25:34Z</time>
      </trkpt>
      <trkpt lat="44.11356" lon="6.91284">
        <ele>1429.4</ele>
        <time>2025-07-15T07:25:37Z</time>
      </trkpt>
      <trkpt lat="44.11362" lon="6.91294">
        <ele>1429.8</ele>
        <time>2025-07-15T07:25:40Z</time>
      </trkpt>
      <trkpt lat="44.1137" lon="6.91305">
        <ele>1430.4</ele>
        <time>2025-07-15T07:25:44Z</time>
      </trkpt>
      <trkpt lat="44.11374" lon="6.9131">
        <ele>1431</ele>
        <time>2025-07-15T07:25:46Z</time>
      </trkpt>
      <trkpt lat="44.11379" lon="6.91319">
        <ele>1431.6</ele>
        <time>2025-07-15T07:25:49Z</time>
      </trkpt>
      <trkpt lat="44.11382" lon="6.91329">
        <ele>1432</ele>
        <time>2025-07-15T07:25:52Z</time>
      </trkpt>
      <trkpt lat="44.11379" lon="6.91345">
        <ele>1432.4</ele>
        <time>2025-07-15T07:25:57Z</time>
      </trkpt>
      <trkpt lat="44.11378" lon="6.91348">
        <ele>1432.6</ele>
        <time>2025-07-15T07:25:58Z</time>
      </trkpt>
      <trkpt lat="44.11369" lon="6.91358">
        <ele>1433.6</ele>
        <time>2025-07-15T07:26:03Z</time>
      </trkpt>
      <trkpt lat="44.11367" lon="6.9136">
        <ele>1433.8</ele>
        <time>2025-07-15T07:26:04Z</time>
      </trkpt>
      <trkpt lat="44.11358" lon="6.91369">
        <ele>1434.6</ele>
        <time>2025-07-15T07:26:09Z</time>
      </trkpt>
      <trkpt lat="44.11354" lon="6.91374">
        <ele>1435.2</ele>
        <time>2025-07-15T07:26:11Z</time>
      </trkpt>
      <trkpt lat="44.11352" lon="6.9138">
        <ele>1435.6</ele>
        <time>2025-07-15T07:26:13Z</time>
      </trkpt>
      <trkpt lat="44.11346" lon="6.91387">
        <ele>1436</ele>
        <time>2025-07-15T07:26:16Z</time>
      </trkpt>
      <trkpt lat="44.11343" lon="6.91389">
        <ele>1436.2</ele>
        <time>2025-07-15T07:26:17Z</time>
      </trkpt>
      <trkpt lat="44.1134" lon="6.91392">
        <ele>1436.4</ele>
        <time>2025-07-15T07:26:18Z</time>
      </trkpt>
      <trkpt lat="44.11334" lon="6.91405">
        <ele>1437</ele>
        <time>2025-07-15T07:26:22Z</time>
      </trkpt>
      <trkpt lat="44.11332" lon="6.91413">
        <ele>1437.4</ele>
        <time>2025-07-15T07:26:24Z</time>
      </trkpt>
      <trkpt lat="44.11329" lon="6.91423">
        <ele>1437.8</ele>
        <time>2025-07-15T07:26:27Z</time>
      </trkpt>
      <trkpt lat="44.11329" lon="6.91427">
        <ele>1437.8</ele>
        <time>2025-07-15T07:26:28Z</time>
      </trkpt>
      <trkpt lat="44.11325" lon="6.91436">
        <ele>1438.4</ele>
        <time>2025-07-15T07:26:31Z</time>
      </trkpt>
      <trkpt lat="44.1132" lon="6.9144">
        <ele>1438.6</ele>
        <time>2025-07-15T07:26:33Z</time>
      </trkpt>
      <trkpt lat="44.11311" lon="6.91448">
        <ele>1439.4</ele>
        <time>2025-07-15T07:26:37Z</time>
      </trkpt>
      <trkpt lat="44.11309" lon="6.9145">
        <ele>1439.6</ele>
        <time>2025-07-15T07:26:38Z</time>
      </trkpt>
      <trkpt lat="44.11303" lon="6.91457">
        <ele>1440</ele>
        <time>2025-07-15T07:26:41Z</time>
      </trkpt>
      <trkpt lat="44.11299" lon="6.91461">
        <ele>1440.2</ele>
        <time>2025-07-15T07:26:43Z</time>
      </trkpt>
      <trkpt lat="44.11297" lon="6.91464">
        <ele>1440.6</ele>
        <time>2025-07-15T07:26:44Z</time>
      </trkpt>
      <trkpt lat="44.11285" lon="6.91477">
        <ele>1441.6</ele>
        <time>2025-07-15T07:26:50Z</time>
      </trkpt>
      <trkpt lat="44.11279" lon="6.91484">
        <ele>1442.6</ele>
        <time>2025-07-15T07:26:53Z</time>
      </trkpt>
      <trkpt lat="44.11278" lon="6.91487">
        <ele>1442.8</ele>
        <time>2025-07-15T07:26:54Z</time>
      </trkpt>
      <trkpt lat="44.11269" lon="6.91498">
        <ele>1443.4</ele>
        <time>2025-07-15T07:26:59Z</time>
      </trkpt>
      <trkpt lat="44.11267" lon="6.91502">
        <ele>1443.8</ele>
        <time>2025-07-15T07:27:00Z</time>
      </trkpt>
      <trkpt lat="44.11261" lon="6.91516">
        <ele>1444.2</ele>
        <time>2025-07-15T07:27:04Z</time>
      </trkpt>
      <trkpt lat="44.11248" lon="6.9153">
        <ele>1445</ele>
        <time>2025-07-15T07:27:10Z</time>
      </trkpt>
      <trkpt lat="44.11231" lon="6.91538">
        <ele>1446</ele>
        <time>2025-07-15T07:27:17Z</time>
      </trkpt>
      <trkpt lat="44.11219" lon="6.9155">
        <ele>1446.8</ele>
        <time>2025-07-15T07:27:23Z</time>
      </trkpt>
      <trkpt lat="44.11217" lon="6.91552">
        <ele>1447.2</ele>
        <time>2025-07-15T07:27:24Z</time>
      </trkpt>
      <trkpt lat="44.11211" lon="6.91564">
        <ele>1448</ele>
        <time>2025-07-15T07:27:28Z</time>
      </trkpt>
      <trkpt lat="44.1121" lon="6.91566">
        <ele>1448</ele>
        <time>2025-07-15T07:27:29Z</time>
      </trkpt>
      <trkpt lat="44.11205" lon="6.91579">
        <ele>1448.6</ele>
        <time>2025-07-15T07:27:34Z</time>
      </trkpt>
      <trkpt lat="44.11202" lon="6.91593">
        <ele>1449.2</ele>
        <time>2025-07-15T07:27:38Z</time>
      </trkpt>
      <trkpt lat="44.112" lon="6.91603">
        <ele>1449.6</ele>
        <time>2025-07-15T07:27:41Z</time>
      </trkpt>
      <trkpt lat="44.11199" lon="6.91616">
        <ele>1450.2</ele>
        <time>2025-07-15T07:27:44Z</time>
      </trkpt>
      <trkpt lat="44.11199" lon="6.91624">
        <ele>1450.6</ele>
        <time>2025-07-15T07:27:46Z</time>
      </trkpt>
      <trkpt lat="44.11199" lon="6.91628">
        <ele>1450.8</ele>
        <time>2025-07-15T07:27:47Z</time>
      </trkpt>
      <trkpt lat="44.112" lon="6.91639">
        <ele>1451.4</ele>
        <time>2025-07-15T07:27:50Z</time>
      </trkpt>
      <trkpt lat="44.11201" lon="6.91657">
        <ele>1452.2</ele>
        <time>2025-07-15T07:27:55Z</time>
      </trkpt>
      <trkpt lat="44.11202" lon="6.91666">
        <ele>1452.6</ele>
        <time>2025-07-15T07:27:57Z</time>
      </trkpt>
      <trkpt lat="44.11205" lon="6.91685">
        <ele>1453.8</ele>
        <time>2025-07-15T07:28:02Z</time>
      </trkpt>
      <trkpt lat="44.11213" lon="6.91705">
        <ele>1454.6</ele>
        <time>2025-07-15T07:28:08Z</time>
      </trkpt>
      <trkpt lat="44.11211" lon="6.91712">
        <ele>1454.6</ele>
        <time>2025-07-15T07:28:10Z</time>
      </trkpt>
      <trkpt lat="44.11208" lon="6.91712">
        <ele>1454.8</ele>
        <time>2025-07-15T07:28:11Z</time>
      </trkpt>
      <trkpt lat="44.11203" lon="6.91708">
        <ele>1455.2</ele>
        <time>2025-07-15T07:28:13Z</time>
      </trkpt>
      <trkpt lat="44.112" lon="6.91694">
        <ele>1456</ele>
        <time>2025-07-15T07:28:17Z</time>
      </trkpt>
      <trkpt lat="44.112" lon="6.91691">
        <ele>1456.4</ele>
        <time>2025-07-15T07:28:18Z</time>
      </trkpt>
      <trkpt lat="44.112" lon="6.91682">
        <ele>1457</ele>
        <time>2025-07-15T07:28:21Z</time>
      </trkpt>
      <trkpt lat="44.11201" lon="6.9167">
        <ele>1457.8</ele>
        <time>2025-07-15T07:28:25Z</time>
      </trkpt>
      <trkpt lat="44.11202" lon="6.9166">
        <ele>1458.2</ele>
        <time>2025-07-15T07:28:28Z</time>
      </trkpt>
      <trkpt lat="44.112" lon="6.91649">
        <ele>1458.4</ele>
        <time>2025-07-15T07:28:31Z</time>
      </trkpt>
      <trkpt lat="44.11198" lon="6.91645">
        <ele>1458.8</ele>
        <time>2025-07-15T07:28:32Z</time>
      </trkpt>
      <trkpt lat="44.11197" lon="6.91633">
        <ele>1459.2</ele>
        <time>2025-07-15T07:28:35Z</time>
      </trkpt>
      <trkpt lat="44.1119" lon="6.91614">
        <ele>1459.8</ele>
        <time>2025-07-15T07:28:40Z</time>
      </trkpt>
      <trkpt lat="44.11188" lon="6.91606">
        <ele>1460.2</ele>
        <time>2025-07-15T07:28:42Z</time>
      </trkpt>
      <trkpt lat="44.11187" lon="6.91591">
        <ele>1460.8</ele>
        <time>2025-07-15T07:28:46Z</time>
      </trkpt>
      <trkpt lat="44.11186" lon="6.91579">
        <ele>1461.4</ele>
        <time>2025-07-15T07:28:49Z</time>
      </trkpt>
      <trkpt lat="44.11182" lon="6.91563">
        <ele>1462.2</ele>
        <time>2025-07-15T07:28:53Z</time>
      </trkpt>
      <trkpt lat="44.11177" lon="6.91559">
        <ele>1462.2</ele>
        <time>2025-07-15T07:28:55Z</time>
      </trkpt>
      <trkpt lat="44.11174" lon="6.9156">
        <ele>1462.4</ele>
        <time>2025-07-15T07:28:56Z</time>
      </trkpt>
      <trkpt lat="44.11172" lon="6.91562">
        <ele>1462.6</ele>
        <time>2025-07-15T07:28:57Z</time>
      </trkpt>
      <trkpt lat="44.11169" lon="6.91573">
        <ele>1463.4</ele>
        <time>2025-07-15T07:29:00Z</time>
      </trkpt>
      <trkpt lat="44.1117" lon="6.91585">
        <ele>1463.8</ele>
        <time>2025-07-15T07:29:03Z</time>
      </trkpt>
      <trkpt lat="44.11172" lon="6.91597">
        <ele>1464</ele>
        <time>2025-07-15T07:29:06Z</time>
      </trkpt>
      <trkpt lat="44.11174" lon="6.91613">
        <ele>1464.8</ele>
        <time>2025-07-15T07:29:10Z</time>
      </trkpt>
      <trkpt lat="44.11176" lon="6.91625">
        <ele>1465</ele>
        <time>2025-07-15T07:29:13Z</time>
      </trkpt>
      <trkpt lat="44.11176" lon="6.91641">
        <ele>1465.6</ele>
        <time>2025-07-15T07:29:17Z</time>
      </trkpt>
      <trkpt lat="44.11176" lon="6.91648">
        <ele>1465.8</ele>
        <time>2025-07-15T07:29:19Z</time>
      </trkpt>
      <trkpt lat="44.11174" lon="6.91671">
        <ele>1466.6</ele>
        <time>2025-07-15T07:29:25Z</time>
      </trkpt>
      <trkpt lat="44.11175" lon="6.91675">
        <ele>1466.8</ele>
        <time>2025-07-15T07:29:26Z</time>
      </trkpt>
      <trkpt lat="44.11176" lon="6.91694">
        <ele>1467.6</ele>
        <time>2025-07-15T07:29:31Z</time>
      </trkpt>
      <trkpt lat="44.11176" lon="6.91701">
        <ele>1467.6</ele>
        <time>2025-07-15T07:29:33Z</time>
      </trkpt>
      <trkpt lat="44.11177" lon="6.91708">
        <ele>1467.8</ele>
        <time>2025-07-15T07:29:35Z</time>
      </trkpt>
      <trkpt lat="44.11182" lon="6.91736">
        <ele>1468.6</ele>
        <time>2025-07-15T07:29:42Z</time>
      </trkpt>
      <trkpt lat="44.11182" lon="6.91739">
        <ele>1468.8</ele>
        <time>2025-07-15T07:29:43Z</time>
      </trkpt>
      <trkpt lat="44.11176" lon="6.91744">
        <ele>1469.2</ele>
        <time>2025-07-15T07:29:46Z</time>
      </trkpt>
      <trkpt lat="44.11174" lon="6.91734">
        <ele>1469.6</ele>
        <time>2025-07-15T07:29:49Z</time>
      </trkpt>
      <trkpt lat="44.11175" lon="6.91729">
        <ele>1469.6</ele>
        <time>2025-07-15T07:29:50Z</time>
      </trkpt>
      <trkpt lat="44.11173" lon="6.91712">
        <ele>1470.8</ele>
        <time>2025-07-15T07:29:54Z</time>
      </trkpt>
      <trkpt lat="44.11173" lon="6.91709">
        <ele>1470.8</ele>
        <time>2025-07-15T07:29:55Z</time>
      </trkpt>
      <trkpt lat="44.11171" lon="6.91692">
        <ele>1471.8</ele>
        <time>2025-07-15T07:30:00Z</time>
      </trkpt>
      <trkpt lat="44.11169" lon="6.91689">
        <ele>1471.8</ele>
        <time>2025-07-15T07:30:01Z</time>
      </trkpt>
      <trkpt lat="44.11169" lon="6.91685">
        <ele>1471.8</ele>
        <time>2025-07-15T07:30:02Z</time>
      </trkpt>
      <trkpt lat="44.11168" lon="6.91674">
        <ele>1472.2</ele>
        <time>2025-07-15T07:30:05Z</time>
      </trkpt>
      <trkpt lat="44.11166" lon="6.91659">
        <ele>1472.8</ele>
        <time>2025-07-15T07:30:09Z</time>
      </trkpt>
      <trkpt lat="44.11165" lon="6.91655">
        <ele>1473</ele>
        <time>2025-07-15T07:30:10Z</time>
      </trkpt>
      <trkpt lat="44.11163" lon="6.91651">
        <ele>1473.4</ele>
        <time>2025-07-15T07:30:11Z</time>
      </trkpt>
      <trkpt lat="44.11162" lon="6.91641">
        <ele>1473.8</ele>
        <time>2025-07-15T07:30:14Z</time>
      </trkpt>
      <trkpt lat="44.1116" lon="6.91636">
        <ele>1474.2</ele>
        <time>2025-07-15T07:30:16Z</time>
      </trkpt>
      <trkpt lat="44.11158" lon="6.91621">
        <ele>1475</ele>
        <time>2025-07-15T07:30:20Z</time>
      </trkpt>
      <trkpt lat="44.11152" lon="6.91613">
        <ele>1475.6</ele>
        <time>2025-07-15T07:30:22Z</time>
      </trkpt>
      <trkpt lat="44.11149" lon="6.91606">
        <ele>1476</ele>
        <time>2025-07-15T07:30:24Z</time>
      </trkpt>
      <trkpt lat="44.11148" lon="6.91602">
        <ele>1476.4</ele>
        <time>2025-07-15T07:30:25Z</time>
      </trkpt>
      <trkpt lat="44.11148" lon="6.91599">
        <ele>1476.8</ele>
        <time>2025-07-15T07:30:26Z</time>
      </trkpt>
      <trkpt lat="44.11145" lon="6.91588">
        <ele>1477.2</ele>
        <time>2025-07-15T07:30:29Z</time>
      </trkpt>
      <trkpt lat="44.11144" lon="6.91584">
        <ele>1477.6</ele>
        <time>2025-07-15T07:30:30Z</time>
      </trkpt>
      <trkpt lat="44.11139" lon="6.91565">
        <ele>1478.6</ele>
        <time>2025-07-15T07:30:36Z</time>
      </trkpt>
      <trkpt lat="44.11135" lon="6.91552">
        <ele>1479.2</ele>
        <time>2025-07-15T07:30:40Z</time>
      </trkpt>
      <trkpt lat="44.11126" lon="6.91546">
        <ele>1479.6</ele>
        <time>2025-07-15T07:30:42Z</time>
      </trkpt>
      <trkpt lat="44.11124" lon="6.91544">
        <ele>1479.8</ele>
        <time>2025-07-15T07:30:43Z</time>
      </trkpt>
      <trkpt lat="44.11116" lon="6.91523">
        <ele>1480.6</ele>
        <time>2025-07-15T07:30:48Z</time>
      </trkpt>
      <trkpt lat="44.11109" lon="6.91513">
        <ele>1481</ele>
        <time>2025-07-15T07:30:51Z</time>
      </trkpt>
      <trkpt lat="44.11101" lon="6.91506">
        <ele>1481.8</ele>
        <time>2025-07-15T07:30:55Z</time>
      </trkpt>
      <trkpt lat="44.11098" lon="6.91506">
        <ele>1481.8</ele>
        <time>2025-07-15T07:30:56Z</time>
      </trkpt>
      <trkpt lat="44.11082" lon="6.91508">
        <ele>1482.8</ele>
        <time>2025-07-15T07:31:02Z</time>
      </trkpt>
      <trkpt lat="44.11076" lon="6.91509">
        <ele>1482.8</ele>
        <time>2025-07-15T07:31:04Z</time>
      </trkpt>
      <trkpt lat="44.11063" lon="6.91507">
        <ele>1483.6</ele>
        <time>2025-07-15T07:31:09Z</time>
      </trkpt>
      <trkpt lat="44.11053" lon="6.91504">
        <ele>1484.4</ele>
        <time>2025-07-15T07:31:13Z</time>
      </trkpt>
      <trkpt lat="44.11049" lon="6.91502">
        <ele>1484.8</ele>
        <time>2025-07-15T07:31:15Z</time>
      </trkpt>
      <trkpt lat="44.1104" lon="6.91496">
        <ele>1485.6</ele>
        <time>2025-07-15T07:31:19Z</time>
      </trkpt>
      <trkpt lat="44.11035" lon="6.91492">
        <ele>1486</ele>
        <time>2025-07-15T07:31:21Z</time>
      </trkpt>
      <trkpt lat="44.11032" lon="6.9149">
        <ele>1486.2</ele>
        <time>2025-07-15T07:31:22Z</time>
      </trkpt>
      <trkpt lat="44.11019" lon="6.91482">
        <ele>1487</ele>
        <time>2025-07-15T07:31:27Z</time>
      </trkpt>
      <trkpt lat="44.11011" lon="6.91478">
        <ele>1487.6</ele>
        <time>2025-07-15T07:31:30Z</time>
      </trkpt>
      <trkpt lat="44.11001" lon="6.91477">
        <ele>1488.2</ele>
        <time>2025-07-15T07:31:34Z</time>
      </trkpt>
      <trkpt lat="44.10987" lon="6.91475">
        <ele>1489.2</ele>
        <time>2025-07-15T07:31:39Z</time>
      </trkpt>
      <trkpt lat="44.1097" lon="6.91474">
        <ele>1490.2</ele>
        <time>2025-07-15T07:31:46Z</time>
      </trkpt>
      <trkpt lat="44.10962" lon="6.91475">
        <ele>1490.6</ele>
        <time>2025-07-15T07:31:49Z</time>
      </trkpt>
      <trkpt lat="44.10957" lon="6.91477">
        <ele>1491.4</ele>
        <time>2025-07-15T07:31:51Z</time>
      </trkpt>
      <trkpt lat="44.10944" lon="6.9148">
        <ele>1492.4</ele>
        <time>2025-07-15T07:31:56Z</time>
      </trkpt>
      <trkpt lat="44.10935" lon="6.91482">
        <ele>1493</ele>
        <time>2025-07-15T07:31:59Z</time>
      </trkpt>
      <trkpt lat="44.1093" lon="6.91484">
        <ele>1493.4</ele>
        <time>2025-07-15T07:32:01Z</time>
      </trkpt>
      <trkpt lat="44.10916" lon="6.91485">
        <ele>1494.6</ele>
        <time>2025-07-15T07:32:06Z</time>
      </trkpt>
      <trkpt lat="44.10911" lon="6.91487">
        <ele>1494.8</ele>
        <time>2025-07-15T07:32:08Z</time>
      </trkpt>
      <trkpt lat="44.10899" lon="6.91496">
        <ele>1495.6</ele>
        <time>2025-07-15T07:32:13Z</time>
      </trkpt>
      <trkpt lat="44.10894" lon="6.91501">
        <ele>1496.2</ele>
        <time>2025-07-15T07:32:16Z</time>
      </trkpt>
      <trkpt lat="44.10886" lon="6.91511">
        <ele>1496.8</ele>
        <time>2025-07-15T07:32:19Z</time>
      </trkpt>
      <trkpt lat="44.10879" lon="6.91521">
        <ele>1497.2</ele>
        <time>2025-07-15T07:32:23Z</time>
      </trkpt>
      <trkpt lat="44.10869" lon="6.91538">
        <ele>1497.8</ele>
        <time>2025-07-15T07:32:29Z</time>
      </trkpt>
      <trkpt lat="44.10865" lon="6.91542">
        <ele>1498.2</ele>
        <time>2025-07-15T07:32:31Z</time>
      </trkpt>
      <trkpt lat="44.10857" lon="6.9156">
        <ele>1499</ele>
        <time>2025-07-15T07:32:37Z</time>
      </trkpt>
      <trkpt lat="44.10855" lon="6.91563">
        <ele>1499.2</ele>
        <time>2025-07-15T07:32:38Z</time>
      </trkpt>
      <trkpt lat="44.10844" lon="6.91584">
        <ele>1500</ele>
        <time>2025-07-15T07:32:46Z</time>
      </trkpt>
      <trkpt lat="44.10841" lon="6.9159">
        <ele>1500.4</ele>
        <time>2025-07-15T07:32:48Z</time>
      </trkpt>
      <trkpt lat="44.10836" lon="6.91598">
        <ele>1501.2</ele>
        <time>2025-07-15T07:32:51Z</time>
      </trkpt>
      <trkpt lat="44.10831" lon="6.91614">
        <ele>1501.8</ele>
        <time>2025-07-15T07:32:56Z</time>
      </trkpt>
      <trkpt lat="44.10827" lon="6.9162">
        <ele>1502.2</ele>
        <time>2025-07-15T07:32:58Z</time>
      </trkpt>
      <trkpt lat="44.10821" lon="6.9163">
        <ele>1503</ele>
        <time>2025-07-15T07:33:02Z</time>
      </trkpt>
      <trkpt lat="44.10817" lon="6.91635">
        <ele>1503.4</ele>
        <time>2025-07-15T07:33:04Z</time>
      </trkpt>
      <trkpt lat="44.10806" lon="6.91642">
        <ele>1504.2</ele>
        <time>2025-07-15T07:33:08Z</time>
      </trkpt>
      <trkpt lat="44.10803" lon="6.91643">
        <ele>1504.4</ele>
        <time>2025-07-15T07:33:09Z</time>
      </trkpt>
      <trkpt lat="44.10786" lon="6.91646">
        <ele>1505.4</ele>
        <time>2025-07-15T07:33:15Z</time>
      </trkpt>
      <trkpt lat="44.10773" lon="6.91646">
        <ele>1506.4</ele>
        <time>2025-07-15T07:33:20Z</time>
      </trkpt>
      <trkpt lat="44.10769" lon="6.91646">
        <ele>1506.8</ele>
        <time>2025-07-15T07:33:22Z</time>
      </trkpt>
      <trkpt lat="44.10764" lon="6.91644">
        <ele>1507.4</ele>
        <time>2025-07-15T07:33:24Z</time>
      </trkpt>
      <trkpt lat="44.10753" lon="6.91639">
        <ele>1508.4</ele>
        <time>2025-07-15T07:33:28Z</time>
      </trkpt>
      <trkpt lat="44.1075" lon="6.91638">
        <ele>1508.6</ele>
        <time>2025-07-15T07:33:29Z</time>
      </trkpt>
      <trkpt lat="44.10734" lon="6.9163">
        <ele>1509.8</ele>
        <time>2025-07-15T07:33:35Z</time>
      </trkpt>
      <trkpt lat="44.10732" lon="6.91629">
        <ele>1509.8</ele>
        <time>2025-07-15T07:33:36Z</time>
      </trkpt>
      <trkpt lat="44.10722" lon="6.91621">
        <ele>1510.8</ele>
        <time>2025-07-15T07:33:40Z</time>
      </trkpt>
      <trkpt lat="44.10711" lon="6.91611">
        <ele>1511.8</ele>
        <time>2025-07-15T07:33:45Z</time>
      </trkpt>
      <trkpt lat="44.10709" lon="6.91604">
        <ele>1512</ele>
        <time>2025-07-15T07:33:47Z</time>
      </trkpt>
      <trkpt lat="44.10707" lon="6.91594">
        <ele>1512.4</ele>
        <time>2025-07-15T07:33:50Z</time>
      </trkpt>
      <trkpt lat="44.10708" lon="6.9158">
        <ele>1513</ele>
        <time>2025-07-15T07:33:54Z</time>
      </trkpt>
      <trkpt lat="44.10707" lon="6.91562">
        <ele>1514.4</ele>
        <time>2025-07-15T07:33:59Z</time>
      </trkpt>
      <trkpt lat="44.10707" lon="6.91559">
        <ele>1514.4</ele>
        <time>2025-07-15T07:34:00Z</time>
      </trkpt>
      <trkpt lat="44.10707" lon="6.91543">
        <ele>1515.4</ele>
        <time>2025-07-15T07:34:04Z</time>
      </trkpt>
      <trkpt lat="44.10706" lon="6.91529">
        <ele>1516.2</ele>
        <time>2025-07-15T07:34:08Z</time>
      </trkpt>
      <trkpt lat="44.10706" lon="6.91525">
        <ele>1516.4</ele>
        <time>2025-07-15T07:34:09Z</time>
      </trkpt>
      <trkpt lat="44.107" lon="6.91514">
        <ele>1517.2</ele>
        <time>2025-07-15T07:34:13Z</time>
      </trkpt>
      <trkpt lat="44.10695" lon="6.91511">
        <ele>1517.4</ele>
        <time>2025-07-15T07:34:15Z</time>
      </trkpt>
      <trkpt lat="44.10689" lon="6.91512">
        <ele>1517.8</ele>
        <time>2025-07-15T07:34:17Z</time>
      </trkpt>
      <trkpt lat="44.1068" lon="6.91526">
        <ele>1518.2</ele>
        <time>2025-07-15T07:34:22Z</time>
      </trkpt>
      <trkpt lat="44.10677" lon="6.91532">
        <ele>1518.4</ele>
        <time>2025-07-15T07:34:24Z</time>
      </trkpt>
      <trkpt lat="44.10664" lon="6.91554">
        <ele>1519.6</ele>
        <time>2025-07-15T07:34:32Z</time>
      </trkpt>
      <trkpt lat="44.1066" lon="6.91559">
        <ele>1520</ele>
        <time>2025-07-15T07:34:34Z</time>
      </trkpt>
      <trkpt lat="44.10654" lon="6.91566">
        <ele>1520.8</ele>
        <time>2025-07-15T07:34:37Z</time>
      </trkpt>
      <trkpt lat="44.1064" lon="6.91583">
        <ele>1521.8</ele>
        <time>2025-07-15T07:34:44Z</time>
      </trkpt>
      <trkpt lat="44.10637" lon="6.91589">
        <ele>1522</ele>
        <time>2025-07-15T07:34:46Z</time>
      </trkpt>
      <trkpt lat="44.10634" lon="6.91603">
        <ele>1522.8</ele>
        <time>2025-07-15T07:34:50Z</time>
      </trkpt>
      <trkpt lat="44.10635" lon="6.91607">
        <ele>1523.2</ele>
        <time>2025-07-15T07:34:51Z</time>
      </trkpt>
      <trkpt lat="44.10643" lon="6.91628">
        <ele>1523.8</ele>
        <time>2025-07-15T07:34:57Z</time>
      </trkpt>
      <trkpt lat="44.1065" lon="6.91639">
        <ele>1524.4</ele>
        <time>2025-07-15T07:35:01Z</time>
      </trkpt>
      <trkpt lat="44.10663" lon="6.91657">
        <ele>1525.6</ele>
        <time>2025-07-15T07:35:07Z</time>
      </trkpt>
      <trkpt lat="44.10682" lon="6.91681">
        <ele>1526.2</ele>
        <time>2025-07-15T07:35:16Z</time>
      </trkpt>
      <trkpt lat="44.1069" lon="6.91688">
        <ele>1526.8</ele>
        <time>2025-07-15T07:35:19Z</time>
      </trkpt>
      <trkpt lat="44.10702" lon="6.91696">
        <ele>1527.8</ele>
        <time>2025-07-15T07:35:24Z</time>
      </trkpt>
      <trkpt lat="44.10715" lon="6.91701">
        <ele>1528.8</ele>
        <time>2025-07-15T07:35:29Z</time>
      </trkpt>
      <trkpt lat="44.1072" lon="6.91703">
        <ele>1529.2</ele>
        <time>2025-07-15T07:35:31Z</time>
      </trkpt>
      <trkpt lat="44.10728" lon="6.91705">
        <ele>1530</ele>
        <time>2025-07-15T07:35:34Z</time>
      </trkpt>
      <trkpt lat="44.10739" lon="6.9171">
        <ele>1530.8</ele>
        <time>2025-07-15T07:35:38Z</time>
      </trkpt>
      <trkpt lat="44.10744" lon="6.91712">
        <ele>1531.2</ele>
        <time>2025-07-15T07:35:40Z</time>
      </trkpt>
      <trkpt lat="44.10759" lon="6.91718">
        <ele>1532.2</ele>
        <time>2025-07-15T07:35:46Z</time>
      </trkpt>
      <trkpt lat="44.10764" lon="6.9172">
        <ele>1532.8</ele>
        <time>2025-07-15T07:35:48Z</time>
      </trkpt>
      <trkpt lat="44.10768" lon="6.91722">
        <ele>1533.6</ele>
        <time>2025-07-15T07:35:50Z</time>
      </trkpt>
      <trkpt lat="44.10783" lon="6.91726">
        <ele>1534.6</ele>
        <time>2025-07-15T07:35:55Z</time>
      </trkpt>
      <trkpt lat="44.10785" lon="6.91727">
        <ele>1534.6</ele>
        <time>2025-07-15T07:35:56Z</time>
      </trkpt>
      <trkpt lat="44.10801" lon="6.91731">
        <ele>1535.8</ele>
        <time>2025-07-15T07:36:02Z</time>
      </trkpt>
      <trkpt lat="44.10813" lon="6.91742">
        <ele>1536.6</ele>
        <time>2025-07-15T07:36:08Z</time>
      </trkpt>
      <trkpt lat="44.10815" lon="6.91745">
        <ele>1536.6</ele>
        <time>2025-07-15T07:36:09Z</time>
      </trkpt>
      <trkpt lat="44.10828" lon="6.91755">
        <ele>1537.6</ele>
        <time>2025-07-15T07:36:14Z</time>
      </trkpt>
      <trkpt lat="44.10835" lon="6.9176">
        <ele>1538.2</ele>
        <time>2025-07-15T07:36:17Z</time>
      </trkpt>
      <trkpt lat="44.10844" lon="6.91765">
        <ele>1538.6</ele>
        <time>2025-07-15T07:36:20Z</time>
      </trkpt>
      <trkpt lat="44.10862" lon="6.91772">
        <ele>1539.8</ele>
        <time>2025-07-15T07:36:27Z</time>
      </trkpt>
      <trkpt lat="44.10868" lon="6.91775">
        <ele>1540</ele>
        <time>2025-07-15T07:36:29Z</time>
      </trkpt>
      <trkpt lat="44.10869" lon="6.91781">
        <ele>1540.4</ele>
        <time>2025-07-15T07:36:31Z</time>
      </trkpt>
      <trkpt lat="44.10861" lon="6.91783">
        <ele>1540.6</ele>
        <time>2025-07-15T07:36:34Z</time>
      </trkpt>
      <trkpt lat="44.10852" lon="6.91777">
        <ele>1541</ele>
        <time>2025-07-15T07:36:37Z</time>
      </trkpt>
      <trkpt lat="44.10844" lon="6.91774">
        <ele>1541.6</ele>
        <time>2025-07-15T07:36:40Z</time>
      </trkpt>
      <trkpt lat="44.10832" lon="6.91768">
        <ele>1542</ele>
        <time>2025-07-15T07:36:44Z</time>
      </trkpt>
      <trkpt lat="44.10817" lon="6.91759">
        <ele>1543</ele>
        <time>2025-07-15T07:36:50Z</time>
      </trkpt>
      <trkpt lat="44.10812" lon="6.91757">
        <ele>1543.4</ele>
        <time>2025-07-15T07:36:52Z</time>
      </trkpt>
      <trkpt lat="44.10803" lon="6.91752">
        <ele>1544.2</ele>
        <time>2025-07-15T07:36:56Z</time>
      </trkpt>
      <trkpt lat="44.10795" lon="6.9175">
        <ele>1544.6</ele>
        <time>2025-07-15T07:36:59Z</time>
      </trkpt>
      <trkpt lat="44.10781" lon="6.91753">
        <ele>1545.2</ele>
        <time>2025-07-15T07:37:04Z</time>
      </trkpt>
      <trkpt lat="44.10772" lon="6.91754">
        <ele>1545.8</ele>
        <time>2025-07-15T07:37:07Z</time>
      </trkpt>
      <trkpt lat="44.10764" lon="6.91756">
        <ele>1546.2</ele>
        <time>2025-07-15T07:37:10Z</time>
      </trkpt>
      <trkpt lat="44.1075" lon="6.91759">
        <ele>1547</ele>
        <time>2025-07-15T07:37:15Z</time>
      </trkpt>
      <trkpt lat="44.10745" lon="6.91761">
        <ele>1547.4</ele>
        <time>2025-07-15T07:37:17Z</time>
      </trkpt>
      <trkpt lat="44.10727" lon="6.91771">
        <ele>1548.6</ele>
        <time>2025-07-15T07:37:24Z</time>
      </trkpt>
      <trkpt lat="44.10709" lon="6.91788">
        <ele>1549.6</ele>
        <time>2025-07-15T07:37:32Z</time>
      </trkpt>
      <trkpt lat="44.10707" lon="6.91791">
        <ele>1549.8</ele>
        <time>2025-07-15T07:37:33Z</time>
      </trkpt>
      <trkpt lat="44.10696" lon="6.91811">
        <ele>1550.8</ele>
        <time>2025-07-15T07:37:40Z</time>
      </trkpt>
      <trkpt lat="44.10695" lon="6.91815">
        <ele>1551</ele>
        <time>2025-07-15T07:37:41Z</time>
      </trkpt>
      <trkpt lat="44.10698" lon="6.91837">
        <ele>1551.8</ele>
        <time>2025-07-15T07:37:47Z</time>
      </trkpt>
      <trkpt lat="44.10699" lon="6.9184">
        <ele>1552</ele>
        <time>2025-07-15T07:37:48Z</time>
      </trkpt>
      <trkpt lat="44.1071" lon="6.91851">
        <ele>1552.8</ele>
        <time>2025-07-15T07:37:53Z</time>
      </trkpt>
      <trkpt lat="44.10711" lon="6.91853">
        <ele>1553</ele>
        <time>2025-07-15T07:37:54Z</time>
      </trkpt>
      <trkpt lat="44.10722" lon="6.91866">
        <ele>1554.2</ele>
        <time>2025-07-15T07:37:59Z</time>
      </trkpt>
      <trkpt lat="44.10724" lon="6.91868">
        <ele>1554.6</ele>
        <time>2025-07-15T07:38:00Z</time>
      </trkpt>
      <trkpt lat="44.10735" lon="6.91882">
        <ele>1555.2</ele>
        <time>2025-07-15T07:38:05Z</time>
      </trkpt>
      <trkpt lat="44.1074" lon="6.91887">
        <ele>1555.4</ele>
        <time>2025-07-15T07:38:07Z</time>
      </trkpt>
      <trkpt lat="44.10755" lon="6.91905">
        <ele>1556.4</ele>
        <time>2025-07-15T07:38:14Z</time>
      </trkpt>
      <trkpt lat="44.10757" lon="6.91908">
        <ele>1556.6</ele>
        <time>2025-07-15T07:38:15Z</time>
      </trkpt>
      <trkpt lat="44.10769" lon="6.91924">
        <ele>1557.4</ele>
        <time>2025-07-15T07:38:21Z</time>
      </trkpt>
      <trkpt lat="44.10777" lon="6.91935">
        <ele>1558.2</ele>
        <time>2025-07-15T07:38:25Z</time>
      </trkpt>
      <trkpt lat="44.10779" lon="6.91939">
        <ele>1558.6</ele>
        <time>2025-07-15T07:38:26Z</time>
      </trkpt>
      <trkpt lat="44.1079" lon="6.91965">
        <ele>1559.4</ele>
        <time>2025-07-15T07:38:34Z</time>
      </trkpt>
      <trkpt lat="44.10791" lon="6.91969">
        <ele>1559.6</ele>
        <time>2025-07-15T07:38:35Z</time>
      </trkpt>
      <trkpt lat="44.10793" lon="6.91975">
        <ele>1560</ele>
        <time>2025-07-15T07:38:37Z</time>
      </trkpt>
      <trkpt lat="44.10794" lon="6.91987">
        <ele>1560.8</ele>
        <time>2025-07-15T07:38:40Z</time>
      </trkpt>
      <trkpt lat="44.10796" lon="6.91994">
        <ele>1561.2</ele>
        <time>2025-07-15T07:38:42Z</time>
      </trkpt>
      <trkpt lat="44.108" lon="6.92012">
        <ele>1561.8</ele>
        <time>2025-07-15T07:38:47Z</time>
      </trkpt>
      <trkpt lat="44.10803" lon="6.9203">
        <ele>1562.8</ele>
        <time>2025-07-15T07:38:52Z</time>
      </trkpt>
      <trkpt lat="44.10804" lon="6.92033">
        <ele>1562.8</ele>
        <time>2025-07-15T07:38:53Z</time>
      </trkpt>
      <trkpt lat="44.10807" lon="6.92053">
        <ele>1564</ele>
        <time>2025-07-15T07:38:58Z</time>
      </trkpt>
      <trkpt lat="44.10807" lon="6.9206">
        <ele>1564.4</ele>
        <time>2025-07-15T07:39:00Z</time>
      </trkpt>
      <trkpt lat="44.10802" lon="6.92074">
        <ele>1565</ele>
        <time>2025-07-15T07:39:04Z</time>
      </trkpt>
      <trkpt lat="44.10799" lon="6.9208">
        <ele>1565.6</ele>
        <time>2025-07-15T07:39:06Z</time>
      </trkpt>
      <trkpt lat="44.10796" lon="6.92087">
        <ele>1566</ele>
        <time>2025-07-15T07:39:08Z</time>
      </trkpt>
      <trkpt lat="44.10786" lon="6.921">
        <ele>1566.8</ele>
        <time>2025-07-15T07:39:13Z</time>
      </trkpt>
      <trkpt lat="44.10781" lon="6.92105">
        <ele>1567.2</ele>
        <time>2025-07-15T07:39:15Z</time>
      </trkpt>
      <trkpt lat="44.10768" lon="6.92116">
        <ele>1568.2</ele>
        <time>2025-07-15T07:39:20Z</time>
      </trkpt>
      <trkpt lat="44.10764" lon="6.92119">
        <ele>1568.8</ele>
        <time>2025-07-15T07:39:22Z</time>
      </trkpt>
      <trkpt lat="44.10759" lon="6.92123">
        <ele>1569.4</ele>
        <time>2025-07-15T07:39:24Z</time>
      </trkpt>
      <trkpt lat="44.1075" lon="6.92138">
        <ele>1570.2</ele>
        <time>2025-07-15T07:39:29Z</time>
      </trkpt>
      <trkpt lat="44.10747" lon="6.92144">
        <ele>1570.6</ele>
        <time>2025-07-15T07:39:31Z</time>
      </trkpt>
      <trkpt lat="44.1074" lon="6.9216">
        <ele>1571.2</ele>
        <time>2025-07-15T07:39:36Z</time>
      </trkpt>
      <trkpt lat="44.10737" lon="6.92171">
        <ele>1571.8</ele>
        <time>2025-07-15T07:39:39Z</time>
      </trkpt>
      <trkpt lat="44.10734" lon="6.92189">
        <ele>1572.6</ele>
        <time>2025-07-15T07:39:44Z</time>
      </trkpt>
      <trkpt lat="44.10733" lon="6.92193">
        <ele>1573</ele>
        <time>2025-07-15T07:39:45Z</time>
      </trkpt>
      <trkpt lat="44.10731" lon="6.92211">
        <ele>1573.8</ele>
        <time>2025-07-15T07:39:50Z</time>
      </trkpt>
      <trkpt lat="44.10731" lon="6.92215">
        <ele>1574</ele>
        <time>2025-07-15T07:39:51Z</time>
      </trkpt>
      <trkpt lat="44.10727" lon="6.92245">
        <ele>1575</ele>
        <time>2025-07-15T07:39:59Z</time>
      </trkpt>
      <trkpt lat="44.10725" lon="6.92273">
        <ele>1576</ele>
        <time>2025-07-15T07:40:06Z</time>
      </trkpt>
      <trkpt lat="44.10722" lon="6.92289">
        <ele>1576.8</ele>
        <time>2025-07-15T07:40:10Z</time>
      </trkpt>
      <trkpt lat="44.10721" lon="6.92293">
        <ele>1577</ele>
        <time>2025-07-15T07:40:11Z</time>
      </trkpt>
      <trkpt lat="44.10717" lon="6.92314">
        <ele>1578</ele>
        <time>2025-07-15T07:40:17Z</time>
      </trkpt>
      <trkpt lat="44.10714" lon="6.92326">
        <ele>1578.2</ele>
        <time>2025-07-15T07:40:20Z</time>
      </trkpt>
      <trkpt lat="44.10711" lon="6.92341">
        <ele>1579</ele>
        <time>2025-07-15T07:40:24Z</time>
      </trkpt>
      <trkpt lat="44.10705" lon="6.92368">
        <ele>1580.2</ele>
        <time>2025-07-15T07:40:31Z</time>
      </trkpt>
      <trkpt lat="44.10704" lon="6.92371">
        <ele>1580.4</ele>
        <time>2025-07-15T07:40:32Z</time>
      </trkpt>
      <trkpt lat="44.10697" lon="6.92392">
        <ele>1581.2</ele>
        <time>2025-07-15T07:40:38Z</time>
      </trkpt>
      <trkpt lat="44.10696" lon="6.92396">
        <ele>1581.2</ele>
        <time>2025-07-15T07:40:39Z</time>
      </trkpt>
      <trkpt lat="44.1069" lon="6.92412">
        <ele>1582.4</ele>
        <time>2025-07-15T07:40:44Z</time>
      </trkpt>
      <trkpt lat="44.10687" lon="6.92429">
        <ele>1583.2</ele>
        <time>2025-07-15T07:40:49Z</time>
      </trkpt>
      <trkpt lat="44.10686" lon="6.92436">
        <ele>1583.6</ele>
        <time>2025-07-15T07:40:51Z</time>
      </trkpt>
      <trkpt lat="44.10682" lon="6.92461">
        <ele>1584.6</ele>
        <time>2025-07-15T07:40:58Z</time>
      </trkpt>
      <trkpt lat="44.10681" lon="6.92466">
        <ele>1584.8</ele>
        <time>2025-07-15T07:40:59Z</time>
      </trkpt>
      <trkpt lat="44.10676" lon="6.92488">
        <ele>1585.8</ele>
        <time>2025-07-15T07:41:05Z</time>
      </trkpt>
      <trkpt lat="44.10674" lon="6.92494">
        <ele>1586.2</ele>
        <time>2025-07-15T07:41:07Z</time>
      </trkpt>
      <trkpt lat="44.1067" lon="6.92505">
        <ele>1586.8</ele>
        <time>2025-07-15T07:41:10Z</time>
      </trkpt>
      <trkpt lat="44.10663" lon="6.92525">
        <ele>1587.6</ele>
        <time>2025-07-15T07:41:16Z</time>
      </trkpt>
      <trkpt lat="44.10662" lon="6.92528">
        <ele>1587.6</ele>
        <time>2025-07-15T07:41:17Z</time>
      </trkpt>
      <trkpt lat="44.10657" lon="6.92551">
        <ele>1588.8</ele>
        <time>2025-07-15T07:41:23Z</time>
      </trkpt>
      <trkpt lat="44.10656" lon="6.92559">
        <ele>1589.2</ele>
        <time>2025-07-15T07:41:25Z</time>
      </trkpt>
      <trkpt lat="44.10655" lon="6.92574">
        <ele>1590</ele>
        <time>2025-07-15T07:41:29Z</time>
      </trkpt>
      <trkpt lat="44.10656" lon="6.92593">
        <ele>1591.2</ele>
        <time>2025-07-15T07:41:34Z</time>
      </trkpt>
      <trkpt lat="44.10651" lon="6.92617">
        <ele>1592.2</ele>
        <time>2025-07-15T07:41:40Z</time>
      </trkpt>
      <trkpt lat="44.10643" lon="6.92623">
        <ele>1593.2</ele>
        <time>2025-07-15T07:41:44Z</time>
      </trkpt>
      <trkpt lat="44.10633" lon="6.92622">
        <ele>1594.2</ele>
        <time>2025-07-15T07:41:48Z</time>
      </trkpt>
      <trkpt lat="44.10631" lon="6.92621">
        <ele>1594.6</ele>
        <time>2025-07-15T07:41:49Z</time>
      </trkpt>
      <trkpt lat="44.10624" lon="6.92617">
        <ele>1595.6</ele>
        <time>2025-07-15T07:41:52Z</time>
      </trkpt>
      <trkpt lat="44.10619" lon="6.92615">
        <ele>1596.2</ele>
        <time>2025-07-15T07:41:54Z</time>
      </trkpt>
      <trkpt lat="44.10613" lon="6.92611">
        <ele>1596.8</ele>
        <time>2025-07-15T07:41:56Z</time>
      </trkpt>
      <trkpt lat="44.10603" lon="6.92607">
        <ele>1597.6</ele>
        <time>2025-07-15T07:42:00Z</time>
      </trkpt>
      <trkpt lat="44.10593" lon="6.92605">
        <ele>1598.8</ele>
        <time>2025-07-15T07:42:04Z</time>
      </trkpt>
      <trkpt lat="44.10579" lon="6.92606">
        <ele>1599.8</ele>
        <time>2025-07-15T07:42:09Z</time>
      </trkpt>
      <trkpt lat="44.10563" lon="6.92609">
        <ele>1600.8</ele>
        <time>2025-07-15T07:42:15Z</time>
      </trkpt>
      <trkpt lat="44.1056" lon="6.9261">
        <ele>1601</ele>
        <time>2025-07-15T07:42:16Z</time>
      </trkpt>
      <trkpt lat="44.10547" lon="6.92611">
        <ele>1602.2</ele>
        <time>2025-07-15T07:42:21Z</time>
      </trkpt>
      <trkpt lat="44.10543" lon="6.9261">
        <ele>1602.6</ele>
        <time>2025-07-15T07:42:23Z</time>
      </trkpt>
      <trkpt lat="44.10536" lon="6.92609">
        <ele>1603.2</ele>
        <time>2025-07-15T07:42:26Z</time>
      </trkpt>
      <trkpt lat="44.1052" lon="6.92606">
        <ele>1604.4</ele>
        <time>2025-07-15T07:42:32Z</time>
      </trkpt>
      <trkpt lat="44.10504" lon="6.92601">
        <ele>1605.2</ele>
        <time>2025-07-15T07:42:38Z</time>
      </trkpt>
      <trkpt lat="44.10497" lon="6.92597">
        <ele>1605.8</ele>
        <time>2025-07-15T07:42:41Z</time>
      </trkpt>
      <trkpt lat="44.1049" lon="6.92593">
        <ele>1606.4</ele>
        <time>2025-07-15T07:42:44Z</time>
      </trkpt>
      <trkpt lat="44.10476" lon="6.92585">
        <ele>1607.4</ele>
        <time>2025-07-15T07:42:50Z</time>
      </trkpt>
      <trkpt lat="44.1047" lon="6.92582">
        <ele>1607.8</ele>
        <time>2025-07-15T07:42:52Z</time>
      </trkpt>
      <trkpt lat="44.10459" lon="6.92575">
        <ele>1608.4</ele>
        <time>2025-07-15T07:42:57Z</time>
      </trkpt>
      <trkpt lat="44.10457" lon="6.92573">
        <ele>1608.4</ele>
        <time>2025-07-15T07:42:58Z</time>
      </trkpt>
      <trkpt lat="44.10445" lon="6.92566">
        <ele>1609</ele>
        <time>2025-07-15T07:43:03Z</time>
      </trkpt>
      <trkpt lat="44.1044" lon="6.9256">
        <ele>1609.4</ele>
        <time>2025-07-15T07:43:06Z</time>
      </trkpt>
      <trkpt lat="44.10428" lon="6.92548">
        <ele>1610</ele>
        <time>2025-07-15T07:43:12Z</time>
      </trkpt>
      <trkpt lat="44.10425" lon="6.92544">
        <ele>1610.2</ele>
        <time>2025-07-15T07:43:14Z</time>
      </trkpt>
      <trkpt lat="44.10413" lon="6.9253">
        <ele>1611.4</ele>
        <time>2025-07-15T07:43:20Z</time>
      </trkpt>
      <trkpt lat="44.10399" lon="6.92515">
        <ele>1612.4</ele>
        <time>2025-07-15T07:43:26Z</time>
      </trkpt>
      <trkpt lat="44.10395" lon="6.92511">
        <ele>1612.8</ele>
        <time>2025-07-15T07:43:28Z</time>
      </trkpt>
      <trkpt lat="44.10393" lon="6.92509">
        <ele>1612.8</ele>
        <time>2025-07-15T07:43:29Z</time>
      </trkpt>
      <trkpt lat="44.10386" lon="6.92503">
        <ele>1613.4</ele>
        <time>2025-07-15T07:43:32Z</time>
      </trkpt>
      <trkpt lat="44.10373" lon="6.92493">
        <ele>1614.6</ele>
        <time>2025-07-15T07:43:37Z</time>
      </trkpt>
      <trkpt lat="44.10357" lon="6.92484">
        <ele>1615.6</ele>
        <time>2025-07-15T07:43:43Z</time>
      </trkpt>
      <trkpt lat="44.10352" lon="6.92482">
        <ele>1616</ele>
        <time>2025-07-15T07:43:45Z</time>
      </trkpt>
      <trkpt lat="44.10341" lon="6.92479">
        <ele>1616.6</ele>
        <time>2025-07-15T07:43:49Z</time>
      </trkpt>
      <trkpt lat="44.1033" lon="6.92478">
        <ele>1617.6</ele>
        <time>2025-07-15T07:43:53Z</time>
      </trkpt>
      <trkpt lat="44.1031" lon="6.92475">
        <ele>1618.8</ele>
        <time>2025-07-15T07:44:00Z</time>
      </trkpt>
      <trkpt lat="44.10305" lon="6.92475">
        <ele>1619.2</ele>
        <time>2025-07-15T07:44:02Z</time>
      </trkpt>
      <trkpt lat="44.10302" lon="6.92474">
        <ele>1619.4</ele>
        <time>2025-07-15T07:44:03Z</time>
      </trkpt>
      <trkpt lat="44.10297" lon="6.92474">
        <ele>1620</ele>
        <time>2025-07-15T07:44:05Z</time>
      </trkpt>
      <trkpt lat="44.1028" lon="6.92473">
        <ele>1621</ele>
        <time>2025-07-15T07:44:11Z</time>
      </trkpt>
      <trkpt lat="44.10278" lon="6.92473">
        <ele>1621.2</ele>
        <time>2025-07-15T07:44:12Z</time>
      </trkpt>
      <trkpt lat="44.10259" lon="6.92471">
        <ele>1622.2</ele>
        <time>2025-07-15T07:44:19Z</time>
      </trkpt>
      <trkpt lat="44.10245" lon="6.9247">
        <ele>1623</ele>
        <time>2025-07-15T07:44:24Z</time>
      </trkpt>
      <trkpt lat="44.10242" lon="6.92469">
        <ele>1623.2</ele>
        <time>2025-07-15T07:44:25Z</time>
      </trkpt>
      <trkpt lat="44.10227" lon="6.92467">
        <ele>1624.2</ele>
        <time>2025-07-15T07:44:31Z</time>
      </trkpt>
      <trkpt lat="44.10221" lon="6.92467">
        <ele>1624.4</ele>
        <time>2025-07-15T07:44:33Z</time>
      </trkpt>
      <trkpt lat="44.10211" lon="6.92467">
        <ele>1625.2</ele>
        <time>2025-07-15T07:44:37Z</time>
      </trkpt>
      <trkpt lat="44.10198" lon="6.9247">
        <ele>1626</ele>
        <time>2025-07-15T07:44:42Z</time>
      </trkpt>
      <trkpt lat="44.10192" lon="6.92472">
        <ele>1626.4</ele>
        <time>2025-07-15T07:44:44Z</time>
      </trkpt>
      <trkpt lat="44.10176" lon="6.92475">
        <ele>1627.4</ele>
        <time>2025-07-15T07:44:50Z</time>
      </trkpt>
      <trkpt lat="44.10171" lon="6.92476">
        <ele>1627.8</ele>
        <time>2025-07-15T07:44:52Z</time>
      </trkpt>
      <trkpt lat="44.10158" lon="6.92479">
        <ele>1628.8</ele>
        <time>2025-07-15T07:44:57Z</time>
      </trkpt>
      <trkpt lat="44.10155" lon="6.9248">
        <ele>1629</ele>
        <time>2025-07-15T07:44:58Z</time>
      </trkpt>
      <trkpt lat="44.10144" lon="6.9248">
        <ele>1629.8</ele>
        <time>2025-07-15T07:45:02Z</time>
      </trkpt>
      <trkpt lat="44.10127" lon="6.92481">
        <ele>1631</ele>
        <time>2025-07-15T07:45:08Z</time>
      </trkpt>
      <trkpt lat="44.10111" lon="6.92483">
        <ele>1632</ele>
        <time>2025-07-15T07:45:14Z</time>
      </trkpt>
      <trkpt lat="44.10106" lon="6.92484">
        <ele>1632.6</ele>
        <time>2025-07-15T07:45:16Z</time>
      </trkpt>
      <trkpt lat="44.10095" lon="6.92487">
        <ele>1633.2</ele>
        <time>2025-07-15T07:45:20Z</time>
      </trkpt>
      <trkpt lat="44.10085" lon="6.92492">
        <ele>1633.8</ele>
        <time>2025-07-15T07:45:24Z</time>
      </trkpt>
      <trkpt lat="44.1008" lon="6.92495">
        <ele>1634.2</ele>
        <time>2025-07-15T07:45:26Z</time>
      </trkpt>
      <trkpt lat="44.10068" lon="6.92502">
        <ele>1635.2</ele>
        <time>2025-07-15T07:45:31Z</time>
      </trkpt>
      <trkpt lat="44.10057" lon="6.9251">
        <ele>1635.8</ele>
        <time>2025-07-15T07:45:35Z</time>
      </trkpt>
      <trkpt lat="44.10048" lon="6.9252">
        <ele>1636.2</ele>
        <time>2025-07-15T07:45:39Z</time>
      </trkpt>
      <trkpt lat="44.10042" lon="6.92531">
        <ele>1637</ele>
        <time>2025-07-15T07:45:43Z</time>
      </trkpt>
      <trkpt lat="44.1004" lon="6.92534">
        <ele>1637.2</ele>
        <time>2025-07-15T07:45:44Z</time>
      </trkpt>
      <trkpt lat="44.10024" lon="6.92552">
        <ele>1638.2</ele>
        <time>2025-07-15T07:45:51Z</time>
      </trkpt>
      <trkpt lat="44.10009" lon="6.92563">
        <ele>1639.2</ele>
        <time>2025-07-15T07:45:57Z</time>
      </trkpt>
      <trkpt lat="44.10007" lon="6.92563">
        <ele>1639.4</ele>
        <time>2025-07-15T07:45:58Z</time>
      </trkpt>
      <trkpt lat="44.09992" lon="6.92559">
        <ele>1640.4</ele>
        <time>2025-07-15T07:46:04Z</time>
      </trkpt>
      <trkpt lat="44.09983" lon="6.92555">
        <ele>1641.6</ele>
        <time>2025-07-15T07:46:08Z</time>
      </trkpt>
      <trkpt lat="44.09978" lon="6.92553">
        <ele>1642.2</ele>
        <time>2025-07-15T07:46:10Z</time>
      </trkpt>
      <trkpt lat="44.09973" lon="6.92549">
        <ele>1642.8</ele>
        <time>2025-07-15T07:46:12Z</time>
      </trkpt>
      <trkpt lat="44.09965" lon="6.92542">
        <ele>1643.6</ele>
        <time>2025-07-15T07:46:16Z</time>
      </trkpt>
      <trkpt lat="44.09963" lon="6.92539">
        <ele>1643.8</ele>
        <time>2025-07-15T07:46:17Z</time>
      </trkpt>
      <trkpt lat="44.09954" lon="6.9253">
        <ele>1644.6</ele>
        <time>2025-07-15T07:46:21Z</time>
      </trkpt>
      <trkpt lat="44.0995" lon="6.92525">
        <ele>1645</ele>
        <time>2025-07-15T07:46:23Z</time>
      </trkpt>
      <trkpt lat="44.09948" lon="6.92523">
        <ele>1645.2</ele>
        <time>2025-07-15T07:46:24Z</time>
      </trkpt>
      <trkpt lat="44.09945" lon="6.92519">
        <ele>1645.6</ele>
        <time>2025-07-15T07:46:26Z</time>
      </trkpt>
      <trkpt lat="44.09935" lon="6.92507">
        <ele>1646.8</ele>
        <time>2025-07-15T07:46:31Z</time>
      </trkpt>
      <trkpt lat="44.09923" lon="6.92495">
        <ele>1647.8</ele>
        <time>2025-07-15T07:46:36Z</time>
      </trkpt>
      <trkpt lat="44.09915" lon="6.9249">
        <ele>1648.2</ele>
        <time>2025-07-15T07:46:39Z</time>
      </trkpt>
      <trkpt lat="44.09907" lon="6.92483">
        <ele>1648.8</ele>
        <time>2025-07-15T07:46:42Z</time>
      </trkpt>
      <trkpt lat="44.09897" lon="6.92475">
        <ele>1649.6</ele>
        <time>2025-07-15T07:46:46Z</time>
      </trkpt>
      <trkpt lat="44.09892" lon="6.92471">
        <ele>1649.8</ele>
        <time>2025-07-15T07:46:48Z</time>
      </trkpt>
      <trkpt lat="44.09875" lon="6.92461">
        <ele>1650.6</ele>
        <time>2025-07-15T07:46:54Z</time>
      </trkpt>
      <trkpt lat="44.09873" lon="6.92459">
        <ele>1650.8</ele>
        <time>2025-07-15T07:46:55Z</time>
      </trkpt>
      <trkpt lat="44.09855" lon="6.92448">
        <ele>1651.8</ele>
        <time>2025-07-15T07:47:02Z</time>
      </trkpt>
      <trkpt lat="44.09847" lon="6.92444">
        <ele>1652</ele>
        <time>2025-07-15T07:47:05Z</time>
      </trkpt>
      <trkpt lat="44.09828" lon="6.92433">
        <ele>1652.6</ele>
        <time>2025-07-15T07:47:12Z</time>
      </trkpt>
      <trkpt lat="44.09826" lon="6.92432">
        <ele>1652.8</ele>
        <time>2025-07-15T07:47:13Z</time>
      </trkpt>
      <trkpt lat="44.09809" lon="6.92426">
        <ele>1653.8</ele>
        <time>2025-07-15T07:47:19Z</time>
      </trkpt>
      <trkpt lat="44.09803" lon="6.92426">
        <ele>1654.2</ele>
        <time>2025-07-15T07:47:21Z</time>
      </trkpt>
      <trkpt lat="44.09796" lon="6.92429">
        <ele>1655.2</ele>
        <time>2025-07-15T07:47:24Z</time>
      </trkpt>
      <trkpt lat="44.09783" lon="6.92438">
        <ele>1656.2</ele>
        <time>2025-07-15T07:47:30Z</time>
      </trkpt>
      <trkpt lat="44.09768" lon="6.92447">
        <ele>1657.4</ele>
        <time>2025-07-15T07:47:36Z</time>
      </trkpt>
      <trkpt lat="44.09763" lon="6.92449">
        <ele>1657.8</ele>
        <time>2025-07-15T07:47:38Z</time>
      </trkpt>
      <trkpt lat="44.09762" lon="6.9245">
        <ele>1658.2</ele>
        <time>2025-07-15T07:47:41Z</time>
      </trkpt>
      <trkpt lat="44.09756" lon="6.92454">
        <ele>1659.4</ele>
        <time>2025-07-15T07:48:34Z</time>
      </trkpt>
      <trkpt lat="44.09742" lon="6.92465">
        <ele>1659.6</ele>
        <time>2025-07-15T07:48:39Z</time>
      </trkpt>
      <trkpt lat="44.09731" lon="6.92484">
        <ele>1660.2</ele>
        <time>2025-07-15T07:48:45Z</time>
      </trkpt>
      <trkpt lat="44.0973" lon="6.92488">
        <ele>1660.4</ele>
        <time>2025-07-15T07:48:46Z</time>
      </trkpt>
      <trkpt lat="44.09725" lon="6.92516">
        <ele>1661.6</ele>
        <time>2025-07-15T07:48:53Z</time>
      </trkpt>
      <trkpt lat="44.09726" lon="6.92536">
        <ele>1662.8</ele>
        <time>2025-07-15T07:48:58Z</time>
      </trkpt>
      <trkpt lat="44.09727" lon="6.92548">
        <ele>1663.4</ele>
        <time>2025-07-15T07:49:01Z</time>
      </trkpt>
      <trkpt lat="44.09727" lon="6.9256">
        <ele>1663.8</ele>
        <time>2025-07-15T07:49:04Z</time>
      </trkpt>
      <trkpt lat="44.09723" lon="6.92576">
        <ele>1664.8</ele>
        <time>2025-07-15T07:49:08Z</time>
      </trkpt>
      <trkpt lat="44.09713" lon="6.92596">
        <ele>1665.8</ele>
        <time>2025-07-15T07:49:14Z</time>
      </trkpt>
      <trkpt lat="44.09706" lon="6.92612">
        <ele>1666.8</ele>
        <time>2025-07-15T07:49:19Z</time>
      </trkpt>
      <trkpt lat="44.09698" lon="6.92628">
        <ele>1667.8</ele>
        <time>2025-07-15T07:49:24Z</time>
      </trkpt>
      <trkpt lat="44.09693" lon="6.92637">
        <ele>1668.4</ele>
        <time>2025-07-15T07:49:27Z</time>
      </trkpt>
      <trkpt lat="44.0969" lon="6.92644">
        <ele>1668.8</ele>
        <time>2025-07-15T07:49:29Z</time>
      </trkpt>
      <trkpt lat="44.09683" lon="6.92656">
        <ele>1670</ele>
        <time>2025-07-15T07:49:33Z</time>
      </trkpt>
      <trkpt lat="44.09677" lon="6.92667">
        <ele>1670.6</ele>
        <time>2025-07-15T07:49:37Z</time>
      </trkpt>
      <trkpt lat="44.09673" lon="6.92673">
        <ele>1671</ele>
        <time>2025-07-15T07:49:39Z</time>
      </trkpt>
      <trkpt lat="44.09664" lon="6.92687">
        <ele>1672.2</ele>
        <time>2025-07-15T07:49:44Z</time>
      </trkpt>
      <trkpt lat="44.09661" lon="6.92688">
        <ele>1672.4</ele>
        <time>2025-07-15T07:49:45Z</time>
      </trkpt>
      <trkpt lat="44.09653" lon="6.92693">
        <ele>1673.4</ele>
        <time>2025-07-15T07:49:48Z</time>
      </trkpt>
      <trkpt lat="44.09643" lon="6.92696">
        <ele>1674.2</ele>
        <time>2025-07-15T07:49:52Z</time>
      </trkpt>
      <trkpt lat="44.0964" lon="6.92696">
        <ele>1674.2</ele>
        <time>2025-07-15T07:49:53Z</time>
      </trkpt>
      <trkpt lat="44.09623" lon="6.92702">
        <ele>1675.4</ele>
        <time>2025-07-15T07:49:59Z</time>
      </trkpt>
      <trkpt lat="44.09611" lon="6.9271">
        <ele>1676.4</ele>
        <time>2025-07-15T07:50:04Z</time>
      </trkpt>
      <trkpt lat="44.09606" lon="6.92715">
        <ele>1676.8</ele>
        <time>2025-07-15T07:50:06Z</time>
      </trkpt>
      <trkpt lat="44.09586" lon="6.92737">
        <ele>1677.4</ele>
        <time>2025-07-15T07:50:15Z</time>
      </trkpt>
      <trkpt lat="44.09584" lon="6.92739">
        <ele>1677.6</ele>
        <time>2025-07-15T07:50:16Z</time>
      </trkpt>
      <trkpt lat="44.09572" lon="6.92752">
        <ele>1678.4</ele>
        <time>2025-07-15T07:50:21Z</time>
      </trkpt>
      <trkpt lat="44.09561" lon="6.92764">
        <ele>1679.6</ele>
        <time>2025-07-15T07:50:26Z</time>
      </trkpt>
      <trkpt lat="44.09552" lon="6.92779">
        <ele>1680.8</ele>
        <time>2025-07-15T07:50:31Z</time>
      </trkpt>
      <trkpt lat="44.09551" lon="6.92783">
        <ele>1681</ele>
        <time>2025-07-15T07:50:32Z</time>
      </trkpt>
      <trkpt lat="44.09547" lon="6.92797">
        <ele>1681.8</ele>
        <time>2025-07-15T07:50:36Z</time>
      </trkpt>
      <trkpt lat="44.09545" lon="6.92809">
        <ele>1682.6</ele>
        <time>2025-07-15T07:50:39Z</time>
      </trkpt>
      <trkpt lat="44.09545" lon="6.92816">
        <ele>1682.8</ele>
        <time>2025-07-15T07:50:41Z</time>
      </trkpt>
      <trkpt lat="44.09543" lon="6.92832">
        <ele>1683.8</ele>
        <time>2025-07-15T07:50:45Z</time>
      </trkpt>
      <trkpt lat="44.09543" lon="6.92844">
        <ele>1684.2</ele>
        <time>2025-07-15T07:50:48Z</time>
      </trkpt>
      <trkpt lat="44.09542" lon="6.92863">
        <ele>1685</ele>
        <time>2025-07-15T07:50:53Z</time>
      </trkpt>
      <trkpt lat="44.09541" lon="6.92882">
        <ele>1685.8</ele>
        <time>2025-07-15T07:50:58Z</time>
      </trkpt>
      <trkpt lat="44.09536" lon="6.92895">
        <ele>1686.8</ele>
        <time>2025-07-15T07:51:04Z</time>
      </trkpt>
      <trkpt lat="44.09534" lon="6.92895">
        <ele>1686.8</ele>
        <time>2025-07-15T07:51:05Z</time>
      </trkpt>
      <trkpt lat="44.09526" lon="6.92891">
        <ele>1687.4</ele>
        <time>2025-07-15T07:51:10Z</time>
      </trkpt>
      <trkpt lat="44.09525" lon="6.92889">
        <ele>1687.4</ele>
        <time>2025-07-15T07:51:11Z</time>
      </trkpt>
      <trkpt lat="44.09523" lon="6.92891">
        <ele>1687.4</ele>
        <time>2025-07-15T07:51:13Z</time>
      </trkpt>
      <trkpt lat="44.09524" lon="6.92896">
        <ele>1687.6</ele>
        <time>2025-07-15T07:51:17Z</time>
      </trkpt>
      <trkpt lat="44.09525" lon="6.92897">
        <ele>1687.6</ele>
        <time>2025-07-15T07:51:19Z</time>
      </trkpt>
      <trkpt lat="44.09525" lon="6.92897">
        <ele>1687.8</ele>
        <time>2025-07-15T07:51:20Z</time>
      </trkpt>
      <trkpt lat="44.09534" lon="6.92908">
        <ele>1689.2</ele>
        <time>2025-07-15T08:03:44Z</time>
      </trkpt>
      <trkpt lat="44.0954" lon="6.92909">
        <ele>1689.2</ele>
        <time>2025-07-15T08:03:47Z</time>
      </trkpt>
      <trkpt lat="44.09552" lon="6.9291">
        <ele>1689.4</ele>
        <time>2025-07-15T08:03:51Z</time>
      </trkpt>
      <trkpt lat="44.09566" lon="6.92911">
        <ele>1689.8</ele>
        <time>2025-07-15T08:03:56Z</time>
      </trkpt>
      <trkpt lat="44.09576" lon="6.92912">
        <ele>1690.4</ele>
        <time>2025-07-15T08:04:00Z</time>
      </trkpt>
      <trkpt lat="44.0959" lon="6.92915">
        <ele>1691.4</ele>
        <time>2025-07-15T08:04:05Z</time>
      </trkpt>
      <trkpt lat="44.09593" lon="6.92915">
        <ele>1691.4</ele>
        <time>2025-07-15T08:04:06Z</time>
      </trkpt>
      <trkpt lat="44.09603" lon="6.92914">
        <ele>1691.8</ele>
        <time>2025-07-15T08:04:10Z</time>
      </trkpt>
      <trkpt lat="44.09615" lon="6.92913">
        <ele>1692.4</ele>
        <time>2025-07-15T08:04:14Z</time>
      </trkpt>
      <trkpt lat="44.09619" lon="6.92914">
        <ele>1692.6</ele>
        <time>2025-07-15T08:04:16Z</time>
      </trkpt>
      <trkpt lat="44.09642" lon="6.92928">
        <ele>1693.2</ele>
        <time>2025-07-15T08:04:25Z</time>
      </trkpt>
      <trkpt lat="44.0965" lon="6.92931">
        <ele>1693.2</ele>
        <time>2025-07-15T08:04:31Z</time>
      </trkpt>
      <trkpt lat="44.09651" lon="6.92932">
        <ele>1693.2</ele>
        <time>2025-07-15T08:04:32Z</time>
      </trkpt>
      <trkpt lat="44.09654" lon="6.92933">
        <ele>1693.2</ele>
        <time>2025-07-15T08:04:36Z</time>
      </trkpt>
      <trkpt lat="44.09651" lon="6.92939">
        <ele>1693</ele>
        <time>2025-07-15T08:04:45Z</time>
      </trkpt>
      <trkpt lat="44.09648" lon="6.92943">
        <ele>1693</ele>
        <time>2025-07-15T08:04:47Z</time>
      </trkpt>
      <trkpt lat="44.09642" lon="6.92951">
        <ele>1692.8</ele>
        <time>2025-07-15T08:04:50Z</time>
      </trkpt>
      <trkpt lat="44.09635" lon="6.9296">
        <ele>1692.4</ele>
        <time>2025-07-15T08:04:54Z</time>
      </trkpt>
      <trkpt lat="44.09618" lon="6.92983">
        <ele>1691.8</ele>
        <time>2025-07-15T08:05:02Z</time>
      </trkpt>
      <trkpt lat="44.09603" lon="6.93003">
        <ele>1691.8</ele>
        <time>2025-07-15T08:05:09Z</time>
      </trkpt>
      <trkpt lat="44.09588" lon="6.93012">
        <ele>1691.8</ele>
        <time>2025-07-15T08:05:15Z</time>
      </trkpt>
      <trkpt lat="44.09583" lon="6.93011">
        <ele>1691.6</ele>
        <time>2025-07-15T08:05:18Z</time>
      </trkpt>
      <trkpt lat="44.09583" lon="6.9301">
        <ele>1691.4</ele>
        <time>2025-07-15T08:05:20Z</time>
      </trkpt>
      <trkpt lat="44.0958" lon="6.93009">
        <ele>1691.4</ele>
        <time>2025-07-15T08:05:22Z</time>
      </trkpt>
      <trkpt lat="44.09579" lon="6.93012">
        <ele>1691.4</ele>
        <time>2025-07-15T08:05:24Z</time>
      </trkpt>
      <trkpt lat="44.09575" lon="6.93025">
        <ele>1692</ele>
        <time>2025-07-15T08:05:30Z</time>
      </trkpt>
      <trkpt lat="44.09565" lon="6.93034">
        <ele>1691.8</ele>
        <time>2025-07-15T08:05:36Z</time>
      </trkpt>
      <trkpt lat="44.09562" lon="6.93034">
        <ele>1691.8</ele>
        <time>2025-07-15T08:05:37Z</time>
      </trkpt>
      <trkpt lat="44.09555" lon="6.93033">
        <ele>1691.6</ele>
        <time>2025-07-15T08:05:40Z</time>
      </trkpt>
      <trkpt lat="44.09553" lon="6.93034">
        <ele>1691.6</ele>
        <time>2025-07-15T08:05:41Z</time>
      </trkpt>
      <trkpt lat="44.09539" lon="6.9303">
        <ele>1691.6</ele>
        <time>2025-07-15T08:05:46Z</time>
      </trkpt>
      <trkpt lat="44.09526" lon="6.93029">
        <ele>1691.2</ele>
        <time>2025-07-15T08:05:52Z</time>
      </trkpt>
      <trkpt lat="44.09524" lon="6.93031">
        <ele>1691.2</ele>
        <time>2025-07-15T08:05:54Z</time>
      </trkpt>
      <trkpt lat="44.09522" lon="6.93032">
        <ele>1691.2</ele>
        <time>2025-07-15T08:05:55Z</time>
      </trkpt>
      <trkpt lat="44.09516" lon="6.93032">
        <ele>1690.8</ele>
        <time>2025-07-15T08:05:59Z</time>
      </trkpt>
      <trkpt lat="44.09516" lon="6.93034">
        <ele>1690.8</ele>
        <time>2025-07-15T08:06:00Z</time>
      </trkpt>
      <trkpt lat="44.09515" lon="6.93037">
        <ele>1690.6</ele>
        <time>2025-07-15T08:06:03Z</time>
      </trkpt>
      <trkpt lat="44.09515" lon="6.93037">
        <ele>1690.6</ele>
        <time>2025-07-15T08:06:04Z</time>
      </trkpt>
      <trkpt lat="44.09514" lon="6.93043">
        <ele>1690</ele>
        <time>2025-07-15T08:06:15Z</time>
      </trkpt>
      <trkpt lat="44.09512" lon="6.93049">
        <ele>1690.2</ele>
        <time>2025-07-15T08:06:18Z</time>
      </trkpt>
      <trkpt lat="44.09507" lon="6.93062">
        <ele>1690</ele>
        <time>2025-07-15T08:06:24Z</time>
      </trkpt>
      <trkpt lat="44.09506" lon="6.93085">
        <ele>1689.8</ele>
        <time>2025-07-15T08:06:33Z</time>
      </trkpt>
      <trkpt lat="44.09508" lon="6.93096">
        <ele>1689.6</ele>
        <time>2025-07-15T08:06:39Z</time>
      </trkpt>
      <trkpt lat="44.09508" lon="6.93097">
        <ele>1689.4</ele>
        <time>2025-07-15T08:06:42Z</time>
      </trkpt>
      <trkpt lat="44.09509" lon="6.93099">
        <ele>1689.4</ele>
        <time>2025-07-15T08:06:59Z</time>
      </trkpt>
      <trkpt lat="44.0951" lon="6.93102">
        <ele>1689.6</ele>
        <time>2025-07-15T08:07:00Z</time>
      </trkpt>
      <trkpt lat="44.09515" lon="6.93122">
        <ele>1689.6</ele>
        <time>2025-07-15T08:07:06Z</time>
      </trkpt>
      <trkpt lat="44.09511" lon="6.93152">
        <ele>1689.8</ele>
        <time>2025-07-15T08:07:15Z</time>
      </trkpt>
      <trkpt lat="44.09513" lon="6.93173">
        <ele>1690.2</ele>
        <time>2025-07-15T08:07:22Z</time>
      </trkpt>
      <trkpt lat="44.09515" lon="6.93175">
        <ele>1690.6</ele>
        <time>2025-07-15T08:07:24Z</time>
      </trkpt>
      <trkpt lat="44.09516" lon="6.93176">
        <ele>1690.8</ele>
        <time>2025-07-15T08:07:26Z</time>
      </trkpt>
      <trkpt lat="44.09516" lon="6.93176">
        <ele>1690.8</ele>
        <time>2025-07-15T08:07:27Z</time>
      </trkpt>
      <trkpt lat="44.09512" lon="6.93165">
        <ele>1693.2</ele>
        <time>2025-07-15T08:19:27Z</time>
      </trkpt>
      <trkpt lat="44.09514" lon="6.93157">
        <ele>1693.2</ele>
        <time>2025-07-15T08:19:30Z</time>
      </trkpt>
      <trkpt lat="44.0952" lon="6.93134">
        <ele>1693.2</ele>
        <time>2025-07-15T08:19:36Z</time>
      </trkpt>
      <trkpt lat="44.0952" lon="6.93107">
        <ele>1692.6</ele>
        <time>2025-07-15T08:19:43Z</time>
      </trkpt>
      <trkpt lat="44.09515" lon="6.93089">
        <ele>1692.4</ele>
        <time>2025-07-15T08:19:49Z</time>
      </trkpt>
      <trkpt lat="44.09516" lon="6.93087">
        <ele>1692.4</ele>
        <time>2025-07-15T08:19:50Z</time>
      </trkpt>
      <trkpt lat="44.09518" lon="6.93078">
        <ele>1692.4</ele>
        <time>2025-07-15T08:19:53Z</time>
      </trkpt>
      <trkpt lat="44.09521" lon="6.93056">
        <ele>1692.4</ele>
        <time>2025-07-15T08:20:01Z</time>
      </trkpt>
      <trkpt lat="44.09523" lon="6.93044">
        <ele>1692.2</ele>
        <time>2025-07-15T08:20:05Z</time>
      </trkpt>
      <trkpt lat="44.09526" lon="6.93039">
        <ele>1692</ele>
        <time>2025-07-15T08:20:07Z</time>
      </trkpt>
      <trkpt lat="44.09534" lon="6.93034">
        <ele>1691.6</ele>
        <time>2025-07-15T08:20:12Z</time>
      </trkpt>
      <trkpt lat="44.09538" lon="6.93032">
        <ele>1691.6</ele>
        <time>2025-07-15T08:20:14Z</time>
      </trkpt>
      <trkpt lat="44.09544" lon="6.93033">
        <ele>1691.6</ele>
        <time>2025-07-15T08:20:17Z</time>
      </trkpt>
      <trkpt lat="44.09553" lon="6.93036">
        <ele>1691.4</ele>
        <time>2025-07-15T08:20:22Z</time>
      </trkpt>
      <trkpt lat="44.09555" lon="6.93035">
        <ele>1691.4</ele>
        <time>2025-07-15T08:20:23Z</time>
      </trkpt>
      <trkpt lat="44.09565" lon="6.93036">
        <ele>1691.4</ele>
        <time>2025-07-15T08:20:28Z</time>
      </trkpt>
      <trkpt lat="44.09569" lon="6.93035">
        <ele>1691.8</ele>
        <time>2025-07-15T08:20:30Z</time>
      </trkpt>
      <trkpt lat="44.0957" lon="6.93034">
        <ele>1692</ele>
        <time>2025-07-15T08:20:33Z</time>
      </trkpt>
      <trkpt lat="44.0957" lon="6.93034">
        <ele>1692</ele>
        <time>2025-07-15T08:20:34Z</time>
      </trkpt>
      <trkpt lat="44.09563" lon="6.93034">
        <ele>1694.8</ele>
        <time>2025-07-15T08:55:19Z</time>
      </trkpt>
      <trkpt lat="44.09551" lon="6.93035">
        <ele>1695</ele>
        <time>2025-07-15T08:55:25Z</time>
      </trkpt>
      <trkpt lat="44.09547" lon="6.93035">
        <ele>1695.2</ele>
        <time>2025-07-15T08:55:27Z</time>
      </trkpt>
      <trkpt lat="44.0954" lon="6.93032">
        <ele>1695.4</ele>
        <time>2025-07-15T08:55:30Z</time>
      </trkpt>
      <trkpt lat="44.09535" lon="6.9303">
        <ele>1695.6</ele>
        <time>2025-07-15T08:55:32Z</time>
      </trkpt>
      <trkpt lat="44.0953" lon="6.93032">
        <ele>1695.6</ele>
        <time>2025-07-15T08:55:34Z</time>
      </trkpt>
      <trkpt lat="44.09521" lon="6.93039">
        <ele>1695.4</ele>
        <time>2025-07-15T08:55:40Z</time>
      </trkpt>
      <trkpt lat="44.09519" lon="6.93044">
        <ele>1695.4</ele>
        <time>2025-07-15T08:55:42Z</time>
      </trkpt>
      <trkpt lat="44.09515" lon="6.93062">
        <ele>1695.4</ele>
        <time>2025-07-15T08:55:47Z</time>
      </trkpt>
      <trkpt lat="44.09513" lon="6.93086">
        <ele>1695.6</ele>
        <time>2025-07-15T08:55:55Z</time>
      </trkpt>
      <trkpt lat="44.09509" lon="6.9311">
        <ele>1695</ele>
        <time>2025-07-15T08:56:02Z</time>
      </trkpt>
      <trkpt lat="44.09496" lon="6.93134">
        <ele>1694.8</ele>
        <time>2025-07-15T08:56:10Z</time>
      </trkpt>
      <trkpt lat="44.09492" lon="6.93142">
        <ele>1694.8</ele>
        <time>2025-07-15T08:56:12Z</time>
      </trkpt>
      <trkpt lat="44.09484" lon="6.93153">
        <ele>1694.4</ele>
        <time>2025-07-15T08:56:15Z</time>
      </trkpt>
      <trkpt lat="44.09468" lon="6.93174">
        <ele>1694.2</ele>
        <time>2025-07-15T08:56:21Z</time>
      </trkpt>
      <trkpt lat="44.09458" lon="6.93191">
        <ele>1693.8</ele>
        <time>2025-07-15T08:56:25Z</time>
      </trkpt>
      <trkpt lat="44.09447" lon="6.93207">
        <ele>1693.2</ele>
        <time>2025-07-15T08:56:29Z</time>
      </trkpt>
      <trkpt lat="44.09442" lon="6.93216">
        <ele>1692.8</ele>
        <time>2025-07-15T08:56:31Z</time>
      </trkpt>
      <trkpt lat="44.09427" lon="6.93245">
        <ele>1691.6</ele>
        <time>2025-07-15T08:56:37Z</time>
      </trkpt>
      <trkpt lat="44.09421" lon="6.93256">
        <ele>1691.2</ele>
        <time>2025-07-15T08:56:39Z</time>
      </trkpt>
      <trkpt lat="44.09411" lon="6.93275">
        <ele>1690.4</ele>
        <time>2025-07-15T08:56:43Z</time>
      </trkpt>
      <trkpt lat="44.09408" lon="6.9328">
        <ele>1690.2</ele>
        <time>2025-07-15T08:56:44Z</time>
      </trkpt>
      <trkpt lat="44.09393" lon="6.93307">
        <ele>1689.4</ele>
        <time>2025-07-15T08:56:49Z</time>
      </trkpt>
      <trkpt lat="44.09386" lon="6.93317">
        <ele>1689</ele>
        <time>2025-07-15T08:56:51Z</time>
      </trkpt>
      <trkpt lat="44.09378" lon="6.9333">
        <ele>1688.4</ele>
        <time>2025-07-15T08:56:53Z</time>
      </trkpt>
      <trkpt lat="44.09365" lon="6.93353">
        <ele>1687.2</ele>
        <time>2025-07-15T08:56:57Z</time>
      </trkpt>
      <trkpt lat="44.09352" lon="6.93373">
        <ele>1686</ele>
        <time>2025-07-15T08:57:00Z</time>
      </trkpt>
      <trkpt lat="44.09332" lon="6.93406">
        <ele>1684.6</ele>
        <time>2025-07-15T08:57:04Z</time>
      </trkpt>
      <trkpt lat="44.09328" lon="6.93414">
        <ele>1684</ele>
        <time>2025-07-15T08:57:05Z</time>
      </trkpt>
      <trkpt lat="44.09317" lon="6.93432">
        <ele>1683.6</ele>
        <time>2025-07-15T08:57:07Z</time>
      </trkpt>
      <trkpt lat="44.09296" lon="6.93468">
        <ele>1682.4</ele>
        <time>2025-07-15T08:57:11Z</time>
      </trkpt>
      <trkpt lat="44.09288" lon="6.93478">
        <ele>1681.8</ele>
        <time>2025-07-15T08:57:12Z</time>
      </trkpt>
      <trkpt lat="44.09274" lon="6.93492">
        <ele>1681</ele>
        <time>2025-07-15T08:57:14Z</time>
      </trkpt>
      <trkpt lat="44.09259" lon="6.93503">
        <ele>1680.4</ele>
        <time>2025-07-15T08:57:16Z</time>
      </trkpt>
      <trkpt lat="44.09249" lon="6.93508">
        <ele>1680</ele>
        <time>2025-07-15T08:57:17Z</time>
      </trkpt>
      <trkpt lat="44.09232" lon="6.93515">
        <ele>1678.8</ele>
        <time>2025-07-15T08:57:19Z</time>
      </trkpt>
      <trkpt lat="44.09204" lon="6.93525">
        <ele>1677.4</ele>
        <time>2025-07-15T08:57:22Z</time>
      </trkpt>
      <trkpt lat="44.09172" lon="6.93547">
        <ele>1676.2</ele>
        <time>2025-07-15T08:57:26Z</time>
      </trkpt>
      <trkpt lat="44.09158" lon="6.9356">
        <ele>1674.6</ele>
        <time>2025-07-15T08:57:28Z</time>
      </trkpt>
      <trkpt lat="44.09153" lon="6.93568">
        <ele>1674.4</ele>
        <time>2025-07-15T08:57:29Z</time>
      </trkpt>
      <trkpt lat="44.09148" lon="6.93575">
        <ele>1674</ele>
        <time>2025-07-15T08:57:30Z</time>
      </trkpt>
      <trkpt lat="44.09138" lon="6.93591">
        <ele>1673.2</ele>
        <time>2025-07-15T08:57:32Z</time>
      </trkpt>
      <trkpt lat="44.09127" lon="6.93608">
        <ele>1672.2</ele>
        <time>2025-07-15T08:57:34Z</time>
      </trkpt>
      <trkpt lat="44.09116" lon="6.93626">
        <ele>1670.8</ele>
        <time>2025-07-15T08:57:36Z</time>
      </trkpt>
      <trkpt lat="44.09111" lon="6.93635">
        <ele>1670.4</ele>
        <time>2025-07-15T08:57:37Z</time>
      </trkpt>
      <trkpt lat="44.09099" lon="6.93654">
        <ele>1669.6</ele>
        <time>2025-07-15T08:57:39Z</time>
      </trkpt>
      <trkpt lat="44.09079" lon="6.93685">
        <ele>1668.4</ele>
        <time>2025-07-15T08:57:42Z</time>
      </trkpt>
      <trkpt lat="44.09061" lon="6.93712">
        <ele>1667.4</ele>
        <time>2025-07-15T08:57:45Z</time>
      </trkpt>
      <trkpt lat="44.09039" lon="6.9374">
        <ele>1665.6</ele>
        <time>2025-07-15T08:57:48Z</time>
      </trkpt>
      <trkpt lat="44.09028" lon="6.93755">
        <ele>1664.2</ele>
        <time>2025-07-15T08:57:50Z</time>
      </trkpt>
      <trkpt lat="44.09016" lon="6.93774">
        <ele>1663.2</ele>
        <time>2025-07-15T08:57:52Z</time>
      </trkpt>
      <trkpt lat="44.09003" lon="6.93792">
        <ele>1662</ele>
        <time>2025-07-15T08:57:54Z</time>
      </trkpt>
      <trkpt lat="44.08987" lon="6.9382">
        <ele>1660.4</ele>
        <time>2025-07-15T08:57:57Z</time>
      </trkpt>
      <trkpt lat="44.08981" lon="6.93832">
        <ele>1660.2</ele>
        <time>2025-07-15T08:57:58Z</time>
      </trkpt>
      <trkpt lat="44.08973" lon="6.93852">
        <ele>1659.2</ele>
        <time>2025-07-15T08:58:00Z</time>
      </trkpt>
      <trkpt lat="44.08966" lon="6.93871">
        <ele>1658.2</ele>
        <time>2025-07-15T08:58:02Z</time>
      </trkpt>
      <trkpt lat="44.08962" lon="6.9388">
        <ele>1658</ele>
        <time>2025-07-15T08:58:03Z</time>
      </trkpt>
      <trkpt lat="44.08954" lon="6.93899">
        <ele>1657.4</ele>
        <time>2025-07-15T08:58:05Z</time>
      </trkpt>
      <trkpt lat="44.0895" lon="6.93909">
        <ele>1657</ele>
        <time>2025-07-15T08:58:06Z</time>
      </trkpt>
      <trkpt lat="44.08941" lon="6.9393">
        <ele>1655.8</ele>
        <time>2025-07-15T08:58:08Z</time>
      </trkpt>
      <trkpt lat="44.08936" lon="6.93943">
        <ele>1655.2</ele>
        <time>2025-07-15T08:58:09Z</time>
      </trkpt>
      <trkpt lat="44.08927" lon="6.93962">
        <ele>1654.2</ele>
        <time>2025-07-15T08:58:11Z</time>
      </trkpt>
      <trkpt lat="44.08913" lon="6.93983">
        <ele>1653.2</ele>
        <time>2025-07-15T08:58:13Z</time>
      </trkpt>
      <trkpt lat="44.08907" lon="6.93992">
        <ele>1653</ele>
        <time>2025-07-15T08:58:14Z</time>
      </trkpt>
      <trkpt lat="44.08894" lon="6.94009">
        <ele>1652</ele>
        <time>2025-07-15T08:58:16Z</time>
      </trkpt>
      <trkpt lat="44.08883" lon="6.94023">
        <ele>1650.8</ele>
        <time>2025-07-15T08:58:18Z</time>
      </trkpt>
      <trkpt lat="44.08877" lon="6.94028">
        <ele>1650.8</ele>
        <time>2025-07-15T08:58:19Z</time>
      </trkpt>
      <trkpt lat="44.08871" lon="6.94033">
        <ele>1650.2</ele>
        <time>2025-07-15T08:58:20Z</time>
      </trkpt>
      <trkpt lat="44.08862" lon="6.94047">
        <ele>1649.2</ele>
        <time>2025-07-15T08:58:22Z</time>
      </trkpt>
      <trkpt lat="44.08841" lon="6.94084">
        <ele>1648.2</ele>
        <time>2025-07-15T08:58:26Z</time>
      </trkpt>
      <trkpt lat="44.08836" lon="6.9409">
        <ele>1647.6</ele>
        <time>2025-07-15T08:58:27Z</time>
      </trkpt>
      <trkpt lat="44.08828" lon="6.94099">
        <ele>1647.4</ele>
        <time>2025-07-15T08:58:28Z</time>
      </trkpt>
      <trkpt lat="44.08813" lon="6.94111">
        <ele>1647</ele>
        <time>2025-07-15T08:58:30Z</time>
      </trkpt>
      <trkpt lat="44.08807" lon="6.94115">
        <ele>1646.6</ele>
        <time>2025-07-15T08:58:31Z</time>
      </trkpt>
      <trkpt lat="44.08789" lon="6.94129">
        <ele>1645.8</ele>
        <time>2025-07-15T08:58:33Z</time>
      </trkpt>
      <trkpt lat="44.08774" lon="6.94144">
        <ele>1644.6</ele>
        <time>2025-07-15T08:58:35Z</time>
      </trkpt>
      <trkpt lat="44.08768" lon="6.9415">
        <ele>1644.2</ele>
        <time>2025-07-15T08:58:36Z</time>
      </trkpt>
      <trkpt lat="44.08744" lon="6.94181">
        <ele>1643.6</ele>
        <time>2025-07-15T08:58:39Z</time>
      </trkpt>
      <trkpt lat="44.08725" lon="6.94208">
        <ele>1642.2</ele>
        <time>2025-07-15T08:58:42Z</time>
      </trkpt>
      <trkpt lat="44.08701" lon="6.94246">
        <ele>1640.8</ele>
        <time>2025-07-15T08:58:46Z</time>
      </trkpt>
      <trkpt lat="44.08695" lon="6.94257">
        <ele>1639.8</ele>
        <time>2025-07-15T08:58:47Z</time>
      </trkpt>
      <trkpt lat="44.0869" lon="6.94268">
        <ele>1639</ele>
        <time>2025-07-15T08:58:48Z</time>
      </trkpt>
      <trkpt lat="44.08681" lon="6.94291">
        <ele>1638.4</ele>
        <time>2025-07-15T08:58:50Z</time>
      </trkpt>
      <trkpt lat="44.08677" lon="6.94304">
        <ele>1637.8</ele>
        <time>2025-07-15T08:58:51Z</time>
      </trkpt>
      <trkpt lat="44.08675" lon="6.94318">
        <ele>1637</ele>
        <time>2025-07-15T08:58:52Z</time>
      </trkpt>
      <trkpt lat="44.08674" lon="6.94332">
        <ele>1636.8</ele>
        <time>2025-07-15T08:58:53Z</time>
      </trkpt>
      <trkpt lat="44.08674" lon="6.94372">
        <ele>1635.6</ele>
        <time>2025-07-15T08:58:56Z</time>
      </trkpt>
      <trkpt lat="44.08677" lon="6.94398">
        <ele>1634.2</ele>
        <time>2025-07-15T08:58:58Z</time>
      </trkpt>
      <trkpt lat="44.08679" lon="6.94411">
        <ele>1633.4</ele>
        <time>2025-07-15T08:58:59Z</time>
      </trkpt>
      <trkpt lat="44.08682" lon="6.94423">
        <ele>1633</ele>
        <time>2025-07-15T08:59:00Z</time>
      </trkpt>
      <trkpt lat="44.08685" lon="6.94436">
        <ele>1632.2</ele>
        <time>2025-07-15T08:59:01Z</time>
      </trkpt>
      <trkpt lat="44.08694" lon="6.9446">
        <ele>1631</ele>
        <time>2025-07-15T08:59:03Z</time>
      </trkpt>
      <trkpt lat="44.08711" lon="6.945">
        <ele>1629.8</ele>
        <time>2025-07-15T08:59:06Z</time>
      </trkpt>
      <trkpt lat="44.08727" lon="6.94535">
        <ele>1628.4</ele>
        <time>2025-07-15T08:59:09Z</time>
      </trkpt>
      <trkpt lat="44.08739" lon="6.94556">
        <ele>1627.8</ele>
        <time>2025-07-15T08:59:11Z</time>
      </trkpt>
      <trkpt lat="44.08744" lon="6.94564">
        <ele>1627.2</ele>
        <time>2025-07-15T08:59:12Z</time>
      </trkpt>
      <trkpt lat="44.08755" lon="6.94585">
        <ele>1626</ele>
        <time>2025-07-15T08:59:14Z</time>
      </trkpt>
      <trkpt lat="44.08761" lon="6.94596">
        <ele>1625</ele>
        <time>2025-07-15T08:59:15Z</time>
      </trkpt>
      <trkpt lat="44.08767" lon="6.94608">
        <ele>1624.8</ele>
        <time>2025-07-15T08:59:16Z</time>
      </trkpt>
      <trkpt lat="44.08778" lon="6.94633">
        <ele>1623.4</ele>
        <time>2025-07-15T08:59:18Z</time>
      </trkpt>
      <trkpt lat="44.08791" lon="6.94657">
        <ele>1621.8</ele>
        <time>2025-07-15T08:59:20Z</time>
      </trkpt>
      <trkpt lat="44.088" lon="6.94671">
        <ele>1621.4</ele>
        <time>2025-07-15T08:59:21Z</time>
      </trkpt>
      <trkpt lat="44.08807" lon="6.94683">
        <ele>1620.6</ele>
        <time>2025-07-15T08:59:22Z</time>
      </trkpt>
      <trkpt lat="44.08827" lon="6.9472">
        <ele>1619.2</ele>
        <time>2025-07-15T08:59:25Z</time>
      </trkpt>
      <trkpt lat="44.08832" lon="6.94734">
        <ele>1618.4</ele>
        <time>2025-07-15T08:59:26Z</time>
      </trkpt>
      <trkpt lat="44.08837" lon="6.94748">
        <ele>1618</ele>
        <time>2025-07-15T08:59:27Z</time>
      </trkpt>
      <trkpt lat="44.0884" lon="6.94759">
        <ele>1616.8</ele>
        <time>2025-07-15T08:59:28Z</time>
      </trkpt>
      <trkpt lat="44.08853" lon="6.948">
        <ele>1614.6</ele>
        <time>2025-07-15T08:59:31Z</time>
      </trkpt>
      <trkpt lat="44.08863" lon="6.94817">
        <ele>1613.2</ele>
        <time>2025-07-15T08:59:33Z</time>
      </trkpt>
      <trkpt lat="44.08869" lon="6.94824">
        <ele>1612.8</ele>
        <time>2025-07-15T08:59:34Z</time>
      </trkpt>
      <trkpt lat="44.08876" lon="6.94828">
        <ele>1611.8</ele>
        <time>2025-07-15T08:59:35Z</time>
      </trkpt>
      <trkpt lat="44.08885" lon="6.94829">
        <ele>1611.6</ele>
        <time>2025-07-15T08:59:36Z</time>
      </trkpt>
      <trkpt lat="44.08894" lon="6.94827">
        <ele>1610.6</ele>
        <time>2025-07-15T08:59:37Z</time>
      </trkpt>
      <trkpt lat="44.08913" lon="6.94822">
        <ele>1609.4</ele>
        <time>2025-07-15T08:59:39Z</time>
      </trkpt>
      <trkpt lat="44.08943" lon="6.94812">
        <ele>1608.4</ele>
        <time>2025-07-15T08:59:42Z</time>
      </trkpt>
      <trkpt lat="44.08971" lon="6.94807">
        <ele>1607</ele>
        <time>2025-07-15T08:59:45Z</time>
      </trkpt>
      <trkpt lat="44.08989" lon="6.94811">
        <ele>1606.2</ele>
        <time>2025-07-15T08:59:47Z</time>
      </trkpt>
      <trkpt lat="44.08994" lon="6.94817">
        <ele>1605.8</ele>
        <time>2025-07-15T08:59:48Z</time>
      </trkpt>
      <trkpt lat="44.08995" lon="6.94825">
        <ele>1605</ele>
        <time>2025-07-15T08:59:49Z</time>
      </trkpt>
      <trkpt lat="44.08993" lon="6.94833">
        <ele>1604.8</ele>
        <time>2025-07-15T08:59:50Z</time>
      </trkpt>
      <trkpt lat="44.08986" lon="6.94838">
        <ele>1604</ele>
        <time>2025-07-15T08:59:51Z</time>
      </trkpt>
      <trkpt lat="44.08979" lon="6.94843">
        <ele>1603.4</ele>
        <time>2025-07-15T08:59:52Z</time>
      </trkpt>
      <trkpt lat="44.08971" lon="6.94848">
        <ele>1602.6</ele>
        <time>2025-07-15T08:59:53Z</time>
      </trkpt>
      <trkpt lat="44.08964" lon="6.94854">
        <ele>1601.6</ele>
        <time>2025-07-15T08:59:54Z</time>
      </trkpt>
      <trkpt lat="44.08948" lon="6.94868">
        <ele>1600.4</ele>
        <time>2025-07-15T08:59:56Z</time>
      </trkpt>
      <trkpt lat="44.08932" lon="6.94884">
        <ele>1599</ele>
        <time>2025-07-15T08:59:58Z</time>
      </trkpt>
      <trkpt lat="44.08916" lon="6.94903">
        <ele>1597.6</ele>
        <time>2025-07-15T09:00:00Z</time>
      </trkpt>
      <trkpt lat="44.08908" lon="6.94913">
        <ele>1597</ele>
        <time>2025-07-15T09:00:01Z</time>
      </trkpt>
      <trkpt lat="44.08893" lon="6.94934">
        <ele>1596.2</ele>
        <time>2025-07-15T09:00:03Z</time>
      </trkpt>
      <trkpt lat="44.0888" lon="6.94959">
        <ele>1594.8</ele>
        <time>2025-07-15T09:00:05Z</time>
      </trkpt>
      <trkpt lat="44.08875" lon="6.94972">
        <ele>1594.4</ele>
        <time>2025-07-15T09:00:06Z</time>
      </trkpt>
      <trkpt lat="44.0887" lon="6.94987">
        <ele>1593.2</ele>
        <time>2025-07-15T09:00:07Z</time>
      </trkpt>
      <trkpt lat="44.08862" lon="6.95017">
        <ele>1592.2</ele>
        <time>2025-07-15T09:00:09Z</time>
      </trkpt>
      <trkpt lat="44.08858" lon="6.95031">
        <ele>1591.4</ele>
        <time>2025-07-15T09:00:10Z</time>
      </trkpt>
      <trkpt lat="44.08855" lon="6.95047">
        <ele>1591</ele>
        <time>2025-07-15T09:00:11Z</time>
      </trkpt>
      <trkpt lat="44.08852" lon="6.95062">
        <ele>1589.8</ele>
        <time>2025-07-15T09:00:12Z</time>
      </trkpt>
      <trkpt lat="44.08847" lon="6.95092">
        <ele>1588.6</ele>
        <time>2025-07-15T09:00:14Z</time>
      </trkpt>
      <trkpt lat="44.08846" lon="6.95107">
        <ele>1588.2</ele>
        <time>2025-07-15T09:00:15Z</time>
      </trkpt>
      <trkpt lat="44.08847" lon="6.95122">
        <ele>1587</ele>
        <time>2025-07-15T09:00:16Z</time>
      </trkpt>
      <trkpt lat="44.08851" lon="6.95149">
        <ele>1585.6</ele>
        <time>2025-07-15T09:00:18Z</time>
      </trkpt>
      <trkpt lat="44.08856" lon="6.9516">
        <ele>1585</ele>
        <time>2025-07-15T09:00:19Z</time>
      </trkpt>
      <trkpt lat="44.08862" lon="6.9517">
        <ele>1584.6</ele>
        <time>2025-07-15T09:00:20Z</time>
      </trkpt>
      <trkpt lat="44.08869" lon="6.95177">
        <ele>1583.6</ele>
        <time>2025-07-15T09:00:21Z</time>
      </trkpt>
      <trkpt lat="44.08878" lon="6.95181">
        <ele>1583.4</ele>
        <time>2025-07-15T09:00:22Z</time>
      </trkpt>
      <trkpt lat="44.08887" lon="6.95182">
        <ele>1582.4</ele>
        <time>2025-07-15T09:00:23Z</time>
      </trkpt>
      <trkpt lat="44.08897" lon="6.95182">
        <ele>1581.8</ele>
        <time>2025-07-15T09:00:24Z</time>
      </trkpt>
      <trkpt lat="44.08907" lon="6.95183">
        <ele>1581.2</ele>
        <time>2025-07-15T09:00:25Z</time>
      </trkpt>
      <trkpt lat="44.08918" lon="6.95186">
        <ele>1580.6</ele>
        <time>2025-07-15T09:00:26Z</time>
      </trkpt>
      <trkpt lat="44.08928" lon="6.95191">
        <ele>1580.2</ele>
        <time>2025-07-15T09:00:27Z</time>
      </trkpt>
      <trkpt lat="44.08938" lon="6.95197">
        <ele>1579.4</ele>
        <time>2025-07-15T09:00:28Z</time>
      </trkpt>
      <trkpt lat="44.08955" lon="6.9521">
        <ele>1578.4</ele>
        <time>2025-07-15T09:00:30Z</time>
      </trkpt>
      <trkpt lat="44.08963" lon="6.95217">
        <ele>1578</ele>
        <time>2025-07-15T09:00:31Z</time>
      </trkpt>
      <trkpt lat="44.08968" lon="6.95225">
        <ele>1577</ele>
        <time>2025-07-15T09:00:32Z</time>
      </trkpt>
      <trkpt lat="44.08969" lon="6.95235">
        <ele>1576.6</ele>
        <time>2025-07-15T09:00:33Z</time>
      </trkpt>
      <trkpt lat="44.08967" lon="6.95244">
        <ele>1575.8</ele>
        <time>2025-07-15T09:00:34Z</time>
      </trkpt>
      <trkpt lat="44.08962" lon="6.9525">
        <ele>1575</ele>
        <time>2025-07-15T09:00:35Z</time>
      </trkpt>
      <trkpt lat="44.08955" lon="6.95252">
        <ele>1574.6</ele>
        <time>2025-07-15T09:00:36Z</time>
      </trkpt>
      <trkpt lat="44.08947" lon="6.95252">
        <ele>1574</ele>
        <time>2025-07-15T09:00:37Z</time>
      </trkpt>
      <trkpt lat="44.08931" lon="6.9525">
        <ele>1573.4</ele>
        <time>2025-07-15T09:00:39Z</time>
      </trkpt>
      <trkpt lat="44.08904" lon="6.95243">
        <ele>1572.6</ele>
        <time>2025-07-15T09:00:42Z</time>
      </trkpt>
      <trkpt lat="44.08885" lon="6.95244">
        <ele>1572.2</ele>
        <time>2025-07-15T09:00:44Z</time>
      </trkpt>
      <trkpt lat="44.08876" lon="6.95248">
        <ele>1572</ele>
        <time>2025-07-15T09:00:45Z</time>
      </trkpt>
      <trkpt lat="44.08868" lon="6.95255">
        <ele>1571.6</ele>
        <time>2025-07-15T09:00:46Z</time>
      </trkpt>
      <trkpt lat="44.08854" lon="6.9527">
        <ele>1570.8</ele>
        <time>2025-07-15T09:00:48Z</time>
      </trkpt>
      <trkpt lat="44.08848" lon="6.95279">
        <ele>1570.8</ele>
        <time>2025-07-15T09:00:49Z</time>
      </trkpt>
      <trkpt lat="44.08831" lon="6.95309">
        <ele>1569.8</ele>
        <time>2025-07-15T09:00:52Z</time>
      </trkpt>
      <trkpt lat="44.08825" lon="6.95319">
        <ele>1569.4</ele>
        <time>2025-07-15T09:00:53Z</time>
      </trkpt>
      <trkpt lat="44.088" lon="6.95355">
        <ele>1568.6</ele>
        <time>2025-07-15T09:00:57Z</time>
      </trkpt>
      <trkpt lat="44.08782" lon="6.95382">
        <ele>1567.8</ele>
        <time>2025-07-15T09:01:00Z</time>
      </trkpt>
      <trkpt lat="44.0877" lon="6.95401">
        <ele>1567.6</ele>
        <time>2025-07-15T09:01:02Z</time>
      </trkpt>
      <trkpt lat="44.08745" lon="6.95436">
        <ele>1567</ele>
        <time>2025-07-15T09:01:06Z</time>
      </trkpt>
      <trkpt lat="44.08738" lon="6.95443">
        <ele>1566.8</ele>
        <time>2025-07-15T09:01:07Z</time>
      </trkpt>
      <trkpt lat="44.08704" lon="6.95474">
        <ele>1566.6</ele>
        <time>2025-07-15T09:01:12Z</time>
      </trkpt>
      <trkpt lat="44.08678" lon="6.95513">
        <ele>1566.6</ele>
        <time>2025-07-15T09:01:17Z</time>
      </trkpt>
      <trkpt lat="44.08636" lon="6.9556">
        <ele>1566.8</ele>
        <time>2025-07-15T09:01:24Z</time>
      </trkpt>
      <trkpt lat="44.08599" lon="6.95607">
        <ele>1566.6</ele>
        <time>2025-07-15T09:01:31Z</time>
      </trkpt>
      <trkpt lat="44.08586" lon="6.95641">
        <ele>1566.6</ele>
        <time>2025-07-15T09:01:35Z</time>
      </trkpt>
      <trkpt lat="44.08583" lon="6.95649">
        <ele>1566.4</ele>
        <time>2025-07-15T09:01:36Z</time>
      </trkpt>
      <trkpt lat="44.08578" lon="6.95667">
        <ele>1566.4</ele>
        <time>2025-07-15T09:01:38Z</time>
      </trkpt>
      <trkpt lat="44.08576" lon="6.95685">
        <ele>1566.2</ele>
        <time>2025-07-15T09:01:40Z</time>
      </trkpt>
      <trkpt lat="44.08583" lon="6.95743">
        <ele>1566.4</ele>
        <time>2025-07-15T09:01:46Z</time>
      </trkpt>
      <trkpt lat="44.08588" lon="6.95816">
        <ele>1566.2</ele>
        <time>2025-07-15T09:01:54Z</time>
      </trkpt>
      <trkpt lat="44.08586" lon="6.95891">
        <ele>1566</ele>
        <time>2025-07-15T09:02:02Z</time>
      </trkpt>
      <trkpt lat="44.0859" lon="6.95946">
        <ele>1566.4</ele>
        <time>2025-07-15T09:02:08Z</time>
      </trkpt>
      <trkpt lat="44.08599" lon="6.96002">
        <ele>1566.2</ele>
        <time>2025-07-15T09:02:14Z</time>
      </trkpt>
      <trkpt lat="44.0861" lon="6.96061">
        <ele>1566.2</ele>
        <time>2025-07-15T09:02:21Z</time>
      </trkpt>
      <trkpt lat="44.08619" lon="6.96106">
        <ele>1567</ele>
        <time>2025-07-15T09:02:27Z</time>
      </trkpt>
      <trkpt lat="44.08629" lon="6.96161">
        <ele>1567.6</ele>
        <time>2025-07-15T09:02:35Z</time>
      </trkpt>
      <trkpt lat="44.0863" lon="6.9618">
        <ele>1568</ele>
        <time>2025-07-15T09:02:38Z</time>
      </trkpt>
      <trkpt lat="44.08629" lon="6.962">
        <ele>1568.2</ele>
        <time>2025-07-15T09:02:41Z</time>
      </trkpt>
      <trkpt lat="44.08626" lon="6.96237">
        <ele>1568.8</ele>
        <time>2025-07-15T09:02:47Z</time>
      </trkpt>
      <trkpt lat="44.08626" lon="6.96242">
        <ele>1569</ele>
        <time>2025-07-15T09:02:48Z</time>
      </trkpt>
      <trkpt lat="44.08626" lon="6.96248">
        <ele>1569</ele>
        <time>2025-07-15T09:02:49Z</time>
      </trkpt>
      <trkpt lat="44.08627" lon="6.96254">
        <ele>1569.2</ele>
        <time>2025-07-15T09:02:50Z</time>
      </trkpt>
      <trkpt lat="44.08629" lon="6.96271">
        <ele>1569.6</ele>
        <time>2025-07-15T09:02:53Z</time>
      </trkpt>
      <trkpt lat="44.08635" lon="6.96285">
        <ele>1570.2</ele>
        <time>2025-07-15T09:02:56Z</time>
      </trkpt>
      <trkpt lat="44.08638" lon="6.9629">
        <ele>1570.2</ele>
        <time>2025-07-15T09:02:57Z</time>
      </trkpt>
      <trkpt lat="44.08641" lon="6.96295">
        <ele>1570.2</ele>
        <time>2025-07-15T09:02:58Z</time>
      </trkpt>
      <trkpt lat="44.08649" lon="6.96309">
        <ele>1570.6</ele>
        <time>2025-07-15T09:03:01Z</time>
      </trkpt>
      <trkpt lat="44.08664" lon="6.96332">
        <ele>1571</ele>
        <time>2025-07-15T09:03:06Z</time>
      </trkpt>
      <trkpt lat="44.0867" lon="6.9634">
        <ele>1571.6</ele>
        <time>2025-07-15T09:03:08Z</time>
      </trkpt>
      <trkpt lat="44.08686" lon="6.96356">
        <ele>1572.2</ele>
        <time>2025-07-15T09:03:13Z</time>
      </trkpt>
      <trkpt lat="44.0869" lon="6.96358">
        <ele>1572.4</ele>
        <time>2025-07-15T09:03:14Z</time>
      </trkpt>
      <trkpt lat="44.08698" lon="6.9636">
        <ele>1572.4</ele>
        <time>2025-07-15T09:03:16Z</time>
      </trkpt>
      <trkpt lat="44.08703" lon="6.9636">
        <ele>1572.6</ele>
        <time>2025-07-15T09:03:17Z</time>
      </trkpt>
      <trkpt lat="44.08712" lon="6.96361">
        <ele>1572.6</ele>
        <time>2025-07-15T09:03:19Z</time>
      </trkpt>
      <trkpt lat="44.08721" lon="6.96358">
        <ele>1572.8</ele>
        <time>2025-07-15T09:03:21Z</time>
      </trkpt>
      <trkpt lat="44.08732" lon="6.96352">
        <ele>1572.8</ele>
        <time>2025-07-15T09:03:24Z</time>
      </trkpt>
      <trkpt lat="44.08747" lon="6.96341">
        <ele>1573.4</ele>
        <time>2025-07-15T09:03:28Z</time>
      </trkpt>
      <trkpt lat="44.08756" lon="6.96338">
        <ele>1573.4</ele>
        <time>2025-07-15T09:03:30Z</time>
      </trkpt>
      <trkpt lat="44.08761" lon="6.96338">
        <ele>1573.6</ele>
        <time>2025-07-15T09:03:31Z</time>
      </trkpt>
      <trkpt lat="44.08764" lon="6.96339">
        <ele>1574</ele>
        <time>2025-07-15T09:03:32Z</time>
      </trkpt>
      <trkpt lat="44.0878" lon="6.96347">
        <ele>1574.6</ele>
        <time>2025-07-15T09:03:36Z</time>
      </trkpt>
      <trkpt lat="44.08784" lon="6.9635">
        <ele>1574.6</ele>
        <time>2025-07-15T09:03:37Z</time>
      </trkpt>
      <trkpt lat="44.08803" lon="6.96366">
        <ele>1575</ele>
        <time>2025-07-15T09:03:42Z</time>
      </trkpt>
      <trkpt lat="44.08807" lon="6.9637">
        <ele>1575</ele>
        <time>2025-07-15T09:03:43Z</time>
      </trkpt>
      <trkpt lat="44.08834" lon="6.96405">
        <ele>1576</ele>
        <time>2025-07-15T09:03:51Z</time>
      </trkpt>
      <trkpt lat="44.08838" lon="6.96408">
        <ele>1576</ele>
        <time>2025-07-15T09:03:52Z</time>
      </trkpt>
      <trkpt lat="44.0885" lon="6.96415">
        <ele>1576.4</ele>
        <time>2025-07-15T09:03:55Z</time>
      </trkpt>
      <trkpt lat="44.08854" lon="6.96417">
        <ele>1576.4</ele>
        <time>2025-07-15T09:03:56Z</time>
      </trkpt>
      <trkpt lat="44.08857" lon="6.96418">
        <ele>1576.4</ele>
        <time>2025-07-15T09:03:57Z</time>
      </trkpt>
      <trkpt lat="44.08879" lon="6.9642">
        <ele>1577</ele>
        <time>2025-07-15T09:04:02Z</time>
      </trkpt>
      <trkpt lat="44.08884" lon="6.96421">
        <ele>1577.2</ele>
        <time>2025-07-15T09:04:03Z</time>
      </trkpt>
      <trkpt lat="44.08914" lon="6.96428">
        <ele>1578.2</ele>
        <time>2025-07-15T09:04:10Z</time>
      </trkpt>
      <trkpt lat="44.08941" lon="6.96436">
        <ele>1579.4</ele>
        <time>2025-07-15T09:04:16Z</time>
      </trkpt>
      <trkpt lat="44.08949" lon="6.96442">
        <ele>1579.4</ele>
        <time>2025-07-15T09:04:18Z</time>
      </trkpt>
      <trkpt lat="44.08953" lon="6.96446">
        <ele>1579.4</ele>
        <time>2025-07-15T09:04:19Z</time>
      </trkpt>
      <trkpt lat="44.08965" lon="6.96466">
        <ele>1579.6</ele>
        <time>2025-07-15T09:04:23Z</time>
      </trkpt>
      <trkpt lat="44.08983" lon="6.96505">
        <ele>1580.4</ele>
        <time>2025-07-15T09:04:30Z</time>
      </trkpt>
      <trkpt lat="44.08985" lon="6.96512">
        <ele>1580.4</ele>
        <time>2025-07-15T09:04:31Z</time>
      </trkpt>
      <trkpt lat="44.08998" lon="6.96547">
        <ele>1580.8</ele>
        <time>2025-07-15T09:04:37Z</time>
      </trkpt>
      <trkpt lat="44.09007" lon="6.96575">
        <ele>1581.4</ele>
        <time>2025-07-15T09:04:42Z</time>
      </trkpt>
      <trkpt lat="44.09014" lon="6.96591">
        <ele>1581.8</ele>
        <time>2025-07-15T09:04:45Z</time>
      </trkpt>
      <trkpt lat="44.09033" lon="6.96634">
        <ele>1582.2</ele>
        <time>2025-07-15T09:04:53Z</time>
      </trkpt>
      <trkpt lat="44.09048" lon="6.96669">
        <ele>1582</ele>
        <time>2025-07-15T09:04:58Z</time>
      </trkpt>
      <trkpt lat="44.09059" lon="6.96693">
        <ele>1581.6</ele>
        <time>2025-07-15T09:05:01Z</time>
      </trkpt>
      <trkpt lat="44.09071" lon="6.96727">
        <ele>1581.2</ele>
        <time>2025-07-15T09:05:05Z</time>
      </trkpt>
      <trkpt lat="44.09077" lon="6.96746">
        <ele>1581</ele>
        <time>2025-07-15T09:05:06Z</time>
      </trkpt>
      <trkpt lat="44.09083" lon="6.96776">
        <ele>1580.4</ele>
        <time>2025-07-15T09:05:09Z</time>
      </trkpt>
      <trkpt lat="44.09086" lon="6.96788">
        <ele>1579.8</ele>
        <time>2025-07-15T09:05:11Z</time>
      </trkpt>
      <trkpt lat="44.09091" lon="6.96806">
        <ele>1579</ele>
        <time>2025-07-15T09:05:13Z</time>
      </trkpt>
      <trkpt lat="44.09093" lon="6.96815">
        <ele>1578.8</ele>
        <time>2025-07-15T09:05:14Z</time>
      </trkpt>
      <trkpt lat="44.09097" lon="6.96843">
        <ele>1578</ele>
        <time>2025-07-15T09:05:17Z</time>
      </trkpt>
      <trkpt lat="44.091" lon="6.96864">
        <ele>1577.2</ele>
        <time>2025-07-15T09:05:20Z</time>
      </trkpt>
      <trkpt lat="44.091" lon="6.96886">
        <ele>1577</ele>
        <time>2025-07-15T09:05:22Z</time>
      </trkpt>
      <trkpt lat="44.091" lon="6.96908">
        <ele>1576.8</ele>
        <time>2025-07-15T09:05:25Z</time>
      </trkpt>
      <trkpt lat="44.09097" lon="6.9693">
        <ele>1576.4</ele>
        <time>2025-07-15T09:05:29Z</time>
      </trkpt>
      <trkpt lat="44.09093" lon="6.9695">
        <ele>1576.4</ele>
        <time>2025-07-15T09:05:31Z</time>
      </trkpt>
      <trkpt lat="44.09087" lon="6.96962">
        <ele>1576.4</ele>
        <time>2025-07-15T09:05:34Z</time>
      </trkpt>
      <trkpt lat="44.09075" lon="6.96984">
        <ele>1576.4</ele>
        <time>2025-07-15T09:05:37Z</time>
      </trkpt>
      <trkpt lat="44.09074" lon="6.96989">
        <ele>1576.6</ele>
        <time>2025-07-15T09:05:39Z</time>
      </trkpt>
      <trkpt lat="44.09073" lon="6.96996">
        <ele>1576.6</ele>
        <time>2025-07-15T09:05:40Z</time>
      </trkpt>
      <trkpt lat="44.09076" lon="6.97016">
        <ele>1576.8</ele>
        <time>2025-07-15T09:05:42Z</time>
      </trkpt>
      <trkpt lat="44.09077" lon="6.97021">
        <ele>1576.8</ele>
        <time>2025-07-15T09:05:43Z</time>
      </trkpt>
      <trkpt lat="44.0908" lon="6.97042">
        <ele>1577.2</ele>
        <time>2025-07-15T09:05:48Z</time>
      </trkpt>
      <trkpt lat="44.09087" lon="6.97068">
        <ele>1577.6</ele>
        <time>2025-07-15T09:05:55Z</time>
      </trkpt>
      <trkpt lat="44.09089" lon="6.97079">
        <ele>1577.6</ele>
        <time>2025-07-15T09:05:57Z</time>
      </trkpt>
      <trkpt lat="44.09097" lon="6.971">
        <ele>1577.6</ele>
        <time>2025-07-15T09:06:01Z</time>
      </trkpt>
      <trkpt lat="44.0911" lon="6.97134">
        <ele>1576.6</ele>
        <time>2025-07-15T09:06:06Z</time>
      </trkpt>
      <trkpt lat="44.09118" lon="6.9715">
        <ele>1576.2</ele>
        <time>2025-07-15T09:06:08Z</time>
      </trkpt>
      <trkpt lat="44.09121" lon="6.97155">
        <ele>1576</ele>
        <time>2025-07-15T09:06:09Z</time>
      </trkpt>
      <trkpt lat="44.09125" lon="6.97162">
        <ele>1575.6</ele>
        <time>2025-07-15T09:06:11Z</time>
      </trkpt>
      <trkpt lat="44.09147" lon="6.97188">
        <ele>1574.8</ele>
        <time>2025-07-15T09:06:14Z</time>
      </trkpt>
      <trkpt lat="44.0916" lon="6.97205">
        <ele>1573.8</ele>
        <time>2025-07-15T09:06:16Z</time>
      </trkpt>
      <trkpt lat="44.09166" lon="6.97212">
        <ele>1573.4</ele>
        <time>2025-07-15T09:06:17Z</time>
      </trkpt>
      <trkpt lat="44.09177" lon="6.97225">
        <ele>1572.2</ele>
        <time>2025-07-15T09:06:20Z</time>
      </trkpt>
      <trkpt lat="44.09191" lon="6.9724">
        <ele>1571.6</ele>
        <time>2025-07-15T09:06:21Z</time>
      </trkpt>
      <trkpt lat="44.09191" lon="6.9724">
        <ele>1571.2</ele>
        <time>2025-07-15T09:06:22Z</time>
      </trkpt>
      <trkpt lat="44.09205" lon="6.97251">
        <ele>1570.6</ele>
        <time>2025-07-15T09:06:23Z</time>
      </trkpt>
      <trkpt lat="44.09213" lon="6.97255">
        <ele>1570</ele>
        <time>2025-07-15T09:06:25Z</time>
      </trkpt>
      <trkpt lat="44.09249" lon="6.97273">
        <ele>1569</ele>
        <time>2025-07-15T09:06:28Z</time>
      </trkpt>
      <trkpt lat="44.09249" lon="6.97273">
        <ele>1568.6</ele>
        <time>2025-07-15T09:06:29Z</time>
      </trkpt>
      <trkpt lat="44.09274" lon="6.97289">
        <ele>1567.6</ele>
        <time>2025-07-15T09:06:31Z</time>
      </trkpt>
      <trkpt lat="44.09289" lon="6.97303">
        <ele>1566.2</ele>
        <time>2025-07-15T09:06:33Z</time>
      </trkpt>
      <trkpt lat="44.09295" lon="6.97309">
        <ele>1565.2</ele>
        <time>2025-07-15T09:06:35Z</time>
      </trkpt>
      <trkpt lat="44.0931" lon="6.97328">
        <ele>1564.6</ele>
        <time>2025-07-15T09:06:36Z</time>
      </trkpt>
      <trkpt lat="44.09316" lon="6.97336">
        <ele>1563.6</ele>
        <time>2025-07-15T09:06:37Z</time>
      </trkpt>
      <trkpt lat="44.0933" lon="6.97354">
        <ele>1562.6</ele>
        <time>2025-07-15T09:06:39Z</time>
      </trkpt>
      <trkpt lat="44.09344" lon="6.97375">
        <ele>1561.4</ele>
        <time>2025-07-15T09:06:41Z</time>
      </trkpt>
      <trkpt lat="44.09357" lon="6.97392">
        <ele>1560.2</ele>
        <time>2025-07-15T09:06:43Z</time>
      </trkpt>
      <trkpt lat="44.09363" lon="6.97397">
        <ele>1559.4</ele>
        <time>2025-07-15T09:06:44Z</time>
      </trkpt>
      <trkpt lat="44.09373" lon="6.97401">
        <ele>1558.6</ele>
        <time>2025-07-15T09:06:45Z</time>
      </trkpt>
      <trkpt lat="44.0939" lon="6.974">
        <ele>1557.6</ele>
        <time>2025-07-15T09:06:47Z</time>
      </trkpt>
      <trkpt lat="44.09399" lon="6.97396">
        <ele>1557</ele>
        <time>2025-07-15T09:06:48Z</time>
      </trkpt>
      <trkpt lat="44.09417" lon="6.97385">
        <ele>1555.8</ele>
        <time>2025-07-15T09:06:50Z</time>
      </trkpt>
      <trkpt lat="44.09434" lon="6.97379">
        <ele>1554.8</ele>
        <time>2025-07-15T09:06:52Z</time>
      </trkpt>
      <trkpt lat="44.09443" lon="6.97382">
        <ele>1553.8</ele>
        <time>2025-07-15T09:06:53Z</time>
      </trkpt>
      <trkpt lat="44.0945" lon="6.97387">
        <ele>1552.8</ele>
        <time>2025-07-15T09:06:54Z</time>
      </trkpt>
      <trkpt lat="44.09455" lon="6.97394">
        <ele>1551.6</ele>
        <time>2025-07-15T09:06:56Z</time>
      </trkpt>
      <trkpt lat="44.09459" lon="6.97414">
        <ele>1551.2</ele>
        <time>2025-07-15T09:06:57Z</time>
      </trkpt>
      <trkpt lat="44.09459" lon="6.97428">
        <ele>1550</ele>
        <time>2025-07-15T09:06:58Z</time>
      </trkpt>
      <trkpt lat="44.09456" lon="6.97448">
        <ele>1548.6</ele>
        <time>2025-07-15T09:07:00Z</time>
      </trkpt>
      <trkpt lat="44.09458" lon="6.97473">
        <ele>1547.4</ele>
        <time>2025-07-15T09:07:02Z</time>
      </trkpt>
      <trkpt lat="44.09461" lon="6.97507">
        <ele>1545.6</ele>
        <time>2025-07-15T09:07:05Z</time>
      </trkpt>
      <trkpt lat="44.09464" lon="6.97534">
        <ele>1544.4</ele>
        <time>2025-07-15T09:07:07Z</time>
      </trkpt>
      <trkpt lat="44.09468" lon="6.97556">
        <ele>1543</ele>
        <time>2025-07-15T09:07:09Z</time>
      </trkpt>
      <trkpt lat="44.09471" lon="6.97568">
        <ele>1541.8</ele>
        <time>2025-07-15T09:07:11Z</time>
      </trkpt>
      <trkpt lat="44.09484" lon="6.97602">
        <ele>1540.6</ele>
        <time>2025-07-15T09:07:13Z</time>
      </trkpt>
      <trkpt lat="44.09491" lon="6.97614">
        <ele>1539.8</ele>
        <time>2025-07-15T09:07:14Z</time>
      </trkpt>
      <trkpt lat="44.09495" lon="6.97622">
        <ele>1539.4</ele>
        <time>2025-07-15T09:07:15Z</time>
      </trkpt>
      <trkpt lat="44.095" lon="6.97633">
        <ele>1538.6</ele>
        <time>2025-07-15T09:07:16Z</time>
      </trkpt>
      <trkpt lat="44.09505" lon="6.97648">
        <ele>1537.8</ele>
        <time>2025-07-15T09:07:17Z</time>
      </trkpt>
      <trkpt lat="44.09507" lon="6.97661">
        <ele>1537.2</ele>
        <time>2025-07-15T09:07:18Z</time>
      </trkpt>
      <trkpt lat="44.0951" lon="6.97675">
        <ele>1536.6</ele>
        <time>2025-07-15T09:07:19Z</time>
      </trkpt>
      <trkpt lat="44.09511" lon="6.97685">
        <ele>1535.2</ele>
        <time>2025-07-15T09:07:21Z</time>
      </trkpt>
      <trkpt lat="44.09516" lon="6.97711">
        <ele>1534.8</ele>
        <time>2025-07-15T09:07:22Z</time>
      </trkpt>
      <trkpt lat="44.09516" lon="6.97711">
        <ele>1534</ele>
        <time>2025-07-15T09:07:23Z</time>
      </trkpt>
      <trkpt lat="44.09525" lon="6.97738">
        <ele>1533.6</ele>
        <time>2025-07-15T09:07:24Z</time>
      </trkpt>
      <trkpt lat="44.0953" lon="6.97748">
        <ele>1532.6</ele>
        <time>2025-07-15T09:07:25Z</time>
      </trkpt>
      <trkpt lat="44.09543" lon="6.97776">
        <ele>1531.6</ele>
        <time>2025-07-15T09:07:27Z</time>
      </trkpt>
      <trkpt lat="44.09556" lon="6.97802">
        <ele>1530.4</ele>
        <time>2025-07-15T09:07:29Z</time>
      </trkpt>
      <trkpt lat="44.09562" lon="6.97812">
        <ele>1529.4</ele>
        <time>2025-07-15T09:07:30Z</time>
      </trkpt>
      <trkpt lat="44.09577" lon="6.97842">
        <ele>1528</ele>
        <time>2025-07-15T09:07:32Z</time>
      </trkpt>
      <trkpt lat="44.09583" lon="6.97852">
        <ele>1526.6</ele>
        <time>2025-07-15T09:07:34Z</time>
      </trkpt>
      <trkpt lat="44.09605" lon="6.97892">
        <ele>1525.4</ele>
        <time>2025-07-15T09:07:36Z</time>
      </trkpt>
      <trkpt lat="44.0961" lon="6.97906">
        <ele>1524.4</ele>
        <time>2025-07-15T09:07:37Z</time>
      </trkpt>
      <trkpt lat="44.09614" lon="6.97921">
        <ele>1524</ele>
        <time>2025-07-15T09:07:38Z</time>
      </trkpt>
      <trkpt lat="44.09616" lon="6.97937">
        <ele>1523</ele>
        <time>2025-07-15T09:07:39Z</time>
      </trkpt>
      <trkpt lat="44.09616" lon="6.97954">
        <ele>1522.6</ele>
        <time>2025-07-15T09:07:40Z</time>
      </trkpt>
      <trkpt lat="44.09616" lon="6.97954">
        <ele>1521.6</ele>
        <time>2025-07-15T09:07:41Z</time>
      </trkpt>
      <trkpt lat="44.09614" lon="6.97989">
        <ele>1520.4</ele>
        <time>2025-07-15T09:07:42Z</time>
      </trkpt>
      <trkpt lat="44.09613" lon="6.9801">
        <ele>1519.2</ele>
        <time>2025-07-15T09:07:44Z</time>
      </trkpt>
      <trkpt lat="44.09614" lon="6.98044">
        <ele>1518.8</ele>
        <time>2025-07-15T09:07:45Z</time>
      </trkpt>
      <trkpt lat="44.09615" lon="6.98062">
        <ele>1517.8</ele>
        <time>2025-07-15T09:07:46Z</time>
      </trkpt>
      <trkpt lat="44.09622" lon="6.98096">
        <ele>1516</ele>
        <time>2025-07-15T09:07:48Z</time>
      </trkpt>
      <trkpt lat="44.09625" lon="6.98113">
        <ele>1514.4</ele>
        <time>2025-07-15T09:07:49Z</time>
      </trkpt>
      <trkpt lat="44.09629" lon="6.98124">
        <ele>1513.8</ele>
        <time>2025-07-15T09:07:50Z</time>
      </trkpt>
      <trkpt lat="44.09634" lon="6.98138">
        <ele>1512.8</ele>
        <time>2025-07-15T09:07:51Z</time>
      </trkpt>
      <trkpt lat="44.09652" lon="6.9816">
        <ele>1510.8</ele>
        <time>2025-07-15T09:07:53Z</time>
      </trkpt>
      <trkpt lat="44.09669" lon="6.98176">
        <ele>1508.8</ele>
        <time>2025-07-15T09:07:55Z</time>
      </trkpt>
      <trkpt lat="44.09679" lon="6.98194">
        <ele>1506.6</ele>
        <time>2025-07-15T09:07:57Z</time>
      </trkpt>
      <trkpt lat="44.09682" lon="6.98209">
        <ele>1505.8</ele>
        <time>2025-07-15T09:07:58Z</time>
      </trkpt>
      <trkpt lat="44.09683" lon="6.98221">
        <ele>1505.4</ele>
        <time>2025-07-15T09:07:59Z</time>
      </trkpt>
      <trkpt lat="44.09683" lon="6.98233">
        <ele>1504.4</ele>
        <time>2025-07-15T09:08:00Z</time>
      </trkpt>
      <trkpt lat="44.09683" lon="6.98254">
        <ele>1502.6</ele>
        <time>2025-07-15T09:08:02Z</time>
      </trkpt>
      <trkpt lat="44.09683" lon="6.98278">
        <ele>1501</ele>
        <time>2025-07-15T09:08:04Z</time>
      </trkpt>
      <trkpt lat="44.09681" lon="6.983">
        <ele>1499.8</ele>
        <time>2025-07-15T09:08:06Z</time>
      </trkpt>
      <trkpt lat="44.09678" lon="6.98321">
        <ele>1498.4</ele>
        <time>2025-07-15T09:08:08Z</time>
      </trkpt>
      <trkpt lat="44.09677" lon="6.98331">
        <ele>1497.4</ele>
        <time>2025-07-15T09:08:09Z</time>
      </trkpt>
      <trkpt lat="44.09675" lon="6.98341">
        <ele>1497</ele>
        <time>2025-07-15T09:08:10Z</time>
      </trkpt>
      <trkpt lat="44.09669" lon="6.98362">
        <ele>1496</ele>
        <time>2025-07-15T09:08:12Z</time>
      </trkpt>
      <trkpt lat="44.09664" lon="6.98386">
        <ele>1494.8</ele>
        <time>2025-07-15T09:08:14Z</time>
      </trkpt>
      <trkpt lat="44.09659" lon="6.98426">
        <ele>1493.8</ele>
        <time>2025-07-15T09:08:17Z</time>
      </trkpt>
      <trkpt lat="44.09658" lon="6.9844">
        <ele>1493</ele>
        <time>2025-07-15T09:08:18Z</time>
      </trkpt>
      <trkpt lat="44.09658" lon="6.98451">
        <ele>1492.4</ele>
        <time>2025-07-15T09:08:19Z</time>
      </trkpt>
      <trkpt lat="44.09658" lon="6.98465">
        <ele>1491.8</ele>
        <time>2025-07-15T09:08:20Z</time>
      </trkpt>
      <trkpt lat="44.0966" lon="6.98479">
        <ele>1490.8</ele>
        <time>2025-07-15T09:08:21Z</time>
      </trkpt>
      <trkpt lat="44.09662" lon="6.98493">
        <ele>1490.4</ele>
        <time>2025-07-15T09:08:22Z</time>
      </trkpt>
      <trkpt lat="44.09665" lon="6.98509">
        <ele>1489.6</ele>
        <time>2025-07-15T09:08:23Z</time>
      </trkpt>
      <trkpt lat="44.09671" lon="6.98543">
        <ele>1488.2</ele>
        <time>2025-07-15T09:08:26Z</time>
      </trkpt>
      <trkpt lat="44.09671" lon="6.98555">
        <ele>1486.6</ele>
        <time>2025-07-15T09:08:27Z</time>
      </trkpt>
      <trkpt lat="44.09668" lon="6.98565">
        <ele>1486.2</ele>
        <time>2025-07-15T09:08:28Z</time>
      </trkpt>
      <trkpt lat="44.09664" lon="6.98574">
        <ele>1485.4</ele>
        <time>2025-07-15T09:08:29Z</time>
      </trkpt>
      <trkpt lat="44.09659" lon="6.98583">
        <ele>1484.6</ele>
        <time>2025-07-15T09:08:30Z</time>
      </trkpt>
      <trkpt lat="44.09652" lon="6.98589">
        <ele>1484.4</ele>
        <time>2025-07-15T09:08:31Z</time>
      </trkpt>
      <trkpt lat="44.09639" lon="6.98601">
        <ele>1483.2</ele>
        <time>2025-07-15T09:08:33Z</time>
      </trkpt>
      <trkpt lat="44.09632" lon="6.98608">
        <ele>1482.4</ele>
        <time>2025-07-15T09:08:34Z</time>
      </trkpt>
      <trkpt lat="44.09627" lon="6.98612">
        <ele>1481.6</ele>
        <time>2025-07-15T09:08:35Z</time>
      </trkpt>
      <trkpt lat="44.09621" lon="6.98617">
        <ele>1481</ele>
        <time>2025-07-15T09:08:36Z</time>
      </trkpt>
      <trkpt lat="44.09615" lon="6.98621">
        <ele>1480</ele>
        <time>2025-07-15T09:08:37Z</time>
      </trkpt>
      <trkpt lat="44.09615" lon="6.98621">
        <ele>1479.6</ele>
        <time>2025-07-15T09:08:38Z</time>
      </trkpt>
      <trkpt lat="44.09605" lon="6.98625">
        <ele>1479.2</ele>
        <time>2025-07-15T09:08:39Z</time>
      </trkpt>
      <trkpt lat="44.096" lon="6.98624">
        <ele>1478.8</ele>
        <time>2025-07-15T09:08:40Z</time>
      </trkpt>
      <trkpt lat="44.09598" lon="6.98621">
        <ele>1478.4</ele>
        <time>2025-07-15T09:08:41Z</time>
      </trkpt>
      <trkpt lat="44.09598" lon="6.98615">
        <ele>1478</ele>
        <time>2025-07-15T09:08:42Z</time>
      </trkpt>
      <trkpt lat="44.09598" lon="6.98615">
        <ele>1477.6</ele>
        <time>2025-07-15T09:08:43Z</time>
      </trkpt>
      <trkpt lat="44.09604" lon="6.98605">
        <ele>1477.4</ele>
        <time>2025-07-15T09:08:44Z</time>
      </trkpt>
      <trkpt lat="44.09609" lon="6.986">
        <ele>1477</ele>
        <time>2025-07-15T09:08:45Z</time>
      </trkpt>
      <trkpt lat="44.09611" lon="6.98596">
        <ele>1476.6</ele>
        <time>2025-07-15T09:08:46Z</time>
      </trkpt>
      <trkpt lat="44.09613" lon="6.98589">
        <ele>1476.4</ele>
        <time>2025-07-15T09:08:47Z</time>
      </trkpt>
      <trkpt lat="44.09612" lon="6.98583">
        <ele>1476.4</ele>
        <time>2025-07-15T09:08:48Z</time>
      </trkpt>
      <trkpt lat="44.09605" lon="6.98569">
        <ele>1476.2</ele>
        <time>2025-07-15T09:08:50Z</time>
      </trkpt>
      <trkpt lat="44.09605" lon="6.98569">
        <ele>1476</ele>
        <time>2025-07-15T09:08:51Z</time>
      </trkpt>
      <trkpt lat="44.09593" lon="6.98565">
        <ele>1476</ele>
        <time>2025-07-15T09:08:52Z</time>
      </trkpt>
      <trkpt lat="44.09586" lon="6.98568">
        <ele>1475.8</ele>
        <time>2025-07-15T09:08:53Z</time>
      </trkpt>
      <trkpt lat="44.09573" lon="6.98579">
        <ele>1475.4</ele>
        <time>2025-07-15T09:08:55Z</time>
      </trkpt>
      <trkpt lat="44.09553" lon="6.98596">
        <ele>1474.2</ele>
        <time>2025-07-15T09:08:58Z</time>
      </trkpt>
      <trkpt lat="44.09545" lon="6.98602">
        <ele>1473.6</ele>
        <time>2025-07-15T09:08:59Z</time>
      </trkpt>
      <trkpt lat="44.0953" lon="6.98615">
        <ele>1472.8</ele>
        <time>2025-07-15T09:09:01Z</time>
      </trkpt>
      <trkpt lat="44.09506" lon="6.98634">
        <ele>1471.4</ele>
        <time>2025-07-15T09:09:04Z</time>
      </trkpt>
      <trkpt lat="44.09498" lon="6.9864">
        <ele>1471</ele>
        <time>2025-07-15T09:09:05Z</time>
      </trkpt>
      <trkpt lat="44.09482" lon="6.98651">
        <ele>1470.2</ele>
        <time>2025-07-15T09:09:07Z</time>
      </trkpt>
      <trkpt lat="44.09476" lon="6.98658">
        <ele>1469.2</ele>
        <time>2025-07-15T09:09:08Z</time>
      </trkpt>
      <trkpt lat="44.09471" lon="6.98667">
        <ele>1468.2</ele>
        <time>2025-07-15T09:09:09Z</time>
      </trkpt>
      <trkpt lat="44.09467" lon="6.98677">
        <ele>1467.8</ele>
        <time>2025-07-15T09:09:10Z</time>
      </trkpt>
      <trkpt lat="44.09464" lon="6.98688">
        <ele>1467</ele>
        <time>2025-07-15T09:09:11Z</time>
      </trkpt>
      <trkpt lat="44.09464" lon="6.987">
        <ele>1466.6</ele>
        <time>2025-07-15T09:09:12Z</time>
      </trkpt>
      <trkpt lat="44.09463" lon="6.98711">
        <ele>1465.8</ele>
        <time>2025-07-15T09:09:14Z</time>
      </trkpt>
      <trkpt lat="44.09462" lon="6.98733">
        <ele>1465</ele>
        <time>2025-07-15T09:09:15Z</time>
      </trkpt>
      <trkpt lat="44.0946" lon="6.98745">
        <ele>1464.6</ele>
        <time>2025-07-15T09:09:16Z</time>
      </trkpt>
      <trkpt lat="44.09457" lon="6.98755">
        <ele>1463.8</ele>
        <time>2025-07-15T09:09:17Z</time>
      </trkpt>
      <trkpt lat="44.09451" lon="6.98765">
        <ele>1463.4</ele>
        <time>2025-07-15T09:09:19Z</time>
      </trkpt>
      <trkpt lat="44.09437" lon="6.98781">
        <ele>1462.8</ele>
        <time>2025-07-15T09:09:20Z</time>
      </trkpt>
      <trkpt lat="44.09417" lon="6.98805">
        <ele>1461.6</ele>
        <time>2025-07-15T09:09:23Z</time>
      </trkpt>
      <trkpt lat="44.09417" lon="6.98805">
        <ele>1460.8</ele>
        <time>2025-07-15T09:09:24Z</time>
      </trkpt>
      <trkpt lat="44.09402" lon="6.98821">
        <ele>1460</ele>
        <time>2025-07-15T09:09:25Z</time>
      </trkpt>
      <trkpt lat="44.09388" lon="6.9884">
        <ele>1459</ele>
        <time>2025-07-15T09:09:27Z</time>
      </trkpt>
      <trkpt lat="44.09382" lon="6.9885">
        <ele>1458</ele>
        <time>2025-07-15T09:09:29Z</time>
      </trkpt>
      <trkpt lat="44.09372" lon="6.98873">
        <ele>1457.8</ele>
        <time>2025-07-15T09:09:30Z</time>
      </trkpt>
      <trkpt lat="44.09364" lon="6.98896">
        <ele>1456.8</ele>
        <time>2025-07-15T09:09:32Z</time>
      </trkpt>
      <trkpt lat="44.09358" lon="6.98921">
        <ele>1455.6</ele>
        <time>2025-07-15T09:09:34Z</time>
      </trkpt>
      <trkpt lat="44.09351" lon="6.98947">
        <ele>1454.4</ele>
        <time>2025-07-15T09:09:36Z</time>
      </trkpt>
      <trkpt lat="44.09344" lon="6.98976">
        <ele>1452.6</ele>
        <time>2025-07-15T09:09:38Z</time>
      </trkpt>
      <trkpt lat="44.09341" lon="6.98989">
        <ele>1452.2</ele>
        <time>2025-07-15T09:09:39Z</time>
      </trkpt>
      <trkpt lat="44.09336" lon="6.99003">
        <ele>1451</ele>
        <time>2025-07-15T09:09:40Z</time>
      </trkpt>
      <trkpt lat="44.0933" lon="6.99016">
        <ele>1450.4</ele>
        <time>2025-07-15T09:09:41Z</time>
      </trkpt>
      <trkpt lat="44.09323" lon="6.99027">
        <ele>1450</ele>
        <time>2025-07-15T09:09:42Z</time>
      </trkpt>
      <trkpt lat="44.09312" lon="6.99051">
        <ele>1448.6</ele>
        <time>2025-07-15T09:09:44Z</time>
      </trkpt>
      <trkpt lat="44.09308" lon="6.99064">
        <ele>1447.2</ele>
        <time>2025-07-15T09:09:45Z</time>
      </trkpt>
      <trkpt lat="44.09307" lon="6.99078">
        <ele>1446.6</ele>
        <time>2025-07-15T09:09:46Z</time>
      </trkpt>
      <trkpt lat="44.09307" lon="6.99093">
        <ele>1445.4</ele>
        <time>2025-07-15T09:09:47Z</time>
      </trkpt>
      <trkpt lat="44.09308" lon="6.99108">
        <ele>1445</ele>
        <time>2025-07-15T09:09:48Z</time>
      </trkpt>
      <trkpt lat="44.09308" lon="6.99124">
        <ele>1444</ele>
        <time>2025-07-15T09:09:49Z</time>
      </trkpt>
      <trkpt lat="44.09306" lon="6.99154">
        <ele>1442.6</ele>
        <time>2025-07-15T09:09:51Z</time>
      </trkpt>
      <trkpt lat="44.09303" lon="6.99169">
        <ele>1441.8</ele>
        <time>2025-07-15T09:09:52Z</time>
      </trkpt>
      <trkpt lat="44.09296" lon="6.99198">
        <ele>1440.2</ele>
        <time>2025-07-15T09:09:54Z</time>
      </trkpt>
      <trkpt lat="44.09296" lon="6.99224">
        <ele>1438.8</ele>
        <time>2025-07-15T09:09:56Z</time>
      </trkpt>
      <trkpt lat="44.09301" lon="6.99261">
        <ele>1436.4</ele>
        <time>2025-07-15T09:09:59Z</time>
      </trkpt>
      <trkpt lat="44.09304" lon="6.9927">
        <ele>1435.8</ele>
        <time>2025-07-15T09:10:00Z</time>
      </trkpt>
      <trkpt lat="44.09306" lon="6.99279">
        <ele>1435</ele>
        <time>2025-07-15T09:10:01Z</time>
      </trkpt>
      <trkpt lat="44.09306" lon="6.99287">
        <ele>1434.8</ele>
        <time>2025-07-15T09:10:02Z</time>
      </trkpt>
      <trkpt lat="44.09303" lon="6.9929">
        <ele>1434</ele>
        <time>2025-07-15T09:10:03Z</time>
      </trkpt>
      <trkpt lat="44.093" lon="6.99289">
        <ele>1433.4</ele>
        <time>2025-07-15T09:10:04Z</time>
      </trkpt>
      <trkpt lat="44.09297" lon="6.99283">
        <ele>1432.6</ele>
        <time>2025-07-15T09:10:05Z</time>
      </trkpt>
      <trkpt lat="44.09295" lon="6.99275">
        <ele>1431.6</ele>
        <time>2025-07-15T09:10:06Z</time>
      </trkpt>
      <trkpt lat="44.09294" lon="6.99265">
        <ele>1431.2</ele>
        <time>2025-07-15T09:10:07Z</time>
      </trkpt>
      <trkpt lat="44.0929" lon="6.99247">
        <ele>1430</ele>
        <time>2025-07-15T09:10:09Z</time>
      </trkpt>
      <trkpt lat="44.09288" lon="6.99234">
        <ele>1429.6</ele>
        <time>2025-07-15T09:10:10Z</time>
      </trkpt>
      <trkpt lat="44.09285" lon="6.99211">
        <ele>1429</ele>
        <time>2025-07-15T09:10:12Z</time>
      </trkpt>
      <trkpt lat="44.09285" lon="6.99176">
        <ele>1428</ele>
        <time>2025-07-15T09:10:15Z</time>
      </trkpt>
      <trkpt lat="44.09286" lon="6.99156">
        <ele>1427.4</ele>
        <time>2025-07-15T09:10:17Z</time>
      </trkpt>
      <trkpt lat="44.09284" lon="6.9915">
        <ele>1427.2</ele>
        <time>2025-07-15T09:10:18Z</time>
      </trkpt>
      <trkpt lat="44.09284" lon="6.9915">
        <ele>1426.6</ele>
        <time>2025-07-15T09:10:19Z</time>
      </trkpt>
      <trkpt lat="44.09274" lon="6.9915">
        <ele>1426.4</ele>
        <time>2025-07-15T09:10:20Z</time>
      </trkpt>
      <trkpt lat="44.09272" lon="6.99157">
        <ele>1425.6</ele>
        <time>2025-07-15T09:10:21Z</time>
      </trkpt>
      <trkpt lat="44.0927" lon="6.99165">
        <ele>1424.8</ele>
        <time>2025-07-15T09:10:22Z</time>
      </trkpt>
      <trkpt lat="44.0927" lon="6.99173">
        <ele>1424.4</ele>
        <time>2025-07-15T09:10:23Z</time>
      </trkpt>
      <trkpt lat="44.09271" lon="6.99207">
        <ele>1423.2</ele>
        <time>2025-07-15T09:10:26Z</time>
      </trkpt>
      <trkpt lat="44.09272" lon="6.99229">
        <ele>1422.4</ele>
        <time>2025-07-15T09:10:28Z</time>
      </trkpt>
      <trkpt lat="44.09273" lon="6.99242">
        <ele>1422</ele>
        <time>2025-07-15T09:10:29Z</time>
      </trkpt>
      <trkpt lat="44.0928" lon="6.99288">
        <ele>1420.6</ele>
        <time>2025-07-15T09:10:33Z</time>
      </trkpt>
      <trkpt lat="44.09283" lon="6.99296">
        <ele>1419.6</ele>
        <time>2025-07-15T09:10:34Z</time>
      </trkpt>
      <trkpt lat="44.09285" lon="6.99305">
        <ele>1418.2</ele>
        <time>2025-07-15T09:10:35Z</time>
      </trkpt>
      <trkpt lat="44.09284" lon="6.9931">
        <ele>1418.2</ele>
        <time>2025-07-15T09:10:36Z</time>
      </trkpt>
      <trkpt lat="44.09279" lon="6.9931">
        <ele>1416.6</ele>
        <time>2025-07-15T09:10:38Z</time>
      </trkpt>
      <trkpt lat="44.09275" lon="6.99297">
        <ele>1415.4</ele>
        <time>2025-07-15T09:10:40Z</time>
      </trkpt>
      <trkpt lat="44.0927" lon="6.99279">
        <ele>1414.6</ele>
        <time>2025-07-15T09:10:42Z</time>
      </trkpt>
      <trkpt lat="44.0927" lon="6.99279">
        <ele>1414.4</ele>
        <time>2025-07-15T09:10:43Z</time>
      </trkpt>
      <trkpt lat="44.09262" lon="6.99239">
        <ele>1413</ele>
        <time>2025-07-15T09:10:46Z</time>
      </trkpt>
      <trkpt lat="44.09259" lon="6.99219">
        <ele>1412.4</ele>
        <time>2025-07-15T09:10:48Z</time>
      </trkpt>
      <trkpt lat="44.09254" lon="6.99183">
        <ele>1411.4</ele>
        <time>2025-07-15T09:10:51Z</time>
      </trkpt>
      <trkpt lat="44.09247" lon="6.99165">
        <ele>1410.4</ele>
        <time>2025-07-15T09:10:53Z</time>
      </trkpt>
      <trkpt lat="44.09239" lon="6.99158">
        <ele>1410.2</ele>
        <time>2025-07-15T09:10:54Z</time>
      </trkpt>
      <trkpt lat="44.09232" lon="6.99153">
        <ele>1410</ele>
        <time>2025-07-15T09:10:55Z</time>
      </trkpt>
      <trkpt lat="44.09225" lon="6.99149">
        <ele>1409.2</ele>
        <time>2025-07-15T09:10:56Z</time>
      </trkpt>
      <trkpt lat="44.09217" lon="6.99148">
        <ele>1409</ele>
        <time>2025-07-15T09:10:57Z</time>
      </trkpt>
      <trkpt lat="44.09205" lon="6.99154">
        <ele>1408.4</ele>
        <time>2025-07-15T09:10:59Z</time>
      </trkpt>
      <trkpt lat="44.09198" lon="6.99173">
        <ele>1408</ele>
        <time>2025-07-15T09:11:01Z</time>
      </trkpt>
      <trkpt lat="44.09197" lon="6.99187">
        <ele>1408</ele>
        <time>2025-07-15T09:11:02Z</time>
      </trkpt>
      <trkpt lat="44.09188" lon="6.99237">
        <ele>1407.4</ele>
        <time>2025-07-15T09:11:06Z</time>
      </trkpt>
      <trkpt lat="44.0918" lon="6.99249">
        <ele>1406.6</ele>
        <time>2025-07-15T09:11:07Z</time>
      </trkpt>
      <trkpt lat="44.09173" lon="6.99255">
        <ele>1406.2</ele>
        <time>2025-07-15T09:11:08Z</time>
      </trkpt>
      <trkpt lat="44.09164" lon="6.99262">
        <ele>1405.4</ele>
        <time>2025-07-15T09:11:10Z</time>
      </trkpt>
      <trkpt lat="44.09142" lon="6.99268">
        <ele>1405</ele>
        <time>2025-07-15T09:11:11Z</time>
      </trkpt>
      <trkpt lat="44.09131" lon="6.9927">
        <ele>1404</ele>
        <time>2025-07-15T09:11:12Z</time>
      </trkpt>
      <trkpt lat="44.0912" lon="6.99273">
        <ele>1403.6</ele>
        <time>2025-07-15T09:11:13Z</time>
      </trkpt>
      <trkpt lat="44.09108" lon="6.99275">
        <ele>1402.8</ele>
        <time>2025-07-15T09:11:14Z</time>
      </trkpt>
      <trkpt lat="44.09086" lon="6.99273">
        <ele>1401.2</ele>
        <time>2025-07-15T09:11:16Z</time>
      </trkpt>
      <trkpt lat="44.09075" lon="6.99271">
        <ele>1400</ele>
        <time>2025-07-15T09:11:17Z</time>
      </trkpt>
      <trkpt lat="44.09053" lon="6.99268">
        <ele>1398.6</ele>
        <time>2025-07-15T09:11:19Z</time>
      </trkpt>
      <trkpt lat="44.09032" lon="6.99269">
        <ele>1397.4</ele>
        <time>2025-07-15T09:11:21Z</time>
      </trkpt>
      <trkpt lat="44.09022" lon="6.99269">
        <ele>1397</ele>
        <time>2025-07-15T09:11:22Z</time>
      </trkpt>
      <trkpt lat="44.09011" lon="6.9927">
        <ele>1396.2</ele>
        <time>2025-07-15T09:11:23Z</time>
      </trkpt>
      <trkpt lat="44.08981" lon="6.99276">
        <ele>1395.2</ele>
        <time>2025-07-15T09:11:26Z</time>
      </trkpt>
      <trkpt lat="44.08971" lon="6.9928">
        <ele>1395</ele>
        <time>2025-07-15T09:11:27Z</time>
      </trkpt>
      <trkpt lat="44.08941" lon="6.99291">
        <ele>1393.4</ele>
        <time>2025-07-15T09:11:30Z</time>
      </trkpt>
      <trkpt lat="44.08913" lon="6.99304">
        <ele>1392.6</ele>
        <time>2025-07-15T09:11:33Z</time>
      </trkpt>
      <trkpt lat="44.08904" lon="6.99309">
        <ele>1392.2</ele>
        <time>2025-07-15T09:11:34Z</time>
      </trkpt>
      <trkpt lat="44.08885" lon="6.99324">
        <ele>1391.6</ele>
        <time>2025-07-15T09:11:36Z</time>
      </trkpt>
      <trkpt lat="44.08877" lon="6.99331">
        <ele>1391.2</ele>
        <time>2025-07-15T09:11:37Z</time>
      </trkpt>
      <trkpt lat="44.0887" lon="6.9934">
        <ele>1391</ele>
        <time>2025-07-15T09:11:38Z</time>
      </trkpt>
      <trkpt lat="44.08837" lon="6.99376">
        <ele>1390</ele>
        <time>2025-07-15T09:11:42Z</time>
      </trkpt>
      <trkpt lat="44.08828" lon="6.99384">
        <ele>1389.8</ele>
        <time>2025-07-15T09:11:43Z</time>
      </trkpt>
      <trkpt lat="44.08811" lon="6.99396">
        <ele>1388.6</ele>
        <time>2025-07-15T09:11:46Z</time>
      </trkpt>
      <trkpt lat="44.08791" lon="6.99407">
        <ele>1388.4</ele>
        <time>2025-07-15T09:11:47Z</time>
      </trkpt>
      <trkpt lat="44.0878" lon="6.99411">
        <ele>1387.6</ele>
        <time>2025-07-15T09:11:48Z</time>
      </trkpt>
      <trkpt lat="44.0877" lon="6.99414">
        <ele>1387</ele>
        <time>2025-07-15T09:11:49Z</time>
      </trkpt>
      <trkpt lat="44.08738" lon="6.99417">
        <ele>1386</ele>
        <time>2025-07-15T09:11:52Z</time>
      </trkpt>
      <trkpt lat="44.08728" lon="6.99417">
        <ele>1385.6</ele>
        <time>2025-07-15T09:11:53Z</time>
      </trkpt>
      <trkpt lat="44.08707" lon="6.99414">
        <ele>1384.2</ele>
        <time>2025-07-15T09:11:56Z</time>
      </trkpt>
      <trkpt lat="44.08687" lon="6.99411">
        <ele>1384.2</ele>
        <time>2025-07-15T09:11:57Z</time>
      </trkpt>
      <trkpt lat="44.08666" lon="6.99411">
        <ele>1383.6</ele>
        <time>2025-07-15T09:11:59Z</time>
      </trkpt>
      <trkpt lat="44.08656" lon="6.99413">
        <ele>1383.2</ele>
        <time>2025-07-15T09:12:00Z</time>
      </trkpt>
      <trkpt lat="44.08646" lon="6.99416">
        <ele>1383</ele>
        <time>2025-07-15T09:12:01Z</time>
      </trkpt>
      <trkpt lat="44.08616" lon="6.99422">
        <ele>1381.8</ele>
        <time>2025-07-15T09:12:04Z</time>
      </trkpt>
      <trkpt lat="44.08576" lon="6.99432">
        <ele>1380.8</ele>
        <time>2025-07-15T09:12:08Z</time>
      </trkpt>
      <trkpt lat="44.08558" lon="6.99436">
        <ele>1379.8</ele>
        <time>2025-07-15T09:12:10Z</time>
      </trkpt>
      <trkpt lat="44.08549" lon="6.99438">
        <ele>1379.4</ele>
        <time>2025-07-15T09:12:11Z</time>
      </trkpt>
      <trkpt lat="44.0852" lon="6.99441">
        <ele>1378</ele>
        <time>2025-07-15T09:12:14Z</time>
      </trkpt>
      <trkpt lat="44.0851" lon="6.99442">
        <ele>1378</ele>
        <time>2025-07-15T09:12:15Z</time>
      </trkpt>
      <trkpt lat="44.08461" lon="6.99444">
        <ele>1377</ele>
        <time>2025-07-15T09:12:20Z</time>
      </trkpt>
      <trkpt lat="44.08432" lon="6.99449">
        <ele>1376</ele>
        <time>2025-07-15T09:12:23Z</time>
      </trkpt>
      <trkpt lat="44.08385" lon="6.99464">
        <ele>1374.6</ele>
        <time>2025-07-15T09:12:28Z</time>
      </trkpt>
      <trkpt lat="44.08375" lon="6.99466">
        <ele>1374.4</ele>
        <time>2025-07-15T09:12:29Z</time>
      </trkpt>
      <trkpt lat="44.08355" lon="6.99467">
        <ele>1373.6</ele>
        <time>2025-07-15T09:12:31Z</time>
      </trkpt>
      <trkpt lat="44.08355" lon="6.99467">
        <ele>1373.2</ele>
        <time>2025-07-15T09:12:32Z</time>
      </trkpt>
      <trkpt lat="44.08334" lon="6.99465">
        <ele>1373</ele>
        <time>2025-07-15T09:12:33Z</time>
      </trkpt>
      <trkpt lat="44.08313" lon="6.9946">
        <ele>1372</ele>
        <time>2025-07-15T09:12:35Z</time>
      </trkpt>
      <trkpt lat="44.08303" lon="6.99457">
        <ele>1371.6</ele>
        <time>2025-07-15T09:12:36Z</time>
      </trkpt>
      <trkpt lat="44.08303" lon="6.99457">
        <ele>1371</ele>
        <time>2025-07-15T09:12:37Z</time>
      </trkpt>
      <trkpt lat="44.08283" lon="6.9945">
        <ele>1370.4</ele>
        <time>2025-07-15T09:12:38Z</time>
      </trkpt>
      <trkpt lat="44.08272" lon="6.99447">
        <ele>1369.8</ele>
        <time>2025-07-15T09:12:39Z</time>
      </trkpt>
      <trkpt lat="44.08262" lon="6.99444">
        <ele>1369.8</ele>
        <time>2025-07-15T09:12:40Z</time>
      </trkpt>
      <trkpt lat="44.08229" lon="6.99437">
        <ele>1368.8</ele>
        <time>2025-07-15T09:12:43Z</time>
      </trkpt>
      <trkpt lat="44.08187" lon="6.99426">
        <ele>1367.8</ele>
        <time>2025-07-15T09:12:47Z</time>
      </trkpt>
      <trkpt lat="44.08187" lon="6.99426">
        <ele>1367.2</ele>
        <time>2025-07-15T09:12:48Z</time>
      </trkpt>
      <trkpt lat="44.08154" lon="6.99413">
        <ele>1366.4</ele>
        <time>2025-07-15T09:12:50Z</time>
      </trkpt>
      <trkpt lat="44.0812" lon="6.99401">
        <ele>1364.4</ele>
        <time>2025-07-15T09:12:53Z</time>
      </trkpt>
      <trkpt lat="44.08096" lon="6.99393">
        <ele>1363.8</ele>
        <time>2025-07-15T09:12:55Z</time>
      </trkpt>
      <trkpt lat="44.08076" lon="6.99391">
        <ele>1363.4</ele>
        <time>2025-07-15T09:12:57Z</time>
      </trkpt>
      <trkpt lat="44.08053" lon="6.99389">
        <ele>1362.4</ele>
        <time>2025-07-15T09:12:59Z</time>
      </trkpt>
      <trkpt lat="44.08019" lon="6.99385">
        <ele>1361.2</ele>
        <time>2025-07-15T09:13:02Z</time>
      </trkpt>
      <trkpt lat="44.08008" lon="6.99382">
        <ele>1361.2</ele>
        <time>2025-07-15T09:13:03Z</time>
      </trkpt>
      <trkpt lat="44.07973" lon="6.99372">
        <ele>1359.8</ele>
        <time>2025-07-15T09:13:06Z</time>
      </trkpt>
      <trkpt lat="44.07934" lon="6.99363">
        <ele>1358.8</ele>
        <time>2025-07-15T09:13:09Z</time>
      </trkpt>
      <trkpt lat="44.0789" lon="6.99362">
        <ele>1357.2</ele>
        <time>2025-07-15T09:13:13Z</time>
      </trkpt>
      <trkpt lat="44.0788" lon="6.99358">
        <ele>1356.8</ele>
        <time>2025-07-15T09:13:14Z</time>
      </trkpt>
      <trkpt lat="44.07869" lon="6.99349">
        <ele>1355.8</ele>
        <time>2025-07-15T09:13:15Z</time>
      </trkpt>
      <trkpt lat="44.07861" lon="6.99342">
        <ele>1354.8</ele>
        <time>2025-07-15T09:13:16Z</time>
      </trkpt>
      <trkpt lat="44.07851" lon="6.99333">
        <ele>1354.4</ele>
        <time>2025-07-15T09:13:17Z</time>
      </trkpt>
      <trkpt lat="44.07851" lon="6.99333">
        <ele>1353.4</ele>
        <time>2025-07-15T09:13:18Z</time>
      </trkpt>
      <trkpt lat="44.07822" lon="6.99305">
        <ele>1352.2</ele>
        <time>2025-07-15T09:13:20Z</time>
      </trkpt>
      <trkpt lat="44.07801" lon="6.99286">
        <ele>1351</ele>
        <time>2025-07-15T09:13:22Z</time>
      </trkpt>
      <trkpt lat="44.07792" lon="6.99275">
        <ele>1350.2</ele>
        <time>2025-07-15T09:13:23Z</time>
      </trkpt>
      <trkpt lat="44.07782" lon="6.99265">
        <ele>1349.6</ele>
        <time>2025-07-15T09:13:24Z</time>
      </trkpt>
      <trkpt lat="44.07782" lon="6.99265">
        <ele>1348.4</ele>
        <time>2025-07-15T09:13:25Z</time>
      </trkpt>
      <trkpt lat="44.07764" lon="6.99242">
        <ele>1347.8</ele>
        <time>2025-07-15T09:13:26Z</time>
      </trkpt>
      <trkpt lat="44.07756" lon="6.9923">
        <ele>1346.8</ele>
        <time>2025-07-15T09:13:27Z</time>
      </trkpt>
      <trkpt lat="44.07739" lon="6.99206">
        <ele>1345.4</ele>
        <time>2025-07-15T09:13:29Z</time>
      </trkpt>
      <trkpt lat="44.07715" lon="6.99171">
        <ele>1344.2</ele>
        <time>2025-07-15T09:13:32Z</time>
      </trkpt>
      <trkpt lat="44.07707" lon="6.99158">
        <ele>1343.8</ele>
        <time>2025-07-15T09:13:33Z</time>
      </trkpt>
      <trkpt lat="44.0769" lon="6.99131">
        <ele>1343</ele>
        <time>2025-07-15T09:13:35Z</time>
      </trkpt>
      <trkpt lat="44.07676" lon="6.9911">
        <ele>1341.8</ele>
        <time>2025-07-15T09:13:38Z</time>
      </trkpt>
      <trkpt lat="44.07655" lon="6.99086">
        <ele>1341.4</ele>
        <time>2025-07-15T09:13:39Z</time>
      </trkpt>
      <trkpt lat="44.07635" lon="6.99071">
        <ele>1340.6</ele>
        <time>2025-07-15T09:13:41Z</time>
      </trkpt>
      <trkpt lat="44.07616" lon="6.99057">
        <ele>1340</ele>
        <time>2025-07-15T09:13:43Z</time>
      </trkpt>
      <trkpt lat="44.07594" lon="6.99038">
        <ele>1339.6</ele>
        <time>2025-07-15T09:13:45Z</time>
      </trkpt>
      <trkpt lat="44.07576" lon="6.99022">
        <ele>1338.2</ele>
        <time>2025-07-15T09:13:48Z</time>
      </trkpt>
      <trkpt lat="44.07553" lon="6.99004">
        <ele>1338</ele>
        <time>2025-07-15T09:13:49Z</time>
      </trkpt>
      <trkpt lat="44.0753" lon="6.98992">
        <ele>1337.4</ele>
        <time>2025-07-15T09:13:51Z</time>
      </trkpt>
      <trkpt lat="44.07519" lon="6.98987">
        <ele>1336.8</ele>
        <time>2025-07-15T09:13:52Z</time>
      </trkpt>
      <trkpt lat="44.07497" lon="6.98973">
        <ele>1336</ele>
        <time>2025-07-15T09:13:54Z</time>
      </trkpt>
      <trkpt lat="44.07487" lon="6.98962">
        <ele>1335.4</ele>
        <time>2025-07-15T09:13:55Z</time>
      </trkpt>
      <trkpt lat="44.0748" lon="6.98949">
        <ele>1335.4</ele>
        <time>2025-07-15T09:13:56Z</time>
      </trkpt>
      <trkpt lat="44.07464" lon="6.98922">
        <ele>1334.4</ele>
        <time>2025-07-15T09:13:58Z</time>
      </trkpt>
      <trkpt lat="44.07455" lon="6.9891">
        <ele>1333.6</ele>
        <time>2025-07-15T09:13:59Z</time>
      </trkpt>
      <trkpt lat="44.07445" lon="6.98899">
        <ele>1333.2</ele>
        <time>2025-07-15T09:14:00Z</time>
      </trkpt>
      <trkpt lat="44.07427" lon="6.98878">
        <ele>1332</ele>
        <time>2025-07-15T09:14:02Z</time>
      </trkpt>
      <trkpt lat="44.07418" lon="6.98866">
        <ele>1331</ele>
        <time>2025-07-15T09:14:03Z</time>
      </trkpt>
      <trkpt lat="44.07397" lon="6.9884">
        <ele>1329.8</ele>
        <time>2025-07-15T09:14:05Z</time>
      </trkpt>
      <trkpt lat="44.0739" lon="6.98831">
        <ele>1328.6</ele>
        <time>2025-07-15T09:14:06Z</time>
      </trkpt>
      <trkpt lat="44.0737" lon="6.98808">
        <ele>1327.6</ele>
        <time>2025-07-15T09:14:08Z</time>
      </trkpt>
      <trkpt lat="44.07351" lon="6.98784">
        <ele>1326.2</ele>
        <time>2025-07-15T09:14:10Z</time>
      </trkpt>
      <trkpt lat="44.0734" lon="6.98773">
        <ele>1325.2</ele>
        <time>2025-07-15T09:14:11Z</time>
      </trkpt>
      <trkpt lat="44.07306" lon="6.98745">
        <ele>1323.6</ele>
        <time>2025-07-15T09:14:14Z</time>
      </trkpt>
      <trkpt lat="44.07282" lon="6.9873">
        <ele>1322.4</ele>
        <time>2025-07-15T09:14:16Z</time>
      </trkpt>
      <trkpt lat="44.07258" lon="6.98719">
        <ele>1321</ele>
        <time>2025-07-15T09:14:18Z</time>
      </trkpt>
      <trkpt lat="44.07231" lon="6.98711">
        <ele>1319.8</ele>
        <time>2025-07-15T09:14:20Z</time>
      </trkpt>
      <trkpt lat="44.07208" lon="6.98703">
        <ele>1318.4</ele>
        <time>2025-07-15T09:14:22Z</time>
      </trkpt>
      <trkpt lat="44.07183" lon="6.98693">
        <ele>1317</ele>
        <time>2025-07-15T09:14:24Z</time>
      </trkpt>
      <trkpt lat="44.07171" lon="6.98688">
        <ele>1316.8</ele>
        <time>2025-07-15T09:14:25Z</time>
      </trkpt>
      <trkpt lat="44.07158" lon="6.98683">
        <ele>1315.8</ele>
        <time>2025-07-15T09:14:26Z</time>
      </trkpt>
      <trkpt lat="44.07122" lon="6.98666">
        <ele>1314.8</ele>
        <time>2025-07-15T09:14:29Z</time>
      </trkpt>
      <trkpt lat="44.07087" lon="6.98648">
        <ele>1313.6</ele>
        <time>2025-07-15T09:14:32Z</time>
      </trkpt>
      <trkpt lat="44.07074" lon="6.98638">
        <ele>1313</ele>
        <time>2025-07-15T09:14:33Z</time>
      </trkpt>
      <trkpt lat="44.07063" lon="6.9863">
        <ele>1312.4</ele>
        <time>2025-07-15T09:14:34Z</time>
      </trkpt>
      <trkpt lat="44.07034" lon="6.98608">
        <ele>1311.2</ele>
        <time>2025-07-15T09:14:37Z</time>
      </trkpt>
      <trkpt lat="44.0702" lon="6.98602">
        <ele>1310.8</ele>
        <time>2025-07-15T09:14:38Z</time>
      </trkpt>
      <trkpt lat="44.06998" lon="6.98597">
        <ele>1310</ele>
        <time>2025-07-15T09:14:40Z</time>
      </trkpt>
      <trkpt lat="44.06986" lon="6.98597">
        <ele>1309.8</ele>
        <time>2025-07-15T09:14:41Z</time>
      </trkpt>
      <trkpt lat="44.06964" lon="6.98598">
        <ele>1308.4</ele>
        <time>2025-07-15T09:14:43Z</time>
      </trkpt>
      <trkpt lat="44.0693" lon="6.986">
        <ele>1307</ele>
        <time>2025-07-15T09:14:46Z</time>
      </trkpt>
      <trkpt lat="44.06908" lon="6.98599">
        <ele>1306</ele>
        <time>2025-07-15T09:14:48Z</time>
      </trkpt>
      <trkpt lat="44.06898" lon="6.98597">
        <ele>1305.6</ele>
        <time>2025-07-15T09:14:49Z</time>
      </trkpt>
      <trkpt lat="44.06867" lon="6.98589">
        <ele>1304.6</ele>
        <time>2025-07-15T09:14:52Z</time>
      </trkpt>
      <trkpt lat="44.06846" lon="6.98587">
        <ele>1303.6</ele>
        <time>2025-07-15T09:14:54Z</time>
      </trkpt>
      <trkpt lat="44.06825" lon="6.98584">
        <ele>1302.2</ele>
        <time>2025-07-15T09:14:56Z</time>
      </trkpt>
      <trkpt lat="44.06816" lon="6.98579">
        <ele>1302</ele>
        <time>2025-07-15T09:14:57Z</time>
      </trkpt>
      <trkpt lat="44.06797" lon="6.98565">
        <ele>1301</ele>
        <time>2025-07-15T09:14:59Z</time>
      </trkpt>
      <trkpt lat="44.06788" lon="6.98557">
        <ele>1300.8</ele>
        <time>2025-07-15T09:15:00Z</time>
      </trkpt>
      <trkpt lat="44.0677" lon="6.98542">
        <ele>1299.6</ele>
        <time>2025-07-15T09:15:02Z</time>
      </trkpt>
      <trkpt lat="44.06739" lon="6.98527">
        <ele>1297.8</ele>
        <time>2025-07-15T09:15:05Z</time>
      </trkpt>
      <trkpt lat="44.06707" lon="6.98523">
        <ele>1296.6</ele>
        <time>2025-07-15T09:15:09Z</time>
      </trkpt>
      <trkpt lat="44.06666" lon="6.98521">
        <ele>1295.8</ele>
        <time>2025-07-15T09:15:12Z</time>
      </trkpt>
      <trkpt lat="44.06656" lon="6.98517">
        <ele>1295.6</ele>
        <time>2025-07-15T09:15:13Z</time>
      </trkpt>
      <trkpt lat="44.06647" lon="6.98511">
        <ele>1295.4</ele>
        <time>2025-07-15T09:15:14Z</time>
      </trkpt>
      <trkpt lat="44.06631" lon="6.98494">
        <ele>1294.2</ele>
        <time>2025-07-15T09:15:16Z</time>
      </trkpt>
      <trkpt lat="44.06615" lon="6.98479">
        <ele>1293.2</ele>
        <time>2025-07-15T09:15:18Z</time>
      </trkpt>
      <trkpt lat="44.0659" lon="6.98457">
        <ele>1291.4</ele>
        <time>2025-07-15T09:15:21Z</time>
      </trkpt>
      <trkpt lat="44.06582" lon="6.98451">
        <ele>1290.4</ele>
        <time>2025-07-15T09:15:22Z</time>
      </trkpt>
      <trkpt lat="44.06573" lon="6.98445">
        <ele>1289.2</ele>
        <time>2025-07-15T09:15:24Z</time>
      </trkpt>
      <trkpt lat="44.06553" lon="6.98436">
        <ele>1288.6</ele>
        <time>2025-07-15T09:15:25Z</time>
      </trkpt>
      <trkpt lat="44.06544" lon="6.98431">
        <ele>1287.6</ele>
        <time>2025-07-15T09:15:26Z</time>
      </trkpt>
      <trkpt lat="44.06534" lon="6.98428">
        <ele>1287.2</ele>
        <time>2025-07-15T09:15:27Z</time>
      </trkpt>
      <trkpt lat="44.06524" lon="6.98424">
        <ele>1286.6</ele>
        <time>2025-07-15T09:15:28Z</time>
      </trkpt>
      <trkpt lat="44.06504" lon="6.98419">
        <ele>1285.4</ele>
        <time>2025-07-15T09:15:30Z</time>
      </trkpt>
      <trkpt lat="44.06483" lon="6.98413">
        <ele>1284.2</ele>
        <time>2025-07-15T09:15:32Z</time>
      </trkpt>
      <trkpt lat="44.06461" lon="6.98407">
        <ele>1283.4</ele>
        <time>2025-07-15T09:15:34Z</time>
      </trkpt>
      <trkpt lat="44.0645" lon="6.98405">
        <ele>1282.8</ele>
        <time>2025-07-15T09:15:35Z</time>
      </trkpt>
      <trkpt lat="44.06417" lon="6.98399">
        <ele>1281.8</ele>
        <time>2025-07-15T09:15:38Z</time>
      </trkpt>
      <trkpt lat="44.06396" lon="6.98397">
        <ele>1281</ele>
        <time>2025-07-15T09:15:40Z</time>
      </trkpt>
      <trkpt lat="44.06386" lon="6.98396">
        <ele>1280.4</ele>
        <time>2025-07-15T09:15:41Z</time>
      </trkpt>
      <trkpt lat="44.06365" lon="6.98395">
        <ele>1279.4</ele>
        <time>2025-07-15T09:15:43Z</time>
      </trkpt>
      <trkpt lat="44.06344" lon="6.98391">
        <ele>1278.8</ele>
        <time>2025-07-15T09:15:45Z</time>
      </trkpt>
      <trkpt lat="44.06334" lon="6.98387">
        <ele>1278.2</ele>
        <time>2025-07-15T09:15:46Z</time>
      </trkpt>
      <trkpt lat="44.06323" lon="6.98381">
        <ele>1277.6</ele>
        <time>2025-07-15T09:15:47Z</time>
      </trkpt>
      <trkpt lat="44.06316" lon="6.98375">
        <ele>1277.2</ele>
        <time>2025-07-15T09:15:48Z</time>
      </trkpt>
      <trkpt lat="44.06295" lon="6.98359">
        <ele>1276.2</ele>
        <time>2025-07-15T09:15:50Z</time>
      </trkpt>
      <trkpt lat="44.06286" lon="6.9835">
        <ele>1275.8</ele>
        <time>2025-07-15T09:15:51Z</time>
      </trkpt>
      <trkpt lat="44.06271" lon="6.98328">
        <ele>1275.2</ele>
        <time>2025-07-15T09:15:53Z</time>
      </trkpt>
      <trkpt lat="44.06264" lon="6.98317">
        <ele>1274.8</ele>
        <time>2025-07-15T09:15:54Z</time>
      </trkpt>
      <trkpt lat="44.06249" lon="6.98298">
        <ele>1273.8</ele>
        <time>2025-07-15T09:15:56Z</time>
      </trkpt>
      <trkpt lat="44.0624" lon="6.9829">
        <ele>1273.6</ele>
        <time>2025-07-15T09:15:57Z</time>
      </trkpt>
      <trkpt lat="44.06231" lon="6.98283">
        <ele>1273.2</ele>
        <time>2025-07-15T09:15:58Z</time>
      </trkpt>
      <trkpt lat="44.06211" lon="6.98272">
        <ele>1271.8</ele>
        <time>2025-07-15T09:16:00Z</time>
      </trkpt>
      <trkpt lat="44.0619" lon="6.9826">
        <ele>1270.6</ele>
        <time>2025-07-15T09:16:02Z</time>
      </trkpt>
      <trkpt lat="44.0618" lon="6.98254">
        <ele>1270</ele>
        <time>2025-07-15T09:16:03Z</time>
      </trkpt>
      <trkpt lat="44.06168" lon="6.9825">
        <ele>1269.8</ele>
        <time>2025-07-15T09:16:04Z</time>
      </trkpt>
      <trkpt lat="44.06157" lon="6.98246">
        <ele>1268.8</ele>
        <time>2025-07-15T09:16:05Z</time>
      </trkpt>
      <trkpt lat="44.06135" lon="6.98238">
        <ele>1267.6</ele>
        <time>2025-07-15T09:16:07Z</time>
      </trkpt>
      <trkpt lat="44.06102" lon="6.98224">
        <ele>1265.8</ele>
        <time>2025-07-15T09:16:10Z</time>
      </trkpt>
      <trkpt lat="44.0609" lon="6.98221">
        <ele>1265.2</ele>
        <time>2025-07-15T09:16:11Z</time>
      </trkpt>
      <trkpt lat="44.06078" lon="6.98219">
        <ele>1264.2</ele>
        <time>2025-07-15T09:16:12Z</time>
      </trkpt>
      <trkpt lat="44.06056" lon="6.9822">
        <ele>1262.4</ele>
        <time>2025-07-15T09:16:14Z</time>
      </trkpt>
      <trkpt lat="44.06029" lon="6.98222">
        <ele>1261.2</ele>
        <time>2025-07-15T09:16:16Z</time>
      </trkpt>
      <trkpt lat="44.06017" lon="6.98223">
        <ele>1260.8</ele>
        <time>2025-07-15T09:16:17Z</time>
      </trkpt>
      <trkpt lat="44.06005" lon="6.98222">
        <ele>1259.4</ele>
        <time>2025-07-15T09:16:18Z</time>
      </trkpt>
      <trkpt lat="44.05993" lon="6.9822">
        <ele>1258.2</ele>
        <time>2025-07-15T09:16:19Z</time>
      </trkpt>
      <trkpt lat="44.05981" lon="6.9822">
        <ele>1257.6</ele>
        <time>2025-07-15T09:16:20Z</time>
      </trkpt>
      <trkpt lat="44.05969" lon="6.98221">
        <ele>1256.8</ele>
        <time>2025-07-15T09:16:21Z</time>
      </trkpt>
      <trkpt lat="44.05958" lon="6.98224">
        <ele>1256.4</ele>
        <time>2025-07-15T09:16:22Z</time>
      </trkpt>
      <trkpt lat="44.05947" lon="6.98226">
        <ele>1255</ele>
        <time>2025-07-15T09:16:23Z</time>
      </trkpt>
      <trkpt lat="44.05936" lon="6.98228">
        <ele>1254</ele>
        <time>2025-07-15T09:16:24Z</time>
      </trkpt>
      <trkpt lat="44.05925" lon="6.98226">
        <ele>1253</ele>
        <time>2025-07-15T09:16:25Z</time>
      </trkpt>
      <trkpt lat="44.05903" lon="6.98219">
        <ele>1251.6</ele>
        <time>2025-07-15T09:16:27Z</time>
      </trkpt>
      <trkpt lat="44.05893" lon="6.98218">
        <ele>1250.4</ele>
        <time>2025-07-15T09:16:28Z</time>
      </trkpt>
      <trkpt lat="44.05882" lon="6.9822">
        <ele>1249.6</ele>
        <time>2025-07-15T09:16:29Z</time>
      </trkpt>
      <trkpt lat="44.05872" lon="6.98223">
        <ele>1247.8</ele>
        <time>2025-07-15T09:16:30Z</time>
      </trkpt>
      <trkpt lat="44.05854" lon="6.98235">
        <ele>1245.8</ele>
        <time>2025-07-15T09:16:32Z</time>
      </trkpt>
      <trkpt lat="44.05839" lon="6.98248">
        <ele>1243.4</ele>
        <time>2025-07-15T09:16:34Z</time>
      </trkpt>
      <trkpt lat="44.05839" lon="6.98248">
        <ele>1242</ele>
        <time>2025-07-15T09:16:35Z</time>
      </trkpt>
      <trkpt lat="44.05819" lon="6.98253">
        <ele>1241.6</ele>
        <time>2025-07-15T09:16:36Z</time>
      </trkpt>
      <trkpt lat="44.05809" lon="6.9825">
        <ele>1240.8</ele>
        <time>2025-07-15T09:16:37Z</time>
      </trkpt>
      <trkpt lat="44.05793" lon="6.98243">
        <ele>1239.2</ele>
        <time>2025-07-15T09:16:39Z</time>
      </trkpt>
      <trkpt lat="44.05783" lon="6.98239">
        <ele>1238.6</ele>
        <time>2025-07-15T09:16:40Z</time>
      </trkpt>
      <trkpt lat="44.05777" lon="6.98237">
        <ele>1236.8</ele>
        <time>2025-07-15T09:16:41Z</time>
      </trkpt>
      <trkpt lat="44.05772" lon="6.98234">
        <ele>1235.4</ele>
        <time>2025-07-15T09:16:42Z</time>
      </trkpt>
      <trkpt lat="44.05365" lon="6.98092">
        <ele>1205.2</ele>
        <time>2025-07-15T09:17:22Z</time>
      </trkpt>
      <trkpt lat="44.05356" lon="6.98073">
        <ele>1203.4</ele>
        <time>2025-07-15T09:17:23Z</time>
      </trkpt>
      <trkpt lat="44.05338" lon="6.98112">
        <ele>1201.2</ele>
        <time>2025-07-15T09:17:25Z</time>
      </trkpt>
      <trkpt lat="44.0532" lon="6.98128">
        <ele>1199.6</ele>
        <time>2025-07-15T09:17:27Z</time>
      </trkpt>
      <trkpt lat="44.05312" lon="6.98137">
        <ele>1199</ele>
        <time>2025-07-15T09:17:28Z</time>
      </trkpt>
      <trkpt lat="44.05304" lon="6.98145">
        <ele>1197.6</ele>
        <time>2025-07-15T09:17:29Z</time>
      </trkpt>
      <trkpt lat="44.05295" lon="6.98152">
        <ele>1196.2</ele>
        <time>2025-07-15T09:17:30Z</time>
      </trkpt>
      <trkpt lat="44.05276" lon="6.98157">
        <ele>1194.4</ele>
        <time>2025-07-15T09:17:32Z</time>
      </trkpt>
      <trkpt lat="44.05267" lon="6.98154">
        <ele>1194</ele>
        <time>2025-07-15T09:17:33Z</time>
      </trkpt>
      <trkpt lat="44.05247" lon="6.98153">
        <ele>1193</ele>
        <time>2025-07-15T09:17:35Z</time>
      </trkpt>
      <trkpt lat="44.05237" lon="6.98154">
        <ele>1192</ele>
        <time>2025-07-15T09:17:36Z</time>
      </trkpt>
      <trkpt lat="44.05228" lon="6.98156">
        <ele>1191.2</ele>
        <time>2025-07-15T09:17:37Z</time>
      </trkpt>
      <trkpt lat="44.05218" lon="6.98159">
        <ele>1190.8</ele>
        <time>2025-07-15T09:17:38Z</time>
      </trkpt>
      <trkpt lat="44.05208" lon="6.98163">
        <ele>1189.6</ele>
        <time>2025-07-15T09:17:39Z</time>
      </trkpt>
      <trkpt lat="44.05187" lon="6.98169">
        <ele>1188</ele>
        <time>2025-07-15T09:17:41Z</time>
      </trkpt>
      <trkpt lat="44.05177" lon="6.98169">
        <ele>1187.4</ele>
        <time>2025-07-15T09:17:42Z</time>
      </trkpt>
      <trkpt lat="44.05167" lon="6.98168">
        <ele>1186.8</ele>
        <time>2025-07-15T09:17:43Z</time>
      </trkpt>
      <trkpt lat="44.05156" lon="6.98166">
        <ele>1186.4</ele>
        <time>2025-07-15T09:17:44Z</time>
      </trkpt>
      <trkpt lat="44.05146" lon="6.98164">
        <ele>1185.4</ele>
        <time>2025-07-15T09:17:45Z</time>
      </trkpt>
      <trkpt lat="44.05137" lon="6.98161">
        <ele>1184.2</ele>
        <time>2025-07-15T09:17:46Z</time>
      </trkpt>
      <trkpt lat="44.05127" lon="6.98158">
        <ele>1183.8</ele>
        <time>2025-07-15T09:17:47Z</time>
      </trkpt>
      <trkpt lat="44.05118" lon="6.98153">
        <ele>1183</ele>
        <time>2025-07-15T09:17:48Z</time>
      </trkpt>
      <trkpt lat="44.05109" lon="6.98148">
        <ele>1182.6</ele>
        <time>2025-07-15T09:17:49Z</time>
      </trkpt>
      <trkpt lat="44.051" lon="6.98142">
        <ele>1181.6</ele>
        <time>2025-07-15T09:17:50Z</time>
      </trkpt>
      <trkpt lat="44.05081" lon="6.98131">
        <ele>1179.8</ele>
        <time>2025-07-15T09:17:52Z</time>
      </trkpt>
      <trkpt lat="44.05066" lon="6.98126">
        <ele>1178.6</ele>
        <time>2025-07-15T09:17:54Z</time>
      </trkpt>
      <trkpt lat="44.04973" lon="6.97776">
        <ele>1160</ele>
        <time>2025-07-15T09:18:17Z</time>
      </trkpt>
      <trkpt lat="44.04957" lon="6.97762">
        <ele>1158.6</ele>
        <time>2025-07-15T09:18:19Z</time>
      </trkpt>
      <trkpt lat="44.04946" lon="6.97755">
        <ele>1158</ele>
        <time>2025-07-15T09:18:20Z</time>
      </trkpt>
      <trkpt lat="44.04937" lon="6.97745">
        <ele>1156.8</ele>
        <time>2025-07-15T09:18:21Z</time>
      </trkpt>
      <trkpt lat="44.04925" lon="6.97739">
        <ele>1155.4</ele>
        <time>2025-07-15T09:18:22Z</time>
      </trkpt>
      <trkpt lat="44.04913" lon="6.97733">
        <ele>1154.8</ele>
        <time>2025-07-15T09:18:23Z</time>
      </trkpt>
      <trkpt lat="44.04905" lon="6.97721">
        <ele>1153.8</ele>
        <time>2025-07-15T09:18:24Z</time>
      </trkpt>
      <trkpt lat="44.04885" lon="6.97711">
        <ele>1152.8</ele>
        <time>2025-07-15T09:18:26Z</time>
      </trkpt>
      <trkpt lat="44.04849" lon="6.97697">
        <ele>1151.6</ele>
        <time>2025-07-15T09:18:29Z</time>
      </trkpt>
      <trkpt lat="44.04838" lon="6.97694">
        <ele>1151.4</ele>
        <time>2025-07-15T09:18:30Z</time>
      </trkpt>
      <trkpt lat="44.04814" lon="6.97692">
        <ele>1150.4</ele>
        <time>2025-07-15T09:18:32Z</time>
      </trkpt>
      <trkpt lat="44.04787" lon="6.97693">
        <ele>1149.4</ele>
        <time>2025-07-15T09:18:34Z</time>
      </trkpt>
      <trkpt lat="44.04765" lon="6.97706">
        <ele>1148.2</ele>
        <time>2025-07-15T09:18:36Z</time>
      </trkpt>
      <trkpt lat="44.04745" lon="6.97719">
        <ele>1146.6</ele>
        <time>2025-07-15T09:18:38Z</time>
      </trkpt>
      <trkpt lat="44.04735" lon="6.97726">
        <ele>1146.2</ele>
        <time>2025-07-15T09:18:39Z</time>
      </trkpt>
      <trkpt lat="44.04726" lon="6.97736">
        <ele>1145.2</ele>
        <time>2025-07-15T09:18:40Z</time>
      </trkpt>
      <trkpt lat="44.04705" lon="6.97748">
        <ele>1144.6</ele>
        <time>2025-07-15T09:18:42Z</time>
      </trkpt>
      <trkpt lat="44.04694" lon="6.97751">
        <ele>1144</ele>
        <time>2025-07-15T09:18:43Z</time>
      </trkpt>
      <trkpt lat="44.0467" lon="6.97754">
        <ele>1143</ele>
        <time>2025-07-15T09:18:45Z</time>
      </trkpt>
      <trkpt lat="44.04645" lon="6.97753">
        <ele>1142</ele>
        <time>2025-07-15T09:18:47Z</time>
      </trkpt>
      <trkpt lat="44.04623" lon="6.97751">
        <ele>1140.8</ele>
        <time>2025-07-15T09:18:49Z</time>
      </trkpt>
      <trkpt lat="44.04602" lon="6.97744">
        <ele>1139.6</ele>
        <time>2025-07-15T09:18:51Z</time>
      </trkpt>
      <trkpt lat="44.04592" lon="6.97743">
        <ele>1138.8</ele>
        <time>2025-07-15T09:18:52Z</time>
      </trkpt>
      <trkpt lat="44.04582" lon="6.97741">
        <ele>1138.4</ele>
        <time>2025-07-15T09:18:53Z</time>
      </trkpt>
      <trkpt lat="44.04563" lon="6.97735">
        <ele>1136.4</ele>
        <time>2025-07-15T09:18:55Z</time>
      </trkpt>
      <trkpt lat="44.04557" lon="6.97739">
        <ele>1136.2</ele>
        <time>2025-07-15T09:18:56Z</time>
      </trkpt>
      <trkpt lat="44.0455" lon="6.9774">
        <ele>1135.2</ele>
        <time>2025-07-15T09:18:57Z</time>
      </trkpt>
      <trkpt lat="44.04342" lon="6.97594">
        <ele>1120.8</ele>
        <time>2025-07-15T09:19:21Z</time>
      </trkpt>
      <trkpt lat="44.04329" lon="6.97585">
        <ele>1118.8</ele>
        <time>2025-07-15T09:19:24Z</time>
      </trkpt>
      <trkpt lat="44.04329" lon="6.97585">
        <ele>1118.4</ele>
        <time>2025-07-15T09:19:25Z</time>
      </trkpt>
      <trkpt lat="44.04328" lon="6.97577">
        <ele>1117.2</ele>
        <time>2025-07-15T09:19:27Z</time>
      </trkpt>
      <trkpt lat="44.04328" lon="6.97577">
        <ele>1116</ele>
        <time>2025-07-15T09:19:29Z</time>
      </trkpt>
      <trkpt lat="44.04328" lon="6.97577">
        <ele>1115.4</ele>
        <time>2025-07-15T09:19:32Z</time>
      </trkpt>
      <trkpt lat="44.04322" lon="6.97591">
        <ele>1113.8</ele>
        <time>2025-07-15T09:21:43Z</time>
      </trkpt>
      <trkpt lat="44.04317" lon="6.9759">
        <ele>1113.8</ele>
        <time>2025-07-15T09:21:44Z</time>
      </trkpt>
      <trkpt lat="44.04307" lon="6.97588">
        <ele>1113.8</ele>
        <time>2025-07-15T09:21:46Z</time>
      </trkpt>
      <trkpt lat="44.04301" lon="6.97586">
        <ele>1113.8</ele>
        <time>2025-07-15T09:21:47Z</time>
      </trkpt>
      <trkpt lat="44.04289" lon="6.97584">
        <ele>1113.2</ele>
        <time>2025-07-15T09:21:49Z</time>
      </trkpt>
      <trkpt lat="44.04272" lon="6.97583">
        <ele>1112.6</ele>
        <time>2025-07-15T09:21:51Z</time>
      </trkpt>
      <trkpt lat="44.04243" lon="6.97584">
        <ele>1111.6</ele>
        <time>2025-07-15T09:21:54Z</time>
      </trkpt>
      <trkpt lat="44.04223" lon="6.97584">
        <ele>1110.6</ele>
        <time>2025-07-15T09:21:56Z</time>
      </trkpt>
      <trkpt lat="44.04213" lon="6.97583">
        <ele>1110.4</ele>
        <time>2025-07-15T09:21:57Z</time>
      </trkpt>
      <trkpt lat="44.04192" lon="6.97585">
        <ele>1109.4</ele>
        <time>2025-07-15T09:21:59Z</time>
      </trkpt>
      <trkpt lat="44.04181" lon="6.97585">
        <ele>1108.6</ele>
        <time>2025-07-15T09:22:00Z</time>
      </trkpt>
      <trkpt lat="44.04169" lon="6.97585">
        <ele>1108.2</ele>
        <time>2025-07-15T09:22:01Z</time>
      </trkpt>
      <trkpt lat="44.04146" lon="6.97585">
        <ele>1106.8</ele>
        <time>2025-07-15T09:22:03Z</time>
      </trkpt>
      <trkpt lat="44.04135" lon="6.97588">
        <ele>1106.2</ele>
        <time>2025-07-15T09:22:04Z</time>
      </trkpt>
      <trkpt lat="44.04124" lon="6.97593">
        <ele>1105.8</ele>
        <time>2025-07-15T09:22:05Z</time>
      </trkpt>
      <trkpt lat="44.04101" lon="6.97602">
        <ele>1104</ele>
        <time>2025-07-15T09:22:07Z</time>
      </trkpt>
      <trkpt lat="44.0408" lon="6.97613">
        <ele>1103</ele>
        <time>2025-07-15T09:22:09Z</time>
      </trkpt>
      <trkpt lat="44.04069" lon="6.97617">
        <ele>1102.6</ele>
        <time>2025-07-15T09:22:10Z</time>
      </trkpt>
      <trkpt lat="44.04057" lon="6.97619">
        <ele>1101.8</ele>
        <time>2025-07-15T09:22:11Z</time>
      </trkpt>
      <trkpt lat="44.04045" lon="6.9762">
        <ele>1100.8</ele>
        <time>2025-07-15T09:22:12Z</time>
      </trkpt>
      <trkpt lat="44.04034" lon="6.97622">
        <ele>1100.4</ele>
        <time>2025-07-15T09:22:13Z</time>
      </trkpt>
      <trkpt lat="44.04023" lon="6.97624">
        <ele>1099.8</ele>
        <time>2025-07-15T09:22:14Z</time>
      </trkpt>
      <trkpt lat="44.04012" lon="6.97627">
        <ele>1099.6</ele>
        <time>2025-07-15T09:22:15Z</time>
      </trkpt>
      <trkpt lat="44.03993" lon="6.97634">
        <ele>1098.8</ele>
        <time>2025-07-15T09:22:17Z</time>
      </trkpt>
      <trkpt lat="44.03984" lon="6.97638">
        <ele>1098</ele>
        <time>2025-07-15T09:22:18Z</time>
      </trkpt>
      <trkpt lat="44.0397" lon="6.97656">
        <ele>1096.4</ele>
        <time>2025-07-15T09:22:20Z</time>
      </trkpt>
      <trkpt lat="44.03959" lon="6.97676">
        <ele>1095.2</ele>
        <time>2025-07-15T09:22:22Z</time>
      </trkpt>
      <trkpt lat="44.03946" lon="6.97697">
        <ele>1094.4</ele>
        <time>2025-07-15T09:22:24Z</time>
      </trkpt>
      <trkpt lat="44.03946" lon="6.97697">
        <ele>1093.8</ele>
        <time>2025-07-15T09:22:25Z</time>
      </trkpt>
      <trkpt lat="44.03927" lon="6.97727">
        <ele>1093</ele>
        <time>2025-07-15T09:22:27Z</time>
      </trkpt>
      <trkpt lat="44.03922" lon="6.97738">
        <ele>1092.6</ele>
        <time>2025-07-15T09:22:28Z</time>
      </trkpt>
      <trkpt lat="44.03918" lon="6.97749">
        <ele>1092.4</ele>
        <time>2025-07-15T09:22:29Z</time>
      </trkpt>
      <trkpt lat="44.03904" lon="6.97784">
        <ele>1091</ele>
        <time>2025-07-15T09:22:32Z</time>
      </trkpt>
      <trkpt lat="44.039" lon="6.97796">
        <ele>1090.6</ele>
        <time>2025-07-15T09:22:33Z</time>
      </trkpt>
      <trkpt lat="44.03893" lon="6.97806">
        <ele>1090</ele>
        <time>2025-07-15T09:22:34Z</time>
      </trkpt>
      <trkpt lat="44.03884" lon="6.97814">
        <ele>1089.6</ele>
        <time>2025-07-15T09:22:35Z</time>
      </trkpt>
      <trkpt lat="44.03874" lon="6.97821">
        <ele>1088.8</ele>
        <time>2025-07-15T09:22:36Z</time>
      </trkpt>
      <trkpt lat="44.03854" lon="6.97832">
        <ele>1087.6</ele>
        <time>2025-07-15T09:22:38Z</time>
      </trkpt>
      <trkpt lat="44.03834" lon="6.97842">
        <ele>1086.6</ele>
        <time>2025-07-15T09:22:40Z</time>
      </trkpt>
      <trkpt lat="44.03825" lon="6.97843">
        <ele>1085.8</ele>
        <time>2025-07-15T09:22:41Z</time>
      </trkpt>
      <trkpt lat="44.03816" lon="6.97843">
        <ele>1085.2</ele>
        <time>2025-07-15T09:22:42Z</time>
      </trkpt>
      <trkpt lat="44.03806" lon="6.9784">
        <ele>1084</ele>
        <time>2025-07-15T09:22:43Z</time>
      </trkpt>
      <trkpt lat="44.03796" lon="6.97838">
        <ele>1083.6</ele>
        <time>2025-07-15T09:22:44Z</time>
      </trkpt>
      <trkpt lat="44.03786" lon="6.97836">
        <ele>1083.2</ele>
        <time>2025-07-15T09:22:45Z</time>
      </trkpt>
      <trkpt lat="44.03777" lon="6.97837">
        <ele>1082.4</ele>
        <time>2025-07-15T09:22:46Z</time>
      </trkpt>
      <trkpt lat="44.03767" lon="6.97838">
        <ele>1081.8</ele>
        <time>2025-07-15T09:22:47Z</time>
      </trkpt>
      <trkpt lat="44.03757" lon="6.97839">
        <ele>1081</ele>
        <time>2025-07-15T09:22:48Z</time>
      </trkpt>
      <trkpt lat="44.03747" lon="6.97841">
        <ele>1080.6</ele>
        <time>2025-07-15T09:22:49Z</time>
      </trkpt>
      <trkpt lat="44.03736" lon="6.97843">
        <ele>1079.6</ele>
        <time>2025-07-15T09:22:50Z</time>
      </trkpt>
      <trkpt lat="44.03714" lon="6.97845">
        <ele>1078.6</ele>
        <time>2025-07-15T09:22:52Z</time>
      </trkpt>
      <trkpt lat="44.03702" lon="6.97847">
        <ele>1077.8</ele>
        <time>2025-07-15T09:22:53Z</time>
      </trkpt>
      <trkpt lat="44.0368" lon="6.97853">
        <ele>1076.4</ele>
        <time>2025-07-15T09:22:55Z</time>
      </trkpt>
      <trkpt lat="44.0367" lon="6.97856">
        <ele>1076.2</ele>
        <time>2025-07-15T09:22:56Z</time>
      </trkpt>
      <trkpt lat="44.03659" lon="6.97859">
        <ele>1075.4</ele>
        <time>2025-07-15T09:22:57Z</time>
      </trkpt>
      <trkpt lat="44.03639" lon="6.97869">
        <ele>1073.8</ele>
        <time>2025-07-15T09:22:59Z</time>
      </trkpt>
      <trkpt lat="44.0363" lon="6.97872">
        <ele>1073.2</ele>
        <time>2025-07-15T09:23:00Z</time>
      </trkpt>
      <trkpt lat="44.03621" lon="6.97873">
        <ele>1072.4</ele>
        <time>2025-07-15T09:23:01Z</time>
      </trkpt>
      <trkpt lat="44.03603" lon="6.97868">
        <ele>1071.2</ele>
        <time>2025-07-15T09:23:03Z</time>
      </trkpt>
      <trkpt lat="44.03593" lon="6.97861">
        <ele>1069.8</ele>
        <time>2025-07-15T09:23:04Z</time>
      </trkpt>
      <trkpt lat="44.03585" lon="6.97854">
        <ele>1068.8</ele>
        <time>2025-07-15T09:23:05Z</time>
      </trkpt>
      <trkpt lat="44.03576" lon="6.97846">
        <ele>1066.8</ele>
        <time>2025-07-15T09:23:06Z</time>
      </trkpt>
      <trkpt lat="44.03569" lon="6.97837">
        <ele>1066.2</ele>
        <time>2025-07-15T09:23:07Z</time>
      </trkpt>
      <trkpt lat="44.03562" lon="6.97826">
        <ele>1065.4</ele>
        <time>2025-07-15T09:23:08Z</time>
      </trkpt>
      <trkpt lat="44.03555" lon="6.97814">
        <ele>1065</ele>
        <time>2025-07-15T09:23:09Z</time>
      </trkpt>
      <trkpt lat="44.03547" lon="6.97802">
        <ele>1064</ele>
        <time>2025-07-15T09:23:10Z</time>
      </trkpt>
      <trkpt lat="44.0354" lon="6.97789">
        <ele>1062.8</ele>
        <time>2025-07-15T09:23:11Z</time>
      </trkpt>
      <trkpt lat="44.03527" lon="6.97759">
        <ele>1060.6</ele>
        <time>2025-07-15T09:23:13Z</time>
      </trkpt>
      <trkpt lat="44.03514" lon="6.97729">
        <ele>1059.6</ele>
        <time>2025-07-15T09:23:15Z</time>
      </trkpt>
      <trkpt lat="44.035" lon="6.97702">
        <ele>1058.2</ele>
        <time>2025-07-15T09:23:17Z</time>
      </trkpt>
      <trkpt lat="44.03492" lon="6.97691">
        <ele>1057.4</ele>
        <time>2025-07-15T09:23:18Z</time>
      </trkpt>
      <trkpt lat="44.03483" lon="6.97679">
        <ele>1057.2</ele>
        <time>2025-07-15T09:23:19Z</time>
      </trkpt>
      <trkpt lat="44.03457" lon="6.97639">
        <ele>1055.6</ele>
        <time>2025-07-15T09:23:22Z</time>
      </trkpt>
      <trkpt lat="44.03444" lon="6.97607">
        <ele>1054</ele>
        <time>2025-07-15T09:23:24Z</time>
      </trkpt>
      <trkpt lat="44.03436" lon="6.97596">
        <ele>1053</ele>
        <time>2025-07-15T09:23:25Z</time>
      </trkpt>
      <trkpt lat="44.03426" lon="6.97588">
        <ele>1051.8</ele>
        <time>2025-07-15T09:23:26Z</time>
      </trkpt>
      <trkpt lat="44.03415" lon="6.97583">
        <ele>1051.2</ele>
        <time>2025-07-15T09:23:27Z</time>
      </trkpt>
      <trkpt lat="44.03404" lon="6.97581">
        <ele>1051</ele>
        <time>2025-07-15T09:23:28Z</time>
      </trkpt>
      <trkpt lat="44.03393" lon="6.9758">
        <ele>1050.4</ele>
        <time>2025-07-15T09:23:29Z</time>
      </trkpt>
      <trkpt lat="44.03381" lon="6.9758">
        <ele>1050.2</ele>
        <time>2025-07-15T09:23:30Z</time>
      </trkpt>
      <trkpt lat="44.03359" lon="6.97581">
        <ele>1049.4</ele>
        <time>2025-07-15T09:23:32Z</time>
      </trkpt>
      <trkpt lat="44.03347" lon="6.97582">
        <ele>1048.2</ele>
        <time>2025-07-15T09:23:33Z</time>
      </trkpt>
      <trkpt lat="44.03337" lon="6.97584">
        <ele>1047.6</ele>
        <time>2025-07-15T09:23:34Z</time>
      </trkpt>
      <trkpt lat="44.03325" lon="6.97586">
        <ele>1046.8</ele>
        <time>2025-07-15T09:23:35Z</time>
      </trkpt>
      <trkpt lat="44.03301" lon="6.97589">
        <ele>1045.8</ele>
        <time>2025-07-15T09:23:37Z</time>
      </trkpt>
      <trkpt lat="44.02902" lon="6.97633">
        <ele>1020.4</ele>
        <time>2025-07-15T09:24:09Z</time>
      </trkpt>
      <trkpt lat="44.02882" lon="6.97627">
        <ele>1019.4</ele>
        <time>2025-07-15T09:24:10Z</time>
      </trkpt>
      <trkpt lat="44.0287" lon="6.9763">
        <ele>1018.8</ele>
        <time>2025-07-15T09:24:11Z</time>
      </trkpt>
      <trkpt lat="44.02853" lon="6.97641">
        <ele>1017.2</ele>
        <time>2025-07-15T09:24:12Z</time>
      </trkpt>
      <trkpt lat="44.02843" lon="6.97649">
        <ele>1016.6</ele>
        <time>2025-07-15T09:24:13Z</time>
      </trkpt>
      <trkpt lat="44.02831" lon="6.97659">
        <ele>1015</ele>
        <time>2025-07-15T09:24:14Z</time>
      </trkpt>
      <trkpt lat="44.02809" lon="6.97684">
        <ele>1013</ele>
        <time>2025-07-15T09:24:16Z</time>
      </trkpt>
      <trkpt lat="44.02797" lon="6.97696">
        <ele>1011</ele>
        <time>2025-07-15T09:24:17Z</time>
      </trkpt>
      <trkpt lat="44.02787" lon="6.97705">
        <ele>1010.2</ele>
        <time>2025-07-15T09:24:18Z</time>
      </trkpt>
      <trkpt lat="44.02775" lon="6.97716">
        <ele>1008.8</ele>
        <time>2025-07-15T09:24:19Z</time>
      </trkpt>
      <trkpt lat="44.02749" lon="6.97728">
        <ele>1006.4</ele>
        <time>2025-07-15T09:24:21Z</time>
      </trkpt>
      <trkpt lat="44.02737" lon="6.9773">
        <ele>1005.6</ele>
        <time>2025-07-15T09:24:22Z</time>
      </trkpt>
      <trkpt lat="44.02725" lon="6.97733">
        <ele>1004.4</ele>
        <time>2025-07-15T09:24:23Z</time>
      </trkpt>
      <trkpt lat="44.02712" lon="6.97737">
        <ele>1003.8</ele>
        <time>2025-07-15T09:24:24Z</time>
      </trkpt>
      <trkpt lat="44.02703" lon="6.97739">
        <ele>1002.6</ele>
        <time>2025-07-15T09:24:25Z</time>
      </trkpt>
      <trkpt lat="44.02692" lon="6.97739">
        <ele>1000.8</ele>
        <time>2025-07-15T09:24:26Z</time>
      </trkpt>
      <trkpt lat="44.02687" lon="6.97739">
        <ele>999.8</ele>
        <time>2025-07-15T09:24:27Z</time>
      </trkpt>
      <trkpt lat="44.02684" lon="6.97736">
        <ele>998.2</ele>
        <time>2025-07-15T09:24:28Z</time>
      </trkpt>
      <trkpt lat="44.02682" lon="6.97727">
        <ele>997.6</ele>
        <time>2025-07-15T09:24:29Z</time>
      </trkpt>
      <trkpt lat="44.0268" lon="6.97714">
        <ele>996.2</ele>
        <time>2025-07-15T09:24:30Z</time>
      </trkpt>
      <trkpt lat="44.02677" lon="6.97696">
        <ele>995.4</ele>
        <time>2025-07-15T09:24:31Z</time>
      </trkpt>
      <trkpt lat="44.02676" lon="6.97683">
        <ele>994</ele>
        <time>2025-07-15T09:24:32Z</time>
      </trkpt>
      <trkpt lat="44.02675" lon="6.97668">
        <ele>992.2</ele>
        <time>2025-07-15T09:24:33Z</time>
      </trkpt>
      <trkpt lat="44.02673" lon="6.97652">
        <ele>991.4</ele>
        <time>2025-07-15T09:24:34Z</time>
      </trkpt>
      <trkpt lat="44.02669" lon="6.97637">
        <ele>990.2</ele>
        <time>2025-07-15T09:24:35Z</time>
      </trkpt>
      <trkpt lat="44.02663" lon="6.97621">
        <ele>989.6</ele>
        <time>2025-07-15T09:24:36Z</time>
      </trkpt>
      <trkpt lat="44.02654" lon="6.97606">
        <ele>988.6</ele>
        <time>2025-07-15T09:24:37Z</time>
      </trkpt>
      <trkpt lat="44.02645" lon="6.97602">
        <ele>988</ele>
        <time>2025-07-15T09:24:38Z</time>
      </trkpt>
      <trkpt lat="44.02635" lon="6.97605">
        <ele>987</ele>
        <time>2025-07-15T09:24:39Z</time>
      </trkpt>
      <trkpt lat="44.02626" lon="6.9761">
        <ele>986.6</ele>
        <time>2025-07-15T09:24:40Z</time>
      </trkpt>
      <trkpt lat="44.02616" lon="6.97615">
        <ele>985.8</ele>
        <time>2025-07-15T09:24:41Z</time>
      </trkpt>
      <trkpt lat="44.02606" lon="6.97617">
        <ele>985.2</ele>
        <time>2025-07-15T09:24:42Z</time>
      </trkpt>
      <trkpt lat="44.02596" lon="6.97618">
        <ele>985</ele>
        <time>2025-07-15T09:24:43Z</time>
      </trkpt>
      <trkpt lat="44.02586" lon="6.9762">
        <ele>984.2</ele>
        <time>2025-07-15T09:24:44Z</time>
      </trkpt>
      <trkpt lat="44.02564" lon="6.97622">
        <ele>983</ele>
        <time>2025-07-15T09:24:46Z</time>
      </trkpt>
      <trkpt lat="44.02554" lon="6.97622">
        <ele>982.8</ele>
        <time>2025-07-15T09:24:47Z</time>
      </trkpt>
      <trkpt lat="44.02546" lon="6.97622">
        <ele>981.8</ele>
        <time>2025-07-15T09:24:48Z</time>
      </trkpt>
      <trkpt lat="44.02534" lon="6.97621">
        <ele>981.4</ele>
        <time>2025-07-15T09:24:49Z</time>
      </trkpt>
      <trkpt lat="44.02524" lon="6.9762">
        <ele>980.6</ele>
        <time>2025-07-15T09:24:50Z</time>
      </trkpt>
      <trkpt lat="44.02513" lon="6.97628">
        <ele>979.8</ele>
        <time>2025-07-15T09:24:51Z</time>
      </trkpt>
      <trkpt lat="44.02503" lon="6.97637">
        <ele>979.4</ele>
        <time>2025-07-15T09:24:52Z</time>
      </trkpt>
      <trkpt lat="44.02495" lon="6.97643">
        <ele>978</ele>
        <time>2025-07-15T09:24:53Z</time>
      </trkpt>
      <trkpt lat="44.02477" lon="6.97648">
        <ele>976.2</ele>
        <time>2025-07-15T09:24:55Z</time>
      </trkpt>
      <trkpt lat="44.0246" lon="6.97657">
        <ele>974.2</ele>
        <time>2025-07-15T09:24:57Z</time>
      </trkpt>
      <trkpt lat="44.02453" lon="6.97662">
        <ele>973</ele>
        <time>2025-07-15T09:24:58Z</time>
      </trkpt>
      <trkpt lat="44.02446" lon="6.97669">
        <ele>972.4</ele>
        <time>2025-07-15T09:24:59Z</time>
      </trkpt>
      <trkpt lat="44.02438" lon="6.97678">
        <ele>971.2</ele>
        <time>2025-07-15T09:25:00Z</time>
      </trkpt>
      <trkpt lat="44.02431" lon="6.97687">
        <ele>970.6</ele>
        <time>2025-07-15T09:25:01Z</time>
      </trkpt>
      <trkpt lat="44.02424" lon="6.97697">
        <ele>969.6</ele>
        <time>2025-07-15T09:25:02Z</time>
      </trkpt>
      <trkpt lat="44.02416" lon="6.97707">
        <ele>969.4</ele>
        <time>2025-07-15T09:25:03Z</time>
      </trkpt>
      <trkpt lat="44.02408" lon="6.97718">
        <ele>968.6</ele>
        <time>2025-07-15T09:25:04Z</time>
      </trkpt>
      <trkpt lat="44.02408" lon="6.97718">
        <ele>968.2</ele>
        <time>2025-07-15T09:25:05Z</time>
      </trkpt>
      <trkpt lat="44.02391" lon="6.97738">
        <ele>966.6</ele>
        <time>2025-07-15T09:25:06Z</time>
      </trkpt>
      <trkpt lat="44.02374" lon="6.97758">
        <ele>965.2</ele>
        <time>2025-07-15T09:25:08Z</time>
      </trkpt>
      <trkpt lat="44.02365" lon="6.97768">
        <ele>964.4</ele>
        <time>2025-07-15T09:25:09Z</time>
      </trkpt>
      <trkpt lat="44.02356" lon="6.97779">
        <ele>964</ele>
        <time>2025-07-15T09:25:10Z</time>
      </trkpt>
      <trkpt lat="44.02347" lon="6.9779">
        <ele>963</ele>
        <time>2025-07-15T09:25:11Z</time>
      </trkpt>
      <trkpt lat="44.02338" lon="6.97801">
        <ele>961.8</ele>
        <time>2025-07-15T09:25:12Z</time>
      </trkpt>
      <trkpt lat="44.02327" lon="6.97811">
        <ele>960.6</ele>
        <time>2025-07-15T09:25:13Z</time>
      </trkpt>
      <trkpt lat="44.02316" lon="6.9782">
        <ele>960</ele>
        <time>2025-07-15T09:25:14Z</time>
      </trkpt>
      <trkpt lat="44.02305" lon="6.97827">
        <ele>958.6</ele>
        <time>2025-07-15T09:25:15Z</time>
      </trkpt>
      <trkpt lat="44.02295" lon="6.97834">
        <ele>957.4</ele>
        <time>2025-07-15T09:25:16Z</time>
      </trkpt>
      <trkpt lat="44.02284" lon="6.9784">
        <ele>957</ele>
        <time>2025-07-15T09:25:17Z</time>
      </trkpt>
      <trkpt lat="44.02274" lon="6.97847">
        <ele>955.8</ele>
        <time>2025-07-15T09:25:18Z</time>
      </trkpt>
      <trkpt lat="44.02212" lon="6.97901">
        <ele>952</ele>
        <time>2025-07-15T09:25:24Z</time>
      </trkpt>
      <trkpt lat="44.02203" lon="6.97899">
        <ele>951.6</ele>
        <time>2025-07-15T09:25:25Z</time>
      </trkpt>
      <trkpt lat="44.02192" lon="6.97904">
        <ele>951.2</ele>
        <time>2025-07-15T09:25:26Z</time>
      </trkpt>
      <trkpt lat="44.02183" lon="6.9791">
        <ele>950.8</ele>
        <time>2025-07-15T09:25:27Z</time>
      </trkpt>
      <trkpt lat="44.02161" lon="6.9792">
        <ele>950</ele>
        <time>2025-07-15T09:25:29Z</time>
      </trkpt>
      <trkpt lat="44.0213" lon="6.97939">
        <ele>948.4</ele>
        <time>2025-07-15T09:25:32Z</time>
      </trkpt>
      <trkpt lat="44.02119" lon="6.97944">
        <ele>948.2</ele>
        <time>2025-07-15T09:25:33Z</time>
      </trkpt>
      <trkpt lat="44.02098" lon="6.97958">
        <ele>947</ele>
        <time>2025-07-15T09:25:35Z</time>
      </trkpt>
      <trkpt lat="44.02089" lon="6.97962">
        <ele>945.6</ele>
        <time>2025-07-15T09:25:36Z</time>
      </trkpt>
      <trkpt lat="44.0208" lon="6.97966">
        <ele>945</ele>
        <time>2025-07-15T09:25:37Z</time>
      </trkpt>
      <trkpt lat="44.02071" lon="6.97974">
        <ele>943.8</ele>
        <time>2025-07-15T09:25:38Z</time>
      </trkpt>
      <trkpt lat="44.02053" lon="6.9799">
        <ele>942.4</ele>
        <time>2025-07-15T09:25:40Z</time>
      </trkpt>
      <trkpt lat="44.02044" lon="6.98">
        <ele>941.8</ele>
        <time>2025-07-15T09:25:41Z</time>
      </trkpt>
      <trkpt lat="44.02035" lon="6.98011">
        <ele>941.4</ele>
        <time>2025-07-15T09:25:42Z</time>
      </trkpt>
      <trkpt lat="44.02028" lon="6.98023">
        <ele>940.2</ele>
        <time>2025-07-15T09:25:43Z</time>
      </trkpt>
      <trkpt lat="44.02014" lon="6.98049">
        <ele>939.4</ele>
        <time>2025-07-15T09:25:45Z</time>
      </trkpt>
      <trkpt lat="44.02008" lon="6.98061">
        <ele>938.6</ele>
        <time>2025-07-15T09:25:46Z</time>
      </trkpt>
      <trkpt lat="44.02" lon="6.98072">
        <ele>937.8</ele>
        <time>2025-07-15T09:25:47Z</time>
      </trkpt>
      <trkpt lat="44.01983" lon="6.98092">
        <ele>936.8</ele>
        <time>2025-07-15T09:25:49Z</time>
      </trkpt>
      <trkpt lat="44.01967" lon="6.98111">
        <ele>935.4</ele>
        <time>2025-07-15T09:25:51Z</time>
      </trkpt>
      <trkpt lat="44.01959" lon="6.98119">
        <ele>934</ele>
        <time>2025-07-15T09:25:52Z</time>
      </trkpt>
      <trkpt lat="44.0194" lon="6.98125">
        <ele>932.8</ele>
        <time>2025-07-15T09:25:54Z</time>
      </trkpt>
      <trkpt lat="44.01921" lon="6.98121">
        <ele>931.2</ele>
        <time>2025-07-15T09:25:56Z</time>
      </trkpt>
      <trkpt lat="44.01912" lon="6.98115">
        <ele>930.2</ele>
        <time>2025-07-15T09:25:57Z</time>
      </trkpt>
      <trkpt lat="44.01904" lon="6.98108">
        <ele>930</ele>
        <time>2025-07-15T09:25:58Z</time>
      </trkpt>
      <trkpt lat="44.01896" lon="6.98105">
        <ele>928.8</ele>
        <time>2025-07-15T09:25:59Z</time>
      </trkpt>
      <trkpt lat="44.01887" lon="6.98105">
        <ele>928.2</ele>
        <time>2025-07-15T09:26:00Z</time>
      </trkpt>
      <trkpt lat="44.01879" lon="6.98109">
        <ele>927.2</ele>
        <time>2025-07-15T09:26:01Z</time>
      </trkpt>
      <trkpt lat="44.01862" lon="6.98118">
        <ele>925.4</ele>
        <time>2025-07-15T09:26:03Z</time>
      </trkpt>
      <trkpt lat="44.01855" lon="6.98123">
        <ele>924.4</ele>
        <time>2025-07-15T09:26:04Z</time>
      </trkpt>
      <trkpt lat="44.0184" lon="6.98139">
        <ele>923</ele>
        <time>2025-07-15T09:26:06Z</time>
      </trkpt>
      <trkpt lat="44.01832" lon="6.98149">
        <ele>922.4</ele>
        <time>2025-07-15T09:26:07Z</time>
      </trkpt>
      <trkpt lat="44.01824" lon="6.98156">
        <ele>921.4</ele>
        <time>2025-07-15T09:26:08Z</time>
      </trkpt>
      <trkpt lat="44.0181" lon="6.98167">
        <ele>920.2</ele>
        <time>2025-07-15T09:26:10Z</time>
      </trkpt>
      <trkpt lat="44.01802" lon="6.9817">
        <ele>920</ele>
        <time>2025-07-15T09:26:11Z</time>
      </trkpt>
      <trkpt lat="44.01787" lon="6.98178">
        <ele>918</ele>
        <time>2025-07-15T09:26:13Z</time>
      </trkpt>
      <trkpt lat="44.01771" lon="6.98194">
        <ele>916.8</ele>
        <time>2025-07-15T09:26:15Z</time>
      </trkpt>
      <trkpt lat="44.01763" lon="6.98198">
        <ele>916</ele>
        <time>2025-07-15T09:26:16Z</time>
      </trkpt>
      <trkpt lat="44.01754" lon="6.98203">
        <ele>915.2</ele>
        <time>2025-07-15T09:26:17Z</time>
      </trkpt>
      <trkpt lat="44.01745" lon="6.98205">
        <ele>914.6</ele>
        <time>2025-07-15T09:26:18Z</time>
      </trkpt>
      <trkpt lat="44.01736" lon="6.98205">
        <ele>913.4</ele>
        <time>2025-07-15T09:26:19Z</time>
      </trkpt>
      <trkpt lat="44.01729" lon="6.98202">
        <ele>912.2</ele>
        <time>2025-07-15T09:26:20Z</time>
      </trkpt>
      <trkpt lat="44.0172" lon="6.98195">
        <ele>911.8</ele>
        <time>2025-07-15T09:26:21Z</time>
      </trkpt>
      <trkpt lat="44.01712" lon="6.98187">
        <ele>910.8</ele>
        <time>2025-07-15T09:26:22Z</time>
      </trkpt>
      <trkpt lat="44.01694" lon="6.98172">
        <ele>909.4</ele>
        <time>2025-07-15T09:26:24Z</time>
      </trkpt>
      <trkpt lat="44.01676" lon="6.98158">
        <ele>908.2</ele>
        <time>2025-07-15T09:26:26Z</time>
      </trkpt>
      <trkpt lat="44.01659" lon="6.98146">
        <ele>906.8</ele>
        <time>2025-07-15T09:26:28Z</time>
      </trkpt>
      <trkpt lat="44.01646" lon="6.9814">
        <ele>905.6</ele>
        <time>2025-07-15T09:26:29Z</time>
      </trkpt>
      <trkpt lat="44.01626" lon="6.98138">
        <ele>903.8</ele>
        <time>2025-07-15T09:26:31Z</time>
      </trkpt>
      <trkpt lat="44.01607" lon="6.98146">
        <ele>902</ele>
        <time>2025-07-15T09:26:33Z</time>
      </trkpt>
      <trkpt lat="44.01602" lon="6.98154">
        <ele>901.8</ele>
        <time>2025-07-15T09:26:34Z</time>
      </trkpt>
      <trkpt lat="44.01594" lon="6.98164">
        <ele>900.8</ele>
        <time>2025-07-15T09:26:35Z</time>
      </trkpt>
      <trkpt lat="44.01586" lon="6.98172">
        <ele>899.6</ele>
        <time>2025-07-15T09:26:36Z</time>
      </trkpt>
      <trkpt lat="44.01567" lon="6.98175">
        <ele>898</ele>
        <time>2025-07-15T09:26:38Z</time>
      </trkpt>
      <trkpt lat="44.01547" lon="6.98167">
        <ele>896.4</ele>
        <time>2025-07-15T09:26:40Z</time>
      </trkpt>
      <trkpt lat="44.01538" lon="6.98162">
        <ele>896</ele>
        <time>2025-07-15T09:26:41Z</time>
      </trkpt>
      <trkpt lat="44.01529" lon="6.98159">
        <ele>895.2</ele>
        <time>2025-07-15T09:26:42Z</time>
      </trkpt>
      <trkpt lat="44.01516" lon="6.98159">
        <ele>893</ele>
        <time>2025-07-15T09:26:44Z</time>
      </trkpt>
      <trkpt lat="44.01507" lon="6.98163">
        <ele>892</ele>
        <time>2025-07-15T09:26:45Z</time>
      </trkpt>
      <trkpt lat="44.01499" lon="6.98169">
        <ele>891.6</ele>
        <time>2025-07-15T09:26:46Z</time>
      </trkpt>
      <trkpt lat="44.01491" lon="6.98177">
        <ele>890.4</ele>
        <time>2025-07-15T09:26:47Z</time>
      </trkpt>
      <trkpt lat="44.01482" lon="6.98183">
        <ele>889.8</ele>
        <time>2025-07-15T09:26:48Z</time>
      </trkpt>
      <trkpt lat="44.01471" lon="6.98187">
        <ele>888.4</ele>
        <time>2025-07-15T09:26:49Z</time>
      </trkpt>
      <trkpt lat="44.01461" lon="6.98188">
        <ele>888</ele>
        <time>2025-07-15T09:26:50Z</time>
      </trkpt>
      <trkpt lat="44.01451" lon="6.98189">
        <ele>887</ele>
        <time>2025-07-15T09:26:51Z</time>
      </trkpt>
      <trkpt lat="44.01441" lon="6.9819">
        <ele>886.6</ele>
        <time>2025-07-15T09:26:52Z</time>
      </trkpt>
      <trkpt lat="44.01431" lon="6.98195">
        <ele>885.6</ele>
        <time>2025-07-15T09:26:53Z</time>
      </trkpt>
      <trkpt lat="44.01423" lon="6.98201">
        <ele>885</ele>
        <time>2025-07-15T09:26:54Z</time>
      </trkpt>
      <trkpt lat="44.01414" lon="6.98205">
        <ele>884.4</ele>
        <time>2025-07-15T09:26:55Z</time>
      </trkpt>
      <trkpt lat="44.01404" lon="6.98207">
        <ele>883.4</ele>
        <time>2025-07-15T09:26:56Z</time>
      </trkpt>
      <trkpt lat="44.01394" lon="6.98208">
        <ele>882.8</ele>
        <time>2025-07-15T09:26:57Z</time>
      </trkpt>
      <trkpt lat="44.01383" lon="6.98208">
        <ele>881.8</ele>
        <time>2025-07-15T09:26:58Z</time>
      </trkpt>
      <trkpt lat="44.01362" lon="6.98212">
        <ele>880</ele>
        <time>2025-07-15T09:27:00Z</time>
      </trkpt>
      <trkpt lat="44.01352" lon="6.98214">
        <ele>879</ele>
        <time>2025-07-15T09:27:01Z</time>
      </trkpt>
      <trkpt lat="44.01332" lon="6.98216">
        <ele>877.4</ele>
        <time>2025-07-15T09:27:03Z</time>
      </trkpt>
      <trkpt lat="44.01322" lon="6.98214">
        <ele>877.2</ele>
        <time>2025-07-15T09:27:04Z</time>
      </trkpt>
      <trkpt lat="44.01312" lon="6.98212">
        <ele>875.6</ele>
        <time>2025-07-15T09:27:05Z</time>
      </trkpt>
      <trkpt lat="44.01291" lon="6.98216">
        <ele>874</ele>
        <time>2025-07-15T09:27:07Z</time>
      </trkpt>
      <trkpt lat="44.01282" lon="6.98218">
        <ele>873</ele>
        <time>2025-07-15T09:27:08Z</time>
      </trkpt>
      <trkpt lat="44.01273" lon="6.98219">
        <ele>871.4</ele>
        <time>2025-07-15T09:27:09Z</time>
      </trkpt>
      <trkpt lat="44.01264" lon="6.98219">
        <ele>870</ele>
        <time>2025-07-15T09:27:10Z</time>
      </trkpt>
      <trkpt lat="44.01254" lon="6.98217">
        <ele>869.4</ele>
        <time>2025-07-15T09:27:11Z</time>
      </trkpt>
      <trkpt lat="44.01245" lon="6.98214">
        <ele>867.8</ele>
        <time>2025-07-15T09:27:12Z</time>
      </trkpt>
      <trkpt lat="44.01225" lon="6.98207">
        <ele>866.2</ele>
        <time>2025-07-15T09:27:14Z</time>
      </trkpt>
      <trkpt lat="44.01213" lon="6.98203">
        <ele>865.6</ele>
        <time>2025-07-15T09:27:15Z</time>
      </trkpt>
      <trkpt lat="44.01201" lon="6.98202">
        <ele>864.8</ele>
        <time>2025-07-15T09:27:16Z</time>
      </trkpt>
      <trkpt lat="44.01188" lon="6.982">
        <ele>863.6</ele>
        <time>2025-07-15T09:27:17Z</time>
      </trkpt>
      <trkpt lat="44.0118" lon="6.98202">
        <ele>863</ele>
        <time>2025-07-15T09:27:18Z</time>
      </trkpt>
      <trkpt lat="44.0117" lon="6.98209">
        <ele>861.8</ele>
        <time>2025-07-15T09:27:19Z</time>
      </trkpt>
      <trkpt lat="44.01161" lon="6.98217">
        <ele>861.4</ele>
        <time>2025-07-15T09:27:20Z</time>
      </trkpt>
      <trkpt lat="44.0115" lon="6.98225">
        <ele>860.2</ele>
        <time>2025-07-15T09:27:21Z</time>
      </trkpt>
      <trkpt lat="44.01129" lon="6.98238">
        <ele>858.6</ele>
        <time>2025-07-15T09:27:23Z</time>
      </trkpt>
      <trkpt lat="44.01119" lon="6.98245">
        <ele>857.6</ele>
        <time>2025-07-15T09:27:24Z</time>
      </trkpt>
      <trkpt lat="44.01109" lon="6.98253">
        <ele>856.2</ele>
        <time>2025-07-15T09:27:25Z</time>
      </trkpt>
      <trkpt lat="44.011" lon="6.98261">
        <ele>854.8</ele>
        <time>2025-07-15T09:27:26Z</time>
      </trkpt>
      <trkpt lat="44.01081" lon="6.98278">
        <ele>853</ele>
        <time>2025-07-15T09:27:28Z</time>
      </trkpt>
      <trkpt lat="44.01071" lon="6.98288">
        <ele>852.2</ele>
        <time>2025-07-15T09:27:29Z</time>
      </trkpt>
      <trkpt lat="44.01063" lon="6.98298">
        <ele>851</ele>
        <time>2025-07-15T09:27:30Z</time>
      </trkpt>
      <trkpt lat="44.01055" lon="6.9831">
        <ele>850.4</ele>
        <time>2025-07-15T09:27:31Z</time>
      </trkpt>
      <trkpt lat="44.01049" lon="6.98323">
        <ele>849</ele>
        <time>2025-07-15T09:27:32Z</time>
      </trkpt>
      <trkpt lat="44.01041" lon="6.98336">
        <ele>847.2</ele>
        <time>2025-07-15T09:27:33Z</time>
      </trkpt>
      <trkpt lat="44.01025" lon="6.98361">
        <ele>845.4</ele>
        <time>2025-07-15T09:27:35Z</time>
      </trkpt>
      <trkpt lat="44.01018" lon="6.98374">
        <ele>845</ele>
        <time>2025-07-15T09:27:36Z</time>
      </trkpt>
      <trkpt lat="44.01013" lon="6.98387">
        <ele>843.8</ele>
        <time>2025-07-15T09:27:37Z</time>
      </trkpt>
      <trkpt lat="44.0101" lon="6.98402">
        <ele>843.2</ele>
        <time>2025-07-15T09:27:38Z</time>
      </trkpt>
      <trkpt lat="44.01009" lon="6.98418">
        <ele>842</ele>
        <time>2025-07-15T09:27:39Z</time>
      </trkpt>
      <trkpt lat="44.01011" lon="6.98434">
        <ele>841.6</ele>
        <time>2025-07-15T09:27:40Z</time>
      </trkpt>
      <trkpt lat="44.01014" lon="6.98449">
        <ele>840</ele>
        <time>2025-07-15T09:27:41Z</time>
      </trkpt>
      <trkpt lat="44.01018" lon="6.98462">
        <ele>838.8</ele>
        <time>2025-07-15T09:27:42Z</time>
      </trkpt>
      <trkpt lat="44.01023" lon="6.98475">
        <ele>838.2</ele>
        <time>2025-07-15T09:27:43Z</time>
      </trkpt>
      <trkpt lat="44.01029" lon="6.98487">
        <ele>837</ele>
        <time>2025-07-15T09:27:44Z</time>
      </trkpt>
      <trkpt lat="44.01033" lon="6.98498">
        <ele>836.4</ele>
        <time>2025-07-15T09:27:45Z</time>
      </trkpt>
      <trkpt lat="44.01034" lon="6.98509">
        <ele>835.4</ele>
        <time>2025-07-15T09:27:46Z</time>
      </trkpt>
      <trkpt lat="44.01032" lon="6.98518">
        <ele>835</ele>
        <time>2025-07-15T09:27:47Z</time>
      </trkpt>
      <trkpt lat="44.01028" lon="6.98524">
        <ele>834</ele>
        <time>2025-07-15T09:27:48Z</time>
      </trkpt>
      <trkpt lat="44.01022" lon="6.98529">
        <ele>833</ele>
        <time>2025-07-15T09:27:49Z</time>
      </trkpt>
      <trkpt lat="44.01017" lon="6.98528">
        <ele>832.8</ele>
        <time>2025-07-15T09:27:50Z</time>
      </trkpt>
      <trkpt lat="44.01009" lon="6.98525">
        <ele>831.8</ele>
        <time>2025-07-15T09:27:51Z</time>
      </trkpt>
      <trkpt lat="44.00991" lon="6.98523">
        <ele>829.6</ele>
        <time>2025-07-15T09:27:53Z</time>
      </trkpt>
      <trkpt lat="44.00974" lon="6.98532">
        <ele>828.4</ele>
        <time>2025-07-15T09:27:55Z</time>
      </trkpt>
      <trkpt lat="44.00962" lon="6.9854">
        <ele>828</ele>
        <time>2025-07-15T09:27:56Z</time>
      </trkpt>
      <trkpt lat="44.00953" lon="6.98548">
        <ele>827.4</ele>
        <time>2025-07-15T09:27:57Z</time>
      </trkpt>
      <trkpt lat="44.00938" lon="6.98565">
        <ele>826</ele>
        <time>2025-07-15T09:27:59Z</time>
      </trkpt>
      <trkpt lat="44.00938" lon="6.98565">
        <ele>825.2</ele>
        <time>2025-07-15T09:28:00Z</time>
      </trkpt>
      <trkpt lat="44.00923" lon="6.9859">
        <ele>824.4</ele>
        <time>2025-07-15T09:28:01Z</time>
      </trkpt>
      <trkpt lat="44.00909" lon="6.98616">
        <ele>822.8</ele>
        <time>2025-07-15T09:28:03Z</time>
      </trkpt>
      <trkpt lat="44.00896" lon="6.98638">
        <ele>821</ele>
        <time>2025-07-15T09:28:05Z</time>
      </trkpt>
      <trkpt lat="44.00889" lon="6.9865">
        <ele>820.4</ele>
        <time>2025-07-15T09:28:06Z</time>
      </trkpt>
      <trkpt lat="44.00882" lon="6.98661">
        <ele>819.2</ele>
        <time>2025-07-15T09:28:07Z</time>
      </trkpt>
      <trkpt lat="44.00867" lon="6.98682">
        <ele>817.6</ele>
        <time>2025-07-15T09:28:09Z</time>
      </trkpt>
      <trkpt lat="44.0086" lon="6.98694">
        <ele>816.8</ele>
        <time>2025-07-15T09:28:10Z</time>
      </trkpt>
      <trkpt lat="44.00854" lon="6.98706">
        <ele>815.4</ele>
        <time>2025-07-15T09:28:11Z</time>
      </trkpt>
      <trkpt lat="44.00843" lon="6.98733">
        <ele>813.4</ele>
        <time>2025-07-15T09:28:13Z</time>
      </trkpt>
      <trkpt lat="44.00837" lon="6.98739">
        <ele>812.2</ele>
        <time>2025-07-15T09:28:14Z</time>
      </trkpt>
      <trkpt lat="44.0082" lon="6.98756">
        <ele>810.8</ele>
        <time>2025-07-15T09:28:16Z</time>
      </trkpt>
      <trkpt lat="44.00804" lon="6.98774">
        <ele>808.8</ele>
        <time>2025-07-15T09:28:18Z</time>
      </trkpt>
      <trkpt lat="44.00798" lon="6.98782">
        <ele>808.2</ele>
        <time>2025-07-15T09:28:19Z</time>
      </trkpt>
      <trkpt lat="44.00792" lon="6.98793">
        <ele>807</ele>
        <time>2025-07-15T09:28:20Z</time>
      </trkpt>
      <trkpt lat="44.00783" lon="6.98806">
        <ele>805.8</ele>
        <time>2025-07-15T09:28:21Z</time>
      </trkpt>
      <trkpt lat="44.00767" lon="6.98824">
        <ele>804.6</ele>
        <time>2025-07-15T09:28:23Z</time>
      </trkpt>
      <trkpt lat="44.00751" lon="6.98841">
        <ele>803</ele>
        <time>2025-07-15T09:28:25Z</time>
      </trkpt>
      <trkpt lat="44.00745" lon="6.98853">
        <ele>802.4</ele>
        <time>2025-07-15T09:28:26Z</time>
      </trkpt>
      <trkpt lat="44.00741" lon="6.98866">
        <ele>800.6</ele>
        <time>2025-07-15T09:28:27Z</time>
      </trkpt>
      <trkpt lat="44.00731" lon="6.98885">
        <ele>798.8</ele>
        <time>2025-07-15T09:28:29Z</time>
      </trkpt>
      <trkpt lat="44.00724" lon="6.98899">
        <ele>797.6</ele>
        <time>2025-07-15T09:28:30Z</time>
      </trkpt>
      <trkpt lat="44.00712" lon="6.9892">
        <ele>796</ele>
        <time>2025-07-15T09:28:32Z</time>
      </trkpt>
      <trkpt lat="44.00697" lon="6.98932">
        <ele>794</ele>
        <time>2025-07-15T09:28:34Z</time>
      </trkpt>
      <trkpt lat="44.00681" lon="6.9893">
        <ele>792.4</ele>
        <time>2025-07-15T09:28:36Z</time>
      </trkpt>
      <trkpt lat="44.00673" lon="6.98927">
        <ele>791.4</ele>
        <time>2025-07-15T09:28:37Z</time>
      </trkpt>
      <trkpt lat="44.00665" lon="6.98924">
        <ele>790.8</ele>
        <time>2025-07-15T09:28:38Z</time>
      </trkpt>
      <trkpt lat="44.00657" lon="6.98922">
        <ele>789.6</ele>
        <time>2025-07-15T09:28:39Z</time>
      </trkpt>
      <trkpt lat="44.0065" lon="6.98922">
        <ele>789</ele>
        <time>2025-07-15T09:28:40Z</time>
      </trkpt>
      <trkpt lat="44.00644" lon="6.98927">
        <ele>788.2</ele>
        <time>2025-07-15T09:28:41Z</time>
      </trkpt>
      <trkpt lat="44.00638" lon="6.98934">
        <ele>787.8</ele>
        <time>2025-07-15T09:28:42Z</time>
      </trkpt>
      <trkpt lat="44.00634" lon="6.9894">
        <ele>786.6</ele>
        <time>2025-07-15T09:28:43Z</time>
      </trkpt>
      <trkpt lat="44.00629" lon="6.98948">
        <ele>785</ele>
        <time>2025-07-15T09:28:45Z</time>
      </trkpt>
      <trkpt lat="44.00626" lon="6.98951">
        <ele>783.6</ele>
        <time>2025-07-15T09:28:47Z</time>
      </trkpt>
      <trkpt lat="44.00625" lon="6.98954">
        <ele>782.4</ele>
        <time>2025-07-15T09:28:48Z</time>
      </trkpt>
      <trkpt lat="44.00623" lon="6.98955">
        <ele>781.8</ele>
        <time>2025-07-15T09:28:49Z</time>
      </trkpt>
      <trkpt lat="44.00622" lon="6.98958">
        <ele>780.8</ele>
        <time>2025-07-15T09:28:50Z</time>
      </trkpt>
      <trkpt lat="44.0062" lon="6.98959">
        <ele>780.6</ele>
        <time>2025-07-15T09:28:51Z</time>
      </trkpt>
      <trkpt lat="44.0062" lon="6.9896">
        <ele>779.6</ele>
        <time>2025-07-15T09:28:53Z</time>
      </trkpt>
      <trkpt lat="44.0062" lon="6.9896">
        <ele>778.8</ele>
        <time>2025-07-15T09:28:55Z</time>
      </trkpt>
      <trkpt lat="44.00621" lon="6.98963">
        <ele>782</ele>
        <time>2025-07-15T10:26:35Z</time>
      </trkpt>
      <trkpt lat="44.00616" lon="6.98968">
        <ele>781.8</ele>
        <time>2025-07-15T10:26:37Z</time>
      </trkpt>
      <trkpt lat="44.00606" lon="6.98984">
        <ele>781.2</ele>
        <time>2025-07-15T10:26:41Z</time>
      </trkpt>
      <trkpt lat="44.00601" lon="6.98988">
        <ele>781.2</ele>
        <time>2025-07-15T10:26:42Z</time>
      </trkpt>
      <trkpt lat="44.00596" lon="6.98992">
        <ele>780.4</ele>
        <time>2025-07-15T10:26:43Z</time>
      </trkpt>
      <trkpt lat="44.00583" lon="6.98996">
        <ele>780</ele>
        <time>2025-07-15T10:26:45Z</time>
      </trkpt>
      <trkpt lat="44.00567" lon="6.98997">
        <ele>779.2</ele>
        <time>2025-07-15T10:26:47Z</time>
      </trkpt>
      <trkpt lat="44.00549" lon="6.98996">
        <ele>778.4</ele>
        <time>2025-07-15T10:26:49Z</time>
      </trkpt>
      <trkpt lat="44.00539" lon="6.98994">
        <ele>777.4</ele>
        <time>2025-07-15T10:26:50Z</time>
      </trkpt>
      <trkpt lat="44.00521" lon="6.98992">
        <ele>776</ele>
        <time>2025-07-15T10:26:52Z</time>
      </trkpt>
      <trkpt lat="44.005" lon="6.9899">
        <ele>774.8</ele>
        <time>2025-07-15T10:26:54Z</time>
      </trkpt>
      <trkpt lat="44.00491" lon="6.98989">
        <ele>774.2</ele>
        <time>2025-07-15T10:26:55Z</time>
      </trkpt>
      <trkpt lat="44.00481" lon="6.98986">
        <ele>773.2</ele>
        <time>2025-07-15T10:26:56Z</time>
      </trkpt>
      <trkpt lat="44.00464" lon="6.98975">
        <ele>771.6</ele>
        <time>2025-07-15T10:26:58Z</time>
      </trkpt>
      <trkpt lat="44.00446" lon="6.98961">
        <ele>770.4</ele>
        <time>2025-07-15T10:27:00Z</time>
      </trkpt>
      <trkpt lat="44.00436" lon="6.98955">
        <ele>769</ele>
        <time>2025-07-15T10:27:01Z</time>
      </trkpt>
      <trkpt lat="44.00419" lon="6.98942">
        <ele>767.4</ele>
        <time>2025-07-15T10:27:03Z</time>
      </trkpt>
      <trkpt lat="44.0041" lon="6.98935">
        <ele>766.8</ele>
        <time>2025-07-15T10:27:04Z</time>
      </trkpt>
      <trkpt lat="44.004" lon="6.98927">
        <ele>765.2</ele>
        <time>2025-07-15T10:27:05Z</time>
      </trkpt>
      <trkpt lat="44.00386" lon="6.98919">
        <ele>763.2</ele>
        <time>2025-07-15T10:27:07Z</time>
      </trkpt>
      <trkpt lat="44.00379" lon="6.98916">
        <ele>762</ele>
        <time>2025-07-15T10:27:08Z</time>
      </trkpt>
      <trkpt lat="44.00369" lon="6.98912">
        <ele>760</ele>
        <time>2025-07-15T10:27:10Z</time>
      </trkpt>
      <trkpt lat="44.0036" lon="6.98909">
        <ele>758.4</ele>
        <time>2025-07-15T10:27:12Z</time>
      </trkpt>
      <trkpt lat="44.0035" lon="6.98902">
        <ele>757</ele>
        <time>2025-07-15T10:27:14Z</time>
      </trkpt>
      <trkpt lat="44.00338" lon="6.9889">
        <ele>755.6</ele>
        <time>2025-07-15T10:27:16Z</time>
      </trkpt>
      <trkpt lat="44.00324" lon="6.98877">
        <ele>754.4</ele>
        <time>2025-07-15T10:27:18Z</time>
      </trkpt>
      <trkpt lat="44.0031" lon="6.98865">
        <ele>753.6</ele>
        <time>2025-07-15T10:27:20Z</time>
      </trkpt>
      <trkpt lat="44.00303" lon="6.98865">
        <ele>752.8</ele>
        <time>2025-07-15T10:27:21Z</time>
      </trkpt>
      <trkpt lat="44.00295" lon="6.98869">
        <ele>752.4</ele>
        <time>2025-07-15T10:27:22Z</time>
      </trkpt>
      <trkpt lat="44.00287" lon="6.98876">
        <ele>751.8</ele>
        <time>2025-07-15T10:27:23Z</time>
      </trkpt>
      <trkpt lat="44.0028" lon="6.98884">
        <ele>751.2</ele>
        <time>2025-07-15T10:27:24Z</time>
      </trkpt>
      <trkpt lat="44.00274" lon="6.98893">
        <ele>750.4</ele>
        <time>2025-07-15T10:27:25Z</time>
      </trkpt>
      <trkpt lat="44.00267" lon="6.98901">
        <ele>750</ele>
        <time>2025-07-15T10:27:26Z</time>
      </trkpt>
      <trkpt lat="44.0026" lon="6.98905">
        <ele>749.4</ele>
        <time>2025-07-15T10:27:27Z</time>
      </trkpt>
      <trkpt lat="44.00252" lon="6.98907">
        <ele>748.6</ele>
        <time>2025-07-15T10:27:28Z</time>
      </trkpt>
      <trkpt lat="44.00234" lon="6.98907">
        <ele>746.8</ele>
        <time>2025-07-15T10:27:30Z</time>
      </trkpt>
      <trkpt lat="44.00215" lon="6.98906">
        <ele>745.2</ele>
        <time>2025-07-15T10:27:32Z</time>
      </trkpt>
      <trkpt lat="44.00205" lon="6.98903">
        <ele>744.8</ele>
        <time>2025-07-15T10:27:33Z</time>
      </trkpt>
      <trkpt lat="44.00195" lon="6.98899">
        <ele>743.8</ele>
        <time>2025-07-15T10:27:34Z</time>
      </trkpt>
      <trkpt lat="44.00179" lon="6.98887">
        <ele>742.6</ele>
        <time>2025-07-15T10:27:36Z</time>
      </trkpt>
      <trkpt lat="44.00172" lon="6.98878">
        <ele>741.2</ele>
        <time>2025-07-15T10:27:37Z</time>
      </trkpt>
      <trkpt lat="44.00161" lon="6.98858">
        <ele>739.2</ele>
        <time>2025-07-15T10:27:39Z</time>
      </trkpt>
      <trkpt lat="44.00155" lon="6.98849">
        <ele>738.6</ele>
        <time>2025-07-15T10:27:40Z</time>
      </trkpt>
      <trkpt lat="44.00147" lon="6.98841">
        <ele>736.6</ele>
        <time>2025-07-15T10:27:41Z</time>
      </trkpt>
      <trkpt lat="44.00139" lon="6.98837">
        <ele>735.8</ele>
        <time>2025-07-15T10:27:42Z</time>
      </trkpt>
      <trkpt lat="44.0013" lon="6.98836">
        <ele>734.6</ele>
        <time>2025-07-15T10:27:43Z</time>
      </trkpt>
      <trkpt lat="44.00115" lon="6.98837">
        <ele>732.4</ele>
        <time>2025-07-15T10:27:45Z</time>
      </trkpt>
      <trkpt lat="44.00108" lon="6.98836">
        <ele>731.2</ele>
        <time>2025-07-15T10:27:46Z</time>
      </trkpt>
      <trkpt lat="44.001" lon="6.98825">
        <ele>729.4</ele>
        <time>2025-07-15T10:27:48Z</time>
      </trkpt>
      <trkpt lat="44.00099" lon="6.98815">
        <ele>729.2</ele>
        <time>2025-07-15T10:27:49Z</time>
      </trkpt>
      <trkpt lat="44.00098" lon="6.98806">
        <ele>728.2</ele>
        <time>2025-07-15T10:27:50Z</time>
      </trkpt>
      <trkpt lat="44.00092" lon="6.98789">
        <ele>725.8</ele>
        <time>2025-07-15T10:27:52Z</time>
      </trkpt>
      <trkpt lat="44.00083" lon="6.9879">
        <ele>723.8</ele>
        <time>2025-07-15T10:27:54Z</time>
      </trkpt>
      <trkpt lat="44.00081" lon="6.98799">
        <ele>722.4</ele>
        <time>2025-07-15T10:27:55Z</time>
      </trkpt>
      <trkpt lat="44.00082" lon="6.98808">
        <ele>722</ele>
        <time>2025-07-15T10:27:56Z</time>
      </trkpt>
      <trkpt lat="44.00085" lon="6.98819">
        <ele>721.4</ele>
        <time>2025-07-15T10:27:57Z</time>
      </trkpt>
      <trkpt lat="44.00096" lon="6.98852">
        <ele>720.2</ele>
        <time>2025-07-15T10:28:00Z</time>
      </trkpt>
      <trkpt lat="44.00109" lon="6.98867">
        <ele>719.6</ele>
        <time>2025-07-15T10:28:02Z</time>
      </trkpt>
      <trkpt lat="44.00116" lon="6.9887">
        <ele>719.2</ele>
        <time>2025-07-15T10:28:03Z</time>
      </trkpt>
      <trkpt lat="44.00124" lon="6.9887">
        <ele>718.8</ele>
        <time>2025-07-15T10:28:04Z</time>
      </trkpt>
      <trkpt lat="44.00133" lon="6.98871">
        <ele>718.2</ele>
        <time>2025-07-15T10:28:05Z</time>
      </trkpt>
      <trkpt lat="44.00142" lon="6.98874">
        <ele>716.8</ele>
        <time>2025-07-15T10:28:06Z</time>
      </trkpt>
      <trkpt lat="44.00149" lon="6.98882">
        <ele>716.2</ele>
        <time>2025-07-15T10:28:07Z</time>
      </trkpt>
      <trkpt lat="44.00155" lon="6.98893">
        <ele>715.2</ele>
        <time>2025-07-15T10:28:08Z</time>
      </trkpt>
      <trkpt lat="44.00166" lon="6.98916">
        <ele>713.8</ele>
        <time>2025-07-15T10:28:10Z</time>
      </trkpt>
      <trkpt lat="44.00172" lon="6.98928">
        <ele>713.4</ele>
        <time>2025-07-15T10:28:11Z</time>
      </trkpt>
      <trkpt lat="44.00178" lon="6.98937">
        <ele>712.4</ele>
        <time>2025-07-15T10:28:12Z</time>
      </trkpt>
      <trkpt lat="44.00184" lon="6.98945">
        <ele>711.6</ele>
        <time>2025-07-15T10:28:13Z</time>
      </trkpt>
      <trkpt lat="44.0019" lon="6.98952">
        <ele>710.6</ele>
        <time>2025-07-15T10:28:14Z</time>
      </trkpt>
      <trkpt lat="44.00196" lon="6.98959">
        <ele>709.8</ele>
        <time>2025-07-15T10:28:15Z</time>
      </trkpt>
      <trkpt lat="44.00202" lon="6.98964">
        <ele>709.2</ele>
        <time>2025-07-15T10:28:16Z</time>
      </trkpt>
      <trkpt lat="44.00208" lon="6.98969">
        <ele>708</ele>
        <time>2025-07-15T10:28:17Z</time>
      </trkpt>
      <trkpt lat="44.00223" lon="6.98975">
        <ele>706.2</ele>
        <time>2025-07-15T10:28:19Z</time>
      </trkpt>
      <trkpt lat="44.00231" lon="6.98979">
        <ele>705.6</ele>
        <time>2025-07-15T10:28:20Z</time>
      </trkpt>
      <trkpt lat="44.0024" lon="6.98986">
        <ele>704.4</ele>
        <time>2025-07-15T10:28:21Z</time>
      </trkpt>
      <trkpt lat="44.00247" lon="6.98995">
        <ele>704</ele>
        <time>2025-07-15T10:28:22Z</time>
      </trkpt>
      <trkpt lat="44.00253" lon="6.99004">
        <ele>703.4</ele>
        <time>2025-07-15T10:28:23Z</time>
      </trkpt>
      <trkpt lat="44.00259" lon="6.99011">
        <ele>702.4</ele>
        <time>2025-07-15T10:28:24Z</time>
      </trkpt>
      <trkpt lat="44.00266" lon="6.99014">
        <ele>701.6</ele>
        <time>2025-07-15T10:28:25Z</time>
      </trkpt>
      <trkpt lat="44.00274" lon="6.99014">
        <ele>700.4</ele>
        <time>2025-07-15T10:28:26Z</time>
      </trkpt>
      <trkpt lat="44.00292" lon="6.99007">
        <ele>698.4</ele>
        <time>2025-07-15T10:28:28Z</time>
      </trkpt>
      <trkpt lat="44.00301" lon="6.99004">
        <ele>698</ele>
        <time>2025-07-15T10:28:29Z</time>
      </trkpt>
      <trkpt lat="44.0031" lon="6.99007">
        <ele>696.6</ele>
        <time>2025-07-15T10:28:30Z</time>
      </trkpt>
      <trkpt lat="44.00319" lon="6.99013">
        <ele>695.6</ele>
        <time>2025-07-15T10:28:31Z</time>
      </trkpt>
      <trkpt lat="44.00327" lon="6.9902">
        <ele>694.2</ele>
        <time>2025-07-15T10:28:32Z</time>
      </trkpt>
      <trkpt lat="44.00336" lon="6.99027">
        <ele>693</ele>
        <time>2025-07-15T10:28:33Z</time>
      </trkpt>
      <trkpt lat="44.00352" lon="6.99046">
        <ele>691.6</ele>
        <time>2025-07-15T10:28:35Z</time>
      </trkpt>
      <trkpt lat="44.00359" lon="6.99058">
        <ele>691</ele>
        <time>2025-07-15T10:28:36Z</time>
      </trkpt>
      <trkpt lat="44.00364" lon="6.9907">
        <ele>689.2</ele>
        <time>2025-07-15T10:28:37Z</time>
      </trkpt>
      <trkpt lat="44.00374" lon="6.99096">
        <ele>687.6</ele>
        <time>2025-07-15T10:28:39Z</time>
      </trkpt>
      <trkpt lat="44.00384" lon="6.99119">
        <ele>686</ele>
        <time>2025-07-15T10:28:41Z</time>
      </trkpt>
      <trkpt lat="44.00397" lon="6.99138">
        <ele>684.2</ele>
        <time>2025-07-15T10:28:43Z</time>
      </trkpt>
      <trkpt lat="44.00404" lon="6.99145">
        <ele>682.4</ele>
        <time>2025-07-15T10:28:44Z</time>
      </trkpt>
      <trkpt lat="44.00411" lon="6.9915">
        <ele>681.6</ele>
        <time>2025-07-15T10:28:45Z</time>
      </trkpt>
      <trkpt lat="44.00419" lon="6.99155">
        <ele>680.4</ele>
        <time>2025-07-15T10:28:46Z</time>
      </trkpt>
      <trkpt lat="44.00427" lon="6.99158">
        <ele>679.8</ele>
        <time>2025-07-15T10:28:47Z</time>
      </trkpt>
      <trkpt lat="44.00435" lon="6.9916">
        <ele>678.8</ele>
        <time>2025-07-15T10:28:48Z</time>
      </trkpt>
      <trkpt lat="44.00442" lon="6.99161">
        <ele>678.4</ele>
        <time>2025-07-15T10:28:49Z</time>
      </trkpt>
      <trkpt lat="44.00447" lon="6.99165">
        <ele>677.4</ele>
        <time>2025-07-15T10:28:50Z</time>
      </trkpt>
      <trkpt lat="44.00449" lon="6.99171">
        <ele>676.2</ele>
        <time>2025-07-15T10:28:51Z</time>
      </trkpt>
      <trkpt lat="44.00447" lon="6.99176">
        <ele>675.4</ele>
        <time>2025-07-15T10:28:52Z</time>
      </trkpt>
      <trkpt lat="44.00442" lon="6.99181">
        <ele>674.6</ele>
        <time>2025-07-15T10:28:53Z</time>
      </trkpt>
      <trkpt lat="44.00436" lon="6.9918">
        <ele>674.2</ele>
        <time>2025-07-15T10:28:54Z</time>
      </trkpt>
      <trkpt lat="44.0043" lon="6.99179">
        <ele>673.6</ele>
        <time>2025-07-15T10:28:55Z</time>
      </trkpt>
      <trkpt lat="44.00416" lon="6.99178">
        <ele>672.8</ele>
        <time>2025-07-15T10:28:57Z</time>
      </trkpt>
      <trkpt lat="44.00403" lon="6.99175">
        <ele>672.4</ele>
        <time>2025-07-15T10:28:59Z</time>
      </trkpt>
      <trkpt lat="44.00392" lon="6.99165">
        <ele>672</ele>
        <time>2025-07-15T10:29:01Z</time>
      </trkpt>
      <trkpt lat="44.00386" lon="6.99158">
        <ele>671.8</ele>
        <time>2025-07-15T10:29:02Z</time>
      </trkpt>
      <trkpt lat="44.00381" lon="6.9915">
        <ele>671.6</ele>
        <time>2025-07-15T10:29:03Z</time>
      </trkpt>
      <trkpt lat="44.0037" lon="6.99131">
        <ele>671.2</ele>
        <time>2025-07-15T10:29:05Z</time>
      </trkpt>
      <trkpt lat="44.00364" lon="6.99121">
        <ele>671</ele>
        <time>2025-07-15T10:29:06Z</time>
      </trkpt>
      <trkpt lat="44.00346" lon="6.99091">
        <ele>670.4</ele>
        <time>2025-07-15T10:29:09Z</time>
      </trkpt>
      <trkpt lat="44.00338" lon="6.99083">
        <ele>669.6</ele>
        <time>2025-07-15T10:29:10Z</time>
      </trkpt>
      <trkpt lat="44.00329" lon="6.99076">
        <ele>669.2</ele>
        <time>2025-07-15T10:29:11Z</time>
      </trkpt>
      <trkpt lat="44.0031" lon="6.99065">
        <ele>668.4</ele>
        <time>2025-07-15T10:29:13Z</time>
      </trkpt>
      <trkpt lat="44.003" lon="6.99061">
        <ele>668.2</ele>
        <time>2025-07-15T10:29:14Z</time>
      </trkpt>
      <trkpt lat="44.0029" lon="6.9906">
        <ele>667.8</ele>
        <time>2025-07-15T10:29:15Z</time>
      </trkpt>
      <trkpt lat="44.0028" lon="6.99062">
        <ele>667.4</ele>
        <time>2025-07-15T10:29:16Z</time>
      </trkpt>
      <trkpt lat="44.00269" lon="6.99064">
        <ele>666.6</ele>
        <time>2025-07-15T10:29:17Z</time>
      </trkpt>
      <trkpt lat="44.00259" lon="6.99065">
        <ele>666.2</ele>
        <time>2025-07-15T10:29:18Z</time>
      </trkpt>
      <trkpt lat="44.00238" lon="6.99065">
        <ele>664.8</ele>
        <time>2025-07-15T10:29:20Z</time>
      </trkpt>
      <trkpt lat="44.00228" lon="6.99062">
        <ele>664.4</ele>
        <time>2025-07-15T10:29:21Z</time>
      </trkpt>
      <trkpt lat="44.0021" lon="6.99049">
        <ele>663.2</ele>
        <time>2025-07-15T10:29:23Z</time>
      </trkpt>
      <trkpt lat="44.002" lon="6.99043">
        <ele>662.2</ele>
        <time>2025-07-15T10:29:24Z</time>
      </trkpt>
      <trkpt lat="44.0019" lon="6.99038">
        <ele>661.8</ele>
        <time>2025-07-15T10:29:25Z</time>
      </trkpt>
      <trkpt lat="44.0018" lon="6.99034">
        <ele>660.8</ele>
        <time>2025-07-15T10:29:26Z</time>
      </trkpt>
      <trkpt lat="44.00171" lon="6.99028">
        <ele>660.4</ele>
        <time>2025-07-15T10:29:27Z</time>
      </trkpt>
      <trkpt lat="44.00163" lon="6.9902">
        <ele>659.4</ele>
        <time>2025-07-15T10:29:28Z</time>
      </trkpt>
      <trkpt lat="44.00156" lon="6.99012">
        <ele>658.2</ele>
        <time>2025-07-15T10:29:29Z</time>
      </trkpt>
      <trkpt lat="44.00147" lon="6.99004">
        <ele>657.6</ele>
        <time>2025-07-15T10:29:30Z</time>
      </trkpt>
      <trkpt lat="44.00137" lon="6.98997">
        <ele>656.4</ele>
        <time>2025-07-15T10:29:31Z</time>
      </trkpt>
      <trkpt lat="44.00118" lon="6.98981">
        <ele>655.2</ele>
        <time>2025-07-15T10:29:33Z</time>
      </trkpt>
      <trkpt lat="44.00099" lon="6.98962">
        <ele>653.4</ele>
        <time>2025-07-15T10:29:35Z</time>
      </trkpt>
      <trkpt lat="44.00078" lon="6.98942">
        <ele>651.8</ele>
        <time>2025-07-15T10:29:37Z</time>
      </trkpt>
      <trkpt lat="44.00067" lon="6.98933">
        <ele>650.2</ele>
        <time>2025-07-15T10:29:38Z</time>
      </trkpt>
      <trkpt lat="44.00057" lon="6.98924">
        <ele>649.6</ele>
        <time>2025-07-15T10:29:39Z</time>
      </trkpt>
      <trkpt lat="44.00046" lon="6.98915">
        <ele>648.4</ele>
        <time>2025-07-15T10:29:40Z</time>
      </trkpt>
      <trkpt lat="44.00024" lon="6.98897">
        <ele>646.8</ele>
        <time>2025-07-15T10:29:42Z</time>
      </trkpt>
      <trkpt lat="44.00012" lon="6.9889">
        <ele>646.2</ele>
        <time>2025-07-15T10:29:43Z</time>
      </trkpt>
      <trkpt lat="44" lon="6.98887">
        <ele>644.8</ele>
        <time>2025-07-15T10:29:44Z</time>
      </trkpt>
      <trkpt lat="43.99976" lon="6.9888">
        <ele>643.2</ele>
        <time>2025-07-15T10:29:46Z</time>
      </trkpt>
      <trkpt lat="43.99965" lon="6.98877">
        <ele>642</ele>
        <time>2025-07-15T10:29:47Z</time>
      </trkpt>
      <trkpt lat="43.99953" lon="6.98874">
        <ele>641.4</ele>
        <time>2025-07-15T10:29:48Z</time>
      </trkpt>
      <trkpt lat="43.99946" lon="6.98873">
        <ele>640.6</ele>
        <time>2025-07-15T10:29:49Z</time>
      </trkpt>
      <trkpt lat="43.99937" lon="6.98873">
        <ele>640.2</ele>
        <time>2025-07-15T10:29:50Z</time>
      </trkpt>
      <trkpt lat="43.99928" lon="6.98877">
        <ele>639.6</ele>
        <time>2025-07-15T10:29:51Z</time>
      </trkpt>
      <trkpt lat="43.9992" lon="6.98883">
        <ele>639.4</ele>
        <time>2025-07-15T10:29:52Z</time>
      </trkpt>
      <trkpt lat="43.99909" lon="6.98902">
        <ele>638.6</ele>
        <time>2025-07-15T10:29:54Z</time>
      </trkpt>
      <trkpt lat="43.99904" lon="6.98912">
        <ele>638.2</ele>
        <time>2025-07-15T10:29:55Z</time>
      </trkpt>
      <trkpt lat="43.99888" lon="6.98955">
        <ele>637.8</ele>
        <time>2025-07-15T10:29:59Z</time>
      </trkpt>
      <trkpt lat="43.99885" lon="6.98962">
        <ele>637.6</ele>
        <time>2025-07-15T10:30:00Z</time>
      </trkpt>
      <trkpt lat="43.99879" lon="6.98969">
        <ele>637.6</ele>
        <time>2025-07-15T10:30:01Z</time>
      </trkpt>
      <trkpt lat="43.99866" lon="6.98979">
        <ele>637.2</ele>
        <time>2025-07-15T10:30:03Z</time>
      </trkpt>
      <trkpt lat="43.99858" lon="6.98983">
        <ele>637</ele>
        <time>2025-07-15T10:30:04Z</time>
      </trkpt>
      <trkpt lat="43.99851" lon="6.98988">
        <ele>637</ele>
        <time>2025-07-15T10:30:05Z</time>
      </trkpt>
      <trkpt lat="43.99844" lon="6.98992">
        <ele>636.8</ele>
        <time>2025-07-15T10:30:06Z</time>
      </trkpt>
      <trkpt lat="43.99832" lon="6.99006">
        <ele>636.6</ele>
        <time>2025-07-15T10:30:08Z</time>
      </trkpt>
      <trkpt lat="43.99794" lon="6.99059">
        <ele>636.2</ele>
        <time>2025-07-15T10:30:15Z</time>
      </trkpt>
      <trkpt lat="43.99788" lon="6.99067">
        <ele>636.2</ele>
        <time>2025-07-15T10:30:16Z</time>
      </trkpt>
      <trkpt lat="43.99775" lon="6.99078">
        <ele>636</ele>
        <time>2025-07-15T10:30:18Z</time>
      </trkpt>
      <trkpt lat="43.99769" lon="6.99084">
        <ele>635.8</ele>
        <time>2025-07-15T10:30:19Z</time>
      </trkpt>
      <trkpt lat="43.99724" lon="6.99124">
        <ele>635.2</ele>
        <time>2025-07-15T10:30:26Z</time>
      </trkpt>
      <trkpt lat="43.99709" lon="6.99127">
        <ele>635</ele>
        <time>2025-07-15T10:30:28Z</time>
      </trkpt>
      <trkpt lat="43.99702" lon="6.99127">
        <ele>634.8</ele>
        <time>2025-07-15T10:30:29Z</time>
      </trkpt>
      <trkpt lat="43.99695" lon="6.99125">
        <ele>634.8</ele>
        <time>2025-07-15T10:30:30Z</time>
      </trkpt>
      <trkpt lat="43.99682" lon="6.99114">
        <ele>634.4</ele>
        <time>2025-07-15T10:30:32Z</time>
      </trkpt>
      <trkpt lat="43.99639" lon="6.99071">
        <ele>634</ele>
        <time>2025-07-15T10:30:39Z</time>
      </trkpt>
      <trkpt lat="43.99619" lon="6.99056">
        <ele>634</ele>
        <time>2025-07-15T10:30:42Z</time>
      </trkpt>
      <trkpt lat="43.99607" lon="6.99044">
        <ele>634</ele>
        <time>2025-07-15T10:30:44Z</time>
      </trkpt>
      <trkpt lat="43.996" lon="6.99037">
        <ele>634</ele>
        <time>2025-07-15T10:30:45Z</time>
      </trkpt>
      <trkpt lat="43.99594" lon="6.99032">
        <ele>634</ele>
        <time>2025-07-15T10:30:46Z</time>
      </trkpt>
      <trkpt lat="43.99579" lon="6.99027">
        <ele>633.8</ele>
        <time>2025-07-15T10:30:48Z</time>
      </trkpt>
      <trkpt lat="43.99555" lon="6.99024">
        <ele>633.6</ele>
        <time>2025-07-15T10:30:51Z</time>
      </trkpt>
      <trkpt lat="43.99548" lon="6.99021">
        <ele>633.4</ele>
        <time>2025-07-15T10:30:52Z</time>
      </trkpt>
      <trkpt lat="43.99533" lon="6.99014">
        <ele>633.4</ele>
        <time>2025-07-15T10:30:54Z</time>
      </trkpt>
      <trkpt lat="43.99517" lon="6.99013">
        <ele>633</ele>
        <time>2025-07-15T10:30:56Z</time>
      </trkpt>
      <trkpt lat="43.99485" lon="6.99011">
        <ele>633</ele>
        <time>2025-07-15T10:31:00Z</time>
      </trkpt>
      <trkpt lat="43.99469" lon="6.99018">
        <ele>633.2</ele>
        <time>2025-07-15T10:31:02Z</time>
      </trkpt>
      <trkpt lat="43.99463" lon="6.99025">
        <ele>633.2</ele>
        <time>2025-07-15T10:31:03Z</time>
      </trkpt>
      <trkpt lat="43.99451" lon="6.99037">
        <ele>633.2</ele>
        <time>2025-07-15T10:31:05Z</time>
      </trkpt>
      <trkpt lat="43.99438" lon="6.99044">
        <ele>633.4</ele>
        <time>2025-07-15T10:31:07Z</time>
      </trkpt>
      <trkpt lat="43.994" lon="6.99056">
        <ele>633.6</ele>
        <time>2025-07-15T10:31:13Z</time>
      </trkpt>
      <trkpt lat="43.99389" lon="6.99066">
        <ele>633.8</ele>
        <time>2025-07-15T10:31:15Z</time>
      </trkpt>
      <trkpt lat="43.99381" lon="6.99079">
        <ele>634.2</ele>
        <time>2025-07-15T10:31:17Z</time>
      </trkpt>
      <trkpt lat="43.99373" lon="6.99093">
        <ele>634.4</ele>
        <time>2025-07-15T10:31:19Z</time>
      </trkpt>
      <trkpt lat="43.99369" lon="6.99109">
        <ele>634.6</ele>
        <time>2025-07-15T10:31:21Z</time>
      </trkpt>
      <trkpt lat="43.99371" lon="6.99127">
        <ele>634.6</ele>
        <time>2025-07-15T10:31:23Z</time>
      </trkpt>
      <trkpt lat="43.99375" lon="6.99136">
        <ele>634.8</ele>
        <time>2025-07-15T10:31:24Z</time>
      </trkpt>
      <trkpt lat="43.99379" lon="6.99143">
        <ele>634.8</ele>
        <time>2025-07-15T10:31:25Z</time>
      </trkpt>
      <trkpt lat="43.9939" lon="6.99155">
        <ele>634.8</ele>
        <time>2025-07-15T10:31:27Z</time>
      </trkpt>
      <trkpt lat="43.99409" lon="6.99163">
        <ele>634.8</ele>
        <time>2025-07-15T10:31:30Z</time>
      </trkpt>
      <trkpt lat="43.99419" lon="6.99178">
        <ele>634.8</ele>
        <time>2025-07-15T10:31:32Z</time>
      </trkpt>
      <trkpt lat="43.99426" lon="6.99208">
        <ele>634.6</ele>
        <time>2025-07-15T10:31:35Z</time>
      </trkpt>
      <trkpt lat="43.99437" lon="6.99276">
        <ele>633.2</ele>
        <time>2025-07-15T10:31:41Z</time>
      </trkpt>
      <trkpt lat="43.99441" lon="6.99299">
        <ele>632.2</ele>
        <time>2025-07-15T10:31:43Z</time>
      </trkpt>
      <trkpt lat="43.99444" lon="6.99323">
        <ele>631.2</ele>
        <time>2025-07-15T10:31:45Z</time>
      </trkpt>
      <trkpt lat="43.99444" lon="6.99336">
        <ele>630.8</ele>
        <time>2025-07-15T10:31:46Z</time>
      </trkpt>
      <trkpt lat="43.99442" lon="6.99348">
        <ele>630.4</ele>
        <time>2025-07-15T10:31:47Z</time>
      </trkpt>
      <trkpt lat="43.99438" lon="6.9936">
        <ele>629.8</ele>
        <time>2025-07-15T10:31:48Z</time>
      </trkpt>
      <trkpt lat="43.99433" lon="6.9937">
        <ele>629.6</ele>
        <time>2025-07-15T10:31:49Z</time>
      </trkpt>
      <trkpt lat="43.99418" lon="6.99388">
        <ele>628.4</ele>
        <time>2025-07-15T10:31:51Z</time>
      </trkpt>
      <trkpt lat="43.99393" lon="6.99411">
        <ele>627.2</ele>
        <time>2025-07-15T10:31:54Z</time>
      </trkpt>
      <trkpt lat="43.99385" lon="6.99419">
        <ele>626.2</ele>
        <time>2025-07-15T10:31:55Z</time>
      </trkpt>
      <trkpt lat="43.99369" lon="6.99434">
        <ele>625.4</ele>
        <time>2025-07-15T10:31:57Z</time>
      </trkpt>
      <trkpt lat="43.99355" lon="6.99452">
        <ele>625</ele>
        <time>2025-07-15T10:31:59Z</time>
      </trkpt>
      <trkpt lat="43.99336" lon="6.99482">
        <ele>624</ele>
        <time>2025-07-15T10:32:02Z</time>
      </trkpt>
      <trkpt lat="43.99323" lon="6.99502">
        <ele>622.8</ele>
        <time>2025-07-15T10:32:04Z</time>
      </trkpt>
      <trkpt lat="43.99308" lon="6.9952">
        <ele>621.6</ele>
        <time>2025-07-15T10:32:06Z</time>
      </trkpt>
      <trkpt lat="43.99272" lon="6.99549">
        <ele>620.4</ele>
        <time>2025-07-15T10:32:10Z</time>
      </trkpt>
      <trkpt lat="43.99264" lon="6.99557">
        <ele>620.2</ele>
        <time>2025-07-15T10:32:11Z</time>
      </trkpt>
      <trkpt lat="43.99256" lon="6.99565">
        <ele>619.4</ele>
        <time>2025-07-15T10:32:12Z</time>
      </trkpt>
      <trkpt lat="43.99249" lon="6.99575">
        <ele>618.8</ele>
        <time>2025-07-15T10:32:13Z</time>
      </trkpt>
      <trkpt lat="43.9923" lon="6.99607">
        <ele>617.8</ele>
        <time>2025-07-15T10:32:16Z</time>
      </trkpt>
      <trkpt lat="43.99223" lon="6.99632">
        <ele>617.4</ele>
        <time>2025-07-15T10:32:18Z</time>
      </trkpt>
      <trkpt lat="43.99222" lon="6.99646">
        <ele>617</ele>
        <time>2025-07-15T10:32:19Z</time>
      </trkpt>
      <trkpt lat="43.99226" lon="6.997">
        <ele>616</ele>
        <time>2025-07-15T10:32:24Z</time>
      </trkpt>
      <trkpt lat="43.99226" lon="6.99713">
        <ele>615.6</ele>
        <time>2025-07-15T10:32:25Z</time>
      </trkpt>
      <trkpt lat="43.99226" lon="6.99726">
        <ele>615.4</ele>
        <time>2025-07-15T10:32:26Z</time>
      </trkpt>
      <trkpt lat="43.99225" lon="6.9974">
        <ele>614.8</ele>
        <time>2025-07-15T10:32:27Z</time>
      </trkpt>
      <trkpt lat="43.99223" lon="6.99753">
        <ele>614.6</ele>
        <time>2025-07-15T10:32:28Z</time>
      </trkpt>
      <trkpt lat="43.9922" lon="6.99766">
        <ele>614.2</ele>
        <time>2025-07-15T10:32:29Z</time>
      </trkpt>
      <trkpt lat="43.99215" lon="6.99777">
        <ele>614</ele>
        <time>2025-07-15T10:32:30Z</time>
      </trkpt>
      <trkpt lat="43.99209" lon="6.99786">
        <ele>613.6</ele>
        <time>2025-07-15T10:32:31Z</time>
      </trkpt>
      <trkpt lat="43.99201" lon="6.99794">
        <ele>612.8</ele>
        <time>2025-07-15T10:32:32Z</time>
      </trkpt>
      <trkpt lat="43.99183" lon="6.99799">
        <ele>612.4</ele>
        <time>2025-07-15T10:32:34Z</time>
      </trkpt>
      <trkpt lat="43.99163" lon="6.99804">
        <ele>611.2</ele>
        <time>2025-07-15T10:32:36Z</time>
      </trkpt>
      <trkpt lat="43.99144" lon="6.9981">
        <ele>610</ele>
        <time>2025-07-15T10:32:38Z</time>
      </trkpt>
      <trkpt lat="43.99135" lon="6.99813">
        <ele>609.8</ele>
        <time>2025-07-15T10:32:39Z</time>
      </trkpt>
      <trkpt lat="43.99054" lon="6.9982">
        <ele>606.2</ele>
        <time>2025-07-15T10:32:47Z</time>
      </trkpt>
      <trkpt lat="43.99043" lon="6.9982">
        <ele>605.6</ele>
        <time>2025-07-15T10:32:48Z</time>
      </trkpt>
      <trkpt lat="43.99022" lon="6.99823">
        <ele>604.4</ele>
        <time>2025-07-15T10:32:50Z</time>
      </trkpt>
      <trkpt lat="43.99011" lon="6.99828">
        <ele>604</ele>
        <time>2025-07-15T10:32:51Z</time>
      </trkpt>
      <trkpt lat="43.99001" lon="6.99834">
        <ele>603.2</ele>
        <time>2025-07-15T10:32:52Z</time>
      </trkpt>
      <trkpt lat="43.98981" lon="6.99849">
        <ele>601.6</ele>
        <time>2025-07-15T10:32:54Z</time>
      </trkpt>
      <trkpt lat="43.98971" lon="6.99856">
        <ele>601.4</ele>
        <time>2025-07-15T10:32:55Z</time>
      </trkpt>
      <trkpt lat="43.9895" lon="6.99868">
        <ele>600.4</ele>
        <time>2025-07-15T10:32:57Z</time>
      </trkpt>
      <trkpt lat="43.98929" lon="6.99881">
        <ele>599.2</ele>
        <time>2025-07-15T10:32:59Z</time>
      </trkpt>
      <trkpt lat="43.98919" lon="6.99889">
        <ele>598.6</ele>
        <time>2025-07-15T10:33:00Z</time>
      </trkpt>
      <trkpt lat="43.9891" lon="6.99897">
        <ele>597.4</ele>
        <time>2025-07-15T10:33:01Z</time>
      </trkpt>
      <trkpt lat="43.98893" lon="6.99912">
        <ele>596.2</ele>
        <time>2025-07-15T10:33:03Z</time>
      </trkpt>
      <trkpt lat="43.98878" lon="6.99929">
        <ele>595</ele>
        <time>2025-07-15T10:33:05Z</time>
      </trkpt>
      <trkpt lat="43.98864" lon="6.99949">
        <ele>594.2</ele>
        <time>2025-07-15T10:33:07Z</time>
      </trkpt>
      <trkpt lat="43.98858" lon="6.9996">
        <ele>593.6</ele>
        <time>2025-07-15T10:33:08Z</time>
      </trkpt>
      <trkpt lat="43.98852" lon="6.99972">
        <ele>593.2</ele>
        <time>2025-07-15T10:33:09Z</time>
      </trkpt>
      <trkpt lat="43.98846" lon="6.99983">
        <ele>592.4</ele>
        <time>2025-07-15T10:33:10Z</time>
      </trkpt>
      <trkpt lat="43.98829" lon="7.00018">
        <ele>591.2</ele>
        <time>2025-07-15T10:33:13Z</time>
      </trkpt>
      <trkpt lat="43.98824" lon="7.0003">
        <ele>590.6</ele>
        <time>2025-07-15T10:33:14Z</time>
      </trkpt>
      <trkpt lat="43.98813" lon="7.0005">
        <ele>590</ele>
        <time>2025-07-15T10:33:16Z</time>
      </trkpt>
      <trkpt lat="43.98805" lon="7.00056">
        <ele>589.4</ele>
        <time>2025-07-15T10:33:17Z</time>
      </trkpt>
      <trkpt lat="43.98796" lon="7.00059">
        <ele>589</ele>
        <time>2025-07-15T10:33:18Z</time>
      </trkpt>
      <trkpt lat="43.98787" lon="7.0006">
        <ele>588.2</ele>
        <time>2025-07-15T10:33:19Z</time>
      </trkpt>
      <trkpt lat="43.9878" lon="7.00057">
        <ele>588</ele>
        <time>2025-07-15T10:33:20Z</time>
      </trkpt>
      <trkpt lat="43.98772" lon="7.00053">
        <ele>587.6</ele>
        <time>2025-07-15T10:33:21Z</time>
      </trkpt>
      <trkpt lat="43.98763" lon="7.00049">
        <ele>587.2</ele>
        <time>2025-07-15T10:33:22Z</time>
      </trkpt>
      <trkpt lat="43.98747" lon="7.00052">
        <ele>586.2</ele>
        <time>2025-07-15T10:33:24Z</time>
      </trkpt>
      <trkpt lat="43.98738" lon="7.00058">
        <ele>585.4</ele>
        <time>2025-07-15T10:33:25Z</time>
      </trkpt>
      <trkpt lat="43.98714" lon="7.00076">
        <ele>584.2</ele>
        <time>2025-07-15T10:33:28Z</time>
      </trkpt>
      <trkpt lat="43.98696" lon="7.00088">
        <ele>583.6</ele>
        <time>2025-07-15T10:33:30Z</time>
      </trkpt>
      <trkpt lat="43.9868" lon="7.001">
        <ele>583.2</ele>
        <time>2025-07-15T10:33:32Z</time>
      </trkpt>
      <trkpt lat="43.98654" lon="7.00119">
        <ele>581.6</ele>
        <time>2025-07-15T10:33:35Z</time>
      </trkpt>
      <trkpt lat="43.98645" lon="7.00125">
        <ele>581.4</ele>
        <time>2025-07-15T10:33:36Z</time>
      </trkpt>
      <trkpt lat="43.98636" lon="7.00132">
        <ele>581</ele>
        <time>2025-07-15T10:33:37Z</time>
      </trkpt>
      <trkpt lat="43.98617" lon="7.00144">
        <ele>580.2</ele>
        <time>2025-07-15T10:33:39Z</time>
      </trkpt>
      <trkpt lat="43.98581" lon="7.0017">
        <ele>579.2</ele>
        <time>2025-07-15T10:33:43Z</time>
      </trkpt>
      <trkpt lat="43.98572" lon="7.00177">
        <ele>578.8</ele>
        <time>2025-07-15T10:33:44Z</time>
      </trkpt>
      <trkpt lat="43.98537" lon="7.00201">
        <ele>577.6</ele>
        <time>2025-07-15T10:33:48Z</time>
      </trkpt>
      <trkpt lat="43.9852" lon="7.00213">
        <ele>576.6</ele>
        <time>2025-07-15T10:33:50Z</time>
      </trkpt>
      <trkpt lat="43.98502" lon="7.00223">
        <ele>576</ele>
        <time>2025-07-15T10:33:52Z</time>
      </trkpt>
      <trkpt lat="43.98483" lon="7.00232">
        <ele>575.4</ele>
        <time>2025-07-15T10:33:54Z</time>
      </trkpt>
      <trkpt lat="43.98455" lon="7.00245">
        <ele>574</ele>
        <time>2025-07-15T10:33:57Z</time>
      </trkpt>
      <trkpt lat="43.98446" lon="7.00248">
        <ele>573.8</ele>
        <time>2025-07-15T10:33:58Z</time>
      </trkpt>
      <trkpt lat="43.98437" lon="7.0025">
        <ele>573.6</ele>
        <time>2025-07-15T10:33:59Z</time>
      </trkpt>
      <trkpt lat="43.98418" lon="7.00252">
        <ele>573</ele>
        <time>2025-07-15T10:34:01Z</time>
      </trkpt>
      <trkpt lat="43.98391" lon="7.00256">
        <ele>571.8</ele>
        <time>2025-07-15T10:34:04Z</time>
      </trkpt>
      <trkpt lat="43.98382" lon="7.0026">
        <ele>571.6</ele>
        <time>2025-07-15T10:34:05Z</time>
      </trkpt>
      <trkpt lat="43.98337" lon="7.00287">
        <ele>570.4</ele>
        <time>2025-07-15T10:34:10Z</time>
      </trkpt>
      <trkpt lat="43.98328" lon="7.00292">
        <ele>570</ele>
        <time>2025-07-15T10:34:11Z</time>
      </trkpt>
      <trkpt lat="43.98311" lon="7.00302">
        <ele>569.4</ele>
        <time>2025-07-15T10:34:13Z</time>
      </trkpt>
      <trkpt lat="43.98286" lon="7.00316">
        <ele>568.2</ele>
        <time>2025-07-15T10:34:16Z</time>
      </trkpt>
      <trkpt lat="43.98256" lon="7.0033">
        <ele>567.2</ele>
        <time>2025-07-15T10:34:19Z</time>
      </trkpt>
      <trkpt lat="43.98246" lon="7.00333">
        <ele>566.8</ele>
        <time>2025-07-15T10:34:20Z</time>
      </trkpt>
      <trkpt lat="43.98216" lon="7.00337">
        <ele>566</ele>
        <time>2025-07-15T10:34:23Z</time>
      </trkpt>
      <trkpt lat="43.98188" lon="7.0034">
        <ele>565.2</ele>
        <time>2025-07-15T10:34:26Z</time>
      </trkpt>
      <trkpt lat="43.98175" lon="7.00341">
        <ele>564.8</ele>
        <time>2025-07-15T10:34:27Z</time>
      </trkpt>
      <trkpt lat="43.98135" lon="7.00346">
        <ele>563.4</ele>
        <time>2025-07-15T10:34:31Z</time>
      </trkpt>
      <trkpt lat="43.98125" lon="7.00347">
        <ele>563.2</ele>
        <time>2025-07-15T10:34:32Z</time>
      </trkpt>
      <trkpt lat="43.98095" lon="7.00347">
        <ele>562.2</ele>
        <time>2025-07-15T10:34:35Z</time>
      </trkpt>
      <trkpt lat="43.98085" lon="7.00345">
        <ele>561.8</ele>
        <time>2025-07-15T10:34:36Z</time>
      </trkpt>
      <trkpt lat="43.98066" lon="7.00337">
        <ele>561</ele>
        <time>2025-07-15T10:34:38Z</time>
      </trkpt>
      <trkpt lat="43.98037" lon="7.00325">
        <ele>560.2</ele>
        <time>2025-07-15T10:34:41Z</time>
      </trkpt>
      <trkpt lat="43.98027" lon="7.00322">
        <ele>560</ele>
        <time>2025-07-15T10:34:42Z</time>
      </trkpt>
      <trkpt lat="43.97997" lon="7.00318">
        <ele>559.2</ele>
        <time>2025-07-15T10:34:45Z</time>
      </trkpt>
      <trkpt lat="43.97987" lon="7.00319">
        <ele>558.8</ele>
        <time>2025-07-15T10:34:46Z</time>
      </trkpt>
      <trkpt lat="43.97968" lon="7.00326">
        <ele>557.8</ele>
        <time>2025-07-15T10:34:48Z</time>
      </trkpt>
      <trkpt lat="43.9792" lon="7.00347">
        <ele>556.6</ele>
        <time>2025-07-15T10:34:53Z</time>
      </trkpt>
      <trkpt lat="43.9791" lon="7.0035">
        <ele>556.2</ele>
        <time>2025-07-15T10:34:54Z</time>
      </trkpt>
      <trkpt lat="43.9789" lon="7.00349">
        <ele>556</ele>
        <time>2025-07-15T10:34:56Z</time>
      </trkpt>
      <trkpt lat="43.97881" lon="7.00346">
        <ele>555.6</ele>
        <time>2025-07-15T10:34:57Z</time>
      </trkpt>
      <trkpt lat="43.97871" lon="7.00343">
        <ele>555.2</ele>
        <time>2025-07-15T10:34:58Z</time>
      </trkpt>
      <trkpt lat="43.97862" lon="7.00341">
        <ele>555</ele>
        <time>2025-07-15T10:34:59Z</time>
      </trkpt>
      <trkpt lat="43.97843" lon="7.00343">
        <ele>554.2</ele>
        <time>2025-07-15T10:35:01Z</time>
      </trkpt>
      <trkpt lat="43.97816" lon="7.00355">
        <ele>553</ele>
        <time>2025-07-15T10:35:04Z</time>
      </trkpt>
      <trkpt lat="43.97796" lon="7.00363">
        <ele>552.6</ele>
        <time>2025-07-15T10:35:06Z</time>
      </trkpt>
      <trkpt lat="43.97777" lon="7.00367">
        <ele>551.8</ele>
        <time>2025-07-15T10:35:08Z</time>
      </trkpt>
      <trkpt lat="43.97767" lon="7.0037">
        <ele>551.2</ele>
        <time>2025-07-15T10:35:09Z</time>
      </trkpt>
      <trkpt lat="43.97758" lon="7.00374">
        <ele>550.8</ele>
        <time>2025-07-15T10:35:10Z</time>
      </trkpt>
      <trkpt lat="43.97714" lon="7.00403">
        <ele>549.8</ele>
        <time>2025-07-15T10:35:15Z</time>
      </trkpt>
      <trkpt lat="43.97687" lon="7.00425">
        <ele>548.8</ele>
        <time>2025-07-15T10:35:18Z</time>
      </trkpt>
      <trkpt lat="43.97678" lon="7.00434">
        <ele>548.4</ele>
        <time>2025-07-15T10:35:19Z</time>
      </trkpt>
      <trkpt lat="43.97668" lon="7.00442">
        <ele>548</ele>
        <time>2025-07-15T10:35:20Z</time>
      </trkpt>
      <trkpt lat="43.97641" lon="7.00462">
        <ele>546.6</ele>
        <time>2025-07-15T10:35:23Z</time>
      </trkpt>
      <trkpt lat="43.97631" lon="7.00468">
        <ele>546.6</ele>
        <time>2025-07-15T10:35:24Z</time>
      </trkpt>
      <trkpt lat="43.97586" lon="7.00503">
        <ele>545.6</ele>
        <time>2025-07-15T10:35:29Z</time>
      </trkpt>
      <trkpt lat="43.97578" lon="7.00512">
        <ele>545.2</ele>
        <time>2025-07-15T10:35:30Z</time>
      </trkpt>
      <trkpt lat="43.97562" lon="7.00527">
        <ele>544.8</ele>
        <time>2025-07-15T10:35:32Z</time>
      </trkpt>
      <trkpt lat="43.97554" lon="7.00535">
        <ele>544.4</ele>
        <time>2025-07-15T10:35:33Z</time>
      </trkpt>
      <trkpt lat="43.97546" lon="7.00543">
        <ele>544</ele>
        <time>2025-07-15T10:35:34Z</time>
      </trkpt>
      <trkpt lat="43.97529" lon="7.00558">
        <ele>543.6</ele>
        <time>2025-07-15T10:35:36Z</time>
      </trkpt>
      <trkpt lat="43.97511" lon="7.00567">
        <ele>542.6</ele>
        <time>2025-07-15T10:35:38Z</time>
      </trkpt>
      <trkpt lat="43.975" lon="7.0057">
        <ele>542</ele>
        <time>2025-07-15T10:35:39Z</time>
      </trkpt>
      <trkpt lat="43.97491" lon="7.00573">
        <ele>541.4</ele>
        <time>2025-07-15T10:35:40Z</time>
      </trkpt>
      <trkpt lat="43.97471" lon="7.00578">
        <ele>540.6</ele>
        <time>2025-07-15T10:35:42Z</time>
      </trkpt>
      <trkpt lat="43.97461" lon="7.00579">
        <ele>540.2</ele>
        <time>2025-07-15T10:35:43Z</time>
      </trkpt>
      <trkpt lat="43.9743" lon="7.00582">
        <ele>539</ele>
        <time>2025-07-15T10:35:46Z</time>
      </trkpt>
      <trkpt lat="43.97409" lon="7.00589">
        <ele>537.8</ele>
        <time>2025-07-15T10:35:48Z</time>
      </trkpt>
      <trkpt lat="43.9739" lon="7.00599">
        <ele>536</ele>
        <time>2025-07-15T10:35:50Z</time>
      </trkpt>
      <trkpt lat="43.9738" lon="7.00603">
        <ele>535.6</ele>
        <time>2025-07-15T10:35:51Z</time>
      </trkpt>
      <trkpt lat="43.9737" lon="7.00607">
        <ele>534.8</ele>
        <time>2025-07-15T10:35:52Z</time>
      </trkpt>
      <trkpt lat="43.97352" lon="7.00619">
        <ele>534</ele>
        <time>2025-07-15T10:35:54Z</time>
      </trkpt>
      <trkpt lat="43.97333" lon="7.00639">
        <ele>533.2</ele>
        <time>2025-07-15T10:35:56Z</time>
      </trkpt>
      <trkpt lat="43.97327" lon="7.00647">
        <ele>532.8</ele>
        <time>2025-07-15T10:35:57Z</time>
      </trkpt>
      <trkpt lat="43.97319" lon="7.00656">
        <ele>532.8</ele>
        <time>2025-07-15T10:35:58Z</time>
      </trkpt>
      <trkpt lat="43.97299" lon="7.00672">
        <ele>531.8</ele>
        <time>2025-07-15T10:36:00Z</time>
      </trkpt>
      <trkpt lat="43.97292" lon="7.00678">
        <ele>531.2</ele>
        <time>2025-07-15T10:36:01Z</time>
      </trkpt>
      <trkpt lat="43.97278" lon="7.00699">
        <ele>530</ele>
        <time>2025-07-15T10:36:03Z</time>
      </trkpt>
      <trkpt lat="43.97262" lon="7.00737">
        <ele>528.8</ele>
        <time>2025-07-15T10:36:06Z</time>
      </trkpt>
      <trkpt lat="43.97256" lon="7.00749">
        <ele>528.4</ele>
        <time>2025-07-15T10:36:07Z</time>
      </trkpt>
      <trkpt lat="43.97248" lon="7.00758">
        <ele>528.2</ele>
        <time>2025-07-15T10:36:08Z</time>
      </trkpt>
      <trkpt lat="43.9723" lon="7.00774">
        <ele>527.2</ele>
        <time>2025-07-15T10:36:10Z</time>
      </trkpt>
      <trkpt lat="43.97223" lon="7.00784">
        <ele>527</ele>
        <time>2025-07-15T10:36:11Z</time>
      </trkpt>
      <trkpt lat="43.97217" lon="7.00796">
        <ele>526.6</ele>
        <time>2025-07-15T10:36:12Z</time>
      </trkpt>
      <trkpt lat="43.97211" lon="7.00807">
        <ele>526.2</ele>
        <time>2025-07-15T10:36:13Z</time>
      </trkpt>
      <trkpt lat="43.97189" lon="7.00852">
        <ele>525</ele>
        <time>2025-07-15T10:36:17Z</time>
      </trkpt>
      <trkpt lat="43.97175" lon="7.00854">
        <ele>524.8</ele>
        <time>2025-07-15T10:36:18Z</time>
      </trkpt>
      <trkpt lat="43.97159" lon="7.00869">
        <ele>524.4</ele>
        <time>2025-07-15T10:36:20Z</time>
      </trkpt>
      <trkpt lat="43.97154" lon="7.00873">
        <ele>524.4</ele>
        <time>2025-07-15T10:36:21Z</time>
      </trkpt>
      <trkpt lat="43.97141" lon="7.00884">
        <ele>523.8</ele>
        <time>2025-07-15T10:36:23Z</time>
      </trkpt>
      <trkpt lat="43.97135" lon="7.00889">
        <ele>523.8</ele>
        <time>2025-07-15T10:36:24Z</time>
      </trkpt>
      <trkpt lat="43.97115" lon="7.00902">
        <ele>523</ele>
        <time>2025-07-15T10:36:27Z</time>
      </trkpt>
      <trkpt lat="43.97095" lon="7.00916">
        <ele>521.8</ele>
        <time>2025-07-15T10:36:30Z</time>
      </trkpt>
      <trkpt lat="43.97075" lon="7.00933">
        <ele>520.8</ele>
        <time>2025-07-15T10:36:33Z</time>
      </trkpt>
      <trkpt lat="43.97068" lon="7.00937">
        <ele>520.8</ele>
        <time>2025-07-15T10:36:34Z</time>
      </trkpt>
      <trkpt lat="43.9705" lon="7.00951">
        <ele>520.4</ele>
        <time>2025-07-15T10:36:37Z</time>
      </trkpt>
      <trkpt lat="43.97035" lon="7.00958">
        <ele>520</ele>
        <time>2025-07-15T10:36:39Z</time>
      </trkpt>
      <trkpt lat="43.9701" lon="7.00964">
        <ele>519.6</ele>
        <time>2025-07-15T10:36:42Z</time>
      </trkpt>
      <trkpt lat="43.96959" lon="7.00978">
        <ele>518.2</ele>
        <time>2025-07-15T10:36:48Z</time>
      </trkpt>
      <trkpt lat="43.96951" lon="7.0098">
        <ele>517.8</ele>
        <time>2025-07-15T10:36:49Z</time>
      </trkpt>
      <trkpt lat="43.96926" lon="7.00988">
        <ele>516.8</ele>
        <time>2025-07-15T10:36:52Z</time>
      </trkpt>
      <trkpt lat="43.96918" lon="7.00993">
        <ele>516.2</ele>
        <time>2025-07-15T10:36:53Z</time>
      </trkpt>
      <trkpt lat="43.96899" lon="7.01">
        <ele>515.2</ele>
        <time>2025-07-15T10:36:55Z</time>
      </trkpt>
      <trkpt lat="43.96892" lon="7.01003">
        <ele>515.2</ele>
        <time>2025-07-15T10:36:56Z</time>
      </trkpt>
      <trkpt lat="43.96868" lon="7.01014">
        <ele>514.6</ele>
        <time>2025-07-15T10:36:59Z</time>
      </trkpt>
      <trkpt lat="43.96849" lon="7.01013">
        <ele>514.4</ele>
        <time>2025-07-15T10:37:01Z</time>
      </trkpt>
      <trkpt lat="43.96841" lon="7.01011">
        <ele>514.2</ele>
        <time>2025-07-15T10:37:02Z</time>
      </trkpt>
      <trkpt lat="43.96816" lon="7.01">
        <ele>513</ele>
        <time>2025-07-15T10:37:05Z</time>
      </trkpt>
      <trkpt lat="43.96798" lon="7.0099">
        <ele>511.8</ele>
        <time>2025-07-15T10:37:07Z</time>
      </trkpt>
      <trkpt lat="43.96781" lon="7.0098">
        <ele>510.2</ele>
        <time>2025-07-15T10:37:09Z</time>
      </trkpt>
      <trkpt lat="43.96762" lon="7.00969">
        <ele>509</ele>
        <time>2025-07-15T10:37:11Z</time>
      </trkpt>
      <trkpt lat="43.96736" lon="7.00952">
        <ele>507.6</ele>
        <time>2025-07-15T10:37:14Z</time>
      </trkpt>
      <trkpt lat="43.9671" lon="7.00935">
        <ele>506.4</ele>
        <time>2025-07-15T10:37:17Z</time>
      </trkpt>
      <trkpt lat="43.96685" lon="7.00918">
        <ele>505.8</ele>
        <time>2025-07-15T10:37:20Z</time>
      </trkpt>
      <trkpt lat="43.96671" lon="7.00901">
        <ele>505.4</ele>
        <time>2025-07-15T10:37:22Z</time>
      </trkpt>
      <trkpt lat="43.96666" lon="7.0089">
        <ele>505</ele>
        <time>2025-07-15T10:37:23Z</time>
      </trkpt>
      <trkpt lat="43.96648" lon="7.00834">
        <ele>504.2</ele>
        <time>2025-07-15T10:37:28Z</time>
      </trkpt>
      <trkpt lat="43.96645" lon="7.00823">
        <ele>504.2</ele>
        <time>2025-07-15T10:37:29Z</time>
      </trkpt>
      <trkpt lat="43.96641" lon="7.00798">
        <ele>504</ele>
        <time>2025-07-15T10:37:31Z</time>
      </trkpt>
      <trkpt lat="43.9664" lon="7.00786">
        <ele>503.8</ele>
        <time>2025-07-15T10:37:32Z</time>
      </trkpt>
      <trkpt lat="43.9664" lon="7.00774">
        <ele>503.4</ele>
        <time>2025-07-15T10:37:33Z</time>
      </trkpt>
      <trkpt lat="43.9664" lon="7.00734">
        <ele>502.6</ele>
        <time>2025-07-15T10:37:36Z</time>
      </trkpt>
      <trkpt lat="43.96641" lon="7.00722">
        <ele>502.4</ele>
        <time>2025-07-15T10:37:37Z</time>
      </trkpt>
      <trkpt lat="43.96642" lon="7.00698">
        <ele>502</ele>
        <time>2025-07-15T10:37:39Z</time>
      </trkpt>
      <trkpt lat="43.96645" lon="7.00665">
        <ele>501.8</ele>
        <time>2025-07-15T10:37:42Z</time>
      </trkpt>
      <trkpt lat="43.96647" lon="7.00643">
        <ele>501.8</ele>
        <time>2025-07-15T10:37:44Z</time>
      </trkpt>
      <trkpt lat="43.96648" lon="7.00632">
        <ele>501.8</ele>
        <time>2025-07-15T10:37:45Z</time>
      </trkpt>
      <trkpt lat="43.96647" lon="7.00622">
        <ele>501.6</ele>
        <time>2025-07-15T10:37:46Z</time>
      </trkpt>
      <trkpt lat="43.96642" lon="7.00605">
        <ele>501.6</ele>
        <time>2025-07-15T10:37:48Z</time>
      </trkpt>
      <trkpt lat="43.96639" lon="7.00596">
        <ele>501.6</ele>
        <time>2025-07-15T10:37:49Z</time>
      </trkpt>
      <trkpt lat="43.96634" lon="7.00588">
        <ele>501.6</ele>
        <time>2025-07-15T10:37:50Z</time>
      </trkpt>
      <trkpt lat="43.96622" lon="7.00574">
        <ele>501.6</ele>
        <time>2025-07-15T10:37:52Z</time>
      </trkpt>
      <trkpt lat="43.96617" lon="7.00566">
        <ele>501.6</ele>
        <time>2025-07-15T10:37:53Z</time>
      </trkpt>
      <trkpt lat="43.96612" lon="7.00558">
        <ele>501.6</ele>
        <time>2025-07-15T10:37:54Z</time>
      </trkpt>
      <trkpt lat="43.96605" lon="7.00541">
        <ele>501.6</ele>
        <time>2025-07-15T10:37:56Z</time>
      </trkpt>
      <trkpt lat="43.96603" lon="7.00531">
        <ele>501.6</ele>
        <time>2025-07-15T10:37:57Z</time>
      </trkpt>
      <trkpt lat="43.96594" lon="7.00482">
        <ele>501.4</ele>
        <time>2025-07-15T10:38:02Z</time>
      </trkpt>
      <trkpt lat="43.96589" lon="7.00462">
        <ele>501.6</ele>
        <time>2025-07-15T10:38:04Z</time>
      </trkpt>
      <trkpt lat="43.96587" lon="7.00454">
        <ele>501.4</ele>
        <time>2025-07-15T10:38:05Z</time>
      </trkpt>
      <trkpt lat="43.96584" lon="7.00446">
        <ele>501.4</ele>
        <time>2025-07-15T10:38:06Z</time>
      </trkpt>
      <trkpt lat="43.96576" lon="7.0043">
        <ele>501.2</ele>
        <time>2025-07-15T10:38:08Z</time>
      </trkpt>
      <trkpt lat="43.96553" lon="7.00393">
        <ele>501</ele>
        <time>2025-07-15T10:38:13Z</time>
      </trkpt>
      <trkpt lat="43.96548" lon="7.00385">
        <ele>501</ele>
        <time>2025-07-15T10:38:14Z</time>
      </trkpt>
      <trkpt lat="43.9651" lon="7.00326">
        <ele>500.8</ele>
        <time>2025-07-15T10:38:21Z</time>
      </trkpt>
      <trkpt lat="43.96486" lon="7.00298">
        <ele>500.6</ele>
        <time>2025-07-15T10:38:25Z</time>
      </trkpt>
      <trkpt lat="43.96456" lon="7.00281">
        <ele>500.2</ele>
        <time>2025-07-15T10:38:29Z</time>
      </trkpt>
      <trkpt lat="43.96406" lon="7.00262">
        <ele>499</ele>
        <time>2025-07-15T10:38:35Z</time>
      </trkpt>
      <trkpt lat="43.96364" lon="7.00235">
        <ele>498.4</ele>
        <time>2025-07-15T10:38:40Z</time>
      </trkpt>
      <trkpt lat="43.9634" lon="7.0021">
        <ele>497.6</ele>
        <time>2025-07-15T10:38:43Z</time>
      </trkpt>
      <trkpt lat="43.96332" lon="7.00201">
        <ele>496.8</ele>
        <time>2025-07-15T10:38:44Z</time>
      </trkpt>
      <trkpt lat="43.96325" lon="7.00191">
        <ele>496.6</ele>
        <time>2025-07-15T10:38:45Z</time>
      </trkpt>
      <trkpt lat="43.96276" lon="7.00136">
        <ele>495.2</ele>
        <time>2025-07-15T10:38:51Z</time>
      </trkpt>
      <trkpt lat="43.96262" lon="7.00112">
        <ele>493.8</ele>
        <time>2025-07-15T10:38:53Z</time>
      </trkpt>
      <trkpt lat="43.96253" lon="7.00086">
        <ele>492.2</ele>
        <time>2025-07-15T10:38:55Z</time>
      </trkpt>
      <trkpt lat="43.96245" lon="7.00058">
        <ele>491</ele>
        <time>2025-07-15T10:38:57Z</time>
      </trkpt>
      <trkpt lat="43.96237" lon="7.0003">
        <ele>489.4</ele>
        <time>2025-07-15T10:38:59Z</time>
      </trkpt>
      <trkpt lat="43.96225" lon="7.00001">
        <ele>488.2</ele>
        <time>2025-07-15T10:39:01Z</time>
      </trkpt>
      <trkpt lat="43.96217" lon="6.99972">
        <ele>486.8</ele>
        <time>2025-07-15T10:39:03Z</time>
      </trkpt>
      <trkpt lat="43.96208" lon="6.99946">
        <ele>485.6</ele>
        <time>2025-07-15T10:39:05Z</time>
      </trkpt>
      <trkpt lat="43.96199" lon="6.9992">
        <ele>483.4</ele>
        <time>2025-07-15T10:39:07Z</time>
      </trkpt>
      <trkpt lat="43.96183" lon="6.99882">
        <ele>482.2</ele>
        <time>2025-07-15T10:39:10Z</time>
      </trkpt>
      <trkpt lat="43.96175" lon="6.99872">
        <ele>480.8</ele>
        <time>2025-07-15T10:39:11Z</time>
      </trkpt>
      <trkpt lat="43.9616" lon="6.99853">
        <ele>478.8</ele>
        <time>2025-07-15T10:39:13Z</time>
      </trkpt>
      <trkpt lat="43.96151" lon="6.99845">
        <ele>478</ele>
        <time>2025-07-15T10:39:14Z</time>
      </trkpt>
      <trkpt lat="43.96143" lon="6.99838">
        <ele>477.2</ele>
        <time>2025-07-15T10:39:15Z</time>
      </trkpt>
      <trkpt lat="43.96097" lon="6.99815">
        <ele>475.6</ele>
        <time>2025-07-15T10:39:20Z</time>
      </trkpt>
      <trkpt lat="43.96062" lon="6.99798">
        <ele>474.2</ele>
        <time>2025-07-15T10:39:24Z</time>
      </trkpt>
      <trkpt lat="43.96046" lon="6.99792">
        <ele>473.2</ele>
        <time>2025-07-15T10:39:26Z</time>
      </trkpt>
      <trkpt lat="43.96038" lon="6.9979">
        <ele>472.8</ele>
        <time>2025-07-15T10:39:27Z</time>
      </trkpt>
      <trkpt lat="43.96008" lon="6.99785">
        <ele>472</ele>
        <time>2025-07-15T10:39:31Z</time>
      </trkpt>
      <trkpt lat="43.95994" lon="6.99776">
        <ele>471.8</ele>
        <time>2025-07-15T10:39:33Z</time>
      </trkpt>
      <trkpt lat="43.95989" lon="6.99768">
        <ele>471.8</ele>
        <time>2025-07-15T10:39:34Z</time>
      </trkpt>
      <trkpt lat="43.95985" lon="6.9976">
        <ele>471.8</ele>
        <time>2025-07-15T10:39:35Z</time>
      </trkpt>
      <trkpt lat="43.95975" lon="6.99733">
        <ele>471.6</ele>
        <time>2025-07-15T10:39:38Z</time>
      </trkpt>
      <trkpt lat="43.95958" lon="6.99688">
        <ele>471.8</ele>
        <time>2025-07-15T10:39:43Z</time>
      </trkpt>
      <trkpt lat="43.95955" lon="6.99681">
        <ele>472</ele>
        <time>2025-07-15T10:39:44Z</time>
      </trkpt>
      <trkpt lat="43.9595" lon="6.99663">
        <ele>472</ele>
        <time>2025-07-15T10:39:46Z</time>
      </trkpt>
      <trkpt lat="43.95948" lon="6.99653">
        <ele>472.2</ele>
        <time>2025-07-15T10:39:47Z</time>
      </trkpt>
      <trkpt lat="43.95933" lon="6.99594">
        <ele>472.2</ele>
        <time>2025-07-15T10:39:54Z</time>
      </trkpt>
      <trkpt lat="43.9592" lon="6.99562">
        <ele>472.2</ele>
        <time>2025-07-15T10:39:58Z</time>
      </trkpt>
      <trkpt lat="43.95919" lon="6.99544">
        <ele>472.2</ele>
        <time>2025-07-15T10:40:00Z</time>
      </trkpt>
      <trkpt lat="43.95919" lon="6.99479">
        <ele>472</ele>
        <time>2025-07-15T10:40:07Z</time>
      </trkpt>
      <trkpt lat="43.95917" lon="6.9947">
        <ele>471.8</ele>
        <time>2025-07-15T10:40:08Z</time>
      </trkpt>
      <trkpt lat="43.95908" lon="6.99431">
        <ele>471.6</ele>
        <time>2025-07-15T10:40:12Z</time>
      </trkpt>
      <trkpt lat="43.95905" lon="6.99421">
        <ele>471.4</ele>
        <time>2025-07-15T10:40:13Z</time>
      </trkpt>
      <trkpt lat="43.95901" lon="6.99412">
        <ele>471.2</ele>
        <time>2025-07-15T10:40:14Z</time>
      </trkpt>
      <trkpt lat="43.95889" lon="6.99395">
        <ele>470.8</ele>
        <time>2025-07-15T10:40:16Z</time>
      </trkpt>
      <trkpt lat="43.95853" lon="6.99355">
        <ele>470.2</ele>
        <time>2025-07-15T10:40:21Z</time>
      </trkpt>
      <trkpt lat="43.95808" lon="6.99309">
        <ele>470.2</ele>
        <time>2025-07-15T10:40:27Z</time>
      </trkpt>
      <trkpt lat="43.95775" lon="6.99278">
        <ele>470.6</ele>
        <time>2025-07-15T10:40:32Z</time>
      </trkpt>
      <trkpt lat="43.9577" lon="6.99272">
        <ele>470.6</ele>
        <time>2025-07-15T10:40:33Z</time>
      </trkpt>
      <trkpt lat="43.95739" lon="6.99237">
        <ele>470.8</ele>
        <time>2025-07-15T10:40:39Z</time>
      </trkpt>
      <trkpt lat="43.95715" lon="6.99202">
        <ele>471.2</ele>
        <time>2025-07-15T10:40:45Z</time>
      </trkpt>
      <trkpt lat="43.95687" lon="6.99162">
        <ele>471.8</ele>
        <time>2025-07-15T10:40:53Z</time>
      </trkpt>
      <trkpt lat="43.95676" lon="6.99147">
        <ele>472</ele>
        <time>2025-07-15T10:40:56Z</time>
      </trkpt>
      <trkpt lat="43.95668" lon="6.99138">
        <ele>472.2</ele>
        <time>2025-07-15T10:40:58Z</time>
      </trkpt>
      <trkpt lat="43.95642" lon="6.99119">
        <ele>472.6</ele>
        <time>2025-07-15T10:41:04Z</time>
      </trkpt>
      <trkpt lat="43.95618" lon="6.99109">
        <ele>474</ele>
        <time>2025-07-15T10:41:09Z</time>
      </trkpt>
      <trkpt lat="43.95608" lon="6.99105">
        <ele>474.4</ele>
        <time>2025-07-15T10:41:11Z</time>
      </trkpt>
      <trkpt lat="43.95581" lon="6.99092">
        <ele>474.6</ele>
        <time>2025-07-15T10:41:16Z</time>
      </trkpt>
      <trkpt lat="43.95557" lon="6.9908">
        <ele>474.2</ele>
        <time>2025-07-15T10:41:20Z</time>
      </trkpt>
      <trkpt lat="43.95545" lon="6.99074">
        <ele>473.6</ele>
        <time>2025-07-15T10:41:22Z</time>
      </trkpt>
      <trkpt lat="43.95519" lon="6.99062">
        <ele>472.8</ele>
        <time>2025-07-15T10:41:26Z</time>
      </trkpt>
      <trkpt lat="43.95507" lon="6.99056">
        <ele>472.4</ele>
        <time>2025-07-15T10:41:28Z</time>
      </trkpt>
      <trkpt lat="43.95492" lon="6.99049">
        <ele>472</ele>
        <time>2025-07-15T10:41:30Z</time>
      </trkpt>
      <trkpt lat="43.95475" lon="6.99047">
        <ele>471.8</ele>
        <time>2025-07-15T10:41:32Z</time>
      </trkpt>
      <trkpt lat="43.95449" lon="6.99048">
        <ele>470.8</ele>
        <time>2025-07-15T10:41:35Z</time>
      </trkpt>
      <trkpt lat="43.95432" lon="6.99051">
        <ele>470.4</ele>
        <time>2025-07-15T10:41:37Z</time>
      </trkpt>
      <trkpt lat="43.95421" lon="6.99052">
        <ele>469.6</ele>
        <time>2025-07-15T10:41:38Z</time>
      </trkpt>
      <trkpt lat="43.95384" lon="6.99055">
        <ele>468.6</ele>
        <time>2025-07-15T10:41:42Z</time>
      </trkpt>
      <trkpt lat="43.95376" lon="6.99055">
        <ele>468.4</ele>
        <time>2025-07-15T10:41:43Z</time>
      </trkpt>
      <trkpt lat="43.95365" lon="6.99057">
        <ele>468</ele>
        <time>2025-07-15T10:41:44Z</time>
      </trkpt>
      <trkpt lat="43.95346" lon="6.99062">
        <ele>467.4</ele>
        <time>2025-07-15T10:41:46Z</time>
      </trkpt>
      <trkpt lat="43.95337" lon="6.99065">
        <ele>467.2</ele>
        <time>2025-07-15T10:41:47Z</time>
      </trkpt>
      <trkpt lat="43.95306" lon="6.99072">
        <ele>466</ele>
        <time>2025-07-15T10:41:50Z</time>
      </trkpt>
      <trkpt lat="43.95295" lon="6.99073">
        <ele>465.2</ele>
        <time>2025-07-15T10:41:51Z</time>
      </trkpt>
      <trkpt lat="43.95284" lon="6.99072">
        <ele>464</ele>
        <time>2025-07-15T10:41:52Z</time>
      </trkpt>
      <trkpt lat="43.95262" lon="6.99066">
        <ele>463</ele>
        <time>2025-07-15T10:41:54Z</time>
      </trkpt>
      <trkpt lat="43.9524" lon="6.99058">
        <ele>461.4</ele>
        <time>2025-07-15T10:41:56Z</time>
      </trkpt>
      <trkpt lat="43.95228" lon="6.99055">
        <ele>461</ele>
        <time>2025-07-15T10:41:57Z</time>
      </trkpt>
      <trkpt lat="43.95217" lon="6.99051">
        <ele>460.4</ele>
        <time>2025-07-15T10:41:58Z</time>
      </trkpt>
      <trkpt lat="43.95196" lon="6.99041">
        <ele>459.2</ele>
        <time>2025-07-15T10:42:00Z</time>
      </trkpt>
      <trkpt lat="43.95177" lon="6.9903">
        <ele>458.8</ele>
        <time>2025-07-15T10:42:02Z</time>
      </trkpt>
      <trkpt lat="43.95167" lon="6.99024">
        <ele>458.4</ele>
        <time>2025-07-15T10:42:03Z</time>
      </trkpt>
      <trkpt lat="43.9514" lon="6.99">
        <ele>457.6</ele>
        <time>2025-07-15T10:42:06Z</time>
      </trkpt>
      <trkpt lat="43.95132" lon="6.98992">
        <ele>457.2</ele>
        <time>2025-07-15T10:42:07Z</time>
      </trkpt>
      <trkpt lat="43.95106" lon="6.98965">
        <ele>456.6</ele>
        <time>2025-07-15T10:42:10Z</time>
      </trkpt>
      <trkpt lat="43.95096" lon="6.98957">
        <ele>456.6</ele>
        <time>2025-07-15T10:42:11Z</time>
      </trkpt>
      <trkpt lat="43.95065" lon="6.98935">
        <ele>456.4</ele>
        <time>2025-07-15T10:42:14Z</time>
      </trkpt>
      <trkpt lat="43.95056" lon="6.98927">
        <ele>456.4</ele>
        <time>2025-07-15T10:42:15Z</time>
      </trkpt>
      <trkpt lat="43.95029" lon="6.98902">
        <ele>455.2</ele>
        <time>2025-07-15T10:42:18Z</time>
      </trkpt>
      <trkpt lat="43.9502" lon="6.98896">
        <ele>454.6</ele>
        <time>2025-07-15T10:42:19Z</time>
      </trkpt>
      <trkpt lat="43.95012" lon="6.9889">
        <ele>454.2</ele>
        <time>2025-07-15T10:42:20Z</time>
      </trkpt>
      <trkpt lat="43.95004" lon="6.98886">
        <ele>453.4</ele>
        <time>2025-07-15T10:42:21Z</time>
      </trkpt>
      <trkpt lat="43.94997" lon="6.98882">
        <ele>452.8</ele>
        <time>2025-07-15T10:42:22Z</time>
      </trkpt>
      <trkpt lat="43.94989" lon="6.9888">
        <ele>451.8</ele>
        <time>2025-07-15T10:42:23Z</time>
      </trkpt>
      <trkpt lat="43.94984" lon="6.98877">
        <ele>451.4</ele>
        <time>2025-07-15T10:42:24Z</time>
      </trkpt>
      <trkpt lat="43.94979" lon="6.98873">
        <ele>450.4</ele>
        <time>2025-07-15T10:42:25Z</time>
      </trkpt>
      <trkpt lat="43.94975" lon="6.98867">
        <ele>449.6</ele>
        <time>2025-07-15T10:42:26Z</time>
      </trkpt>
      <trkpt lat="43.94972" lon="6.98859">
        <ele>449.2</ele>
        <time>2025-07-15T10:42:27Z</time>
      </trkpt>
      <trkpt lat="43.94971" lon="6.98852">
        <ele>449</ele>
        <time>2025-07-15T10:42:28Z</time>
      </trkpt>
      <trkpt lat="43.9497" lon="6.98843">
        <ele>448.8</ele>
        <time>2025-07-15T10:42:29Z</time>
      </trkpt>
      <trkpt lat="43.94971" lon="6.98834">
        <ele>448.2</ele>
        <time>2025-07-15T10:42:30Z</time>
      </trkpt>
      <trkpt lat="43.94973" lon="6.98816">
        <ele>447.4</ele>
        <time>2025-07-15T10:42:32Z</time>
      </trkpt>
      <trkpt lat="43.94975" lon="6.98807">
        <ele>447.2</ele>
        <time>2025-07-15T10:42:33Z</time>
      </trkpt>
      <trkpt lat="43.94977" lon="6.98798">
        <ele>447</ele>
        <time>2025-07-15T10:42:34Z</time>
      </trkpt>
      <trkpt lat="43.94984" lon="6.98773">
        <ele>446.2</ele>
        <time>2025-07-15T10:42:37Z</time>
      </trkpt>
      <trkpt lat="43.94987" lon="6.98765">
        <ele>446</ele>
        <time>2025-07-15T10:42:38Z</time>
      </trkpt>
      <trkpt lat="43.94993" lon="6.9875">
        <ele>445.8</ele>
        <time>2025-07-15T10:42:40Z</time>
      </trkpt>
      <trkpt lat="43.94996" lon="6.98742">
        <ele>445.6</ele>
        <time>2025-07-15T10:42:41Z</time>
      </trkpt>
      <trkpt lat="43.95008" lon="6.987">
        <ele>445.2</ele>
        <time>2025-07-15T10:42:46Z</time>
      </trkpt>
      <trkpt lat="43.95016" lon="6.98628">
        <ele>445.6</ele>
        <time>2025-07-15T10:42:54Z</time>
      </trkpt>
      <trkpt lat="43.95016" lon="6.98562">
        <ele>445.8</ele>
        <time>2025-07-15T10:43:01Z</time>
      </trkpt>
      <trkpt lat="43.95015" lon="6.98512">
        <ele>446</ele>
        <time>2025-07-15T10:43:06Z</time>
      </trkpt>
      <trkpt lat="43.95017" lon="6.98455">
        <ele>446.2</ele>
        <time>2025-07-15T10:43:12Z</time>
      </trkpt>
      <trkpt lat="43.95018" lon="6.98435">
        <ele>446.4</ele>
        <time>2025-07-15T10:43:14Z</time>
      </trkpt>
      <trkpt lat="43.95019" lon="6.98416">
        <ele>446.4</ele>
        <time>2025-07-15T10:43:16Z</time>
      </trkpt>
      <trkpt lat="43.95019" lon="6.98407">
        <ele>446.4</ele>
        <time>2025-07-15T10:43:17Z</time>
      </trkpt>
      <trkpt lat="43.95018" lon="6.98341">
        <ele>446.8</ele>
        <time>2025-07-15T10:43:24Z</time>
      </trkpt>
      <trkpt lat="43.95014" lon="6.98276">
        <ele>446.8</ele>
        <time>2025-07-15T10:43:31Z</time>
      </trkpt>
      <trkpt lat="43.95011" lon="6.98248">
        <ele>447</ele>
        <time>2025-07-15T10:43:34Z</time>
      </trkpt>
      <trkpt lat="43.95003" lon="6.98212">
        <ele>447</ele>
        <time>2025-07-15T10:43:38Z</time>
      </trkpt>
      <trkpt lat="43.94987" lon="6.98154">
        <ele>446.8</ele>
        <time>2025-07-15T10:43:45Z</time>
      </trkpt>
      <trkpt lat="43.94959" lon="6.98082">
        <ele>446.8</ele>
        <time>2025-07-15T10:43:54Z</time>
      </trkpt>
      <trkpt lat="43.94933" lon="6.98008">
        <ele>447.6</ele>
        <time>2025-07-15T10:44:03Z</time>
      </trkpt>
      <trkpt lat="43.94923" lon="6.97968">
        <ele>448.4</ele>
        <time>2025-07-15T10:44:08Z</time>
      </trkpt>
      <trkpt lat="43.9492" lon="6.97961">
        <ele>448.6</ele>
        <time>2025-07-15T10:44:09Z</time>
      </trkpt>
      <trkpt lat="43.94906" lon="6.97908">
        <ele>449.6</ele>
        <time>2025-07-15T10:44:16Z</time>
      </trkpt>
      <trkpt lat="43.94902" lon="6.97893">
        <ele>449.8</ele>
        <time>2025-07-15T10:44:18Z</time>
      </trkpt>
      <trkpt lat="43.94888" lon="6.97826">
        <ele>451</ele>
        <time>2025-07-15T10:44:27Z</time>
      </trkpt>
      <trkpt lat="43.94883" lon="6.97796">
        <ele>451</ele>
        <time>2025-07-15T10:44:31Z</time>
      </trkpt>
      <trkpt lat="43.94877" lon="6.97759">
        <ele>451</ele>
        <time>2025-07-15T10:44:36Z</time>
      </trkpt>
      <trkpt lat="43.94876" lon="6.97744">
        <ele>451.2</ele>
        <time>2025-07-15T10:44:38Z</time>
      </trkpt>
      <trkpt lat="43.9487" lon="6.97697">
        <ele>451.2</ele>
        <time>2025-07-15T10:44:44Z</time>
      </trkpt>
      <trkpt lat="43.94864" lon="6.97627">
        <ele>451.4</ele>
        <time>2025-07-15T10:44:53Z</time>
      </trkpt>
      <trkpt lat="43.94858" lon="6.97549">
        <ele>451.8</ele>
        <time>2025-07-15T10:45:03Z</time>
      </trkpt>
      <trkpt lat="43.94852" lon="6.97469">
        <ele>452</ele>
        <time>2025-07-15T10:45:13Z</time>
      </trkpt>
      <trkpt lat="43.94845" lon="6.97414">
        <ele>452</ele>
        <time>2025-07-15T10:45:20Z</time>
      </trkpt>
      <trkpt lat="43.94837" lon="6.97358">
        <ele>452.6</ele>
        <time>2025-07-15T10:45:27Z</time>
      </trkpt>
      <trkpt lat="43.94834" lon="6.97278">
        <ele>453</ele>
        <time>2025-07-15T10:45:37Z</time>
      </trkpt>
      <trkpt lat="43.94834" lon="6.97208">
        <ele>453.2</ele>
        <time>2025-07-15T10:45:46Z</time>
      </trkpt>
      <trkpt lat="43.94832" lon="6.97144">
        <ele>453.6</ele>
        <time>2025-07-15T10:45:54Z</time>
      </trkpt>
      <trkpt lat="43.94829" lon="6.97066">
        <ele>453.2</ele>
        <time>2025-07-15T10:46:04Z</time>
      </trkpt>
      <trkpt lat="43.94828" lon="6.96997">
        <ele>453.4</ele>
        <time>2025-07-15T10:46:13Z</time>
      </trkpt>
      <trkpt lat="43.94826" lon="6.96929">
        <ele>454</ele>
        <time>2025-07-15T10:46:22Z</time>
      </trkpt>
      <trkpt lat="43.94823" lon="6.96854">
        <ele>454.4</ele>
        <time>2025-07-15T10:46:32Z</time>
      </trkpt>
      <trkpt lat="43.94823" lon="6.96847">
        <ele>454.4</ele>
        <time>2025-07-15T10:46:33Z</time>
      </trkpt>
      <trkpt lat="43.94822" lon="6.96801">
        <ele>454.4</ele>
        <time>2025-07-15T10:46:39Z</time>
      </trkpt>
      <trkpt lat="43.94822" lon="6.96771">
        <ele>454.8</ele>
        <time>2025-07-15T10:46:43Z</time>
      </trkpt>
      <trkpt lat="43.94819" lon="6.9671">
        <ele>455.2</ele>
        <time>2025-07-15T10:46:51Z</time>
      </trkpt>
      <trkpt lat="43.94816" lon="6.96635">
        <ele>455.8</ele>
        <time>2025-07-15T10:47:01Z</time>
      </trkpt>
      <trkpt lat="43.94814" lon="6.9656">
        <ele>456</ele>
        <time>2025-07-15T10:47:11Z</time>
      </trkpt>
      <trkpt lat="43.94814" lon="6.96552">
        <ele>456.4</ele>
        <time>2025-07-15T10:47:12Z</time>
      </trkpt>
      <trkpt lat="43.94817" lon="6.96485">
        <ele>457.2</ele>
        <time>2025-07-15T10:47:21Z</time>
      </trkpt>
      <trkpt lat="43.94822" lon="6.9642">
        <ele>457.2</ele>
        <time>2025-07-15T10:47:30Z</time>
      </trkpt>
      <trkpt lat="43.94831" lon="6.96353">
        <ele>457.6</ele>
        <time>2025-07-15T10:47:39Z</time>
      </trkpt>
      <trkpt lat="43.94841" lon="6.96306">
        <ele>458.2</ele>
        <time>2025-07-15T10:47:46Z</time>
      </trkpt>
      <trkpt lat="43.94845" lon="6.96288">
        <ele>458.2</ele>
        <time>2025-07-15T10:47:49Z</time>
      </trkpt>
      <trkpt lat="43.9485" lon="6.9627">
        <ele>458.2</ele>
        <time>2025-07-15T10:47:52Z</time>
      </trkpt>
      <trkpt lat="43.94853" lon="6.96259">
        <ele>458.4</ele>
        <time>2025-07-15T10:47:54Z</time>
      </trkpt>
      <trkpt lat="43.94856" lon="6.96247">
        <ele>458.4</ele>
        <time>2025-07-15T10:47:56Z</time>
      </trkpt>
      <trkpt lat="43.94859" lon="6.96237">
        <ele>458.8</ele>
        <time>2025-07-15T10:47:58Z</time>
      </trkpt>
      <trkpt lat="43.9486" lon="6.96233">
        <ele>459</ele>
        <time>2025-07-15T10:47:59Z</time>
      </trkpt>
      <trkpt lat="43.94861" lon="6.96229">
        <ele>459</ele>
        <time>2025-07-15T10:48:00Z</time>
      </trkpt>
      <trkpt lat="43.94864" lon="6.96226">
        <ele>459.6</ele>
        <time>2025-07-15T10:48:02Z</time>
      </trkpt>
      <trkpt lat="43.94864" lon="6.96225">
        <ele>459.6</ele>
        <time>2025-07-15T10:48:03Z</time>
      </trkpt>
      <trkpt lat="43.94864" lon="6.96225">
        <ele>459.6</ele>
        <time>2025-07-15T10:48:05Z</time>
      </trkpt>
      <trkpt lat="43.94869" lon="6.96207">
        <ele>461.2</ele>
        <time>2025-07-15T11:03:36Z</time>
      </trkpt>
      <trkpt lat="43.94869" lon="6.96205">
        <ele>461.2</ele>
        <time>2025-07-15T11:03:37Z</time>
      </trkpt>
      <trkpt lat="43.94876" lon="6.96184">
        <ele>461.2</ele>
        <time>2025-07-15T11:03:42Z</time>
      </trkpt>
      <trkpt lat="43.9489" lon="6.9614">
        <ele>461.2</ele>
        <time>2025-07-15T11:03:51Z</time>
      </trkpt>
      <trkpt lat="43.94902" lon="6.96106">
        <ele>461.4</ele>
        <time>2025-07-15T11:03:57Z</time>
      </trkpt>
      <trkpt lat="43.94924" lon="6.96055">
        <ele>461.8</ele>
        <time>2025-07-15T11:04:06Z</time>
      </trkpt>
      <trkpt lat="43.9495" lon="6.96">
        <ele>462.4</ele>
        <time>2025-07-15T11:04:16Z</time>
      </trkpt>
      <trkpt lat="43.94972" lon="6.9595">
        <ele>462.6</ele>
        <time>2025-07-15T11:04:24Z</time>
      </trkpt>
      <trkpt lat="43.94994" lon="6.95898">
        <ele>462.6</ele>
        <time>2025-07-15T11:04:33Z</time>
      </trkpt>
      <trkpt lat="43.95011" lon="6.95855">
        <ele>463.2</ele>
        <time>2025-07-15T11:04:40Z</time>
      </trkpt>
      <trkpt lat="43.95023" lon="6.95824">
        <ele>463.6</ele>
        <time>2025-07-15T11:04:45Z</time>
      </trkpt>
      <trkpt lat="43.95049" lon="6.95762">
        <ele>464.2</ele>
        <time>2025-07-15T11:04:55Z</time>
      </trkpt>
      <trkpt lat="43.95056" lon="6.95744">
        <ele>464.4</ele>
        <time>2025-07-15T11:04:58Z</time>
      </trkpt>
      <trkpt lat="43.95074" lon="6.95699">
        <ele>465</ele>
        <time>2025-07-15T11:05:05Z</time>
      </trkpt>
      <trkpt lat="43.95087" lon="6.95668">
        <ele>465.6</ele>
        <time>2025-07-15T11:05:10Z</time>
      </trkpt>
      <trkpt lat="43.95102" lon="6.9563">
        <ele>466</ele>
        <time>2025-07-15T11:05:16Z</time>
      </trkpt>
      <trkpt lat="43.95122" lon="6.95583">
        <ele>466.4</ele>
        <time>2025-07-15T11:05:24Z</time>
      </trkpt>
      <trkpt lat="43.95131" lon="6.95555">
        <ele>466.8</ele>
        <time>2025-07-15T11:05:29Z</time>
      </trkpt>
      <trkpt lat="43.95134" lon="6.95545">
        <ele>467.4</ele>
        <time>2025-07-15T11:05:31Z</time>
      </trkpt>
      <trkpt lat="43.95143" lon="6.95504">
        <ele>468</ele>
        <time>2025-07-15T11:05:38Z</time>
      </trkpt>
      <trkpt lat="43.95144" lon="6.95499">
        <ele>468</ele>
        <time>2025-07-15T11:05:39Z</time>
      </trkpt>
      <trkpt lat="43.95145" lon="6.95493">
        <ele>468.4</ele>
        <time>2025-07-15T11:05:40Z</time>
      </trkpt>
      <trkpt lat="43.95147" lon="6.95469">
        <ele>469</ele>
        <time>2025-07-15T11:05:44Z</time>
      </trkpt>
      <trkpt lat="43.95148" lon="6.95463">
        <ele>469.4</ele>
        <time>2025-07-15T11:05:45Z</time>
      </trkpt>
      <trkpt lat="43.9515" lon="6.95452">
        <ele>469.8</ele>
        <time>2025-07-15T11:05:47Z</time>
      </trkpt>
      <trkpt lat="43.9515" lon="6.95445">
        <ele>470</ele>
        <time>2025-07-15T11:05:48Z</time>
      </trkpt>
      <trkpt lat="43.95152" lon="6.95432">
        <ele>470.4</ele>
        <time>2025-07-15T11:05:50Z</time>
      </trkpt>
      <trkpt lat="43.95154" lon="6.95414">
        <ele>471</ele>
        <time>2025-07-15T11:05:53Z</time>
      </trkpt>
      <trkpt lat="43.95158" lon="6.95373">
        <ele>471</ele>
        <time>2025-07-15T11:06:00Z</time>
      </trkpt>
      <trkpt lat="43.95159" lon="6.95363">
        <ele>471</ele>
        <time>2025-07-15T11:06:02Z</time>
      </trkpt>
      <trkpt lat="43.9516" lon="6.9534">
        <ele>471.2</ele>
        <time>2025-07-15T11:06:06Z</time>
      </trkpt>
      <trkpt lat="43.95161" lon="6.95329">
        <ele>471.6</ele>
        <time>2025-07-15T11:06:08Z</time>
      </trkpt>
      <trkpt lat="43.95163" lon="6.95303">
        <ele>472</ele>
        <time>2025-07-15T11:06:13Z</time>
      </trkpt>
      <trkpt lat="43.95164" lon="6.95271">
        <ele>472.6</ele>
        <time>2025-07-15T11:06:19Z</time>
      </trkpt>
      <trkpt lat="43.95164" lon="6.95262">
        <ele>472.8</ele>
        <time>2025-07-15T11:06:21Z</time>
      </trkpt>
      <trkpt lat="43.95162" lon="6.95224">
        <ele>473.6</ele>
        <time>2025-07-15T11:06:28Z</time>
      </trkpt>
      <trkpt lat="43.95162" lon="6.95219">
        <ele>473.6</ele>
        <time>2025-07-15T11:06:29Z</time>
      </trkpt>
      <trkpt lat="43.95159" lon="6.95199">
        <ele>474.2</ele>
        <time>2025-07-15T11:06:33Z</time>
      </trkpt>
      <trkpt lat="43.95153" lon="6.95161">
        <ele>475</ele>
        <time>2025-07-15T11:06:40Z</time>
      </trkpt>
      <trkpt lat="43.95152" lon="6.95155">
        <ele>475</ele>
        <time>2025-07-15T11:06:41Z</time>
      </trkpt>
      <trkpt lat="43.95152" lon="6.95111">
        <ele>475.4</ele>
        <time>2025-07-15T11:06:49Z</time>
      </trkpt>
      <trkpt lat="43.95152" lon="6.95073">
        <ele>476.2</ele>
        <time>2025-07-15T11:06:56Z</time>
      </trkpt>
      <trkpt lat="43.95153" lon="6.95062">
        <ele>476.4</ele>
        <time>2025-07-15T11:06:58Z</time>
      </trkpt>
      <trkpt lat="43.95153" lon="6.95045">
        <ele>476.4</ele>
        <time>2025-07-15T11:07:01Z</time>
      </trkpt>
      <trkpt lat="43.95156" lon="6.95012">
        <ele>477.2</ele>
        <time>2025-07-15T11:07:07Z</time>
      </trkpt>
      <trkpt lat="43.95157" lon="6.94989">
        <ele>477.4</ele>
        <time>2025-07-15T11:07:11Z</time>
      </trkpt>
      <trkpt lat="43.9516" lon="6.94962">
        <ele>478</ele>
        <time>2025-07-15T11:07:16Z</time>
      </trkpt>
      <trkpt lat="43.95162" lon="6.94939">
        <ele>478.4</ele>
        <time>2025-07-15T11:07:20Z</time>
      </trkpt>
      <trkpt lat="43.95165" lon="6.94908">
        <ele>478.8</ele>
        <time>2025-07-15T11:07:25Z</time>
      </trkpt>
      <trkpt lat="43.95169" lon="6.94847">
        <ele>479</ele>
        <time>2025-07-15T11:07:34Z</time>
      </trkpt>
      <trkpt lat="43.95173" lon="6.94782">
        <ele>478.8</ele>
        <time>2025-07-15T11:07:43Z</time>
      </trkpt>
      <trkpt lat="43.95177" lon="6.94718">
        <ele>478.4</ele>
        <time>2025-07-15T11:07:51Z</time>
      </trkpt>
      <trkpt lat="43.95183" lon="6.9465">
        <ele>477.8</ele>
        <time>2025-07-15T11:07:59Z</time>
      </trkpt>
      <trkpt lat="43.95193" lon="6.94573">
        <ele>476.8</ele>
        <time>2025-07-15T11:08:08Z</time>
      </trkpt>
      <trkpt lat="43.95194" lon="6.94564">
        <ele>476.8</ele>
        <time>2025-07-15T11:08:09Z</time>
      </trkpt>
      <trkpt lat="43.952" lon="6.94486">
        <ele>476</ele>
        <time>2025-07-15T11:08:18Z</time>
      </trkpt>
      <trkpt lat="43.952" lon="6.94428">
        <ele>475.8</ele>
        <time>2025-07-15T11:08:24Z</time>
      </trkpt>
      <trkpt lat="43.952" lon="6.94418">
        <ele>475.8</ele>
        <time>2025-07-15T11:08:25Z</time>
      </trkpt>
      <trkpt lat="43.95206" lon="6.94349">
        <ele>475</ele>
        <time>2025-07-15T11:08:32Z</time>
      </trkpt>
      <trkpt lat="43.9521" lon="6.9433">
        <ele>474.8</ele>
        <time>2025-07-15T11:08:34Z</time>
      </trkpt>
      <trkpt lat="43.95228" lon="6.94251">
        <ele>475</ele>
        <time>2025-07-15T11:08:43Z</time>
      </trkpt>
      <trkpt lat="43.95246" lon="6.94177">
        <ele>475.4</ele>
        <time>2025-07-15T11:08:52Z</time>
      </trkpt>
      <trkpt lat="43.95248" lon="6.94168">
        <ele>475.4</ele>
        <time>2025-07-15T11:08:53Z</time>
      </trkpt>
      <trkpt lat="43.95267" lon="6.94096">
        <ele>475.6</ele>
        <time>2025-07-15T11:09:02Z</time>
      </trkpt>
      <trkpt lat="43.95269" lon="6.94088">
        <ele>475.6</ele>
        <time>2025-07-15T11:09:03Z</time>
      </trkpt>
      <trkpt lat="43.95283" lon="6.94031">
        <ele>476</ele>
        <time>2025-07-15T11:09:10Z</time>
      </trkpt>
      <trkpt lat="43.95288" lon="6.94009">
        <ele>476.6</ele>
        <time>2025-07-15T11:09:13Z</time>
      </trkpt>
      <trkpt lat="43.95295" lon="6.93979">
        <ele>476.8</ele>
        <time>2025-07-15T11:09:17Z</time>
      </trkpt>
      <trkpt lat="43.95311" lon="6.93922">
        <ele>477.6</ele>
        <time>2025-07-15T11:09:25Z</time>
      </trkpt>
      <trkpt lat="43.95312" lon="6.93916">
        <ele>477.8</ele>
        <time>2025-07-15T11:09:26Z</time>
      </trkpt>
      <trkpt lat="43.95321" lon="6.93886">
        <ele>478.4</ele>
        <time>2025-07-15T11:09:31Z</time>
      </trkpt>
      <trkpt lat="43.95326" lon="6.93869">
        <ele>478.8</ele>
        <time>2025-07-15T11:09:34Z</time>
      </trkpt>
      <trkpt lat="43.95336" lon="6.93828">
        <ele>479.4</ele>
        <time>2025-07-15T11:09:41Z</time>
      </trkpt>
      <trkpt lat="43.95344" lon="6.93796">
        <ele>479.8</ele>
        <time>2025-07-15T11:09:47Z</time>
      </trkpt>
      <trkpt lat="43.9535" lon="6.93774">
        <ele>481</ele>
        <time>2025-07-15T11:09:51Z</time>
      </trkpt>
      <trkpt lat="43.95352" lon="6.93765">
        <ele>481.2</ele>
        <time>2025-07-15T11:09:53Z</time>
      </trkpt>
      <trkpt lat="43.9536" lon="6.93729">
        <ele>482.2</ele>
        <time>2025-07-15T11:10:00Z</time>
      </trkpt>
      <trkpt lat="43.9537" lon="6.93674">
        <ele>483.8</ele>
        <time>2025-07-15T11:10:10Z</time>
      </trkpt>
      <trkpt lat="43.95381" lon="6.9361">
        <ele>484.6</ele>
        <time>2025-07-15T11:10:22Z</time>
      </trkpt>
      <trkpt lat="43.95383" lon="6.93601">
        <ele>484.8</ele>
        <time>2025-07-15T11:10:24Z</time>
      </trkpt>
      <trkpt lat="43.95388" lon="6.93561">
        <ele>485.6</ele>
        <time>2025-07-15T11:10:31Z</time>
      </trkpt>
      <trkpt lat="43.95389" lon="6.93555">
        <ele>485.6</ele>
        <time>2025-07-15T11:10:32Z</time>
      </trkpt>
      <trkpt lat="43.95389" lon="6.93497">
        <ele>486.2</ele>
        <time>2025-07-15T11:10:41Z</time>
      </trkpt>
      <trkpt lat="43.95384" lon="6.9345">
        <ele>486.6</ele>
        <time>2025-07-15T11:10:48Z</time>
      </trkpt>
      <trkpt lat="43.95377" lon="6.93386">
        <ele>486.6</ele>
        <time>2025-07-15T11:10:57Z</time>
      </trkpt>
      <trkpt lat="43.95374" lon="6.93334">
        <ele>486.8</ele>
        <time>2025-07-15T11:11:04Z</time>
      </trkpt>
      <trkpt lat="43.95375" lon="6.93327">
        <ele>486.8</ele>
        <time>2025-07-15T11:11:05Z</time>
      </trkpt>
      <trkpt lat="43.95376" lon="6.93249">
        <ele>487.4</ele>
        <time>2025-07-15T11:11:15Z</time>
      </trkpt>
      <trkpt lat="43.95379" lon="6.93187">
        <ele>487.6</ele>
        <time>2025-07-15T11:11:23Z</time>
      </trkpt>
      <trkpt lat="43.9538" lon="6.93169">
        <ele>487.8</ele>
        <time>2025-07-15T11:11:25Z</time>
      </trkpt>
      <trkpt lat="43.95382" lon="6.93104">
        <ele>487.6</ele>
        <time>2025-07-15T11:11:33Z</time>
      </trkpt>
      <trkpt lat="43.95383" lon="6.93086">
        <ele>487.6</ele>
        <time>2025-07-15T11:11:35Z</time>
      </trkpt>
      <trkpt lat="43.95388" lon="6.93008">
        <ele>487.6</ele>
        <time>2025-07-15T11:11:44Z</time>
      </trkpt>
      <trkpt lat="43.95393" lon="6.92951">
        <ele>487.4</ele>
        <time>2025-07-15T11:11:50Z</time>
      </trkpt>
      <trkpt lat="43.95402" lon="6.92877">
        <ele>487.4</ele>
        <time>2025-07-15T11:11:58Z</time>
      </trkpt>
      <trkpt lat="43.95403" lon="6.92868">
        <ele>487.4</ele>
        <time>2025-07-15T11:11:59Z</time>
      </trkpt>
      <trkpt lat="43.95409" lon="6.92834">
        <ele>487.4</ele>
        <time>2025-07-15T11:12:03Z</time>
      </trkpt>
      <trkpt lat="43.9541" lon="6.92826">
        <ele>487.4</ele>
        <time>2025-07-15T11:12:04Z</time>
      </trkpt>
      <trkpt lat="43.95424" lon="6.92746">
        <ele>487.4</ele>
        <time>2025-07-15T11:12:13Z</time>
      </trkpt>
      <trkpt lat="43.95429" lon="6.92718">
        <ele>487.4</ele>
        <time>2025-07-15T11:12:16Z</time>
      </trkpt>
      <trkpt lat="43.95442" lon="6.92648">
        <ele>487.6</ele>
        <time>2025-07-15T11:12:24Z</time>
      </trkpt>
      <trkpt lat="43.95443" lon="6.9263">
        <ele>487.6</ele>
        <time>2025-07-15T11:12:26Z</time>
      </trkpt>
      <trkpt lat="43.95438" lon="6.92577">
        <ele>488</ele>
        <time>2025-07-15T11:12:32Z</time>
      </trkpt>
      <trkpt lat="43.95427" lon="6.92536">
        <ele>487.8</ele>
        <time>2025-07-15T11:12:37Z</time>
      </trkpt>
      <trkpt lat="43.95422" lon="6.9252">
        <ele>487.6</ele>
        <time>2025-07-15T11:12:39Z</time>
      </trkpt>
      <trkpt lat="43.95393" lon="6.92452">
        <ele>488</ele>
        <time>2025-07-15T11:12:48Z</time>
      </trkpt>
      <trkpt lat="43.95364" lon="6.92384">
        <ele>488.6</ele>
        <time>2025-07-15T11:12:57Z</time>
      </trkpt>
      <trkpt lat="43.95344" lon="6.92334">
        <ele>489</ele>
        <time>2025-07-15T11:13:04Z</time>
      </trkpt>
      <trkpt lat="43.95326" lon="6.92277">
        <ele>489.6</ele>
        <time>2025-07-15T11:13:11Z</time>
      </trkpt>
      <trkpt lat="43.95324" lon="6.92271">
        <ele>489.6</ele>
        <time>2025-07-15T11:13:12Z</time>
      </trkpt>
      <trkpt lat="43.95311" lon="6.92215">
        <ele>490.4</ele>
        <time>2025-07-15T11:13:19Z</time>
      </trkpt>
      <trkpt lat="43.95309" lon="6.92207">
        <ele>490.4</ele>
        <time>2025-07-15T11:13:20Z</time>
      </trkpt>
      <trkpt lat="43.95302" lon="6.92176">
        <ele>490.8</ele>
        <time>2025-07-15T11:13:24Z</time>
      </trkpt>
      <trkpt lat="43.9529" lon="6.92117">
        <ele>491.4</ele>
        <time>2025-07-15T11:13:32Z</time>
      </trkpt>
      <trkpt lat="43.95284" lon="6.92055">
        <ele>491.8</ele>
        <time>2025-07-15T11:13:40Z</time>
      </trkpt>
      <trkpt lat="43.95285" lon="6.92046">
        <ele>491.8</ele>
        <time>2025-07-15T11:13:41Z</time>
      </trkpt>
      <trkpt lat="43.95289" lon="6.92003">
        <ele>491.8</ele>
        <time>2025-07-15T11:13:47Z</time>
      </trkpt>
      <trkpt lat="43.95301" lon="6.91954">
        <ele>492.2</ele>
        <time>2025-07-15T11:13:54Z</time>
      </trkpt>
      <trkpt lat="43.95309" lon="6.91936">
        <ele>492.2</ele>
        <time>2025-07-15T11:13:57Z</time>
      </trkpt>
      <trkpt lat="43.95323" lon="6.91908">
        <ele>492.6</ele>
        <time>2025-07-15T11:14:02Z</time>
      </trkpt>
      <trkpt lat="43.95328" lon="6.91897">
        <ele>493</ele>
        <time>2025-07-15T11:14:04Z</time>
      </trkpt>
      <trkpt lat="43.95342" lon="6.91867">
        <ele>493.4</ele>
        <time>2025-07-15T11:14:09Z</time>
      </trkpt>
      <trkpt lat="43.95359" lon="6.91832">
        <ele>494</ele>
        <time>2025-07-15T11:14:15Z</time>
      </trkpt>
      <trkpt lat="43.95386" lon="6.91776">
        <ele>494</ele>
        <time>2025-07-15T11:14:25Z</time>
      </trkpt>
      <trkpt lat="43.95415" lon="6.91715">
        <ele>494.4</ele>
        <time>2025-07-15T11:14:36Z</time>
      </trkpt>
      <trkpt lat="43.95444" lon="6.91654">
        <ele>494.6</ele>
        <time>2025-07-15T11:14:48Z</time>
      </trkpt>
      <trkpt lat="43.95455" lon="6.91634">
        <ele>494.4</ele>
        <time>2025-07-15T11:14:52Z</time>
      </trkpt>
      <trkpt lat="43.9547" lon="6.91605">
        <ele>494.6</ele>
        <time>2025-07-15T11:14:58Z</time>
      </trkpt>
      <trkpt lat="43.95479" lon="6.91584">
        <ele>495</ele>
        <time>2025-07-15T11:15:02Z</time>
      </trkpt>
      <trkpt lat="43.95488" lon="6.91564">
        <ele>495.2</ele>
        <time>2025-07-15T11:15:06Z</time>
      </trkpt>
      <trkpt lat="43.95505" lon="6.91518">
        <ele>495.4</ele>
        <time>2025-07-15T11:15:15Z</time>
      </trkpt>
      <trkpt lat="43.95508" lon="6.91506">
        <ele>495.6</ele>
        <time>2025-07-15T11:15:17Z</time>
      </trkpt>
      <trkpt lat="43.95515" lon="6.91478">
        <ele>495.4</ele>
        <time>2025-07-15T11:15:22Z</time>
      </trkpt>
      <trkpt lat="43.95523" lon="6.91418">
        <ele>495.6</ele>
        <time>2025-07-15T11:15:31Z</time>
      </trkpt>
      <trkpt lat="43.95524" lon="6.91384">
        <ele>495.6</ele>
        <time>2025-07-15T11:15:36Z</time>
      </trkpt>
      <trkpt lat="43.95524" lon="6.91371">
        <ele>495.8</ele>
        <time>2025-07-15T11:15:38Z</time>
      </trkpt>
      <trkpt lat="43.95522" lon="6.91323">
        <ele>496.2</ele>
        <time>2025-07-15T11:15:45Z</time>
      </trkpt>
      <trkpt lat="43.95521" lon="6.91317">
        <ele>496.2</ele>
        <time>2025-07-15T11:15:46Z</time>
      </trkpt>
      <trkpt lat="43.95514" lon="6.91279">
        <ele>496.6</ele>
        <time>2025-07-15T11:15:52Z</time>
      </trkpt>
      <trkpt lat="43.95502" lon="6.91227">
        <ele>497</ele>
        <time>2025-07-15T11:16:00Z</time>
      </trkpt>
      <trkpt lat="43.95499" lon="6.91215">
        <ele>497</ele>
        <time>2025-07-15T11:16:02Z</time>
      </trkpt>
      <trkpt lat="43.95488" lon="6.91185">
        <ele>497.4</ele>
        <time>2025-07-15T11:16:07Z</time>
      </trkpt>
      <trkpt lat="43.9548" lon="6.91168">
        <ele>497.4</ele>
        <time>2025-07-15T11:16:10Z</time>
      </trkpt>
      <trkpt lat="43.95477" lon="6.91161">
        <ele>497.4</ele>
        <time>2025-07-15T11:16:11Z</time>
      </trkpt>
      <trkpt lat="43.95453" lon="6.91113">
        <ele>498.2</ele>
        <time>2025-07-15T11:16:19Z</time>
      </trkpt>
      <trkpt lat="43.95421" lon="6.91052">
        <ele>498.6</ele>
        <time>2025-07-15T11:16:30Z</time>
      </trkpt>
      <trkpt lat="43.95407" lon="6.91027">
        <ele>498.8</ele>
        <time>2025-07-15T11:16:34Z</time>
      </trkpt>
      <trkpt lat="43.95396" lon="6.91003">
        <ele>499</ele>
        <time>2025-07-15T11:16:38Z</time>
      </trkpt>
      <trkpt lat="43.95368" lon="6.90948">
        <ele>499.4</ele>
        <time>2025-07-15T11:16:47Z</time>
      </trkpt>
      <trkpt lat="43.95336" lon="6.90883">
        <ele>500</ele>
        <time>2025-07-15T11:16:58Z</time>
      </trkpt>
      <trkpt lat="43.95304" lon="6.90817">
        <ele>500.2</ele>
        <time>2025-07-15T11:17:09Z</time>
      </trkpt>
      <trkpt lat="43.95301" lon="6.90811">
        <ele>500.2</ele>
        <time>2025-07-15T11:17:10Z</time>
      </trkpt>
      <trkpt lat="43.95273" lon="6.90752">
        <ele>500</ele>
        <time>2025-07-15T11:17:19Z</time>
      </trkpt>
      <trkpt lat="43.9525" lon="6.90691">
        <ele>500.8</ele>
        <time>2025-07-15T11:17:28Z</time>
      </trkpt>
      <trkpt lat="43.95235" lon="6.90623">
        <ele>501.2</ele>
        <time>2025-07-15T11:17:37Z</time>
      </trkpt>
      <trkpt lat="43.95228" lon="6.90568">
        <ele>501.6</ele>
        <time>2025-07-15T11:17:44Z</time>
      </trkpt>
      <trkpt lat="43.95228" lon="6.90553">
        <ele>501.6</ele>
        <time>2025-07-15T11:17:46Z</time>
      </trkpt>
      <trkpt lat="43.95229" lon="6.90485">
        <ele>501.8</ele>
        <time>2025-07-15T11:17:55Z</time>
      </trkpt>
      <trkpt lat="43.95242" lon="6.90413">
        <ele>502.4</ele>
        <time>2025-07-15T11:18:05Z</time>
      </trkpt>
      <trkpt lat="43.95257" lon="6.90358">
        <ele>502.8</ele>
        <time>2025-07-15T11:18:13Z</time>
      </trkpt>
      <trkpt lat="43.95262" lon="6.90345">
        <ele>502.8</ele>
        <time>2025-07-15T11:18:15Z</time>
      </trkpt>
      <trkpt lat="43.95283" lon="6.90287">
        <ele>503.4</ele>
        <time>2025-07-15T11:18:24Z</time>
      </trkpt>
      <trkpt lat="43.95298" lon="6.90242">
        <ele>504</ele>
        <time>2025-07-15T11:18:31Z</time>
      </trkpt>
      <trkpt lat="43.95305" lon="6.90224">
        <ele>504.4</ele>
        <time>2025-07-15T11:18:34Z</time>
      </trkpt>
      <trkpt lat="43.95327" lon="6.9017">
        <ele>505</ele>
        <time>2025-07-15T11:18:43Z</time>
      </trkpt>
      <trkpt lat="43.95332" lon="6.90159">
        <ele>505</ele>
        <time>2025-07-15T11:18:45Z</time>
      </trkpt>
      <trkpt lat="43.95337" lon="6.90148">
        <ele>505</ele>
        <time>2025-07-15T11:18:47Z</time>
      </trkpt>
      <trkpt lat="43.95359" lon="6.90103">
        <ele>505</ele>
        <time>2025-07-15T11:18:55Z</time>
      </trkpt>
      <trkpt lat="43.95377" lon="6.90069">
        <ele>505</ele>
        <time>2025-07-15T11:19:01Z</time>
      </trkpt>
      <trkpt lat="43.95381" lon="6.90064">
        <ele>505</ele>
        <time>2025-07-15T11:19:02Z</time>
      </trkpt>
      <trkpt lat="43.95392" lon="6.90049">
        <ele>505.2</ele>
        <time>2025-07-15T11:19:05Z</time>
      </trkpt>
      <trkpt lat="43.95408" lon="6.90033">
        <ele>505.4</ele>
        <time>2025-07-15T11:19:09Z</time>
      </trkpt>
      <trkpt lat="43.95449" lon="6.89994">
        <ele>505.8</ele>
        <time>2025-07-15T11:19:18Z</time>
      </trkpt>
      <trkpt lat="43.95464" lon="6.89975">
        <ele>506</ele>
        <time>2025-07-15T11:19:22Z</time>
      </trkpt>
      <trkpt lat="43.9547" lon="6.89968">
        <ele>506</ele>
        <time>2025-07-15T11:19:24Z</time>
      </trkpt>
      <trkpt lat="43.95488" lon="6.89929">
        <ele>506.4</ele>
        <time>2025-07-15T11:19:32Z</time>
      </trkpt>
      <trkpt lat="43.95489" lon="6.89923">
        <ele>506.4</ele>
        <time>2025-07-15T11:19:33Z</time>
      </trkpt>
      <trkpt lat="43.95495" lon="6.899">
        <ele>506.6</ele>
        <time>2025-07-15T11:19:37Z</time>
      </trkpt>
      <trkpt lat="43.95496" lon="6.89896">
        <ele>506.6</ele>
        <time>2025-07-15T11:19:38Z</time>
      </trkpt>
      <trkpt lat="43.95499" lon="6.8987">
        <ele>506.6</ele>
        <time>2025-07-15T11:19:43Z</time>
      </trkpt>
      <trkpt lat="43.95501" lon="6.89852">
        <ele>506.6</ele>
        <time>2025-07-15T11:19:46Z</time>
      </trkpt>
      <trkpt lat="43.95503" lon="6.8984">
        <ele>506.6</ele>
        <time>2025-07-15T11:19:48Z</time>
      </trkpt>
      <trkpt lat="43.95503" lon="6.89834">
        <ele>506.6</ele>
        <time>2025-07-15T11:19:49Z</time>
      </trkpt>
      <trkpt lat="43.95505" lon="6.89822">
        <ele>506.6</ele>
        <time>2025-07-15T11:19:51Z</time>
      </trkpt>
      <trkpt lat="43.95509" lon="6.89779">
        <ele>507</ele>
        <time>2025-07-15T11:19:57Z</time>
      </trkpt>
      <trkpt lat="43.9551" lon="6.89772">
        <ele>507</ele>
        <time>2025-07-15T11:19:58Z</time>
      </trkpt>
      <trkpt lat="43.95518" lon="6.89712">
        <ele>507.4</ele>
        <time>2025-07-15T11:20:07Z</time>
      </trkpt>
      <trkpt lat="43.95518" lon="6.89705">
        <ele>507.4</ele>
        <time>2025-07-15T11:20:08Z</time>
      </trkpt>
      <trkpt lat="43.95516" lon="6.89697">
        <ele>507.6</ele>
        <time>2025-07-15T11:20:09Z</time>
      </trkpt>
      <trkpt lat="43.95518" lon="6.8967">
        <ele>507.8</ele>
        <time>2025-07-15T11:20:13Z</time>
      </trkpt>
      <trkpt lat="43.95519" lon="6.89663">
        <ele>507.8</ele>
        <time>2025-07-15T11:20:14Z</time>
      </trkpt>
      <trkpt lat="43.95522" lon="6.89644">
        <ele>508</ele>
        <time>2025-07-15T11:20:17Z</time>
      </trkpt>
      <trkpt lat="43.9552" lon="6.8962">
        <ele>508</ele>
        <time>2025-07-15T11:20:20Z</time>
      </trkpt>
      <trkpt lat="43.95518" lon="6.89581">
        <ele>508.6</ele>
        <time>2025-07-15T11:20:27Z</time>
      </trkpt>
      <trkpt lat="43.95516" lon="6.89572">
        <ele>508.6</ele>
        <time>2025-07-15T11:20:29Z</time>
      </trkpt>
      <trkpt lat="43.9551" lon="6.89563">
        <ele>508.8</ele>
        <time>2025-07-15T11:20:31Z</time>
      </trkpt>
      <trkpt lat="43.95498" lon="6.89561">
        <ele>509</ele>
        <time>2025-07-15T11:20:35Z</time>
      </trkpt>
      <trkpt lat="43.95472" lon="6.89569">
        <ele>509.6</ele>
        <time>2025-07-15T11:20:43Z</time>
      </trkpt>
      <trkpt lat="43.95463" lon="6.89572">
        <ele>510.2</ele>
        <time>2025-07-15T11:20:46Z</time>
      </trkpt>
      <trkpt lat="43.95446" lon="6.89578">
        <ele>511.2</ele>
        <time>2025-07-15T11:20:52Z</time>
      </trkpt>
      <trkpt lat="43.9544" lon="6.8958">
        <ele>511.4</ele>
        <time>2025-07-15T11:20:54Z</time>
      </trkpt>
      <trkpt lat="43.95427" lon="6.89585">
        <ele>512.2</ele>
        <time>2025-07-15T11:20:59Z</time>
      </trkpt>
      <trkpt lat="43.95419" lon="6.89587">
        <ele>513</ele>
        <time>2025-07-15T11:21:02Z</time>
      </trkpt>
      <trkpt lat="43.95405" lon="6.8959">
        <ele>513.6</ele>
        <time>2025-07-15T11:21:07Z</time>
      </trkpt>
      <trkpt lat="43.95403" lon="6.89591">
        <ele>513.6</ele>
        <time>2025-07-15T11:21:08Z</time>
      </trkpt>
      <trkpt lat="43.95402" lon="6.89593">
        <ele>513.8</ele>
        <time>2025-07-15T11:21:09Z</time>
      </trkpt>
      <trkpt lat="43.95395" lon="6.89606">
        <ele>514.6</ele>
        <time>2025-07-15T11:21:14Z</time>
      </trkpt>
      <trkpt lat="43.95394" lon="6.89612">
        <ele>514.8</ele>
        <time>2025-07-15T11:21:16Z</time>
      </trkpt>
      <trkpt lat="43.9539" lon="6.89635">
        <ele>515.6</ele>
        <time>2025-07-15T11:21:23Z</time>
      </trkpt>
      <trkpt lat="43.95387" lon="6.89651">
        <ele>516.2</ele>
        <time>2025-07-15T11:21:28Z</time>
      </trkpt>
      <trkpt lat="43.95382" lon="6.89667">
        <ele>516.8</ele>
        <time>2025-07-15T11:21:33Z</time>
      </trkpt>
      <trkpt lat="43.95379" lon="6.89671">
        <ele>517</ele>
        <time>2025-07-15T11:21:35Z</time>
      </trkpt>
      <trkpt lat="43.95361" lon="6.89681">
        <ele>518.2</ele>
        <time>2025-07-15T11:21:42Z</time>
      </trkpt>
      <trkpt lat="43.95335" lon="6.89687">
        <ele>519.2</ele>
        <time>2025-07-15T11:21:52Z</time>
      </trkpt>
      <trkpt lat="43.95314" lon="6.89693">
        <ele>520.2</ele>
        <time>2025-07-15T11:22:01Z</time>
      </trkpt>
      <trkpt lat="43.95309" lon="6.89695">
        <ele>520.4</ele>
        <time>2025-07-15T11:22:03Z</time>
      </trkpt>
      <trkpt lat="43.95292" lon="6.89705">
        <ele>521.2</ele>
        <time>2025-07-15T11:22:10Z</time>
      </trkpt>
      <trkpt lat="43.95287" lon="6.89708">
        <ele>521.4</ele>
        <time>2025-07-15T11:22:12Z</time>
      </trkpt>
      <trkpt lat="43.95274" lon="6.89726">
        <ele>522.2</ele>
        <time>2025-07-15T11:22:19Z</time>
      </trkpt>
      <trkpt lat="43.95269" lon="6.89734">
        <ele>522.4</ele>
        <time>2025-07-15T11:22:22Z</time>
      </trkpt>
      <trkpt lat="43.95264" lon="6.89742">
        <ele>522.8</ele>
        <time>2025-07-15T11:22:25Z</time>
      </trkpt>
      <trkpt lat="43.95254" lon="6.89756">
        <ele>523.6</ele>
        <time>2025-07-15T11:22:30Z</time>
      </trkpt>
      <trkpt lat="43.9525" lon="6.89762">
        <ele>523.8</ele>
        <time>2025-07-15T11:22:32Z</time>
      </trkpt>
      <trkpt lat="43.95247" lon="6.89764">
        <ele>523.8</ele>
        <time>2025-07-15T11:22:33Z</time>
      </trkpt>
      <trkpt lat="43.95241" lon="6.89769">
        <ele>524</ele>
        <time>2025-07-15T11:22:35Z</time>
      </trkpt>
      <trkpt lat="43.9523" lon="6.89778">
        <ele>524.8</ele>
        <time>2025-07-15T11:22:39Z</time>
      </trkpt>
      <trkpt lat="43.95226" lon="6.89782">
        <ele>525</ele>
        <time>2025-07-15T11:22:41Z</time>
      </trkpt>
      <trkpt lat="43.95209" lon="6.89799">
        <ele>525.6</ele>
        <time>2025-07-15T11:22:47Z</time>
      </trkpt>
      <trkpt lat="43.95205" lon="6.89801">
        <ele>525.8</ele>
        <time>2025-07-15T11:22:48Z</time>
      </trkpt>
      <trkpt lat="43.95192" lon="6.89821">
        <ele>526.4</ele>
        <time>2025-07-15T11:22:54Z</time>
      </trkpt>
      <trkpt lat="43.9519" lon="6.89824">
        <ele>526.6</ele>
        <time>2025-07-15T11:22:55Z</time>
      </trkpt>
      <trkpt lat="43.95185" lon="6.89837">
        <ele>526.6</ele>
        <time>2025-07-15T11:22:58Z</time>
      </trkpt>
      <trkpt lat="43.95181" lon="6.89851">
        <ele>526.8</ele>
        <time>2025-07-15T11:23:01Z</time>
      </trkpt>
      <trkpt lat="43.95168" lon="6.89867">
        <ele>527.4</ele>
        <time>2025-07-15T11:23:06Z</time>
      </trkpt>
      <trkpt lat="43.9516" lon="6.8988">
        <ele>527.8</ele>
        <time>2025-07-15T11:23:10Z</time>
      </trkpt>
      <trkpt lat="43.95156" lon="6.89892">
        <ele>528.2</ele>
        <time>2025-07-15T11:23:13Z</time>
      </trkpt>
      <trkpt lat="43.95148" lon="6.89922">
        <ele>528.8</ele>
        <time>2025-07-15T11:23:20Z</time>
      </trkpt>
      <trkpt lat="43.95147" lon="6.89927">
        <ele>529</ele>
        <time>2025-07-15T11:23:21Z</time>
      </trkpt>
      <trkpt lat="43.95138" lon="6.89955">
        <ele>529.4</ele>
        <time>2025-07-15T11:23:28Z</time>
      </trkpt>
      <trkpt lat="43.95132" lon="6.89976">
        <ele>530</ele>
        <time>2025-07-15T11:23:33Z</time>
      </trkpt>
      <trkpt lat="43.9513" lon="6.89979">
        <ele>530</ele>
        <time>2025-07-15T11:23:34Z</time>
      </trkpt>
      <trkpt lat="43.95122" lon="6.89989">
        <ele>530.6</ele>
        <time>2025-07-15T11:23:38Z</time>
      </trkpt>
      <trkpt lat="43.95108" lon="6.89994">
        <ele>531</ele>
        <time>2025-07-15T11:23:43Z</time>
      </trkpt>
      <trkpt lat="43.95105" lon="6.89994">
        <ele>531.2</ele>
        <time>2025-07-15T11:23:44Z</time>
      </trkpt>
      <trkpt lat="43.95083" lon="6.89995">
        <ele>532</ele>
        <time>2025-07-15T11:23:51Z</time>
      </trkpt>
      <trkpt lat="43.95077" lon="6.89998">
        <ele>532.2</ele>
        <time>2025-07-15T11:23:53Z</time>
      </trkpt>
      <trkpt lat="43.95065" lon="6.90019">
        <ele>533</ele>
        <time>2025-07-15T11:23:59Z</time>
      </trkpt>
      <trkpt lat="43.95063" lon="6.90023">
        <ele>533</ele>
        <time>2025-07-15T11:24:00Z</time>
      </trkpt>
      <trkpt lat="43.9506" lon="6.9004">
        <ele>533.4</ele>
        <time>2025-07-15T11:24:04Z</time>
      </trkpt>
      <trkpt lat="43.95068" lon="6.90072">
        <ele>534.2</ele>
        <time>2025-07-15T11:24:11Z</time>
      </trkpt>
      <trkpt lat="43.95068" lon="6.90077">
        <ele>534.2</ele>
        <time>2025-07-15T11:24:12Z</time>
      </trkpt>
      <trkpt lat="43.95063" lon="6.90101">
        <ele>535</ele>
        <time>2025-07-15T11:24:18Z</time>
      </trkpt>
      <trkpt lat="43.95062" lon="6.90108">
        <ele>535.4</ele>
        <time>2025-07-15T11:24:20Z</time>
      </trkpt>
      <trkpt lat="43.95057" lon="6.9014">
        <ele>536.2</ele>
        <time>2025-07-15T11:24:28Z</time>
      </trkpt>
      <trkpt lat="43.95054" lon="6.90149">
        <ele>536.6</ele>
        <time>2025-07-15T11:24:31Z</time>
      </trkpt>
      <trkpt lat="43.9505" lon="6.90158">
        <ele>537.2</ele>
        <time>2025-07-15T11:24:34Z</time>
      </trkpt>
      <trkpt lat="43.95045" lon="6.90165">
        <ele>537.6</ele>
        <time>2025-07-15T11:24:37Z</time>
      </trkpt>
      <trkpt lat="43.95039" lon="6.90171">
        <ele>538.2</ele>
        <time>2025-07-15T11:24:40Z</time>
      </trkpt>
      <trkpt lat="43.95034" lon="6.90177">
        <ele>538.6</ele>
        <time>2025-07-15T11:24:43Z</time>
      </trkpt>
      <trkpt lat="43.95027" lon="6.90187">
        <ele>539.4</ele>
        <time>2025-07-15T11:24:47Z</time>
      </trkpt>
      <trkpt lat="43.95024" lon="6.90192">
        <ele>539.8</ele>
        <time>2025-07-15T11:24:49Z</time>
      </trkpt>
      <trkpt lat="43.95015" lon="6.90205">
        <ele>541</ele>
        <time>2025-07-15T11:24:54Z</time>
      </trkpt>
      <trkpt lat="43.95011" lon="6.90209">
        <ele>541.2</ele>
        <time>2025-07-15T11:24:56Z</time>
      </trkpt>
      <trkpt lat="43.95002" lon="6.9023">
        <ele>542.2</ele>
        <time>2025-07-15T11:25:03Z</time>
      </trkpt>
      <trkpt lat="43.95" lon="6.90251">
        <ele>543</ele>
        <time>2025-07-15T11:25:09Z</time>
      </trkpt>
      <trkpt lat="43.94999" lon="6.90264">
        <ele>543.2</ele>
        <time>2025-07-15T11:25:13Z</time>
      </trkpt>
      <trkpt lat="43.94995" lon="6.90284">
        <ele>544</ele>
        <time>2025-07-15T11:25:19Z</time>
      </trkpt>
      <trkpt lat="43.94994" lon="6.9029">
        <ele>544.4</ele>
        <time>2025-07-15T11:25:21Z</time>
      </trkpt>
      <trkpt lat="43.94987" lon="6.90314">
        <ele>545.4</ele>
        <time>2025-07-15T11:25:29Z</time>
      </trkpt>
      <trkpt lat="43.94986" lon="6.90317">
        <ele>545.6</ele>
        <time>2025-07-15T11:25:30Z</time>
      </trkpt>
      <trkpt lat="43.94982" lon="6.90332">
        <ele>547</ele>
        <time>2025-07-15T11:25:35Z</time>
      </trkpt>
      <trkpt lat="43.94972" lon="6.90349">
        <ele>547.8</ele>
        <time>2025-07-15T11:25:42Z</time>
      </trkpt>
      <trkpt lat="43.9497" lon="6.90351">
        <ele>548</ele>
        <time>2025-07-15T11:25:43Z</time>
      </trkpt>
      <trkpt lat="43.94964" lon="6.90361">
        <ele>548.4</ele>
        <time>2025-07-15T11:25:47Z</time>
      </trkpt>
      <trkpt lat="43.94964" lon="6.90364">
        <ele>548.6</ele>
        <time>2025-07-15T11:25:48Z</time>
      </trkpt>
      <trkpt lat="43.94961" lon="6.9037">
        <ele>548.6</ele>
        <time>2025-07-15T11:25:50Z</time>
      </trkpt>
      <trkpt lat="43.94959" lon="6.90376">
        <ele>549.2</ele>
        <time>2025-07-15T11:25:52Z</time>
      </trkpt>
      <trkpt lat="43.94955" lon="6.90393">
        <ele>550.4</ele>
        <time>2025-07-15T11:25:57Z</time>
      </trkpt>
      <trkpt lat="43.94957" lon="6.90403">
        <ele>550.8</ele>
        <time>2025-07-15T11:26:00Z</time>
      </trkpt>
      <trkpt lat="43.94958" lon="6.90407">
        <ele>551</ele>
        <time>2025-07-15T11:26:01Z</time>
      </trkpt>
      <trkpt lat="43.94959" lon="6.90411">
        <ele>551.4</ele>
        <time>2025-07-15T11:26:02Z</time>
      </trkpt>
      <trkpt lat="43.94966" lon="6.90427">
        <ele>552</ele>
        <time>2025-07-15T11:26:07Z</time>
      </trkpt>
      <trkpt lat="43.94972" lon="6.90436">
        <ele>552.4</ele>
        <time>2025-07-15T11:26:10Z</time>
      </trkpt>
      <trkpt lat="43.94981" lon="6.90447">
        <ele>552.8</ele>
        <time>2025-07-15T11:26:14Z</time>
      </trkpt>
      <trkpt lat="43.94984" lon="6.90461">
        <ele>553.4</ele>
        <time>2025-07-15T11:26:18Z</time>
      </trkpt>
      <trkpt lat="43.94989" lon="6.90475">
        <ele>554.2</ele>
        <time>2025-07-15T11:26:22Z</time>
      </trkpt>
      <trkpt lat="43.94989" lon="6.90479">
        <ele>554.4</ele>
        <time>2025-07-15T11:26:23Z</time>
      </trkpt>
      <trkpt lat="43.94992" lon="6.90496">
        <ele>555.2</ele>
        <time>2025-07-15T11:26:28Z</time>
      </trkpt>
      <trkpt lat="43.94992" lon="6.90498">
        <ele>555.4</ele>
        <time>2025-07-15T11:26:29Z</time>
      </trkpt>
      <trkpt lat="43.95001" lon="6.90517">
        <ele>556.2</ele>
        <time>2025-07-15T11:26:35Z</time>
      </trkpt>
      <trkpt lat="43.95003" lon="6.90524">
        <ele>556.4</ele>
        <time>2025-07-15T11:26:37Z</time>
      </trkpt>
      <trkpt lat="43.95009" lon="6.90538">
        <ele>557</ele>
        <time>2025-07-15T11:26:42Z</time>
      </trkpt>
      <trkpt lat="43.95013" lon="6.90552">
        <ele>557.8</ele>
        <time>2025-07-15T11:26:46Z</time>
      </trkpt>
      <trkpt lat="43.95014" lon="6.90555">
        <ele>558</ele>
        <time>2025-07-15T11:26:47Z</time>
      </trkpt>
      <trkpt lat="43.95018" lon="6.90568">
        <ele>558.8</ele>
        <time>2025-07-15T11:26:51Z</time>
      </trkpt>
      <trkpt lat="43.95026" lon="6.90589">
        <ele>560</ele>
        <time>2025-07-15T11:26:58Z</time>
      </trkpt>
      <trkpt lat="43.95028" lon="6.90608">
        <ele>561</ele>
        <time>2025-07-15T11:27:03Z</time>
      </trkpt>
      <trkpt lat="43.95024" lon="6.90612">
        <ele>561</ele>
        <time>2025-07-15T11:27:05Z</time>
      </trkpt>
      <trkpt lat="43.95021" lon="6.90611">
        <ele>561.2</ele>
        <time>2025-07-15T11:27:06Z</time>
      </trkpt>
      <trkpt lat="43.95019" lon="6.90608">
        <ele>561.4</ele>
        <time>2025-07-15T11:27:07Z</time>
      </trkpt>
      <trkpt lat="43.95015" lon="6.90594">
        <ele>562.8</ele>
        <time>2025-07-15T11:27:11Z</time>
      </trkpt>
      <trkpt lat="43.95012" lon="6.90581">
        <ele>563.8</ele>
        <time>2025-07-15T11:27:15Z</time>
      </trkpt>
      <trkpt lat="43.9501" lon="6.90574">
        <ele>564.2</ele>
        <time>2025-07-15T11:27:17Z</time>
      </trkpt>
      <trkpt lat="43.95007" lon="6.90564">
        <ele>564.8</ele>
        <time>2025-07-15T11:27:20Z</time>
      </trkpt>
      <trkpt lat="43.95001" lon="6.90549">
        <ele>566</ele>
        <time>2025-07-15T11:27:25Z</time>
      </trkpt>
      <trkpt lat="43.95" lon="6.90546">
        <ele>566</ele>
        <time>2025-07-15T11:27:26Z</time>
      </trkpt>
      <trkpt lat="43.94991" lon="6.9053">
        <ele>567.2</ele>
        <time>2025-07-15T11:27:32Z</time>
      </trkpt>
      <trkpt lat="43.94985" lon="6.90522">
        <ele>567.4</ele>
        <time>2025-07-15T11:27:35Z</time>
      </trkpt>
      <trkpt lat="43.94975" lon="6.90506">
        <ele>568.4</ele>
        <time>2025-07-15T11:27:40Z</time>
      </trkpt>
      <trkpt lat="43.94969" lon="6.90491">
        <ele>569</ele>
        <time>2025-07-15T11:27:45Z</time>
      </trkpt>
      <trkpt lat="43.94964" lon="6.90477">
        <ele>569.6</ele>
        <time>2025-07-15T11:27:49Z</time>
      </trkpt>
      <trkpt lat="43.94959" lon="6.90462">
        <ele>570.4</ele>
        <time>2025-07-15T11:27:54Z</time>
      </trkpt>
      <trkpt lat="43.94955" lon="6.90453">
        <ele>570.8</ele>
        <time>2025-07-15T11:27:57Z</time>
      </trkpt>
      <trkpt lat="43.94951" lon="6.90441">
        <ele>571.4</ele>
        <time>2025-07-15T11:28:01Z</time>
      </trkpt>
      <trkpt lat="43.94947" lon="6.90429">
        <ele>571.8</ele>
        <time>2025-07-15T11:28:05Z</time>
      </trkpt>
      <trkpt lat="43.94939" lon="6.90418">
        <ele>572.6</ele>
        <time>2025-07-15T11:28:10Z</time>
      </trkpt>
      <trkpt lat="43.94934" lon="6.90418">
        <ele>573</ele>
        <time>2025-07-15T11:28:12Z</time>
      </trkpt>
      <trkpt lat="43.9493" lon="6.90422">
        <ele>573.2</ele>
        <time>2025-07-15T11:28:14Z</time>
      </trkpt>
      <trkpt lat="43.94929" lon="6.90425">
        <ele>573.4</ele>
        <time>2025-07-15T11:28:15Z</time>
      </trkpt>
      <trkpt lat="43.94929" lon="6.90433">
        <ele>573.6</ele>
        <time>2025-07-15T11:28:17Z</time>
      </trkpt>
      <trkpt lat="43.94938" lon="6.90451">
        <ele>574</ele>
        <time>2025-07-15T11:28:22Z</time>
      </trkpt>
      <trkpt lat="43.9494" lon="6.90454">
        <ele>574</ele>
        <time>2025-07-15T11:28:23Z</time>
      </trkpt>
      <trkpt lat="43.94949" lon="6.90478">
        <ele>575</ele>
        <time>2025-07-15T11:28:30Z</time>
      </trkpt>
      <trkpt lat="43.94956" lon="6.90511">
        <ele>576.2</ele>
        <time>2025-07-15T11:28:39Z</time>
      </trkpt>
      <trkpt lat="43.94964" lon="6.90534">
        <ele>577.4</ele>
        <time>2025-07-15T11:28:46Z</time>
      </trkpt>
      <trkpt lat="43.94967" lon="6.9054">
        <ele>577.6</ele>
        <time>2025-07-15T11:28:48Z</time>
      </trkpt>
      <trkpt lat="43.94977" lon="6.90562">
        <ele>578.4</ele>
        <time>2025-07-15T11:28:55Z</time>
      </trkpt>
      <trkpt lat="43.9498" lon="6.90569">
        <ele>578.6</ele>
        <time>2025-07-15T11:28:57Z</time>
      </trkpt>
      <trkpt lat="43.94985" lon="6.90587">
        <ele>579.4</ele>
        <time>2025-07-15T11:29:03Z</time>
      </trkpt>
      <trkpt lat="43.9499" lon="6.90608">
        <ele>580.6</ele>
        <time>2025-07-15T11:29:09Z</time>
      </trkpt>
      <trkpt lat="43.9499" lon="6.90618">
        <ele>581.2</ele>
        <time>2025-07-15T11:29:12Z</time>
      </trkpt>
      <trkpt lat="43.94989" lon="6.90628">
        <ele>581.6</ele>
        <time>2025-07-15T11:29:15Z</time>
      </trkpt>
      <trkpt lat="43.94987" lon="6.90642">
        <ele>582.4</ele>
        <time>2025-07-15T11:29:19Z</time>
      </trkpt>
      <trkpt lat="43.94985" lon="6.90652">
        <ele>582.8</ele>
        <time>2025-07-15T11:29:22Z</time>
      </trkpt>
      <trkpt lat="43.94984" lon="6.90671">
        <ele>583.4</ele>
        <time>2025-07-15T11:29:27Z</time>
      </trkpt>
      <trkpt lat="43.94987" lon="6.90686">
        <ele>584</ele>
        <time>2025-07-15T11:29:31Z</time>
      </trkpt>
      <trkpt lat="43.94989" lon="6.90693">
        <ele>584.4</ele>
        <time>2025-07-15T11:29:33Z</time>
      </trkpt>
      <trkpt lat="43.94996" lon="6.90717">
        <ele>585</ele>
        <time>2025-07-15T11:29:40Z</time>
      </trkpt>
      <trkpt lat="43.94998" lon="6.90727">
        <ele>585.4</ele>
        <time>2025-07-15T11:29:43Z</time>
      </trkpt>
      <trkpt lat="43.94999" lon="6.90742">
        <ele>586</ele>
        <time>2025-07-15T11:29:47Z</time>
      </trkpt>
      <trkpt lat="43.95001" lon="6.9076">
        <ele>587</ele>
        <time>2025-07-15T11:29:52Z</time>
      </trkpt>
      <trkpt lat="43.95001" lon="6.90764">
        <ele>587.2</ele>
        <time>2025-07-15T11:29:53Z</time>
      </trkpt>
      <trkpt lat="43.95009" lon="6.90783">
        <ele>588.2</ele>
        <time>2025-07-15T11:29:59Z</time>
      </trkpt>
      <trkpt lat="43.9501" lon="6.90786">
        <ele>588.4</ele>
        <time>2025-07-15T11:30:00Z</time>
      </trkpt>
      <trkpt lat="43.95025" lon="6.90807">
        <ele>589.6</ele>
        <time>2025-07-15T11:30:09Z</time>
      </trkpt>
      <trkpt lat="43.95035" lon="6.90818">
        <ele>590.6</ele>
        <time>2025-07-15T11:30:14Z</time>
      </trkpt>
      <trkpt lat="43.95039" lon="6.90823">
        <ele>591</ele>
        <time>2025-07-15T11:30:16Z</time>
      </trkpt>
      <trkpt lat="43.95046" lon="6.90833">
        <ele>591.8</ele>
        <time>2025-07-15T11:30:20Z</time>
      </trkpt>
      <trkpt lat="43.95051" lon="6.9084">
        <ele>592.2</ele>
        <time>2025-07-15T11:30:23Z</time>
      </trkpt>
      <trkpt lat="43.9506" lon="6.90853">
        <ele>592.8</ele>
        <time>2025-07-15T11:30:28Z</time>
      </trkpt>
      <trkpt lat="43.95068" lon="6.90866">
        <ele>593.6</ele>
        <time>2025-07-15T11:30:33Z</time>
      </trkpt>
      <trkpt lat="43.95072" lon="6.90875">
        <ele>594</ele>
        <time>2025-07-15T11:30:36Z</time>
      </trkpt>
      <trkpt lat="43.95081" lon="6.90898">
        <ele>595</ele>
        <time>2025-07-15T11:30:43Z</time>
      </trkpt>
      <trkpt lat="43.95086" lon="6.90917">
        <ele>596.2</ele>
        <time>2025-07-15T11:30:49Z</time>
      </trkpt>
      <trkpt lat="43.95087" lon="6.9092">
        <ele>596.4</ele>
        <time>2025-07-15T11:30:50Z</time>
      </trkpt>
      <trkpt lat="43.95096" lon="6.90938">
        <ele>597.2</ele>
        <time>2025-07-15T11:30:56Z</time>
      </trkpt>
      <trkpt lat="43.951" lon="6.90945">
        <ele>598</ele>
        <time>2025-07-15T11:30:59Z</time>
      </trkpt>
      <trkpt lat="43.95104" lon="6.90951">
        <ele>598.6</ele>
        <time>2025-07-15T11:31:01Z</time>
      </trkpt>
      <trkpt lat="43.95112" lon="6.90964">
        <ele>599.6</ele>
        <time>2025-07-15T11:31:06Z</time>
      </trkpt>
      <trkpt lat="43.95114" lon="6.90971">
        <ele>600</ele>
        <time>2025-07-15T11:31:08Z</time>
      </trkpt>
      <trkpt lat="43.95116" lon="6.90984">
        <ele>600.6</ele>
        <time>2025-07-15T11:31:12Z</time>
      </trkpt>
      <trkpt lat="43.95116" lon="6.90995">
        <ele>601</ele>
        <time>2025-07-15T11:31:15Z</time>
      </trkpt>
      <trkpt lat="43.95117" lon="6.91024">
        <ele>601.6</ele>
        <time>2025-07-15T11:31:22Z</time>
      </trkpt>
      <trkpt lat="43.95116" lon="6.91032">
        <ele>602</ele>
        <time>2025-07-15T11:31:24Z</time>
      </trkpt>
      <trkpt lat="43.95113" lon="6.91057">
        <ele>602.8</ele>
        <time>2025-07-15T11:31:31Z</time>
      </trkpt>
      <trkpt lat="43.95113" lon="6.91061">
        <ele>602.8</ele>
        <time>2025-07-15T11:31:32Z</time>
      </trkpt>
      <trkpt lat="43.95109" lon="6.91078">
        <ele>603.8</ele>
        <time>2025-07-15T11:31:37Z</time>
      </trkpt>
      <trkpt lat="43.95108" lon="6.91084">
        <ele>604.2</ele>
        <time>2025-07-15T11:31:39Z</time>
      </trkpt>
      <trkpt lat="43.95102" lon="6.911">
        <ele>605</ele>
        <time>2025-07-15T11:31:44Z</time>
      </trkpt>
      <trkpt lat="43.951" lon="6.9111">
        <ele>605.4</ele>
        <time>2025-07-15T11:31:47Z</time>
      </trkpt>
      <trkpt lat="43.95098" lon="6.9112">
        <ele>606</ele>
        <time>2025-07-15T11:31:50Z</time>
      </trkpt>
      <trkpt lat="43.95095" lon="6.91133">
        <ele>606.6</ele>
        <time>2025-07-15T11:31:54Z</time>
      </trkpt>
      <trkpt lat="43.95091" lon="6.91145">
        <ele>607.2</ele>
        <time>2025-07-15T11:31:58Z</time>
      </trkpt>
      <trkpt lat="43.95088" lon="6.9115">
        <ele>607.6</ele>
        <time>2025-07-15T11:32:00Z</time>
      </trkpt>
      <trkpt lat="43.9508" lon="6.91157">
        <ele>608.2</ele>
        <time>2025-07-15T11:32:04Z</time>
      </trkpt>
      <trkpt lat="43.95071" lon="6.91167">
        <ele>609.2</ele>
        <time>2025-07-15T11:32:09Z</time>
      </trkpt>
      <trkpt lat="43.95069" lon="6.9117">
        <ele>609.2</ele>
        <time>2025-07-15T11:32:10Z</time>
      </trkpt>
      <trkpt lat="43.95063" lon="6.91179">
        <ele>610.2</ele>
        <time>2025-07-15T11:32:14Z</time>
      </trkpt>
      <trkpt lat="43.95061" lon="6.91183">
        <ele>610.4</ele>
        <time>2025-07-15T11:32:15Z</time>
      </trkpt>
      <trkpt lat="43.95058" lon="6.91196">
        <ele>611.2</ele>
        <time>2025-07-15T11:32:19Z</time>
      </trkpt>
      <trkpt lat="43.95055" lon="6.91202">
        <ele>611.6</ele>
        <time>2025-07-15T11:32:21Z</time>
      </trkpt>
      <trkpt lat="43.95052" lon="6.91213">
        <ele>612.2</ele>
        <time>2025-07-15T11:32:25Z</time>
      </trkpt>
      <trkpt lat="43.9505" lon="6.91219">
        <ele>612.6</ele>
        <time>2025-07-15T11:32:27Z</time>
      </trkpt>
      <trkpt lat="43.95046" lon="6.91234">
        <ele>613.4</ele>
        <time>2025-07-15T11:32:31Z</time>
      </trkpt>
      <trkpt lat="43.95043" lon="6.9124">
        <ele>613.8</ele>
        <time>2025-07-15T11:32:33Z</time>
      </trkpt>
      <trkpt lat="43.95041" lon="6.91256">
        <ele>614.6</ele>
        <time>2025-07-15T11:32:37Z</time>
      </trkpt>
      <trkpt lat="43.95041" lon="6.9126">
        <ele>614.8</ele>
        <time>2025-07-15T11:32:38Z</time>
      </trkpt>
      <trkpt lat="43.95041" lon="6.91264">
        <ele>614.8</ele>
        <time>2025-07-15T11:32:39Z</time>
      </trkpt>
      <trkpt lat="43.95047" lon="6.91282">
        <ele>616</ele>
        <time>2025-07-15T11:32:45Z</time>
      </trkpt>
      <trkpt lat="43.95055" lon="6.91306">
        <ele>616.8</ele>
        <time>2025-07-15T11:32:53Z</time>
      </trkpt>
      <trkpt lat="43.95055" lon="6.91317">
        <ele>617</ele>
        <time>2025-07-15T11:32:56Z</time>
      </trkpt>
      <trkpt lat="43.95053" lon="6.91331">
        <ele>617.2</ele>
        <time>2025-07-15T11:33:00Z</time>
      </trkpt>
      <trkpt lat="43.9505" lon="6.91354">
        <ele>618</ele>
        <time>2025-07-15T11:33:06Z</time>
      </trkpt>
      <trkpt lat="43.95047" lon="6.91373">
        <ele>618.8</ele>
        <time>2025-07-15T11:33:11Z</time>
      </trkpt>
      <trkpt lat="43.95048" lon="6.91382">
        <ele>619.2</ele>
        <time>2025-07-15T11:33:13Z</time>
      </trkpt>
      <trkpt lat="43.9505" lon="6.914">
        <ele>620</ele>
        <time>2025-07-15T11:33:18Z</time>
      </trkpt>
      <trkpt lat="43.95051" lon="6.91403">
        <ele>620.4</ele>
        <time>2025-07-15T11:33:19Z</time>
      </trkpt>
      <trkpt lat="43.95056" lon="6.91422">
        <ele>621.4</ele>
        <time>2025-07-15T11:33:24Z</time>
      </trkpt>
      <trkpt lat="43.95058" lon="6.91433">
        <ele>622</ele>
        <time>2025-07-15T11:33:27Z</time>
      </trkpt>
      <trkpt lat="43.95058" lon="6.9144">
        <ele>622.2</ele>
        <time>2025-07-15T11:33:29Z</time>
      </trkpt>
      <trkpt lat="43.95063" lon="6.91456">
        <ele>623</ele>
        <time>2025-07-15T11:33:33Z</time>
      </trkpt>
      <trkpt lat="43.95065" lon="6.91463">
        <ele>623.4</ele>
        <time>2025-07-15T11:33:35Z</time>
      </trkpt>
      <trkpt lat="43.95073" lon="6.91488">
        <ele>624.2</ele>
        <time>2025-07-15T11:33:41Z</time>
      </trkpt>
      <trkpt lat="43.95075" lon="6.91495">
        <ele>624.4</ele>
        <time>2025-07-15T11:33:43Z</time>
      </trkpt>
      <trkpt lat="43.95074" lon="6.91514">
        <ele>625.2</ele>
        <time>2025-07-15T11:33:47Z</time>
      </trkpt>
      <trkpt lat="43.95073" lon="6.9153">
        <ele>625.8</ele>
        <time>2025-07-15T11:33:51Z</time>
      </trkpt>
      <trkpt lat="43.95071" lon="6.91557">
        <ele>626.6</ele>
        <time>2025-07-15T11:33:57Z</time>
      </trkpt>
      <trkpt lat="43.95071" lon="6.91562">
        <ele>627</ele>
        <time>2025-07-15T11:33:58Z</time>
      </trkpt>
      <trkpt lat="43.95068" lon="6.91584">
        <ele>627.6</ele>
        <time>2025-07-15T11:34:03Z</time>
      </trkpt>
      <trkpt lat="43.95067" lon="6.91598">
        <ele>628.2</ele>
        <time>2025-07-15T11:34:06Z</time>
      </trkpt>
      <trkpt lat="43.95069" lon="6.91632">
        <ele>628.8</ele>
        <time>2025-07-15T11:34:13Z</time>
      </trkpt>
      <trkpt lat="43.95073" lon="6.91658">
        <ele>629.2</ele>
        <time>2025-07-15T11:34:19Z</time>
      </trkpt>
      <trkpt lat="43.95072" lon="6.91662">
        <ele>629.2</ele>
        <time>2025-07-15T11:34:20Z</time>
      </trkpt>
      <trkpt lat="43.95069" lon="6.91664">
        <ele>629.2</ele>
        <time>2025-07-15T11:34:21Z</time>
      </trkpt>
      <trkpt lat="43.95067" lon="6.91663">
        <ele>629.2</ele>
        <time>2025-07-15T11:34:22Z</time>
      </trkpt>
      <trkpt lat="43.95065" lon="6.9166">
        <ele>629.4</ele>
        <time>2025-07-15T11:34:23Z</time>
      </trkpt>
      <trkpt lat="43.95064" lon="6.91652">
        <ele>629.6</ele>
        <time>2025-07-15T11:34:25Z</time>
      </trkpt>
      <trkpt lat="43.95063" lon="6.91611">
        <ele>630.4</ele>
        <time>2025-07-15T11:34:33Z</time>
      </trkpt>
      <trkpt lat="43.95063" lon="6.91577">
        <ele>631.2</ele>
        <time>2025-07-15T11:34:40Z</time>
      </trkpt>
      <trkpt lat="43.95063" lon="6.91563">
        <ele>631.6</ele>
        <time>2025-07-15T11:34:43Z</time>
      </trkpt>
      <trkpt lat="43.95063" lon="6.91541">
        <ele>632.2</ele>
        <time>2025-07-15T11:34:48Z</time>
      </trkpt>
      <trkpt lat="43.95062" lon="6.91528">
        <ele>632.6</ele>
        <time>2025-07-15T11:34:51Z</time>
      </trkpt>
      <trkpt lat="43.95059" lon="6.91508">
        <ele>633.2</ele>
        <time>2025-07-15T11:34:56Z</time>
      </trkpt>
      <trkpt lat="43.95055" lon="6.91496">
        <ele>633.6</ele>
        <time>2025-07-15T11:34:59Z</time>
      </trkpt>
      <trkpt lat="43.95047" lon="6.91471">
        <ele>634.4</ele>
        <time>2025-07-15T11:35:06Z</time>
      </trkpt>
      <trkpt lat="43.95043" lon="6.9146">
        <ele>634.8</ele>
        <time>2025-07-15T11:35:09Z</time>
      </trkpt>
      <trkpt lat="43.95036" lon="6.91439">
        <ele>635.4</ele>
        <time>2025-07-15T11:35:15Z</time>
      </trkpt>
      <trkpt lat="43.95034" lon="6.91433">
        <ele>636</ele>
        <time>2025-07-15T11:35:17Z</time>
      </trkpt>
      <trkpt lat="43.9503" lon="6.91417">
        <ele>636.8</ele>
        <time>2025-07-15T11:35:22Z</time>
      </trkpt>
      <trkpt lat="43.95028" lon="6.9141">
        <ele>637.2</ele>
        <time>2025-07-15T11:35:24Z</time>
      </trkpt>
      <trkpt lat="43.95022" lon="6.91391">
        <ele>638.2</ele>
        <time>2025-07-15T11:35:30Z</time>
      </trkpt>
      <trkpt lat="43.95015" lon="6.91371">
        <ele>639.2</ele>
        <time>2025-07-15T11:35:37Z</time>
      </trkpt>
      <trkpt lat="43.95007" lon="6.91351">
        <ele>640.4</ele>
        <time>2025-07-15T11:35:44Z</time>
      </trkpt>
      <trkpt lat="43.94998" lon="6.91324">
        <ele>641.6</ele>
        <time>2025-07-15T11:35:52Z</time>
      </trkpt>
      <trkpt lat="43.94991" lon="6.91303">
        <ele>642.4</ele>
        <time>2025-07-15T11:35:59Z</time>
      </trkpt>
      <trkpt lat="43.9499" lon="6.913">
        <ele>642.6</ele>
        <time>2025-07-15T11:36:00Z</time>
      </trkpt>
      <trkpt lat="43.94984" lon="6.91279">
        <ele>643.4</ele>
        <time>2025-07-15T11:36:06Z</time>
      </trkpt>
      <trkpt lat="43.94982" lon="6.91273">
        <ele>643.6</ele>
        <time>2025-07-15T11:36:08Z</time>
      </trkpt>
      <trkpt lat="43.94981" lon="6.91256">
        <ele>644.6</ele>
        <time>2025-07-15T11:36:13Z</time>
      </trkpt>
      <trkpt lat="43.94981" lon="6.91252">
        <ele>644.8</ele>
        <time>2025-07-15T11:36:14Z</time>
      </trkpt>
      <trkpt lat="43.94986" lon="6.91239">
        <ele>645.6</ele>
        <time>2025-07-15T11:36:18Z</time>
      </trkpt>
      <trkpt lat="43.94988" lon="6.91233">
        <ele>646</ele>
        <time>2025-07-15T11:36:20Z</time>
      </trkpt>
      <trkpt lat="43.94999" lon="6.91213">
        <ele>647</ele>
        <time>2025-07-15T11:36:27Z</time>
      </trkpt>
      <trkpt lat="43.95004" lon="6.91192">
        <ele>647.8</ele>
        <time>2025-07-15T11:36:33Z</time>
      </trkpt>
      <trkpt lat="43.95005" lon="6.91181">
        <ele>648.2</ele>
        <time>2025-07-15T11:36:36Z</time>
      </trkpt>
      <trkpt lat="43.95007" lon="6.91155">
        <ele>649.2</ele>
        <time>2025-07-15T11:36:43Z</time>
      </trkpt>
      <trkpt lat="43.95015" lon="6.91138">
        <ele>650.2</ele>
        <time>2025-07-15T11:36:49Z</time>
      </trkpt>
      <trkpt lat="43.95023" lon="6.91117">
        <ele>651</ele>
        <time>2025-07-15T11:36:56Z</time>
      </trkpt>
      <trkpt lat="43.95022" lon="6.91113">
        <ele>651.2</ele>
        <time>2025-07-15T11:36:57Z</time>
      </trkpt>
      <trkpt lat="43.95021" lon="6.9111">
        <ele>651.4</ele>
        <time>2025-07-15T11:36:58Z</time>
      </trkpt>
      <trkpt lat="43.95015" lon="6.91108">
        <ele>651.8</ele>
        <time>2025-07-15T11:37:00Z</time>
      </trkpt>
      <trkpt lat="43.95008" lon="6.91113">
        <ele>652.4</ele>
        <time>2025-07-15T11:37:03Z</time>
      </trkpt>
      <trkpt lat="43.95006" lon="6.91116">
        <ele>652.4</ele>
        <time>2025-07-15T11:37:04Z</time>
      </trkpt>
      <trkpt lat="43.94996" lon="6.91134">
        <ele>653.2</ele>
        <time>2025-07-15T11:37:10Z</time>
      </trkpt>
      <trkpt lat="43.94995" lon="6.91137">
        <ele>653.2</ele>
        <time>2025-07-15T11:37:11Z</time>
      </trkpt>
      <trkpt lat="43.94989" lon="6.9115">
        <ele>653.8</ele>
        <time>2025-07-15T11:37:15Z</time>
      </trkpt>
      <trkpt lat="43.94986" lon="6.91156">
        <ele>654.4</ele>
        <time>2025-07-15T11:37:17Z</time>
      </trkpt>
      <trkpt lat="43.94977" lon="6.91177">
        <ele>655.6</ele>
        <time>2025-07-15T11:37:24Z</time>
      </trkpt>
      <trkpt lat="43.94976" lon="6.91179">
        <ele>655.8</ele>
        <time>2025-07-15T11:37:25Z</time>
      </trkpt>
      <trkpt lat="43.94965" lon="6.91196">
        <ele>656.8</ele>
        <time>2025-07-15T11:37:32Z</time>
      </trkpt>
      <trkpt lat="43.94952" lon="6.91213">
        <ele>657.8</ele>
        <time>2025-07-15T11:37:39Z</time>
      </trkpt>
      <trkpt lat="43.94949" lon="6.91218">
        <ele>658.2</ele>
        <time>2025-07-15T11:37:41Z</time>
      </trkpt>
      <trkpt lat="43.94944" lon="6.91233">
        <ele>658.8</ele>
        <time>2025-07-15T11:37:46Z</time>
      </trkpt>
      <trkpt lat="43.94944" lon="6.91237">
        <ele>659</ele>
        <time>2025-07-15T11:37:47Z</time>
      </trkpt>
      <trkpt lat="43.94947" lon="6.91259">
        <ele>660</ele>
        <time>2025-07-15T11:37:53Z</time>
      </trkpt>
      <trkpt lat="43.94948" lon="6.91266">
        <ele>660.4</ele>
        <time>2025-07-15T11:37:55Z</time>
      </trkpt>
      <trkpt lat="43.94952" lon="6.91287">
        <ele>661.2</ele>
        <time>2025-07-15T11:38:01Z</time>
      </trkpt>
      <trkpt lat="43.94953" lon="6.9129">
        <ele>661.2</ele>
        <time>2025-07-15T11:38:02Z</time>
      </trkpt>
      <trkpt lat="43.94959" lon="6.91312">
        <ele>662.2</ele>
        <time>2025-07-15T11:38:09Z</time>
      </trkpt>
      <trkpt lat="43.9496" lon="6.91321">
        <ele>662.6</ele>
        <time>2025-07-15T11:38:11Z</time>
      </trkpt>
      <trkpt lat="43.9496" lon="6.91332">
        <ele>662.8</ele>
        <time>2025-07-15T11:38:14Z</time>
      </trkpt>
      <trkpt lat="43.94959" lon="6.91336">
        <ele>663.2</ele>
        <time>2025-07-15T11:38:15Z</time>
      </trkpt>
      <trkpt lat="43.94953" lon="6.91353">
        <ele>663.8</ele>
        <time>2025-07-15T11:38:20Z</time>
      </trkpt>
      <trkpt lat="43.9495" lon="6.91358">
        <ele>664.2</ele>
        <time>2025-07-15T11:38:22Z</time>
      </trkpt>
      <trkpt lat="43.94943" lon="6.91371">
        <ele>665</ele>
        <time>2025-07-15T11:38:27Z</time>
      </trkpt>
      <trkpt lat="43.9494" lon="6.91375">
        <ele>665.4</ele>
        <time>2025-07-15T11:38:29Z</time>
      </trkpt>
      <trkpt lat="43.94932" lon="6.91392">
        <ele>666.2</ele>
        <time>2025-07-15T11:38:35Z</time>
      </trkpt>
      <trkpt lat="43.9493" lon="6.91397">
        <ele>666.6</ele>
        <time>2025-07-15T11:38:37Z</time>
      </trkpt>
      <trkpt lat="43.94927" lon="6.91416">
        <ele>667.6</ele>
        <time>2025-07-15T11:38:43Z</time>
      </trkpt>
      <trkpt lat="43.94926" lon="6.91443">
        <ele>668.6</ele>
        <time>2025-07-15T11:38:51Z</time>
      </trkpt>
      <trkpt lat="43.94926" lon="6.91453">
        <ele>669</ele>
        <time>2025-07-15T11:38:54Z</time>
      </trkpt>
      <trkpt lat="43.94926" lon="6.91474">
        <ele>669.6</ele>
        <time>2025-07-15T11:39:00Z</time>
      </trkpt>
      <trkpt lat="43.94925" lon="6.91481">
        <ele>670</ele>
        <time>2025-07-15T11:39:02Z</time>
      </trkpt>
      <trkpt lat="43.94925" lon="6.91501">
        <ele>670.8</ele>
        <time>2025-07-15T11:39:08Z</time>
      </trkpt>
      <trkpt lat="43.94924" lon="6.9152">
        <ele>671.8</ele>
        <time>2025-07-15T11:39:13Z</time>
      </trkpt>
      <trkpt lat="43.94925" lon="6.91523">
        <ele>671.8</ele>
        <time>2025-07-15T11:39:14Z</time>
      </trkpt>
      <trkpt lat="43.94924" lon="6.9154">
        <ele>672.6</ele>
        <time>2025-07-15T11:39:19Z</time>
      </trkpt>
      <trkpt lat="43.94923" lon="6.91553">
        <ele>673</ele>
        <time>2025-07-15T11:39:23Z</time>
      </trkpt>
      <trkpt lat="43.94923" lon="6.91569">
        <ele>674</ele>
        <time>2025-07-15T11:39:28Z</time>
      </trkpt>
      <trkpt lat="43.94923" lon="6.91572">
        <ele>674.2</ele>
        <time>2025-07-15T11:39:29Z</time>
      </trkpt>
      <trkpt lat="43.94921" lon="6.91585">
        <ele>675.2</ele>
        <time>2025-07-15T11:39:34Z</time>
      </trkpt>
      <trkpt lat="43.94921" lon="6.91589">
        <ele>675.4</ele>
        <time>2025-07-15T11:39:35Z</time>
      </trkpt>
      <trkpt lat="43.94922" lon="6.91598">
        <ele>676</ele>
        <time>2025-07-15T11:39:38Z</time>
      </trkpt>
      <trkpt lat="43.94922" lon="6.91602">
        <ele>676.4</ele>
        <time>2025-07-15T11:39:39Z</time>
      </trkpt>
      <trkpt lat="43.94923" lon="6.91605">
        <ele>676.4</ele>
        <time>2025-07-15T11:39:40Z</time>
      </trkpt>
      <trkpt lat="43.94933" lon="6.91632">
        <ele>677.4</ele>
        <time>2025-07-15T11:39:48Z</time>
      </trkpt>
      <trkpt lat="43.94938" lon="6.91651">
        <ele>678.2</ele>
        <time>2025-07-15T11:39:54Z</time>
      </trkpt>
      <trkpt lat="43.9494" lon="6.91658">
        <ele>678.4</ele>
        <time>2025-07-15T11:39:56Z</time>
      </trkpt>
      <trkpt lat="43.94947" lon="6.9168">
        <ele>679.2</ele>
        <time>2025-07-15T11:40:03Z</time>
      </trkpt>
      <trkpt lat="43.94948" lon="6.91683">
        <ele>679.6</ele>
        <time>2025-07-15T11:40:04Z</time>
      </trkpt>
      <trkpt lat="43.94951" lon="6.91703">
        <ele>680.2</ele>
        <time>2025-07-15T11:40:10Z</time>
      </trkpt>
      <trkpt lat="43.94947" lon="6.91706">
        <ele>680.6</ele>
        <time>2025-07-15T11:40:12Z</time>
      </trkpt>
      <trkpt lat="43.94944" lon="6.91705">
        <ele>680.8</ele>
        <time>2025-07-15T11:40:13Z</time>
      </trkpt>
      <trkpt lat="43.94941" lon="6.91703">
        <ele>680.6</ele>
        <time>2025-07-15T11:40:14Z</time>
      </trkpt>
      <trkpt lat="43.94937" lon="6.91694">
        <ele>681.2</ele>
        <time>2025-07-15T11:40:17Z</time>
      </trkpt>
      <trkpt lat="43.94934" lon="6.91685">
        <ele>681.6</ele>
        <time>2025-07-15T11:40:20Z</time>
      </trkpt>
      <trkpt lat="43.94932" lon="6.91676">
        <ele>682.4</ele>
        <time>2025-07-15T11:40:23Z</time>
      </trkpt>
      <trkpt lat="43.94931" lon="6.91674">
        <ele>682.8</ele>
        <time>2025-07-15T11:40:24Z</time>
      </trkpt>
      <trkpt lat="43.94927" lon="6.91662">
        <ele>683.8</ele>
        <time>2025-07-15T11:40:29Z</time>
      </trkpt>
      <trkpt lat="43.94926" lon="6.91656">
        <ele>684</ele>
        <time>2025-07-15T11:40:31Z</time>
      </trkpt>
      <trkpt lat="43.94917" lon="6.91634">
        <ele>685</ele>
        <time>2025-07-15T11:40:38Z</time>
      </trkpt>
      <trkpt lat="43.94911" lon="6.91611">
        <ele>685.6</ele>
        <time>2025-07-15T11:40:45Z</time>
      </trkpt>
      <trkpt lat="43.94909" lon="6.916">
        <ele>686</ele>
        <time>2025-07-15T11:40:48Z</time>
      </trkpt>
      <trkpt lat="43.94903" lon="6.91582">
        <ele>687</ele>
        <time>2025-07-15T11:40:54Z</time>
      </trkpt>
      <trkpt lat="43.94901" lon="6.91579">
        <ele>687.2</ele>
        <time>2025-07-15T11:40:55Z</time>
      </trkpt>
      <trkpt lat="43.94892" lon="6.91558">
        <ele>687.8</ele>
        <time>2025-07-15T11:41:02Z</time>
      </trkpt>
      <trkpt lat="43.9489" lon="6.91555">
        <ele>687.8</ele>
        <time>2025-07-15T11:41:03Z</time>
      </trkpt>
      <trkpt lat="43.94889" lon="6.91552">
        <ele>688</ele>
        <time>2025-07-15T11:41:04Z</time>
      </trkpt>
      <trkpt lat="43.94877" lon="6.91529">
        <ele>688.8</ele>
        <time>2025-07-15T11:41:12Z</time>
      </trkpt>
      <trkpt lat="43.94876" lon="6.91527">
        <ele>689</ele>
        <time>2025-07-15T11:41:13Z</time>
      </trkpt>
      <trkpt lat="43.94868" lon="6.9151">
        <ele>689.8</ele>
        <time>2025-07-15T11:41:19Z</time>
      </trkpt>
      <trkpt lat="43.94866" lon="6.91505">
        <ele>690.4</ele>
        <time>2025-07-15T11:41:21Z</time>
      </trkpt>
      <trkpt lat="43.9486" lon="6.91491">
        <ele>691.4</ele>
        <time>2025-07-15T11:41:26Z</time>
      </trkpt>
      <trkpt lat="43.94859" lon="6.91488">
        <ele>691.4</ele>
        <time>2025-07-15T11:41:27Z</time>
      </trkpt>
      <trkpt lat="43.94855" lon="6.91473">
        <ele>692.6</ele>
        <time>2025-07-15T11:41:32Z</time>
      </trkpt>
      <trkpt lat="43.94854" lon="6.91463">
        <ele>693</ele>
        <time>2025-07-15T11:41:35Z</time>
      </trkpt>
      <trkpt lat="43.94851" lon="6.91451">
        <ele>693.8</ele>
        <time>2025-07-15T11:41:39Z</time>
      </trkpt>
      <trkpt lat="43.94847" lon="6.91433">
        <ele>694.8</ele>
        <time>2025-07-15T11:41:45Z</time>
      </trkpt>
      <trkpt lat="43.94843" lon="6.91411">
        <ele>695.8</ele>
        <time>2025-07-15T11:41:52Z</time>
      </trkpt>
      <trkpt lat="43.94842" lon="6.91405">
        <ele>696</ele>
        <time>2025-07-15T11:41:54Z</time>
      </trkpt>
      <trkpt lat="43.94839" lon="6.91382">
        <ele>696.8</ele>
        <time>2025-07-15T11:42:01Z</time>
      </trkpt>
      <trkpt lat="43.94836" lon="6.91359">
        <ele>697.8</ele>
        <time>2025-07-15T11:42:08Z</time>
      </trkpt>
      <trkpt lat="43.94834" lon="6.91345">
        <ele>698.4</ele>
        <time>2025-07-15T11:42:12Z</time>
      </trkpt>
      <trkpt lat="43.94833" lon="6.91336">
        <ele>698.8</ele>
        <time>2025-07-15T11:42:15Z</time>
      </trkpt>
      <trkpt lat="43.94827" lon="6.91315">
        <ele>700</ele>
        <time>2025-07-15T11:42:22Z</time>
      </trkpt>
      <trkpt lat="43.94826" lon="6.91312">
        <ele>700.2</ele>
        <time>2025-07-15T11:42:23Z</time>
      </trkpt>
      <trkpt lat="43.94818" lon="6.91289">
        <ele>701.2</ele>
        <time>2025-07-15T11:42:31Z</time>
      </trkpt>
      <trkpt lat="43.94816" lon="6.91282">
        <ele>701.6</ele>
        <time>2025-07-15T11:42:33Z</time>
      </trkpt>
      <trkpt lat="43.9481" lon="6.91268">
        <ele>702.2</ele>
        <time>2025-07-15T11:42:38Z</time>
      </trkpt>
      <trkpt lat="43.94804" lon="6.91253">
        <ele>703.2</ele>
        <time>2025-07-15T11:42:43Z</time>
      </trkpt>
      <trkpt lat="43.94803" lon="6.9125">
        <ele>703.2</ele>
        <time>2025-07-15T11:42:44Z</time>
      </trkpt>
      <trkpt lat="43.94802" lon="6.91247">
        <ele>703.4</ele>
        <time>2025-07-15T11:42:45Z</time>
      </trkpt>
      <trkpt lat="43.94795" lon="6.9123">
        <ele>704.4</ele>
        <time>2025-07-15T11:42:51Z</time>
      </trkpt>
      <trkpt lat="43.94794" lon="6.91227">
        <ele>704.4</ele>
        <time>2025-07-15T11:42:52Z</time>
      </trkpt>
      <trkpt lat="43.94787" lon="6.91202">
        <ele>705.6</ele>
        <time>2025-07-15T11:43:00Z</time>
      </trkpt>
      <trkpt lat="43.94786" lon="6.91199">
        <ele>705.8</ele>
        <time>2025-07-15T11:43:01Z</time>
      </trkpt>
      <trkpt lat="43.94784" lon="6.91186">
        <ele>706.8</ele>
        <time>2025-07-15T11:43:05Z</time>
      </trkpt>
      <trkpt lat="43.94783" lon="6.91162">
        <ele>707.4</ele>
        <time>2025-07-15T11:43:12Z</time>
      </trkpt>
      <trkpt lat="43.94783" lon="6.91155">
        <ele>707.6</ele>
        <time>2025-07-15T11:43:14Z</time>
      </trkpt>
      <trkpt lat="43.94783" lon="6.91131">
        <ele>708.8</ele>
        <time>2025-07-15T11:43:21Z</time>
      </trkpt>
      <trkpt lat="43.94783" lon="6.91127">
        <ele>708.8</ele>
        <time>2025-07-15T11:43:22Z</time>
      </trkpt>
      <trkpt lat="43.94782" lon="6.91103">
        <ele>709.8</ele>
        <time>2025-07-15T11:43:29Z</time>
      </trkpt>
      <trkpt lat="43.94782" lon="6.91096">
        <ele>710.2</ele>
        <time>2025-07-15T11:43:31Z</time>
      </trkpt>
      <trkpt lat="43.9478" lon="6.91078">
        <ele>711</ele>
        <time>2025-07-15T11:43:36Z</time>
      </trkpt>
      <trkpt lat="43.94779" lon="6.91076">
        <ele>711.2</ele>
        <time>2025-07-15T11:43:37Z</time>
      </trkpt>
      <trkpt lat="43.94775" lon="6.91056">
        <ele>712</ele>
        <time>2025-07-15T11:43:43Z</time>
      </trkpt>
      <trkpt lat="43.94772" lon="6.91044">
        <ele>712.8</ele>
        <time>2025-07-15T11:43:47Z</time>
      </trkpt>
      <trkpt lat="43.94766" lon="6.91033">
        <ele>713</ele>
        <time>2025-07-15T11:43:51Z</time>
      </trkpt>
      <trkpt lat="43.94761" lon="6.91025">
        <ele>713.4</ele>
        <time>2025-07-15T11:43:54Z</time>
      </trkpt>
      <trkpt lat="43.94749" lon="6.9101">
        <ele>714.2</ele>
        <time>2025-07-15T11:44:00Z</time>
      </trkpt>
      <trkpt lat="43.94739" lon="6.90995">
        <ele>715.2</ele>
        <time>2025-07-15T11:44:06Z</time>
      </trkpt>
      <trkpt lat="43.94734" lon="6.90986">
        <ele>715.4</ele>
        <time>2025-07-15T11:44:09Z</time>
      </trkpt>
      <trkpt lat="43.94721" lon="6.90965">
        <ele>716.2</ele>
        <time>2025-07-15T11:44:17Z</time>
      </trkpt>
      <trkpt lat="43.94718" lon="6.90958">
        <ele>716.6</ele>
        <time>2025-07-15T11:44:19Z</time>
      </trkpt>
      <trkpt lat="43.94712" lon="6.90944">
        <ele>717.4</ele>
        <time>2025-07-15T11:44:24Z</time>
      </trkpt>
      <trkpt lat="43.94706" lon="6.90924">
        <ele>718</ele>
        <time>2025-07-15T11:44:30Z</time>
      </trkpt>
      <trkpt lat="43.94704" lon="6.90914">
        <ele>718</ele>
        <time>2025-07-15T11:44:33Z</time>
      </trkpt>
      <trkpt lat="43.94704" lon="6.90907">
        <ele>718.4</ele>
        <time>2025-07-15T11:44:35Z</time>
      </trkpt>
      <trkpt lat="43.94703" lon="6.90897">
        <ele>718.6</ele>
        <time>2025-07-15T11:44:38Z</time>
      </trkpt>
      <trkpt lat="43.94704" lon="6.90883">
        <ele>719.4</ele>
        <time>2025-07-15T11:44:42Z</time>
      </trkpt>
      <trkpt lat="43.94705" lon="6.90866">
        <ele>720.6</ele>
        <time>2025-07-15T11:44:47Z</time>
      </trkpt>
      <trkpt lat="43.94706" lon="6.90862">
        <ele>720.6</ele>
        <time>2025-07-15T11:44:48Z</time>
      </trkpt>
      <trkpt lat="43.94707" lon="6.90842">
        <ele>721.8</ele>
        <time>2025-07-15T11:44:54Z</time>
      </trkpt>
      <trkpt lat="43.94707" lon="6.90837">
        <ele>722.4</ele>
        <time>2025-07-15T11:44:56Z</time>
      </trkpt>
      <trkpt lat="43.94708" lon="6.90822">
        <ele>723</ele>
        <time>2025-07-15T11:45:00Z</time>
      </trkpt>
      <trkpt lat="43.94708" lon="6.90813">
        <ele>724.2</ele>
        <time>2025-07-15T11:45:03Z</time>
      </trkpt>
      <trkpt lat="43.94708" lon="6.90805">
        <ele>724.4</ele>
        <time>2025-07-15T11:45:05Z</time>
      </trkpt>
      <trkpt lat="43.94704" lon="6.90792">
        <ele>725.2</ele>
        <time>2025-07-15T11:45:09Z</time>
      </trkpt>
      <trkpt lat="43.94699" lon="6.9078">
        <ele>725.8</ele>
        <time>2025-07-15T11:45:13Z</time>
      </trkpt>
      <trkpt lat="43.94692" lon="6.9077">
        <ele>726.4</ele>
        <time>2025-07-15T11:45:17Z</time>
      </trkpt>
      <trkpt lat="43.94685" lon="6.90761">
        <ele>727</ele>
        <time>2025-07-15T11:45:21Z</time>
      </trkpt>
      <trkpt lat="43.9468" lon="6.90754">
        <ele>727.4</ele>
        <time>2025-07-15T11:45:24Z</time>
      </trkpt>
      <trkpt lat="43.94668" lon="6.90737">
        <ele>728.4</ele>
        <time>2025-07-15T11:45:31Z</time>
      </trkpt>
      <trkpt lat="43.94658" lon="6.90713">
        <ele>729</ele>
        <time>2025-07-15T11:45:39Z</time>
      </trkpt>
      <trkpt lat="43.94652" lon="6.907">
        <ele>729.6</ele>
        <time>2025-07-15T11:45:43Z</time>
      </trkpt>
      <trkpt lat="43.94648" lon="6.90697">
        <ele>729.8</ele>
        <time>2025-07-15T11:45:45Z</time>
      </trkpt>
      <trkpt lat="43.94646" lon="6.90696">
        <ele>730</ele>
        <time>2025-07-15T11:45:46Z</time>
      </trkpt>
      <trkpt lat="43.94641" lon="6.90698">
        <ele>730</ele>
        <time>2025-07-15T11:45:48Z</time>
      </trkpt>
      <trkpt lat="43.94638" lon="6.90706">
        <ele>730.4</ele>
        <time>2025-07-15T11:45:50Z</time>
      </trkpt>
      <trkpt lat="43.9464" lon="6.90725">
        <ele>731</ele>
        <time>2025-07-15T11:45:55Z</time>
      </trkpt>
      <trkpt lat="43.94647" lon="6.90754">
        <ele>731.8</ele>
        <time>2025-07-15T11:46:03Z</time>
      </trkpt>
      <trkpt lat="43.94653" lon="6.90774">
        <ele>732.8</ele>
        <time>2025-07-15T11:46:09Z</time>
      </trkpt>
      <trkpt lat="43.94657" lon="6.90787">
        <ele>733.6</ele>
        <time>2025-07-15T11:46:13Z</time>
      </trkpt>
      <trkpt lat="43.94658" lon="6.90794">
        <ele>733.8</ele>
        <time>2025-07-15T11:46:14Z</time>
      </trkpt>
      <trkpt lat="43.94659" lon="6.90813">
        <ele>734.6</ele>
        <time>2025-07-15T11:46:20Z</time>
      </trkpt>
      <trkpt lat="43.94659" lon="6.90813">
        <ele>734.8</ele>
        <time>2025-07-15T11:46:21Z</time>
      </trkpt>
      <trkpt lat="43.94658" lon="6.90832">
        <ele>735.8</ele>
        <time>2025-07-15T11:46:26Z</time>
      </trkpt>
      <trkpt lat="43.94657" lon="6.90848">
        <ele>736.8</ele>
        <time>2025-07-15T11:46:31Z</time>
      </trkpt>
      <trkpt lat="43.94658" lon="6.90869">
        <ele>738</ele>
        <time>2025-07-15T11:46:37Z</time>
      </trkpt>
      <trkpt lat="43.94659" lon="6.90883">
        <ele>738.6</ele>
        <time>2025-07-15T11:46:41Z</time>
      </trkpt>
      <trkpt lat="43.94659" lon="6.90892">
        <ele>739</ele>
        <time>2025-07-15T11:46:44Z</time>
      </trkpt>
      <trkpt lat="43.94659" lon="6.90906">
        <ele>740.2</ele>
        <time>2025-07-15T11:46:50Z</time>
      </trkpt>
      <trkpt lat="43.94661" lon="6.90918">
        <ele>740.6</ele>
        <time>2025-07-15T11:46:53Z</time>
      </trkpt>
      <trkpt lat="43.94662" lon="6.90921">
        <ele>741.2</ele>
        <time>2025-07-15T11:46:55Z</time>
      </trkpt>
      <trkpt lat="43.94665" lon="6.9094">
        <ele>742</ele>
        <time>2025-07-15T11:47:00Z</time>
      </trkpt>
      <trkpt lat="43.94667" lon="6.90946">
        <ele>742.4</ele>
        <time>2025-07-15T11:47:02Z</time>
      </trkpt>
      <trkpt lat="43.94669" lon="6.90954">
        <ele>743.2</ele>
        <time>2025-07-15T11:47:05Z</time>
      </trkpt>
      <trkpt lat="43.94673" lon="6.90975">
        <ele>744.4</ele>
        <time>2025-07-15T11:47:12Z</time>
      </trkpt>
      <trkpt lat="43.94679" lon="6.90996">
        <ele>745.4</ele>
        <time>2025-07-15T11:47:19Z</time>
      </trkpt>
      <trkpt lat="43.9468" lon="6.90999">
        <ele>745.8</ele>
        <time>2025-07-15T11:47:21Z</time>
      </trkpt>
      <trkpt lat="43.94686" lon="6.9102">
        <ele>746.6</ele>
        <time>2025-07-15T11:47:27Z</time>
      </trkpt>
      <trkpt lat="43.94687" lon="6.91026">
        <ele>747</ele>
        <time>2025-07-15T11:47:30Z</time>
      </trkpt>
      <trkpt lat="43.94691" lon="6.91048">
        <ele>747.6</ele>
        <time>2025-07-15T11:47:36Z</time>
      </trkpt>
      <trkpt lat="43.94692" lon="6.91058">
        <ele>748</ele>
        <time>2025-07-15T11:47:39Z</time>
      </trkpt>
      <trkpt lat="43.94694" lon="6.91068">
        <ele>748.6</ele>
        <time>2025-07-15T11:47:43Z</time>
      </trkpt>
      <trkpt lat="43.94698" lon="6.91093">
        <ele>749.8</ele>
        <time>2025-07-15T11:47:50Z</time>
      </trkpt>
      <trkpt lat="43.947" lon="6.91107">
        <ele>750.6</ele>
        <time>2025-07-15T11:47:54Z</time>
      </trkpt>
      <trkpt lat="43.94702" lon="6.91123">
        <ele>752</ele>
        <time>2025-07-15T11:47:59Z</time>
      </trkpt>
      <trkpt lat="43.94702" lon="6.91126">
        <ele>752</ele>
        <time>2025-07-15T11:48:00Z</time>
      </trkpt>
      <trkpt lat="43.94703" lon="6.91144">
        <ele>753.2</ele>
        <time>2025-07-15T11:48:06Z</time>
      </trkpt>
      <trkpt lat="43.94703" lon="6.91154">
        <ele>753.8</ele>
        <time>2025-07-15T11:48:10Z</time>
      </trkpt>
      <trkpt lat="43.94702" lon="6.91169">
        <ele>754.4</ele>
        <time>2025-07-15T11:48:14Z</time>
      </trkpt>
      <trkpt lat="43.947" lon="6.91185">
        <ele>755</ele>
        <time>2025-07-15T11:48:19Z</time>
      </trkpt>
      <trkpt lat="43.947" lon="6.91191">
        <ele>755.4</ele>
        <time>2025-07-15T11:48:22Z</time>
      </trkpt>
      <trkpt lat="43.94698" lon="6.91217">
        <ele>756.6</ele>
        <time>2025-07-15T11:48:29Z</time>
      </trkpt>
      <trkpt lat="43.94698" lon="6.91217">
        <ele>756.6</ele>
        <time>2025-07-15T11:48:30Z</time>
      </trkpt>
      <trkpt lat="43.94697" lon="6.9124">
        <ele>757.6</ele>
        <time>2025-07-15T11:48:36Z</time>
      </trkpt>
      <trkpt lat="43.94695" lon="6.91259">
        <ele>758.6</ele>
        <time>2025-07-15T11:48:42Z</time>
      </trkpt>
      <trkpt lat="43.94694" lon="6.91277">
        <ele>759.8</ele>
        <time>2025-07-15T11:48:49Z</time>
      </trkpt>
      <trkpt lat="43.94693" lon="6.91289">
        <ele>760</ele>
        <time>2025-07-15T11:48:52Z</time>
      </trkpt>
      <trkpt lat="43.94692" lon="6.91305">
        <ele>761</ele>
        <time>2025-07-15T11:48:57Z</time>
      </trkpt>
      <trkpt lat="43.94692" lon="6.91319">
        <ele>761.6</ele>
        <time>2025-07-15T11:49:01Z</time>
      </trkpt>
      <trkpt lat="43.94693" lon="6.91329">
        <ele>762</ele>
        <time>2025-07-15T11:49:04Z</time>
      </trkpt>
      <trkpt lat="43.94693" lon="6.9135">
        <ele>763</ele>
        <time>2025-07-15T11:49:10Z</time>
      </trkpt>
      <trkpt lat="43.94694" lon="6.91353">
        <ele>763</ele>
        <time>2025-07-15T11:49:11Z</time>
      </trkpt>
      <trkpt lat="43.94696" lon="6.91366">
        <ele>764</ele>
        <time>2025-07-15T11:49:16Z</time>
      </trkpt>
      <trkpt lat="43.94696" lon="6.91378">
        <ele>764.8</ele>
        <time>2025-07-15T11:49:19Z</time>
      </trkpt>
      <trkpt lat="43.94698" lon="6.91388">
        <ele>765</ele>
        <time>2025-07-15T11:49:22Z</time>
      </trkpt>
      <trkpt lat="43.947" lon="6.91403">
        <ele>766.2</ele>
        <time>2025-07-15T11:49:27Z</time>
      </trkpt>
      <trkpt lat="43.94701" lon="6.91419">
        <ele>767</ele>
        <time>2025-07-15T11:49:32Z</time>
      </trkpt>
      <trkpt lat="43.94701" lon="6.91422">
        <ele>767.2</ele>
        <time>2025-07-15T11:49:33Z</time>
      </trkpt>
      <trkpt lat="43.94705" lon="6.91448">
        <ele>768.2</ele>
        <time>2025-07-15T11:49:41Z</time>
      </trkpt>
      <trkpt lat="43.94706" lon="6.91454">
        <ele>768.4</ele>
        <time>2025-07-15T11:49:43Z</time>
      </trkpt>
      <trkpt lat="43.94708" lon="6.91469">
        <ele>769.4</ele>
        <time>2025-07-15T11:49:48Z</time>
      </trkpt>
      <trkpt lat="43.9471" lon="6.91482">
        <ele>770.4</ele>
        <time>2025-07-15T11:49:53Z</time>
      </trkpt>
      <trkpt lat="43.94711" lon="6.91487">
        <ele>770.4</ele>
        <time>2025-07-15T11:49:54Z</time>
      </trkpt>
      <trkpt lat="43.94712" lon="6.91506">
        <ele>771.6</ele>
        <time>2025-07-15T11:50:00Z</time>
      </trkpt>
      <trkpt lat="43.94712" lon="6.91509">
        <ele>771.6</ele>
        <time>2025-07-15T11:50:01Z</time>
      </trkpt>
      <trkpt lat="43.94712" lon="6.91523">
        <ele>772.4</ele>
        <time>2025-07-15T11:50:06Z</time>
      </trkpt>
      <trkpt lat="43.94713" lon="6.91538">
        <ele>773.6</ele>
        <time>2025-07-15T11:50:11Z</time>
      </trkpt>
      <trkpt lat="43.94715" lon="6.91559">
        <ele>774.6</ele>
        <time>2025-07-15T11:50:18Z</time>
      </trkpt>
      <trkpt lat="43.94717" lon="6.91581">
        <ele>775.6</ele>
        <time>2025-07-15T11:50:25Z</time>
      </trkpt>
      <trkpt lat="43.94722" lon="6.91603">
        <ele>776.8</ele>
        <time>2025-07-15T11:50:32Z</time>
      </trkpt>
      <trkpt lat="43.94724" lon="6.91611">
        <ele>777.2</ele>
        <time>2025-07-15T11:50:35Z</time>
      </trkpt>
      <trkpt lat="43.94725" lon="6.91616">
        <ele>777.8</ele>
        <time>2025-07-15T11:50:38Z</time>
      </trkpt>
      <trkpt lat="43.94729" lon="6.9164">
        <ele>778.6</ele>
        <time>2025-07-15T11:50:45Z</time>
      </trkpt>
      <trkpt lat="43.94733" lon="6.91663">
        <ele>779.8</ele>
        <time>2025-07-15T11:50:52Z</time>
      </trkpt>
      <trkpt lat="43.94735" lon="6.91675">
        <ele>780.8</ele>
        <time>2025-07-15T11:50:56Z</time>
      </trkpt>
      <trkpt lat="43.94735" lon="6.91679">
        <ele>781</ele>
        <time>2025-07-15T11:50:57Z</time>
      </trkpt>
      <trkpt lat="43.94739" lon="6.91698">
        <ele>782</ele>
        <time>2025-07-15T11:51:04Z</time>
      </trkpt>
      <trkpt lat="43.9474" lon="6.91704">
        <ele>782.2</ele>
        <time>2025-07-15T11:51:05Z</time>
      </trkpt>
      <trkpt lat="43.94743" lon="6.91722">
        <ele>783.2</ele>
        <time>2025-07-15T11:51:11Z</time>
      </trkpt>
      <trkpt lat="43.94745" lon="6.91727">
        <ele>783.6</ele>
        <time>2025-07-15T11:51:13Z</time>
      </trkpt>
      <trkpt lat="43.94748" lon="6.91742">
        <ele>784.2</ele>
        <time>2025-07-15T11:51:18Z</time>
      </trkpt>
      <trkpt lat="43.9475" lon="6.91751">
        <ele>784.8</ele>
        <time>2025-07-15T11:51:21Z</time>
      </trkpt>
      <trkpt lat="43.94751" lon="6.91757">
        <ele>785.4</ele>
        <time>2025-07-15T11:51:24Z</time>
      </trkpt>
      <trkpt lat="43.94758" lon="6.91778">
        <ele>786.4</ele>
        <time>2025-07-15T11:51:30Z</time>
      </trkpt>
      <trkpt lat="43.94758" lon="6.91778">
        <ele>786.6</ele>
        <time>2025-07-15T11:51:31Z</time>
      </trkpt>
      <trkpt lat="43.94763" lon="6.918">
        <ele>787.8</ele>
        <time>2025-07-15T11:51:37Z</time>
      </trkpt>
      <trkpt lat="43.94763" lon="6.91806">
        <ele>788</ele>
        <time>2025-07-15T11:51:39Z</time>
      </trkpt>
      <trkpt lat="43.94762" lon="6.91809">
        <ele>788.4</ele>
        <time>2025-07-15T11:51:40Z</time>
      </trkpt>
      <trkpt lat="43.94759" lon="6.91817">
        <ele>788.8</ele>
        <time>2025-07-15T11:51:43Z</time>
      </trkpt>
      <trkpt lat="43.94758" lon="6.9182">
        <ele>789</ele>
        <time>2025-07-15T11:51:44Z</time>
      </trkpt>
      <trkpt lat="43.94754" lon="6.91827">
        <ele>790</ele>
        <time>2025-07-15T11:51:47Z</time>
      </trkpt>
      <trkpt lat="43.94746" lon="6.91838">
        <ele>790.8</ele>
        <time>2025-07-15T11:51:52Z</time>
      </trkpt>
      <trkpt lat="43.94744" lon="6.9184">
        <ele>791.2</ele>
        <time>2025-07-15T11:51:53Z</time>
      </trkpt>
      <trkpt lat="43.94733" lon="6.91849">
        <ele>792.2</ele>
        <time>2025-07-15T11:51:59Z</time>
      </trkpt>
      <trkpt lat="43.94723" lon="6.91858">
        <ele>793.4</ele>
        <time>2025-07-15T11:52:04Z</time>
      </trkpt>
      <trkpt lat="43.94717" lon="6.91863">
        <ele>793.8</ele>
        <time>2025-07-15T11:52:07Z</time>
      </trkpt>
      <trkpt lat="43.94713" lon="6.91865">
        <ele>794.4</ele>
        <time>2025-07-15T11:52:10Z</time>
      </trkpt>
      <trkpt lat="43.94702" lon="6.91876">
        <ele>795.6</ele>
        <time>2025-07-15T11:52:15Z</time>
      </trkpt>
      <trkpt lat="43.94691" lon="6.91888">
        <ele>796.6</ele>
        <time>2025-07-15T11:52:21Z</time>
      </trkpt>
      <trkpt lat="43.94689" lon="6.91893">
        <ele>797</ele>
        <time>2025-07-15T11:52:23Z</time>
      </trkpt>
      <trkpt lat="43.94681" lon="6.91904">
        <ele>797.8</ele>
        <time>2025-07-15T11:52:28Z</time>
      </trkpt>
      <trkpt lat="43.94673" lon="6.91916">
        <ele>798.6</ele>
        <time>2025-07-15T11:52:33Z</time>
      </trkpt>
      <trkpt lat="43.94671" lon="6.91918">
        <ele>798.8</ele>
        <time>2025-07-15T11:52:34Z</time>
      </trkpt>
      <trkpt lat="43.94658" lon="6.91934">
        <ele>800</ele>
        <time>2025-07-15T11:52:42Z</time>
      </trkpt>
      <trkpt lat="43.94657" lon="6.91936">
        <ele>800.2</ele>
        <time>2025-07-15T11:52:43Z</time>
      </trkpt>
      <trkpt lat="43.94647" lon="6.91945">
        <ele>801</ele>
        <time>2025-07-15T11:52:48Z</time>
      </trkpt>
      <trkpt lat="43.9464" lon="6.91953">
        <ele>802</ele>
        <time>2025-07-15T11:52:52Z</time>
      </trkpt>
      <trkpt lat="43.94638" lon="6.91955">
        <ele>802</ele>
        <time>2025-07-15T11:52:53Z</time>
      </trkpt>
      <trkpt lat="43.9463" lon="6.91961">
        <ele>802.8</ele>
        <time>2025-07-15T11:52:57Z</time>
      </trkpt>
      <trkpt lat="43.94623" lon="6.91966">
        <ele>803.6</ele>
        <time>2025-07-15T11:53:01Z</time>
      </trkpt>
      <trkpt lat="43.94615" lon="6.91971">
        <ele>803.8</ele>
        <time>2025-07-15T11:53:04Z</time>
      </trkpt>
      <trkpt lat="43.94606" lon="6.91973">
        <ele>804.4</ele>
        <time>2025-07-15T11:53:08Z</time>
      </trkpt>
      <trkpt lat="43.94598" lon="6.91974">
        <ele>804.8</ele>
        <time>2025-07-15T11:53:11Z</time>
      </trkpt>
      <trkpt lat="43.94589" lon="6.91975">
        <ele>805.4</ele>
        <time>2025-07-15T11:53:15Z</time>
      </trkpt>
      <trkpt lat="43.94582" lon="6.91977">
        <ele>806</ele>
        <time>2025-07-15T11:53:18Z</time>
      </trkpt>
      <trkpt lat="43.94566" lon="6.91979">
        <ele>806.8</ele>
        <time>2025-07-15T11:53:25Z</time>
      </trkpt>
      <trkpt lat="43.94564" lon="6.91979">
        <ele>807</ele>
        <time>2025-07-15T11:53:26Z</time>
      </trkpt>
      <trkpt lat="43.94549" lon="6.91983">
        <ele>808</ele>
        <time>2025-07-15T11:53:33Z</time>
      </trkpt>
      <trkpt lat="43.94542" lon="6.91985">
        <ele>808.8</ele>
        <time>2025-07-15T11:53:36Z</time>
      </trkpt>
      <trkpt lat="43.94537" lon="6.91986">
        <ele>809</ele>
        <time>2025-07-15T11:53:38Z</time>
      </trkpt>
      <trkpt lat="43.94521" lon="6.91989">
        <ele>810.2</ele>
        <time>2025-07-15T11:53:45Z</time>
      </trkpt>
      <trkpt lat="43.94518" lon="6.9199">
        <ele>810.4</ele>
        <time>2025-07-15T11:53:46Z</time>
      </trkpt>
      <trkpt lat="43.94502" lon="6.91994">
        <ele>811.2</ele>
        <time>2025-07-15T11:53:53Z</time>
      </trkpt>
      <trkpt lat="43.94493" lon="6.91996">
        <ele>812.2</ele>
        <time>2025-07-15T11:53:57Z</time>
      </trkpt>
      <trkpt lat="43.94491" lon="6.91996">
        <ele>812.4</ele>
        <time>2025-07-15T11:53:58Z</time>
      </trkpt>
      <trkpt lat="43.94474" lon="6.92">
        <ele>813.4</ele>
        <time>2025-07-15T11:54:05Z</time>
      </trkpt>
      <trkpt lat="43.9446" lon="6.92006">
        <ele>814.2</ele>
        <time>2025-07-15T11:54:11Z</time>
      </trkpt>
      <trkpt lat="43.94458" lon="6.92007">
        <ele>814.4</ele>
        <time>2025-07-15T11:54:12Z</time>
      </trkpt>
      <trkpt lat="43.94443" lon="6.92016">
        <ele>815.6</ele>
        <time>2025-07-15T11:54:19Z</time>
      </trkpt>
      <trkpt lat="43.94437" lon="6.92021">
        <ele>816</ele>
        <time>2025-07-15T11:54:22Z</time>
      </trkpt>
      <trkpt lat="43.94429" lon="6.92025">
        <ele>816.6</ele>
        <time>2025-07-15T11:54:26Z</time>
      </trkpt>
      <trkpt lat="43.94427" lon="6.92023">
        <ele>816.6</ele>
        <time>2025-07-15T11:54:27Z</time>
      </trkpt>
      <trkpt lat="43.94426" lon="6.9202">
        <ele>816.8</ele>
        <time>2025-07-15T11:54:28Z</time>
      </trkpt>
      <trkpt lat="43.94429" lon="6.92017">
        <ele>817</ele>
        <time>2025-07-15T11:54:30Z</time>
      </trkpt>
      <trkpt lat="43.94432" lon="6.92016">
        <ele>817.4</ele>
        <time>2025-07-15T11:54:31Z</time>
      </trkpt>
      <trkpt lat="43.94436" lon="6.92013">
        <ele>817.8</ele>
        <time>2025-07-15T11:54:33Z</time>
      </trkpt>
      <trkpt lat="43.9445" lon="6.92005">
        <ele>819</ele>
        <time>2025-07-15T11:54:39Z</time>
      </trkpt>
      <trkpt lat="43.94466" lon="6.91992">
        <ele>820.2</ele>
        <time>2025-07-15T11:54:47Z</time>
      </trkpt>
      <trkpt lat="43.9447" lon="6.9199">
        <ele>820.4</ele>
        <time>2025-07-15T11:54:49Z</time>
      </trkpt>
      <trkpt lat="43.94483" lon="6.91984">
        <ele>821.2</ele>
        <time>2025-07-15T11:54:55Z</time>
      </trkpt>
      <trkpt lat="43.94488" lon="6.91982">
        <ele>821.4</ele>
        <time>2025-07-15T11:54:57Z</time>
      </trkpt>
      <trkpt lat="43.945" lon="6.91975">
        <ele>822.2</ele>
        <time>2025-07-15T11:55:03Z</time>
      </trkpt>
      <trkpt lat="43.94516" lon="6.91967">
        <ele>823</ele>
        <time>2025-07-15T11:55:10Z</time>
      </trkpt>
      <trkpt lat="43.94523" lon="6.91964">
        <ele>823</ele>
        <time>2025-07-15T11:55:13Z</time>
      </trkpt>
      <trkpt lat="43.94537" lon="6.91958">
        <ele>824</ele>
        <time>2025-07-15T11:55:19Z</time>
      </trkpt>
      <trkpt lat="43.94539" lon="6.91956">
        <ele>824.2</ele>
        <time>2025-07-15T11:55:20Z</time>
      </trkpt>
      <trkpt lat="43.94555" lon="6.91948">
        <ele>825.4</ele>
        <time>2025-07-15T11:55:27Z</time>
      </trkpt>
      <trkpt lat="43.94577" lon="6.91933">
        <ele>826.4</ele>
        <time>2025-07-15T11:55:37Z</time>
      </trkpt>
      <trkpt lat="43.94594" lon="6.91915">
        <ele>827.4</ele>
        <time>2025-07-15T11:55:45Z</time>
      </trkpt>
      <trkpt lat="43.94595" lon="6.91913">
        <ele>827.4</ele>
        <time>2025-07-15T11:55:46Z</time>
      </trkpt>
      <trkpt lat="43.94606" lon="6.91895">
        <ele>828.4</ele>
        <time>2025-07-15T11:55:53Z</time>
      </trkpt>
      <trkpt lat="43.94618" lon="6.91878">
        <ele>829.6</ele>
        <time>2025-07-15T11:56:00Z</time>
      </trkpt>
      <trkpt lat="43.9462" lon="6.91876">
        <ele>829.8</ele>
        <time>2025-07-15T11:56:01Z</time>
      </trkpt>
      <trkpt lat="43.94628" lon="6.91864">
        <ele>830.6</ele>
        <time>2025-07-15T11:56:06Z</time>
      </trkpt>
      <trkpt lat="43.94632" lon="6.91859">
        <ele>830.8</ele>
        <time>2025-07-15T11:56:08Z</time>
      </trkpt>
      <trkpt lat="43.9464" lon="6.91847">
        <ele>831.8</ele>
        <time>2025-07-15T11:56:13Z</time>
      </trkpt>
      <trkpt lat="43.94641" lon="6.91845">
        <ele>832</ele>
        <time>2025-07-15T11:56:14Z</time>
      </trkpt>
      <trkpt lat="43.9465" lon="6.91833">
        <ele>833</ele>
        <time>2025-07-15T11:56:19Z</time>
      </trkpt>
      <trkpt lat="43.94657" lon="6.91825">
        <ele>833.6</ele>
        <time>2025-07-15T11:56:23Z</time>
      </trkpt>
      <trkpt lat="43.94663" lon="6.91818">
        <ele>834</ele>
        <time>2025-07-15T11:56:26Z</time>
      </trkpt>
      <trkpt lat="43.9468" lon="6.91801">
        <ele>835</ele>
        <time>2025-07-15T11:56:35Z</time>
      </trkpt>
      <trkpt lat="43.94684" lon="6.9179">
        <ele>835.6</ele>
        <time>2025-07-15T11:56:39Z</time>
      </trkpt>
      <trkpt lat="43.94684" lon="6.91787">
        <ele>835.6</ele>
        <time>2025-07-15T11:56:40Z</time>
      </trkpt>
      <trkpt lat="43.9468" lon="6.91783">
        <ele>836</ele>
        <time>2025-07-15T11:56:42Z</time>
      </trkpt>
      <trkpt lat="43.94677" lon="6.91782">
        <ele>836.2</ele>
        <time>2025-07-15T11:56:43Z</time>
      </trkpt>
      <trkpt lat="43.94674" lon="6.91782">
        <ele>836.6</ele>
        <time>2025-07-15T11:56:44Z</time>
      </trkpt>
      <trkpt lat="43.94663" lon="6.91793">
        <ele>837.2</ele>
        <time>2025-07-15T11:56:49Z</time>
      </trkpt>
      <trkpt lat="43.94661" lon="6.91796">
        <ele>837.4</ele>
        <time>2025-07-15T11:56:50Z</time>
      </trkpt>
      <trkpt lat="43.94652" lon="6.91809">
        <ele>837.4</ele>
        <time>2025-07-15T11:56:55Z</time>
      </trkpt>
      <trkpt lat="43.94644" lon="6.91818">
        <ele>837.8</ele>
        <time>2025-07-15T11:56:59Z</time>
      </trkpt>
      <trkpt lat="43.94642" lon="6.91819">
        <ele>838</ele>
        <time>2025-07-15T11:57:00Z</time>
      </trkpt>
      <trkpt lat="43.94636" lon="6.91825">
        <ele>838.4</ele>
        <time>2025-07-15T11:57:03Z</time>
      </trkpt>
      <trkpt lat="43.94627" lon="6.91834">
        <ele>838.8</ele>
        <time>2025-07-15T11:57:07Z</time>
      </trkpt>
      <trkpt lat="43.94618" lon="6.91842">
        <ele>839.6</ele>
        <time>2025-07-15T11:57:11Z</time>
      </trkpt>
      <trkpt lat="43.94615" lon="6.91844">
        <ele>839.8</ele>
        <time>2025-07-15T11:57:12Z</time>
      </trkpt>
      <trkpt lat="43.94601" lon="6.91859">
        <ele>840.6</ele>
        <time>2025-07-15T11:57:19Z</time>
      </trkpt>
      <trkpt lat="43.94601" lon="6.91859">
        <ele>840.8</ele>
        <time>2025-07-15T11:57:20Z</time>
      </trkpt>
      <trkpt lat="43.94583" lon="6.91875">
        <ele>841.8</ele>
        <time>2025-07-15T11:57:27Z</time>
      </trkpt>
      <trkpt lat="43.94583" lon="6.91875">
        <ele>841.8</ele>
        <time>2025-07-15T11:57:28Z</time>
      </trkpt>
      <trkpt lat="43.94566" lon="6.9189">
        <ele>843</ele>
        <time>2025-07-15T11:57:35Z</time>
      </trkpt>
      <trkpt lat="43.94561" lon="6.91892">
        <ele>843.2</ele>
        <time>2025-07-15T11:57:37Z</time>
      </trkpt>
      <trkpt lat="43.94549" lon="6.91899">
        <ele>844</ele>
        <time>2025-07-15T11:57:42Z</time>
      </trkpt>
      <trkpt lat="43.94539" lon="6.91902">
        <ele>844.4</ele>
        <time>2025-07-15T11:57:46Z</time>
      </trkpt>
      <trkpt lat="43.94524" lon="6.91906">
        <ele>845</ele>
        <time>2025-07-15T11:57:52Z</time>
      </trkpt>
      <trkpt lat="43.94511" lon="6.91911">
        <ele>846</ele>
        <time>2025-07-15T11:57:57Z</time>
      </trkpt>
      <trkpt lat="43.94509" lon="6.91911">
        <ele>846.4</ele>
        <time>2025-07-15T11:57:58Z</time>
      </trkpt>
      <trkpt lat="43.94489" lon="6.91919">
        <ele>847.2</ele>
        <time>2025-07-15T11:58:06Z</time>
      </trkpt>
      <trkpt lat="43.94484" lon="6.91921">
        <ele>847.6</ele>
        <time>2025-07-15T11:58:08Z</time>
      </trkpt>
      <trkpt lat="43.94477" lon="6.91924">
        <ele>848.2</ele>
        <time>2025-07-15T11:58:11Z</time>
      </trkpt>
      <trkpt lat="43.94461" lon="6.91931">
        <ele>849.4</ele>
        <time>2025-07-15T11:58:18Z</time>
      </trkpt>
      <trkpt lat="43.94447" lon="6.91937">
        <ele>850.4</ele>
        <time>2025-07-15T11:58:24Z</time>
      </trkpt>
      <trkpt lat="43.94445" lon="6.91938">
        <ele>850.6</ele>
        <time>2025-07-15T11:58:25Z</time>
      </trkpt>
      <trkpt lat="43.94431" lon="6.91944">
        <ele>851.4</ele>
        <time>2025-07-15T11:58:31Z</time>
      </trkpt>
      <trkpt lat="43.94421" lon="6.91946">
        <ele>852.6</ele>
        <time>2025-07-15T11:58:36Z</time>
      </trkpt>
      <trkpt lat="43.9441" lon="6.9194">
        <ele>853.6</ele>
        <time>2025-07-15T11:58:41Z</time>
      </trkpt>
      <trkpt lat="43.94407" lon="6.91937">
        <ele>854</ele>
        <time>2025-07-15T11:58:43Z</time>
      </trkpt>
      <trkpt lat="43.94403" lon="6.91932">
        <ele>854.6</ele>
        <time>2025-07-15T11:58:45Z</time>
      </trkpt>
      <trkpt lat="43.94393" lon="6.91921">
        <ele>855.8</ele>
        <time>2025-07-15T11:58:51Z</time>
      </trkpt>
      <trkpt lat="43.94382" lon="6.9191">
        <ele>856.8</ele>
        <time>2025-07-15T11:58:57Z</time>
      </trkpt>
      <trkpt lat="43.94377" lon="6.91904">
        <ele>857.4</ele>
        <time>2025-07-15T11:59:00Z</time>
      </trkpt>
      <trkpt lat="43.94371" lon="6.91895">
        <ele>858</ele>
        <time>2025-07-15T11:59:04Z</time>
      </trkpt>
      <trkpt lat="43.94369" lon="6.91893">
        <ele>858.2</ele>
        <time>2025-07-15T11:59:05Z</time>
      </trkpt>
      <trkpt lat="43.94359" lon="6.9188">
        <ele>859</ele>
        <time>2025-07-15T11:59:11Z</time>
      </trkpt>
      <trkpt lat="43.94358" lon="6.91877">
        <ele>859.2</ele>
        <time>2025-07-15T11:59:12Z</time>
      </trkpt>
      <trkpt lat="43.94353" lon="6.91865">
        <ele>860</ele>
        <time>2025-07-15T11:59:16Z</time>
      </trkpt>
      <trkpt lat="43.9435" lon="6.91856">
        <ele>860.4</ele>
        <time>2025-07-15T11:59:19Z</time>
      </trkpt>
      <trkpt lat="43.94346" lon="6.91848">
        <ele>861</ele>
        <time>2025-07-15T11:59:22Z</time>
      </trkpt>
      <trkpt lat="43.94337" lon="6.91841">
        <ele>861.6</ele>
        <time>2025-07-15T11:59:26Z</time>
      </trkpt>
      <trkpt lat="43.9433" lon="6.91839">
        <ele>862</ele>
        <time>2025-07-15T11:59:29Z</time>
      </trkpt>
      <trkpt lat="43.94321" lon="6.9184">
        <ele>862.8</ele>
        <time>2025-07-15T11:59:33Z</time>
      </trkpt>
      <trkpt lat="43.94316" lon="6.91843">
        <ele>863</ele>
        <time>2025-07-15T11:59:35Z</time>
      </trkpt>
      <trkpt lat="43.94306" lon="6.91853">
        <ele>863.6</ele>
        <time>2025-07-15T11:59:40Z</time>
      </trkpt>
      <trkpt lat="43.94301" lon="6.91861">
        <ele>864.2</ele>
        <time>2025-07-15T11:59:43Z</time>
      </trkpt>
      <trkpt lat="43.94299" lon="6.91863">
        <ele>864.2</ele>
        <time>2025-07-15T11:59:44Z</time>
      </trkpt>
      <trkpt lat="43.94292" lon="6.91876">
        <ele>864.8</ele>
        <time>2025-07-15T11:59:49Z</time>
      </trkpt>
      <trkpt lat="43.94288" lon="6.9188">
        <ele>865</ele>
        <time>2025-07-15T11:59:51Z</time>
      </trkpt>
      <trkpt lat="43.9428" lon="6.91892">
        <ele>866.2</ele>
        <time>2025-07-15T11:59:57Z</time>
      </trkpt>
      <trkpt lat="43.94272" lon="6.91901">
        <ele>866.8</ele>
        <time>2025-07-15T12:00:03Z</time>
      </trkpt>
      <trkpt lat="43.94272" lon="6.91901">
        <ele>867.2</ele>
        <time>2025-07-15T12:00:05Z</time>
      </trkpt>
      <trkpt lat="43.94272" lon="6.91901">
        <ele>867.4</ele>
        <time>2025-07-15T12:00:07Z</time>
      </trkpt>
      <trkpt lat="43.94279" lon="6.91901">
        <ele>867.6</ele>
        <time>2025-07-15T12:00:12Z</time>
      </trkpt>
      <trkpt lat="43.9429" lon="6.9189">
        <ele>867.4</ele>
        <time>2025-07-15T12:00:17Z</time>
      </trkpt>
      <trkpt lat="43.94291" lon="6.91883">
        <ele>867.2</ele>
        <time>2025-07-15T12:00:19Z</time>
      </trkpt>
      <trkpt lat="43.9429" lon="6.91881">
        <ele>867</ele>
        <time>2025-07-15T12:00:21Z</time>
      </trkpt>
      <trkpt lat="43.94288" lon="6.91881">
        <ele>866.4</ele>
        <time>2025-07-15T12:00:25Z</time>
      </trkpt>
      <trkpt lat="43.94281" lon="6.91893">
        <ele>866.2</ele>
        <time>2025-07-15T12:04:27Z</time>
      </trkpt>
      <trkpt lat="43.9427" lon="6.91904">
        <ele>866.6</ele>
        <time>2025-07-15T12:04:33Z</time>
      </trkpt>
      <trkpt lat="43.94259" lon="6.9192">
        <ele>867</ele>
        <time>2025-07-15T12:04:40Z</time>
      </trkpt>
      <trkpt lat="43.94256" lon="6.91923">
        <ele>867.4</ele>
        <time>2025-07-15T12:04:42Z</time>
      </trkpt>
      <trkpt lat="43.94247" lon="6.91932">
        <ele>868.2</ele>
        <time>2025-07-15T12:04:47Z</time>
      </trkpt>
      <trkpt lat="43.9424" lon="6.91935">
        <ele>868.4</ele>
        <time>2025-07-15T12:04:50Z</time>
      </trkpt>
      <trkpt lat="43.94232" lon="6.9194">
        <ele>869.2</ele>
        <time>2025-07-15T12:04:54Z</time>
      </trkpt>
      <trkpt lat="43.94223" lon="6.91945">
        <ele>870</ele>
        <time>2025-07-15T12:04:58Z</time>
      </trkpt>
      <trkpt lat="43.94221" lon="6.91946">
        <ele>870</ele>
        <time>2025-07-15T12:04:59Z</time>
      </trkpt>
      <trkpt lat="43.94211" lon="6.91954">
        <ele>871.2</ele>
        <time>2025-07-15T12:05:04Z</time>
      </trkpt>
      <trkpt lat="43.94208" lon="6.91959">
        <ele>871.8</ele>
        <time>2025-07-15T12:05:06Z</time>
      </trkpt>
      <trkpt lat="43.94203" lon="6.91974">
        <ele>872.4</ele>
        <time>2025-07-15T12:05:11Z</time>
      </trkpt>
      <trkpt lat="43.94201" lon="6.91982">
        <ele>872.8</ele>
        <time>2025-07-15T12:05:13Z</time>
      </trkpt>
      <trkpt lat="43.94198" lon="6.92001">
        <ele>873.6</ele>
        <time>2025-07-15T12:05:19Z</time>
      </trkpt>
      <trkpt lat="43.94196" lon="6.92027">
        <ele>874.2</ele>
        <time>2025-07-15T12:05:26Z</time>
      </trkpt>
      <trkpt lat="43.94196" lon="6.92037">
        <ele>874.6</ele>
        <time>2025-07-15T12:05:28Z</time>
      </trkpt>
      <trkpt lat="43.94192" lon="6.92055">
        <ele>875.2</ele>
        <time>2025-07-15T12:05:34Z</time>
      </trkpt>
      <trkpt lat="43.94191" lon="6.92061">
        <ele>875.6</ele>
        <time>2025-07-15T12:05:36Z</time>
      </trkpt>
      <trkpt lat="43.94188" lon="6.92081">
        <ele>876.4</ele>
        <time>2025-07-15T12:05:42Z</time>
      </trkpt>
      <trkpt lat="43.94187" lon="6.92084">
        <ele>876.4</ele>
        <time>2025-07-15T12:05:43Z</time>
      </trkpt>
      <trkpt lat="43.94185" lon="6.92107">
        <ele>877.4</ele>
        <time>2025-07-15T12:05:50Z</time>
      </trkpt>
      <trkpt lat="43.94185" lon="6.92114">
        <ele>877.6</ele>
        <time>2025-07-15T12:05:52Z</time>
      </trkpt>
      <trkpt lat="43.94191" lon="6.92138">
        <ele>878.2</ele>
        <time>2025-07-15T12:05:59Z</time>
      </trkpt>
      <trkpt lat="43.94196" lon="6.92159">
        <ele>879.4</ele>
        <time>2025-07-15T12:06:05Z</time>
      </trkpt>
      <trkpt lat="43.94198" lon="6.92168">
        <ele>879.8</ele>
        <time>2025-07-15T12:06:08Z</time>
      </trkpt>
      <trkpt lat="43.94197" lon="6.92185">
        <ele>880.4</ele>
        <time>2025-07-15T12:06:13Z</time>
      </trkpt>
      <trkpt lat="43.94197" lon="6.92192">
        <ele>880.6</ele>
        <time>2025-07-15T12:06:15Z</time>
      </trkpt>
      <trkpt lat="43.94194" lon="6.92208">
        <ele>881.6</ele>
        <time>2025-07-15T12:06:20Z</time>
      </trkpt>
      <trkpt lat="43.94191" lon="6.92215">
        <ele>882.2</ele>
        <time>2025-07-15T12:06:23Z</time>
      </trkpt>
      <trkpt lat="43.9419" lon="6.92221">
        <ele>882.6</ele>
        <time>2025-07-15T12:06:25Z</time>
      </trkpt>
      <trkpt lat="43.94187" lon="6.92242">
        <ele>883.4</ele>
        <time>2025-07-15T12:06:31Z</time>
      </trkpt>
      <trkpt lat="43.94187" lon="6.92245">
        <ele>883.8</ele>
        <time>2025-07-15T12:06:32Z</time>
      </trkpt>
      <trkpt lat="43.94187" lon="6.92265">
        <ele>884.6</ele>
        <time>2025-07-15T12:06:38Z</time>
      </trkpt>
      <trkpt lat="43.94185" lon="6.92287">
        <ele>885.6</ele>
        <time>2025-07-15T12:06:44Z</time>
      </trkpt>
      <trkpt lat="43.94184" lon="6.92292">
        <ele>885.8</ele>
        <time>2025-07-15T12:06:45Z</time>
      </trkpt>
      <trkpt lat="43.94185" lon="6.9231">
        <ele>886.8</ele>
        <time>2025-07-15T12:06:50Z</time>
      </trkpt>
      <trkpt lat="43.94183" lon="6.92324">
        <ele>887.2</ele>
        <time>2025-07-15T12:06:54Z</time>
      </trkpt>
      <trkpt lat="43.94182" lon="6.92342">
        <ele>887.8</ele>
        <time>2025-07-15T12:06:59Z</time>
      </trkpt>
      <trkpt lat="43.94182" lon="6.92344">
        <ele>887.8</ele>
        <time>2025-07-15T12:07:00Z</time>
      </trkpt>
      <trkpt lat="43.94181" lon="6.92351">
        <ele>888</ele>
        <time>2025-07-15T12:07:02Z</time>
      </trkpt>
      <trkpt lat="43.9418" lon="6.92358">
        <ele>888.6</ele>
        <time>2025-07-15T12:07:04Z</time>
      </trkpt>
      <trkpt lat="43.94179" lon="6.92376">
        <ele>889.6</ele>
        <time>2025-07-15T12:07:09Z</time>
      </trkpt>
      <trkpt lat="43.94178" lon="6.92383">
        <ele>889.8</ele>
        <time>2025-07-15T12:07:11Z</time>
      </trkpt>
      <trkpt lat="43.94178" lon="6.92404">
        <ele>890.8</ele>
        <time>2025-07-15T12:07:17Z</time>
      </trkpt>
      <trkpt lat="43.94178" lon="6.92412">
        <ele>891</ele>
        <time>2025-07-15T12:07:19Z</time>
      </trkpt>
      <trkpt lat="43.94177" lon="6.92428">
        <ele>891.6</ele>
        <time>2025-07-15T12:07:24Z</time>
      </trkpt>
      <trkpt lat="43.94178" lon="6.92436">
        <ele>892.2</ele>
        <time>2025-07-15T12:07:26Z</time>
      </trkpt>
      <trkpt lat="43.94179" lon="6.92463">
        <ele>893</ele>
        <time>2025-07-15T12:07:34Z</time>
      </trkpt>
      <trkpt lat="43.94179" lon="6.92467">
        <ele>893.2</ele>
        <time>2025-07-15T12:07:35Z</time>
      </trkpt>
      <trkpt lat="43.94179" lon="6.92488">
        <ele>894</ele>
        <time>2025-07-15T12:07:41Z</time>
      </trkpt>
      <trkpt lat="43.94179" lon="6.92494">
        <ele>894</ele>
        <time>2025-07-15T12:07:43Z</time>
      </trkpt>
      <trkpt lat="43.9418" lon="6.92513">
        <ele>894.6</ele>
        <time>2025-07-15T12:07:48Z</time>
      </trkpt>
      <trkpt lat="43.94181" lon="6.92524">
        <ele>895</ele>
        <time>2025-07-15T12:07:51Z</time>
      </trkpt>
      <trkpt lat="43.94182" lon="6.92538">
        <ele>895.6</ele>
        <time>2025-07-15T12:07:55Z</time>
      </trkpt>
      <trkpt lat="43.94183" lon="6.92548">
        <ele>896.2</ele>
        <time>2025-07-15T12:07:58Z</time>
      </trkpt>
      <trkpt lat="43.94184" lon="6.92569">
        <ele>897.2</ele>
        <time>2025-07-15T12:08:04Z</time>
      </trkpt>
      <trkpt lat="43.94184" lon="6.92573">
        <ele>897.2</ele>
        <time>2025-07-15T12:08:05Z</time>
      </trkpt>
      <trkpt lat="43.94185" lon="6.92597">
        <ele>898</ele>
        <time>2025-07-15T12:08:12Z</time>
      </trkpt>
      <trkpt lat="43.94185" lon="6.92603">
        <ele>898.4</ele>
        <time>2025-07-15T12:08:14Z</time>
      </trkpt>
      <trkpt lat="43.94185" lon="6.9262">
        <ele>899.2</ele>
        <time>2025-07-15T12:08:19Z</time>
      </trkpt>
      <trkpt lat="43.94185" lon="6.92628">
        <ele>899.4</ele>
        <time>2025-07-15T12:08:21Z</time>
      </trkpt>
      <trkpt lat="43.94184" lon="6.92653">
        <ele>900.4</ele>
        <time>2025-07-15T12:08:28Z</time>
      </trkpt>
      <trkpt lat="43.94179" lon="6.92678">
        <ele>901.4</ele>
        <time>2025-07-15T12:08:35Z</time>
      </trkpt>
      <trkpt lat="43.94178" lon="6.92682">
        <ele>901.6</ele>
        <time>2025-07-15T12:08:36Z</time>
      </trkpt>
      <trkpt lat="43.94172" lon="6.92697">
        <ele>902.4</ele>
        <time>2025-07-15T12:08:41Z</time>
      </trkpt>
      <trkpt lat="43.94167" lon="6.92721">
        <ele>903.6</ele>
        <time>2025-07-15T12:08:47Z</time>
      </trkpt>
      <trkpt lat="43.94164" lon="6.92735">
        <ele>904.4</ele>
        <time>2025-07-15T12:08:52Z</time>
      </trkpt>
      <trkpt lat="43.94164" lon="6.92737">
        <ele>904.6</ele>
        <time>2025-07-15T12:08:53Z</time>
      </trkpt>
      <trkpt lat="43.94163" lon="6.9274">
        <ele>904.8</ele>
        <time>2025-07-15T12:08:54Z</time>
      </trkpt>
      <trkpt lat="43.94155" lon="6.9276">
        <ele>905.6</ele>
        <time>2025-07-15T12:09:00Z</time>
      </trkpt>
      <trkpt lat="43.94153" lon="6.92766">
        <ele>906</ele>
        <time>2025-07-15T12:09:02Z</time>
      </trkpt>
      <trkpt lat="43.94151" lon="6.92783">
        <ele>907</ele>
        <time>2025-07-15T12:09:07Z</time>
      </trkpt>
      <trkpt lat="43.9415" lon="6.92787">
        <ele>907.2</ele>
        <time>2025-07-15T12:09:08Z</time>
      </trkpt>
      <trkpt lat="43.94149" lon="6.92804">
        <ele>907.8</ele>
        <time>2025-07-15T12:09:12Z</time>
      </trkpt>
      <trkpt lat="43.94148" lon="6.92812">
        <ele>908.2</ele>
        <time>2025-07-15T12:09:14Z</time>
      </trkpt>
      <trkpt lat="43.94147" lon="6.92834">
        <ele>909</ele>
        <time>2025-07-15T12:09:20Z</time>
      </trkpt>
      <trkpt lat="43.94146" lon="6.92841">
        <ele>909</ele>
        <time>2025-07-15T12:09:22Z</time>
      </trkpt>
      <trkpt lat="43.9414" lon="6.92853">
        <ele>909.6</ele>
        <time>2025-07-15T12:09:26Z</time>
      </trkpt>
      <trkpt lat="43.94136" lon="6.92861">
        <ele>910</ele>
        <time>2025-07-15T12:09:29Z</time>
      </trkpt>
      <trkpt lat="43.94132" lon="6.92869">
        <ele>910.8</ele>
        <time>2025-07-15T12:09:32Z</time>
      </trkpt>
      <trkpt lat="43.9413" lon="6.92874">
        <ele>911.2</ele>
        <time>2025-07-15T12:09:34Z</time>
      </trkpt>
      <trkpt lat="43.94124" lon="6.92897">
        <ele>912.2</ele>
        <time>2025-07-15T12:09:41Z</time>
      </trkpt>
      <trkpt lat="43.94124" lon="6.92924">
        <ele>913.2</ele>
        <time>2025-07-15T12:09:48Z</time>
      </trkpt>
      <trkpt lat="43.94125" lon="6.92927">
        <ele>913.4</ele>
        <time>2025-07-15T12:09:49Z</time>
      </trkpt>
      <trkpt lat="43.94128" lon="6.9295">
        <ele>914.4</ele>
        <time>2025-07-15T12:09:55Z</time>
      </trkpt>
      <trkpt lat="43.9413" lon="6.92964">
        <ele>915.2</ele>
        <time>2025-07-15T12:09:59Z</time>
      </trkpt>
      <trkpt lat="43.9413" lon="6.92969">
        <ele>915.4</ele>
        <time>2025-07-15T12:10:00Z</time>
      </trkpt>
      <trkpt lat="43.94126" lon="6.92986">
        <ele>916.2</ele>
        <time>2025-07-15T12:10:05Z</time>
      </trkpt>
      <trkpt lat="43.94123" lon="6.92992">
        <ele>916.8</ele>
        <time>2025-07-15T12:10:07Z</time>
      </trkpt>
      <trkpt lat="43.9411" lon="6.93004">
        <ele>917.8</ele>
        <time>2025-07-15T12:10:13Z</time>
      </trkpt>
      <trkpt lat="43.94096" lon="6.93019">
        <ele>919</ele>
        <time>2025-07-15T12:10:20Z</time>
      </trkpt>
      <trkpt lat="43.94094" lon="6.93021">
        <ele>919</ele>
        <time>2025-07-15T12:10:21Z</time>
      </trkpt>
      <trkpt lat="43.94087" lon="6.93028">
        <ele>920</ele>
        <time>2025-07-15T12:10:25Z</time>
      </trkpt>
      <trkpt lat="43.94085" lon="6.93031">
        <ele>920.2</ele>
        <time>2025-07-15T12:10:26Z</time>
      </trkpt>
      <trkpt lat="43.94075" lon="6.93044">
        <ele>921</ele>
        <time>2025-07-15T12:10:31Z</time>
      </trkpt>
      <trkpt lat="43.94074" lon="6.93046">
        <ele>921.2</ele>
        <time>2025-07-15T12:10:32Z</time>
      </trkpt>
      <trkpt lat="43.94063" lon="6.9306">
        <ele>922</ele>
        <time>2025-07-15T12:10:38Z</time>
      </trkpt>
      <trkpt lat="43.9406" lon="6.93061">
        <ele>922</ele>
        <time>2025-07-15T12:10:39Z</time>
      </trkpt>
      <trkpt lat="43.94057" lon="6.93061">
        <ele>922.2</ele>
        <time>2025-07-15T12:10:40Z</time>
      </trkpt>
      <trkpt lat="43.94047" lon="6.93058">
        <ele>922.8</ele>
        <time>2025-07-15T12:10:44Z</time>
      </trkpt>
      <trkpt lat="43.94044" lon="6.93057">
        <ele>923</ele>
        <time>2025-07-15T12:10:45Z</time>
      </trkpt>
      <trkpt lat="43.94032" lon="6.93061">
        <ele>924</ele>
        <time>2025-07-15T12:10:50Z</time>
      </trkpt>
      <trkpt lat="43.9403" lon="6.93063">
        <ele>924.2</ele>
        <time>2025-07-15T12:10:51Z</time>
      </trkpt>
      <trkpt lat="43.94023" lon="6.93081">
        <ele>925</ele>
        <time>2025-07-15T12:10:57Z</time>
      </trkpt>
      <trkpt lat="43.9402" lon="6.93102">
        <ele>926.2</ele>
        <time>2025-07-15T12:11:03Z</time>
      </trkpt>
      <trkpt lat="43.94019" lon="6.93105">
        <ele>926.6</ele>
        <time>2025-07-15T12:11:04Z</time>
      </trkpt>
      <trkpt lat="43.94007" lon="6.93115">
        <ele>927</ele>
        <time>2025-07-15T12:11:09Z</time>
      </trkpt>
      <trkpt lat="43.94002" lon="6.93116">
        <ele>927.6</ele>
        <time>2025-07-15T12:11:11Z</time>
      </trkpt>
      <trkpt lat="43.93994" lon="6.93113">
        <ele>927.8</ele>
        <time>2025-07-15T12:11:14Z</time>
      </trkpt>
      <trkpt lat="43.93986" lon="6.93105">
        <ele>928.6</ele>
        <time>2025-07-15T12:11:18Z</time>
      </trkpt>
      <trkpt lat="43.93975" lon="6.93091">
        <ele>929.4</ele>
        <time>2025-07-15T12:11:24Z</time>
      </trkpt>
      <trkpt lat="43.93975" lon="6.93091">
        <ele>929.6</ele>
        <time>2025-07-15T12:11:25Z</time>
      </trkpt>
      <trkpt lat="43.93962" lon="6.93076">
        <ele>930.4</ele>
        <time>2025-07-15T12:11:31Z</time>
      </trkpt>
      <trkpt lat="43.93958" lon="6.93071">
        <ele>930.8</ele>
        <time>2025-07-15T12:11:33Z</time>
      </trkpt>
      <trkpt lat="43.93946" lon="6.93063">
        <ele>931.6</ele>
        <time>2025-07-15T12:11:38Z</time>
      </trkpt>
      <trkpt lat="43.93941" lon="6.93062">
        <ele>932</ele>
        <time>2025-07-15T12:11:40Z</time>
      </trkpt>
      <trkpt lat="43.93927" lon="6.93063">
        <ele>932.8</ele>
        <time>2025-07-15T12:11:45Z</time>
      </trkpt>
      <trkpt lat="43.93917" lon="6.93068">
        <ele>933.4</ele>
        <time>2025-07-15T12:11:49Z</time>
      </trkpt>
      <trkpt lat="43.93914" lon="6.9307">
        <ele>933.6</ele>
        <time>2025-07-15T12:11:50Z</time>
      </trkpt>
      <trkpt lat="43.93907" lon="6.9308">
        <ele>934.8</ele>
        <time>2025-07-15T12:11:55Z</time>
      </trkpt>
      <trkpt lat="43.93906" lon="6.93082">
        <ele>935.2</ele>
        <time>2025-07-15T12:11:56Z</time>
      </trkpt>
      <trkpt lat="43.93902" lon="6.93092">
        <ele>936</ele>
        <time>2025-07-15T12:11:59Z</time>
      </trkpt>
      <trkpt lat="43.93893" lon="6.9311">
        <ele>937.2</ele>
        <time>2025-07-15T12:12:05Z</time>
      </trkpt>
      <trkpt lat="43.93888" lon="6.93125">
        <ele>937.8</ele>
        <time>2025-07-15T12:12:10Z</time>
      </trkpt>
      <trkpt lat="43.93886" lon="6.93129">
        <ele>938.4</ele>
        <time>2025-07-15T12:12:12Z</time>
      </trkpt>
      <trkpt lat="43.9388" lon="6.93144">
        <ele>939.2</ele>
        <time>2025-07-15T12:12:17Z</time>
      </trkpt>
      <trkpt lat="43.93879" lon="6.93147">
        <ele>939.4</ele>
        <time>2025-07-15T12:12:18Z</time>
      </trkpt>
      <trkpt lat="43.93874" lon="6.9316">
        <ele>940.4</ele>
        <time>2025-07-15T12:12:23Z</time>
      </trkpt>
      <trkpt lat="43.93871" lon="6.93166">
        <ele>940.8</ele>
        <time>2025-07-15T12:12:25Z</time>
      </trkpt>
      <trkpt lat="43.93865" lon="6.93176">
        <ele>941.6</ele>
        <time>2025-07-15T12:12:28Z</time>
      </trkpt>
      <trkpt lat="43.93861" lon="6.93186">
        <ele>941.8</ele>
        <time>2025-07-15T12:12:31Z</time>
      </trkpt>
      <trkpt lat="43.93858" lon="6.93197">
        <ele>942.4</ele>
        <time>2025-07-15T12:12:34Z</time>
      </trkpt>
      <trkpt lat="43.93852" lon="6.93214">
        <ele>943.4</ele>
        <time>2025-07-15T12:12:39Z</time>
      </trkpt>
      <trkpt lat="43.93846" lon="6.93221">
        <ele>943.6</ele>
        <time>2025-07-15T12:12:41Z</time>
      </trkpt>
      <trkpt lat="43.93838" lon="6.9323">
        <ele>944.6</ele>
        <time>2025-07-15T12:12:45Z</time>
      </trkpt>
      <trkpt lat="43.93834" lon="6.93233">
        <ele>944.8</ele>
        <time>2025-07-15T12:12:47Z</time>
      </trkpt>
      <trkpt lat="43.9383" lon="6.93234">
        <ele>945</ele>
        <time>2025-07-15T12:12:49Z</time>
      </trkpt>
      <trkpt lat="43.93823" lon="6.93237">
        <ele>945.4</ele>
        <time>2025-07-15T12:12:52Z</time>
      </trkpt>
      <trkpt lat="43.93817" lon="6.9324">
        <ele>946.2</ele>
        <time>2025-07-15T12:12:55Z</time>
      </trkpt>
      <trkpt lat="43.93814" lon="6.93241">
        <ele>946.4</ele>
        <time>2025-07-15T12:12:56Z</time>
      </trkpt>
      <trkpt lat="43.93798" lon="6.93246">
        <ele>947.6</ele>
        <time>2025-07-15T12:13:03Z</time>
      </trkpt>
      <trkpt lat="43.93785" lon="6.93251">
        <ele>949</ele>
        <time>2025-07-15T12:13:09Z</time>
      </trkpt>
      <trkpt lat="43.93781" lon="6.93252">
        <ele>949.2</ele>
        <time>2025-07-15T12:13:11Z</time>
      </trkpt>
      <trkpt lat="43.93772" lon="6.93254">
        <ele>950.2</ele>
        <time>2025-07-15T12:13:16Z</time>
      </trkpt>
      <trkpt lat="43.9377" lon="6.93253">
        <ele>950.4</ele>
        <time>2025-07-15T12:13:18Z</time>
      </trkpt>
      <trkpt lat="43.9377" lon="6.93252">
        <ele>950.8</ele>
        <time>2025-07-15T12:13:21Z</time>
      </trkpt>
      <trkpt lat="43.93766" lon="6.93252">
        <ele>952.6</ele>
        <time>2025-07-15T12:32:22Z</time>
      </trkpt>
      <trkpt lat="43.93764" lon="6.93253">
        <ele>952.6</ele>
        <time>2025-07-15T12:32:23Z</time>
      </trkpt>
      <trkpt lat="43.93748" lon="6.93253">
        <ele>952.4</ele>
        <time>2025-07-15T12:32:28Z</time>
      </trkpt>
      <trkpt lat="43.93739" lon="6.93254">
        <ele>952.4</ele>
        <time>2025-07-15T12:32:30Z</time>
      </trkpt>
      <trkpt lat="43.93726" lon="6.93254">
        <ele>952</ele>
        <time>2025-07-15T12:32:32Z</time>
      </trkpt>
      <trkpt lat="43.93704" lon="6.93253">
        <ele>951.4</ele>
        <time>2025-07-15T12:32:35Z</time>
      </trkpt>
      <trkpt lat="43.93698" lon="6.93254">
        <ele>951</ele>
        <time>2025-07-15T12:32:36Z</time>
      </trkpt>
      <trkpt lat="43.93688" lon="6.93261">
        <ele>950.4</ele>
        <time>2025-07-15T12:32:38Z</time>
      </trkpt>
      <trkpt lat="43.93683" lon="6.9327">
        <ele>950.2</ele>
        <time>2025-07-15T12:32:39Z</time>
      </trkpt>
      <trkpt lat="43.9368" lon="6.9328">
        <ele>949.6</ele>
        <time>2025-07-15T12:32:40Z</time>
      </trkpt>
      <trkpt lat="43.93675" lon="6.93315">
        <ele>948.4</ele>
        <time>2025-07-15T12:32:43Z</time>
      </trkpt>
      <trkpt lat="43.9367" lon="6.93353">
        <ele>947.4</ele>
        <time>2025-07-15T12:32:46Z</time>
      </trkpt>
      <trkpt lat="43.93666" lon="6.93376">
        <ele>946.2</ele>
        <time>2025-07-15T12:32:48Z</time>
      </trkpt>
      <trkpt lat="43.93661" lon="6.93404">
        <ele>945.6</ele>
        <time>2025-07-15T12:32:50Z</time>
      </trkpt>
      <trkpt lat="43.93657" lon="6.93416">
        <ele>945.4</ele>
        <time>2025-07-15T12:32:51Z</time>
      </trkpt>
      <trkpt lat="43.93652" lon="6.93426">
        <ele>944.8</ele>
        <time>2025-07-15T12:32:52Z</time>
      </trkpt>
      <trkpt lat="43.93647" lon="6.93433">
        <ele>944.2</ele>
        <time>2025-07-15T12:32:53Z</time>
      </trkpt>
      <trkpt lat="43.9364" lon="6.9344">
        <ele>943.6</ele>
        <time>2025-07-15T12:32:54Z</time>
      </trkpt>
      <trkpt lat="43.93631" lon="6.93449">
        <ele>942.6</ele>
        <time>2025-07-15T12:32:55Z</time>
      </trkpt>
      <trkpt lat="43.93624" lon="6.93458">
        <ele>942.4</ele>
        <time>2025-07-15T12:32:56Z</time>
      </trkpt>
      <trkpt lat="43.93618" lon="6.93468">
        <ele>942</ele>
        <time>2025-07-15T12:32:57Z</time>
      </trkpt>
      <trkpt lat="43.93609" lon="6.9349">
        <ele>941.2</ele>
        <time>2025-07-15T12:32:59Z</time>
      </trkpt>
      <trkpt lat="43.93601" lon="6.9352">
        <ele>940.2</ele>
        <time>2025-07-15T12:33:01Z</time>
      </trkpt>
      <trkpt lat="43.93593" lon="6.93555">
        <ele>938</ele>
        <time>2025-07-15T12:33:04Z</time>
      </trkpt>
      <trkpt lat="43.93588" lon="6.93565">
        <ele>937.6</ele>
        <time>2025-07-15T12:33:05Z</time>
      </trkpt>
      <trkpt lat="43.9358" lon="6.93573">
        <ele>936.8</ele>
        <time>2025-07-15T12:33:06Z</time>
      </trkpt>
      <trkpt lat="43.93566" lon="6.93585">
        <ele>935.4</ele>
        <time>2025-07-15T12:33:08Z</time>
      </trkpt>
      <trkpt lat="43.9356" lon="6.93591">
        <ele>935</ele>
        <time>2025-07-15T12:33:09Z</time>
      </trkpt>
      <trkpt lat="43.93552" lon="6.93613">
        <ele>934</ele>
        <time>2025-07-15T12:33:11Z</time>
      </trkpt>
      <trkpt lat="43.93552" lon="6.93637">
        <ele>932.8</ele>
        <time>2025-07-15T12:33:13Z</time>
      </trkpt>
      <trkpt lat="43.93554" lon="6.93647">
        <ele>932.2</ele>
        <time>2025-07-15T12:33:14Z</time>
      </trkpt>
      <trkpt lat="43.93554" lon="6.93658">
        <ele>931.6</ele>
        <time>2025-07-15T12:33:15Z</time>
      </trkpt>
      <trkpt lat="43.9355" lon="6.93672">
        <ele>931.2</ele>
        <time>2025-07-15T12:33:16Z</time>
      </trkpt>
      <trkpt lat="43.93545" lon="6.93682">
        <ele>930.4</ele>
        <time>2025-07-15T12:33:17Z</time>
      </trkpt>
      <trkpt lat="43.93541" lon="6.93693">
        <ele>930</ele>
        <time>2025-07-15T12:33:18Z</time>
      </trkpt>
      <trkpt lat="43.93538" lon="6.93703">
        <ele>929.2</ele>
        <time>2025-07-15T12:33:19Z</time>
      </trkpt>
      <trkpt lat="43.93536" lon="6.93716">
        <ele>928.4</ele>
        <time>2025-07-15T12:33:20Z</time>
      </trkpt>
      <trkpt lat="43.93534" lon="6.93731">
        <ele>928</ele>
        <time>2025-07-15T12:33:21Z</time>
      </trkpt>
      <trkpt lat="43.93531" lon="6.93744">
        <ele>927.4</ele>
        <time>2025-07-15T12:33:22Z</time>
      </trkpt>
      <trkpt lat="43.93528" lon="6.93757">
        <ele>927</ele>
        <time>2025-07-15T12:33:23Z</time>
      </trkpt>
      <trkpt lat="43.93518" lon="6.93796">
        <ele>925.2</ele>
        <time>2025-07-15T12:33:26Z</time>
      </trkpt>
      <trkpt lat="43.9351" lon="6.93821">
        <ele>923.8</ele>
        <time>2025-07-15T12:33:28Z</time>
      </trkpt>
      <trkpt lat="43.93504" lon="6.93845">
        <ele>922.8</ele>
        <time>2025-07-15T12:33:30Z</time>
      </trkpt>
      <trkpt lat="43.93502" lon="6.93861">
        <ele>922</ele>
        <time>2025-07-15T12:33:31Z</time>
      </trkpt>
      <trkpt lat="43.935" lon="6.93875">
        <ele>921.6</ele>
        <time>2025-07-15T12:33:32Z</time>
      </trkpt>
      <trkpt lat="43.93497" lon="6.93888">
        <ele>921</ele>
        <time>2025-07-15T12:33:33Z</time>
      </trkpt>
      <trkpt lat="43.93488" lon="6.9391">
        <ele>919.6</ele>
        <time>2025-07-15T12:33:35Z</time>
      </trkpt>
      <trkpt lat="43.93473" lon="6.93934">
        <ele>918.6</ele>
        <time>2025-07-15T12:33:37Z</time>
      </trkpt>
      <trkpt lat="43.93461" lon="6.93954">
        <ele>917.8</ele>
        <time>2025-07-15T12:33:39Z</time>
      </trkpt>
      <trkpt lat="43.93454" lon="6.93965">
        <ele>917</ele>
        <time>2025-07-15T12:33:40Z</time>
      </trkpt>
      <trkpt lat="43.93444" lon="6.93993">
        <ele>915.8</ele>
        <time>2025-07-15T12:33:42Z</time>
      </trkpt>
      <trkpt lat="43.9344" lon="6.94007">
        <ele>914.6</ele>
        <time>2025-07-15T12:33:43Z</time>
      </trkpt>
      <trkpt lat="43.93433" lon="6.9403">
        <ele>913.4</ele>
        <time>2025-07-15T12:33:45Z</time>
      </trkpt>
      <trkpt lat="43.93428" lon="6.94043">
        <ele>913</ele>
        <time>2025-07-15T12:33:46Z</time>
      </trkpt>
      <trkpt lat="43.93423" lon="6.94049">
        <ele>912.4</ele>
        <time>2025-07-15T12:33:47Z</time>
      </trkpt>
      <trkpt lat="43.93414" lon="6.94055">
        <ele>912.4</ele>
        <time>2025-07-15T12:33:48Z</time>
      </trkpt>
      <trkpt lat="43.93407" lon="6.94053">
        <ele>911.6</ele>
        <time>2025-07-15T12:33:49Z</time>
      </trkpt>
      <trkpt lat="43.93401" lon="6.94049">
        <ele>911.4</ele>
        <time>2025-07-15T12:33:50Z</time>
      </trkpt>
      <trkpt lat="43.93394" lon="6.94042">
        <ele>910.2</ele>
        <time>2025-07-15T12:33:51Z</time>
      </trkpt>
      <trkpt lat="43.93386" lon="6.94034">
        <ele>909.4</ele>
        <time>2025-07-15T12:33:52Z</time>
      </trkpt>
      <trkpt lat="43.93379" lon="6.94027">
        <ele>909</ele>
        <time>2025-07-15T12:33:53Z</time>
      </trkpt>
      <trkpt lat="43.93363" lon="6.94015">
        <ele>907.8</ele>
        <time>2025-07-15T12:33:55Z</time>
      </trkpt>
      <trkpt lat="43.93356" lon="6.94013">
        <ele>907.2</ele>
        <time>2025-07-15T12:33:56Z</time>
      </trkpt>
      <trkpt lat="43.93344" lon="6.94014">
        <ele>907</ele>
        <time>2025-07-15T12:33:57Z</time>
      </trkpt>
      <trkpt lat="43.93335" lon="6.94017">
        <ele>906.2</ele>
        <time>2025-07-15T12:33:58Z</time>
      </trkpt>
      <trkpt lat="43.93325" lon="6.94021">
        <ele>905.6</ele>
        <time>2025-07-15T12:33:59Z</time>
      </trkpt>
      <trkpt lat="43.93309" lon="6.94032">
        <ele>904.6</ele>
        <time>2025-07-15T12:34:01Z</time>
      </trkpt>
      <trkpt lat="43.93299" lon="6.94038">
        <ele>904.4</ele>
        <time>2025-07-15T12:34:02Z</time>
      </trkpt>
      <trkpt lat="43.9329" lon="6.94039">
        <ele>903.4</ele>
        <time>2025-07-15T12:34:03Z</time>
      </trkpt>
      <trkpt lat="43.93282" lon="6.94036">
        <ele>903</ele>
        <time>2025-07-15T12:34:04Z</time>
      </trkpt>
      <trkpt lat="43.93276" lon="6.94031">
        <ele>902.2</ele>
        <time>2025-07-15T12:34:05Z</time>
      </trkpt>
      <trkpt lat="43.93259" lon="6.9402">
        <ele>901.2</ele>
        <time>2025-07-15T12:34:07Z</time>
      </trkpt>
      <trkpt lat="43.93251" lon="6.9402">
        <ele>900.6</ele>
        <time>2025-07-15T12:34:08Z</time>
      </trkpt>
      <trkpt lat="43.93247" lon="6.94022">
        <ele>900.2</ele>
        <time>2025-07-15T12:34:09Z</time>
      </trkpt>
      <trkpt lat="43.93242" lon="6.94029">
        <ele>899.2</ele>
        <time>2025-07-15T12:34:10Z</time>
      </trkpt>
      <trkpt lat="43.9324" lon="6.94038">
        <ele>899</ele>
        <time>2025-07-15T12:34:11Z</time>
      </trkpt>
      <trkpt lat="43.93238" lon="6.94063">
        <ele>898</ele>
        <time>2025-07-15T12:34:13Z</time>
      </trkpt>
      <trkpt lat="43.93232" lon="6.94088">
        <ele>896.6</ele>
        <time>2025-07-15T12:34:15Z</time>
      </trkpt>
      <trkpt lat="43.93225" lon="6.94098">
        <ele>896.2</ele>
        <time>2025-07-15T12:34:16Z</time>
      </trkpt>
      <trkpt lat="43.93211" lon="6.94116">
        <ele>895.2</ele>
        <time>2025-07-15T12:34:18Z</time>
      </trkpt>
      <trkpt lat="43.93197" lon="6.94136">
        <ele>894</ele>
        <time>2025-07-15T12:34:20Z</time>
      </trkpt>
      <trkpt lat="43.9319" lon="6.94143">
        <ele>893.4</ele>
        <time>2025-07-15T12:34:21Z</time>
      </trkpt>
      <trkpt lat="43.93183" lon="6.94152">
        <ele>893</ele>
        <time>2025-07-15T12:34:22Z</time>
      </trkpt>
      <trkpt lat="43.93173" lon="6.94177">
        <ele>891.6</ele>
        <time>2025-07-15T12:34:24Z</time>
      </trkpt>
      <trkpt lat="43.93168" lon="6.94202">
        <ele>890.4</ele>
        <time>2025-07-15T12:34:26Z</time>
      </trkpt>
      <trkpt lat="43.93165" lon="6.94234">
        <ele>889.2</ele>
        <time>2025-07-15T12:34:28Z</time>
      </trkpt>
      <trkpt lat="43.93164" lon="6.94262">
        <ele>888.2</ele>
        <time>2025-07-15T12:34:30Z</time>
      </trkpt>
      <trkpt lat="43.93164" lon="6.94279">
        <ele>887.6</ele>
        <time>2025-07-15T12:34:31Z</time>
      </trkpt>
      <trkpt lat="43.93167" lon="6.94297">
        <ele>886.8</ele>
        <time>2025-07-15T12:34:32Z</time>
      </trkpt>
      <trkpt lat="43.9317" lon="6.94312">
        <ele>885.8</ele>
        <time>2025-07-15T12:34:33Z</time>
      </trkpt>
      <trkpt lat="43.93176" lon="6.94326">
        <ele>885.4</ele>
        <time>2025-07-15T12:34:34Z</time>
      </trkpt>
      <trkpt lat="43.9318" lon="6.94337">
        <ele>884.4</ele>
        <time>2025-07-15T12:34:35Z</time>
      </trkpt>
      <trkpt lat="43.93186" lon="6.94351">
        <ele>884.2</ele>
        <time>2025-07-15T12:34:36Z</time>
      </trkpt>
      <trkpt lat="43.93191" lon="6.94369">
        <ele>883.4</ele>
        <time>2025-07-15T12:34:37Z</time>
      </trkpt>
      <trkpt lat="43.93192" lon="6.94385">
        <ele>883</ele>
        <time>2025-07-15T12:34:38Z</time>
      </trkpt>
      <trkpt lat="43.93191" lon="6.94401">
        <ele>882</ele>
        <time>2025-07-15T12:34:39Z</time>
      </trkpt>
      <trkpt lat="43.9319" lon="6.94416">
        <ele>880.8</ele>
        <time>2025-07-15T12:34:40Z</time>
      </trkpt>
      <trkpt lat="43.93189" lon="6.94428">
        <ele>880.4</ele>
        <time>2025-07-15T12:34:41Z</time>
      </trkpt>
      <trkpt lat="43.93189" lon="6.94448">
        <ele>879.2</ele>
        <time>2025-07-15T12:34:42Z</time>
      </trkpt>
      <trkpt lat="43.93191" lon="6.9448">
        <ele>877.8</ele>
        <time>2025-07-15T12:34:44Z</time>
      </trkpt>
      <trkpt lat="43.93191" lon="6.94493">
        <ele>877.6</ele>
        <time>2025-07-15T12:34:45Z</time>
      </trkpt>
      <trkpt lat="43.9319" lon="6.94511">
        <ele>876.8</ele>
        <time>2025-07-15T12:34:46Z</time>
      </trkpt>
      <trkpt lat="43.93186" lon="6.94524">
        <ele>875.6</ele>
        <time>2025-07-15T12:34:47Z</time>
      </trkpt>
      <trkpt lat="43.93177" lon="6.94547">
        <ele>874.2</ele>
        <time>2025-07-15T12:34:49Z</time>
      </trkpt>
      <trkpt lat="43.93174" lon="6.9456">
        <ele>873.8</ele>
        <time>2025-07-15T12:34:50Z</time>
      </trkpt>
      <trkpt lat="43.93173" lon="6.94574">
        <ele>872.8</ele>
        <time>2025-07-15T12:34:51Z</time>
      </trkpt>
      <trkpt lat="43.93174" lon="6.94607">
        <ele>871.4</ele>
        <time>2025-07-15T12:34:53Z</time>
      </trkpt>
      <trkpt lat="43.93174" lon="6.94623">
        <ele>870.2</ele>
        <time>2025-07-15T12:34:54Z</time>
      </trkpt>
      <trkpt lat="43.93175" lon="6.94656">
        <ele>868.6</ele>
        <time>2025-07-15T12:34:56Z</time>
      </trkpt>
      <trkpt lat="43.93174" lon="6.9469">
        <ele>867.2</ele>
        <time>2025-07-15T12:34:58Z</time>
      </trkpt>
      <trkpt lat="43.93171" lon="6.94724">
        <ele>865.8</ele>
        <time>2025-07-15T12:35:00Z</time>
      </trkpt>
      <trkpt lat="43.93166" lon="6.94754">
        <ele>864.4</ele>
        <time>2025-07-15T12:35:02Z</time>
      </trkpt>
      <trkpt lat="43.93165" lon="6.94768">
        <ele>863.2</ele>
        <time>2025-07-15T12:35:03Z</time>
      </trkpt>
      <trkpt lat="43.93162" lon="6.94792">
        <ele>862</ele>
        <time>2025-07-15T12:35:05Z</time>
      </trkpt>
      <trkpt lat="43.93161" lon="6.94804">
        <ele>861.6</ele>
        <time>2025-07-15T12:35:06Z</time>
      </trkpt>
      <trkpt lat="43.93158" lon="6.94816">
        <ele>860.8</ele>
        <time>2025-07-15T12:35:07Z</time>
      </trkpt>
      <trkpt lat="43.93155" lon="6.94824">
        <ele>860.6</ele>
        <time>2025-07-15T12:35:08Z</time>
      </trkpt>
      <trkpt lat="43.93149" lon="6.9483">
        <ele>859.4</ele>
        <time>2025-07-15T12:35:09Z</time>
      </trkpt>
      <trkpt lat="43.93143" lon="6.94832">
        <ele>858.6</ele>
        <time>2025-07-15T12:35:10Z</time>
      </trkpt>
      <trkpt lat="43.93137" lon="6.9483">
        <ele>858.2</ele>
        <time>2025-07-15T12:35:11Z</time>
      </trkpt>
      <trkpt lat="43.93131" lon="6.94824">
        <ele>857.4</ele>
        <time>2025-07-15T12:35:12Z</time>
      </trkpt>
      <trkpt lat="43.93124" lon="6.94817">
        <ele>857.2</ele>
        <time>2025-07-15T12:35:13Z</time>
      </trkpt>
      <trkpt lat="43.93117" lon="6.94813">
        <ele>856.6</ele>
        <time>2025-07-15T12:35:14Z</time>
      </trkpt>
      <trkpt lat="43.93106" lon="6.94813">
        <ele>856</ele>
        <time>2025-07-15T12:35:16Z</time>
      </trkpt>
      <trkpt lat="43.93083" lon="6.94823">
        <ele>855.4</ele>
        <time>2025-07-15T12:35:19Z</time>
      </trkpt>
      <trkpt lat="43.9307" lon="6.94825">
        <ele>855</ele>
        <time>2025-07-15T12:35:21Z</time>
      </trkpt>
      <trkpt lat="43.93047" lon="6.94824">
        <ele>854.8</ele>
        <time>2025-07-15T12:35:24Z</time>
      </trkpt>
      <trkpt lat="43.93033" lon="6.94825">
        <ele>854.6</ele>
        <time>2025-07-15T12:35:26Z</time>
      </trkpt>
      <trkpt lat="43.93024" lon="6.94828">
        <ele>854.4</ele>
        <time>2025-07-15T12:35:27Z</time>
      </trkpt>
      <trkpt lat="43.93009" lon="6.94831">
        <ele>854</ele>
        <time>2025-07-15T12:35:29Z</time>
      </trkpt>
      <trkpt lat="43.92995" lon="6.94826">
        <ele>854</ele>
        <time>2025-07-15T12:35:31Z</time>
      </trkpt>
      <trkpt lat="43.92986" lon="6.94822">
        <ele>853.8</ele>
        <time>2025-07-15T12:35:32Z</time>
      </trkpt>
      <trkpt lat="43.92979" lon="6.94821">
        <ele>853.8</ele>
        <time>2025-07-15T12:35:33Z</time>
      </trkpt>
      <trkpt lat="43.92971" lon="6.94823">
        <ele>853.6</ele>
        <time>2025-07-15T12:35:34Z</time>
      </trkpt>
      <trkpt lat="43.92965" lon="6.94828">
        <ele>853.4</ele>
        <time>2025-07-15T12:35:35Z</time>
      </trkpt>
      <trkpt lat="43.92961" lon="6.94835">
        <ele>853.2</ele>
        <time>2025-07-15T12:35:36Z</time>
      </trkpt>
      <trkpt lat="43.92958" lon="6.94844">
        <ele>853</ele>
        <time>2025-07-15T12:35:37Z</time>
      </trkpt>
      <trkpt lat="43.92959" lon="6.94867">
        <ele>852.8</ele>
        <time>2025-07-15T12:35:39Z</time>
      </trkpt>
      <trkpt lat="43.9296" lon="6.94886">
        <ele>852.6</ele>
        <time>2025-07-15T12:35:41Z</time>
      </trkpt>
      <trkpt lat="43.92959" lon="6.94897">
        <ele>852.4</ele>
        <time>2025-07-15T12:35:42Z</time>
      </trkpt>
      <trkpt lat="43.92956" lon="6.9491">
        <ele>852.4</ele>
        <time>2025-07-15T12:35:43Z</time>
      </trkpt>
      <trkpt lat="43.92947" lon="6.94937">
        <ele>851.8</ele>
        <time>2025-07-15T12:35:46Z</time>
      </trkpt>
      <trkpt lat="43.92942" lon="6.94947">
        <ele>851.6</ele>
        <time>2025-07-15T12:35:47Z</time>
      </trkpt>
      <trkpt lat="43.92929" lon="6.9498">
        <ele>851.4</ele>
        <time>2025-07-15T12:35:51Z</time>
      </trkpt>
      <trkpt lat="43.92925" lon="6.9499">
        <ele>851.2</ele>
        <time>2025-07-15T12:35:52Z</time>
      </trkpt>
      <trkpt lat="43.9292" lon="6.95008">
        <ele>851.2</ele>
        <time>2025-07-15T12:35:54Z</time>
      </trkpt>
      <trkpt lat="43.92916" lon="6.95015">
        <ele>851.2</ele>
        <time>2025-07-15T12:35:55Z</time>
      </trkpt>
      <trkpt lat="43.9291" lon="6.95023">
        <ele>851.2</ele>
        <time>2025-07-15T12:35:56Z</time>
      </trkpt>
      <trkpt lat="43.92893" lon="6.9503">
        <ele>851</ele>
        <time>2025-07-15T12:35:58Z</time>
      </trkpt>
      <trkpt lat="43.92864" lon="6.9503">
        <ele>850.8</ele>
        <time>2025-07-15T12:36:02Z</time>
      </trkpt>
      <trkpt lat="43.9285" lon="6.95029">
        <ele>850.6</ele>
        <time>2025-07-15T12:36:04Z</time>
      </trkpt>
      <trkpt lat="43.92838" lon="6.95028">
        <ele>850.6</ele>
        <time>2025-07-15T12:36:06Z</time>
      </trkpt>
      <trkpt lat="43.92823" lon="6.95027">
        <ele>850.4</ele>
        <time>2025-07-15T12:36:08Z</time>
      </trkpt>
      <trkpt lat="43.92817" lon="6.95024">
        <ele>850.4</ele>
        <time>2025-07-15T12:36:09Z</time>
      </trkpt>
      <trkpt lat="43.92798" lon="6.95013">
        <ele>850.2</ele>
        <time>2025-07-15T12:36:12Z</time>
      </trkpt>
      <trkpt lat="43.92787" lon="6.95003">
        <ele>850</ele>
        <time>2025-07-15T12:36:14Z</time>
      </trkpt>
      <trkpt lat="43.92756" lon="6.94972">
        <ele>849.6</ele>
        <time>2025-07-15T12:36:20Z</time>
      </trkpt>
      <trkpt lat="43.92747" lon="6.94961">
        <ele>849.4</ele>
        <time>2025-07-15T12:36:22Z</time>
      </trkpt>
      <trkpt lat="43.92735" lon="6.94954">
        <ele>849.4</ele>
        <time>2025-07-15T12:36:24Z</time>
      </trkpt>
      <trkpt lat="43.92731" lon="6.94952">
        <ele>849.4</ele>
        <time>2025-07-15T12:36:25Z</time>
      </trkpt>
      <trkpt lat="43.92709" lon="6.94946">
        <ele>849.2</ele>
        <time>2025-07-15T12:36:30Z</time>
      </trkpt>
      <trkpt lat="43.92689" lon="6.94941">
        <ele>849.2</ele>
        <time>2025-07-15T12:36:36Z</time>
      </trkpt>
      <trkpt lat="43.92664" lon="6.94937">
        <ele>848.8</ele>
        <time>2025-07-15T12:36:44Z</time>
      </trkpt>
      <trkpt lat="43.92657" lon="6.94938">
        <ele>848.6</ele>
        <time>2025-07-15T12:36:48Z</time>
      </trkpt>
      <trkpt lat="43.92656" lon="6.94939">
        <ele>848.4</ele>
        <time>2025-07-15T12:36:49Z</time>
      </trkpt>
      <trkpt lat="43.92655" lon="6.94939">
        <ele>848.4</ele>
        <time>2025-07-15T12:36:51Z</time>
      </trkpt>
      <trkpt lat="43.92653" lon="6.94949">
        <ele>848.6</ele>
        <time>2025-07-15T12:42:06Z</time>
      </trkpt>
      <trkpt lat="43.92641" lon="6.94952">
        <ele>848.6</ele>
        <time>2025-07-15T12:42:11Z</time>
      </trkpt>
      <trkpt lat="43.92632" lon="6.94957">
        <ele>848.4</ele>
        <time>2025-07-15T12:42:14Z</time>
      </trkpt>
      <trkpt lat="43.92617" lon="6.94968">
        <ele>848.2</ele>
        <time>2025-07-15T12:42:18Z</time>
      </trkpt>
      <trkpt lat="43.92604" lon="6.94976">
        <ele>847.8</ele>
        <time>2025-07-15T12:42:21Z</time>
      </trkpt>
      <trkpt lat="43.92591" lon="6.94978">
        <ele>847.4</ele>
        <time>2025-07-15T12:42:23Z</time>
      </trkpt>
      <trkpt lat="43.9258" lon="6.94968">
        <ele>846.8</ele>
        <time>2025-07-15T12:42:25Z</time>
      </trkpt>
      <trkpt lat="43.92576" lon="6.9496">
        <ele>846.6</ele>
        <time>2025-07-15T12:42:26Z</time>
      </trkpt>
      <trkpt lat="43.92573" lon="6.94954">
        <ele>846.2</ele>
        <time>2025-07-15T12:42:27Z</time>
      </trkpt>
      <trkpt lat="43.92559" lon="6.94928">
        <ele>844.8</ele>
        <time>2025-07-15T12:42:30Z</time>
      </trkpt>
      <trkpt lat="43.92545" lon="6.94902">
        <ele>844</ele>
        <time>2025-07-15T12:42:33Z</time>
      </trkpt>
      <trkpt lat="43.92536" lon="6.94884">
        <ele>843</ele>
        <time>2025-07-15T12:42:35Z</time>
      </trkpt>
      <trkpt lat="43.92521" lon="6.94857">
        <ele>842.2</ele>
        <time>2025-07-15T12:42:38Z</time>
      </trkpt>
      <trkpt lat="43.92515" lon="6.9485">
        <ele>842</ele>
        <time>2025-07-15T12:42:39Z</time>
      </trkpt>
      <trkpt lat="43.92508" lon="6.94844">
        <ele>842</ele>
        <time>2025-07-15T12:42:40Z</time>
      </trkpt>
      <trkpt lat="43.92494" lon="6.94838">
        <ele>841.2</ele>
        <time>2025-07-15T12:42:42Z</time>
      </trkpt>
      <trkpt lat="43.92483" lon="6.94837">
        <ele>840.8</ele>
        <time>2025-07-15T12:42:43Z</time>
      </trkpt>
      <trkpt lat="43.92456" lon="6.94837">
        <ele>838.6</ele>
        <time>2025-07-15T12:42:46Z</time>
      </trkpt>
      <trkpt lat="43.92436" lon="6.94836">
        <ele>837</ele>
        <time>2025-07-15T12:42:48Z</time>
      </trkpt>
      <trkpt lat="43.92417" lon="6.94837">
        <ele>835.6</ele>
        <time>2025-07-15T12:42:50Z</time>
      </trkpt>
      <trkpt lat="43.92408" lon="6.94838">
        <ele>834.8</ele>
        <time>2025-07-15T12:42:51Z</time>
      </trkpt>
      <trkpt lat="43.92399" lon="6.94842">
        <ele>834</ele>
        <time>2025-07-15T12:42:52Z</time>
      </trkpt>
      <trkpt lat="43.92391" lon="6.94849">
        <ele>832.8</ele>
        <time>2025-07-15T12:42:53Z</time>
      </trkpt>
      <trkpt lat="43.92378" lon="6.94869">
        <ele>831.4</ele>
        <time>2025-07-15T12:42:55Z</time>
      </trkpt>
      <trkpt lat="43.92372" lon="6.94897">
        <ele>830</ele>
        <time>2025-07-15T12:42:57Z</time>
      </trkpt>
      <trkpt lat="43.92367" lon="6.94911">
        <ele>829.6</ele>
        <time>2025-07-15T12:42:58Z</time>
      </trkpt>
      <trkpt lat="43.9236" lon="6.94923">
        <ele>828.6</ele>
        <time>2025-07-15T12:42:59Z</time>
      </trkpt>
      <trkpt lat="43.9235" lon="6.94931">
        <ele>827.8</ele>
        <time>2025-07-15T12:43:00Z</time>
      </trkpt>
      <trkpt lat="43.9234" lon="6.94937">
        <ele>827</ele>
        <time>2025-07-15T12:43:01Z</time>
      </trkpt>
      <trkpt lat="43.92321" lon="6.94948">
        <ele>825.8</ele>
        <time>2025-07-15T12:43:03Z</time>
      </trkpt>
      <trkpt lat="43.92312" lon="6.94954">
        <ele>825.2</ele>
        <time>2025-07-15T12:43:04Z</time>
      </trkpt>
      <trkpt lat="43.92295" lon="6.94963">
        <ele>824.2</ele>
        <time>2025-07-15T12:43:06Z</time>
      </trkpt>
      <trkpt lat="43.92278" lon="6.94971">
        <ele>823.6</ele>
        <time>2025-07-15T12:43:08Z</time>
      </trkpt>
      <trkpt lat="43.9227" lon="6.94974">
        <ele>823.2</ele>
        <time>2025-07-15T12:43:09Z</time>
      </trkpt>
      <trkpt lat="43.92236" lon="6.94982">
        <ele>821.8</ele>
        <time>2025-07-15T12:43:13Z</time>
      </trkpt>
      <trkpt lat="43.92206" lon="6.94983">
        <ele>821</ele>
        <time>2025-07-15T12:43:17Z</time>
      </trkpt>
      <trkpt lat="43.92196" lon="6.9498">
        <ele>821</ele>
        <time>2025-07-15T12:43:18Z</time>
      </trkpt>
      <trkpt lat="43.92181" lon="6.94974">
        <ele>820.6</ele>
        <time>2025-07-15T12:43:20Z</time>
      </trkpt>
      <trkpt lat="43.92175" lon="6.94973">
        <ele>820.6</ele>
        <time>2025-07-15T12:43:21Z</time>
      </trkpt>
      <trkpt lat="43.92168" lon="6.94975">
        <ele>820.4</ele>
        <time>2025-07-15T12:43:22Z</time>
      </trkpt>
      <trkpt lat="43.92159" lon="6.9498">
        <ele>820.4</ele>
        <time>2025-07-15T12:43:23Z</time>
      </trkpt>
      <trkpt lat="43.92153" lon="6.94987">
        <ele>819.6</ele>
        <time>2025-07-15T12:43:24Z</time>
      </trkpt>
      <trkpt lat="43.92146" lon="6.94995">
        <ele>818.8</ele>
        <time>2025-07-15T12:43:25Z</time>
      </trkpt>
      <trkpt lat="43.9214" lon="6.95004">
        <ele>818.4</ele>
        <time>2025-07-15T12:43:26Z</time>
      </trkpt>
      <trkpt lat="43.92127" lon="6.95024">
        <ele>817.8</ele>
        <time>2025-07-15T12:43:28Z</time>
      </trkpt>
      <trkpt lat="43.92123" lon="6.95035">
        <ele>817.2</ele>
        <time>2025-07-15T12:43:29Z</time>
      </trkpt>
      <trkpt lat="43.92121" lon="6.95048">
        <ele>816.8</ele>
        <time>2025-07-15T12:43:30Z</time>
      </trkpt>
      <trkpt lat="43.92123" lon="6.95073">
        <ele>816.2</ele>
        <time>2025-07-15T12:43:32Z</time>
      </trkpt>
      <trkpt lat="43.92131" lon="6.95101">
        <ele>814.6</ele>
        <time>2025-07-15T12:43:34Z</time>
      </trkpt>
      <trkpt lat="43.92136" lon="6.95112">
        <ele>813.8</ele>
        <time>2025-07-15T12:43:35Z</time>
      </trkpt>
      <trkpt lat="43.92141" lon="6.95122">
        <ele>812.8</ele>
        <time>2025-07-15T12:43:36Z</time>
      </trkpt>
      <trkpt lat="43.92141" lon="6.95144">
        <ele>812</ele>
        <time>2025-07-15T12:43:38Z</time>
      </trkpt>
      <trkpt lat="43.92129" lon="6.9516">
        <ele>811</ele>
        <time>2025-07-15T12:43:40Z</time>
      </trkpt>
      <trkpt lat="43.92122" lon="6.95163">
        <ele>810.6</ele>
        <time>2025-07-15T12:43:41Z</time>
      </trkpt>
      <trkpt lat="43.92115" lon="6.9516">
        <ele>809.8</ele>
        <time>2025-07-15T12:43:42Z</time>
      </trkpt>
      <trkpt lat="43.92106" lon="6.95154">
        <ele>809.2</ele>
        <time>2025-07-15T12:43:43Z</time>
      </trkpt>
      <trkpt lat="43.92098" lon="6.95148">
        <ele>808.8</ele>
        <time>2025-07-15T12:43:44Z</time>
      </trkpt>
      <trkpt lat="43.92081" lon="6.95133">
        <ele>807.4</ele>
        <time>2025-07-15T12:43:46Z</time>
      </trkpt>
      <trkpt lat="43.92074" lon="6.95127">
        <ele>806.8</ele>
        <time>2025-07-15T12:43:47Z</time>
      </trkpt>
      <trkpt lat="43.92056" lon="6.95108">
        <ele>805</ele>
        <time>2025-07-15T12:43:49Z</time>
      </trkpt>
      <trkpt lat="43.92038" lon="6.95093">
        <ele>803.8</ele>
        <time>2025-07-15T12:43:51Z</time>
      </trkpt>
      <trkpt lat="43.9203" lon="6.95089">
        <ele>802.8</ele>
        <time>2025-07-15T12:43:52Z</time>
      </trkpt>
      <trkpt lat="43.92017" lon="6.95086">
        <ele>802.4</ele>
        <time>2025-07-15T12:43:53Z</time>
      </trkpt>
      <trkpt lat="43.91995" lon="6.95088">
        <ele>801.4</ele>
        <time>2025-07-15T12:43:55Z</time>
      </trkpt>
      <trkpt lat="43.91972" lon="6.95096">
        <ele>799.8</ele>
        <time>2025-07-15T12:43:57Z</time>
      </trkpt>
      <trkpt lat="43.91949" lon="6.95104">
        <ele>798.8</ele>
        <time>2025-07-15T12:43:59Z</time>
      </trkpt>
      <trkpt lat="43.91925" lon="6.95112">
        <ele>797.4</ele>
        <time>2025-07-15T12:44:01Z</time>
      </trkpt>
      <trkpt lat="43.91904" lon="6.95118">
        <ele>796</ele>
        <time>2025-07-15T12:44:03Z</time>
      </trkpt>
      <trkpt lat="43.9188" lon="6.9513">
        <ele>794.4</ele>
        <time>2025-07-15T12:44:05Z</time>
      </trkpt>
      <trkpt lat="43.91869" lon="6.95136">
        <ele>794</ele>
        <time>2025-07-15T12:44:06Z</time>
      </trkpt>
      <trkpt lat="43.91861" lon="6.95141">
        <ele>792.4</ele>
        <time>2025-07-15T12:44:07Z</time>
      </trkpt>
      <trkpt lat="43.91851" lon="6.95146">
        <ele>791.8</ele>
        <time>2025-07-15T12:44:08Z</time>
      </trkpt>
      <trkpt lat="43.91838" lon="6.95148">
        <ele>790.8</ele>
        <time>2025-07-15T12:44:09Z</time>
      </trkpt>
      <trkpt lat="43.91827" lon="6.95146">
        <ele>789.6</ele>
        <time>2025-07-15T12:44:10Z</time>
      </trkpt>
      <trkpt lat="43.91806" lon="6.95139">
        <ele>787.8</ele>
        <time>2025-07-15T12:44:12Z</time>
      </trkpt>
      <trkpt lat="43.91797" lon="6.95136">
        <ele>787.4</ele>
        <time>2025-07-15T12:44:13Z</time>
      </trkpt>
      <trkpt lat="43.91786" lon="6.95133">
        <ele>786.6</ele>
        <time>2025-07-15T12:44:14Z</time>
      </trkpt>
      <trkpt lat="43.91762" lon="6.95127">
        <ele>785.2</ele>
        <time>2025-07-15T12:44:16Z</time>
      </trkpt>
      <trkpt lat="43.91729" lon="6.95117">
        <ele>783</ele>
        <time>2025-07-15T12:44:19Z</time>
      </trkpt>
      <trkpt lat="43.91707" lon="6.95109">
        <ele>781.6</ele>
        <time>2025-07-15T12:44:21Z</time>
      </trkpt>
      <trkpt lat="43.91696" lon="6.95106">
        <ele>781.2</ele>
        <time>2025-07-15T12:44:22Z</time>
      </trkpt>
      <trkpt lat="43.91688" lon="6.95104">
        <ele>779.8</ele>
        <time>2025-07-15T12:44:23Z</time>
      </trkpt>
      <trkpt lat="43.91676" lon="6.95104">
        <ele>779.4</ele>
        <time>2025-07-15T12:44:24Z</time>
      </trkpt>
      <trkpt lat="43.91663" lon="6.95106">
        <ele>778.6</ele>
        <time>2025-07-15T12:44:25Z</time>
      </trkpt>
      <trkpt lat="43.91642" lon="6.95113">
        <ele>777.2</ele>
        <time>2025-07-15T12:44:27Z</time>
      </trkpt>
      <trkpt lat="43.91623" lon="6.95121">
        <ele>776</ele>
        <time>2025-07-15T12:44:29Z</time>
      </trkpt>
      <trkpt lat="43.9161" lon="6.95126">
        <ele>775.4</ele>
        <time>2025-07-15T12:44:30Z</time>
      </trkpt>
      <trkpt lat="43.91599" lon="6.9513">
        <ele>775</ele>
        <time>2025-07-15T12:44:31Z</time>
      </trkpt>
      <trkpt lat="43.91581" lon="6.95138">
        <ele>773.8</ele>
        <time>2025-07-15T12:44:33Z</time>
      </trkpt>
      <trkpt lat="43.91548" lon="6.95152">
        <ele>772.6</ele>
        <time>2025-07-15T12:44:36Z</time>
      </trkpt>
      <trkpt lat="43.91519" lon="6.95163">
        <ele>770.8</ele>
        <time>2025-07-15T12:44:39Z</time>
      </trkpt>
      <trkpt lat="43.91497" lon="6.95172">
        <ele>769.8</ele>
        <time>2025-07-15T12:44:41Z</time>
      </trkpt>
      <trkpt lat="43.91458" lon="6.95188">
        <ele>768.4</ele>
        <time>2025-07-15T12:44:45Z</time>
      </trkpt>
      <trkpt lat="43.91438" lon="6.95193">
        <ele>767.6</ele>
        <time>2025-07-15T12:44:47Z</time>
      </trkpt>
      <trkpt lat="43.9143" lon="6.95193">
        <ele>767.2</ele>
        <time>2025-07-15T12:44:48Z</time>
      </trkpt>
      <trkpt lat="43.91407" lon="6.95189">
        <ele>766.6</ele>
        <time>2025-07-15T12:44:50Z</time>
      </trkpt>
      <trkpt lat="43.91397" lon="6.95185">
        <ele>766.2</ele>
        <time>2025-07-15T12:44:51Z</time>
      </trkpt>
      <trkpt lat="43.91388" lon="6.95178">
        <ele>765.6</ele>
        <time>2025-07-15T12:44:52Z</time>
      </trkpt>
      <trkpt lat="43.9138" lon="6.95169">
        <ele>765.4</ele>
        <time>2025-07-15T12:44:53Z</time>
      </trkpt>
      <trkpt lat="43.91375" lon="6.9516">
        <ele>764.6</ele>
        <time>2025-07-15T12:44:54Z</time>
      </trkpt>
      <trkpt lat="43.91362" lon="6.95137">
        <ele>763.2</ele>
        <time>2025-07-15T12:44:56Z</time>
      </trkpt>
      <trkpt lat="43.91356" lon="6.95122">
        <ele>762.2</ele>
        <time>2025-07-15T12:44:57Z</time>
      </trkpt>
      <trkpt lat="43.91351" lon="6.95098">
        <ele>760.8</ele>
        <time>2025-07-15T12:44:59Z</time>
      </trkpt>
      <trkpt lat="43.9135" lon="6.95083">
        <ele>760.6</ele>
        <time>2025-07-15T12:45:00Z</time>
      </trkpt>
      <trkpt lat="43.91351" lon="6.95066">
        <ele>759.6</ele>
        <time>2025-07-15T12:45:01Z</time>
      </trkpt>
      <trkpt lat="43.91356" lon="6.95037">
        <ele>758.6</ele>
        <time>2025-07-15T12:45:03Z</time>
      </trkpt>
      <trkpt lat="43.91359" lon="6.95023">
        <ele>757.8</ele>
        <time>2025-07-15T12:45:04Z</time>
      </trkpt>
      <trkpt lat="43.91361" lon="6.95009">
        <ele>757.4</ele>
        <time>2025-07-15T12:45:05Z</time>
      </trkpt>
      <trkpt lat="43.91363" lon="6.94996">
        <ele>756.4</ele>
        <time>2025-07-15T12:45:06Z</time>
      </trkpt>
      <trkpt lat="43.91362" lon="6.94983">
        <ele>756</ele>
        <time>2025-07-15T12:45:07Z</time>
      </trkpt>
      <trkpt lat="43.91358" lon="6.94973">
        <ele>754.8</ele>
        <time>2025-07-15T12:45:08Z</time>
      </trkpt>
      <trkpt lat="43.91352" lon="6.94965">
        <ele>754</ele>
        <time>2025-07-15T12:45:09Z</time>
      </trkpt>
      <trkpt lat="43.91345" lon="6.9496">
        <ele>753</ele>
        <time>2025-07-15T12:45:10Z</time>
      </trkpt>
      <trkpt lat="43.91338" lon="6.94959">
        <ele>752</ele>
        <time>2025-07-15T12:45:11Z</time>
      </trkpt>
      <trkpt lat="43.91329" lon="6.94962">
        <ele>751</ele>
        <time>2025-07-15T12:45:12Z</time>
      </trkpt>
      <trkpt lat="43.91316" lon="6.94971">
        <ele>750.2</ele>
        <time>2025-07-15T12:45:14Z</time>
      </trkpt>
      <trkpt lat="43.91309" lon="6.94978">
        <ele>749.8</ele>
        <time>2025-07-15T12:45:15Z</time>
      </trkpt>
      <trkpt lat="43.91302" lon="6.94986">
        <ele>749.6</ele>
        <time>2025-07-15T12:45:16Z</time>
      </trkpt>
      <trkpt lat="43.91295" lon="6.94993">
        <ele>749.4</ele>
        <time>2025-07-15T12:45:17Z</time>
      </trkpt>
      <trkpt lat="43.91278" lon="6.94996">
        <ele>749</ele>
        <time>2025-07-15T12:45:19Z</time>
      </trkpt>
      <trkpt lat="43.9127" lon="6.94995">
        <ele>749</ele>
        <time>2025-07-15T12:45:20Z</time>
      </trkpt>
      <trkpt lat="43.91253" lon="6.94989">
        <ele>748.6</ele>
        <time>2025-07-15T12:45:22Z</time>
      </trkpt>
      <trkpt lat="43.91238" lon="6.94976">
        <ele>748.2</ele>
        <time>2025-07-15T12:45:24Z</time>
      </trkpt>
      <trkpt lat="43.91225" lon="6.9496">
        <ele>747.6</ele>
        <time>2025-07-15T12:45:26Z</time>
      </trkpt>
      <trkpt lat="43.91211" lon="6.94951">
        <ele>747.4</ele>
        <time>2025-07-15T12:45:28Z</time>
      </trkpt>
      <trkpt lat="43.91203" lon="6.9495">
        <ele>747.2</ele>
        <time>2025-07-15T12:45:29Z</time>
      </trkpt>
      <trkpt lat="43.91195" lon="6.94948">
        <ele>747.2</ele>
        <time>2025-07-15T12:45:30Z</time>
      </trkpt>
      <trkpt lat="43.91173" lon="6.94938">
        <ele>747</ele>
        <time>2025-07-15T12:45:33Z</time>
      </trkpt>
      <trkpt lat="43.91136" lon="6.94916">
        <ele>747</ele>
        <time>2025-07-15T12:45:39Z</time>
      </trkpt>
      <trkpt lat="43.91129" lon="6.94914">
        <ele>747</ele>
        <time>2025-07-15T12:45:40Z</time>
      </trkpt>
      <trkpt lat="43.91108" lon="6.94913">
        <ele>747</ele>
        <time>2025-07-15T12:45:43Z</time>
      </trkpt>
      <trkpt lat="43.91075" lon="6.94918">
        <ele>746.8</ele>
        <time>2025-07-15T12:45:48Z</time>
      </trkpt>
      <trkpt lat="43.91068" lon="6.94917">
        <ele>746.8</ele>
        <time>2025-07-15T12:45:49Z</time>
      </trkpt>
      <trkpt lat="43.91062" lon="6.94916">
        <ele>746.8</ele>
        <time>2025-07-15T12:45:50Z</time>
      </trkpt>
      <trkpt lat="43.9105" lon="6.9491">
        <ele>746.8</ele>
        <time>2025-07-15T12:45:52Z</time>
      </trkpt>
      <trkpt lat="43.91025" lon="6.94883">
        <ele>746.4</ele>
        <time>2025-07-15T12:45:56Z</time>
      </trkpt>
      <trkpt lat="43.91009" lon="6.94871">
        <ele>746.2</ele>
        <time>2025-07-15T12:45:58Z</time>
      </trkpt>
      <trkpt lat="43.91001" lon="6.94866">
        <ele>745.8</ele>
        <time>2025-07-15T12:45:59Z</time>
      </trkpt>
      <trkpt lat="43.90994" lon="6.94862">
        <ele>745.4</ele>
        <time>2025-07-15T12:46:00Z</time>
      </trkpt>
      <trkpt lat="43.90976" lon="6.9485">
        <ele>744.6</ele>
        <time>2025-07-15T12:46:02Z</time>
      </trkpt>
      <trkpt lat="43.90967" lon="6.94847">
        <ele>744.4</ele>
        <time>2025-07-15T12:46:03Z</time>
      </trkpt>
      <trkpt lat="43.90958" lon="6.94846">
        <ele>743.6</ele>
        <time>2025-07-15T12:46:04Z</time>
      </trkpt>
      <trkpt lat="43.9095" lon="6.94847">
        <ele>742.8</ele>
        <time>2025-07-15T12:46:05Z</time>
      </trkpt>
      <trkpt lat="43.90919" lon="6.94853">
        <ele>741.8</ele>
        <time>2025-07-15T12:46:09Z</time>
      </trkpt>
      <trkpt lat="43.90905" lon="6.94845">
        <ele>741.6</ele>
        <time>2025-07-15T12:46:11Z</time>
      </trkpt>
      <trkpt lat="43.90867" lon="6.94823">
        <ele>741.4</ele>
        <time>2025-07-15T12:46:16Z</time>
      </trkpt>
      <trkpt lat="43.90858" lon="6.9482">
        <ele>741.4</ele>
        <time>2025-07-15T12:46:17Z</time>
      </trkpt>
      <trkpt lat="43.90841" lon="6.94816">
        <ele>741.4</ele>
        <time>2025-07-15T12:46:19Z</time>
      </trkpt>
      <trkpt lat="43.90826" lon="6.94812">
        <ele>741.2</ele>
        <time>2025-07-15T12:46:21Z</time>
      </trkpt>
      <trkpt lat="43.90818" lon="6.94813">
        <ele>741</ele>
        <time>2025-07-15T12:46:22Z</time>
      </trkpt>
      <trkpt lat="43.9081" lon="6.94815">
        <ele>740.8</ele>
        <time>2025-07-15T12:46:23Z</time>
      </trkpt>
      <trkpt lat="43.90803" lon="6.94817">
        <ele>740.8</ele>
        <time>2025-07-15T12:46:24Z</time>
      </trkpt>
      <trkpt lat="43.90778" lon="6.94823">
        <ele>740.4</ele>
        <time>2025-07-15T12:46:27Z</time>
      </trkpt>
      <trkpt lat="43.90769" lon="6.94824">
        <ele>740.4</ele>
        <time>2025-07-15T12:46:28Z</time>
      </trkpt>
      <trkpt lat="43.90753" lon="6.94822">
        <ele>740.2</ele>
        <time>2025-07-15T12:46:30Z</time>
      </trkpt>
      <trkpt lat="43.90744" lon="6.94819">
        <ele>739.8</ele>
        <time>2025-07-15T12:46:31Z</time>
      </trkpt>
      <trkpt lat="43.90736" lon="6.94816">
        <ele>739.6</ele>
        <time>2025-07-15T12:46:32Z</time>
      </trkpt>
      <trkpt lat="43.90707" lon="6.948">
        <ele>738.8</ele>
        <time>2025-07-15T12:46:36Z</time>
      </trkpt>
      <trkpt lat="43.90686" lon="6.9479">
        <ele>738.6</ele>
        <time>2025-07-15T12:46:39Z</time>
      </trkpt>
      <trkpt lat="43.90664" lon="6.9478">
        <ele>738.4</ele>
        <time>2025-07-15T12:46:42Z</time>
      </trkpt>
      <trkpt lat="43.90631" lon="6.94762">
        <ele>738.4</ele>
        <time>2025-07-15T12:46:47Z</time>
      </trkpt>
      <trkpt lat="43.90619" lon="6.94761">
        <ele>738.4</ele>
        <time>2025-07-15T12:46:49Z</time>
      </trkpt>
      <trkpt lat="43.90612" lon="6.94763">
        <ele>738.4</ele>
        <time>2025-07-15T12:46:50Z</time>
      </trkpt>
      <trkpt lat="43.90599" lon="6.94769">
        <ele>738.4</ele>
        <time>2025-07-15T12:46:52Z</time>
      </trkpt>
      <trkpt lat="43.9058" lon="6.94783">
        <ele>738.4</ele>
        <time>2025-07-15T12:46:55Z</time>
      </trkpt>
      <trkpt lat="43.90574" lon="6.94788">
        <ele>738.4</ele>
        <time>2025-07-15T12:46:56Z</time>
      </trkpt>
      <trkpt lat="43.9056" lon="6.94793">
        <ele>738.4</ele>
        <time>2025-07-15T12:46:58Z</time>
      </trkpt>
      <trkpt lat="43.90552" lon="6.94793">
        <ele>738.2</ele>
        <time>2025-07-15T12:46:59Z</time>
      </trkpt>
      <trkpt lat="43.90516" lon="6.94783">
        <ele>737.6</ele>
        <time>2025-07-15T12:47:03Z</time>
      </trkpt>
      <trkpt lat="43.90509" lon="6.94782">
        <ele>737.4</ele>
        <time>2025-07-15T12:47:04Z</time>
      </trkpt>
      <trkpt lat="43.90499" lon="6.94782">
        <ele>736.8</ele>
        <time>2025-07-15T12:47:05Z</time>
      </trkpt>
      <trkpt lat="43.90478" lon="6.94783">
        <ele>735.8</ele>
        <time>2025-07-15T12:47:07Z</time>
      </trkpt>
      <trkpt lat="43.90456" lon="6.94786">
        <ele>734.8</ele>
        <time>2025-07-15T12:47:09Z</time>
      </trkpt>
      <trkpt lat="43.90435" lon="6.94787">
        <ele>733.4</ele>
        <time>2025-07-15T12:47:11Z</time>
      </trkpt>
      <trkpt lat="43.90412" lon="6.94786">
        <ele>732.2</ele>
        <time>2025-07-15T12:47:13Z</time>
      </trkpt>
      <trkpt lat="43.90404" lon="6.94785">
        <ele>731.8</ele>
        <time>2025-07-15T12:47:14Z</time>
      </trkpt>
      <trkpt lat="43.90385" lon="6.94777">
        <ele>731.4</ele>
        <time>2025-07-15T12:47:16Z</time>
      </trkpt>
      <trkpt lat="43.90367" lon="6.94769">
        <ele>730.2</ele>
        <time>2025-07-15T12:47:18Z</time>
      </trkpt>
      <trkpt lat="43.90357" lon="6.94768">
        <ele>729.6</ele>
        <time>2025-07-15T12:47:19Z</time>
      </trkpt>
      <trkpt lat="43.90349" lon="6.94768">
        <ele>729.2</ele>
        <time>2025-07-15T12:47:20Z</time>
      </trkpt>
      <trkpt lat="43.90341" lon="6.94767">
        <ele>729</ele>
        <time>2025-07-15T12:47:21Z</time>
      </trkpt>
      <trkpt lat="43.90315" lon="6.94762">
        <ele>728.6</ele>
        <time>2025-07-15T12:47:24Z</time>
      </trkpt>
      <trkpt lat="43.90257" lon="6.94744">
        <ele>728</ele>
        <time>2025-07-15T12:47:31Z</time>
      </trkpt>
      <trkpt lat="43.90249" lon="6.94739">
        <ele>728</ele>
        <time>2025-07-15T12:47:32Z</time>
      </trkpt>
      <trkpt lat="43.90231" lon="6.94729">
        <ele>727.4</ele>
        <time>2025-07-15T12:47:34Z</time>
      </trkpt>
      <trkpt lat="43.90217" lon="6.94717">
        <ele>727</ele>
        <time>2025-07-15T12:47:36Z</time>
      </trkpt>
      <trkpt lat="43.9021" lon="6.94709">
        <ele>726.8</ele>
        <time>2025-07-15T12:47:37Z</time>
      </trkpt>
      <trkpt lat="43.90204" lon="6.94699">
        <ele>726.6</ele>
        <time>2025-07-15T12:47:38Z</time>
      </trkpt>
      <trkpt lat="43.90193" lon="6.94678">
        <ele>725.8</ele>
        <time>2025-07-15T12:47:40Z</time>
      </trkpt>
      <trkpt lat="43.90186" lon="6.94664">
        <ele>725.4</ele>
        <time>2025-07-15T12:47:41Z</time>
      </trkpt>
      <trkpt lat="43.9017" lon="6.94633">
        <ele>724.2</ele>
        <time>2025-07-15T12:47:44Z</time>
      </trkpt>
      <trkpt lat="43.90157" lon="6.94613">
        <ele>723.4</ele>
        <time>2025-07-15T12:47:46Z</time>
      </trkpt>
      <trkpt lat="43.9014" lon="6.94603">
        <ele>722.8</ele>
        <time>2025-07-15T12:47:48Z</time>
      </trkpt>
      <trkpt lat="43.90131" lon="6.94603">
        <ele>722.6</ele>
        <time>2025-07-15T12:47:49Z</time>
      </trkpt>
      <trkpt lat="43.90095" lon="6.94608">
        <ele>721.8</ele>
        <time>2025-07-15T12:47:53Z</time>
      </trkpt>
      <trkpt lat="43.90086" lon="6.9461">
        <ele>721.6</ele>
        <time>2025-07-15T12:47:54Z</time>
      </trkpt>
      <trkpt lat="43.90077" lon="6.9461">
        <ele>721.4</ele>
        <time>2025-07-15T12:47:55Z</time>
      </trkpt>
      <trkpt lat="43.90042" lon="6.94607">
        <ele>720.8</ele>
        <time>2025-07-15T12:47:59Z</time>
      </trkpt>
      <trkpt lat="43.90033" lon="6.94606">
        <ele>720.6</ele>
        <time>2025-07-15T12:48:00Z</time>
      </trkpt>
      <trkpt lat="43.89998" lon="6.946">
        <ele>719.6</ele>
        <time>2025-07-15T12:48:04Z</time>
      </trkpt>
      <trkpt lat="43.89982" lon="6.94597">
        <ele>719.2</ele>
        <time>2025-07-15T12:48:06Z</time>
      </trkpt>
      <trkpt lat="43.89963" lon="6.94592">
        <ele>718.6</ele>
        <time>2025-07-15T12:48:08Z</time>
      </trkpt>
      <trkpt lat="43.89947" lon="6.94583">
        <ele>718.2</ele>
        <time>2025-07-15T12:48:10Z</time>
      </trkpt>
      <trkpt lat="43.89925" lon="6.94568">
        <ele>717.4</ele>
        <time>2025-07-15T12:48:13Z</time>
      </trkpt>
      <trkpt lat="43.89885" lon="6.94537">
        <ele>716.2</ele>
        <time>2025-07-15T12:48:18Z</time>
      </trkpt>
      <trkpt lat="43.89877" lon="6.94532">
        <ele>715.8</ele>
        <time>2025-07-15T12:48:19Z</time>
      </trkpt>
      <trkpt lat="43.89855" lon="6.94515">
        <ele>715</ele>
        <time>2025-07-15T12:48:22Z</time>
      </trkpt>
      <trkpt lat="43.89821" lon="6.94485">
        <ele>714</ele>
        <time>2025-07-15T12:48:27Z</time>
      </trkpt>
      <trkpt lat="43.89814" lon="6.94479">
        <ele>714</ele>
        <time>2025-07-15T12:48:28Z</time>
      </trkpt>
      <trkpt lat="43.89785" lon="6.94443">
        <ele>713</ele>
        <time>2025-07-15T12:48:33Z</time>
      </trkpt>
      <trkpt lat="43.8978" lon="6.94432">
        <ele>713</ele>
        <time>2025-07-15T12:48:34Z</time>
      </trkpt>
      <trkpt lat="43.89777" lon="6.94424">
        <ele>712.6</ele>
        <time>2025-07-15T12:48:35Z</time>
      </trkpt>
      <trkpt lat="43.89772" lon="6.94391">
        <ele>712.2</ele>
        <time>2025-07-15T12:48:38Z</time>
      </trkpt>
      <trkpt lat="43.8977" lon="6.94378">
        <ele>712</ele>
        <time>2025-07-15T12:48:39Z</time>
      </trkpt>
      <trkpt lat="43.89757" lon="6.94294">
        <ele>711.4</ele>
        <time>2025-07-15T12:48:47Z</time>
      </trkpt>
      <trkpt lat="43.89755" lon="6.94272">
        <ele>711</ele>
        <time>2025-07-15T12:48:49Z</time>
      </trkpt>
      <trkpt lat="43.89752" lon="6.94222">
        <ele>709.8</ele>
        <time>2025-07-15T12:48:54Z</time>
      </trkpt>
      <trkpt lat="43.89752" lon="6.94212">
        <ele>709.8</ele>
        <time>2025-07-15T12:48:55Z</time>
      </trkpt>
      <trkpt lat="43.89744" lon="6.94136">
        <ele>709.4</ele>
        <time>2025-07-15T12:49:02Z</time>
      </trkpt>
      <trkpt lat="43.89733" lon="6.94083">
        <ele>708.8</ele>
        <time>2025-07-15T12:49:07Z</time>
      </trkpt>
      <trkpt lat="43.8973" lon="6.94029">
        <ele>707.6</ele>
        <time>2025-07-15T12:49:12Z</time>
      </trkpt>
      <trkpt lat="43.8973" lon="6.94016">
        <ele>707.6</ele>
        <time>2025-07-15T12:49:13Z</time>
      </trkpt>
      <trkpt lat="43.89729" lon="6.93939">
        <ele>706.6</ele>
        <time>2025-07-15T12:49:20Z</time>
      </trkpt>
      <trkpt lat="43.89729" lon="6.93928">
        <ele>706.6</ele>
        <time>2025-07-15T12:49:21Z</time>
      </trkpt>
      <trkpt lat="43.8972" lon="6.93876">
        <ele>705.6</ele>
        <time>2025-07-15T12:49:26Z</time>
      </trkpt>
      <trkpt lat="43.89717" lon="6.93865">
        <ele>705.4</ele>
        <time>2025-07-15T12:49:27Z</time>
      </trkpt>
      <trkpt lat="43.89704" lon="6.9383">
        <ele>705.2</ele>
        <time>2025-07-15T12:49:31Z</time>
      </trkpt>
      <trkpt lat="43.89699" lon="6.93819">
        <ele>705.2</ele>
        <time>2025-07-15T12:49:32Z</time>
      </trkpt>
      <trkpt lat="43.89689" lon="6.93805">
        <ele>705</ele>
        <time>2025-07-15T12:49:34Z</time>
      </trkpt>
      <trkpt lat="43.89683" lon="6.938">
        <ele>705</ele>
        <time>2025-07-15T12:49:35Z</time>
      </trkpt>
      <trkpt lat="43.89664" lon="6.93784">
        <ele>704.6</ele>
        <time>2025-07-15T12:49:38Z</time>
      </trkpt>
      <trkpt lat="43.89658" lon="6.93777">
        <ele>704.4</ele>
        <time>2025-07-15T12:49:39Z</time>
      </trkpt>
      <trkpt lat="43.89646" lon="6.93763">
        <ele>704.2</ele>
        <time>2025-07-15T12:49:41Z</time>
      </trkpt>
      <trkpt lat="43.89626" lon="6.93739">
        <ele>703.6</ele>
        <time>2025-07-15T12:49:44Z</time>
      </trkpt>
      <trkpt lat="43.8962" lon="6.93736">
        <ele>703.4</ele>
        <time>2025-07-15T12:49:45Z</time>
      </trkpt>
      <trkpt lat="43.89612" lon="6.93733">
        <ele>703.4</ele>
        <time>2025-07-15T12:49:46Z</time>
      </trkpt>
      <trkpt lat="43.89587" lon="6.93732">
        <ele>703.2</ele>
        <time>2025-07-15T12:49:49Z</time>
      </trkpt>
      <trkpt lat="43.89545" lon="6.93731">
        <ele>702.8</ele>
        <time>2025-07-15T12:49:55Z</time>
      </trkpt>
      <trkpt lat="43.8953" lon="6.93729">
        <ele>702.4</ele>
        <time>2025-07-15T12:49:57Z</time>
      </trkpt>
      <trkpt lat="43.89523" lon="6.93726">
        <ele>702.4</ele>
        <time>2025-07-15T12:49:58Z</time>
      </trkpt>
      <trkpt lat="43.89518" lon="6.93723">
        <ele>702.2</ele>
        <time>2025-07-15T12:49:59Z</time>
      </trkpt>
      <trkpt lat="43.895" lon="6.93709">
        <ele>702</ele>
        <time>2025-07-15T12:50:03Z</time>
      </trkpt>
      <trkpt lat="43.89495" lon="6.93707">
        <ele>702</ele>
        <time>2025-07-15T12:50:04Z</time>
      </trkpt>
      <trkpt lat="43.89482" lon="6.93699">
        <ele>702</ele>
        <time>2025-07-15T12:50:07Z</time>
      </trkpt>
      <trkpt lat="43.89471" lon="6.93691">
        <ele>702.6</ele>
        <time>2025-07-15T12:50:10Z</time>
      </trkpt>
      <trkpt lat="43.89453" lon="6.93679">
        <ele>703.4</ele>
        <time>2025-07-15T12:50:15Z</time>
      </trkpt>
      <trkpt lat="43.89449" lon="6.93676">
        <ele>703.6</ele>
        <time>2025-07-15T12:50:16Z</time>
      </trkpt>
      <trkpt lat="43.89428" lon="6.9366">
        <ele>704.6</ele>
        <time>2025-07-15T12:50:22Z</time>
      </trkpt>
      <trkpt lat="43.8942" lon="6.93655">
        <ele>704.8</ele>
        <time>2025-07-15T12:50:24Z</time>
      </trkpt>
      <trkpt lat="43.89394" lon="6.93635">
        <ele>705.6</ele>
        <time>2025-07-15T12:50:32Z</time>
      </trkpt>
      <trkpt lat="43.8939" lon="6.93633">
        <ele>705.8</ele>
        <time>2025-07-15T12:50:33Z</time>
      </trkpt>
      <trkpt lat="43.89371" lon="6.93621">
        <ele>706.8</ele>
        <time>2025-07-15T12:50:39Z</time>
      </trkpt>
      <trkpt lat="43.89366" lon="6.93617">
        <ele>707</ele>
        <time>2025-07-15T12:50:41Z</time>
      </trkpt>
      <trkpt lat="43.89343" lon="6.93607">
        <ele>707.8</ele>
        <time>2025-07-15T12:50:48Z</time>
      </trkpt>
      <trkpt lat="43.89339" lon="6.93607">
        <ele>708</ele>
        <time>2025-07-15T12:50:49Z</time>
      </trkpt>
      <trkpt lat="43.8932" lon="6.93606">
        <ele>708.4</ele>
        <time>2025-07-15T12:50:55Z</time>
      </trkpt>
      <trkpt lat="43.893" lon="6.936">
        <ele>709</ele>
        <time>2025-07-15T12:51:01Z</time>
      </trkpt>
      <trkpt lat="43.89297" lon="6.93598">
        <ele>709.2</ele>
        <time>2025-07-15T12:51:02Z</time>
      </trkpt>
      <trkpt lat="43.89282" lon="6.9359">
        <ele>709.2</ele>
        <time>2025-07-15T12:51:07Z</time>
      </trkpt>
      <trkpt lat="43.89277" lon="6.93585">
        <ele>709.6</ele>
        <time>2025-07-15T12:51:09Z</time>
      </trkpt>
      <trkpt lat="43.89262" lon="6.93569">
        <ele>710.2</ele>
        <time>2025-07-15T12:51:15Z</time>
      </trkpt>
      <trkpt lat="43.89259" lon="6.93566">
        <ele>710.4</ele>
        <time>2025-07-15T12:51:16Z</time>
      </trkpt>
      <trkpt lat="43.89247" lon="6.93546">
        <ele>711.4</ele>
        <time>2025-07-15T12:51:22Z</time>
      </trkpt>
      <trkpt lat="43.89242" lon="6.9354">
        <ele>711.4</ele>
        <time>2025-07-15T12:51:24Z</time>
      </trkpt>
      <trkpt lat="43.89225" lon="6.93518">
        <ele>712.4</ele>
        <time>2025-07-15T12:51:31Z</time>
      </trkpt>
      <trkpt lat="43.89223" lon="6.93515">
        <ele>712.8</ele>
        <time>2025-07-15T12:51:32Z</time>
      </trkpt>
      <trkpt lat="43.89206" lon="6.93497">
        <ele>713.4</ele>
        <time>2025-07-15T12:51:38Z</time>
      </trkpt>
      <trkpt lat="43.89201" lon="6.93493">
        <ele>713.8</ele>
        <time>2025-07-15T12:51:40Z</time>
      </trkpt>
      <trkpt lat="43.89186" lon="6.93485">
        <ele>714.4</ele>
        <time>2025-07-15T12:51:45Z</time>
      </trkpt>
      <trkpt lat="43.89179" lon="6.93481">
        <ele>714.8</ele>
        <time>2025-07-15T12:51:47Z</time>
      </trkpt>
      <trkpt lat="43.8917" lon="6.93477">
        <ele>715.6</ele>
        <time>2025-07-15T12:51:50Z</time>
      </trkpt>
      <trkpt lat="43.89153" lon="6.93466">
        <ele>716</ele>
        <time>2025-07-15T12:51:55Z</time>
      </trkpt>
      <trkpt lat="43.89137" lon="6.93444">
        <ele>716.6</ele>
        <time>2025-07-15T12:52:01Z</time>
      </trkpt>
      <trkpt lat="43.89128" lon="6.93429">
        <ele>717.4</ele>
        <time>2025-07-15T12:52:05Z</time>
      </trkpt>
      <trkpt lat="43.89122" lon="6.9342">
        <ele>718</ele>
        <time>2025-07-15T12:52:08Z</time>
      </trkpt>
      <trkpt lat="43.89119" lon="6.93417">
        <ele>718</ele>
        <time>2025-07-15T12:52:09Z</time>
      </trkpt>
      <trkpt lat="43.89099" lon="6.93406">
        <ele>718.8</ele>
        <time>2025-07-15T12:52:16Z</time>
      </trkpt>
      <trkpt lat="43.89096" lon="6.93404">
        <ele>719</ele>
        <time>2025-07-15T12:52:17Z</time>
      </trkpt>
      <trkpt lat="43.89078" lon="6.93394">
        <ele>720</ele>
        <time>2025-07-15T12:52:23Z</time>
      </trkpt>
      <trkpt lat="43.89075" lon="6.93391">
        <ele>720</ele>
        <time>2025-07-15T12:52:24Z</time>
      </trkpt>
      <trkpt lat="43.89061" lon="6.93374">
        <ele>721</ele>
        <time>2025-07-15T12:52:30Z</time>
      </trkpt>
      <trkpt lat="43.8905" lon="6.93349">
        <ele>721.4</ele>
        <time>2025-07-15T12:52:36Z</time>
      </trkpt>
      <trkpt lat="43.89051" lon="6.93316">
        <ele>722</ele>
        <time>2025-07-15T12:52:43Z</time>
      </trkpt>
      <trkpt lat="43.89062" lon="6.93288">
        <ele>723</ele>
        <time>2025-07-15T12:52:50Z</time>
      </trkpt>
      <trkpt lat="43.89065" lon="6.93284">
        <ele>723</ele>
        <time>2025-07-15T12:52:51Z</time>
      </trkpt>
      <trkpt lat="43.89077" lon="6.93269">
        <ele>724</ele>
        <time>2025-07-15T12:52:56Z</time>
      </trkpt>
      <trkpt lat="43.8908" lon="6.93265">
        <ele>724.4</ele>
        <time>2025-07-15T12:52:57Z</time>
      </trkpt>
      <trkpt lat="43.89086" lon="6.93245">
        <ele>725</ele>
        <time>2025-07-15T12:53:02Z</time>
      </trkpt>
      <trkpt lat="43.89085" lon="6.93238">
        <ele>725.2</ele>
        <time>2025-07-15T12:53:03Z</time>
      </trkpt>
      <trkpt lat="43.89079" lon="6.93224">
        <ele>725.4</ele>
        <time>2025-07-15T12:53:06Z</time>
      </trkpt>
      <trkpt lat="43.89065" lon="6.93215">
        <ele>726</ele>
        <time>2025-07-15T12:53:10Z</time>
      </trkpt>
      <trkpt lat="43.89058" lon="6.93216">
        <ele>726.2</ele>
        <time>2025-07-15T12:53:12Z</time>
      </trkpt>
      <trkpt lat="43.8903" lon="6.93224">
        <ele>727</ele>
        <time>2025-07-15T12:53:19Z</time>
      </trkpt>
      <trkpt lat="43.89027" lon="6.93226">
        <ele>727.2</ele>
        <time>2025-07-15T12:53:20Z</time>
      </trkpt>
      <trkpt lat="43.89001" lon="6.93235">
        <ele>728</ele>
        <time>2025-07-15T12:53:27Z</time>
      </trkpt>
      <trkpt lat="43.88993" lon="6.93236">
        <ele>728.4</ele>
        <time>2025-07-15T12:53:29Z</time>
      </trkpt>
      <trkpt lat="43.88974" lon="6.93243">
        <ele>729.6</ele>
        <time>2025-07-15T12:53:34Z</time>
      </trkpt>
      <trkpt lat="43.88971" lon="6.93245">
        <ele>729.8</ele>
        <time>2025-07-15T12:53:35Z</time>
      </trkpt>
      <trkpt lat="43.88959" lon="6.93263">
        <ele>730.4</ele>
        <time>2025-07-15T12:53:40Z</time>
      </trkpt>
      <trkpt lat="43.88954" lon="6.9327">
        <ele>731</ele>
        <time>2025-07-15T12:53:42Z</time>
      </trkpt>
      <trkpt lat="43.88943" lon="6.93289">
        <ele>731.6</ele>
        <time>2025-07-15T12:53:47Z</time>
      </trkpt>
      <trkpt lat="43.88937" lon="6.93295">
        <ele>731.8</ele>
        <time>2025-07-15T12:53:49Z</time>
      </trkpt>
      <trkpt lat="43.8893" lon="6.93295">
        <ele>732</ele>
        <time>2025-07-15T12:53:51Z</time>
      </trkpt>
      <trkpt lat="43.88927" lon="6.93292">
        <ele>732</ele>
        <time>2025-07-15T12:53:52Z</time>
      </trkpt>
      <trkpt lat="43.8892" lon="6.93278">
        <ele>732.2</ele>
        <time>2025-07-15T12:53:55Z</time>
      </trkpt>
      <trkpt lat="43.8891" lon="6.93243">
        <ele>733.2</ele>
        <time>2025-07-15T12:54:03Z</time>
      </trkpt>
      <trkpt lat="43.88897" lon="6.93204">
        <ele>734</ele>
        <time>2025-07-15T12:54:12Z</time>
      </trkpt>
      <trkpt lat="43.88896" lon="6.93195">
        <ele>734.2</ele>
        <time>2025-07-15T12:54:14Z</time>
      </trkpt>
      <trkpt lat="43.88895" lon="6.93175">
        <ele>734.8</ele>
        <time>2025-07-15T12:54:19Z</time>
      </trkpt>
      <trkpt lat="43.88895" lon="6.93165">
        <ele>735.2</ele>
        <time>2025-07-15T12:54:21Z</time>
      </trkpt>
      <trkpt lat="43.88895" lon="6.9316">
        <ele>735.4</ele>
        <time>2025-07-15T12:54:22Z</time>
      </trkpt>
      <trkpt lat="43.88894" lon="6.93145">
        <ele>736.2</ele>
        <time>2025-07-15T12:54:25Z</time>
      </trkpt>
      <trkpt lat="43.88893" lon="6.9314">
        <ele>736.2</ele>
        <time>2025-07-15T12:54:26Z</time>
      </trkpt>
      <trkpt lat="43.88896" lon="6.93099">
        <ele>737.4</ele>
        <time>2025-07-15T12:54:35Z</time>
      </trkpt>
      <trkpt lat="43.88896" lon="6.93096">
        <ele>737.6</ele>
        <time>2025-07-15T12:54:36Z</time>
      </trkpt>
      <trkpt lat="43.88906" lon="6.93067">
        <ele>738</ele>
        <time>2025-07-15T12:54:44Z</time>
      </trkpt>
      <trkpt lat="43.88912" lon="6.93051">
        <ele>738.6</ele>
        <time>2025-07-15T12:54:48Z</time>
      </trkpt>
      <trkpt lat="43.88916" lon="6.93039">
        <ele>739</ele>
        <time>2025-07-15T12:54:51Z</time>
      </trkpt>
      <trkpt lat="43.88919" lon="6.9302">
        <ele>739.6</ele>
        <time>2025-07-15T12:54:55Z</time>
      </trkpt>
      <trkpt lat="43.8892" lon="6.93011">
        <ele>739.8</ele>
        <time>2025-07-15T12:54:57Z</time>
      </trkpt>
      <trkpt lat="43.88919" lon="6.92972">
        <ele>740.8</ele>
        <time>2025-07-15T12:55:05Z</time>
      </trkpt>
      <trkpt lat="43.88919" lon="6.92967">
        <ele>741</ele>
        <time>2025-07-15T12:55:06Z</time>
      </trkpt>
      <trkpt lat="43.88916" lon="6.92935">
        <ele>741.8</ele>
        <time>2025-07-15T12:55:13Z</time>
      </trkpt>
      <trkpt lat="43.88923" lon="6.92909">
        <ele>742.8</ele>
        <time>2025-07-15T12:55:19Z</time>
      </trkpt>
      <trkpt lat="43.88925" lon="6.92905">
        <ele>743</ele>
        <time>2025-07-15T12:55:20Z</time>
      </trkpt>
      <trkpt lat="43.88933" lon="6.9288">
        <ele>744.2</ele>
        <time>2025-07-15T12:55:26Z</time>
      </trkpt>
      <trkpt lat="43.88934" lon="6.92871">
        <ele>744.6</ele>
        <time>2025-07-15T12:55:28Z</time>
      </trkpt>
      <trkpt lat="43.88932" lon="6.92862">
        <ele>745.2</ele>
        <time>2025-07-15T12:55:30Z</time>
      </trkpt>
      <trkpt lat="43.88926" lon="6.92855">
        <ele>745.6</ele>
        <time>2025-07-15T12:55:32Z</time>
      </trkpt>
      <trkpt lat="43.8891" lon="6.92852">
        <ele>746.2</ele>
        <time>2025-07-15T12:55:37Z</time>
      </trkpt>
      <trkpt lat="43.88902" lon="6.92857">
        <ele>746.8</ele>
        <time>2025-07-15T12:55:40Z</time>
      </trkpt>
      <trkpt lat="43.88893" lon="6.92862">
        <ele>747.4</ele>
        <time>2025-07-15T12:55:43Z</time>
      </trkpt>
      <trkpt lat="43.88889" lon="6.92864">
        <ele>747.6</ele>
        <time>2025-07-15T12:55:44Z</time>
      </trkpt>
      <trkpt lat="43.88886" lon="6.92864">
        <ele>748</ele>
        <time>2025-07-15T12:55:45Z</time>
      </trkpt>
      <trkpt lat="43.8888" lon="6.9286">
        <ele>748.8</ele>
        <time>2025-07-15T12:55:47Z</time>
      </trkpt>
      <trkpt lat="43.88877" lon="6.92858">
        <ele>749</ele>
        <time>2025-07-15T12:55:48Z</time>
      </trkpt>
      <trkpt lat="43.88868" lon="6.92845">
        <ele>749.8</ele>
        <time>2025-07-15T12:55:52Z</time>
      </trkpt>
      <trkpt lat="43.88866" lon="6.92842">
        <ele>750.2</ele>
        <time>2025-07-15T12:55:53Z</time>
      </trkpt>
      <trkpt lat="43.88862" lon="6.9283">
        <ele>750.8</ele>
        <time>2025-07-15T12:55:56Z</time>
      </trkpt>
      <trkpt lat="43.88858" lon="6.92817">
        <ele>751.2</ele>
        <time>2025-07-15T12:55:59Z</time>
      </trkpt>
      <trkpt lat="43.88853" lon="6.92801">
        <ele>752</ele>
        <time>2025-07-15T12:56:03Z</time>
      </trkpt>
      <trkpt lat="43.88853" lon="6.92789">
        <ele>752.2</ele>
        <time>2025-07-15T12:56:06Z</time>
      </trkpt>
      <trkpt lat="43.88858" lon="6.92759">
        <ele>752.4</ele>
        <time>2025-07-15T12:56:13Z</time>
      </trkpt>
      <trkpt lat="43.88861" lon="6.92724">
        <ele>753</ele>
        <time>2025-07-15T12:56:21Z</time>
      </trkpt>
      <trkpt lat="43.88861" lon="6.9272">
        <ele>753</ele>
        <time>2025-07-15T12:56:22Z</time>
      </trkpt>
      <trkpt lat="43.8886" lon="6.92688">
        <ele>753.8</ele>
        <time>2025-07-15T12:56:29Z</time>
      </trkpt>
      <trkpt lat="43.88858" lon="6.92656">
        <ele>754</ele>
        <time>2025-07-15T12:56:36Z</time>
      </trkpt>
      <trkpt lat="43.88858" lon="6.92642">
        <ele>754.2</ele>
        <time>2025-07-15T12:56:39Z</time>
      </trkpt>
      <trkpt lat="43.88861" lon="6.92609">
        <ele>755.2</ele>
        <time>2025-07-15T12:56:46Z</time>
      </trkpt>
      <trkpt lat="43.88861" lon="6.92604">
        <ele>755.4</ele>
        <time>2025-07-15T12:56:47Z</time>
      </trkpt>
      <trkpt lat="43.88866" lon="6.92567">
        <ele>756.2</ele>
        <time>2025-07-15T12:56:55Z</time>
      </trkpt>
      <trkpt lat="43.8887" lon="6.92546">
        <ele>756.4</ele>
        <time>2025-07-15T12:57:00Z</time>
      </trkpt>
      <trkpt lat="43.88872" lon="6.92533">
        <ele>756.8</ele>
        <time>2025-07-15T12:57:03Z</time>
      </trkpt>
      <trkpt lat="43.88876" lon="6.92512">
        <ele>757.4</ele>
        <time>2025-07-15T12:57:08Z</time>
      </trkpt>
      <trkpt lat="43.88876" lon="6.92507">
        <ele>757.6</ele>
        <time>2025-07-15T12:57:09Z</time>
      </trkpt>
      <trkpt lat="43.8888" lon="6.92489">
        <ele>758.4</ele>
        <time>2025-07-15T12:57:13Z</time>
      </trkpt>
      <trkpt lat="43.88881" lon="6.92474">
        <ele>758.6</ele>
        <time>2025-07-15T12:57:16Z</time>
      </trkpt>
      <trkpt lat="43.88884" lon="6.9245">
        <ele>759.2</ele>
        <time>2025-07-15T12:57:21Z</time>
      </trkpt>
      <trkpt lat="43.88886" lon="6.92436">
        <ele>759.6</ele>
        <time>2025-07-15T12:57:24Z</time>
      </trkpt>
      <trkpt lat="43.88885" lon="6.92423">
        <ele>760.2</ele>
        <time>2025-07-15T12:57:27Z</time>
      </trkpt>
      <trkpt lat="43.88877" lon="6.92406">
        <ele>760.8</ele>
        <time>2025-07-15T12:57:31Z</time>
      </trkpt>
      <trkpt lat="43.88863" lon="6.92393">
        <ele>762</ele>
        <time>2025-07-15T12:57:36Z</time>
      </trkpt>
      <trkpt lat="43.88857" lon="6.92387">
        <ele>762.4</ele>
        <time>2025-07-15T12:57:38Z</time>
      </trkpt>
      <trkpt lat="43.88839" lon="6.92366">
        <ele>762.6</ele>
        <time>2025-07-15T12:57:45Z</time>
      </trkpt>
      <trkpt lat="43.88829" lon="6.92334">
        <ele>762.8</ele>
        <time>2025-07-15T12:57:52Z</time>
      </trkpt>
      <trkpt lat="43.88827" lon="6.92326">
        <ele>763.2</ele>
        <time>2025-07-15T12:57:54Z</time>
      </trkpt>
      <trkpt lat="43.88819" lon="6.92292">
        <ele>763.8</ele>
        <time>2025-07-15T12:58:02Z</time>
      </trkpt>
      <trkpt lat="43.88817" lon="6.92288">
        <ele>764.2</ele>
        <time>2025-07-15T12:58:03Z</time>
      </trkpt>
      <trkpt lat="43.88809" lon="6.9227">
        <ele>765.8</ele>
        <time>2025-07-15T12:58:08Z</time>
      </trkpt>
      <trkpt lat="43.88806" lon="6.92266">
        <ele>765.8</ele>
        <time>2025-07-15T12:58:09Z</time>
      </trkpt>
      <trkpt lat="43.888" lon="6.92256">
        <ele>766.8</ele>
        <time>2025-07-15T12:58:12Z</time>
      </trkpt>
      <trkpt lat="43.88794" lon="6.92239">
        <ele>767.2</ele>
        <time>2025-07-15T12:58:16Z</time>
      </trkpt>
      <trkpt lat="43.88794" lon="6.92208">
        <ele>767.6</ele>
        <time>2025-07-15T12:58:23Z</time>
      </trkpt>
      <trkpt lat="43.88796" lon="6.92196">
        <ele>767.8</ele>
        <time>2025-07-15T12:58:26Z</time>
      </trkpt>
      <trkpt lat="43.88795" lon="6.92178">
        <ele>768.2</ele>
        <time>2025-07-15T12:58:30Z</time>
      </trkpt>
      <trkpt lat="43.88788" lon="6.92155">
        <ele>768.6</ele>
        <time>2025-07-15T12:58:35Z</time>
      </trkpt>
      <trkpt lat="43.88784" lon="6.92149">
        <ele>769.2</ele>
        <time>2025-07-15T12:58:37Z</time>
      </trkpt>
      <trkpt lat="43.88775" lon="6.9213">
        <ele>770.2</ele>
        <time>2025-07-15T12:58:42Z</time>
      </trkpt>
      <trkpt lat="43.88773" lon="6.92126">
        <ele>770.2</ele>
        <time>2025-07-15T12:58:43Z</time>
      </trkpt>
      <trkpt lat="43.88765" lon="6.92093">
        <ele>771.2</ele>
        <time>2025-07-15T12:58:51Z</time>
      </trkpt>
      <trkpt lat="43.88765" lon="6.92089">
        <ele>771.4</ele>
        <time>2025-07-15T12:58:52Z</time>
      </trkpt>
      <trkpt lat="43.88768" lon="6.92068">
        <ele>772</ele>
        <time>2025-07-15T12:58:57Z</time>
      </trkpt>
      <trkpt lat="43.88761" lon="6.92045">
        <ele>772.4</ele>
        <time>2025-07-15T12:59:02Z</time>
      </trkpt>
      <trkpt lat="43.88759" lon="6.92043">
        <ele>772.6</ele>
        <time>2025-07-15T12:59:03Z</time>
      </trkpt>
      <trkpt lat="43.88745" lon="6.92032">
        <ele>773.4</ele>
        <time>2025-07-15T12:59:08Z</time>
      </trkpt>
      <trkpt lat="43.88742" lon="6.9203">
        <ele>773.6</ele>
        <time>2025-07-15T12:59:09Z</time>
      </trkpt>
      <trkpt lat="43.88725" lon="6.92016">
        <ele>774</ele>
        <time>2025-07-15T12:59:15Z</time>
      </trkpt>
      <trkpt lat="43.88721" lon="6.91995">
        <ele>774.4</ele>
        <time>2025-07-15T12:59:20Z</time>
      </trkpt>
      <trkpt lat="43.88722" lon="6.9199">
        <ele>774.6</ele>
        <time>2025-07-15T12:59:21Z</time>
      </trkpt>
      <trkpt lat="43.88726" lon="6.91958">
        <ele>775.2</ele>
        <time>2025-07-15T12:59:28Z</time>
      </trkpt>
      <trkpt lat="43.88726" lon="6.91926">
        <ele>775.6</ele>
        <time>2025-07-15T12:59:35Z</time>
      </trkpt>
      <trkpt lat="43.88725" lon="6.91921">
        <ele>775.8</ele>
        <time>2025-07-15T12:59:36Z</time>
      </trkpt>
      <trkpt lat="43.88722" lon="6.91885">
        <ele>776.6</ele>
        <time>2025-07-15T12:59:44Z</time>
      </trkpt>
      <trkpt lat="43.8872" lon="6.91876">
        <ele>776.8</ele>
        <time>2025-07-15T12:59:46Z</time>
      </trkpt>
      <trkpt lat="43.8872" lon="6.91866">
        <ele>776.8</ele>
        <time>2025-07-15T12:59:48Z</time>
      </trkpt>
      <trkpt lat="43.88723" lon="6.91836">
        <ele>776.8</ele>
        <time>2025-07-15T12:59:54Z</time>
      </trkpt>
      <trkpt lat="43.88732" lon="6.918">
        <ele>777.4</ele>
        <time>2025-07-15T13:00:02Z</time>
      </trkpt>
      <trkpt lat="43.8874" lon="6.91764">
        <ele>777.8</ele>
        <time>2025-07-15T13:00:10Z</time>
      </trkpt>
      <trkpt lat="43.88742" lon="6.91759">
        <ele>778</ele>
        <time>2025-07-15T13:00:11Z</time>
      </trkpt>
      <trkpt lat="43.88746" lon="6.9173">
        <ele>778.4</ele>
        <time>2025-07-15T13:00:17Z</time>
      </trkpt>
      <trkpt lat="43.88751" lon="6.91692">
        <ele>778.8</ele>
        <time>2025-07-15T13:00:25Z</time>
      </trkpt>
      <trkpt lat="43.88752" lon="6.91682">
        <ele>779</ele>
        <time>2025-07-15T13:00:27Z</time>
      </trkpt>
      <trkpt lat="43.88756" lon="6.91638">
        <ele>779.4</ele>
        <time>2025-07-15T13:00:36Z</time>
      </trkpt>
      <trkpt lat="43.88759" lon="6.91599">
        <ele>780.2</ele>
        <time>2025-07-15T13:00:44Z</time>
      </trkpt>
      <trkpt lat="43.88761" lon="6.91585">
        <ele>780.2</ele>
        <time>2025-07-15T13:00:47Z</time>
      </trkpt>
      <trkpt lat="43.88769" lon="6.91548">
        <ele>780.6</ele>
        <time>2025-07-15T13:00:55Z</time>
      </trkpt>
      <trkpt lat="43.88773" lon="6.9151">
        <ele>780.8</ele>
        <time>2025-07-15T13:01:03Z</time>
      </trkpt>
      <trkpt lat="43.88771" lon="6.91491">
        <ele>781.2</ele>
        <time>2025-07-15T13:01:07Z</time>
      </trkpt>
      <trkpt lat="43.88767" lon="6.91473">
        <ele>781.4</ele>
        <time>2025-07-15T13:01:11Z</time>
      </trkpt>
      <trkpt lat="43.88759" lon="6.91427">
        <ele>782</ele>
        <time>2025-07-15T13:01:21Z</time>
      </trkpt>
      <trkpt lat="43.88758" lon="6.91417">
        <ele>782.4</ele>
        <time>2025-07-15T13:01:23Z</time>
      </trkpt>
      <trkpt lat="43.88762" lon="6.91395">
        <ele>782.8</ele>
        <time>2025-07-15T13:01:28Z</time>
      </trkpt>
      <trkpt lat="43.88772" lon="6.91371">
        <ele>783.4</ele>
        <time>2025-07-15T13:01:34Z</time>
      </trkpt>
      <trkpt lat="43.88776" lon="6.91363">
        <ele>783.6</ele>
        <time>2025-07-15T13:01:36Z</time>
      </trkpt>
      <trkpt lat="43.88778" lon="6.9134">
        <ele>783.8</ele>
        <time>2025-07-15T13:01:41Z</time>
      </trkpt>
      <trkpt lat="43.88775" lon="6.91301">
        <ele>784</ele>
        <time>2025-07-15T13:01:49Z</time>
      </trkpt>
      <trkpt lat="43.8878" lon="6.91266">
        <ele>784.4</ele>
        <time>2025-07-15T13:01:56Z</time>
      </trkpt>
      <trkpt lat="43.88782" lon="6.91257">
        <ele>784.4</ele>
        <time>2025-07-15T13:01:58Z</time>
      </trkpt>
      <trkpt lat="43.88791" lon="6.91216">
        <ele>785.4</ele>
        <time>2025-07-15T13:02:07Z</time>
      </trkpt>
      <trkpt lat="43.88791" lon="6.91202">
        <ele>785.6</ele>
        <time>2025-07-15T13:02:10Z</time>
      </trkpt>
      <trkpt lat="43.88791" lon="6.91164">
        <ele>786.4</ele>
        <time>2025-07-15T13:02:18Z</time>
      </trkpt>
      <trkpt lat="43.88792" lon="6.91143">
        <ele>786.6</ele>
        <time>2025-07-15T13:02:23Z</time>
      </trkpt>
      <trkpt lat="43.88792" lon="6.91111">
        <ele>787.2</ele>
        <time>2025-07-15T13:02:30Z</time>
      </trkpt>
      <trkpt lat="43.88791" lon="6.91082">
        <ele>787.8</ele>
        <time>2025-07-15T13:02:36Z</time>
      </trkpt>
      <trkpt lat="43.88788" lon="6.91063">
        <ele>788.4</ele>
        <time>2025-07-15T13:02:40Z</time>
      </trkpt>
      <trkpt lat="43.88786" lon="6.91054">
        <ele>788.8</ele>
        <time>2025-07-15T13:02:42Z</time>
      </trkpt>
      <trkpt lat="43.88777" lon="6.91016">
        <ele>789.2</ele>
        <time>2025-07-15T13:02:50Z</time>
      </trkpt>
      <trkpt lat="43.88768" lon="6.9097">
        <ele>789.8</ele>
        <time>2025-07-15T13:03:00Z</time>
      </trkpt>
      <trkpt lat="43.88767" lon="6.9096">
        <ele>790.4</ele>
        <time>2025-07-15T13:03:02Z</time>
      </trkpt>
      <trkpt lat="43.88758" lon="6.90929">
        <ele>790.6</ele>
        <time>2025-07-15T13:03:09Z</time>
      </trkpt>
      <trkpt lat="43.88739" lon="6.90892">
        <ele>790.8</ele>
        <time>2025-07-15T13:03:18Z</time>
      </trkpt>
      <trkpt lat="43.88724" lon="6.90848">
        <ele>791</ele>
        <time>2025-07-15T13:03:28Z</time>
      </trkpt>
      <trkpt lat="43.88714" lon="6.90805">
        <ele>791.8</ele>
        <time>2025-07-15T13:03:37Z</time>
      </trkpt>
      <trkpt lat="43.88709" lon="6.90787">
        <ele>792.2</ele>
        <time>2025-07-15T13:03:41Z</time>
      </trkpt>
      <trkpt lat="43.88705" lon="6.90768">
        <ele>792.4</ele>
        <time>2025-07-15T13:03:45Z</time>
      </trkpt>
      <trkpt lat="43.88691" lon="6.90718">
        <ele>793.4</ele>
        <time>2025-07-15T13:03:56Z</time>
      </trkpt>
      <trkpt lat="43.8869" lon="6.90713">
        <ele>793.6</ele>
        <time>2025-07-15T13:03:57Z</time>
      </trkpt>
      <trkpt lat="43.88676" lon="6.90675">
        <ele>794.4</ele>
        <time>2025-07-15T13:04:06Z</time>
      </trkpt>
      <trkpt lat="43.88675" lon="6.90671">
        <ele>794.4</ele>
        <time>2025-07-15T13:04:07Z</time>
      </trkpt>
      <trkpt lat="43.88673" lon="6.90659">
        <ele>795.2</ele>
        <time>2025-07-15T13:04:10Z</time>
      </trkpt>
      <trkpt lat="43.88672" lon="6.90655">
        <ele>795.4</ele>
        <time>2025-07-15T13:04:11Z</time>
      </trkpt>
      <trkpt lat="43.88669" lon="6.90647">
        <ele>795.6</ele>
        <time>2025-07-15T13:04:13Z</time>
      </trkpt>
      <trkpt lat="43.88668" lon="6.90642">
        <ele>795.8</ele>
        <time>2025-07-15T13:04:14Z</time>
      </trkpt>
      <trkpt lat="43.88658" lon="6.90604">
        <ele>795.8</ele>
        <time>2025-07-15T13:04:22Z</time>
      </trkpt>
      <trkpt lat="43.88648" lon="6.9057">
        <ele>795.8</ele>
        <time>2025-07-15T13:04:30Z</time>
      </trkpt>
      <trkpt lat="43.88646" lon="6.90532">
        <ele>796.2</ele>
        <time>2025-07-15T13:04:38Z</time>
      </trkpt>
      <trkpt lat="43.88655" lon="6.90503">
        <ele>796.6</ele>
        <time>2025-07-15T13:04:45Z</time>
      </trkpt>
      <trkpt lat="43.88656" lon="6.90498">
        <ele>796.8</ele>
        <time>2025-07-15T13:04:46Z</time>
      </trkpt>
      <trkpt lat="43.88661" lon="6.90476">
        <ele>797.6</ele>
        <time>2025-07-15T13:04:51Z</time>
      </trkpt>
      <trkpt lat="43.88661" lon="6.90471">
        <ele>797.8</ele>
        <time>2025-07-15T13:04:52Z</time>
      </trkpt>
      <trkpt lat="43.88656" lon="6.90453">
        <ele>798.2</ele>
        <time>2025-07-15T13:04:56Z</time>
      </trkpt>
      <trkpt lat="43.88644" lon="6.90439">
        <ele>798.8</ele>
        <time>2025-07-15T13:05:01Z</time>
      </trkpt>
      <trkpt lat="43.8864" lon="6.90438">
        <ele>798.8</ele>
        <time>2025-07-15T13:05:02Z</time>
      </trkpt>
      <trkpt lat="43.8862" lon="6.90426">
        <ele>799.6</ele>
        <time>2025-07-15T13:05:09Z</time>
      </trkpt>
      <trkpt lat="43.8861" lon="6.90415">
        <ele>800</ele>
        <time>2025-07-15T13:05:13Z</time>
      </trkpt>
      <trkpt lat="43.88603" lon="6.90406">
        <ele>800.2</ele>
        <time>2025-07-15T13:05:16Z</time>
      </trkpt>
      <trkpt lat="43.88598" lon="6.90393">
        <ele>801</ele>
        <time>2025-07-15T13:05:20Z</time>
      </trkpt>
      <trkpt lat="43.88596" lon="6.90389">
        <ele>801</ele>
        <time>2025-07-15T13:05:21Z</time>
      </trkpt>
      <trkpt lat="43.88585" lon="6.90368">
        <ele>801.8</ele>
        <time>2025-07-15T13:05:28Z</time>
      </trkpt>
      <trkpt lat="43.88581" lon="6.9036">
        <ele>802.2</ele>
        <time>2025-07-15T13:05:31Z</time>
      </trkpt>
      <trkpt lat="43.88576" lon="6.90348">
        <ele>802.4</ele>
        <time>2025-07-15T13:05:35Z</time>
      </trkpt>
      <trkpt lat="43.88571" lon="6.9033">
        <ele>803.4</ele>
        <time>2025-07-15T13:05:40Z</time>
      </trkpt>
      <trkpt lat="43.88571" lon="6.9032">
        <ele>803.8</ele>
        <time>2025-07-15T13:05:43Z</time>
      </trkpt>
      <trkpt lat="43.88571" lon="6.903">
        <ele>804.6</ele>
        <time>2025-07-15T13:05:49Z</time>
      </trkpt>
      <trkpt lat="43.88564" lon="6.90274">
        <ele>805.6</ele>
        <time>2025-07-15T13:05:57Z</time>
      </trkpt>
      <trkpt lat="43.88562" lon="6.90273">
        <ele>805.8</ele>
        <time>2025-07-15T13:05:58Z</time>
      </trkpt>
      <trkpt lat="43.88552" lon="6.90268">
        <ele>806.8</ele>
        <time>2025-07-15T13:06:02Z</time>
      </trkpt>
      <trkpt lat="43.88549" lon="6.90267">
        <ele>807</ele>
        <time>2025-07-15T13:06:03Z</time>
      </trkpt>
      <trkpt lat="43.88539" lon="6.90264">
        <ele>807.8</ele>
        <time>2025-07-15T13:06:07Z</time>
      </trkpt>
      <trkpt lat="43.88529" lon="6.90262">
        <ele>808.4</ele>
        <time>2025-07-15T13:06:11Z</time>
      </trkpt>
      <trkpt lat="43.88514" lon="6.90249">
        <ele>809</ele>
        <time>2025-07-15T13:06:18Z</time>
      </trkpt>
      <trkpt lat="43.88499" lon="6.90227">
        <ele>810</ele>
        <time>2025-07-15T13:06:27Z</time>
      </trkpt>
      <trkpt lat="43.88485" lon="6.90203">
        <ele>811</ele>
        <time>2025-07-15T13:06:36Z</time>
      </trkpt>
      <trkpt lat="43.88481" lon="6.90198">
        <ele>811</ele>
        <time>2025-07-15T13:06:38Z</time>
      </trkpt>
      <trkpt lat="43.88467" lon="6.90177">
        <ele>811.8</ele>
        <time>2025-07-15T13:06:46Z</time>
      </trkpt>
      <trkpt lat="43.88464" lon="6.90171">
        <ele>812</ele>
        <time>2025-07-15T13:06:48Z</time>
      </trkpt>
      <trkpt lat="43.88459" lon="6.90151">
        <ele>813</ele>
        <time>2025-07-15T13:06:54Z</time>
      </trkpt>
      <trkpt lat="43.88459" lon="6.90148">
        <ele>813.2</ele>
        <time>2025-07-15T13:06:55Z</time>
      </trkpt>
      <trkpt lat="43.88459" lon="6.90121">
        <ele>813.8</ele>
        <time>2025-07-15T13:07:02Z</time>
      </trkpt>
      <trkpt lat="43.88462" lon="6.90111">
        <ele>814.4</ele>
        <time>2025-07-15T13:07:05Z</time>
      </trkpt>
      <trkpt lat="43.88465" lon="6.90104">
        <ele>814.6</ele>
        <time>2025-07-15T13:07:07Z</time>
      </trkpt>
      <trkpt lat="43.88467" lon="6.90097">
        <ele>814.8</ele>
        <time>2025-07-15T13:07:09Z</time>
      </trkpt>
      <trkpt lat="43.88479" lon="6.90067">
        <ele>815.2</ele>
        <time>2025-07-15T13:07:18Z</time>
      </trkpt>
      <trkpt lat="43.88483" lon="6.90047">
        <ele>815.4</ele>
        <time>2025-07-15T13:07:23Z</time>
      </trkpt>
      <trkpt lat="43.88484" lon="6.90032">
        <ele>815.8</ele>
        <time>2025-07-15T13:07:27Z</time>
      </trkpt>
      <trkpt lat="43.88483" lon="6.90004">
        <ele>816.4</ele>
        <time>2025-07-15T13:07:34Z</time>
      </trkpt>
      <trkpt lat="43.88482" lon="6.89985">
        <ele>817.2</ele>
        <time>2025-07-15T13:07:39Z</time>
      </trkpt>
      <trkpt lat="43.88481" lon="6.89963">
        <ele>817.4</ele>
        <time>2025-07-15T13:07:45Z</time>
      </trkpt>
      <trkpt lat="43.88478" lon="6.89928">
        <ele>818</ele>
        <time>2025-07-15T13:07:54Z</time>
      </trkpt>
      <trkpt lat="43.88474" lon="6.899">
        <ele>818.6</ele>
        <time>2025-07-15T13:08:01Z</time>
      </trkpt>
      <trkpt lat="43.88473" lon="6.89888">
        <ele>818.8</ele>
        <time>2025-07-15T13:08:04Z</time>
      </trkpt>
      <trkpt lat="43.88472" lon="6.89876">
        <ele>819.6</ele>
        <time>2025-07-15T13:08:07Z</time>
      </trkpt>
      <trkpt lat="43.88471" lon="6.89845">
        <ele>820.8</ele>
        <time>2025-07-15T13:08:15Z</time>
      </trkpt>
      <trkpt lat="43.88474" lon="6.89806">
        <ele>821.4</ele>
        <time>2025-07-15T13:08:25Z</time>
      </trkpt>
      <trkpt lat="43.88478" lon="6.89787">
        <ele>822</ele>
        <time>2025-07-15T13:08:30Z</time>
      </trkpt>
      <trkpt lat="43.88479" lon="6.89768">
        <ele>822.6</ele>
        <time>2025-07-15T13:08:35Z</time>
      </trkpt>
      <trkpt lat="43.88476" lon="6.89742">
        <ele>823</ele>
        <time>2025-07-15T13:08:41Z</time>
      </trkpt>
      <trkpt lat="43.88475" lon="6.89735">
        <ele>823</ele>
        <time>2025-07-15T13:08:43Z</time>
      </trkpt>
      <trkpt lat="43.88464" lon="6.89694">
        <ele>824</ele>
        <time>2025-07-15T13:08:54Z</time>
      </trkpt>
      <trkpt lat="43.88463" lon="6.89691">
        <ele>824.2</ele>
        <time>2025-07-15T13:08:55Z</time>
      </trkpt>
      <trkpt lat="43.88454" lon="6.89652">
        <ele>825</ele>
        <time>2025-07-15T13:09:05Z</time>
      </trkpt>
      <trkpt lat="43.88454" lon="6.89648">
        <ele>825.2</ele>
        <time>2025-07-15T13:09:06Z</time>
      </trkpt>
      <trkpt lat="43.88449" lon="6.89626">
        <ele>826.4</ele>
        <time>2025-07-15T13:09:13Z</time>
      </trkpt>
      <trkpt lat="43.88445" lon="6.89585">
        <ele>827</ele>
        <time>2025-07-15T13:09:23Z</time>
      </trkpt>
      <trkpt lat="43.88442" lon="6.89567">
        <ele>827.4</ele>
        <time>2025-07-15T13:09:27Z</time>
      </trkpt>
      <trkpt lat="43.88437" lon="6.89557">
        <ele>827.6</ele>
        <time>2025-07-15T13:09:30Z</time>
      </trkpt>
      <trkpt lat="43.88422" lon="6.89537">
        <ele>828.4</ele>
        <time>2025-07-15T13:09:37Z</time>
      </trkpt>
      <trkpt lat="43.8842" lon="6.89534">
        <ele>828.4</ele>
        <time>2025-07-15T13:09:38Z</time>
      </trkpt>
      <trkpt lat="43.88406" lon="6.89514">
        <ele>829</ele>
        <time>2025-07-15T13:09:45Z</time>
      </trkpt>
      <trkpt lat="43.88392" lon="6.89499">
        <ele>829.6</ele>
        <time>2025-07-15T13:09:51Z</time>
      </trkpt>
      <trkpt lat="43.88386" lon="6.89491">
        <ele>829.6</ele>
        <time>2025-07-15T13:09:54Z</time>
      </trkpt>
      <trkpt lat="43.88372" lon="6.89477">
        <ele>830.6</ele>
        <time>2025-07-15T13:10:00Z</time>
      </trkpt>
      <trkpt lat="43.88364" lon="6.89466">
        <ele>831.2</ele>
        <time>2025-07-15T13:10:04Z</time>
      </trkpt>
      <trkpt lat="43.88362" lon="6.89446">
        <ele>831.6</ele>
        <time>2025-07-15T13:10:09Z</time>
      </trkpt>
      <trkpt lat="43.8837" lon="6.89431">
        <ele>832.4</ele>
        <time>2025-07-15T13:10:14Z</time>
      </trkpt>
      <trkpt lat="43.88379" lon="6.8942">
        <ele>832.6</ele>
        <time>2025-07-15T13:10:18Z</time>
      </trkpt>
      <trkpt lat="43.88392" lon="6.89407">
        <ele>832.8</ele>
        <time>2025-07-15T13:10:24Z</time>
      </trkpt>
      <trkpt lat="43.88413" lon="6.8939">
        <ele>833</ele>
        <time>2025-07-15T13:10:33Z</time>
      </trkpt>
      <trkpt lat="43.88433" lon="6.89376">
        <ele>833.6</ele>
        <time>2025-07-15T13:10:41Z</time>
      </trkpt>
      <trkpt lat="43.88435" lon="6.89374">
        <ele>833.8</ele>
        <time>2025-07-15T13:10:42Z</time>
      </trkpt>
      <trkpt lat="43.88444" lon="6.89356">
        <ele>835.2</ele>
        <time>2025-07-15T13:10:47Z</time>
      </trkpt>
      <trkpt lat="43.8845" lon="6.89333">
        <ele>836.2</ele>
        <time>2025-07-15T13:10:53Z</time>
      </trkpt>
      <trkpt lat="43.88454" lon="6.89317">
        <ele>836.6</ele>
        <time>2025-07-15T13:10:57Z</time>
      </trkpt>
      <trkpt lat="43.88462" lon="6.89302">
        <ele>837.2</ele>
        <time>2025-07-15T13:11:02Z</time>
      </trkpt>
      <trkpt lat="43.88467" lon="6.89296">
        <ele>837.4</ele>
        <time>2025-07-15T13:11:04Z</time>
      </trkpt>
      <trkpt lat="43.88487" lon="6.89267">
        <ele>838.4</ele>
        <time>2025-07-15T13:11:14Z</time>
      </trkpt>
      <trkpt lat="43.88493" lon="6.89244">
        <ele>839.4</ele>
        <time>2025-07-15T13:11:20Z</time>
      </trkpt>
      <trkpt lat="43.88494" lon="6.8924">
        <ele>839.6</ele>
        <time>2025-07-15T13:11:21Z</time>
      </trkpt>
      <trkpt lat="43.88497" lon="6.89206">
        <ele>840.6</ele>
        <time>2025-07-15T13:11:29Z</time>
      </trkpt>
      <trkpt lat="43.88498" lon="6.89194">
        <ele>840.8</ele>
        <time>2025-07-15T13:11:32Z</time>
      </trkpt>
      <trkpt lat="43.88497" lon="6.89164">
        <ele>841.4</ele>
        <time>2025-07-15T13:11:39Z</time>
      </trkpt>
      <trkpt lat="43.88496" lon="6.8916">
        <ele>841.6</ele>
        <time>2025-07-15T13:11:40Z</time>
      </trkpt>
      <trkpt lat="43.88488" lon="6.89142">
        <ele>842</ele>
        <time>2025-07-15T13:11:45Z</time>
      </trkpt>
      <trkpt lat="43.88473" lon="6.89131">
        <ele>842.6</ele>
        <time>2025-07-15T13:11:51Z</time>
      </trkpt>
      <trkpt lat="43.8847" lon="6.8913">
        <ele>842.8</ele>
        <time>2025-07-15T13:11:52Z</time>
      </trkpt>
      <trkpt lat="43.88456" lon="6.89123">
        <ele>843.4</ele>
        <time>2025-07-15T13:11:58Z</time>
      </trkpt>
      <trkpt lat="43.88449" lon="6.89119">
        <ele>843.6</ele>
        <time>2025-07-15T13:12:01Z</time>
      </trkpt>
      <trkpt lat="43.88442" lon="6.89108">
        <ele>843.8</ele>
        <time>2025-07-15T13:12:05Z</time>
      </trkpt>
      <trkpt lat="43.88437" lon="6.8909">
        <ele>843.8</ele>
        <time>2025-07-15T13:12:09Z</time>
      </trkpt>
      <trkpt lat="43.88435" lon="6.89055">
        <ele>842.8</ele>
        <time>2025-07-15T13:12:14Z</time>
      </trkpt>
      <trkpt lat="43.88435" lon="6.89039">
        <ele>842.6</ele>
        <time>2025-07-15T13:12:16Z</time>
      </trkpt>
      <trkpt lat="43.88434" lon="6.89006">
        <ele>841.6</ele>
        <time>2025-07-15T13:12:20Z</time>
      </trkpt>
      <trkpt lat="43.88432" lon="6.8898">
        <ele>841.2</ele>
        <time>2025-07-15T13:12:23Z</time>
      </trkpt>
      <trkpt lat="43.88428" lon="6.88952">
        <ele>840.4</ele>
        <time>2025-07-15T13:12:26Z</time>
      </trkpt>
      <trkpt lat="43.88425" lon="6.88932">
        <ele>840.2</ele>
        <time>2025-07-15T13:12:28Z</time>
      </trkpt>
      <trkpt lat="43.88422" lon="6.88903">
        <ele>839.6</ele>
        <time>2025-07-15T13:12:31Z</time>
      </trkpt>
      <trkpt lat="43.88417" lon="6.88875">
        <ele>838.4</ele>
        <time>2025-07-15T13:12:34Z</time>
      </trkpt>
      <trkpt lat="43.88415" lon="6.88865">
        <ele>838</ele>
        <time>2025-07-15T13:12:35Z</time>
      </trkpt>
      <trkpt lat="43.88408" lon="6.88825">
        <ele>837.2</ele>
        <time>2025-07-15T13:12:39Z</time>
      </trkpt>
      <trkpt lat="43.88407" lon="6.88791">
        <ele>836.2</ele>
        <time>2025-07-15T13:12:42Z</time>
      </trkpt>
      <trkpt lat="43.88407" lon="6.88783">
        <ele>836</ele>
        <time>2025-07-15T13:12:43Z</time>
      </trkpt>
      <trkpt lat="43.8841" lon="6.88748">
        <ele>834.6</ele>
        <time>2025-07-15T13:12:46Z</time>
      </trkpt>
      <trkpt lat="43.88412" lon="6.88728">
        <ele>834</ele>
        <time>2025-07-15T13:12:48Z</time>
      </trkpt>
      <trkpt lat="43.88416" lon="6.88704">
        <ele>833.6</ele>
        <time>2025-07-15T13:12:50Z</time>
      </trkpt>
      <trkpt lat="43.8842" lon="6.88682">
        <ele>832.4</ele>
        <time>2025-07-15T13:12:52Z</time>
      </trkpt>
      <trkpt lat="43.88422" lon="6.88671">
        <ele>832.2</ele>
        <time>2025-07-15T13:12:53Z</time>
      </trkpt>
      <trkpt lat="43.88424" lon="6.8866">
        <ele>831.8</ele>
        <time>2025-07-15T13:12:54Z</time>
      </trkpt>
      <trkpt lat="43.88427" lon="6.8865">
        <ele>831.4</ele>
        <time>2025-07-15T13:12:55Z</time>
      </trkpt>
      <trkpt lat="43.88434" lon="6.88629">
        <ele>830.6</ele>
        <time>2025-07-15T13:12:57Z</time>
      </trkpt>
      <trkpt lat="43.88437" lon="6.88618">
        <ele>830.2</ele>
        <time>2025-07-15T13:12:58Z</time>
      </trkpt>
      <trkpt lat="43.8844" lon="6.88608">
        <ele>829.6</ele>
        <time>2025-07-15T13:12:59Z</time>
      </trkpt>
      <trkpt lat="43.88442" lon="6.88584">
        <ele>828.8</ele>
        <time>2025-07-15T13:13:01Z</time>
      </trkpt>
      <trkpt lat="43.88444" lon="6.88548">
        <ele>827.6</ele>
        <time>2025-07-15T13:13:04Z</time>
      </trkpt>
      <trkpt lat="43.88448" lon="6.88512">
        <ele>826.6</ele>
        <time>2025-07-15T13:13:07Z</time>
      </trkpt>
      <trkpt lat="43.88456" lon="6.88481">
        <ele>825</ele>
        <time>2025-07-15T13:13:10Z</time>
      </trkpt>
      <trkpt lat="43.88457" lon="6.88468">
        <ele>824.8</ele>
        <time>2025-07-15T13:13:11Z</time>
      </trkpt>
      <trkpt lat="43.88457" lon="6.88459">
        <ele>824.2</ele>
        <time>2025-07-15T13:13:12Z</time>
      </trkpt>
      <trkpt lat="43.88456" lon="6.88448">
        <ele>823.8</ele>
        <time>2025-07-15T13:13:13Z</time>
      </trkpt>
      <trkpt lat="43.88454" lon="6.88426">
        <ele>823.4</ele>
        <time>2025-07-15T13:13:15Z</time>
      </trkpt>
      <trkpt lat="43.88452" lon="6.88403">
        <ele>822.6</ele>
        <time>2025-07-15T13:13:17Z</time>
      </trkpt>
      <trkpt lat="43.88453" lon="6.88357">
        <ele>821.4</ele>
        <time>2025-07-15T13:13:21Z</time>
      </trkpt>
      <trkpt lat="43.88457" lon="6.88321">
        <ele>820</ele>
        <time>2025-07-15T13:13:24Z</time>
      </trkpt>
      <trkpt lat="43.88461" lon="6.88284">
        <ele>818.8</ele>
        <time>2025-07-15T13:13:27Z</time>
      </trkpt>
      <trkpt lat="43.88463" lon="6.88259">
        <ele>818.2</ele>
        <time>2025-07-15T13:13:29Z</time>
      </trkpt>
      <trkpt lat="43.88464" lon="6.88246">
        <ele>817.6</ele>
        <time>2025-07-15T13:13:30Z</time>
      </trkpt>
      <trkpt lat="43.88466" lon="6.88207">
        <ele>816.2</ele>
        <time>2025-07-15T13:13:33Z</time>
      </trkpt>
      <trkpt lat="43.88465" lon="6.8818">
        <ele>815</ele>
        <time>2025-07-15T13:13:35Z</time>
      </trkpt>
      <trkpt lat="43.88462" lon="6.88153">
        <ele>814</ele>
        <time>2025-07-15T13:13:37Z</time>
      </trkpt>
      <trkpt lat="43.88456" lon="6.88128">
        <ele>813.4</ele>
        <time>2025-07-15T13:13:39Z</time>
      </trkpt>
      <trkpt lat="43.88453" lon="6.88116">
        <ele>812.6</ele>
        <time>2025-07-15T13:13:40Z</time>
      </trkpt>
      <trkpt lat="43.88446" lon="6.8809">
        <ele>811.6</ele>
        <time>2025-07-15T13:13:42Z</time>
      </trkpt>
      <trkpt lat="43.88441" lon="6.88066">
        <ele>810.6</ele>
        <time>2025-07-15T13:13:44Z</time>
      </trkpt>
      <trkpt lat="43.88439" lon="6.88054">
        <ele>810.2</ele>
        <time>2025-07-15T13:13:45Z</time>
      </trkpt>
      <trkpt lat="43.88439" lon="6.88042">
        <ele>809.8</ele>
        <time>2025-07-15T13:13:46Z</time>
      </trkpt>
      <trkpt lat="43.88439" lon="6.88016">
        <ele>808.8</ele>
        <time>2025-07-15T13:13:48Z</time>
      </trkpt>
      <trkpt lat="43.88437" lon="6.88002">
        <ele>808.4</ele>
        <time>2025-07-15T13:13:49Z</time>
      </trkpt>
      <trkpt lat="43.88433" lon="6.8799">
        <ele>808</ele>
        <time>2025-07-15T13:13:50Z</time>
      </trkpt>
      <trkpt lat="43.88429" lon="6.87979">
        <ele>807.6</ele>
        <time>2025-07-15T13:13:51Z</time>
      </trkpt>
      <trkpt lat="43.88423" lon="6.87968">
        <ele>807.4</ele>
        <time>2025-07-15T13:13:52Z</time>
      </trkpt>
      <trkpt lat="43.88411" lon="6.87949">
        <ele>806.6</ele>
        <time>2025-07-15T13:13:54Z</time>
      </trkpt>
      <trkpt lat="43.88407" lon="6.87926">
        <ele>805.4</ele>
        <time>2025-07-15T13:13:56Z</time>
      </trkpt>
      <trkpt lat="43.88411" lon="6.87902">
        <ele>804.4</ele>
        <time>2025-07-15T13:13:58Z</time>
      </trkpt>
      <trkpt lat="43.88413" lon="6.87889">
        <ele>803.8</ele>
        <time>2025-07-15T13:13:59Z</time>
      </trkpt>
      <trkpt lat="43.88415" lon="6.87879">
        <ele>803.2</ele>
        <time>2025-07-15T13:14:00Z</time>
      </trkpt>
      <trkpt lat="43.88414" lon="6.87864">
        <ele>803</ele>
        <time>2025-07-15T13:14:01Z</time>
      </trkpt>
      <trkpt lat="43.88411" lon="6.87853">
        <ele>802.6</ele>
        <time>2025-07-15T13:14:02Z</time>
      </trkpt>
      <trkpt lat="43.88406" lon="6.87844">
        <ele>802.2</ele>
        <time>2025-07-15T13:14:03Z</time>
      </trkpt>
      <trkpt lat="43.88393" lon="6.87833">
        <ele>801</ele>
        <time>2025-07-15T13:14:05Z</time>
      </trkpt>
      <trkpt lat="43.88385" lon="6.8783">
        <ele>800.4</ele>
        <time>2025-07-15T13:14:06Z</time>
      </trkpt>
      <trkpt lat="43.8837" lon="6.87824">
        <ele>800</ele>
        <time>2025-07-15T13:14:08Z</time>
      </trkpt>
      <trkpt lat="43.88359" lon="6.87809">
        <ele>799.2</ele>
        <time>2025-07-15T13:14:10Z</time>
      </trkpt>
      <trkpt lat="43.88357" lon="6.87799">
        <ele>799</ele>
        <time>2025-07-15T13:14:11Z</time>
      </trkpt>
      <trkpt lat="43.88359" lon="6.8779">
        <ele>798.4</ele>
        <time>2025-07-15T13:14:12Z</time>
      </trkpt>
      <trkpt lat="43.88363" lon="6.87781">
        <ele>797.8</ele>
        <time>2025-07-15T13:14:13Z</time>
      </trkpt>
      <trkpt lat="43.88371" lon="6.87763">
        <ele>796.8</ele>
        <time>2025-07-15T13:14:15Z</time>
      </trkpt>
      <trkpt lat="43.88379" lon="6.87742">
        <ele>796</ele>
        <time>2025-07-15T13:14:17Z</time>
      </trkpt>
      <trkpt lat="43.8838" lon="6.87731">
        <ele>795.2</ele>
        <time>2025-07-15T13:14:18Z</time>
      </trkpt>
      <trkpt lat="43.8838" lon="6.87718">
        <ele>794.8</ele>
        <time>2025-07-15T13:14:19Z</time>
      </trkpt>
      <trkpt lat="43.88379" lon="6.87706">
        <ele>794</ele>
        <time>2025-07-15T13:14:20Z</time>
      </trkpt>
      <trkpt lat="43.88375" lon="6.8768">
        <ele>793</ele>
        <time>2025-07-15T13:14:22Z</time>
      </trkpt>
      <trkpt lat="43.88366" lon="6.87643">
        <ele>791.8</ele>
        <time>2025-07-15T13:14:25Z</time>
      </trkpt>
      <trkpt lat="43.88364" lon="6.8763">
        <ele>791.6</ele>
        <time>2025-07-15T13:14:26Z</time>
      </trkpt>
      <trkpt lat="43.88363" lon="6.87604">
        <ele>790.8</ele>
        <time>2025-07-15T13:14:28Z</time>
      </trkpt>
      <trkpt lat="43.88363" lon="6.87591">
        <ele>790.4</ele>
        <time>2025-07-15T13:14:29Z</time>
      </trkpt>
      <trkpt lat="43.88361" lon="6.87563">
        <ele>789.4</ele>
        <time>2025-07-15T13:14:31Z</time>
      </trkpt>
      <trkpt lat="43.88359" lon="6.87534">
        <ele>788.4</ele>
        <time>2025-07-15T13:14:33Z</time>
      </trkpt>
      <trkpt lat="43.88357" lon="6.8752">
        <ele>787.8</ele>
        <time>2025-07-15T13:14:34Z</time>
      </trkpt>
      <trkpt lat="43.88354" lon="6.87507">
        <ele>787.6</ele>
        <time>2025-07-15T13:14:35Z</time>
      </trkpt>
      <trkpt lat="43.88349" lon="6.87493">
        <ele>787</ele>
        <time>2025-07-15T13:14:36Z</time>
      </trkpt>
      <trkpt lat="43.88337" lon="6.8747">
        <ele>785.8</ele>
        <time>2025-07-15T13:14:38Z</time>
      </trkpt>
      <trkpt lat="43.88313" lon="6.87441">
        <ele>784.8</ele>
        <time>2025-07-15T13:14:41Z</time>
      </trkpt>
      <trkpt lat="43.883" lon="6.87421">
        <ele>784</ele>
        <time>2025-07-15T13:14:43Z</time>
      </trkpt>
      <trkpt lat="43.88294" lon="6.87411">
        <ele>783.6</ele>
        <time>2025-07-15T13:14:44Z</time>
      </trkpt>
      <trkpt lat="43.88288" lon="6.87401">
        <ele>783</ele>
        <time>2025-07-15T13:14:45Z</time>
      </trkpt>
      <trkpt lat="43.88284" lon="6.8739">
        <ele>782.8</ele>
        <time>2025-07-15T13:14:46Z</time>
      </trkpt>
      <trkpt lat="43.88283" lon="6.87378">
        <ele>782.2</ele>
        <time>2025-07-15T13:14:47Z</time>
      </trkpt>
      <trkpt lat="43.88285" lon="6.87366">
        <ele>781.8</ele>
        <time>2025-07-15T13:14:48Z</time>
      </trkpt>
      <trkpt lat="43.88288" lon="6.87354">
        <ele>781.2</ele>
        <time>2025-07-15T13:14:49Z</time>
      </trkpt>
      <trkpt lat="43.88296" lon="6.87333">
        <ele>780.2</ele>
        <time>2025-07-15T13:14:51Z</time>
      </trkpt>
      <trkpt lat="43.88301" lon="6.87324">
        <ele>779.2</ele>
        <time>2025-07-15T13:14:52Z</time>
      </trkpt>
      <trkpt lat="43.88307" lon="6.87317">
        <ele>778.6</ele>
        <time>2025-07-15T13:14:53Z</time>
      </trkpt>
      <trkpt lat="43.88313" lon="6.87314">
        <ele>778</ele>
        <time>2025-07-15T13:14:54Z</time>
      </trkpt>
      <trkpt lat="43.88321" lon="6.87313">
        <ele>777.6</ele>
        <time>2025-07-15T13:14:55Z</time>
      </trkpt>
      <trkpt lat="43.88328" lon="6.87314">
        <ele>776.6</ele>
        <time>2025-07-15T13:14:56Z</time>
      </trkpt>
      <trkpt lat="43.88336" lon="6.87315">
        <ele>776.2</ele>
        <time>2025-07-15T13:14:57Z</time>
      </trkpt>
      <trkpt lat="43.88343" lon="6.87314">
        <ele>775.4</ele>
        <time>2025-07-15T13:14:58Z</time>
      </trkpt>
      <trkpt lat="43.88348" lon="6.8731">
        <ele>774.6</ele>
        <time>2025-07-15T13:14:59Z</time>
      </trkpt>
      <trkpt lat="43.88352" lon="6.87305">
        <ele>774.2</ele>
        <time>2025-07-15T13:15:00Z</time>
      </trkpt>
      <trkpt lat="43.88354" lon="6.87297">
        <ele>773.6</ele>
        <time>2025-07-15T13:15:01Z</time>
      </trkpt>
      <trkpt lat="43.88354" lon="6.87287">
        <ele>773.2</ele>
        <time>2025-07-15T13:15:02Z</time>
      </trkpt>
      <trkpt lat="43.88354" lon="6.87277">
        <ele>772.6</ele>
        <time>2025-07-15T13:15:03Z</time>
      </trkpt>
      <trkpt lat="43.8835" lon="6.87234">
        <ele>771.2</ele>
        <time>2025-07-15T13:15:07Z</time>
      </trkpt>
      <trkpt lat="43.88351" lon="6.8722">
        <ele>770.8</ele>
        <time>2025-07-15T13:15:08Z</time>
      </trkpt>
      <trkpt lat="43.88353" lon="6.87199">
        <ele>770</ele>
        <time>2025-07-15T13:15:10Z</time>
      </trkpt>
      <trkpt lat="43.88355" lon="6.87185">
        <ele>769.8</ele>
        <time>2025-07-15T13:15:11Z</time>
      </trkpt>
      <trkpt lat="43.8836" lon="6.87162">
        <ele>769.2</ele>
        <time>2025-07-15T13:15:13Z</time>
      </trkpt>
      <trkpt lat="43.88364" lon="6.87153">
        <ele>768.8</ele>
        <time>2025-07-15T13:15:14Z</time>
      </trkpt>
      <trkpt lat="43.88369" lon="6.87146">
        <ele>768.6</ele>
        <time>2025-07-15T13:15:15Z</time>
      </trkpt>
      <trkpt lat="43.88385" lon="6.87135">
        <ele>767.4</ele>
        <time>2025-07-15T13:15:17Z</time>
      </trkpt>
      <trkpt lat="43.88394" lon="6.87131">
        <ele>767</ele>
        <time>2025-07-15T13:15:18Z</time>
      </trkpt>
      <trkpt lat="43.88401" lon="6.87126">
        <ele>766.2</ele>
        <time>2025-07-15T13:15:19Z</time>
      </trkpt>
      <trkpt lat="43.88411" lon="6.8711">
        <ele>765.4</ele>
        <time>2025-07-15T13:15:21Z</time>
      </trkpt>
      <trkpt lat="43.88412" lon="6.87099">
        <ele>765.2</ele>
        <time>2025-07-15T13:15:22Z</time>
      </trkpt>
      <trkpt lat="43.88411" lon="6.87089">
        <ele>764.8</ele>
        <time>2025-07-15T13:15:23Z</time>
      </trkpt>
      <trkpt lat="43.88407" lon="6.87079">
        <ele>764.4</ele>
        <time>2025-07-15T13:15:24Z</time>
      </trkpt>
      <trkpt lat="43.88402" lon="6.8707">
        <ele>763.8</ele>
        <time>2025-07-15T13:15:25Z</time>
      </trkpt>
      <trkpt lat="43.88387" lon="6.87041">
        <ele>763</ele>
        <time>2025-07-15T13:15:28Z</time>
      </trkpt>
      <trkpt lat="43.88383" lon="6.87031">
        <ele>762.6</ele>
        <time>2025-07-15T13:15:29Z</time>
      </trkpt>
      <trkpt lat="43.88376" lon="6.86996">
        <ele>761.6</ele>
        <time>2025-07-15T13:15:32Z</time>
      </trkpt>
      <trkpt lat="43.88373" lon="6.86985">
        <ele>761.4</ele>
        <time>2025-07-15T13:15:33Z</time>
      </trkpt>
      <trkpt lat="43.8837" lon="6.86961">
        <ele>760.4</ele>
        <time>2025-07-15T13:15:35Z</time>
      </trkpt>
      <trkpt lat="43.8837" lon="6.86925">
        <ele>759.4</ele>
        <time>2025-07-15T13:15:38Z</time>
      </trkpt>
      <trkpt lat="43.88371" lon="6.86914">
        <ele>758.8</ele>
        <time>2025-07-15T13:15:39Z</time>
      </trkpt>
      <trkpt lat="43.88373" lon="6.86902">
        <ele>758.6</ele>
        <time>2025-07-15T13:15:40Z</time>
      </trkpt>
      <trkpt lat="43.88377" lon="6.86892">
        <ele>757.8</ele>
        <time>2025-07-15T13:15:41Z</time>
      </trkpt>
      <trkpt lat="43.88381" lon="6.86883">
        <ele>757.4</ele>
        <time>2025-07-15T13:15:42Z</time>
      </trkpt>
      <trkpt lat="43.88387" lon="6.86877">
        <ele>756.8</ele>
        <time>2025-07-15T13:15:43Z</time>
      </trkpt>
      <trkpt lat="43.88394" lon="6.86874">
        <ele>756</ele>
        <time>2025-07-15T13:15:44Z</time>
      </trkpt>
      <trkpt lat="43.88401" lon="6.86875">
        <ele>755.6</ele>
        <time>2025-07-15T13:15:45Z</time>
      </trkpt>
      <trkpt lat="43.88408" lon="6.86878">
        <ele>755.2</ele>
        <time>2025-07-15T13:15:46Z</time>
      </trkpt>
      <trkpt lat="43.88415" lon="6.86882">
        <ele>755</ele>
        <time>2025-07-15T13:15:47Z</time>
      </trkpt>
      <trkpt lat="43.88421" lon="6.86887">
        <ele>754.2</ele>
        <time>2025-07-15T13:15:48Z</time>
      </trkpt>
      <trkpt lat="43.88428" lon="6.86893">
        <ele>754</ele>
        <time>2025-07-15T13:15:49Z</time>
      </trkpt>
      <trkpt lat="43.88435" lon="6.86898">
        <ele>753.4</ele>
        <time>2025-07-15T13:15:50Z</time>
      </trkpt>
      <trkpt lat="43.88443" lon="6.86899">
        <ele>753</ele>
        <time>2025-07-15T13:15:51Z</time>
      </trkpt>
      <trkpt lat="43.8845" lon="6.86897">
        <ele>752.4</ele>
        <time>2025-07-15T13:15:52Z</time>
      </trkpt>
      <trkpt lat="43.88455" lon="6.86891">
        <ele>752</ele>
        <time>2025-07-15T13:15:53Z</time>
      </trkpt>
      <trkpt lat="43.88459" lon="6.86883">
        <ele>751.6</ele>
        <time>2025-07-15T13:15:54Z</time>
      </trkpt>
      <trkpt lat="43.88468" lon="6.86866">
        <ele>751.2</ele>
        <time>2025-07-15T13:15:56Z</time>
      </trkpt>
      <trkpt lat="43.88475" lon="6.86859">
        <ele>750.8</ele>
        <time>2025-07-15T13:15:57Z</time>
      </trkpt>
      <trkpt lat="43.88481" lon="6.86854">
        <ele>750.6</ele>
        <time>2025-07-15T13:15:58Z</time>
      </trkpt>
      <trkpt lat="43.88496" lon="6.86844">
        <ele>750.4</ele>
        <time>2025-07-15T13:16:00Z</time>
      </trkpt>
      <trkpt lat="43.88513" lon="6.86839">
        <ele>749.4</ele>
        <time>2025-07-15T13:16:02Z</time>
      </trkpt>
      <trkpt lat="43.88529" lon="6.86835">
        <ele>748.8</ele>
        <time>2025-07-15T13:16:04Z</time>
      </trkpt>
      <trkpt lat="43.88545" lon="6.86828">
        <ele>748.2</ele>
        <time>2025-07-15T13:16:06Z</time>
      </trkpt>
      <trkpt lat="43.88574" lon="6.86806">
        <ele>747</ele>
        <time>2025-07-15T13:16:10Z</time>
      </trkpt>
      <trkpt lat="43.88588" lon="6.86792">
        <ele>746.2</ele>
        <time>2025-07-15T13:16:12Z</time>
      </trkpt>
      <trkpt lat="43.88594" lon="6.86785">
        <ele>745.6</ele>
        <time>2025-07-15T13:16:13Z</time>
      </trkpt>
      <trkpt lat="43.88601" lon="6.86778">
        <ele>745.4</ele>
        <time>2025-07-15T13:16:14Z</time>
      </trkpt>
      <trkpt lat="43.88624" lon="6.86761">
        <ele>744.2</ele>
        <time>2025-07-15T13:16:17Z</time>
      </trkpt>
      <trkpt lat="43.88641" lon="6.86754">
        <ele>743.4</ele>
        <time>2025-07-15T13:16:19Z</time>
      </trkpt>
      <trkpt lat="43.88648" lon="6.86749">
        <ele>743.2</ele>
        <time>2025-07-15T13:16:20Z</time>
      </trkpt>
      <trkpt lat="43.88655" lon="6.86741">
        <ele>742.6</ele>
        <time>2025-07-15T13:16:21Z</time>
      </trkpt>
      <trkpt lat="43.88661" lon="6.86733">
        <ele>742</ele>
        <time>2025-07-15T13:16:22Z</time>
      </trkpt>
      <trkpt lat="43.88673" lon="6.86715">
        <ele>741</ele>
        <time>2025-07-15T13:16:24Z</time>
      </trkpt>
      <trkpt lat="43.88681" lon="6.86708">
        <ele>740.8</ele>
        <time>2025-07-15T13:16:25Z</time>
      </trkpt>
      <trkpt lat="43.88696" lon="6.86693">
        <ele>740</ele>
        <time>2025-07-15T13:16:27Z</time>
      </trkpt>
      <trkpt lat="43.88702" lon="6.86684">
        <ele>739.8</ele>
        <time>2025-07-15T13:16:28Z</time>
      </trkpt>
      <trkpt lat="43.88706" lon="6.86673">
        <ele>739.6</ele>
        <time>2025-07-15T13:16:29Z</time>
      </trkpt>
      <trkpt lat="43.88709" lon="6.8665">
        <ele>738.8</ele>
        <time>2025-07-15T13:16:31Z</time>
      </trkpt>
      <trkpt lat="43.88707" lon="6.86639">
        <ele>738.4</ele>
        <time>2025-07-15T13:16:32Z</time>
      </trkpt>
      <trkpt lat="43.88701" lon="6.86606">
        <ele>737.2</ele>
        <time>2025-07-15T13:16:35Z</time>
      </trkpt>
      <trkpt lat="43.88701" lon="6.86571">
        <ele>736.2</ele>
        <time>2025-07-15T13:16:38Z</time>
      </trkpt>
      <trkpt lat="43.88705" lon="6.86536">
        <ele>735.2</ele>
        <time>2025-07-15T13:16:41Z</time>
      </trkpt>
      <trkpt lat="43.88708" lon="6.86525">
        <ele>734.6</ele>
        <time>2025-07-15T13:16:42Z</time>
      </trkpt>
      <trkpt lat="43.88725" lon="6.86484">
        <ele>733.2</ele>
        <time>2025-07-15T13:16:46Z</time>
      </trkpt>
      <trkpt lat="43.88737" lon="6.86456">
        <ele>732</ele>
        <time>2025-07-15T13:16:49Z</time>
      </trkpt>
      <trkpt lat="43.88745" lon="6.86439">
        <ele>731.2</ele>
        <time>2025-07-15T13:16:51Z</time>
      </trkpt>
      <trkpt lat="43.8875" lon="6.86433">
        <ele>730.8</ele>
        <time>2025-07-15T13:16:52Z</time>
      </trkpt>
      <trkpt lat="43.88755" lon="6.86428">
        <ele>730.4</ele>
        <time>2025-07-15T13:16:53Z</time>
      </trkpt>
      <trkpt lat="43.88764" lon="6.86418">
        <ele>730</ele>
        <time>2025-07-15T13:16:55Z</time>
      </trkpt>
      <trkpt lat="43.88768" lon="6.86411">
        <ele>729.6</ele>
        <time>2025-07-15T13:16:56Z</time>
      </trkpt>
      <trkpt lat="43.88775" lon="6.86397">
        <ele>728.8</ele>
        <time>2025-07-15T13:16:58Z</time>
      </trkpt>
      <trkpt lat="43.8878" lon="6.86391">
        <ele>728.6</ele>
        <time>2025-07-15T13:16:59Z</time>
      </trkpt>
      <trkpt lat="43.88786" lon="6.86387">
        <ele>727.8</ele>
        <time>2025-07-15T13:17:00Z</time>
      </trkpt>
      <trkpt lat="43.88799" lon="6.86381">
        <ele>727.2</ele>
        <time>2025-07-15T13:17:02Z</time>
      </trkpt>
      <trkpt lat="43.88805" lon="6.86377">
        <ele>727</ele>
        <time>2025-07-15T13:17:03Z</time>
      </trkpt>
      <trkpt lat="43.8881" lon="6.86373">
        <ele>726.6</ele>
        <time>2025-07-15T13:17:04Z</time>
      </trkpt>
      <trkpt lat="43.88814" lon="6.86367">
        <ele>726.2</ele>
        <time>2025-07-15T13:17:05Z</time>
      </trkpt>
      <trkpt lat="43.88817" lon="6.86362">
        <ele>725.6</ele>
        <time>2025-07-15T13:17:06Z</time>
      </trkpt>
      <trkpt lat="43.88819" lon="6.86357">
        <ele>725</ele>
        <time>2025-07-15T13:17:07Z</time>
      </trkpt>
      <trkpt lat="43.8882" lon="6.86352">
        <ele>724.6</ele>
        <time>2025-07-15T13:17:08Z</time>
      </trkpt>
      <trkpt lat="43.8882" lon="6.86342">
        <ele>723.2</ele>
        <time>2025-07-15T13:17:11Z</time>
      </trkpt>
      <trkpt lat="43.8882" lon="6.8634">
        <ele>722.4</ele>
        <time>2025-07-15T13:17:15Z</time>
      </trkpt>
      <trkpt lat="43.88817" lon="6.86337">
        <ele>720.8</ele>
        <time>2025-07-15T13:19:42Z</time>
      </trkpt>
      <trkpt lat="43.88812" lon="6.86334">
        <ele>721</ele>
        <time>2025-07-15T13:19:44Z</time>
      </trkpt>
      <trkpt lat="43.88804" lon="6.86326">
        <ele>721.4</ele>
        <time>2025-07-15T13:19:48Z</time>
      </trkpt>
      <trkpt lat="43.88802" lon="6.86325">
        <ele>721.4</ele>
        <time>2025-07-15T13:19:49Z</time>
      </trkpt>
      <trkpt lat="43.88793" lon="6.86317">
        <ele>722</ele>
        <time>2025-07-15T13:19:53Z</time>
      </trkpt>
      <trkpt lat="43.88791" lon="6.86316">
        <ele>722</ele>
        <time>2025-07-15T13:19:54Z</time>
      </trkpt>
      <trkpt lat="43.88787" lon="6.86316">
        <ele>722</ele>
        <time>2025-07-15T13:19:56Z</time>
      </trkpt>
      <trkpt lat="43.88779" lon="6.86322">
        <ele>722</ele>
        <time>2025-07-15T13:19:59Z</time>
      </trkpt>
      <trkpt lat="43.88765" lon="6.86329">
        <ele>722.2</ele>
        <time>2025-07-15T13:20:04Z</time>
      </trkpt>
      <trkpt lat="43.88746" lon="6.86344">
        <ele>722.6</ele>
        <time>2025-07-15T13:20:11Z</time>
      </trkpt>
      <trkpt lat="43.88743" lon="6.86346">
        <ele>722.6</ele>
        <time>2025-07-15T13:20:12Z</time>
      </trkpt>
      <trkpt lat="43.88726" lon="6.8635">
        <ele>722.8</ele>
        <time>2025-07-15T13:20:18Z</time>
      </trkpt>
      <trkpt lat="43.8872" lon="6.86343">
        <ele>723</ele>
        <time>2025-07-15T13:20:21Z</time>
      </trkpt>
      <trkpt lat="43.88716" lon="6.86335">
        <ele>723.4</ele>
        <time>2025-07-15T13:20:24Z</time>
      </trkpt>
      <trkpt lat="43.88715" lon="6.86325">
        <ele>724</ele>
        <time>2025-07-15T13:20:27Z</time>
      </trkpt>
      <trkpt lat="43.88713" lon="6.86315">
        <ele>724.8</ele>
        <time>2025-07-15T13:20:30Z</time>
      </trkpt>
      <trkpt lat="43.88712" lon="6.86306">
        <ele>725.2</ele>
        <time>2025-07-15T13:20:33Z</time>
      </trkpt>
      <trkpt lat="43.88707" lon="6.86294">
        <ele>726</ele>
        <time>2025-07-15T13:20:37Z</time>
      </trkpt>
      <trkpt lat="43.88702" lon="6.86281">
        <ele>726.4</ele>
        <time>2025-07-15T13:20:42Z</time>
      </trkpt>
      <trkpt lat="43.887" lon="6.86279">
        <ele>726.4</ele>
        <time>2025-07-15T13:20:43Z</time>
      </trkpt>
      <trkpt lat="43.88694" lon="6.86265">
        <ele>726.6</ele>
        <time>2025-07-15T13:20:48Z</time>
      </trkpt>
      <trkpt lat="43.88693" lon="6.86261">
        <ele>726.8</ele>
        <time>2025-07-15T13:20:49Z</time>
      </trkpt>
      <trkpt lat="43.88687" lon="6.86244">
        <ele>727.4</ele>
        <time>2025-07-15T13:20:55Z</time>
      </trkpt>
      <trkpt lat="43.88685" lon="6.86235">
        <ele>727.8</ele>
        <time>2025-07-15T13:20:58Z</time>
      </trkpt>
      <trkpt lat="43.8868" lon="6.86212">
        <ele>728.6</ele>
        <time>2025-07-15T13:21:05Z</time>
      </trkpt>
      <trkpt lat="43.88679" lon="6.86207">
        <ele>728.6</ele>
        <time>2025-07-15T13:21:07Z</time>
      </trkpt>
      <trkpt lat="43.88674" lon="6.8619">
        <ele>729.4</ele>
        <time>2025-07-15T13:21:12Z</time>
      </trkpt>
      <trkpt lat="43.8867" lon="6.86176">
        <ele>729.8</ele>
        <time>2025-07-15T13:21:17Z</time>
      </trkpt>
      <trkpt lat="43.88667" lon="6.86162">
        <ele>730.4</ele>
        <time>2025-07-15T13:21:21Z</time>
      </trkpt>
      <trkpt lat="43.88667" lon="6.86157">
        <ele>730.6</ele>
        <time>2025-07-15T13:21:23Z</time>
      </trkpt>
      <trkpt lat="43.88662" lon="6.86134">
        <ele>731.4</ele>
        <time>2025-07-15T13:21:30Z</time>
      </trkpt>
      <trkpt lat="43.88661" lon="6.86131">
        <ele>731.6</ele>
        <time>2025-07-15T13:21:31Z</time>
      </trkpt>
      <trkpt lat="43.88658" lon="6.86114">
        <ele>732.4</ele>
        <time>2025-07-15T13:21:36Z</time>
      </trkpt>
      <trkpt lat="43.88657" lon="6.86107">
        <ele>732.6</ele>
        <time>2025-07-15T13:21:38Z</time>
      </trkpt>
      <trkpt lat="43.88655" lon="6.86087">
        <ele>733.6</ele>
        <time>2025-07-15T13:21:44Z</time>
      </trkpt>
      <trkpt lat="43.88656" lon="6.86076">
        <ele>734.4</ele>
        <time>2025-07-15T13:21:47Z</time>
      </trkpt>
      <trkpt lat="43.88657" lon="6.8607">
        <ele>734.8</ele>
        <time>2025-07-15T13:21:49Z</time>
      </trkpt>
      <trkpt lat="43.88662" lon="6.86058">
        <ele>735.6</ele>
        <time>2025-07-15T13:21:53Z</time>
      </trkpt>
      <trkpt lat="43.88665" lon="6.86052">
        <ele>736</ele>
        <time>2025-07-15T13:21:55Z</time>
      </trkpt>
      <trkpt lat="43.88668" lon="6.86048">
        <ele>736.4</ele>
        <time>2025-07-15T13:21:57Z</time>
      </trkpt>
      <trkpt lat="43.88675" lon="6.86038">
        <ele>737.4</ele>
        <time>2025-07-15T13:22:01Z</time>
      </trkpt>
      <trkpt lat="43.88679" lon="6.8603">
        <ele>738</ele>
        <time>2025-07-15T13:22:04Z</time>
      </trkpt>
      <trkpt lat="43.88683" lon="6.86022">
        <ele>738.6</ele>
        <time>2025-07-15T13:22:07Z</time>
      </trkpt>
      <trkpt lat="43.88683" lon="6.8601">
        <ele>739.6</ele>
        <time>2025-07-15T13:22:11Z</time>
      </trkpt>
      <trkpt lat="43.88683" lon="6.86001">
        <ele>740.2</ele>
        <time>2025-07-15T13:22:14Z</time>
      </trkpt>
      <trkpt lat="43.88683" lon="6.85995">
        <ele>740.4</ele>
        <time>2025-07-15T13:22:16Z</time>
      </trkpt>
      <trkpt lat="43.88683" lon="6.85991">
        <ele>740.6</ele>
        <time>2025-07-15T13:22:17Z</time>
      </trkpt>
      <trkpt lat="43.88682" lon="6.85979">
        <ele>741.6</ele>
        <time>2025-07-15T13:22:21Z</time>
      </trkpt>
      <trkpt lat="43.88682" lon="6.85973">
        <ele>741.8</ele>
        <time>2025-07-15T13:22:23Z</time>
      </trkpt>
      <trkpt lat="43.88679" lon="6.85954">
        <ele>742.4</ele>
        <time>2025-07-15T13:22:29Z</time>
      </trkpt>
      <trkpt lat="43.8868" lon="6.85948">
        <ele>742.8</ele>
        <time>2025-07-15T13:22:31Z</time>
      </trkpt>
      <trkpt lat="43.88681" lon="6.85934">
        <ele>743.4</ele>
        <time>2025-07-15T13:22:36Z</time>
      </trkpt>
      <trkpt lat="43.88682" lon="6.85918">
        <ele>744</ele>
        <time>2025-07-15T13:22:40Z</time>
      </trkpt>
      <trkpt lat="43.88682" lon="6.85914">
        <ele>744</ele>
        <time>2025-07-15T13:22:41Z</time>
      </trkpt>
      <trkpt lat="43.88682" lon="6.85899">
        <ele>745.2</ele>
        <time>2025-07-15T13:22:46Z</time>
      </trkpt>
      <trkpt lat="43.88683" lon="6.85893">
        <ele>745.4</ele>
        <time>2025-07-15T13:22:48Z</time>
      </trkpt>
      <trkpt lat="43.88683" lon="6.85872">
        <ele>746.2</ele>
        <time>2025-07-15T13:22:55Z</time>
      </trkpt>
      <trkpt lat="43.88683" lon="6.85861">
        <ele>747</ele>
        <time>2025-07-15T13:22:59Z</time>
      </trkpt>
      <trkpt lat="43.88684" lon="6.85852">
        <ele>747.6</ele>
        <time>2025-07-15T13:23:02Z</time>
      </trkpt>
      <trkpt lat="43.88683" lon="6.85849">
        <ele>747.8</ele>
        <time>2025-07-15T13:23:03Z</time>
      </trkpt>
      <trkpt lat="43.88682" lon="6.85846">
        <ele>748</ele>
        <time>2025-07-15T13:23:04Z</time>
      </trkpt>
      <trkpt lat="43.88681" lon="6.85841">
        <ele>748.6</ele>
        <time>2025-07-15T13:23:06Z</time>
      </trkpt>
      <trkpt lat="43.88679" lon="6.85825">
        <ele>749.6</ele>
        <time>2025-07-15T13:23:11Z</time>
      </trkpt>
      <trkpt lat="43.88677" lon="6.85808">
        <ele>750.8</ele>
        <time>2025-07-15T13:23:16Z</time>
      </trkpt>
      <trkpt lat="43.88676" lon="6.85805">
        <ele>751</ele>
        <time>2025-07-15T13:23:17Z</time>
      </trkpt>
      <trkpt lat="43.88676" lon="6.85793">
        <ele>751.6</ele>
        <time>2025-07-15T13:23:21Z</time>
      </trkpt>
      <trkpt lat="43.88677" lon="6.85788">
        <ele>751.8</ele>
        <time>2025-07-15T13:23:23Z</time>
      </trkpt>
      <trkpt lat="43.88677" lon="6.85785">
        <ele>752</ele>
        <time>2025-07-15T13:23:24Z</time>
      </trkpt>
      <trkpt lat="43.88677" lon="6.85773">
        <ele>752.6</ele>
        <time>2025-07-15T13:23:28Z</time>
      </trkpt>
      <trkpt lat="43.88676" lon="6.85771">
        <ele>753</ele>
        <time>2025-07-15T13:23:29Z</time>
      </trkpt>
      <trkpt lat="43.88677" lon="6.85768">
        <ele>753.2</ele>
        <time>2025-07-15T13:23:30Z</time>
      </trkpt>
      <trkpt lat="43.88677" lon="6.85753">
        <ele>754</ele>
        <time>2025-07-15T13:23:35Z</time>
      </trkpt>
      <trkpt lat="43.88677" lon="6.85744">
        <ele>754.4</ele>
        <time>2025-07-15T13:23:38Z</time>
      </trkpt>
      <trkpt lat="43.88676" lon="6.85733">
        <ele>754.8</ele>
        <time>2025-07-15T13:23:42Z</time>
      </trkpt>
      <trkpt lat="43.88675" lon="6.85727">
        <ele>755</ele>
        <time>2025-07-15T13:23:44Z</time>
      </trkpt>
      <trkpt lat="43.88677" lon="6.8572">
        <ele>755.4</ele>
        <time>2025-07-15T13:23:46Z</time>
      </trkpt>
      <trkpt lat="43.88673" lon="6.85706">
        <ele>755.8</ele>
        <time>2025-07-15T13:23:50Z</time>
      </trkpt>
      <trkpt lat="43.88669" lon="6.857">
        <ele>756</ele>
        <time>2025-07-15T13:23:52Z</time>
      </trkpt>
      <trkpt lat="43.88667" lon="6.85692">
        <ele>756.2</ele>
        <time>2025-07-15T13:23:54Z</time>
      </trkpt>
      <trkpt lat="43.88665" lon="6.85678">
        <ele>756.6</ele>
        <time>2025-07-15T13:23:58Z</time>
      </trkpt>
      <trkpt lat="43.88662" lon="6.85669">
        <ele>756.6</ele>
        <time>2025-07-15T13:24:01Z</time>
      </trkpt>
      <trkpt lat="43.88663" lon="6.85661">
        <ele>756.8</ele>
        <time>2025-07-15T13:24:03Z</time>
      </trkpt>
      <trkpt lat="43.88659" lon="6.85653">
        <ele>756.8</ele>
        <time>2025-07-15T13:24:06Z</time>
      </trkpt>
      <trkpt lat="43.88657" lon="6.85647">
        <ele>757.2</ele>
        <time>2025-07-15T13:24:08Z</time>
      </trkpt>
      <trkpt lat="43.88655" lon="6.8564">
        <ele>757.8</ele>
        <time>2025-07-15T13:24:11Z</time>
      </trkpt>
      <trkpt lat="43.88655" lon="6.85637">
        <ele>757.8</ele>
        <time>2025-07-15T13:24:12Z</time>
      </trkpt>
      <trkpt lat="43.88652" lon="6.85626">
        <ele>758.8</ele>
        <time>2025-07-15T13:24:16Z</time>
      </trkpt>
      <trkpt lat="43.8865" lon="6.8562">
        <ele>759</ele>
        <time>2025-07-15T13:24:18Z</time>
      </trkpt>
      <trkpt lat="43.88645" lon="6.85604">
        <ele>759.8</ele>
        <time>2025-07-15T13:24:24Z</time>
      </trkpt>
      <trkpt lat="43.88644" lon="6.85602">
        <ele>760</ele>
        <time>2025-07-15T13:24:25Z</time>
      </trkpt>
      <trkpt lat="43.88639" lon="6.85587">
        <ele>761</ele>
        <time>2025-07-15T13:24:31Z</time>
      </trkpt>
      <trkpt lat="43.88635" lon="6.85573">
        <ele>762</ele>
        <time>2025-07-15T13:24:36Z</time>
      </trkpt>
      <trkpt lat="43.88633" lon="6.8557">
        <ele>762.2</ele>
        <time>2025-07-15T13:24:37Z</time>
      </trkpt>
      <trkpt lat="43.88631" lon="6.85547">
        <ele>763.2</ele>
        <time>2025-07-15T13:24:44Z</time>
      </trkpt>
      <trkpt lat="43.88627" lon="6.85533">
        <ele>764.2</ele>
        <time>2025-07-15T13:24:49Z</time>
      </trkpt>
      <trkpt lat="43.88627" lon="6.8553">
        <ele>764.4</ele>
        <time>2025-07-15T13:24:50Z</time>
      </trkpt>
      <trkpt lat="43.88625" lon="6.85508">
        <ele>765.6</ele>
        <time>2025-07-15T13:24:56Z</time>
      </trkpt>
      <trkpt lat="43.88622" lon="6.85482">
        <ele>766.6</ele>
        <time>2025-07-15T13:25:03Z</time>
      </trkpt>
      <trkpt lat="43.8862" lon="6.85474">
        <ele>767.2</ele>
        <time>2025-07-15T13:25:06Z</time>
      </trkpt>
      <trkpt lat="43.88617" lon="6.85458">
        <ele>767.6</ele>
        <time>2025-07-15T13:25:12Z</time>
      </trkpt>
      <trkpt lat="43.88616" lon="6.85449">
        <ele>768</ele>
        <time>2025-07-15T13:25:15Z</time>
      </trkpt>
      <trkpt lat="43.88614" lon="6.85434">
        <ele>769</ele>
        <time>2025-07-15T13:25:20Z</time>
      </trkpt>
      <trkpt lat="43.88614" lon="6.85428">
        <ele>769.2</ele>
        <time>2025-07-15T13:25:22Z</time>
      </trkpt>
      <trkpt lat="43.8861" lon="6.8541">
        <ele>770</ele>
        <time>2025-07-15T13:25:28Z</time>
      </trkpt>
      <trkpt lat="43.88609" lon="6.85407">
        <ele>770.2</ele>
        <time>2025-07-15T13:25:29Z</time>
      </trkpt>
      <trkpt lat="43.88607" lon="6.85386">
        <ele>771.2</ele>
        <time>2025-07-15T13:25:35Z</time>
      </trkpt>
      <trkpt lat="43.88607" lon="6.85383">
        <ele>771.8</ele>
        <time>2025-07-15T13:25:36Z</time>
      </trkpt>
      <trkpt lat="43.88605" lon="6.85378">
        <ele>772.4</ele>
        <time>2025-07-15T13:25:38Z</time>
      </trkpt>
      <trkpt lat="43.88605" lon="6.85369">
        <ele>772.6</ele>
        <time>2025-07-15T13:25:41Z</time>
      </trkpt>
      <trkpt lat="43.886" lon="6.85349">
        <ele>773.6</ele>
        <time>2025-07-15T13:25:47Z</time>
      </trkpt>
      <trkpt lat="43.88597" lon="6.85331">
        <ele>774.6</ele>
        <time>2025-07-15T13:25:53Z</time>
      </trkpt>
      <trkpt lat="43.88596" lon="6.85328">
        <ele>774.8</ele>
        <time>2025-07-15T13:25:54Z</time>
      </trkpt>
      <trkpt lat="43.88594" lon="6.85308">
        <ele>775.6</ele>
        <time>2025-07-15T13:26:01Z</time>
      </trkpt>
      <trkpt lat="43.88593" lon="6.85305">
        <ele>775.8</ele>
        <time>2025-07-15T13:26:02Z</time>
      </trkpt>
      <trkpt lat="43.88588" lon="6.85287">
        <ele>776.8</ele>
        <time>2025-07-15T13:26:08Z</time>
      </trkpt>
      <trkpt lat="43.88581" lon="6.85271">
        <ele>777.8</ele>
        <time>2025-07-15T13:26:14Z</time>
      </trkpt>
      <trkpt lat="43.88579" lon="6.85269">
        <ele>778</ele>
        <time>2025-07-15T13:26:15Z</time>
      </trkpt>
      <trkpt lat="43.88572" lon="6.85253">
        <ele>778.8</ele>
        <time>2025-07-15T13:26:21Z</time>
      </trkpt>
      <trkpt lat="43.88571" lon="6.85246">
        <ele>779</ele>
        <time>2025-07-15T13:26:23Z</time>
      </trkpt>
      <trkpt lat="43.88568" lon="6.85223">
        <ele>780</ele>
        <time>2025-07-15T13:26:30Z</time>
      </trkpt>
      <trkpt lat="43.88568" lon="6.85216">
        <ele>780.2</ele>
        <time>2025-07-15T13:26:32Z</time>
      </trkpt>
      <trkpt lat="43.88567" lon="6.85204">
        <ele>781.2</ele>
        <time>2025-07-15T13:26:36Z</time>
      </trkpt>
      <trkpt lat="43.88567" lon="6.85201">
        <ele>781.2</ele>
        <time>2025-07-15T13:26:37Z</time>
      </trkpt>
      <trkpt lat="43.88565" lon="6.85187">
        <ele>782.2</ele>
        <time>2025-07-15T13:26:42Z</time>
      </trkpt>
      <trkpt lat="43.88564" lon="6.85179">
        <ele>782.8</ele>
        <time>2025-07-15T13:26:45Z</time>
      </trkpt>
      <trkpt lat="43.88564" lon="6.85173">
        <ele>783.2</ele>
        <time>2025-07-15T13:26:47Z</time>
      </trkpt>
      <trkpt lat="43.88564" lon="6.8516">
        <ele>783.8</ele>
        <time>2025-07-15T13:26:51Z</time>
      </trkpt>
      <trkpt lat="43.88565" lon="6.85149">
        <ele>784.4</ele>
        <time>2025-07-15T13:26:54Z</time>
      </trkpt>
      <trkpt lat="43.88565" lon="6.85143">
        <ele>784.8</ele>
        <time>2025-07-15T13:26:56Z</time>
      </trkpt>
      <trkpt lat="43.88563" lon="6.85133">
        <ele>785.6</ele>
        <time>2025-07-15T13:26:59Z</time>
      </trkpt>
      <trkpt lat="43.88559" lon="6.85119">
        <ele>786.2</ele>
        <time>2025-07-15T13:27:04Z</time>
      </trkpt>
      <trkpt lat="43.88557" lon="6.85111">
        <ele>786.6</ele>
        <time>2025-07-15T13:27:07Z</time>
      </trkpt>
      <trkpt lat="43.88554" lon="6.85102">
        <ele>787.2</ele>
        <time>2025-07-15T13:27:10Z</time>
      </trkpt>
      <trkpt lat="43.88552" lon="6.85093">
        <ele>787.6</ele>
        <time>2025-07-15T13:27:13Z</time>
      </trkpt>
      <trkpt lat="43.88548" lon="6.85069">
        <ele>788.8</ele>
        <time>2025-07-15T13:27:21Z</time>
      </trkpt>
      <trkpt lat="43.88544" lon="6.85046">
        <ele>789.8</ele>
        <time>2025-07-15T13:27:28Z</time>
      </trkpt>
      <trkpt lat="43.88543" lon="6.85035">
        <ele>790.6</ele>
        <time>2025-07-15T13:27:32Z</time>
      </trkpt>
      <trkpt lat="43.88542" lon="6.85026">
        <ele>790.8</ele>
        <time>2025-07-15T13:27:35Z</time>
      </trkpt>
      <trkpt lat="43.8854" lon="6.85014">
        <ele>791.8</ele>
        <time>2025-07-15T13:27:39Z</time>
      </trkpt>
      <trkpt lat="43.88537" lon="6.85004">
        <ele>792.2</ele>
        <time>2025-07-15T13:27:42Z</time>
      </trkpt>
      <trkpt lat="43.88537" lon="6.85001">
        <ele>792.2</ele>
        <time>2025-07-15T13:27:43Z</time>
      </trkpt>
      <trkpt lat="43.88537" lon="6.84989">
        <ele>793</ele>
        <time>2025-07-15T13:27:47Z</time>
      </trkpt>
      <trkpt lat="43.88534" lon="6.84968">
        <ele>793.8</ele>
        <time>2025-07-15T13:27:54Z</time>
      </trkpt>
      <trkpt lat="43.88533" lon="6.84965">
        <ele>794.2</ele>
        <time>2025-07-15T13:27:55Z</time>
      </trkpt>
      <trkpt lat="43.8853" lon="6.84951">
        <ele>794.6</ele>
        <time>2025-07-15T13:27:59Z</time>
      </trkpt>
      <trkpt lat="43.88527" lon="6.84937">
        <ele>795</ele>
        <time>2025-07-15T13:28:03Z</time>
      </trkpt>
      <trkpt lat="43.88525" lon="6.84924">
        <ele>795.6</ele>
        <time>2025-07-15T13:28:07Z</time>
      </trkpt>
      <trkpt lat="43.88523" lon="6.84912">
        <ele>796</ele>
        <time>2025-07-15T13:28:11Z</time>
      </trkpt>
      <trkpt lat="43.8852" lon="6.84897">
        <ele>796.4</ele>
        <time>2025-07-15T13:28:16Z</time>
      </trkpt>
      <trkpt lat="43.8852" lon="6.84884">
        <ele>797</ele>
        <time>2025-07-15T13:28:20Z</time>
      </trkpt>
      <trkpt lat="43.88519" lon="6.84872">
        <ele>797.4</ele>
        <time>2025-07-15T13:28:24Z</time>
      </trkpt>
      <trkpt lat="43.88517" lon="6.84856">
        <ele>798.2</ele>
        <time>2025-07-15T13:28:29Z</time>
      </trkpt>
      <trkpt lat="43.88515" lon="6.84847">
        <ele>798.4</ele>
        <time>2025-07-15T13:28:32Z</time>
      </trkpt>
      <trkpt lat="43.88513" lon="6.84838">
        <ele>799.2</ele>
        <time>2025-07-15T13:28:35Z</time>
      </trkpt>
      <trkpt lat="43.88509" lon="6.84825">
        <ele>800</ele>
        <time>2025-07-15T13:28:40Z</time>
      </trkpt>
      <trkpt lat="43.88506" lon="6.84819">
        <ele>800.4</ele>
        <time>2025-07-15T13:28:42Z</time>
      </trkpt>
      <trkpt lat="43.88501" lon="6.84797">
        <ele>801.2</ele>
        <time>2025-07-15T13:28:49Z</time>
      </trkpt>
      <trkpt lat="43.88501" lon="6.84794">
        <ele>801.4</ele>
        <time>2025-07-15T13:28:50Z</time>
      </trkpt>
      <trkpt lat="43.885" lon="6.84776">
        <ele>802.2</ele>
        <time>2025-07-15T13:28:56Z</time>
      </trkpt>
      <trkpt lat="43.88498" lon="6.84768">
        <ele>802.4</ele>
        <time>2025-07-15T13:28:59Z</time>
      </trkpt>
      <trkpt lat="43.88497" lon="6.84759">
        <ele>802.6</ele>
        <time>2025-07-15T13:29:02Z</time>
      </trkpt>
      <trkpt lat="43.88494" lon="6.84748">
        <ele>803.4</ele>
        <time>2025-07-15T13:29:06Z</time>
      </trkpt>
      <trkpt lat="43.88492" lon="6.84737">
        <ele>804.2</ele>
        <time>2025-07-15T13:29:10Z</time>
      </trkpt>
      <trkpt lat="43.88491" lon="6.84731">
        <ele>804.4</ele>
        <time>2025-07-15T13:29:12Z</time>
      </trkpt>
      <trkpt lat="43.88488" lon="6.84716">
        <ele>805.4</ele>
        <time>2025-07-15T13:29:17Z</time>
      </trkpt>
      <trkpt lat="43.88487" lon="6.84711">
        <ele>805.6</ele>
        <time>2025-07-15T13:29:19Z</time>
      </trkpt>
      <trkpt lat="43.88483" lon="6.84699">
        <ele>806.2</ele>
        <time>2025-07-15T13:29:23Z</time>
      </trkpt>
      <trkpt lat="43.88483" lon="6.84694">
        <ele>806.6</ele>
        <time>2025-07-15T13:29:25Z</time>
      </trkpt>
      <trkpt lat="43.88482" lon="6.84674">
        <ele>807.4</ele>
        <time>2025-07-15T13:29:31Z</time>
      </trkpt>
      <trkpt lat="43.88482" lon="6.84668">
        <ele>807.8</ele>
        <time>2025-07-15T13:29:33Z</time>
      </trkpt>
      <trkpt lat="43.88484" lon="6.84655">
        <ele>808.8</ele>
        <time>2025-07-15T13:29:38Z</time>
      </trkpt>
      <trkpt lat="43.88484" lon="6.84651">
        <ele>809</ele>
        <time>2025-07-15T13:29:39Z</time>
      </trkpt>
      <trkpt lat="43.88488" lon="6.84633">
        <ele>810.4</ele>
        <time>2025-07-15T13:29:44Z</time>
      </trkpt>
      <trkpt lat="43.88488" lon="6.84626">
        <ele>810.6</ele>
        <time>2025-07-15T13:29:46Z</time>
      </trkpt>
      <trkpt lat="43.88487" lon="6.8461">
        <ele>811.4</ele>
        <time>2025-07-15T13:29:51Z</time>
      </trkpt>
      <trkpt lat="43.88487" lon="6.84607">
        <ele>811.6</ele>
        <time>2025-07-15T13:29:52Z</time>
      </trkpt>
      <trkpt lat="43.88487" lon="6.84591">
        <ele>812.6</ele>
        <time>2025-07-15T13:29:57Z</time>
      </trkpt>
      <trkpt lat="43.88487" lon="6.84588">
        <ele>812.8</ele>
        <time>2025-07-15T13:29:58Z</time>
      </trkpt>
      <trkpt lat="43.88486" lon="6.84577">
        <ele>813.6</ele>
        <time>2025-07-15T13:30:02Z</time>
      </trkpt>
      <trkpt lat="43.88483" lon="6.84566">
        <ele>814.2</ele>
        <time>2025-07-15T13:30:06Z</time>
      </trkpt>
      <trkpt lat="43.88482" lon="6.84553">
        <ele>814.8</ele>
        <time>2025-07-15T13:30:11Z</time>
      </trkpt>
      <trkpt lat="43.8848" lon="6.84547">
        <ele>815.4</ele>
        <time>2025-07-15T13:30:13Z</time>
      </trkpt>
      <trkpt lat="43.88478" lon="6.84537">
        <ele>816</ele>
        <time>2025-07-15T13:30:17Z</time>
      </trkpt>
      <trkpt lat="43.88479" lon="6.84523">
        <ele>816.6</ele>
        <time>2025-07-15T13:30:21Z</time>
      </trkpt>
      <trkpt lat="43.88478" lon="6.84513">
        <ele>817</ele>
        <time>2025-07-15T13:30:24Z</time>
      </trkpt>
      <trkpt lat="43.88478" lon="6.84504">
        <ele>817.8</ele>
        <time>2025-07-15T13:30:27Z</time>
      </trkpt>
      <trkpt lat="43.88478" lon="6.84496">
        <ele>818</ele>
        <time>2025-07-15T13:30:29Z</time>
      </trkpt>
      <trkpt lat="43.88478" lon="6.84493">
        <ele>818.2</ele>
        <time>2025-07-15T13:30:30Z</time>
      </trkpt>
      <trkpt lat="43.88478" lon="6.8449">
        <ele>818.4</ele>
        <time>2025-07-15T13:30:31Z</time>
      </trkpt>
      <trkpt lat="43.88475" lon="6.84478">
        <ele>819.2</ele>
        <time>2025-07-15T13:30:35Z</time>
      </trkpt>
      <trkpt lat="43.88474" lon="6.84475">
        <ele>819.2</ele>
        <time>2025-07-15T13:30:36Z</time>
      </trkpt>
      <trkpt lat="43.88472" lon="6.84466">
        <ele>819.6</ele>
        <time>2025-07-15T13:30:39Z</time>
      </trkpt>
      <trkpt lat="43.88474" lon="6.84456">
        <ele>820</ele>
        <time>2025-07-15T13:30:42Z</time>
      </trkpt>
      <trkpt lat="43.88473" lon="6.84453">
        <ele>820.2</ele>
        <time>2025-07-15T13:30:43Z</time>
      </trkpt>
      <trkpt lat="43.88472" lon="6.84443">
        <ele>821</ele>
        <time>2025-07-15T13:30:47Z</time>
      </trkpt>
      <trkpt lat="43.8847" lon="6.84433">
        <ele>821.2</ele>
        <time>2025-07-15T13:30:50Z</time>
      </trkpt>
      <trkpt lat="43.8847" lon="6.84423">
        <ele>821.6</ele>
        <time>2025-07-15T13:30:53Z</time>
      </trkpt>
      <trkpt lat="43.88469" lon="6.84404">
        <ele>822.2</ele>
        <time>2025-07-15T13:30:58Z</time>
      </trkpt>
      <trkpt lat="43.88467" lon="6.84395">
        <ele>822.6</ele>
        <time>2025-07-15T13:31:01Z</time>
      </trkpt>
      <trkpt lat="43.88463" lon="6.84376">
        <ele>823.4</ele>
        <time>2025-07-15T13:31:07Z</time>
      </trkpt>
      <trkpt lat="43.88461" lon="6.84363">
        <ele>824</ele>
        <time>2025-07-15T13:31:11Z</time>
      </trkpt>
      <trkpt lat="43.88459" lon="6.84349">
        <ele>824.4</ele>
        <time>2025-07-15T13:31:16Z</time>
      </trkpt>
      <trkpt lat="43.88456" lon="6.84333">
        <ele>825</ele>
        <time>2025-07-15T13:31:22Z</time>
      </trkpt>
      <trkpt lat="43.88454" lon="6.84325">
        <ele>825.8</ele>
        <time>2025-07-15T13:31:25Z</time>
      </trkpt>
      <trkpt lat="43.88451" lon="6.84314">
        <ele>826.2</ele>
        <time>2025-07-15T13:31:29Z</time>
      </trkpt>
      <trkpt lat="43.8845" lon="6.84304">
        <ele>826.6</ele>
        <time>2025-07-15T13:31:32Z</time>
      </trkpt>
      <trkpt lat="43.88449" lon="6.84287">
        <ele>827.4</ele>
        <time>2025-07-15T13:31:38Z</time>
      </trkpt>
      <trkpt lat="43.88448" lon="6.84281">
        <ele>827.8</ele>
        <time>2025-07-15T13:31:40Z</time>
      </trkpt>
      <trkpt lat="43.88446" lon="6.84265">
        <ele>828.6</ele>
        <time>2025-07-15T13:31:45Z</time>
      </trkpt>
      <trkpt lat="43.88445" lon="6.84262">
        <ele>828.8</ele>
        <time>2025-07-15T13:31:46Z</time>
      </trkpt>
      <trkpt lat="43.88442" lon="6.84243">
        <ele>829.4</ele>
        <time>2025-07-15T13:31:52Z</time>
      </trkpt>
      <trkpt lat="43.8844" lon="6.84231">
        <ele>830.2</ele>
        <time>2025-07-15T13:31:56Z</time>
      </trkpt>
      <trkpt lat="43.88438" lon="6.84219">
        <ele>830.8</ele>
        <time>2025-07-15T13:32:00Z</time>
      </trkpt>
      <trkpt lat="43.88435" lon="6.84211">
        <ele>831.2</ele>
        <time>2025-07-15T13:32:03Z</time>
      </trkpt>
      <trkpt lat="43.88434" lon="6.84201">
        <ele>831.6</ele>
        <time>2025-07-15T13:32:06Z</time>
      </trkpt>
      <trkpt lat="43.88431" lon="6.8419">
        <ele>832</ele>
        <time>2025-07-15T13:32:10Z</time>
      </trkpt>
      <trkpt lat="43.88429" lon="6.84178">
        <ele>832.6</ele>
        <time>2025-07-15T13:32:14Z</time>
      </trkpt>
      <trkpt lat="43.88429" lon="6.84165">
        <ele>833.2</ele>
        <time>2025-07-15T13:32:18Z</time>
      </trkpt>
      <trkpt lat="43.88427" lon="6.84152">
        <ele>833.6</ele>
        <time>2025-07-15T13:32:22Z</time>
      </trkpt>
      <trkpt lat="43.88424" lon="6.84132">
        <ele>834.4</ele>
        <time>2025-07-15T13:32:28Z</time>
      </trkpt>
      <trkpt lat="43.88421" lon="6.8411">
        <ele>835.2</ele>
        <time>2025-07-15T13:32:35Z</time>
      </trkpt>
      <trkpt lat="43.8842" lon="6.84104">
        <ele>835.4</ele>
        <time>2025-07-15T13:32:37Z</time>
      </trkpt>
      <trkpt lat="43.88419" lon="6.8409">
        <ele>836</ele>
        <time>2025-07-15T13:32:41Z</time>
      </trkpt>
      <trkpt lat="43.88417" lon="6.84084">
        <ele>836.6</ele>
        <time>2025-07-15T13:32:43Z</time>
      </trkpt>
      <trkpt lat="43.88413" lon="6.84069">
        <ele>837.4</ele>
        <time>2025-07-15T13:32:48Z</time>
      </trkpt>
      <trkpt lat="43.88412" lon="6.84063">
        <ele>837.6</ele>
        <time>2025-07-15T13:32:50Z</time>
      </trkpt>
      <trkpt lat="43.88408" lon="6.84055">
        <ele>838</ele>
        <time>2025-07-15T13:32:53Z</time>
      </trkpt>
      <trkpt lat="43.88407" lon="6.84052">
        <ele>838.4</ele>
        <time>2025-07-15T13:32:54Z</time>
      </trkpt>
      <trkpt lat="43.88406" lon="6.84049">
        <ele>838.4</ele>
        <time>2025-07-15T13:32:55Z</time>
      </trkpt>
      <trkpt lat="43.88405" lon="6.84025">
        <ele>839.4</ele>
        <time>2025-07-15T13:33:02Z</time>
      </trkpt>
      <trkpt lat="43.88406" lon="6.84022">
        <ele>839.8</ele>
        <time>2025-07-15T13:33:03Z</time>
      </trkpt>
      <trkpt lat="43.88405" lon="6.84009">
        <ele>840.2</ele>
        <time>2025-07-15T13:33:07Z</time>
      </trkpt>
      <trkpt lat="43.88404" lon="6.83999">
        <ele>840.8</ele>
        <time>2025-07-15T13:33:10Z</time>
      </trkpt>
      <trkpt lat="43.88403" lon="6.83988">
        <ele>841</ele>
        <time>2025-07-15T13:33:13Z</time>
      </trkpt>
      <trkpt lat="43.88399" lon="6.83978">
        <ele>841.8</ele>
        <time>2025-07-15T13:33:17Z</time>
      </trkpt>
      <trkpt lat="43.88397" lon="6.83972">
        <ele>842.2</ele>
        <time>2025-07-15T13:33:19Z</time>
      </trkpt>
      <trkpt lat="43.88392" lon="6.83956">
        <ele>842.8</ele>
        <time>2025-07-15T13:33:25Z</time>
      </trkpt>
      <trkpt lat="43.88391" lon="6.8395">
        <ele>843</ele>
        <time>2025-07-15T13:33:27Z</time>
      </trkpt>
      <trkpt lat="43.88387" lon="6.83938">
        <ele>843.6</ele>
        <time>2025-07-15T13:33:31Z</time>
      </trkpt>
      <trkpt lat="43.88387" lon="6.83927">
        <ele>844.2</ele>
        <time>2025-07-15T13:33:34Z</time>
      </trkpt>
      <trkpt lat="43.88385" lon="6.83912">
        <ele>844.8</ele>
        <time>2025-07-15T13:33:39Z</time>
      </trkpt>
      <trkpt lat="43.88384" lon="6.83909">
        <ele>845</ele>
        <time>2025-07-15T13:33:40Z</time>
      </trkpt>
      <trkpt lat="43.88381" lon="6.83893">
        <ele>845.6</ele>
        <time>2025-07-15T13:33:45Z</time>
      </trkpt>
      <trkpt lat="43.88378" lon="6.83885">
        <ele>846</ele>
        <time>2025-07-15T13:33:48Z</time>
      </trkpt>
      <trkpt lat="43.88376" lon="6.83878">
        <ele>846.4</ele>
        <time>2025-07-15T13:33:51Z</time>
      </trkpt>
      <trkpt lat="43.88373" lon="6.83862">
        <ele>847.2</ele>
        <time>2025-07-15T13:33:56Z</time>
      </trkpt>
      <trkpt lat="43.88371" lon="6.8385">
        <ele>847.6</ele>
        <time>2025-07-15T13:34:00Z</time>
      </trkpt>
      <trkpt lat="43.88369" lon="6.83845">
        <ele>848.2</ele>
        <time>2025-07-15T13:34:02Z</time>
      </trkpt>
      <trkpt lat="43.88366" lon="6.83828">
        <ele>849.2</ele>
        <time>2025-07-15T13:34:08Z</time>
      </trkpt>
      <trkpt lat="43.88365" lon="6.83823">
        <ele>849.6</ele>
        <time>2025-07-15T13:34:10Z</time>
      </trkpt>
      <trkpt lat="43.88361" lon="6.8381">
        <ele>850.2</ele>
        <time>2025-07-15T13:34:15Z</time>
      </trkpt>
      <trkpt lat="43.88359" lon="6.83804">
        <ele>850.4</ele>
        <time>2025-07-15T13:34:17Z</time>
      </trkpt>
      <trkpt lat="43.88357" lon="6.83786">
        <ele>851.4</ele>
        <time>2025-07-15T13:34:23Z</time>
      </trkpt>
      <trkpt lat="43.88356" lon="6.83783">
        <ele>851.8</ele>
        <time>2025-07-15T13:34:24Z</time>
      </trkpt>
      <trkpt lat="43.88354" lon="6.83763">
        <ele>852.8</ele>
        <time>2025-07-15T13:34:30Z</time>
      </trkpt>
      <trkpt lat="43.88353" lon="6.8376">
        <ele>852.8</ele>
        <time>2025-07-15T13:34:31Z</time>
      </trkpt>
      <trkpt lat="43.88351" lon="6.83747">
        <ele>853.8</ele>
        <time>2025-07-15T13:34:36Z</time>
      </trkpt>
      <trkpt lat="43.8835" lon="6.83744">
        <ele>854</ele>
        <time>2025-07-15T13:34:37Z</time>
      </trkpt>
      <trkpt lat="43.88349" lon="6.83723">
        <ele>854.6</ele>
        <time>2025-07-15T13:34:44Z</time>
      </trkpt>
      <trkpt lat="43.88348" lon="6.83716">
        <ele>854.8</ele>
        <time>2025-07-15T13:34:46Z</time>
      </trkpt>
      <trkpt lat="43.88345" lon="6.83694">
        <ele>856</ele>
        <time>2025-07-15T13:34:53Z</time>
      </trkpt>
      <trkpt lat="43.88344" lon="6.83687">
        <ele>856.2</ele>
        <time>2025-07-15T13:34:55Z</time>
      </trkpt>
      <trkpt lat="43.88342" lon="6.83679">
        <ele>856.6</ele>
        <time>2025-07-15T13:34:58Z</time>
      </trkpt>
      <trkpt lat="43.88342" lon="6.83672">
        <ele>857</ele>
        <time>2025-07-15T13:35:00Z</time>
      </trkpt>
      <trkpt lat="43.8834" lon="6.83659">
        <ele>857.6</ele>
        <time>2025-07-15T13:35:04Z</time>
      </trkpt>
      <trkpt lat="43.88338" lon="6.83649">
        <ele>858.2</ele>
        <time>2025-07-15T13:35:07Z</time>
      </trkpt>
      <trkpt lat="43.88338" lon="6.83635">
        <ele>859.2</ele>
        <time>2025-07-15T13:35:11Z</time>
      </trkpt>
      <trkpt lat="43.88338" lon="6.8363">
        <ele>859.6</ele>
        <time>2025-07-15T13:35:13Z</time>
      </trkpt>
      <trkpt lat="43.88337" lon="6.83615">
        <ele>860.2</ele>
        <time>2025-07-15T13:35:18Z</time>
      </trkpt>
      <trkpt lat="43.88334" lon="6.83601">
        <ele>861</ele>
        <time>2025-07-15T13:35:23Z</time>
      </trkpt>
      <trkpt lat="43.88334" lon="6.83598">
        <ele>861.2</ele>
        <time>2025-07-15T13:35:24Z</time>
      </trkpt>
      <trkpt lat="43.88333" lon="6.83581">
        <ele>861.8</ele>
        <time>2025-07-15T13:35:30Z</time>
      </trkpt>
      <trkpt lat="43.88332" lon="6.83574">
        <ele>862.2</ele>
        <time>2025-07-15T13:35:32Z</time>
      </trkpt>
      <trkpt lat="43.8833" lon="6.83557">
        <ele>863.2</ele>
        <time>2025-07-15T13:35:38Z</time>
      </trkpt>
      <trkpt lat="43.88327" lon="6.83538">
        <ele>864.4</ele>
        <time>2025-07-15T13:35:45Z</time>
      </trkpt>
      <trkpt lat="43.88326" lon="6.83529">
        <ele>864.8</ele>
        <time>2025-07-15T13:35:48Z</time>
      </trkpt>
      <trkpt lat="43.88324" lon="6.83524">
        <ele>865.4</ele>
        <time>2025-07-15T13:35:50Z</time>
      </trkpt>
      <trkpt lat="43.88323" lon="6.83521">
        <ele>865.2</ele>
        <time>2025-07-15T13:35:51Z</time>
      </trkpt>
      <trkpt lat="43.88319" lon="6.83503">
        <ele>866.4</ele>
        <time>2025-07-15T13:35:57Z</time>
      </trkpt>
      <trkpt lat="43.8832" lon="6.835">
        <ele>866.6</ele>
        <time>2025-07-15T13:35:58Z</time>
      </trkpt>
      <trkpt lat="43.8832" lon="6.83478">
        <ele>867.2</ele>
        <time>2025-07-15T13:36:04Z</time>
      </trkpt>
      <trkpt lat="43.88319" lon="6.83472">
        <ele>867.4</ele>
        <time>2025-07-15T13:36:06Z</time>
      </trkpt>
      <trkpt lat="43.88318" lon="6.83458">
        <ele>868.2</ele>
        <time>2025-07-15T13:36:10Z</time>
      </trkpt>
      <trkpt lat="43.88318" lon="6.83455">
        <ele>868.6</ele>
        <time>2025-07-15T13:36:11Z</time>
      </trkpt>
      <trkpt lat="43.88317" lon="6.83438">
        <ele>869.6</ele>
        <time>2025-07-15T13:36:16Z</time>
      </trkpt>
      <trkpt lat="43.88316" lon="6.83434">
        <ele>869.6</ele>
        <time>2025-07-15T13:36:17Z</time>
      </trkpt>
      <trkpt lat="43.88315" lon="6.83414">
        <ele>870.2</ele>
        <time>2025-07-15T13:36:22Z</time>
      </trkpt>
      <trkpt lat="43.88314" lon="6.83409">
        <ele>870.4</ele>
        <time>2025-07-15T13:36:24Z</time>
      </trkpt>
      <trkpt lat="43.88312" lon="6.83391">
        <ele>871.4</ele>
        <time>2025-07-15T13:36:30Z</time>
      </trkpt>
      <trkpt lat="43.88313" lon="6.83378">
        <ele>872.6</ele>
        <time>2025-07-15T13:36:34Z</time>
      </trkpt>
      <trkpt lat="43.88312" lon="6.83369">
        <ele>873.2</ele>
        <time>2025-07-15T13:36:37Z</time>
      </trkpt>
      <trkpt lat="43.88312" lon="6.83366">
        <ele>873.6</ele>
        <time>2025-07-15T13:36:38Z</time>
      </trkpt>
      <trkpt lat="43.88313" lon="6.83346">
        <ele>874.6</ele>
        <time>2025-07-15T13:36:44Z</time>
      </trkpt>
      <trkpt lat="43.88313" lon="6.83343">
        <ele>874.8</ele>
        <time>2025-07-15T13:36:45Z</time>
      </trkpt>
      <trkpt lat="43.88313" lon="6.83321">
        <ele>875.6</ele>
        <time>2025-07-15T13:36:51Z</time>
      </trkpt>
      <trkpt lat="43.88313" lon="6.83301">
        <ele>876.8</ele>
        <time>2025-07-15T13:36:58Z</time>
      </trkpt>
      <trkpt lat="43.88313" lon="6.83298">
        <ele>877</ele>
        <time>2025-07-15T13:36:59Z</time>
      </trkpt>
      <trkpt lat="43.88312" lon="6.8329">
        <ele>877.4</ele>
        <time>2025-07-15T13:37:02Z</time>
      </trkpt>
      <trkpt lat="43.88312" lon="6.83284">
        <ele>877.6</ele>
        <time>2025-07-15T13:37:04Z</time>
      </trkpt>
      <trkpt lat="43.88312" lon="6.83278">
        <ele>877.8</ele>
        <time>2025-07-15T13:37:06Z</time>
      </trkpt>
      <trkpt lat="43.88312" lon="6.83265">
        <ele>878</ele>
        <time>2025-07-15T13:37:10Z</time>
      </trkpt>
      <trkpt lat="43.88309" lon="6.83246">
        <ele>878.6</ele>
        <time>2025-07-15T13:37:15Z</time>
      </trkpt>
      <trkpt lat="43.88308" lon="6.83236">
        <ele>879</ele>
        <time>2025-07-15T13:37:18Z</time>
      </trkpt>
      <trkpt lat="43.88307" lon="6.83225">
        <ele>879.6</ele>
        <time>2025-07-15T13:37:22Z</time>
      </trkpt>
      <trkpt lat="43.88308" lon="6.83222">
        <ele>880</ele>
        <time>2025-07-15T13:37:23Z</time>
      </trkpt>
      <trkpt lat="43.88307" lon="6.83217">
        <ele>880.4</ele>
        <time>2025-07-15T13:37:25Z</time>
      </trkpt>
      <trkpt lat="43.88306" lon="6.83211">
        <ele>880.8</ele>
        <time>2025-07-15T13:37:27Z</time>
      </trkpt>
      <trkpt lat="43.88305" lon="6.83199">
        <ele>881.4</ele>
        <time>2025-07-15T13:37:31Z</time>
      </trkpt>
      <trkpt lat="43.88302" lon="6.83191">
        <ele>881.8</ele>
        <time>2025-07-15T13:37:34Z</time>
      </trkpt>
      <trkpt lat="43.883" lon="6.83177">
        <ele>882.6</ele>
        <time>2025-07-15T13:37:39Z</time>
      </trkpt>
      <trkpt lat="43.88299" lon="6.83171">
        <ele>882.8</ele>
        <time>2025-07-15T13:37:41Z</time>
      </trkpt>
      <trkpt lat="43.88297" lon="6.83157">
        <ele>883.6</ele>
        <time>2025-07-15T13:37:46Z</time>
      </trkpt>
      <trkpt lat="43.88297" lon="6.83154">
        <ele>883.8</ele>
        <time>2025-07-15T13:37:47Z</time>
      </trkpt>
      <trkpt lat="43.88299" lon="6.83141">
        <ele>884.4</ele>
        <time>2025-07-15T13:37:51Z</time>
      </trkpt>
      <trkpt lat="43.88299" lon="6.83137">
        <ele>884.6</ele>
        <time>2025-07-15T13:37:52Z</time>
      </trkpt>
      <trkpt lat="43.88299" lon="6.83134">
        <ele>884.8</ele>
        <time>2025-07-15T13:37:53Z</time>
      </trkpt>
      <trkpt lat="43.88298" lon="6.83124">
        <ele>885.4</ele>
        <time>2025-07-15T13:37:56Z</time>
      </trkpt>
      <trkpt lat="43.88297" lon="6.83115">
        <ele>885.8</ele>
        <time>2025-07-15T13:37:59Z</time>
      </trkpt>
      <trkpt lat="43.88296" lon="6.83106">
        <ele>886.2</ele>
        <time>2025-07-15T13:38:02Z</time>
      </trkpt>
      <trkpt lat="43.88296" lon="6.83089">
        <ele>886.8</ele>
        <time>2025-07-15T13:38:07Z</time>
      </trkpt>
      <trkpt lat="43.88297" lon="6.8308">
        <ele>887.2</ele>
        <time>2025-07-15T13:38:10Z</time>
      </trkpt>
      <trkpt lat="43.88296" lon="6.83058">
        <ele>888.2</ele>
        <time>2025-07-15T13:38:17Z</time>
      </trkpt>
      <trkpt lat="43.88296" lon="6.83055">
        <ele>888.4</ele>
        <time>2025-07-15T13:38:18Z</time>
      </trkpt>
      <trkpt lat="43.88296" lon="6.83041">
        <ele>889.2</ele>
        <time>2025-07-15T13:38:23Z</time>
      </trkpt>
      <trkpt lat="43.88296" lon="6.83034">
        <ele>889.6</ele>
        <time>2025-07-15T13:38:25Z</time>
      </trkpt>
      <trkpt lat="43.88295" lon="6.83017">
        <ele>890.2</ele>
        <time>2025-07-15T13:38:31Z</time>
      </trkpt>
      <trkpt lat="43.88295" lon="6.83009">
        <ele>890.6</ele>
        <time>2025-07-15T13:38:33Z</time>
      </trkpt>
      <trkpt lat="43.88295" lon="6.82997">
        <ele>891.2</ele>
        <time>2025-07-15T13:38:37Z</time>
      </trkpt>
      <trkpt lat="43.88296" lon="6.82991">
        <ele>891.6</ele>
        <time>2025-07-15T13:38:39Z</time>
      </trkpt>
      <trkpt lat="43.88297" lon="6.82981">
        <ele>892.4</ele>
        <time>2025-07-15T13:38:42Z</time>
      </trkpt>
      <trkpt lat="43.88297" lon="6.82965">
        <ele>893</ele>
        <time>2025-07-15T13:38:47Z</time>
      </trkpt>
      <trkpt lat="43.88296" lon="6.82959">
        <ele>893.4</ele>
        <time>2025-07-15T13:38:49Z</time>
      </trkpt>
      <trkpt lat="43.88295" lon="6.82943">
        <ele>894.2</ele>
        <time>2025-07-15T13:38:54Z</time>
      </trkpt>
      <trkpt lat="43.88295" lon="6.82937">
        <ele>894.6</ele>
        <time>2025-07-15T13:38:56Z</time>
      </trkpt>
      <trkpt lat="43.88296" lon="6.82924">
        <ele>895.2</ele>
        <time>2025-07-15T13:39:00Z</time>
      </trkpt>
      <trkpt lat="43.88297" lon="6.8292">
        <ele>895.2</ele>
        <time>2025-07-15T13:39:01Z</time>
      </trkpt>
      <trkpt lat="43.88295" lon="6.82909">
        <ele>895.6</ele>
        <time>2025-07-15T13:39:05Z</time>
      </trkpt>
      <trkpt lat="43.88295" lon="6.82903">
        <ele>896</ele>
        <time>2025-07-15T13:39:07Z</time>
      </trkpt>
      <trkpt lat="43.88294" lon="6.82882">
        <ele>896.4</ele>
        <time>2025-07-15T13:39:14Z</time>
      </trkpt>
      <trkpt lat="43.88294" lon="6.82879">
        <ele>896.6</ele>
        <time>2025-07-15T13:39:15Z</time>
      </trkpt>
      <trkpt lat="43.88291" lon="6.82863">
        <ele>897</ele>
        <time>2025-07-15T13:39:21Z</time>
      </trkpt>
      <trkpt lat="43.88291" lon="6.82853">
        <ele>897.6</ele>
        <time>2025-07-15T13:39:24Z</time>
      </trkpt>
      <trkpt lat="43.8829" lon="6.82847">
        <ele>898</ele>
        <time>2025-07-15T13:39:26Z</time>
      </trkpt>
      <trkpt lat="43.88288" lon="6.82826">
        <ele>898.8</ele>
        <time>2025-07-15T13:39:33Z</time>
      </trkpt>
      <trkpt lat="43.88289" lon="6.8281">
        <ele>899.8</ele>
        <time>2025-07-15T13:39:38Z</time>
      </trkpt>
      <trkpt lat="43.88287" lon="6.828">
        <ele>900.2</ele>
        <time>2025-07-15T13:39:41Z</time>
      </trkpt>
      <trkpt lat="43.88286" lon="6.82783">
        <ele>901</ele>
        <time>2025-07-15T13:39:46Z</time>
      </trkpt>
      <trkpt lat="43.88285" lon="6.82779">
        <ele>901.2</ele>
        <time>2025-07-15T13:39:47Z</time>
      </trkpt>
      <trkpt lat="43.88285" lon="6.82767">
        <ele>902</ele>
        <time>2025-07-15T13:39:51Z</time>
      </trkpt>
      <trkpt lat="43.88284" lon="6.82761">
        <ele>902.4</ele>
        <time>2025-07-15T13:39:53Z</time>
      </trkpt>
      <trkpt lat="43.88282" lon="6.8275">
        <ele>903</ele>
        <time>2025-07-15T13:39:57Z</time>
      </trkpt>
      <trkpt lat="43.88279" lon="6.82738">
        <ele>903.6</ele>
        <time>2025-07-15T13:40:01Z</time>
      </trkpt>
      <trkpt lat="43.88277" lon="6.8273">
        <ele>904</ele>
        <time>2025-07-15T13:40:04Z</time>
      </trkpt>
      <trkpt lat="43.88274" lon="6.82716">
        <ele>904.8</ele>
        <time>2025-07-15T13:40:09Z</time>
      </trkpt>
      <trkpt lat="43.88273" lon="6.82714">
        <ele>904.8</ele>
        <time>2025-07-15T13:40:10Z</time>
      </trkpt>
      <trkpt lat="43.88271" lon="6.82702">
        <ele>905</ele>
        <time>2025-07-15T13:40:14Z</time>
      </trkpt>
      <trkpt lat="43.8827" lon="6.82697">
        <ele>905.4</ele>
        <time>2025-07-15T13:40:16Z</time>
      </trkpt>
      <trkpt lat="43.88268" lon="6.82684">
        <ele>906</ele>
        <time>2025-07-15T13:40:21Z</time>
      </trkpt>
      <trkpt lat="43.88266" lon="6.82679">
        <ele>906.2</ele>
        <time>2025-07-15T13:40:23Z</time>
      </trkpt>
      <trkpt lat="43.88265" lon="6.82665">
        <ele>907.2</ele>
        <time>2025-07-15T13:40:28Z</time>
      </trkpt>
      <trkpt lat="43.88265" lon="6.82662">
        <ele>907.4</ele>
        <time>2025-07-15T13:40:29Z</time>
      </trkpt>
      <trkpt lat="43.88262" lon="6.82646">
        <ele>908.6</ele>
        <time>2025-07-15T13:40:34Z</time>
      </trkpt>
      <trkpt lat="43.88263" lon="6.82629">
        <ele>909.4</ele>
        <time>2025-07-15T13:40:39Z</time>
      </trkpt>
      <trkpt lat="43.88262" lon="6.82625">
        <ele>909.6</ele>
        <time>2025-07-15T13:40:40Z</time>
      </trkpt>
      <trkpt lat="43.88261" lon="6.82604">
        <ele>910.6</ele>
        <time>2025-07-15T13:40:47Z</time>
      </trkpt>
      <trkpt lat="43.88261" lon="6.82597">
        <ele>910.8</ele>
        <time>2025-07-15T13:40:49Z</time>
      </trkpt>
      <trkpt lat="43.88259" lon="6.82581">
        <ele>911.8</ele>
        <time>2025-07-15T13:40:54Z</time>
      </trkpt>
      <trkpt lat="43.88257" lon="6.82571">
        <ele>912.6</ele>
        <time>2025-07-15T13:40:58Z</time>
      </trkpt>
      <trkpt lat="43.88257" lon="6.82565">
        <ele>913</ele>
        <time>2025-07-15T13:41:00Z</time>
      </trkpt>
      <trkpt lat="43.88255" lon="6.82551">
        <ele>913.8</ele>
        <time>2025-07-15T13:41:05Z</time>
      </trkpt>
      <trkpt lat="43.88255" lon="6.82544">
        <ele>913.8</ele>
        <time>2025-07-15T13:41:07Z</time>
      </trkpt>
      <trkpt lat="43.88253" lon="6.82526">
        <ele>914.8</ele>
        <time>2025-07-15T13:41:13Z</time>
      </trkpt>
      <trkpt lat="43.88252" lon="6.82523">
        <ele>915</ele>
        <time>2025-07-15T13:41:14Z</time>
      </trkpt>
      <trkpt lat="43.88248" lon="6.82495">
        <ele>916</ele>
        <time>2025-07-15T13:41:23Z</time>
      </trkpt>
      <trkpt lat="43.88247" lon="6.82473">
        <ele>917</ele>
        <time>2025-07-15T13:41:30Z</time>
      </trkpt>
      <trkpt lat="43.88247" lon="6.8247">
        <ele>917.2</ele>
        <time>2025-07-15T13:41:31Z</time>
      </trkpt>
      <trkpt lat="43.88246" lon="6.8245">
        <ele>918</ele>
        <time>2025-07-15T13:41:37Z</time>
      </trkpt>
      <trkpt lat="43.88246" lon="6.82446">
        <ele>918.2</ele>
        <time>2025-07-15T13:41:38Z</time>
      </trkpt>
      <trkpt lat="43.88246" lon="6.82424">
        <ele>919.2</ele>
        <time>2025-07-15T13:41:45Z</time>
      </trkpt>
      <trkpt lat="43.88245" lon="6.82402">
        <ele>920.2</ele>
        <time>2025-07-15T13:41:52Z</time>
      </trkpt>
      <trkpt lat="43.88244" lon="6.82397">
        <ele>920.6</ele>
        <time>2025-07-15T13:41:54Z</time>
      </trkpt>
      <trkpt lat="43.88243" lon="6.82383">
        <ele>921.4</ele>
        <time>2025-07-15T13:41:59Z</time>
      </trkpt>
      <trkpt lat="43.88243" lon="6.82376">
        <ele>921.6</ele>
        <time>2025-07-15T13:42:01Z</time>
      </trkpt>
      <trkpt lat="43.88242" lon="6.82362">
        <ele>922.4</ele>
        <time>2025-07-15T13:42:05Z</time>
      </trkpt>
      <trkpt lat="43.8824" lon="6.82352">
        <ele>923</ele>
        <time>2025-07-15T13:42:08Z</time>
      </trkpt>
      <trkpt lat="43.8824" lon="6.8234">
        <ele>923.6</ele>
        <time>2025-07-15T13:42:12Z</time>
      </trkpt>
      <trkpt lat="43.88239" lon="6.82334">
        <ele>924</ele>
        <time>2025-07-15T13:42:14Z</time>
      </trkpt>
      <trkpt lat="43.88237" lon="6.8232">
        <ele>924.8</ele>
        <time>2025-07-15T13:42:19Z</time>
      </trkpt>
      <trkpt lat="43.88238" lon="6.82313">
        <ele>925</ele>
        <time>2025-07-15T13:42:21Z</time>
      </trkpt>
      <trkpt lat="43.88236" lon="6.82294">
        <ele>926</ele>
        <time>2025-07-15T13:42:28Z</time>
      </trkpt>
      <trkpt lat="43.88236" lon="6.82291">
        <ele>926</ele>
        <time>2025-07-15T13:42:29Z</time>
      </trkpt>
      <trkpt lat="43.88236" lon="6.82271">
        <ele>926.8</ele>
        <time>2025-07-15T13:42:35Z</time>
      </trkpt>
      <trkpt lat="43.88236" lon="6.82268">
        <ele>927</ele>
        <time>2025-07-15T13:42:36Z</time>
      </trkpt>
      <trkpt lat="43.88235" lon="6.82259">
        <ele>928</ele>
        <time>2025-07-15T13:42:39Z</time>
      </trkpt>
      <trkpt lat="43.88232" lon="6.82243">
        <ele>928.8</ele>
        <time>2025-07-15T13:42:45Z</time>
      </trkpt>
      <trkpt lat="43.88231" lon="6.8223">
        <ele>929.2</ele>
        <time>2025-07-15T13:42:50Z</time>
      </trkpt>
      <trkpt lat="43.88229" lon="6.82224">
        <ele>929.6</ele>
        <time>2025-07-15T13:42:52Z</time>
      </trkpt>
      <trkpt lat="43.88227" lon="6.82211">
        <ele>930.6</ele>
        <time>2025-07-15T13:42:57Z</time>
      </trkpt>
      <trkpt lat="43.88226" lon="6.82202">
        <ele>930.8</ele>
        <time>2025-07-15T13:43:00Z</time>
      </trkpt>
      <trkpt lat="43.88226" lon="6.82189">
        <ele>931.6</ele>
        <time>2025-07-15T13:43:04Z</time>
      </trkpt>
      <trkpt lat="43.88225" lon="6.82183">
        <ele>932</ele>
        <time>2025-07-15T13:43:06Z</time>
      </trkpt>
      <trkpt lat="43.88227" lon="6.82175">
        <ele>932.6</ele>
        <time>2025-07-15T13:43:09Z</time>
      </trkpt>
      <trkpt lat="43.88228" lon="6.82163">
        <ele>933.2</ele>
        <time>2025-07-15T13:43:12Z</time>
      </trkpt>
      <trkpt lat="43.88227" lon="6.82152">
        <ele>933.6</ele>
        <time>2025-07-15T13:43:15Z</time>
      </trkpt>
      <trkpt lat="43.88226" lon="6.82143">
        <ele>933.8</ele>
        <time>2025-07-15T13:43:18Z</time>
      </trkpt>
      <trkpt lat="43.88227" lon="6.82127">
        <ele>934.6</ele>
        <time>2025-07-15T13:43:23Z</time>
      </trkpt>
      <trkpt lat="43.88226" lon="6.82124">
        <ele>934.8</ele>
        <time>2025-07-15T13:43:24Z</time>
      </trkpt>
      <trkpt lat="43.88226" lon="6.82111">
        <ele>935.8</ele>
        <time>2025-07-15T13:43:28Z</time>
      </trkpt>
      <trkpt lat="43.88225" lon="6.82104">
        <ele>936</ele>
        <time>2025-07-15T13:43:30Z</time>
      </trkpt>
      <trkpt lat="43.88223" lon="6.82089">
        <ele>936.8</ele>
        <time>2025-07-15T13:43:35Z</time>
      </trkpt>
      <trkpt lat="43.88223" lon="6.8208">
        <ele>937.8</ele>
        <time>2025-07-15T13:43:38Z</time>
      </trkpt>
      <trkpt lat="43.88222" lon="6.82075">
        <ele>938.6</ele>
        <time>2025-07-15T13:43:40Z</time>
      </trkpt>
      <trkpt lat="43.88222" lon="6.82068">
        <ele>939.2</ele>
        <time>2025-07-15T13:43:42Z</time>
      </trkpt>
      <trkpt lat="43.88221" lon="6.82053">
        <ele>940</ele>
        <time>2025-07-15T13:43:47Z</time>
      </trkpt>
      <trkpt lat="43.88221" lon="6.82043">
        <ele>940.2</ele>
        <time>2025-07-15T13:43:50Z</time>
      </trkpt>
      <trkpt lat="43.88219" lon="6.82025">
        <ele>941.4</ele>
        <time>2025-07-15T13:43:56Z</time>
      </trkpt>
      <trkpt lat="43.88219" lon="6.82019">
        <ele>941.6</ele>
        <time>2025-07-15T13:43:58Z</time>
      </trkpt>
      <trkpt lat="43.88218" lon="6.82006">
        <ele>942.6</ele>
        <time>2025-07-15T13:44:02Z</time>
      </trkpt>
      <trkpt lat="43.88219" lon="6.81996">
        <ele>943.2</ele>
        <time>2025-07-15T13:44:05Z</time>
      </trkpt>
      <trkpt lat="43.88217" lon="6.81971">
        <ele>943.6</ele>
        <time>2025-07-15T13:44:13Z</time>
      </trkpt>
      <trkpt lat="43.88216" lon="6.81965">
        <ele>944</ele>
        <time>2025-07-15T13:44:15Z</time>
      </trkpt>
      <trkpt lat="43.88214" lon="6.81944">
        <ele>944.8</ele>
        <time>2025-07-15T13:44:22Z</time>
      </trkpt>
      <trkpt lat="43.88214" lon="6.81941">
        <ele>945</ele>
        <time>2025-07-15T13:44:23Z</time>
      </trkpt>
      <trkpt lat="43.88213" lon="6.81929">
        <ele>945.8</ele>
        <time>2025-07-15T13:44:27Z</time>
      </trkpt>
      <trkpt lat="43.88212" lon="6.81922">
        <ele>946</ele>
        <time>2025-07-15T13:44:30Z</time>
      </trkpt>
      <trkpt lat="43.88208" lon="6.81904">
        <ele>947.2</ele>
        <time>2025-07-15T13:44:36Z</time>
      </trkpt>
      <trkpt lat="43.88208" lon="6.81899">
        <ele>947.6</ele>
        <time>2025-07-15T13:44:38Z</time>
      </trkpt>
      <trkpt lat="43.88207" lon="6.81891">
        <ele>948.2</ele>
        <time>2025-07-15T13:44:41Z</time>
      </trkpt>
      <trkpt lat="43.88207" lon="6.81888">
        <ele>948.4</ele>
        <time>2025-07-15T13:44:42Z</time>
      </trkpt>
      <trkpt lat="43.88206" lon="6.81886">
        <ele>948.6</ele>
        <time>2025-07-15T13:44:43Z</time>
      </trkpt>
      <trkpt lat="43.88205" lon="6.81874">
        <ele>949.4</ele>
        <time>2025-07-15T13:44:47Z</time>
      </trkpt>
      <trkpt lat="43.88207" lon="6.81854">
        <ele>950.4</ele>
        <time>2025-07-15T13:44:54Z</time>
      </trkpt>
      <trkpt lat="43.88207" lon="6.81851">
        <ele>950.4</ele>
        <time>2025-07-15T13:44:55Z</time>
      </trkpt>
      <trkpt lat="43.88206" lon="6.81832">
        <ele>951.4</ele>
        <time>2025-07-15T13:45:01Z</time>
      </trkpt>
      <trkpt lat="43.88206" lon="6.81827">
        <ele>951.6</ele>
        <time>2025-07-15T13:45:03Z</time>
      </trkpt>
      <trkpt lat="43.88205" lon="6.81805">
        <ele>952.8</ele>
        <time>2025-07-15T13:45:10Z</time>
      </trkpt>
      <trkpt lat="43.88205" lon="6.81784">
        <ele>954</ele>
        <time>2025-07-15T13:45:17Z</time>
      </trkpt>
      <trkpt lat="43.88205" lon="6.8178">
        <ele>954</ele>
        <time>2025-07-15T13:45:18Z</time>
      </trkpt>
      <trkpt lat="43.88205" lon="6.81765">
        <ele>954.8</ele>
        <time>2025-07-15T13:45:23Z</time>
      </trkpt>
      <trkpt lat="43.88204" lon="6.81756">
        <ele>955</ele>
        <time>2025-07-15T13:45:26Z</time>
      </trkpt>
      <trkpt lat="43.88203" lon="6.81742">
        <ele>955.8</ele>
        <time>2025-07-15T13:45:31Z</time>
      </trkpt>
      <trkpt lat="43.88203" lon="6.81732">
        <ele>956.4</ele>
        <time>2025-07-15T13:45:34Z</time>
      </trkpt>
      <trkpt lat="43.88203" lon="6.81717">
        <ele>957.2</ele>
        <time>2025-07-15T13:45:39Z</time>
      </trkpt>
      <trkpt lat="43.88202" lon="6.81697">
        <ele>958.4</ele>
        <time>2025-07-15T13:45:45Z</time>
      </trkpt>
      <trkpt lat="43.88201" lon="6.81694">
        <ele>958.8</ele>
        <time>2025-07-15T13:45:46Z</time>
      </trkpt>
      <trkpt lat="43.88201" lon="6.81691">
        <ele>959</ele>
        <time>2025-07-15T13:45:47Z</time>
      </trkpt>
      <trkpt lat="43.88201" lon="6.81683">
        <ele>959.6</ele>
        <time>2025-07-15T13:45:50Z</time>
      </trkpt>
      <trkpt lat="43.88201" lon="6.81668">
        <ele>960.6</ele>
        <time>2025-07-15T13:45:55Z</time>
      </trkpt>
      <trkpt lat="43.88199" lon="6.81642">
        <ele>961.6</ele>
        <time>2025-07-15T13:46:04Z</time>
      </trkpt>
      <trkpt lat="43.88199" lon="6.81625">
        <ele>962.6</ele>
        <time>2025-07-15T13:46:10Z</time>
      </trkpt>
      <trkpt lat="43.88198" lon="6.81616">
        <ele>963.2</ele>
        <time>2025-07-15T13:46:13Z</time>
      </trkpt>
      <trkpt lat="43.88199" lon="6.81611">
        <ele>963.8</ele>
        <time>2025-07-15T13:46:15Z</time>
      </trkpt>
      <trkpt lat="43.88199" lon="6.81608">
        <ele>963.8</ele>
        <time>2025-07-15T13:46:16Z</time>
      </trkpt>
      <trkpt lat="43.88198" lon="6.816">
        <ele>964.4</ele>
        <time>2025-07-15T13:46:19Z</time>
      </trkpt>
      <trkpt lat="43.88198" lon="6.81591">
        <ele>964.6</ele>
        <time>2025-07-15T13:46:22Z</time>
      </trkpt>
      <trkpt lat="43.88197" lon="6.81575">
        <ele>965.2</ele>
        <time>2025-07-15T13:46:28Z</time>
      </trkpt>
      <trkpt lat="43.88199" lon="6.81565">
        <ele>965.8</ele>
        <time>2025-07-15T13:46:31Z</time>
      </trkpt>
      <trkpt lat="43.88199" lon="6.8155">
        <ele>966.6</ele>
        <time>2025-07-15T13:46:36Z</time>
      </trkpt>
      <trkpt lat="43.88199" lon="6.81547">
        <ele>966.8</ele>
        <time>2025-07-15T13:46:37Z</time>
      </trkpt>
      <trkpt lat="43.88199" lon="6.81538">
        <ele>967.4</ele>
        <time>2025-07-15T13:46:40Z</time>
      </trkpt>
      <trkpt lat="43.882" lon="6.81528">
        <ele>967.8</ele>
        <time>2025-07-15T13:46:43Z</time>
      </trkpt>
      <trkpt lat="43.882" lon="6.81516">
        <ele>968.6</ele>
        <time>2025-07-15T13:46:47Z</time>
      </trkpt>
      <trkpt lat="43.88201" lon="6.81512">
        <ele>969.2</ele>
        <time>2025-07-15T13:46:48Z</time>
      </trkpt>
      <trkpt lat="43.88201" lon="6.81498">
        <ele>970</ele>
        <time>2025-07-15T13:46:53Z</time>
      </trkpt>
      <trkpt lat="43.88202" lon="6.81492">
        <ele>970.4</ele>
        <time>2025-07-15T13:46:55Z</time>
      </trkpt>
      <trkpt lat="43.88201" lon="6.81478">
        <ele>971.4</ele>
        <time>2025-07-15T13:47:00Z</time>
      </trkpt>
      <trkpt lat="43.88201" lon="6.81475">
        <ele>971.6</ele>
        <time>2025-07-15T13:47:01Z</time>
      </trkpt>
      <trkpt lat="43.88202" lon="6.81457">
        <ele>972.6</ele>
        <time>2025-07-15T13:47:07Z</time>
      </trkpt>
      <trkpt lat="43.88202" lon="6.81454">
        <ele>972.6</ele>
        <time>2025-07-15T13:47:08Z</time>
      </trkpt>
      <trkpt lat="43.88203" lon="6.81437">
        <ele>973.6</ele>
        <time>2025-07-15T13:47:14Z</time>
      </trkpt>
      <trkpt lat="43.88204" lon="6.81427">
        <ele>973.8</ele>
        <time>2025-07-15T13:47:17Z</time>
      </trkpt>
      <trkpt lat="43.88205" lon="6.81415">
        <ele>974.4</ele>
        <time>2025-07-15T13:47:21Z</time>
      </trkpt>
      <trkpt lat="43.88205" lon="6.81407">
        <ele>975</ele>
        <time>2025-07-15T13:47:24Z</time>
      </trkpt>
      <trkpt lat="43.88204" lon="6.81393">
        <ele>975.6</ele>
        <time>2025-07-15T13:47:29Z</time>
      </trkpt>
      <trkpt lat="43.88205" lon="6.81391">
        <ele>975.6</ele>
        <time>2025-07-15T13:47:30Z</time>
      </trkpt>
      <trkpt lat="43.88207" lon="6.81368">
        <ele>976.6</ele>
        <time>2025-07-15T13:47:37Z</time>
      </trkpt>
      <trkpt lat="43.88208" lon="6.81357">
        <ele>977.4</ele>
        <time>2025-07-15T13:47:41Z</time>
      </trkpt>
      <trkpt lat="43.88209" lon="6.81354">
        <ele>977.4</ele>
        <time>2025-07-15T13:47:42Z</time>
      </trkpt>
      <trkpt lat="43.88209" lon="6.8135">
        <ele>977.6</ele>
        <time>2025-07-15T13:47:43Z</time>
      </trkpt>
      <trkpt lat="43.88208" lon="6.81348">
        <ele>977.4</ele>
        <time>2025-07-15T13:47:44Z</time>
      </trkpt>
      <trkpt lat="43.88209" lon="6.81343">
        <ele>977.6</ele>
        <time>2025-07-15T13:47:46Z</time>
      </trkpt>
      <trkpt lat="43.88212" lon="6.81319">
        <ele>978.4</ele>
        <time>2025-07-15T13:47:53Z</time>
      </trkpt>
      <trkpt lat="43.88212" lon="6.81315">
        <ele>978.6</ele>
        <time>2025-07-15T13:47:54Z</time>
      </trkpt>
      <trkpt lat="43.88214" lon="6.81302">
        <ele>979.2</ele>
        <time>2025-07-15T13:47:58Z</time>
      </trkpt>
      <trkpt lat="43.88215" lon="6.81299">
        <ele>979.4</ele>
        <time>2025-07-15T13:47:59Z</time>
      </trkpt>
      <trkpt lat="43.88217" lon="6.8129">
        <ele>979.8</ele>
        <time>2025-07-15T13:48:02Z</time>
      </trkpt>
      <trkpt lat="43.88218" lon="6.81282">
        <ele>980.4</ele>
        <time>2025-07-15T13:48:05Z</time>
      </trkpt>
      <trkpt lat="43.88218" lon="6.81278">
        <ele>980.6</ele>
        <time>2025-07-15T13:48:07Z</time>
      </trkpt>
      <trkpt lat="43.88217" lon="6.81275">
        <ele>980.6</ele>
        <time>2025-07-15T13:48:08Z</time>
      </trkpt>
      <trkpt lat="43.88218" lon="6.81257">
        <ele>981.4</ele>
        <time>2025-07-15T13:48:14Z</time>
      </trkpt>
      <trkpt lat="43.88221" lon="6.81243">
        <ele>982</ele>
        <time>2025-07-15T13:48:19Z</time>
      </trkpt>
      <trkpt lat="43.88221" lon="6.81229">
        <ele>982.6</ele>
        <time>2025-07-15T13:48:23Z</time>
      </trkpt>
      <trkpt lat="43.88221" lon="6.81221">
        <ele>982.8</ele>
        <time>2025-07-15T13:48:26Z</time>
      </trkpt>
      <trkpt lat="43.88223" lon="6.81212">
        <ele>983.2</ele>
        <time>2025-07-15T13:48:29Z</time>
      </trkpt>
      <trkpt lat="43.88223" lon="6.81207">
        <ele>983.2</ele>
        <time>2025-07-15T13:48:31Z</time>
      </trkpt>
      <trkpt lat="43.88223" lon="6.81201">
        <ele>983.8</ele>
        <time>2025-07-15T13:48:33Z</time>
      </trkpt>
      <trkpt lat="43.88223" lon="6.8119">
        <ele>984.6</ele>
        <time>2025-07-15T13:48:37Z</time>
      </trkpt>
      <trkpt lat="43.88222" lon="6.81184">
        <ele>984.8</ele>
        <time>2025-07-15T13:48:39Z</time>
      </trkpt>
      <trkpt lat="43.88222" lon="6.81172">
        <ele>985.4</ele>
        <time>2025-07-15T13:48:43Z</time>
      </trkpt>
      <trkpt lat="43.8822" lon="6.8116">
        <ele>985.8</ele>
        <time>2025-07-15T13:48:47Z</time>
      </trkpt>
      <trkpt lat="43.88219" lon="6.81155">
        <ele>986</ele>
        <time>2025-07-15T13:48:49Z</time>
      </trkpt>
      <trkpt lat="43.88215" lon="6.81138">
        <ele>987</ele>
        <time>2025-07-15T13:48:55Z</time>
      </trkpt>
      <trkpt lat="43.88214" lon="6.81128">
        <ele>987.2</ele>
        <time>2025-07-15T13:48:58Z</time>
      </trkpt>
      <trkpt lat="43.88212" lon="6.81116">
        <ele>988</ele>
        <time>2025-07-15T13:49:02Z</time>
      </trkpt>
      <trkpt lat="43.88211" lon="6.81109">
        <ele>988.4</ele>
        <time>2025-07-15T13:49:05Z</time>
      </trkpt>
      <trkpt lat="43.88208" lon="6.81101">
        <ele>989</ele>
        <time>2025-07-15T13:49:08Z</time>
      </trkpt>
      <trkpt lat="43.88209" lon="6.81093">
        <ele>989.8</ele>
        <time>2025-07-15T13:49:11Z</time>
      </trkpt>
      <trkpt lat="43.88209" lon="6.81087">
        <ele>990.2</ele>
        <time>2025-07-15T13:49:13Z</time>
      </trkpt>
      <trkpt lat="43.88207" lon="6.81069">
        <ele>991</ele>
        <time>2025-07-15T13:49:19Z</time>
      </trkpt>
      <trkpt lat="43.88206" lon="6.81067">
        <ele>991.2</ele>
        <time>2025-07-15T13:49:20Z</time>
      </trkpt>
      <trkpt lat="43.88206" lon="6.8105">
        <ele>992</ele>
        <time>2025-07-15T13:49:26Z</time>
      </trkpt>
      <trkpt lat="43.88205" lon="6.81044">
        <ele>992.2</ele>
        <time>2025-07-15T13:49:28Z</time>
      </trkpt>
      <trkpt lat="43.88203" lon="6.81026">
        <ele>993.4</ele>
        <time>2025-07-15T13:49:34Z</time>
      </trkpt>
      <trkpt lat="43.88201" lon="6.81008">
        <ele>994.4</ele>
        <time>2025-07-15T13:49:40Z</time>
      </trkpt>
      <trkpt lat="43.88201" lon="6.80988">
        <ele>995.6</ele>
        <time>2025-07-15T13:49:45Z</time>
      </trkpt>
      <trkpt lat="43.88203" lon="6.80982">
        <ele>995.8</ele>
        <time>2025-07-15T13:49:47Z</time>
      </trkpt>
      <trkpt lat="43.8821" lon="6.80965">
        <ele>996.4</ele>
        <time>2025-07-15T13:49:53Z</time>
      </trkpt>
      <trkpt lat="43.88213" lon="6.80959">
        <ele>996.6</ele>
        <time>2025-07-15T13:49:55Z</time>
      </trkpt>
      <trkpt lat="43.88221" lon="6.80944">
        <ele>997.6</ele>
        <time>2025-07-15T13:50:00Z</time>
      </trkpt>
      <trkpt lat="43.88228" lon="6.80931">
        <ele>998.6</ele>
        <time>2025-07-15T13:50:05Z</time>
      </trkpt>
      <trkpt lat="43.88232" lon="6.80923">
        <ele>999</ele>
        <time>2025-07-15T13:50:08Z</time>
      </trkpt>
      <trkpt lat="43.88236" lon="6.80909">
        <ele>999.6</ele>
        <time>2025-07-15T13:50:13Z</time>
      </trkpt>
      <trkpt lat="43.88237" lon="6.80903">
        <ele>999.8</ele>
        <time>2025-07-15T13:50:15Z</time>
      </trkpt>
      <trkpt lat="43.8824" lon="6.80881">
        <ele>1000.6</ele>
        <time>2025-07-15T13:50:22Z</time>
      </trkpt>
      <trkpt lat="43.88241" lon="6.80878">
        <ele>1000.8</ele>
        <time>2025-07-15T13:50:23Z</time>
      </trkpt>
      <trkpt lat="43.88242" lon="6.80864">
        <ele>1001.2</ele>
        <time>2025-07-15T13:50:28Z</time>
      </trkpt>
      <trkpt lat="43.8824" lon="6.80861">
        <ele>1001.6</ele>
        <time>2025-07-15T13:50:30Z</time>
      </trkpt>
      <trkpt lat="43.88238" lon="6.80862">
        <ele>1001.8</ele>
        <time>2025-07-15T13:50:32Z</time>
      </trkpt>
      <trkpt lat="43.88236" lon="6.80865">
        <ele>1001.8</ele>
        <time>2025-07-15T13:50:34Z</time>
      </trkpt>
      <trkpt lat="43.88236" lon="6.80867">
        <ele>1001.8</ele>
        <time>2025-07-15T13:50:35Z</time>
      </trkpt>
      <trkpt lat="43.88236" lon="6.80867">
        <ele>1001.8</ele>
        <time>2025-07-15T13:50:38Z</time>
      </trkpt>
      <trkpt lat="43.88238" lon="6.80869">
        <ele>1002.6</ele>
        <time>2025-07-15T13:51:04Z</time>
      </trkpt>
      <trkpt lat="43.88241" lon="6.80866">
        <ele>1002.6</ele>
        <time>2025-07-15T13:51:06Z</time>
      </trkpt>
      <trkpt lat="43.88244" lon="6.8085">
        <ele>1001.8</ele>
        <time>2025-07-15T13:51:11Z</time>
      </trkpt>
      <trkpt lat="43.88249" lon="6.80823">
        <ele>1002</ele>
        <time>2025-07-15T13:51:19Z</time>
      </trkpt>
      <trkpt lat="43.88254" lon="6.80791">
        <ele>1002.6</ele>
        <time>2025-07-15T13:51:28Z</time>
      </trkpt>
      <trkpt lat="43.88256" lon="6.8078">
        <ele>1002.8</ele>
        <time>2025-07-15T13:51:31Z</time>
      </trkpt>
      <trkpt lat="43.8826" lon="6.80755">
        <ele>1003.6</ele>
        <time>2025-07-15T13:51:38Z</time>
      </trkpt>
      <trkpt lat="43.88262" lon="6.80744">
        <ele>1003.6</ele>
        <time>2025-07-15T13:51:41Z</time>
      </trkpt>
      <trkpt lat="43.88267" lon="6.80708">
        <ele>1004.2</ele>
        <time>2025-07-15T13:51:51Z</time>
      </trkpt>
      <trkpt lat="43.88269" lon="6.807">
        <ele>1004.6</ele>
        <time>2025-07-15T13:51:53Z</time>
      </trkpt>
      <trkpt lat="43.88272" lon="6.8067">
        <ele>1005.4</ele>
        <time>2025-07-15T13:52:01Z</time>
      </trkpt>
      <trkpt lat="43.88273" lon="6.80663">
        <ele>1005.8</ele>
        <time>2025-07-15T13:52:03Z</time>
      </trkpt>
      <trkpt lat="43.88272" lon="6.80643">
        <ele>1006.8</ele>
        <time>2025-07-15T13:52:08Z</time>
      </trkpt>
      <trkpt lat="43.88272" lon="6.80639">
        <ele>1007</ele>
        <time>2025-07-15T13:52:09Z</time>
      </trkpt>
      <trkpt lat="43.88267" lon="6.80621">
        <ele>1008</ele>
        <time>2025-07-15T13:52:14Z</time>
      </trkpt>
      <trkpt lat="43.88264" lon="6.80614">
        <ele>1008.2</ele>
        <time>2025-07-15T13:52:16Z</time>
      </trkpt>
      <trkpt lat="43.88253" lon="6.80589">
        <ele>1009</ele>
        <time>2025-07-15T13:52:23Z</time>
      </trkpt>
      <trkpt lat="43.88244" lon="6.80567">
        <ele>1009.6</ele>
        <time>2025-07-15T13:52:30Z</time>
      </trkpt>
      <trkpt lat="43.88241" lon="6.8056">
        <ele>1009.8</ele>
        <time>2025-07-15T13:52:32Z</time>
      </trkpt>
      <trkpt lat="43.88239" lon="6.80545">
        <ele>1010.6</ele>
        <time>2025-07-15T13:52:36Z</time>
      </trkpt>
      <trkpt lat="43.88239" lon="6.80534">
        <ele>1011</ele>
        <time>2025-07-15T13:52:39Z</time>
      </trkpt>
      <trkpt lat="43.8824" lon="6.80512">
        <ele>1011.6</ele>
        <time>2025-07-15T13:52:45Z</time>
      </trkpt>
      <trkpt lat="43.88239" lon="6.805">
        <ele>1012</ele>
        <time>2025-07-15T13:52:48Z</time>
      </trkpt>
      <trkpt lat="43.88236" lon="6.80482">
        <ele>1012.4</ele>
        <time>2025-07-15T13:52:53Z</time>
      </trkpt>
      <trkpt lat="43.8823" lon="6.8046">
        <ele>1013.2</ele>
        <time>2025-07-15T13:52:59Z</time>
      </trkpt>
      <trkpt lat="43.88228" lon="6.80457">
        <ele>1013.4</ele>
        <time>2025-07-15T13:53:00Z</time>
      </trkpt>
      <trkpt lat="43.88223" lon="6.80443">
        <ele>1014.4</ele>
        <time>2025-07-15T13:53:04Z</time>
      </trkpt>
      <trkpt lat="43.88215" lon="6.80422">
        <ele>1015</ele>
        <time>2025-07-15T13:53:10Z</time>
      </trkpt>
      <trkpt lat="43.88211" lon="6.80404">
        <ele>1015.4</ele>
        <time>2025-07-15T13:53:15Z</time>
      </trkpt>
      <trkpt lat="43.88209" lon="6.80388">
        <ele>1015.8</ele>
        <time>2025-07-15T13:53:19Z</time>
      </trkpt>
      <trkpt lat="43.88207" lon="6.80362">
        <ele>1016.4</ele>
        <time>2025-07-15T13:53:26Z</time>
      </trkpt>
      <trkpt lat="43.88207" lon="6.80354">
        <ele>1016.6</ele>
        <time>2025-07-15T13:53:28Z</time>
      </trkpt>
      <trkpt lat="43.88204" lon="6.80335">
        <ele>1017.2</ele>
        <time>2025-07-15T13:53:33Z</time>
      </trkpt>
      <trkpt lat="43.88201" lon="6.80325">
        <ele>1017.6</ele>
        <time>2025-07-15T13:53:36Z</time>
      </trkpt>
      <trkpt lat="43.88199" lon="6.80321">
        <ele>1018</ele>
        <time>2025-07-15T13:53:38Z</time>
      </trkpt>
      <trkpt lat="43.88198" lon="6.80319">
        <ele>1018</ele>
        <time>2025-07-15T13:53:39Z</time>
      </trkpt>
      <trkpt lat="43.88195" lon="6.80309">
        <ele>1018.6</ele>
        <time>2025-07-15T13:53:42Z</time>
      </trkpt>
      <trkpt lat="43.88194" lon="6.80306">
        <ele>1018.6</ele>
        <time>2025-07-15T13:53:43Z</time>
      </trkpt>
      <trkpt lat="43.88184" lon="6.80278">
        <ele>1019.6</ele>
        <time>2025-07-15T13:53:51Z</time>
      </trkpt>
      <trkpt lat="43.88178" lon="6.80261">
        <ele>1020.8</ele>
        <time>2025-07-15T13:53:56Z</time>
      </trkpt>
      <trkpt lat="43.88175" lon="6.8025">
        <ele>1021.2</ele>
        <time>2025-07-15T13:53:59Z</time>
      </trkpt>
      <trkpt lat="43.88168" lon="6.80224">
        <ele>1021.6</ele>
        <time>2025-07-15T13:54:06Z</time>
      </trkpt>
      <trkpt lat="43.88165" lon="6.80214">
        <ele>1022</ele>
        <time>2025-07-15T13:54:09Z</time>
      </trkpt>
      <trkpt lat="43.88159" lon="6.80199">
        <ele>1022.2</ele>
        <time>2025-07-15T13:54:13Z</time>
      </trkpt>
      <trkpt lat="43.88155" lon="6.80178">
        <ele>1022.6</ele>
        <time>2025-07-15T13:54:19Z</time>
      </trkpt>
      <trkpt lat="43.88154" lon="6.80174">
        <ele>1022.8</ele>
        <time>2025-07-15T13:54:20Z</time>
      </trkpt>
      <trkpt lat="43.88152" lon="6.80167">
        <ele>1023</ele>
        <time>2025-07-15T13:54:22Z</time>
      </trkpt>
      <trkpt lat="43.8815" lon="6.80162">
        <ele>1023.2</ele>
        <time>2025-07-15T13:54:24Z</time>
      </trkpt>
      <trkpt lat="43.88147" lon="6.80143">
        <ele>1023.8</ele>
        <time>2025-07-15T13:54:29Z</time>
      </trkpt>
      <trkpt lat="43.88145" lon="6.80134">
        <ele>1024</ele>
        <time>2025-07-15T13:54:31Z</time>
      </trkpt>
      <trkpt lat="43.8814" lon="6.80113">
        <ele>1024.8</ele>
        <time>2025-07-15T13:54:36Z</time>
      </trkpt>
      <trkpt lat="43.88138" lon="6.80106">
        <ele>1024.8</ele>
        <time>2025-07-15T13:54:38Z</time>
      </trkpt>
      <trkpt lat="43.88132" lon="6.80091">
        <ele>1025.6</ele>
        <time>2025-07-15T13:54:42Z</time>
      </trkpt>
      <trkpt lat="43.88132" lon="6.80087">
        <ele>1026</ele>
        <time>2025-07-15T13:54:43Z</time>
      </trkpt>
      <trkpt lat="43.88127" lon="6.80066">
        <ele>1026.4</ele>
        <time>2025-07-15T13:54:48Z</time>
      </trkpt>
      <trkpt lat="43.88124" lon="6.80054">
        <ele>1026.6</ele>
        <time>2025-07-15T13:54:52Z</time>
      </trkpt>
      <trkpt lat="43.88125" lon="6.80046">
        <ele>1026.8</ele>
        <time>2025-07-15T13:54:54Z</time>
      </trkpt>
      <trkpt lat="43.88122" lon="6.80019">
        <ele>1027.6</ele>
        <time>2025-07-15T13:55:00Z</time>
      </trkpt>
      <trkpt lat="43.88123" lon="6.80011">
        <ele>1028.2</ele>
        <time>2025-07-15T13:55:03Z</time>
      </trkpt>
      <trkpt lat="43.88122" lon="6.80008">
        <ele>1028.4</ele>
        <time>2025-07-15T13:55:05Z</time>
      </trkpt>
      <trkpt lat="43.88118" lon="6.8">
        <ele>1029</ele>
        <time>2025-07-15T13:55:08Z</time>
      </trkpt>
      <trkpt lat="43.88118" lon="6.79995">
        <ele>1029.2</ele>
        <time>2025-07-15T13:55:10Z</time>
      </trkpt>
      <trkpt lat="43.88114" lon="6.79985">
        <ele>1029.8</ele>
        <time>2025-07-15T13:55:14Z</time>
      </trkpt>
      <trkpt lat="43.88112" lon="6.79982">
        <ele>1030</ele>
        <time>2025-07-15T13:55:15Z</time>
      </trkpt>
      <trkpt lat="43.88107" lon="6.79967">
        <ele>1030.2</ele>
        <time>2025-07-15T13:55:19Z</time>
      </trkpt>
      <trkpt lat="43.88105" lon="6.7996">
        <ele>1030.6</ele>
        <time>2025-07-15T13:55:21Z</time>
      </trkpt>
      <trkpt lat="43.88098" lon="6.7993">
        <ele>1031.4</ele>
        <time>2025-07-15T13:55:28Z</time>
      </trkpt>
      <trkpt lat="43.88097" lon="6.79925">
        <ele>1031.4</ele>
        <time>2025-07-15T13:55:29Z</time>
      </trkpt>
      <trkpt lat="43.88085" lon="6.7989">
        <ele>1032</ele>
        <time>2025-07-15T13:55:37Z</time>
      </trkpt>
      <trkpt lat="43.88081" lon="6.79875">
        <ele>1032.4</ele>
        <time>2025-07-15T13:55:41Z</time>
      </trkpt>
      <trkpt lat="43.8808" lon="6.79871">
        <ele>1032.6</ele>
        <time>2025-07-15T13:55:42Z</time>
      </trkpt>
      <trkpt lat="43.88078" lon="6.79855">
        <ele>1033.6</ele>
        <time>2025-07-15T13:55:46Z</time>
      </trkpt>
      <trkpt lat="43.88074" lon="6.79837">
        <ele>1034</ele>
        <time>2025-07-15T13:55:51Z</time>
      </trkpt>
      <trkpt lat="43.88065" lon="6.79817">
        <ele>1034.6</ele>
        <time>2025-07-15T13:55:56Z</time>
      </trkpt>
      <trkpt lat="43.88064" lon="6.79806">
        <ele>1035</ele>
        <time>2025-07-15T13:55:59Z</time>
      </trkpt>
      <trkpt lat="43.8806" lon="6.79793">
        <ele>1035.6</ele>
        <time>2025-07-15T13:56:03Z</time>
      </trkpt>
      <trkpt lat="43.88057" lon="6.79783">
        <ele>1036</ele>
        <time>2025-07-15T13:56:06Z</time>
      </trkpt>
      <trkpt lat="43.88052" lon="6.79753">
        <ele>1036.4</ele>
        <time>2025-07-15T13:56:13Z</time>
      </trkpt>
      <trkpt lat="43.88052" lon="6.79731">
        <ele>1037</ele>
        <time>2025-07-15T13:56:18Z</time>
      </trkpt>
      <trkpt lat="43.88059" lon="6.79709">
        <ele>1037.6</ele>
        <time>2025-07-15T13:56:24Z</time>
      </trkpt>
      <trkpt lat="43.88061" lon="6.79706">
        <ele>1037.8</ele>
        <time>2025-07-15T13:56:25Z</time>
      </trkpt>
      <trkpt lat="43.88076" lon="6.79691">
        <ele>1038.8</ele>
        <time>2025-07-15T13:56:31Z</time>
      </trkpt>
      <trkpt lat="43.88084" lon="6.79683">
        <ele>1039.2</ele>
        <time>2025-07-15T13:56:34Z</time>
      </trkpt>
      <trkpt lat="43.88097" lon="6.79671">
        <ele>1039.8</ele>
        <time>2025-07-15T13:56:39Z</time>
      </trkpt>
      <trkpt lat="43.88109" lon="6.79658">
        <ele>1040.4</ele>
        <time>2025-07-15T13:56:44Z</time>
      </trkpt>
      <trkpt lat="43.88117" lon="6.79646">
        <ele>1040.8</ele>
        <time>2025-07-15T13:56:48Z</time>
      </trkpt>
      <trkpt lat="43.88122" lon="6.79634">
        <ele>1041.4</ele>
        <time>2025-07-15T13:56:51Z</time>
      </trkpt>
      <trkpt lat="43.88117" lon="6.79614">
        <ele>1041.8</ele>
        <time>2025-07-15T13:56:56Z</time>
      </trkpt>
      <trkpt lat="43.88114" lon="6.79611">
        <ele>1042</ele>
        <time>2025-07-15T13:56:57Z</time>
      </trkpt>
      <trkpt lat="43.88104" lon="6.79608">
        <ele>1042</ele>
        <time>2025-07-15T13:57:00Z</time>
      </trkpt>
      <trkpt lat="43.88095" lon="6.79609">
        <ele>1042.8</ele>
        <time>2025-07-15T13:57:03Z</time>
      </trkpt>
      <trkpt lat="43.88089" lon="6.79609">
        <ele>1043</ele>
        <time>2025-07-15T13:57:05Z</time>
      </trkpt>
      <trkpt lat="43.88083" lon="6.7961">
        <ele>1043.6</ele>
        <time>2025-07-15T13:57:07Z</time>
      </trkpt>
      <trkpt lat="43.88076" lon="6.79609">
        <ele>1044</ele>
        <time>2025-07-15T13:57:09Z</time>
      </trkpt>
      <trkpt lat="43.88067" lon="6.79607">
        <ele>1044.6</ele>
        <time>2025-07-15T13:57:12Z</time>
      </trkpt>
      <trkpt lat="43.88058" lon="6.79606">
        <ele>1045</ele>
        <time>2025-07-15T13:57:15Z</time>
      </trkpt>
      <trkpt lat="43.8805" lon="6.79606">
        <ele>1045.6</ele>
        <time>2025-07-15T13:57:18Z</time>
      </trkpt>
      <trkpt lat="43.88044" lon="6.79607">
        <ele>1046</ele>
        <time>2025-07-15T13:57:20Z</time>
      </trkpt>
      <trkpt lat="43.88026" lon="6.79608">
        <ele>1046.6</ele>
        <time>2025-07-15T13:57:26Z</time>
      </trkpt>
      <trkpt lat="43.88017" lon="6.79608">
        <ele>1047</ele>
        <time>2025-07-15T13:57:29Z</time>
      </trkpt>
      <trkpt lat="43.88011" lon="6.79605">
        <ele>1047.4</ele>
        <time>2025-07-15T13:57:31Z</time>
      </trkpt>
      <trkpt lat="43.88007" lon="6.79601">
        <ele>1048.2</ele>
        <time>2025-07-15T13:57:33Z</time>
      </trkpt>
      <trkpt lat="43.87997" lon="6.79592">
        <ele>1049</ele>
        <time>2025-07-15T13:57:37Z</time>
      </trkpt>
      <trkpt lat="43.87991" lon="6.79585">
        <ele>1049.2</ele>
        <time>2025-07-15T13:57:40Z</time>
      </trkpt>
      <trkpt lat="43.87978" lon="6.79574">
        <ele>1050</ele>
        <time>2025-07-15T13:57:45Z</time>
      </trkpt>
      <trkpt lat="43.87969" lon="6.79569">
        <ele>1050.6</ele>
        <time>2025-07-15T13:57:48Z</time>
      </trkpt>
      <trkpt lat="43.87958" lon="6.79563">
        <ele>1051.2</ele>
        <time>2025-07-15T13:57:52Z</time>
      </trkpt>
      <trkpt lat="43.87952" lon="6.79562">
        <ele>1051.6</ele>
        <time>2025-07-15T13:57:54Z</time>
      </trkpt>
      <trkpt lat="43.87935" lon="6.79557">
        <ele>1052.2</ele>
        <time>2025-07-15T13:58:00Z</time>
      </trkpt>
      <trkpt lat="43.87928" lon="6.7955">
        <ele>1052.6</ele>
        <time>2025-07-15T13:58:03Z</time>
      </trkpt>
      <trkpt lat="43.87924" lon="6.79545">
        <ele>1052.8</ele>
        <time>2025-07-15T13:58:05Z</time>
      </trkpt>
      <trkpt lat="43.87923" lon="6.7953">
        <ele>1053.4</ele>
        <time>2025-07-15T13:58:09Z</time>
      </trkpt>
      <trkpt lat="43.87925" lon="6.79523">
        <ele>1053.8</ele>
        <time>2025-07-15T13:58:11Z</time>
      </trkpt>
      <trkpt lat="43.87928" lon="6.79516">
        <ele>1054</ele>
        <time>2025-07-15T13:58:13Z</time>
      </trkpt>
      <trkpt lat="43.87938" lon="6.79494">
        <ele>1054.6</ele>
        <time>2025-07-15T13:58:20Z</time>
      </trkpt>
      <trkpt lat="43.87941" lon="6.79487">
        <ele>1054.8</ele>
        <time>2025-07-15T13:58:22Z</time>
      </trkpt>
      <trkpt lat="43.87946" lon="6.79458">
        <ele>1055.2</ele>
        <time>2025-07-15T13:58:30Z</time>
      </trkpt>
      <trkpt lat="43.87948" lon="6.79447">
        <ele>1056</ele>
        <time>2025-07-15T13:58:33Z</time>
      </trkpt>
      <trkpt lat="43.87952" lon="6.79433">
        <ele>1056.6</ele>
        <time>2025-07-15T13:58:37Z</time>
      </trkpt>
      <trkpt lat="43.87959" lon="6.79416">
        <ele>1057</ele>
        <time>2025-07-15T13:58:42Z</time>
      </trkpt>
      <trkpt lat="43.87965" lon="6.79407">
        <ele>1057.4</ele>
        <time>2025-07-15T13:58:45Z</time>
      </trkpt>
      <trkpt lat="43.8797" lon="6.79394">
        <ele>1058.2</ele>
        <time>2025-07-15T13:58:49Z</time>
      </trkpt>
      <trkpt lat="43.87971" lon="6.79387">
        <ele>1058.8</ele>
        <time>2025-07-15T13:58:51Z</time>
      </trkpt>
      <trkpt lat="43.87971" lon="6.79375">
        <ele>1059</ele>
        <time>2025-07-15T13:58:54Z</time>
      </trkpt>
      <trkpt lat="43.87969" lon="6.7936">
        <ele>1059.8</ele>
        <time>2025-07-15T13:58:58Z</time>
      </trkpt>
      <trkpt lat="43.87967" lon="6.79353">
        <ele>1060</ele>
        <time>2025-07-15T13:59:00Z</time>
      </trkpt>
      <trkpt lat="43.87959" lon="6.79337">
        <ele>1061.2</ele>
        <time>2025-07-15T13:59:05Z</time>
      </trkpt>
      <trkpt lat="43.87946" lon="6.79326">
        <ele>1062.2</ele>
        <time>2025-07-15T13:59:10Z</time>
      </trkpt>
      <trkpt lat="43.8794" lon="6.79323">
        <ele>1062.4</ele>
        <time>2025-07-15T13:59:12Z</time>
      </trkpt>
      <trkpt lat="43.87927" lon="6.7932">
        <ele>1063</ele>
        <time>2025-07-15T13:59:17Z</time>
      </trkpt>
      <trkpt lat="43.87918" lon="6.79319">
        <ele>1063.2</ele>
        <time>2025-07-15T13:59:20Z</time>
      </trkpt>
      <trkpt lat="43.87898" lon="6.79315">
        <ele>1064.4</ele>
        <time>2025-07-15T13:59:27Z</time>
      </trkpt>
      <trkpt lat="43.87884" lon="6.79301">
        <ele>1065.2</ele>
        <time>2025-07-15T13:59:33Z</time>
      </trkpt>
      <trkpt lat="43.87882" lon="6.79291">
        <ele>1065.4</ele>
        <time>2025-07-15T13:59:36Z</time>
      </trkpt>
      <trkpt lat="43.87881" lon="6.79284">
        <ele>1065.8</ele>
        <time>2025-07-15T13:59:38Z</time>
      </trkpt>
      <trkpt lat="43.87885" lon="6.79259">
        <ele>1066.6</ele>
        <time>2025-07-15T13:59:45Z</time>
      </trkpt>
      <trkpt lat="43.87888" lon="6.79226">
        <ele>1067.4</ele>
        <time>2025-07-15T13:59:53Z</time>
      </trkpt>
      <trkpt lat="43.87888" lon="6.79222">
        <ele>1067.8</ele>
        <time>2025-07-15T13:59:54Z</time>
      </trkpt>
      <trkpt lat="43.87882" lon="6.79209">
        <ele>1068.4</ele>
        <time>2025-07-15T13:59:58Z</time>
      </trkpt>
      <trkpt lat="43.87865" lon="6.79186">
        <ele>1068.8</ele>
        <time>2025-07-15T14:00:06Z</time>
      </trkpt>
      <trkpt lat="43.87863" lon="6.79182">
        <ele>1068.6</ele>
        <time>2025-07-15T14:00:07Z</time>
      </trkpt>
      <trkpt lat="43.87852" lon="6.79158">
        <ele>1069.2</ele>
        <time>2025-07-15T14:00:14Z</time>
      </trkpt>
      <trkpt lat="43.87845" lon="6.79149">
        <ele>1069.8</ele>
        <time>2025-07-15T14:00:17Z</time>
      </trkpt>
      <trkpt lat="43.87838" lon="6.79142">
        <ele>1070.2</ele>
        <time>2025-07-15T14:00:20Z</time>
      </trkpt>
      <trkpt lat="43.87827" lon="6.79135">
        <ele>1070.8</ele>
        <time>2025-07-15T14:00:24Z</time>
      </trkpt>
      <trkpt lat="43.87818" lon="6.79133">
        <ele>1071.4</ele>
        <time>2025-07-15T14:00:27Z</time>
      </trkpt>
      <trkpt lat="43.87798" lon="6.79125">
        <ele>1072</ele>
        <time>2025-07-15T14:00:34Z</time>
      </trkpt>
      <trkpt lat="43.8779" lon="6.79113">
        <ele>1072.2</ele>
        <time>2025-07-15T14:00:38Z</time>
      </trkpt>
      <trkpt lat="43.87792" lon="6.79096">
        <ele>1072.8</ele>
        <time>2025-07-15T14:00:43Z</time>
      </trkpt>
      <trkpt lat="43.87793" lon="6.79092">
        <ele>1073</ele>
        <time>2025-07-15T14:00:45Z</time>
      </trkpt>
      <trkpt lat="43.8779" lon="6.7909">
        <ele>1073.2</ele>
        <time>2025-07-15T14:00:47Z</time>
      </trkpt>
      <trkpt lat="43.8778" lon="6.79098">
        <ele>1073.4</ele>
        <time>2025-07-15T14:00:55Z</time>
      </trkpt>
      <trkpt lat="43.87788" lon="6.79102">
        <ele>1076.6</ele>
        <time>2025-07-15T14:21:53Z</time>
      </trkpt>
      <trkpt lat="43.87791" lon="6.79099">
        <ele>1076.6</ele>
        <time>2025-07-15T14:21:55Z</time>
      </trkpt>
      <trkpt lat="43.87801" lon="6.79079">
        <ele>1076.6</ele>
        <time>2025-07-15T14:22:02Z</time>
      </trkpt>
      <trkpt lat="43.87808" lon="6.7906">
        <ele>1076.6</ele>
        <time>2025-07-15T14:22:08Z</time>
      </trkpt>
      <trkpt lat="43.87808" lon="6.7905">
        <ele>1076.8</ele>
        <time>2025-07-15T14:22:11Z</time>
      </trkpt>
      <trkpt lat="43.87809" lon="6.79034">
        <ele>1077.4</ele>
        <time>2025-07-15T14:22:15Z</time>
      </trkpt>
      <trkpt lat="43.87808" lon="6.79014">
        <ele>1078</ele>
        <time>2025-07-15T14:22:20Z</time>
      </trkpt>
      <trkpt lat="43.87808" lon="6.79007">
        <ele>1078.4</ele>
        <time>2025-07-15T14:22:22Z</time>
      </trkpt>
      <trkpt lat="43.87804" lon="6.78985">
        <ele>1079</ele>
        <time>2025-07-15T14:22:28Z</time>
      </trkpt>
      <trkpt lat="43.87802" lon="6.78975">
        <ele>1079</ele>
        <time>2025-07-15T14:22:31Z</time>
      </trkpt>
      <trkpt lat="43.87798" lon="6.78953">
        <ele>1079.2</ele>
        <time>2025-07-15T14:22:37Z</time>
      </trkpt>
      <trkpt lat="43.87791" lon="6.78928">
        <ele>1079.6</ele>
        <time>2025-07-15T14:22:44Z</time>
      </trkpt>
      <trkpt lat="43.87789" lon="6.78922">
        <ele>1080</ele>
        <time>2025-07-15T14:22:46Z</time>
      </trkpt>
      <trkpt lat="43.87785" lon="6.78908">
        <ele>1080.4</ele>
        <time>2025-07-15T14:22:50Z</time>
      </trkpt>
      <trkpt lat="43.87781" lon="6.78898">
        <ele>1081</ele>
        <time>2025-07-15T14:22:53Z</time>
      </trkpt>
      <trkpt lat="43.87775" lon="6.78885">
        <ele>1081.8</ele>
        <time>2025-07-15T14:22:57Z</time>
      </trkpt>
      <trkpt lat="43.8777" lon="6.78879">
        <ele>1082.2</ele>
        <time>2025-07-15T14:22:59Z</time>
      </trkpt>
      <trkpt lat="43.87756" lon="6.7886">
        <ele>1083</ele>
        <time>2025-07-15T14:23:05Z</time>
      </trkpt>
      <trkpt lat="43.87754" lon="6.78845">
        <ele>1083.4</ele>
        <time>2025-07-15T14:23:09Z</time>
      </trkpt>
      <trkpt lat="43.87755" lon="6.78841">
        <ele>1083.6</ele>
        <time>2025-07-15T14:23:10Z</time>
      </trkpt>
      <trkpt lat="43.87762" lon="6.78828">
        <ele>1084.4</ele>
        <time>2025-07-15T14:23:15Z</time>
      </trkpt>
      <trkpt lat="43.87768" lon="6.78818">
        <ele>1084.6</ele>
        <time>2025-07-15T14:23:17Z</time>
      </trkpt>
      <trkpt lat="43.87776" lon="6.78801">
        <ele>1085.4</ele>
        <time>2025-07-15T14:23:22Z</time>
      </trkpt>
      <trkpt lat="43.87778" lon="6.78792">
        <ele>1085.6</ele>
        <time>2025-07-15T14:23:24Z</time>
      </trkpt>
      <trkpt lat="43.87779" lon="6.78767">
        <ele>1086.2</ele>
        <time>2025-07-15T14:23:30Z</time>
      </trkpt>
      <trkpt lat="43.87777" lon="6.78746">
        <ele>1086.6</ele>
        <time>2025-07-15T14:23:35Z</time>
      </trkpt>
      <trkpt lat="43.87772" lon="6.78725">
        <ele>1086.8</ele>
        <time>2025-07-15T14:23:40Z</time>
      </trkpt>
      <trkpt lat="43.87765" lon="6.78711">
        <ele>1087.4</ele>
        <time>2025-07-15T14:23:44Z</time>
      </trkpt>
      <trkpt lat="43.8776" lon="6.78701">
        <ele>1087.8</ele>
        <time>2025-07-15T14:23:47Z</time>
      </trkpt>
      <trkpt lat="43.8775" lon="6.78686">
        <ele>1088.4</ele>
        <time>2025-07-15T14:23:52Z</time>
      </trkpt>
      <trkpt lat="43.87748" lon="6.78683">
        <ele>1088.6</ele>
        <time>2025-07-15T14:23:53Z</time>
      </trkpt>
      <trkpt lat="43.8774" lon="6.78671">
        <ele>1089.6</ele>
        <time>2025-07-15T14:23:57Z</time>
      </trkpt>
      <trkpt lat="43.87733" lon="6.78662">
        <ele>1090</ele>
        <time>2025-07-15T14:24:00Z</time>
      </trkpt>
      <trkpt lat="43.87725" lon="6.78649">
        <ele>1090.6</ele>
        <time>2025-07-15T14:24:04Z</time>
      </trkpt>
      <trkpt lat="43.87723" lon="6.78636">
        <ele>1090.8</ele>
        <time>2025-07-15T14:24:07Z</time>
      </trkpt>
      <trkpt lat="43.87723" lon="6.78608">
        <ele>1091.4</ele>
        <time>2025-07-15T14:24:13Z</time>
      </trkpt>
      <trkpt lat="43.87723" lon="6.78603">
        <ele>1091.6</ele>
        <time>2025-07-15T14:24:14Z</time>
      </trkpt>
      <trkpt lat="43.87724" lon="6.78598">
        <ele>1091.6</ele>
        <time>2025-07-15T14:24:15Z</time>
      </trkpt>
      <trkpt lat="43.87729" lon="6.7857">
        <ele>1091.8</ele>
        <time>2025-07-15T14:24:20Z</time>
      </trkpt>
      <trkpt lat="43.87735" lon="6.78526">
        <ele>1091.8</ele>
        <time>2025-07-15T14:24:27Z</time>
      </trkpt>
      <trkpt lat="43.87736" lon="6.78507">
        <ele>1092</ele>
        <time>2025-07-15T14:24:30Z</time>
      </trkpt>
      <trkpt lat="43.87734" lon="6.78493">
        <ele>1092.2</ele>
        <time>2025-07-15T14:24:32Z</time>
      </trkpt>
      <trkpt lat="43.87732" lon="6.78487">
        <ele>1092.2</ele>
        <time>2025-07-15T14:24:33Z</time>
      </trkpt>
      <trkpt lat="43.87729" lon="6.78481">
        <ele>1092</ele>
        <time>2025-07-15T14:24:34Z</time>
      </trkpt>
      <trkpt lat="43.8772" lon="6.78473">
        <ele>1092</ele>
        <time>2025-07-15T14:24:36Z</time>
      </trkpt>
      <trkpt lat="43.87715" lon="6.7847">
        <ele>1092</ele>
        <time>2025-07-15T14:24:37Z</time>
      </trkpt>
      <trkpt lat="43.87694" lon="6.78463">
        <ele>1092</ele>
        <time>2025-07-15T14:24:41Z</time>
      </trkpt>
      <trkpt lat="43.87657" lon="6.7845">
        <ele>1092</ele>
        <time>2025-07-15T14:24:48Z</time>
      </trkpt>
      <trkpt lat="43.87651" lon="6.78447">
        <ele>1092</ele>
        <time>2025-07-15T14:24:49Z</time>
      </trkpt>
      <trkpt lat="43.87647" lon="6.78443">
        <ele>1092</ele>
        <time>2025-07-15T14:24:50Z</time>
      </trkpt>
      <trkpt lat="43.87638" lon="6.78432">
        <ele>1092.2</ele>
        <time>2025-07-15T14:24:52Z</time>
      </trkpt>
      <trkpt lat="43.87636" lon="6.78425">
        <ele>1092.2</ele>
        <time>2025-07-15T14:24:53Z</time>
      </trkpt>
      <trkpt lat="43.87634" lon="6.78417">
        <ele>1092.2</ele>
        <time>2025-07-15T14:24:54Z</time>
      </trkpt>
      <trkpt lat="43.87633" lon="6.784">
        <ele>1092.2</ele>
        <time>2025-07-15T14:24:56Z</time>
      </trkpt>
      <trkpt lat="43.87633" lon="6.78392">
        <ele>1092.2</ele>
        <time>2025-07-15T14:24:57Z</time>
      </trkpt>
      <trkpt lat="43.87634" lon="6.78375">
        <ele>1092</ele>
        <time>2025-07-15T14:24:59Z</time>
      </trkpt>
      <trkpt lat="43.87638" lon="6.78359">
        <ele>1091.8</ele>
        <time>2025-07-15T14:25:01Z</time>
      </trkpt>
      <trkpt lat="43.87641" lon="6.78352">
        <ele>1091.8</ele>
        <time>2025-07-15T14:25:02Z</time>
      </trkpt>
      <trkpt lat="43.87645" lon="6.78345">
        <ele>1091.6</ele>
        <time>2025-07-15T14:25:03Z</time>
      </trkpt>
      <trkpt lat="43.87649" lon="6.7834">
        <ele>1091.4</ele>
        <time>2025-07-15T14:25:04Z</time>
      </trkpt>
      <trkpt lat="43.87654" lon="6.78336">
        <ele>1091.4</ele>
        <time>2025-07-15T14:25:05Z</time>
      </trkpt>
      <trkpt lat="43.87665" lon="6.78332">
        <ele>1091.2</ele>
        <time>2025-07-15T14:25:07Z</time>
      </trkpt>
      <trkpt lat="43.87683" lon="6.78328">
        <ele>1090.8</ele>
        <time>2025-07-15T14:25:10Z</time>
      </trkpt>
      <trkpt lat="43.87709" lon="6.78321">
        <ele>1090.6</ele>
        <time>2025-07-15T14:25:14Z</time>
      </trkpt>
      <trkpt lat="43.87717" lon="6.78311">
        <ele>1090.6</ele>
        <time>2025-07-15T14:25:16Z</time>
      </trkpt>
      <trkpt lat="43.87716" lon="6.78296">
        <ele>1090.4</ele>
        <time>2025-07-15T14:25:18Z</time>
      </trkpt>
      <trkpt lat="43.87714" lon="6.78289">
        <ele>1090.4</ele>
        <time>2025-07-15T14:25:19Z</time>
      </trkpt>
      <trkpt lat="43.87708" lon="6.78283">
        <ele>1090.4</ele>
        <time>2025-07-15T14:25:20Z</time>
      </trkpt>
      <trkpt lat="43.87688" lon="6.78262">
        <ele>1090.6</ele>
        <time>2025-07-15T14:25:24Z</time>
      </trkpt>
      <trkpt lat="43.87685" lon="6.78256">
        <ele>1090.6</ele>
        <time>2025-07-15T14:25:25Z</time>
      </trkpt>
      <trkpt lat="43.87682" lon="6.78249">
        <ele>1090.6</ele>
        <time>2025-07-15T14:25:26Z</time>
      </trkpt>
      <trkpt lat="43.8768" lon="6.78233">
        <ele>1090.6</ele>
        <time>2025-07-15T14:25:28Z</time>
      </trkpt>
      <trkpt lat="43.8768" lon="6.78225">
        <ele>1090.6</ele>
        <time>2025-07-15T14:25:29Z</time>
      </trkpt>
      <trkpt lat="43.87683" lon="6.78192">
        <ele>1090.6</ele>
        <time>2025-07-15T14:25:33Z</time>
      </trkpt>
      <trkpt lat="43.87689" lon="6.7816">
        <ele>1090</ele>
        <time>2025-07-15T14:25:37Z</time>
      </trkpt>
      <trkpt lat="43.87695" lon="6.78145">
        <ele>1090</ele>
        <time>2025-07-15T14:25:39Z</time>
      </trkpt>
      <trkpt lat="43.87705" lon="6.78124">
        <ele>1089.8</ele>
        <time>2025-07-15T14:25:42Z</time>
      </trkpt>
      <trkpt lat="43.87716" lon="6.78105">
        <ele>1090</ele>
        <time>2025-07-15T14:25:45Z</time>
      </trkpt>
      <trkpt lat="43.8772" lon="6.78089">
        <ele>1090</ele>
        <time>2025-07-15T14:25:47Z</time>
      </trkpt>
      <trkpt lat="43.8772" lon="6.78081">
        <ele>1090.2</ele>
        <time>2025-07-15T14:25:48Z</time>
      </trkpt>
      <trkpt lat="43.8772" lon="6.78072">
        <ele>1090.2</ele>
        <time>2025-07-15T14:25:49Z</time>
      </trkpt>
      <trkpt lat="43.87715" lon="6.78057">
        <ele>1090</ele>
        <time>2025-07-15T14:25:51Z</time>
      </trkpt>
      <trkpt lat="43.87694" lon="6.78027">
        <ele>1089.8</ele>
        <time>2025-07-15T14:25:56Z</time>
      </trkpt>
      <trkpt lat="43.87672" lon="6.77986">
        <ele>1089.6</ele>
        <time>2025-07-15T14:26:02Z</time>
      </trkpt>
      <trkpt lat="43.87659" lon="6.7793">
        <ele>1089.4</ele>
        <time>2025-07-15T14:26:09Z</time>
      </trkpt>
      <trkpt lat="43.87647" lon="6.77872">
        <ele>1089.8</ele>
        <time>2025-07-15T14:26:16Z</time>
      </trkpt>
      <trkpt lat="43.87629" lon="6.77827">
        <ele>1090</ele>
        <time>2025-07-15T14:26:22Z</time>
      </trkpt>
      <trkpt lat="43.87621" lon="6.77813">
        <ele>1090</ele>
        <time>2025-07-15T14:26:24Z</time>
      </trkpt>
      <trkpt lat="43.87587" lon="6.77754">
        <ele>1089.8</ele>
        <time>2025-07-15T14:26:33Z</time>
      </trkpt>
      <trkpt lat="43.87583" lon="6.77747">
        <ele>1090</ele>
        <time>2025-07-15T14:26:34Z</time>
      </trkpt>
      <trkpt lat="43.87549" lon="6.77688">
        <ele>1090</ele>
        <time>2025-07-15T14:26:43Z</time>
      </trkpt>
      <trkpt lat="43.87522" lon="6.77639">
        <ele>1090</ele>
        <time>2025-07-15T14:26:50Z</time>
      </trkpt>
      <trkpt lat="43.8752" lon="6.77631">
        <ele>1089.8</ele>
        <time>2025-07-15T14:26:51Z</time>
      </trkpt>
      <trkpt lat="43.87512" lon="6.77608">
        <ele>1089.8</ele>
        <time>2025-07-15T14:26:54Z</time>
      </trkpt>
      <trkpt lat="43.87504" lon="6.77585">
        <ele>1089.8</ele>
        <time>2025-07-15T14:26:57Z</time>
      </trkpt>
      <trkpt lat="43.87482" lon="6.77523">
        <ele>1089.4</ele>
        <time>2025-07-15T14:27:05Z</time>
      </trkpt>
      <trkpt lat="43.8748" lon="6.77515">
        <ele>1089.4</ele>
        <time>2025-07-15T14:27:06Z</time>
      </trkpt>
      <trkpt lat="43.87462" lon="6.77477">
        <ele>1089.2</ele>
        <time>2025-07-15T14:27:11Z</time>
      </trkpt>
      <trkpt lat="43.87429" lon="6.77422">
        <ele>1089.4</ele>
        <time>2025-07-15T14:27:19Z</time>
      </trkpt>
      <trkpt lat="43.8741" lon="6.77374">
        <ele>1089.4</ele>
        <time>2025-07-15T14:27:25Z</time>
      </trkpt>
      <trkpt lat="43.87407" lon="6.77366">
        <ele>1089.4</ele>
        <time>2025-07-15T14:27:26Z</time>
      </trkpt>
      <trkpt lat="43.87405" lon="6.77358">
        <ele>1089.4</ele>
        <time>2025-07-15T14:27:27Z</time>
      </trkpt>
      <trkpt lat="43.87399" lon="6.77343">
        <ele>1089.4</ele>
        <time>2025-07-15T14:27:29Z</time>
      </trkpt>
      <trkpt lat="43.87387" lon="6.77319">
        <ele>1089.4</ele>
        <time>2025-07-15T14:27:32Z</time>
      </trkpt>
      <trkpt lat="43.87377" lon="6.77295">
        <ele>1089.2</ele>
        <time>2025-07-15T14:27:35Z</time>
      </trkpt>
      <trkpt lat="43.8737" lon="6.7726">
        <ele>1088.8</ele>
        <time>2025-07-15T14:27:39Z</time>
      </trkpt>
      <trkpt lat="43.87369" lon="6.7725">
        <ele>1088.6</ele>
        <time>2025-07-15T14:27:40Z</time>
      </trkpt>
      <trkpt lat="43.87369" lon="6.77223">
        <ele>1088.6</ele>
        <time>2025-07-15T14:27:43Z</time>
      </trkpt>
      <trkpt lat="43.87369" lon="6.77169">
        <ele>1088.4</ele>
        <time>2025-07-15T14:27:49Z</time>
      </trkpt>
      <trkpt lat="43.87368" lon="6.77142">
        <ele>1088.2</ele>
        <time>2025-07-15T14:27:52Z</time>
      </trkpt>
      <trkpt lat="43.87365" lon="6.77105">
        <ele>1088</ele>
        <time>2025-07-15T14:27:56Z</time>
      </trkpt>
      <trkpt lat="43.87352" lon="6.77064">
        <ele>1087.6</ele>
        <time>2025-07-15T14:28:01Z</time>
      </trkpt>
      <trkpt lat="43.87349" lon="6.77054">
        <ele>1087.6</ele>
        <time>2025-07-15T14:28:02Z</time>
      </trkpt>
      <trkpt lat="43.87346" lon="6.77048">
        <ele>1087.6</ele>
        <time>2025-07-15T14:28:03Z</time>
      </trkpt>
      <trkpt lat="43.87343" lon="6.7704">
        <ele>1087.6</ele>
        <time>2025-07-15T14:28:04Z</time>
      </trkpt>
      <trkpt lat="43.87341" lon="6.77032">
        <ele>1087.6</ele>
        <time>2025-07-15T14:28:05Z</time>
      </trkpt>
      <trkpt lat="43.87338" lon="6.77022">
        <ele>1087.4</ele>
        <time>2025-07-15T14:28:06Z</time>
      </trkpt>
      <trkpt lat="43.87324" lon="6.76978">
        <ele>1087</ele>
        <time>2025-07-15T14:28:12Z</time>
      </trkpt>
      <trkpt lat="43.87317" lon="6.76954">
        <ele>1086.6</ele>
        <time>2025-07-15T14:28:15Z</time>
      </trkpt>
      <trkpt lat="43.8731" lon="6.76921">
        <ele>1086.2</ele>
        <time>2025-07-15T14:28:19Z</time>
      </trkpt>
      <trkpt lat="43.873" lon="6.76865">
        <ele>1085.6</ele>
        <time>2025-07-15T14:28:26Z</time>
      </trkpt>
      <trkpt lat="43.87296" lon="6.7682">
        <ele>1085.4</ele>
        <time>2025-07-15T14:28:31Z</time>
      </trkpt>
      <trkpt lat="43.87295" lon="6.76811">
        <ele>1085.4</ele>
        <time>2025-07-15T14:28:32Z</time>
      </trkpt>
      <trkpt lat="43.87292" lon="6.76803">
        <ele>1085.4</ele>
        <time>2025-07-15T14:28:33Z</time>
      </trkpt>
      <trkpt lat="43.87284" lon="6.76787">
        <ele>1085.4</ele>
        <time>2025-07-15T14:28:35Z</time>
      </trkpt>
      <trkpt lat="43.8728" lon="6.76781">
        <ele>1085.4</ele>
        <time>2025-07-15T14:28:36Z</time>
      </trkpt>
      <trkpt lat="43.87266" lon="6.76762">
        <ele>1085</ele>
        <time>2025-07-15T14:28:39Z</time>
      </trkpt>
      <trkpt lat="43.87262" lon="6.76755">
        <ele>1085</ele>
        <time>2025-07-15T14:28:40Z</time>
      </trkpt>
      <trkpt lat="43.87258" lon="6.76748">
        <ele>1085</ele>
        <time>2025-07-15T14:28:41Z</time>
      </trkpt>
      <trkpt lat="43.87255" lon="6.76741">
        <ele>1085</ele>
        <time>2025-07-15T14:28:42Z</time>
      </trkpt>
      <trkpt lat="43.87223" lon="6.76677">
        <ele>1084.2</ele>
        <time>2025-07-15T14:28:51Z</time>
      </trkpt>
      <trkpt lat="43.8722" lon="6.76669">
        <ele>1084</ele>
        <time>2025-07-15T14:28:52Z</time>
      </trkpt>
      <trkpt lat="43.87205" lon="6.76629">
        <ele>1083.8</ele>
        <time>2025-07-15T14:28:57Z</time>
      </trkpt>
      <trkpt lat="43.87176" lon="6.76571">
        <ele>1083.8</ele>
        <time>2025-07-15T14:29:05Z</time>
      </trkpt>
      <trkpt lat="43.87172" lon="6.76564">
        <ele>1083.8</ele>
        <time>2025-07-15T14:29:06Z</time>
      </trkpt>
      <trkpt lat="43.87157" lon="6.76546">
        <ele>1083.8</ele>
        <time>2025-07-15T14:29:09Z</time>
      </trkpt>
      <trkpt lat="43.87145" lon="6.76538">
        <ele>1083.8</ele>
        <time>2025-07-15T14:29:11Z</time>
      </trkpt>
      <trkpt lat="43.87128" lon="6.76523">
        <ele>1084</ele>
        <time>2025-07-15T14:29:14Z</time>
      </trkpt>
      <trkpt lat="43.87118" lon="6.7651">
        <ele>1084</ele>
        <time>2025-07-15T14:29:16Z</time>
      </trkpt>
      <trkpt lat="43.87113" lon="6.76501">
        <ele>1084</ele>
        <time>2025-07-15T14:29:17Z</time>
      </trkpt>
      <trkpt lat="43.87106" lon="6.76487">
        <ele>1084</ele>
        <time>2025-07-15T14:29:19Z</time>
      </trkpt>
      <trkpt lat="43.87096" lon="6.76463">
        <ele>1083.8</ele>
        <time>2025-07-15T14:29:22Z</time>
      </trkpt>
      <trkpt lat="43.87092" lon="6.76455">
        <ele>1083.8</ele>
        <time>2025-07-15T14:29:23Z</time>
      </trkpt>
      <trkpt lat="43.87082" lon="6.76441">
        <ele>1083.4</ele>
        <time>2025-07-15T14:29:25Z</time>
      </trkpt>
      <trkpt lat="43.8707" lon="6.76433">
        <ele>1083.4</ele>
        <time>2025-07-15T14:29:27Z</time>
      </trkpt>
      <trkpt lat="43.87057" lon="6.76426">
        <ele>1083</ele>
        <time>2025-07-15T14:29:29Z</time>
      </trkpt>
      <trkpt lat="43.87044" lon="6.76418">
        <ele>1083</ele>
        <time>2025-07-15T14:29:31Z</time>
      </trkpt>
      <trkpt lat="43.87033" lon="6.76408">
        <ele>1082.8</ele>
        <time>2025-07-15T14:29:33Z</time>
      </trkpt>
      <trkpt lat="43.87027" lon="6.76402">
        <ele>1082.8</ele>
        <time>2025-07-15T14:29:34Z</time>
      </trkpt>
      <trkpt lat="43.87" lon="6.76358">
        <ele>1082</ele>
        <time>2025-07-15T14:29:40Z</time>
      </trkpt>
      <trkpt lat="43.86989" lon="6.76345">
        <ele>1081.8</ele>
        <time>2025-07-15T14:29:42Z</time>
      </trkpt>
      <trkpt lat="43.86976" lon="6.76336">
        <ele>1081.8</ele>
        <time>2025-07-15T14:29:44Z</time>
      </trkpt>
      <trkpt lat="43.86962" lon="6.76333">
        <ele>1081.8</ele>
        <time>2025-07-15T14:29:46Z</time>
      </trkpt>
      <trkpt lat="43.86941" lon="6.7633">
        <ele>1082</ele>
        <time>2025-07-15T14:29:49Z</time>
      </trkpt>
      <trkpt lat="43.86928" lon="6.76321">
        <ele>1082</ele>
        <time>2025-07-15T14:29:51Z</time>
      </trkpt>
      <trkpt lat="43.86923" lon="6.76315">
        <ele>1082.2</ele>
        <time>2025-07-15T14:29:52Z</time>
      </trkpt>
      <trkpt lat="43.86919" lon="6.76308">
        <ele>1082.2</ele>
        <time>2025-07-15T14:29:53Z</time>
      </trkpt>
      <trkpt lat="43.86913" lon="6.76292">
        <ele>1082.4</ele>
        <time>2025-07-15T14:29:55Z</time>
      </trkpt>
      <trkpt lat="43.8691" lon="6.76284">
        <ele>1082.4</ele>
        <time>2025-07-15T14:29:56Z</time>
      </trkpt>
      <trkpt lat="43.86906" lon="6.76268">
        <ele>1082.4</ele>
        <time>2025-07-15T14:29:58Z</time>
      </trkpt>
      <trkpt lat="43.86898" lon="6.76233">
        <ele>1081.8</ele>
        <time>2025-07-15T14:30:02Z</time>
      </trkpt>
      <trkpt lat="43.86893" lon="6.76217">
        <ele>1081.4</ele>
        <time>2025-07-15T14:30:04Z</time>
      </trkpt>
      <trkpt lat="43.86883" lon="6.76184">
        <ele>1080.4</ele>
        <time>2025-07-15T14:30:08Z</time>
      </trkpt>
      <trkpt lat="43.86879" lon="6.76177">
        <ele>1080.4</ele>
        <time>2025-07-15T14:30:09Z</time>
      </trkpt>
      <trkpt lat="43.86874" lon="6.76172">
        <ele>1080.4</ele>
        <time>2025-07-15T14:30:10Z</time>
      </trkpt>
      <trkpt lat="43.86862" lon="6.76166">
        <ele>1080.4</ele>
        <time>2025-07-15T14:30:12Z</time>
      </trkpt>
      <trkpt lat="43.86849" lon="6.76166">
        <ele>1080.4</ele>
        <time>2025-07-15T14:30:14Z</time>
      </trkpt>
      <trkpt lat="43.86836" lon="6.76169">
        <ele>1080.6</ele>
        <time>2025-07-15T14:30:16Z</time>
      </trkpt>
      <trkpt lat="43.86823" lon="6.76169">
        <ele>1080.8</ele>
        <time>2025-07-15T14:30:18Z</time>
      </trkpt>
      <trkpt lat="43.86809" lon="6.76163">
        <ele>1081</ele>
        <time>2025-07-15T14:30:20Z</time>
      </trkpt>
      <trkpt lat="43.86798" lon="6.76157">
        <ele>1081</ele>
        <time>2025-07-15T14:30:22Z</time>
      </trkpt>
      <trkpt lat="43.86782" lon="6.76141">
        <ele>1081</ele>
        <time>2025-07-15T14:30:25Z</time>
      </trkpt>
      <trkpt lat="43.86757" lon="6.761">
        <ele>1080.4</ele>
        <time>2025-07-15T14:30:31Z</time>
      </trkpt>
      <trkpt lat="43.86736" lon="6.76051">
        <ele>1079.8</ele>
        <time>2025-07-15T14:30:38Z</time>
      </trkpt>
      <trkpt lat="43.86711" lon="6.76">
        <ele>1079.4</ele>
        <time>2025-07-15T14:30:45Z</time>
      </trkpt>
      <trkpt lat="43.86692" lon="6.75976">
        <ele>1079.4</ele>
        <time>2025-07-15T14:30:49Z</time>
      </trkpt>
      <trkpt lat="43.86688" lon="6.7597">
        <ele>1079.4</ele>
        <time>2025-07-15T14:30:50Z</time>
      </trkpt>
      <trkpt lat="43.86662" lon="6.75938">
        <ele>1079</ele>
        <time>2025-07-15T14:30:55Z</time>
      </trkpt>
      <trkpt lat="43.86618" lon="6.75885">
        <ele>1079</ele>
        <time>2025-07-15T14:31:04Z</time>
      </trkpt>
      <trkpt lat="43.86612" lon="6.7588">
        <ele>1079</ele>
        <time>2025-07-15T14:31:05Z</time>
      </trkpt>
      <trkpt lat="43.86601" lon="6.75873">
        <ele>1079.2</ele>
        <time>2025-07-15T14:31:07Z</time>
      </trkpt>
      <trkpt lat="43.86595" lon="6.75871">
        <ele>1079.2</ele>
        <time>2025-07-15T14:31:08Z</time>
      </trkpt>
      <trkpt lat="43.86588" lon="6.75871">
        <ele>1079.2</ele>
        <time>2025-07-15T14:31:09Z</time>
      </trkpt>
      <trkpt lat="43.86577" lon="6.7587">
        <ele>1079.2</ele>
        <time>2025-07-15T14:31:11Z</time>
      </trkpt>
      <trkpt lat="43.86572" lon="6.75872">
        <ele>1079.2</ele>
        <time>2025-07-15T14:31:12Z</time>
      </trkpt>
      <trkpt lat="43.86552" lon="6.75876">
        <ele>1079</ele>
        <time>2025-07-15T14:31:16Z</time>
      </trkpt>
      <trkpt lat="43.86541" lon="6.75876">
        <ele>1078.8</ele>
        <time>2025-07-15T14:31:18Z</time>
      </trkpt>
      <trkpt lat="43.86515" lon="6.7588">
        <ele>1079</ele>
        <time>2025-07-15T14:31:23Z</time>
      </trkpt>
      <trkpt lat="43.86511" lon="6.75879">
        <ele>1079</ele>
        <time>2025-07-15T14:31:24Z</time>
      </trkpt>
      <trkpt lat="43.86508" lon="6.75877">
        <ele>1079</ele>
        <time>2025-07-15T14:31:25Z</time>
      </trkpt>
      <trkpt lat="43.86504" lon="6.75871">
        <ele>1079.4</ele>
        <time>2025-07-15T14:31:27Z</time>
      </trkpt>
      <trkpt lat="43.86492" lon="6.75855">
        <ele>1080</ele>
        <time>2025-07-15T14:31:32Z</time>
      </trkpt>
      <trkpt lat="43.86485" lon="6.75844">
        <ele>1080.2</ele>
        <time>2025-07-15T14:31:35Z</time>
      </trkpt>
      <trkpt lat="43.86479" lon="6.75833">
        <ele>1080.2</ele>
        <time>2025-07-15T14:31:38Z</time>
      </trkpt>
      <trkpt lat="43.86474" lon="6.75826">
        <ele>1080</ele>
        <time>2025-07-15T14:31:42Z</time>
      </trkpt>
      <trkpt lat="43.86474" lon="6.75825">
        <ele>1080</ele>
        <time>2025-07-15T14:31:45Z</time>
      </trkpt>
      <trkpt lat="43.86469" lon="6.75818">
        <ele>1079.2</ele>
        <time>2025-07-15T14:34:28Z</time>
      </trkpt>
      <trkpt lat="43.86466" lon="6.75816">
        <ele>1079.4</ele>
        <time>2025-07-15T14:34:29Z</time>
      </trkpt>
      <trkpt lat="43.86459" lon="6.75802">
        <ele>1079.6</ele>
        <time>2025-07-15T14:34:34Z</time>
      </trkpt>
      <trkpt lat="43.86452" lon="6.75789">
        <ele>1080</ele>
        <time>2025-07-15T14:34:39Z</time>
      </trkpt>
      <trkpt lat="43.86448" lon="6.75785">
        <ele>1080.2</ele>
        <time>2025-07-15T14:34:41Z</time>
      </trkpt>
      <trkpt lat="43.86439" lon="6.75768">
        <ele>1081.2</ele>
        <time>2025-07-15T14:34:48Z</time>
      </trkpt>
      <trkpt lat="43.86431" lon="6.75754">
        <ele>1082.2</ele>
        <time>2025-07-15T14:34:53Z</time>
      </trkpt>
      <trkpt lat="43.86428" lon="6.75749">
        <ele>1082.6</ele>
        <time>2025-07-15T14:34:55Z</time>
      </trkpt>
      <trkpt lat="43.86428" lon="6.75746">
        <ele>1082.8</ele>
        <time>2025-07-15T14:34:56Z</time>
      </trkpt>
      <trkpt lat="43.86428" lon="6.75739">
        <ele>1083.6</ele>
        <time>2025-07-15T14:34:58Z</time>
      </trkpt>
      <trkpt lat="43.86429" lon="6.75729">
        <ele>1084.6</ele>
        <time>2025-07-15T14:35:02Z</time>
      </trkpt>
      <trkpt lat="43.8643" lon="6.75723">
        <ele>1085</ele>
        <time>2025-07-15T14:35:06Z</time>
      </trkpt>
      <trkpt lat="43.8643" lon="6.75722">
        <ele>1085.2</ele>
        <time>2025-07-15T14:35:07Z</time>
      </trkpt>
      <trkpt lat="43.8643" lon="6.75722">
        <ele>1085.2</ele>
        <time>2025-07-15T14:35:08Z</time>
      </trkpt>
      <trkpt lat="43.86436" lon="6.7572">
        <ele>1085.6</ele>
        <time>2025-07-15T14:36:25Z</time>
      </trkpt>
      <trkpt lat="43.86443" lon="6.7572">
        <ele>1085.8</ele>
        <time>2025-07-15T14:36:28Z</time>
      </trkpt>
      <trkpt lat="43.86449" lon="6.75719">
        <ele>1086</ele>
        <time>2025-07-15T14:36:30Z</time>
      </trkpt>
      <trkpt lat="43.86453" lon="6.75714">
        <ele>1086</ele>
        <time>2025-07-15T14:36:32Z</time>
      </trkpt>
      <trkpt lat="43.86457" lon="6.75694">
        <ele>1086</ele>
        <time>2025-07-15T14:36:37Z</time>
      </trkpt>
      <trkpt lat="43.8646" lon="6.75684">
        <ele>1085.4</ele>
        <time>2025-07-15T14:36:42Z</time>
      </trkpt>
      <trkpt lat="43.86461" lon="6.75683">
        <ele>1084.4</ele>
        <time>2025-07-15T14:36:46Z</time>
      </trkpt>
      <trkpt lat="43.86462" lon="6.75676">
        <ele>1083.4</ele>
        <time>2025-07-15T14:36:59Z</time>
      </trkpt>
      <trkpt lat="43.86466" lon="6.75669">
        <ele>1083.4</ele>
        <time>2025-07-15T14:37:01Z</time>
      </trkpt>
      <trkpt lat="43.86476" lon="6.75643">
        <ele>1083.6</ele>
        <time>2025-07-15T14:37:07Z</time>
      </trkpt>
      <trkpt lat="43.86487" lon="6.75607">
        <ele>1083.8</ele>
        <time>2025-07-15T14:37:14Z</time>
      </trkpt>
      <trkpt lat="43.8649" lon="6.7559">
        <ele>1083.8</ele>
        <time>2025-07-15T14:37:17Z</time>
      </trkpt>
      <trkpt lat="43.8649" lon="6.75578">
        <ele>1083.6</ele>
        <time>2025-07-15T14:37:19Z</time>
      </trkpt>
      <trkpt lat="43.8649" lon="6.75573">
        <ele>1083.6</ele>
        <time>2025-07-15T14:37:20Z</time>
      </trkpt>
      <trkpt lat="43.86479" lon="6.75528">
        <ele>1082.8</ele>
        <time>2025-07-15T14:37:28Z</time>
      </trkpt>
      <trkpt lat="43.86472" lon="6.75505">
        <ele>1082.2</ele>
        <time>2025-07-15T14:37:32Z</time>
      </trkpt>
      <trkpt lat="43.86468" lon="6.75485">
        <ele>1082.2</ele>
        <time>2025-07-15T14:37:35Z</time>
      </trkpt>
      <trkpt lat="43.86467" lon="6.75458">
        <ele>1082.2</ele>
        <time>2025-07-15T14:37:39Z</time>
      </trkpt>
      <trkpt lat="43.86467" lon="6.75444">
        <ele>1082</ele>
        <time>2025-07-15T14:37:41Z</time>
      </trkpt>
      <trkpt lat="43.86469" lon="6.75395">
        <ele>1081.8</ele>
        <time>2025-07-15T14:37:48Z</time>
      </trkpt>
      <trkpt lat="43.86468" lon="6.75388">
        <ele>1081.8</ele>
        <time>2025-07-15T14:37:49Z</time>
      </trkpt>
      <trkpt lat="43.86455" lon="6.75332">
        <ele>1081.8</ele>
        <time>2025-07-15T14:37:57Z</time>
      </trkpt>
      <trkpt lat="43.86436" lon="6.75263">
        <ele>1081.6</ele>
        <time>2025-07-15T14:38:07Z</time>
      </trkpt>
      <trkpt lat="43.86417" lon="6.75211">
        <ele>1081.8</ele>
        <time>2025-07-15T14:38:15Z</time>
      </trkpt>
      <trkpt lat="43.86401" lon="6.75181">
        <ele>1081.8</ele>
        <time>2025-07-15T14:38:20Z</time>
      </trkpt>
      <trkpt lat="43.86392" lon="6.75171">
        <ele>1081.8</ele>
        <time>2025-07-15T14:38:22Z</time>
      </trkpt>
      <trkpt lat="43.86366" lon="6.75141">
        <ele>1081.8</ele>
        <time>2025-07-15T14:38:28Z</time>
      </trkpt>
      <trkpt lat="43.86362" lon="6.75135">
        <ele>1081.6</ele>
        <time>2025-07-15T14:38:29Z</time>
      </trkpt>
      <trkpt lat="43.86356" lon="6.75122">
        <ele>1081.6</ele>
        <time>2025-07-15T14:38:31Z</time>
      </trkpt>
      <trkpt lat="43.8635" lon="6.75101">
        <ele>1081.6</ele>
        <time>2025-07-15T14:38:34Z</time>
      </trkpt>
      <trkpt lat="43.86338" lon="6.75045">
        <ele>1082</ele>
        <time>2025-07-15T14:38:42Z</time>
      </trkpt>
      <trkpt lat="43.86332" lon="6.75002">
        <ele>1082.2</ele>
        <time>2025-07-15T14:38:48Z</time>
      </trkpt>
      <trkpt lat="43.86332" lon="6.74979">
        <ele>1081.8</ele>
        <time>2025-07-15T14:38:51Z</time>
      </trkpt>
      <trkpt lat="43.86336" lon="6.74957">
        <ele>1081.4</ele>
        <time>2025-07-15T14:38:54Z</time>
      </trkpt>
      <trkpt lat="43.86358" lon="6.74881">
        <ele>1081</ele>
        <time>2025-07-15T14:39:05Z</time>
      </trkpt>
      <trkpt lat="43.86362" lon="6.74867">
        <ele>1080.8</ele>
        <time>2025-07-15T14:39:07Z</time>
      </trkpt>
      <trkpt lat="43.86366" lon="6.74837">
        <ele>1080.4</ele>
        <time>2025-07-15T14:39:11Z</time>
      </trkpt>
      <trkpt lat="43.86369" lon="6.74823">
        <ele>1080.2</ele>
        <time>2025-07-15T14:39:13Z</time>
      </trkpt>
      <trkpt lat="43.86375" lon="6.74809">
        <ele>1080.2</ele>
        <time>2025-07-15T14:39:15Z</time>
      </trkpt>
      <trkpt lat="43.86378" lon="6.74802">
        <ele>1080</ele>
        <time>2025-07-15T14:39:16Z</time>
      </trkpt>
      <trkpt lat="43.86385" lon="6.74789">
        <ele>1079.8</ele>
        <time>2025-07-15T14:39:18Z</time>
      </trkpt>
      <trkpt lat="43.864" lon="6.74763">
        <ele>1079.4</ele>
        <time>2025-07-15T14:39:22Z</time>
      </trkpt>
      <trkpt lat="43.864" lon="6.74763">
        <ele>1079.4</ele>
        <time>2025-07-15T14:39:23Z</time>
      </trkpt>
      <trkpt lat="43.86414" lon="6.74727">
        <ele>1078.8</ele>
        <time>2025-07-15T14:39:27Z</time>
      </trkpt>
      <trkpt lat="43.86424" lon="6.74698">
        <ele>1078.8</ele>
        <time>2025-07-15T14:39:31Z</time>
      </trkpt>
      <trkpt lat="43.86445" lon="6.74633">
        <ele>1078.2</ele>
        <time>2025-07-15T14:39:40Z</time>
      </trkpt>
      <trkpt lat="43.8645" lon="6.74579">
        <ele>1078.2</ele>
        <time>2025-07-15T14:39:47Z</time>
      </trkpt>
      <trkpt lat="43.86454" lon="6.745">
        <ele>1078.2</ele>
        <time>2025-07-15T14:39:57Z</time>
      </trkpt>
      <trkpt lat="43.86455" lon="6.74493">
        <ele>1078.2</ele>
        <time>2025-07-15T14:39:58Z</time>
      </trkpt>
      <trkpt lat="43.8646" lon="6.74471">
        <ele>1078.2</ele>
        <time>2025-07-15T14:40:01Z</time>
      </trkpt>
      <trkpt lat="43.86466" lon="6.74458">
        <ele>1078.2</ele>
        <time>2025-07-15T14:40:03Z</time>
      </trkpt>
      <trkpt lat="43.86473" lon="6.74445">
        <ele>1078</ele>
        <time>2025-07-15T14:40:05Z</time>
      </trkpt>
      <trkpt lat="43.86474" lon="6.7443">
        <ele>1078</ele>
        <time>2025-07-15T14:40:07Z</time>
      </trkpt>
      <trkpt lat="43.8647" lon="6.74415">
        <ele>1077.8</ele>
        <time>2025-07-15T14:40:09Z</time>
      </trkpt>
      <trkpt lat="43.86465" lon="6.7441">
        <ele>1077.8</ele>
        <time>2025-07-15T14:40:10Z</time>
      </trkpt>
      <trkpt lat="43.86456" lon="6.744">
        <ele>1077.6</ele>
        <time>2025-07-15T14:40:12Z</time>
      </trkpt>
      <trkpt lat="43.86438" lon="6.74382">
        <ele>1077.4</ele>
        <time>2025-07-15T14:40:16Z</time>
      </trkpt>
      <trkpt lat="43.86406" lon="6.74349">
        <ele>1077.4</ele>
        <time>2025-07-15T14:40:23Z</time>
      </trkpt>
      <trkpt lat="43.86402" lon="6.74344">
        <ele>1077.4</ele>
        <time>2025-07-15T14:40:24Z</time>
      </trkpt>
      <trkpt lat="43.86384" lon="6.74306">
        <ele>1077.4</ele>
        <time>2025-07-15T14:40:30Z</time>
      </trkpt>
      <trkpt lat="43.86371" lon="6.74273">
        <ele>1077.4</ele>
        <time>2025-07-15T14:40:35Z</time>
      </trkpt>
      <trkpt lat="43.86368" lon="6.74267">
        <ele>1077.4</ele>
        <time>2025-07-15T14:40:36Z</time>
      </trkpt>
      <trkpt lat="43.86357" lon="6.74251">
        <ele>1077.2</ele>
        <time>2025-07-15T14:40:39Z</time>
      </trkpt>
      <trkpt lat="43.86348" lon="6.74243">
        <ele>1077.2</ele>
        <time>2025-07-15T14:40:41Z</time>
      </trkpt>
      <trkpt lat="43.86309" lon="6.74217">
        <ele>1076.8</ele>
        <time>2025-07-15T14:40:49Z</time>
      </trkpt>
      <trkpt lat="43.86295" lon="6.74205">
        <ele>1076.6</ele>
        <time>2025-07-15T14:40:52Z</time>
      </trkpt>
      <trkpt lat="43.86287" lon="6.74194">
        <ele>1076.6</ele>
        <time>2025-07-15T14:40:54Z</time>
      </trkpt>
      <trkpt lat="43.86284" lon="6.74188">
        <ele>1076.6</ele>
        <time>2025-07-15T14:40:55Z</time>
      </trkpt>
      <trkpt lat="43.86281" lon="6.74181">
        <ele>1076.6</ele>
        <time>2025-07-15T14:40:56Z</time>
      </trkpt>
      <trkpt lat="43.86277" lon="6.74167">
        <ele>1076.8</ele>
        <time>2025-07-15T14:40:58Z</time>
      </trkpt>
      <trkpt lat="43.86275" lon="6.74159">
        <ele>1076.8</ele>
        <time>2025-07-15T14:40:59Z</time>
      </trkpt>
      <trkpt lat="43.86274" lon="6.74136">
        <ele>1076.8</ele>
        <time>2025-07-15T14:41:02Z</time>
      </trkpt>
      <trkpt lat="43.86274" lon="6.74111">
        <ele>1077</ele>
        <time>2025-07-15T14:41:06Z</time>
      </trkpt>
      <trkpt lat="43.86272" lon="6.74035">
        <ele>1076.8</ele>
        <time>2025-07-15T14:41:15Z</time>
      </trkpt>
      <trkpt lat="43.86272" lon="6.74028">
        <ele>1076.6</ele>
        <time>2025-07-15T14:41:17Z</time>
      </trkpt>
      <trkpt lat="43.86271" lon="6.74004">
        <ele>1076.4</ele>
        <time>2025-07-15T14:41:19Z</time>
      </trkpt>
      <trkpt lat="43.8627" lon="6.73972">
        <ele>1076.2</ele>
        <time>2025-07-15T14:41:24Z</time>
      </trkpt>
      <trkpt lat="43.86271" lon="6.73955">
        <ele>1076</ele>
        <time>2025-07-15T14:41:25Z</time>
      </trkpt>
      <trkpt lat="43.86275" lon="6.73942">
        <ele>1076</ele>
        <time>2025-07-15T14:41:27Z</time>
      </trkpt>
      <trkpt lat="43.86285" lon="6.73932">
        <ele>1075.8</ele>
        <time>2025-07-15T14:41:29Z</time>
      </trkpt>
      <trkpt lat="43.86292" lon="6.73928">
        <ele>1075.8</ele>
        <time>2025-07-15T14:41:30Z</time>
      </trkpt>
      <trkpt lat="43.86303" lon="6.73923">
        <ele>1075</ele>
        <time>2025-07-15T14:41:32Z</time>
      </trkpt>
      <trkpt lat="43.86315" lon="6.73916">
        <ele>1074.4</ele>
        <time>2025-07-15T14:41:34Z</time>
      </trkpt>
      <trkpt lat="43.86326" lon="6.73904">
        <ele>1073.8</ele>
        <time>2025-07-15T14:41:36Z</time>
      </trkpt>
      <trkpt lat="43.86331" lon="6.73889">
        <ele>1073.4</ele>
        <time>2025-07-15T14:41:38Z</time>
      </trkpt>
      <trkpt lat="43.86331" lon="6.7388">
        <ele>1073</ele>
        <time>2025-07-15T14:41:39Z</time>
      </trkpt>
      <trkpt lat="43.86329" lon="6.73869">
        <ele>1073</ele>
        <time>2025-07-15T14:41:40Z</time>
      </trkpt>
      <trkpt lat="43.86327" lon="6.7386">
        <ele>1072.6</ele>
        <time>2025-07-15T14:41:41Z</time>
      </trkpt>
      <trkpt lat="43.86323" lon="6.73843">
        <ele>1072.4</ele>
        <time>2025-07-15T14:41:43Z</time>
      </trkpt>
      <trkpt lat="43.86304" lon="6.73765">
        <ele>1072.4</ele>
        <time>2025-07-15T14:41:52Z</time>
      </trkpt>
      <trkpt lat="43.86298" lon="6.7374">
        <ele>1072.6</ele>
        <time>2025-07-15T14:41:55Z</time>
      </trkpt>
      <trkpt lat="43.86286" lon="6.73682">
        <ele>1072.6</ele>
        <time>2025-07-15T14:42:02Z</time>
      </trkpt>
      <trkpt lat="43.86286" lon="6.73664">
        <ele>1072.6</ele>
        <time>2025-07-15T14:42:04Z</time>
      </trkpt>
      <trkpt lat="43.86289" lon="6.73656">
        <ele>1072.6</ele>
        <time>2025-07-15T14:42:05Z</time>
      </trkpt>
      <trkpt lat="43.86292" lon="6.73648">
        <ele>1072.6</ele>
        <time>2025-07-15T14:42:06Z</time>
      </trkpt>
      <trkpt lat="43.86303" lon="6.73626">
        <ele>1072.4</ele>
        <time>2025-07-15T14:42:09Z</time>
      </trkpt>
      <trkpt lat="43.86305" lon="6.73611">
        <ele>1072.4</ele>
        <time>2025-07-15T14:42:11Z</time>
      </trkpt>
      <trkpt lat="43.86303" lon="6.73601">
        <ele>1072.4</ele>
        <time>2025-07-15T14:42:12Z</time>
      </trkpt>
      <trkpt lat="43.86299" lon="6.73594">
        <ele>1072.4</ele>
        <time>2025-07-15T14:42:13Z</time>
      </trkpt>
      <trkpt lat="43.86288" lon="6.73584">
        <ele>1072.4</ele>
        <time>2025-07-15T14:42:15Z</time>
      </trkpt>
      <trkpt lat="43.86275" lon="6.73583">
        <ele>1072.2</ele>
        <time>2025-07-15T14:42:17Z</time>
      </trkpt>
      <trkpt lat="43.86262" lon="6.73583">
        <ele>1072.2</ele>
        <time>2025-07-15T14:42:19Z</time>
      </trkpt>
      <trkpt lat="43.86249" lon="6.7358">
        <ele>1072.2</ele>
        <time>2025-07-15T14:42:21Z</time>
      </trkpt>
      <trkpt lat="43.86243" lon="6.73577">
        <ele>1072.4</ele>
        <time>2025-07-15T14:42:23Z</time>
      </trkpt>
      <trkpt lat="43.86231" lon="6.73573">
        <ele>1072.4</ele>
        <time>2025-07-15T14:42:24Z</time>
      </trkpt>
      <trkpt lat="43.86217" lon="6.73575">
        <ele>1072.4</ele>
        <time>2025-07-15T14:42:26Z</time>
      </trkpt>
      <trkpt lat="43.86211" lon="6.7358">
        <ele>1072.4</ele>
        <time>2025-07-15T14:42:28Z</time>
      </trkpt>
      <trkpt lat="43.86197" lon="6.73599">
        <ele>1072.4</ele>
        <time>2025-07-15T14:42:30Z</time>
      </trkpt>
      <trkpt lat="43.86164" lon="6.7366">
        <ele>1072.2</ele>
        <time>2025-07-15T14:42:38Z</time>
      </trkpt>
      <trkpt lat="43.86164" lon="6.7366">
        <ele>1072.2</ele>
        <time>2025-07-15T14:42:39Z</time>
      </trkpt>
      <trkpt lat="43.86139" lon="6.73712">
        <ele>1072</ele>
        <time>2025-07-15T14:42:44Z</time>
      </trkpt>
      <trkpt lat="43.86136" lon="6.73722">
        <ele>1071.8</ele>
        <time>2025-07-15T14:42:46Z</time>
      </trkpt>
      <trkpt lat="43.86127" lon="6.73739">
        <ele>1071.8</ele>
        <time>2025-07-15T14:42:47Z</time>
      </trkpt>
      <trkpt lat="43.86127" lon="6.73739">
        <ele>1071.6</ele>
        <time>2025-07-15T14:42:48Z</time>
      </trkpt>
      <trkpt lat="43.86115" lon="6.73747">
        <ele>1071.2</ele>
        <time>2025-07-15T14:42:49Z</time>
      </trkpt>
      <trkpt lat="43.86105" lon="6.73748">
        <ele>1071.2</ele>
        <time>2025-07-15T14:42:50Z</time>
      </trkpt>
      <trkpt lat="43.86098" lon="6.73745">
        <ele>1071</ele>
        <time>2025-07-15T14:42:51Z</time>
      </trkpt>
      <trkpt lat="43.86075" lon="6.73733">
        <ele>1070.6</ele>
        <time>2025-07-15T14:42:54Z</time>
      </trkpt>
      <trkpt lat="43.86068" lon="6.73727">
        <ele>1070.4</ele>
        <time>2025-07-15T14:42:55Z</time>
      </trkpt>
      <trkpt lat="43.86062" lon="6.73718">
        <ele>1070.2</ele>
        <time>2025-07-15T14:42:56Z</time>
      </trkpt>
      <trkpt lat="43.86055" lon="6.73698">
        <ele>1070</ele>
        <time>2025-07-15T14:42:58Z</time>
      </trkpt>
      <trkpt lat="43.86049" lon="6.7365">
        <ele>1069</ele>
        <time>2025-07-15T14:43:02Z</time>
      </trkpt>
      <trkpt lat="43.86047" lon="6.7364">
        <ele>1068.6</ele>
        <time>2025-07-15T14:43:04Z</time>
      </trkpt>
      <trkpt lat="43.86042" lon="6.73617">
        <ele>1068.4</ele>
        <time>2025-07-15T14:43:05Z</time>
      </trkpt>
      <trkpt lat="43.86038" lon="6.73591">
        <ele>1067.6</ele>
        <time>2025-07-15T14:43:07Z</time>
      </trkpt>
      <trkpt lat="43.86038" lon="6.73569">
        <ele>1067</ele>
        <time>2025-07-15T14:43:09Z</time>
      </trkpt>
      <trkpt lat="43.8604" lon="6.73555">
        <ele>1066.6</ele>
        <time>2025-07-15T14:43:10Z</time>
      </trkpt>
      <trkpt lat="43.8604" lon="6.73555">
        <ele>1066.2</ele>
        <time>2025-07-15T14:43:11Z</time>
      </trkpt>
      <trkpt lat="43.86046" lon="6.73532">
        <ele>1065.8</ele>
        <time>2025-07-15T14:43:12Z</time>
      </trkpt>
      <trkpt lat="43.86053" lon="6.7351">
        <ele>1065.2</ele>
        <time>2025-07-15T14:43:14Z</time>
      </trkpt>
      <trkpt lat="43.86061" lon="6.73489">
        <ele>1064.8</ele>
        <time>2025-07-15T14:43:16Z</time>
      </trkpt>
      <trkpt lat="43.86066" lon="6.73465">
        <ele>1064.4</ele>
        <time>2025-07-15T14:43:18Z</time>
      </trkpt>
      <trkpt lat="43.86065" lon="6.73453">
        <ele>1064</ele>
        <time>2025-07-15T14:43:19Z</time>
      </trkpt>
      <trkpt lat="43.86062" lon="6.73442">
        <ele>1063.6</ele>
        <time>2025-07-15T14:43:20Z</time>
      </trkpt>
      <trkpt lat="43.8606" lon="6.7343">
        <ele>1063</ele>
        <time>2025-07-15T14:43:21Z</time>
      </trkpt>
      <trkpt lat="43.86058" lon="6.73419">
        <ele>1062.8</ele>
        <time>2025-07-15T14:43:22Z</time>
      </trkpt>
      <trkpt lat="43.86058" lon="6.73381">
        <ele>1062.2</ele>
        <time>2025-07-15T14:43:25Z</time>
      </trkpt>
      <trkpt lat="43.86057" lon="6.73356">
        <ele>1061.6</ele>
        <time>2025-07-15T14:43:27Z</time>
      </trkpt>
      <trkpt lat="43.86052" lon="6.73319">
        <ele>1061</ele>
        <time>2025-07-15T14:43:30Z</time>
      </trkpt>
      <trkpt lat="43.86048" lon="6.73296">
        <ele>1060.2</ele>
        <time>2025-07-15T14:43:32Z</time>
      </trkpt>
      <trkpt lat="43.86035" lon="6.73237">
        <ele>1059</ele>
        <time>2025-07-15T14:43:37Z</time>
      </trkpt>
      <trkpt lat="43.86033" lon="6.73225">
        <ele>1059</ele>
        <time>2025-07-15T14:43:38Z</time>
      </trkpt>
      <trkpt lat="43.8603" lon="6.73213">
        <ele>1058.6</ele>
        <time>2025-07-15T14:43:39Z</time>
      </trkpt>
      <trkpt lat="43.86033" lon="6.7319">
        <ele>1057.8</ele>
        <time>2025-07-15T14:43:41Z</time>
      </trkpt>
      <trkpt lat="43.86041" lon="6.73169">
        <ele>1057.2</ele>
        <time>2025-07-15T14:43:43Z</time>
      </trkpt>
      <trkpt lat="43.8605" lon="6.73149">
        <ele>1056.6</ele>
        <time>2025-07-15T14:43:45Z</time>
      </trkpt>
      <trkpt lat="43.86068" lon="6.73106">
        <ele>1055.6</ele>
        <time>2025-07-15T14:43:49Z</time>
      </trkpt>
      <trkpt lat="43.86073" lon="6.73082">
        <ele>1054.6</ele>
        <time>2025-07-15T14:43:51Z</time>
      </trkpt>
      <trkpt lat="43.86075" lon="6.7307">
        <ele>1054.6</ele>
        <time>2025-07-15T14:43:52Z</time>
      </trkpt>
      <trkpt lat="43.86079" lon="6.73021">
        <ele>1053.2</ele>
        <time>2025-07-15T14:43:56Z</time>
      </trkpt>
      <trkpt lat="43.86081" lon="6.73008">
        <ele>1052.6</ele>
        <time>2025-07-15T14:43:57Z</time>
      </trkpt>
      <trkpt lat="43.86084" lon="6.72984">
        <ele>1052.2</ele>
        <time>2025-07-15T14:43:59Z</time>
      </trkpt>
      <trkpt lat="43.8609" lon="6.72948">
        <ele>1051</ele>
        <time>2025-07-15T14:44:02Z</time>
      </trkpt>
      <trkpt lat="43.86096" lon="6.72912">
        <ele>1050.4</ele>
        <time>2025-07-15T14:44:05Z</time>
      </trkpt>
      <trkpt lat="43.861" lon="6.72888">
        <ele>1049.8</ele>
        <time>2025-07-15T14:44:07Z</time>
      </trkpt>
      <trkpt lat="43.86102" lon="6.72865">
        <ele>1049</ele>
        <time>2025-07-15T14:44:09Z</time>
      </trkpt>
      <trkpt lat="43.86101" lon="6.72854">
        <ele>1048.8</ele>
        <time>2025-07-15T14:44:10Z</time>
      </trkpt>
      <trkpt lat="43.861" lon="6.72843">
        <ele>1048.6</ele>
        <time>2025-07-15T14:44:11Z</time>
      </trkpt>
      <trkpt lat="43.86096" lon="6.72832">
        <ele>1048.2</ele>
        <time>2025-07-15T14:44:13Z</time>
      </trkpt>
      <trkpt lat="43.86084" lon="6.72816">
        <ele>1048</ele>
        <time>2025-07-15T14:44:14Z</time>
      </trkpt>
      <trkpt lat="43.86077" lon="6.72812">
        <ele>1047.6</ele>
        <time>2025-07-15T14:44:15Z</time>
      </trkpt>
      <trkpt lat="43.86069" lon="6.72811">
        <ele>1047</ele>
        <time>2025-07-15T14:44:16Z</time>
      </trkpt>
      <trkpt lat="43.86052" lon="6.72814">
        <ele>1046.4</ele>
        <time>2025-07-15T14:44:18Z</time>
      </trkpt>
      <trkpt lat="43.86036" lon="6.7282">
        <ele>1046</ele>
        <time>2025-07-15T14:44:20Z</time>
      </trkpt>
      <trkpt lat="43.85994" lon="6.72832">
        <ele>1045</ele>
        <time>2025-07-15T14:44:25Z</time>
      </trkpt>
      <trkpt lat="43.85985" lon="6.72833">
        <ele>1045</ele>
        <time>2025-07-15T14:44:26Z</time>
      </trkpt>
      <trkpt lat="43.85977" lon="6.7283">
        <ele>1044.6</ele>
        <time>2025-07-15T14:44:27Z</time>
      </trkpt>
      <trkpt lat="43.85971" lon="6.72825">
        <ele>1044.4</ele>
        <time>2025-07-15T14:44:28Z</time>
      </trkpt>
      <trkpt lat="43.85968" lon="6.72816">
        <ele>1044.2</ele>
        <time>2025-07-15T14:44:29Z</time>
      </trkpt>
      <trkpt lat="43.85975" lon="6.72798">
        <ele>1043.8</ele>
        <time>2025-07-15T14:44:31Z</time>
      </trkpt>
      <trkpt lat="43.85988" lon="6.72785">
        <ele>1043.2</ele>
        <time>2025-07-15T14:44:33Z</time>
      </trkpt>
      <trkpt lat="43.85996" lon="6.72781">
        <ele>1043</ele>
        <time>2025-07-15T14:44:34Z</time>
      </trkpt>
      <trkpt lat="43.86012" lon="6.72771">
        <ele>1042.2</ele>
        <time>2025-07-15T14:44:36Z</time>
      </trkpt>
      <trkpt lat="43.86038" lon="6.72757">
        <ele>1041.2</ele>
        <time>2025-07-15T14:44:39Z</time>
      </trkpt>
      <trkpt lat="43.86047" lon="6.72751">
        <ele>1040.6</ele>
        <time>2025-07-15T14:44:40Z</time>
      </trkpt>
      <trkpt lat="43.86056" lon="6.72746">
        <ele>1039.8</ele>
        <time>2025-07-15T14:44:41Z</time>
      </trkpt>
      <trkpt lat="43.86075" lon="6.72737">
        <ele>1038.6</ele>
        <time>2025-07-15T14:44:43Z</time>
      </trkpt>
      <trkpt lat="43.86084" lon="6.7273">
        <ele>1038.2</ele>
        <time>2025-07-15T14:44:44Z</time>
      </trkpt>
      <trkpt lat="43.86093" lon="6.72723">
        <ele>1037.2</ele>
        <time>2025-07-15T14:44:45Z</time>
      </trkpt>
      <trkpt lat="43.86111" lon="6.7271">
        <ele>1036</ele>
        <time>2025-07-15T14:44:47Z</time>
      </trkpt>
      <trkpt lat="43.86119" lon="6.72701">
        <ele>1035.6</ele>
        <time>2025-07-15T14:44:48Z</time>
      </trkpt>
      <trkpt lat="43.86124" lon="6.72691">
        <ele>1034.6</ele>
        <time>2025-07-15T14:44:49Z</time>
      </trkpt>
      <trkpt lat="43.86127" lon="6.72679">
        <ele>1034</ele>
        <time>2025-07-15T14:44:50Z</time>
      </trkpt>
      <trkpt lat="43.86127" lon="6.72667">
        <ele>1033.6</ele>
        <time>2025-07-15T14:44:51Z</time>
      </trkpt>
      <trkpt lat="43.86125" lon="6.72655">
        <ele>1032.6</ele>
        <time>2025-07-15T14:44:52Z</time>
      </trkpt>
      <trkpt lat="43.8612" lon="6.72645">
        <ele>1032.2</ele>
        <time>2025-07-15T14:44:53Z</time>
      </trkpt>
      <trkpt lat="43.86107" lon="6.72631">
        <ele>1031.6</ele>
        <time>2025-07-15T14:44:55Z</time>
      </trkpt>
      <trkpt lat="43.8609" lon="6.72629">
        <ele>1031.2</ele>
        <time>2025-07-15T14:44:57Z</time>
      </trkpt>
      <trkpt lat="43.86082" lon="6.72631">
        <ele>1031</ele>
        <time>2025-07-15T14:44:58Z</time>
      </trkpt>
      <trkpt lat="43.86074" lon="6.72633">
        <ele>1030.6</ele>
        <time>2025-07-15T14:44:59Z</time>
      </trkpt>
      <trkpt lat="43.86058" lon="6.72635">
        <ele>1030.4</ele>
        <time>2025-07-15T14:45:01Z</time>
      </trkpt>
      <trkpt lat="43.8605" lon="6.72634">
        <ele>1030.4</ele>
        <time>2025-07-15T14:45:02Z</time>
      </trkpt>
      <trkpt lat="43.86033" lon="6.7263">
        <ele>1030.4</ele>
        <time>2025-07-15T14:45:04Z</time>
      </trkpt>
      <trkpt lat="43.86018" lon="6.72621">
        <ele>1030.2</ele>
        <time>2025-07-15T14:45:06Z</time>
      </trkpt>
      <trkpt lat="43.86002" lon="6.72611">
        <ele>1030.2</ele>
        <time>2025-07-15T14:45:08Z</time>
      </trkpt>
      <trkpt lat="43.85992" lon="6.72607">
        <ele>1030</ele>
        <time>2025-07-15T14:45:09Z</time>
      </trkpt>
      <trkpt lat="43.85984" lon="6.72608">
        <ele>1029.6</ele>
        <time>2025-07-15T14:45:10Z</time>
      </trkpt>
      <trkpt lat="43.8596" lon="6.72613">
        <ele>1029.2</ele>
        <time>2025-07-15T14:45:13Z</time>
      </trkpt>
      <trkpt lat="43.85939" lon="6.72614">
        <ele>1028.6</ele>
        <time>2025-07-15T14:45:15Z</time>
      </trkpt>
      <trkpt lat="43.85921" lon="6.7262">
        <ele>1028</ele>
        <time>2025-07-15T14:45:17Z</time>
      </trkpt>
      <trkpt lat="43.85911" lon="6.72625">
        <ele>1027.8</ele>
        <time>2025-07-15T14:45:18Z</time>
      </trkpt>
      <trkpt lat="43.85901" lon="6.7263">
        <ele>1027.2</ele>
        <time>2025-07-15T14:45:19Z</time>
      </trkpt>
      <trkpt lat="43.85881" lon="6.72641">
        <ele>1026.2</ele>
        <time>2025-07-15T14:45:21Z</time>
      </trkpt>
      <trkpt lat="43.85871" lon="6.72646">
        <ele>1025.4</ele>
        <time>2025-07-15T14:45:22Z</time>
      </trkpt>
      <trkpt lat="43.8585" lon="6.72653">
        <ele>1024.2</ele>
        <time>2025-07-15T14:45:24Z</time>
      </trkpt>
      <trkpt lat="43.8584" lon="6.72654">
        <ele>1023.8</ele>
        <time>2025-07-15T14:45:25Z</time>
      </trkpt>
      <trkpt lat="43.85831" lon="6.72653">
        <ele>1023</ele>
        <time>2025-07-15T14:45:26Z</time>
      </trkpt>
      <trkpt lat="43.85823" lon="6.72648">
        <ele>1022.4</ele>
        <time>2025-07-15T14:45:27Z</time>
      </trkpt>
      <trkpt lat="43.85817" lon="6.7264">
        <ele>1021.8</ele>
        <time>2025-07-15T14:45:28Z</time>
      </trkpt>
      <trkpt lat="43.85813" lon="6.72628">
        <ele>1021.6</ele>
        <time>2025-07-15T14:45:29Z</time>
      </trkpt>
      <trkpt lat="43.85811" lon="6.72616">
        <ele>1020.8</ele>
        <time>2025-07-15T14:45:30Z</time>
      </trkpt>
      <trkpt lat="43.85809" lon="6.72603">
        <ele>1019.6</ele>
        <time>2025-07-15T14:45:31Z</time>
      </trkpt>
      <trkpt lat="43.85808" lon="6.72577">
        <ele>1018.4</ele>
        <time>2025-07-15T14:45:33Z</time>
      </trkpt>
      <trkpt lat="43.85807" lon="6.72563">
        <ele>1018</ele>
        <time>2025-07-15T14:45:34Z</time>
      </trkpt>
      <trkpt lat="43.85808" lon="6.7255">
        <ele>1017.2</ele>
        <time>2025-07-15T14:45:35Z</time>
      </trkpt>
      <trkpt lat="43.8581" lon="6.72536">
        <ele>1016.8</ele>
        <time>2025-07-15T14:45:36Z</time>
      </trkpt>
      <trkpt lat="43.85813" lon="6.72524">
        <ele>1016</ele>
        <time>2025-07-15T14:45:37Z</time>
      </trkpt>
      <trkpt lat="43.85817" lon="6.72502">
        <ele>1014.6</ele>
        <time>2025-07-15T14:45:39Z</time>
      </trkpt>
      <trkpt lat="43.85817" lon="6.72491">
        <ele>1014</ele>
        <time>2025-07-15T14:45:40Z</time>
      </trkpt>
      <trkpt lat="43.85813" lon="6.72483">
        <ele>1013.6</ele>
        <time>2025-07-15T14:45:41Z</time>
      </trkpt>
      <trkpt lat="43.85807" lon="6.72479">
        <ele>1013</ele>
        <time>2025-07-15T14:45:42Z</time>
      </trkpt>
      <trkpt lat="43.858" lon="6.7248">
        <ele>1012.4</ele>
        <time>2025-07-15T14:45:43Z</time>
      </trkpt>
      <trkpt lat="43.85794" lon="6.72484">
        <ele>1011.6</ele>
        <time>2025-07-15T14:45:44Z</time>
      </trkpt>
      <trkpt lat="43.85787" lon="6.72491">
        <ele>1011</ele>
        <time>2025-07-15T14:45:45Z</time>
      </trkpt>
      <trkpt lat="43.8578" lon="6.72499">
        <ele>1010.2</ele>
        <time>2025-07-15T14:45:46Z</time>
      </trkpt>
      <trkpt lat="43.85768" lon="6.72517">
        <ele>1009.2</ele>
        <time>2025-07-15T14:45:48Z</time>
      </trkpt>
      <trkpt lat="43.85761" lon="6.72523">
        <ele>1008.4</ele>
        <time>2025-07-15T14:45:49Z</time>
      </trkpt>
      <trkpt lat="43.85753" lon="6.72524">
        <ele>1008.2</ele>
        <time>2025-07-15T14:45:50Z</time>
      </trkpt>
      <trkpt lat="43.85747" lon="6.72522">
        <ele>1007.6</ele>
        <time>2025-07-15T14:45:51Z</time>
      </trkpt>
      <trkpt lat="43.85742" lon="6.72516">
        <ele>1007.2</ele>
        <time>2025-07-15T14:45:52Z</time>
      </trkpt>
      <trkpt lat="43.8574" lon="6.72495">
        <ele>1006.6</ele>
        <time>2025-07-15T14:45:54Z</time>
      </trkpt>
      <trkpt lat="43.85742" lon="6.72484">
        <ele>1005.6</ele>
        <time>2025-07-15T14:45:55Z</time>
      </trkpt>
      <trkpt lat="43.85746" lon="6.72461">
        <ele>1004.6</ele>
        <time>2025-07-15T14:45:57Z</time>
      </trkpt>
      <trkpt lat="43.85749" lon="6.72451">
        <ele>1003.8</ele>
        <time>2025-07-15T14:45:58Z</time>
      </trkpt>
      <trkpt lat="43.85754" lon="6.72442">
        <ele>1003.4</ele>
        <time>2025-07-15T14:45:59Z</time>
      </trkpt>
      <trkpt lat="43.85761" lon="6.72437">
        <ele>1002.8</ele>
        <time>2025-07-15T14:46:00Z</time>
      </trkpt>
      <trkpt lat="43.85778" lon="6.72433">
        <ele>1002</ele>
        <time>2025-07-15T14:46:02Z</time>
      </trkpt>
      <trkpt lat="43.85797" lon="6.72432">
        <ele>1000.8</ele>
        <time>2025-07-15T14:46:04Z</time>
      </trkpt>
      <trkpt lat="43.85806" lon="6.72432">
        <ele>999.4</ele>
        <time>2025-07-15T14:46:05Z</time>
      </trkpt>
      <trkpt lat="43.85823" lon="6.72431">
        <ele>998.4</ele>
        <time>2025-07-15T14:46:07Z</time>
      </trkpt>
      <trkpt lat="43.85831" lon="6.72429">
        <ele>998.2</ele>
        <time>2025-07-15T14:46:08Z</time>
      </trkpt>
      <trkpt lat="43.85837" lon="6.72424">
        <ele>997.6</ele>
        <time>2025-07-15T14:46:09Z</time>
      </trkpt>
      <trkpt lat="43.85841" lon="6.72417">
        <ele>997.4</ele>
        <time>2025-07-15T14:46:10Z</time>
      </trkpt>
      <trkpt lat="43.85844" lon="6.72409">
        <ele>996.4</ele>
        <time>2025-07-15T14:46:11Z</time>
      </trkpt>
      <trkpt lat="43.85835" lon="6.72396">
        <ele>995</ele>
        <time>2025-07-15T14:46:13Z</time>
      </trkpt>
      <trkpt lat="43.85827" lon="6.72396">
        <ele>994</ele>
        <time>2025-07-15T14:46:14Z</time>
      </trkpt>
      <trkpt lat="43.85818" lon="6.724">
        <ele>993.8</ele>
        <time>2025-07-15T14:46:15Z</time>
      </trkpt>
      <trkpt lat="43.85802" lon="6.72409">
        <ele>993.2</ele>
        <time>2025-07-15T14:46:17Z</time>
      </trkpt>
      <trkpt lat="43.85794" lon="6.72412">
        <ele>992.8</ele>
        <time>2025-07-15T14:46:18Z</time>
      </trkpt>
      <trkpt lat="43.85785" lon="6.72414">
        <ele>992.4</ele>
        <time>2025-07-15T14:46:19Z</time>
      </trkpt>
      <trkpt lat="43.85769" lon="6.72408">
        <ele>991.4</ele>
        <time>2025-07-15T14:46:21Z</time>
      </trkpt>
      <trkpt lat="43.85762" lon="6.72401">
        <ele>991.2</ele>
        <time>2025-07-15T14:46:22Z</time>
      </trkpt>
      <trkpt lat="43.85757" lon="6.72391">
        <ele>990.8</ele>
        <time>2025-07-15T14:46:23Z</time>
      </trkpt>
      <trkpt lat="43.85756" lon="6.72378">
        <ele>990.4</ele>
        <time>2025-07-15T14:46:24Z</time>
      </trkpt>
      <trkpt lat="43.85756" lon="6.72365">
        <ele>990</ele>
        <time>2025-07-15T14:46:25Z</time>
      </trkpt>
      <trkpt lat="43.85754" lon="6.72339">
        <ele>988.4</ele>
        <time>2025-07-15T14:46:27Z</time>
      </trkpt>
      <trkpt lat="43.85753" lon="6.72326">
        <ele>987.2</ele>
        <time>2025-07-15T14:46:28Z</time>
      </trkpt>
      <trkpt lat="43.85752" lon="6.72313">
        <ele>986.6</ele>
        <time>2025-07-15T14:46:29Z</time>
      </trkpt>
      <trkpt lat="43.85751" lon="6.723">
        <ele>985.4</ele>
        <time>2025-07-15T14:46:30Z</time>
      </trkpt>
      <trkpt lat="43.85748" lon="6.72276">
        <ele>984.6</ele>
        <time>2025-07-15T14:46:32Z</time>
      </trkpt>
      <trkpt lat="43.85746" lon="6.72265">
        <ele>984.2</ele>
        <time>2025-07-15T14:46:33Z</time>
      </trkpt>
      <trkpt lat="43.85743" lon="6.72254">
        <ele>983.8</ele>
        <time>2025-07-15T14:46:34Z</time>
      </trkpt>
      <trkpt lat="43.85737" lon="6.72217">
        <ele>983.4</ele>
        <time>2025-07-15T14:46:38Z</time>
      </trkpt>
      <trkpt lat="43.85737" lon="6.72183">
        <ele>983.8</ele>
        <time>2025-07-15T14:46:43Z</time>
      </trkpt>
      <trkpt lat="43.85738" lon="6.72168">
        <ele>985.4</ele>
        <time>2025-07-15T14:46:46Z</time>
      </trkpt>
      <trkpt lat="43.85739" lon="6.7216">
        <ele>986</ele>
        <time>2025-07-15T14:46:48Z</time>
      </trkpt>
      <trkpt lat="43.8574" lon="6.72152">
        <ele>986.6</ele>
        <time>2025-07-15T14:46:50Z</time>
      </trkpt>
      <trkpt lat="43.85741" lon="6.72136">
        <ele>987.6</ele>
        <time>2025-07-15T14:46:54Z</time>
      </trkpt>
      <trkpt lat="43.8574" lon="6.72133">
        <ele>988</ele>
        <time>2025-07-15T14:46:55Z</time>
      </trkpt>
      <trkpt lat="43.85737" lon="6.72111">
        <ele>989</ele>
        <time>2025-07-15T14:47:01Z</time>
      </trkpt>
      <trkpt lat="43.85732" lon="6.72082">
        <ele>990</ele>
        <time>2025-07-15T14:47:09Z</time>
      </trkpt>
      <trkpt lat="43.85731" lon="6.72079">
        <ele>990</ele>
        <time>2025-07-15T14:47:10Z</time>
      </trkpt>
      <trkpt lat="43.85729" lon="6.72064">
        <ele>991</ele>
        <time>2025-07-15T14:47:15Z</time>
      </trkpt>
      <trkpt lat="43.85726" lon="6.72043">
        <ele>991.8</ele>
        <time>2025-07-15T14:47:21Z</time>
      </trkpt>
      <trkpt lat="43.85725" lon="6.7203">
        <ele>992.2</ele>
        <time>2025-07-15T14:47:25Z</time>
      </trkpt>
      <trkpt lat="43.85724" lon="6.72019">
        <ele>992</ele>
        <time>2025-07-15T14:47:28Z</time>
      </trkpt>
      <trkpt lat="43.85721" lon="6.7199">
        <ele>993</ele>
        <time>2025-07-15T14:47:36Z</time>
      </trkpt>
      <trkpt lat="43.85721" lon="6.71986">
        <ele>993</ele>
        <time>2025-07-15T14:47:37Z</time>
      </trkpt>
      <trkpt lat="43.8572" lon="6.71983">
        <ele>993.4</ele>
        <time>2025-07-15T14:47:38Z</time>
      </trkpt>
      <trkpt lat="43.85716" lon="6.71981">
        <ele>993.8</ele>
        <time>2025-07-15T14:47:40Z</time>
      </trkpt>
      <trkpt lat="43.85715" lon="6.71982">
        <ele>993.8</ele>
        <time>2025-07-15T14:47:41Z</time>
      </trkpt>
      <trkpt lat="43.85714" lon="6.71983">
        <ele>994.2</ele>
        <time>2025-07-15T14:47:42Z</time>
      </trkpt>
      <trkpt lat="43.85712" lon="6.71989">
        <ele>994.4</ele>
        <time>2025-07-15T14:47:44Z</time>
      </trkpt>
      <trkpt lat="43.85715" lon="6.72006">
        <ele>995</ele>
        <time>2025-07-15T14:47:49Z</time>
      </trkpt>
      <trkpt lat="43.85715" lon="6.72016">
        <ele>995.2</ele>
        <time>2025-07-15T14:47:52Z</time>
      </trkpt>
      <trkpt lat="43.85716" lon="6.72033">
        <ele>995.8</ele>
        <time>2025-07-15T14:47:57Z</time>
      </trkpt>
      <trkpt lat="43.85717" lon="6.72053">
        <ele>996.4</ele>
        <time>2025-07-15T14:48:03Z</time>
      </trkpt>
      <trkpt lat="43.85717" lon="6.72056">
        <ele>996.4</ele>
        <time>2025-07-15T14:48:04Z</time>
      </trkpt>
      <trkpt lat="43.85717" lon="6.7208">
        <ele>997.2</ele>
        <time>2025-07-15T14:48:12Z</time>
      </trkpt>
      <trkpt lat="43.85716" lon="6.72083">
        <ele>997.2</ele>
        <time>2025-07-15T14:48:13Z</time>
      </trkpt>
      <trkpt lat="43.85715" lon="6.72085">
        <ele>997.2</ele>
        <time>2025-07-15T14:48:14Z</time>
      </trkpt>
      <trkpt lat="43.85713" lon="6.72094">
        <ele>997.8</ele>
        <time>2025-07-15T14:48:17Z</time>
      </trkpt>
      <trkpt lat="43.85711" lon="6.72106">
        <ele>998.4</ele>
        <time>2025-07-15T14:48:20Z</time>
      </trkpt>
      <trkpt lat="43.85708" lon="6.72119">
        <ele>999</ele>
        <time>2025-07-15T14:48:24Z</time>
      </trkpt>
      <trkpt lat="43.85706" lon="6.72127">
        <ele>999.4</ele>
        <time>2025-07-15T14:48:26Z</time>
      </trkpt>
      <trkpt lat="43.85703" lon="6.72133">
        <ele>999.6</ele>
        <time>2025-07-15T14:48:28Z</time>
      </trkpt>
      <trkpt lat="43.857" lon="6.72151">
        <ele>1000.6</ele>
        <time>2025-07-15T14:48:33Z</time>
      </trkpt>
      <trkpt lat="43.85697" lon="6.72177">
        <ele>1001.6</ele>
        <time>2025-07-15T14:48:40Z</time>
      </trkpt>
      <trkpt lat="43.85694" lon="6.72185">
        <ele>1001.8</ele>
        <time>2025-07-15T14:48:42Z</time>
      </trkpt>
      <trkpt lat="43.85691" lon="6.72214">
        <ele>1002.6</ele>
        <time>2025-07-15T14:48:49Z</time>
      </trkpt>
      <trkpt lat="43.85691" lon="6.72218">
        <ele>1002.6</ele>
        <time>2025-07-15T14:48:50Z</time>
      </trkpt>
      <trkpt lat="43.85687" lon="6.7223">
        <ele>1003.2</ele>
        <time>2025-07-15T14:48:53Z</time>
      </trkpt>
      <trkpt lat="43.85685" lon="6.72231">
        <ele>1003.4</ele>
        <time>2025-07-15T14:48:54Z</time>
      </trkpt>
      <trkpt lat="43.85682" lon="6.72231">
        <ele>1003.6</ele>
        <time>2025-07-15T14:48:55Z</time>
      </trkpt>
      <trkpt lat="43.85679" lon="6.72226">
        <ele>1003.6</ele>
        <time>2025-07-15T14:48:57Z</time>
      </trkpt>
      <trkpt lat="43.8568" lon="6.72222">
        <ele>1003.6</ele>
        <time>2025-07-15T14:48:58Z</time>
      </trkpt>
      <trkpt lat="43.85684" lon="6.72207">
        <ele>1004.2</ele>
        <time>2025-07-15T14:49:02Z</time>
      </trkpt>
      <trkpt lat="43.85686" lon="6.72196">
        <ele>1005</ele>
        <time>2025-07-15T14:49:05Z</time>
      </trkpt>
      <trkpt lat="43.85687" lon="6.72183">
        <ele>1006</ele>
        <time>2025-07-15T14:49:09Z</time>
      </trkpt>
      <trkpt lat="43.85687" lon="6.7218">
        <ele>1006</ele>
        <time>2025-07-15T14:49:10Z</time>
      </trkpt>
      <trkpt lat="43.85688" lon="6.72158">
        <ele>1007</ele>
        <time>2025-07-15T14:49:16Z</time>
      </trkpt>
      <trkpt lat="43.85688" lon="6.72144">
        <ele>1007.4</ele>
        <time>2025-07-15T14:49:20Z</time>
      </trkpt>
      <trkpt lat="43.85689" lon="6.72125">
        <ele>1008.2</ele>
        <time>2025-07-15T14:49:25Z</time>
      </trkpt>
      <trkpt lat="43.85689" lon="6.72122">
        <ele>1008.2</ele>
        <time>2025-07-15T14:49:26Z</time>
      </trkpt>
      <trkpt lat="43.85692" lon="6.72099">
        <ele>1008.8</ele>
        <time>2025-07-15T14:49:33Z</time>
      </trkpt>
      <trkpt lat="43.85695" lon="6.7207">
        <ele>1009.2</ele>
        <time>2025-07-15T14:49:41Z</time>
      </trkpt>
      <trkpt lat="43.85694" lon="6.72063">
        <ele>1009.4</ele>
        <time>2025-07-15T14:49:43Z</time>
      </trkpt>
      <trkpt lat="43.85695" lon="6.72044">
        <ele>1010.2</ele>
        <time>2025-07-15T14:49:48Z</time>
      </trkpt>
      <trkpt lat="43.85694" lon="6.72037">
        <ele>1010.6</ele>
        <time>2025-07-15T14:49:50Z</time>
      </trkpt>
      <trkpt lat="43.85691" lon="6.72031">
        <ele>1011</ele>
        <time>2025-07-15T14:49:52Z</time>
      </trkpt>
      <trkpt lat="43.85687" lon="6.7203">
        <ele>1011.4</ele>
        <time>2025-07-15T14:49:54Z</time>
      </trkpt>
      <trkpt lat="43.85681" lon="6.72039">
        <ele>1012.4</ele>
        <time>2025-07-15T14:49:58Z</time>
      </trkpt>
      <trkpt lat="43.85679" lon="6.72053">
        <ele>1013.4</ele>
        <time>2025-07-15T14:50:02Z</time>
      </trkpt>
      <trkpt lat="43.85679" lon="6.7206">
        <ele>1013.8</ele>
        <time>2025-07-15T14:50:04Z</time>
      </trkpt>
      <trkpt lat="43.85677" lon="6.72078">
        <ele>1014.6</ele>
        <time>2025-07-15T14:50:09Z</time>
      </trkpt>
      <trkpt lat="43.85675" lon="6.72085">
        <ele>1014.8</ele>
        <time>2025-07-15T14:50:11Z</time>
      </trkpt>
      <trkpt lat="43.85671" lon="6.72108">
        <ele>1015.6</ele>
        <time>2025-07-15T14:50:17Z</time>
      </trkpt>
      <trkpt lat="43.85671" lon="6.72111">
        <ele>1015.8</ele>
        <time>2025-07-15T14:50:18Z</time>
      </trkpt>
      <trkpt lat="43.85665" lon="6.72136">
        <ele>1016.4</ele>
        <time>2025-07-15T14:50:25Z</time>
      </trkpt>
      <trkpt lat="43.85663" lon="6.7216">
        <ele>1017.2</ele>
        <time>2025-07-15T14:50:31Z</time>
      </trkpt>
      <trkpt lat="43.85661" lon="6.72177">
        <ele>1017.4</ele>
        <time>2025-07-15T14:50:35Z</time>
      </trkpt>
      <trkpt lat="43.85655" lon="6.72197">
        <ele>1018.2</ele>
        <time>2025-07-15T14:50:41Z</time>
      </trkpt>
      <trkpt lat="43.85653" lon="6.72204">
        <ele>1018.4</ele>
        <time>2025-07-15T14:50:43Z</time>
      </trkpt>
      <trkpt lat="43.85647" lon="6.72232">
        <ele>1019.2</ele>
        <time>2025-07-15T14:50:51Z</time>
      </trkpt>
      <trkpt lat="43.85645" lon="6.72242">
        <ele>1019.6</ele>
        <time>2025-07-15T14:50:54Z</time>
      </trkpt>
      <trkpt lat="43.85643" lon="6.72248">
        <ele>1020</ele>
        <time>2025-07-15T14:50:56Z</time>
      </trkpt>
      <trkpt lat="43.85641" lon="6.7225">
        <ele>1020.2</ele>
        <time>2025-07-15T14:50:57Z</time>
      </trkpt>
      <trkpt lat="43.85638" lon="6.72251">
        <ele>1020.4</ele>
        <time>2025-07-15T14:50:58Z</time>
      </trkpt>
      <trkpt lat="43.85635" lon="6.72248">
        <ele>1020.6</ele>
        <time>2025-07-15T14:51:00Z</time>
      </trkpt>
      <trkpt lat="43.85639" lon="6.72231">
        <ele>1021.6</ele>
        <time>2025-07-15T14:51:05Z</time>
      </trkpt>
      <trkpt lat="43.8564" lon="6.72227">
        <ele>1021.6</ele>
        <time>2025-07-15T14:51:06Z</time>
      </trkpt>
      <trkpt lat="43.85645" lon="6.72206">
        <ele>1022.4</ele>
        <time>2025-07-15T14:51:12Z</time>
      </trkpt>
      <trkpt lat="43.85646" lon="6.72199">
        <ele>1022.8</ele>
        <time>2025-07-15T14:51:14Z</time>
      </trkpt>
      <trkpt lat="43.85649" lon="6.72181">
        <ele>1023.2</ele>
        <time>2025-07-15T14:51:19Z</time>
      </trkpt>
      <trkpt lat="43.85652" lon="6.72153">
        <ele>1023.8</ele>
        <time>2025-07-15T14:51:27Z</time>
      </trkpt>
      <trkpt lat="43.85652" lon="6.72149">
        <ele>1024.2</ele>
        <time>2025-07-15T14:51:28Z</time>
      </trkpt>
      <trkpt lat="43.85653" lon="6.72135">
        <ele>1024.8</ele>
        <time>2025-07-15T14:51:32Z</time>
      </trkpt>
      <trkpt lat="43.85655" lon="6.72116">
        <ele>1025.4</ele>
        <time>2025-07-15T14:51:37Z</time>
      </trkpt>
      <trkpt lat="43.85656" lon="6.72104">
        <ele>1026</ele>
        <time>2025-07-15T14:51:40Z</time>
      </trkpt>
      <trkpt lat="43.85658" lon="6.72081">
        <ele>1026.8</ele>
        <time>2025-07-15T14:51:46Z</time>
      </trkpt>
      <trkpt lat="43.85659" lon="6.72074">
        <ele>1027</ele>
        <time>2025-07-15T14:51:48Z</time>
      </trkpt>
      <trkpt lat="43.8566" lon="6.72053">
        <ele>1028.2</ele>
        <time>2025-07-15T14:51:54Z</time>
      </trkpt>
      <trkpt lat="43.85661" lon="6.72031">
        <ele>1029.2</ele>
        <time>2025-07-15T14:52:01Z</time>
      </trkpt>
      <trkpt lat="43.85661" lon="6.72028">
        <ele>1029.4</ele>
        <time>2025-07-15T14:52:02Z</time>
      </trkpt>
      <trkpt lat="43.8566" lon="6.72006">
        <ele>1030</ele>
        <time>2025-07-15T14:52:08Z</time>
      </trkpt>
      <trkpt lat="43.85659" lon="6.71995">
        <ele>1030.8</ele>
        <time>2025-07-15T14:52:11Z</time>
      </trkpt>
      <trkpt lat="43.85659" lon="6.71988">
        <ele>1031.2</ele>
        <time>2025-07-15T14:52:13Z</time>
      </trkpt>
      <trkpt lat="43.85659" lon="6.71961">
        <ele>1032</ele>
        <time>2025-07-15T14:52:20Z</time>
      </trkpt>
      <trkpt lat="43.85659" lon="6.71958">
        <ele>1032.2</ele>
        <time>2025-07-15T14:52:21Z</time>
      </trkpt>
      <trkpt lat="43.85656" lon="6.71951">
        <ele>1032.4</ele>
        <time>2025-07-15T14:52:23Z</time>
      </trkpt>
      <trkpt lat="43.85655" lon="6.7195">
        <ele>1032.6</ele>
        <time>2025-07-15T14:52:24Z</time>
      </trkpt>
      <trkpt lat="43.8565" lon="6.71951">
        <ele>1033</ele>
        <time>2025-07-15T14:52:26Z</time>
      </trkpt>
      <trkpt lat="43.85649" lon="6.71953">
        <ele>1033.2</ele>
        <time>2025-07-15T14:52:27Z</time>
      </trkpt>
      <trkpt lat="43.85648" lon="6.71956">
        <ele>1033.4</ele>
        <time>2025-07-15T14:52:28Z</time>
      </trkpt>
      <trkpt lat="43.85646" lon="6.71971">
        <ele>1034.4</ele>
        <time>2025-07-15T14:52:32Z</time>
      </trkpt>
      <trkpt lat="43.85646" lon="6.71983">
        <ele>1035</ele>
        <time>2025-07-15T14:52:35Z</time>
      </trkpt>
      <trkpt lat="43.85646" lon="6.71999">
        <ele>1035.6</ele>
        <time>2025-07-15T14:52:39Z</time>
      </trkpt>
      <trkpt lat="43.85645" lon="6.7201">
        <ele>1036</ele>
        <time>2025-07-15T14:52:42Z</time>
      </trkpt>
      <trkpt lat="43.85643" lon="6.7202">
        <ele>1037.2</ele>
        <time>2025-07-15T14:52:45Z</time>
      </trkpt>
      <trkpt lat="43.85641" lon="6.72026">
        <ele>1037.6</ele>
        <time>2025-07-15T14:52:47Z</time>
      </trkpt>
      <trkpt lat="43.85636" lon="6.72051">
        <ele>1038.2</ele>
        <time>2025-07-15T14:52:54Z</time>
      </trkpt>
      <trkpt lat="43.85634" lon="6.72067">
        <ele>1039.4</ele>
        <time>2025-07-15T14:52:58Z</time>
      </trkpt>
      <trkpt lat="43.85634" lon="6.72079">
        <ele>1040.8</ele>
        <time>2025-07-15T14:53:01Z</time>
      </trkpt>
      <trkpt lat="43.85633" lon="6.72086">
        <ele>1041.6</ele>
        <time>2025-07-15T14:53:03Z</time>
      </trkpt>
      <trkpt lat="43.85631" lon="6.72094">
        <ele>1042</ele>
        <time>2025-07-15T14:53:05Z</time>
      </trkpt>
      <trkpt lat="43.85629" lon="6.72108">
        <ele>1042</ele>
        <time>2025-07-15T14:53:09Z</time>
      </trkpt>
      <trkpt lat="43.85624" lon="6.72134">
        <ele>1042.4</ele>
        <time>2025-07-15T14:53:15Z</time>
      </trkpt>
      <trkpt lat="43.85619" lon="6.72154">
        <ele>1043</ele>
        <time>2025-07-15T14:53:20Z</time>
      </trkpt>
      <trkpt lat="43.85615" lon="6.72168">
        <ele>1043.6</ele>
        <time>2025-07-15T14:53:24Z</time>
      </trkpt>
      <trkpt lat="43.85611" lon="6.72179">
        <ele>1044</ele>
        <time>2025-07-15T14:53:27Z</time>
      </trkpt>
      <trkpt lat="43.85604" lon="6.72205">
        <ele>1044.4</ele>
        <time>2025-07-15T14:53:34Z</time>
      </trkpt>
      <trkpt lat="43.85597" lon="6.72228">
        <ele>1044.8</ele>
        <time>2025-07-15T14:53:40Z</time>
      </trkpt>
      <trkpt lat="43.85596" lon="6.72232">
        <ele>1045</ele>
        <time>2025-07-15T14:53:41Z</time>
      </trkpt>
      <trkpt lat="43.8559" lon="6.72252">
        <ele>1045.8</ele>
        <time>2025-07-15T14:53:46Z</time>
      </trkpt>
      <trkpt lat="43.85585" lon="6.72262">
        <ele>1046</ele>
        <time>2025-07-15T14:53:49Z</time>
      </trkpt>
      <trkpt lat="43.8558" lon="6.7227">
        <ele>1046</ele>
        <time>2025-07-15T14:53:52Z</time>
      </trkpt>
      <trkpt lat="43.85576" lon="6.72275">
        <ele>1046.4</ele>
        <time>2025-07-15T14:53:55Z</time>
      </trkpt>
      <trkpt lat="43.85522" lon="6.72365">
        <ele>1050.8</ele>
        <time>2025-07-15T14:54:21Z</time>
      </trkpt>
      <trkpt lat="43.85513" lon="6.72367">
        <ele>1050.8</ele>
        <time>2025-07-15T14:54:22Z</time>
      </trkpt>
      <trkpt lat="43.85515" lon="6.72371">
        <ele>1051.2</ele>
        <time>2025-07-15T14:54:24Z</time>
      </trkpt>
      <trkpt lat="43.85505" lon="6.7238">
        <ele>1051.8</ele>
        <time>2025-07-15T14:54:28Z</time>
      </trkpt>
      <trkpt lat="43.85497" lon="6.72396">
        <ele>1052.4</ele>
        <time>2025-07-15T14:54:33Z</time>
      </trkpt>
      <trkpt lat="43.85495" lon="6.724">
        <ele>1052.6</ele>
        <time>2025-07-15T14:54:34Z</time>
      </trkpt>
      <trkpt lat="43.85479" lon="6.7242">
        <ele>1053.4</ele>
        <time>2025-07-15T14:54:40Z</time>
      </trkpt>
      <trkpt lat="43.85474" lon="6.72425">
        <ele>1053.6</ele>
        <time>2025-07-15T14:54:42Z</time>
      </trkpt>
      <trkpt lat="43.85454" lon="6.72448">
        <ele>1054.2</ele>
        <time>2025-07-15T14:54:51Z</time>
      </trkpt>
      <trkpt lat="43.85452" lon="6.72451">
        <ele>1054.4</ele>
        <time>2025-07-15T14:54:52Z</time>
      </trkpt>
      <trkpt lat="43.85435" lon="6.72469">
        <ele>1055.2</ele>
        <time>2025-07-15T14:54:59Z</time>
      </trkpt>
      <trkpt lat="43.85433" lon="6.72472">
        <ele>1055.2</ele>
        <time>2025-07-15T14:55:00Z</time>
      </trkpt>
      <trkpt lat="43.85417" lon="6.72496">
        <ele>1055.6</ele>
        <time>2025-07-15T14:55:08Z</time>
      </trkpt>
      <trkpt lat="43.85408" lon="6.72514">
        <ele>1056.2</ele>
        <time>2025-07-15T14:55:13Z</time>
      </trkpt>
      <trkpt lat="43.85404" lon="6.72531">
        <ele>1057</ele>
        <time>2025-07-15T14:55:17Z</time>
      </trkpt>
      <trkpt lat="43.85402" lon="6.72542">
        <ele>1057</ele>
        <time>2025-07-15T14:55:20Z</time>
      </trkpt>
      <trkpt lat="43.85399" lon="6.72549">
        <ele>1057.4</ele>
        <time>2025-07-15T14:55:22Z</time>
      </trkpt>
      <trkpt lat="43.85391" lon="6.72562">
        <ele>1058.2</ele>
        <time>2025-07-15T14:55:26Z</time>
      </trkpt>
      <trkpt lat="43.85385" lon="6.72565">
        <ele>1058.6</ele>
        <time>2025-07-15T14:55:28Z</time>
      </trkpt>
      <trkpt lat="43.85379" lon="6.72568">
        <ele>1059.2</ele>
        <time>2025-07-15T14:55:30Z</time>
      </trkpt>
      <trkpt lat="43.85376" lon="6.72571">
        <ele>1059.4</ele>
        <time>2025-07-15T14:55:32Z</time>
      </trkpt>
      <trkpt lat="43.85377" lon="6.72572">
        <ele>1059.6</ele>
        <time>2025-07-15T14:55:34Z</time>
      </trkpt>
      <trkpt lat="43.85377" lon="6.72571">
        <ele>1059.8</ele>
        <time>2025-07-15T14:55:35Z</time>
      </trkpt>
      <trkpt lat="43.85323" lon="6.72742">
        <ele>1062.8</ele>
        <time>2025-07-15T14:55:59Z</time>
      </trkpt>
      <trkpt lat="43.85305" lon="6.72741">
        <ele>1063.4</ele>
        <time>2025-07-15T14:56:02Z</time>
      </trkpt>
      <trkpt lat="43.8529" lon="6.72739">
        <ele>1063.6</ele>
        <time>2025-07-15T14:56:06Z</time>
      </trkpt>
      <trkpt lat="43.85288" lon="6.72739">
        <ele>1063.6</ele>
        <time>2025-07-15T14:56:07Z</time>
      </trkpt>
      <trkpt lat="43.85286" lon="6.72739">
        <ele>1064</ele>
        <time>2025-07-15T14:56:09Z</time>
      </trkpt>
      <trkpt lat="43.85285" lon="6.72738">
        <ele>1064.4</ele>
        <time>2025-07-15T14:56:11Z</time>
      </trkpt>
      <trkpt lat="43.85283" lon="6.72739">
        <ele>1064.8</ele>
        <time>2025-07-15T14:56:13Z</time>
      </trkpt>
      <trkpt lat="43.85283" lon="6.72739">
        <ele>1065</ele>
        <time>2025-07-15T14:56:14Z</time>
      </trkpt>
      <trkpt lat="43.85282" lon="6.7274">
        <ele>1065.4</ele>
        <time>2025-07-15T14:56:16Z</time>
      </trkpt>
      <trkpt lat="43.85282" lon="6.72739">
        <ele>1066</ele>
        <time>2025-07-15T14:56:18Z</time>
      </trkpt>
      <trkpt lat="43.85282" lon="6.7274">
        <ele>1066.2</ele>
        <time>2025-07-15T14:56:19Z</time>
      </trkpt>
      <trkpt lat="43.8528" lon="6.72744">
        <ele>1066.6</ele>
        <time>2025-07-15T14:56:20Z</time>
      </trkpt>
      <trkpt lat="43.85274" lon="6.72751">
        <ele>1066.4</ele>
        <time>2025-07-15T14:56:21Z</time>
      </trkpt>
      <trkpt lat="43.85262" lon="6.72809">
        <ele>1066.8</ele>
        <time>2025-07-15T14:56:23Z</time>
      </trkpt>
      <trkpt lat="43.85256" lon="6.72814">
        <ele>1067</ele>
        <time>2025-07-15T14:56:25Z</time>
      </trkpt>
      <trkpt lat="43.85254" lon="6.72815">
        <ele>1067.2</ele>
        <time>2025-07-15T14:56:26Z</time>
      </trkpt>
      <trkpt lat="43.8525" lon="6.72814">
        <ele>1067.4</ele>
        <time>2025-07-15T14:56:27Z</time>
      </trkpt>
      <trkpt lat="43.85245" lon="6.72813">
        <ele>1067.4</ele>
        <time>2025-07-15T14:56:29Z</time>
      </trkpt>
      <trkpt lat="43.85234" lon="6.72821">
        <ele>1068</ele>
        <time>2025-07-15T14:56:33Z</time>
      </trkpt>
      <trkpt lat="43.85231" lon="6.72823">
        <ele>1068</ele>
        <time>2025-07-15T14:56:35Z</time>
      </trkpt>
      <trkpt lat="43.85227" lon="6.72824">
        <ele>1068.4</ele>
        <time>2025-07-15T14:56:38Z</time>
      </trkpt>
      <trkpt lat="43.85223" lon="6.72827">
        <ele>1069.2</ele>
        <time>2025-07-15T14:56:41Z</time>
      </trkpt>
      <trkpt lat="43.85221" lon="6.72829">
        <ele>1069.2</ele>
        <time>2025-07-15T14:56:42Z</time>
      </trkpt>
      <trkpt lat="43.85219" lon="6.7283">
        <ele>1069.4</ele>
        <time>2025-07-15T14:56:43Z</time>
      </trkpt>
      <trkpt lat="43.852" lon="6.72839">
        <ele>1069.8</ele>
        <time>2025-07-15T14:56:47Z</time>
      </trkpt>
      <trkpt lat="43.85183" lon="6.72859">
        <ele>1070.6</ele>
        <time>2025-07-15T14:56:53Z</time>
      </trkpt>
      <trkpt lat="43.85182" lon="6.72863">
        <ele>1070.8</ele>
        <time>2025-07-15T14:56:54Z</time>
      </trkpt>
      <trkpt lat="43.85182" lon="6.72863">
        <ele>1071</ele>
        <time>2025-07-15T14:56:56Z</time>
      </trkpt>
      <trkpt lat="43.85182" lon="6.72864">
        <ele>1071</ele>
        <time>2025-07-15T14:56:57Z</time>
      </trkpt>
      <trkpt lat="43.85178" lon="6.72867">
        <ele>1071.6</ele>
        <time>2025-07-15T14:57:00Z</time>
      </trkpt>
      <trkpt lat="43.85176" lon="6.72869">
        <ele>1071.8</ele>
        <time>2025-07-15T14:57:01Z</time>
      </trkpt>
      <trkpt lat="43.85165" lon="6.72879">
        <ele>1072.8</ele>
        <time>2025-07-15T14:57:06Z</time>
      </trkpt>
      <trkpt lat="43.85154" lon="6.72884">
        <ele>1073.6</ele>
        <time>2025-07-15T14:57:11Z</time>
      </trkpt>
      <trkpt lat="43.85152" lon="6.72886">
        <ele>1073.8</ele>
        <time>2025-07-15T14:57:12Z</time>
      </trkpt>
      <trkpt lat="43.8515" lon="6.72888">
        <ele>1074</ele>
        <time>2025-07-15T14:57:13Z</time>
      </trkpt>
      <trkpt lat="43.85146" lon="6.72882">
        <ele>1074.2</ele>
        <time>2025-07-15T14:57:16Z</time>
      </trkpt>
      <trkpt lat="43.85146" lon="6.72878">
        <ele>1074.4</ele>
        <time>2025-07-15T14:57:17Z</time>
      </trkpt>
      <trkpt lat="43.85157" lon="6.72872">
        <ele>1074.4</ele>
        <time>2025-07-15T14:57:19Z</time>
      </trkpt>
      <trkpt lat="43.85156" lon="6.72878">
        <ele>1074.6</ele>
        <time>2025-07-15T14:57:22Z</time>
      </trkpt>
      <trkpt lat="43.85151" lon="6.72889">
        <ele>1074.8</ele>
        <time>2025-07-15T14:57:26Z</time>
      </trkpt>
      <trkpt lat="43.85148" lon="6.72899">
        <ele>1075</ele>
        <time>2025-07-15T14:57:29Z</time>
      </trkpt>
      <trkpt lat="43.8514" lon="6.72908">
        <ele>1075.8</ele>
        <time>2025-07-15T14:57:32Z</time>
      </trkpt>
      <trkpt lat="43.85134" lon="6.72917">
        <ele>1076</ele>
        <time>2025-07-15T14:57:35Z</time>
      </trkpt>
      <trkpt lat="43.85132" lon="6.72922">
        <ele>1076.4</ele>
        <time>2025-07-15T14:57:37Z</time>
      </trkpt>
      <trkpt lat="43.85131" lon="6.72925">
        <ele>1076.6</ele>
        <time>2025-07-15T14:57:38Z</time>
      </trkpt>
      <trkpt lat="43.85131" lon="6.72929">
        <ele>1076.8</ele>
        <time>2025-07-15T14:57:40Z</time>
      </trkpt>
      <trkpt lat="43.8513" lon="6.72931">
        <ele>1077</ele>
        <time>2025-07-15T14:57:41Z</time>
      </trkpt>
      <trkpt lat="43.85127" lon="6.7294">
        <ele>1078</ele>
        <time>2025-07-15T14:57:45Z</time>
      </trkpt>
      <trkpt lat="43.85126" lon="6.72944">
        <ele>1078</ele>
        <time>2025-07-15T14:57:47Z</time>
      </trkpt>
      <trkpt lat="43.85126" lon="6.72945">
        <ele>1078.2</ele>
        <time>2025-07-15T14:57:48Z</time>
      </trkpt>
      <trkpt lat="43.85124" lon="6.72948">
        <ele>1078.4</ele>
        <time>2025-07-15T14:57:50Z</time>
      </trkpt>
      <trkpt lat="43.85123" lon="6.72948">
        <ele>1078.6</ele>
        <time>2025-07-15T14:57:51Z</time>
      </trkpt>
      <trkpt lat="43.85121" lon="6.72948">
        <ele>1079</ele>
        <time>2025-07-15T14:57:53Z</time>
      </trkpt>
      <trkpt lat="43.8512" lon="6.72948">
        <ele>1079</ele>
        <time>2025-07-15T14:57:55Z</time>
      </trkpt>
      <trkpt lat="43.85116" lon="6.72952">
        <ele>1079.6</ele>
        <time>2025-07-15T14:57:57Z</time>
      </trkpt>
      <trkpt lat="43.85115" lon="6.72955">
        <ele>1079.6</ele>
        <time>2025-07-15T14:57:58Z</time>
      </trkpt>
      <trkpt lat="43.85114" lon="6.72958">
        <ele>1080</ele>
        <time>2025-07-15T14:57:59Z</time>
      </trkpt>
      <trkpt lat="43.85113" lon="6.72962">
        <ele>1080.2</ele>
        <time>2025-07-15T14:58:00Z</time>
      </trkpt>
      <trkpt lat="43.85112" lon="6.72964">
        <ele>1080.2</ele>
        <time>2025-07-15T14:58:01Z</time>
      </trkpt>
      <trkpt lat="43.85109" lon="6.7297">
        <ele>1080.6</ele>
        <time>2025-07-15T14:58:03Z</time>
      </trkpt>
      <trkpt lat="43.85106" lon="6.72975">
        <ele>1080.6</ele>
        <time>2025-07-15T14:58:05Z</time>
      </trkpt>
      <trkpt lat="43.85098" lon="6.72986">
        <ele>1081</ele>
        <time>2025-07-15T14:58:09Z</time>
      </trkpt>
      <trkpt lat="43.85086" lon="6.73003">
        <ele>1081.6</ele>
        <time>2025-07-15T14:58:15Z</time>
      </trkpt>
      <trkpt lat="43.85085" lon="6.73006">
        <ele>1081.6</ele>
        <time>2025-07-15T14:58:16Z</time>
      </trkpt>
      <trkpt lat="43.85072" lon="6.73016">
        <ele>1082.2</ele>
        <time>2025-07-15T14:58:20Z</time>
      </trkpt>
      <trkpt lat="43.8507" lon="6.7302">
        <ele>1082.2</ele>
        <time>2025-07-15T14:58:21Z</time>
      </trkpt>
      <trkpt lat="43.85059" lon="6.73036">
        <ele>1083</ele>
        <time>2025-07-15T14:58:25Z</time>
      </trkpt>
      <trkpt lat="43.8505" lon="6.7305">
        <ele>1083.6</ele>
        <time>2025-07-15T14:58:29Z</time>
      </trkpt>
      <trkpt lat="43.85048" lon="6.73053">
        <ele>1084</ele>
        <time>2025-07-15T14:58:30Z</time>
      </trkpt>
      <trkpt lat="43.85038" lon="6.73062">
        <ele>1084.6</ele>
        <time>2025-07-15T14:58:33Z</time>
      </trkpt>
      <trkpt lat="43.85032" lon="6.73067">
        <ele>1085</ele>
        <time>2025-07-15T14:58:35Z</time>
      </trkpt>
      <trkpt lat="43.85032" lon="6.73066">
        <ele>1085.2</ele>
        <time>2025-07-15T14:58:37Z</time>
      </trkpt>
      <trkpt lat="43.85022" lon="6.73102">
        <ele>1085.8</ele>
        <time>2025-07-15T14:58:42Z</time>
      </trkpt>
      <trkpt lat="43.85017" lon="6.73107">
        <ele>1086.2</ele>
        <time>2025-07-15T14:58:44Z</time>
      </trkpt>
      <trkpt lat="43.85015" lon="6.73109">
        <ele>1086.4</ele>
        <time>2025-07-15T14:58:45Z</time>
      </trkpt>
      <trkpt lat="43.84999" lon="6.73128">
        <ele>1086.6</ele>
        <time>2025-07-15T14:58:48Z</time>
      </trkpt>
      <trkpt lat="43.84996" lon="6.73129">
        <ele>1086.6</ele>
        <time>2025-07-15T14:58:49Z</time>
      </trkpt>
      <trkpt lat="43.84989" lon="6.73131">
        <ele>1087</ele>
        <time>2025-07-15T14:58:51Z</time>
      </trkpt>
      <trkpt lat="43.8498" lon="6.73133">
        <ele>1087</ele>
        <time>2025-07-15T14:58:52Z</time>
      </trkpt>
      <trkpt lat="43.84964" lon="6.73134">
        <ele>1087.6</ele>
        <time>2025-07-15T14:58:54Z</time>
      </trkpt>
      <trkpt lat="43.84959" lon="6.73133">
        <ele>1087.4</ele>
        <time>2025-07-15T14:58:55Z</time>
      </trkpt>
      <trkpt lat="43.84952" lon="6.73125">
        <ele>1087.8</ele>
        <time>2025-07-15T14:58:57Z</time>
      </trkpt>
      <trkpt lat="43.84935" lon="6.73114">
        <ele>1088.6</ele>
        <time>2025-07-15T14:59:01Z</time>
      </trkpt>
      <trkpt lat="43.84928" lon="6.73111">
        <ele>1088.6</ele>
        <time>2025-07-15T14:59:03Z</time>
      </trkpt>
      <trkpt lat="43.84912" lon="6.73103">
        <ele>1089.4</ele>
        <time>2025-07-15T14:59:08Z</time>
      </trkpt>
      <trkpt lat="43.84902" lon="6.73099">
        <ele>1090</ele>
        <time>2025-07-15T14:59:11Z</time>
      </trkpt>
      <trkpt lat="43.84893" lon="6.73095">
        <ele>1090.4</ele>
        <time>2025-07-15T14:59:14Z</time>
      </trkpt>
      <trkpt lat="43.84881" lon="6.73091">
        <ele>1090.8</ele>
        <time>2025-07-15T14:59:18Z</time>
      </trkpt>
      <trkpt lat="43.84869" lon="6.73085">
        <ele>1091.4</ele>
        <time>2025-07-15T14:59:22Z</time>
      </trkpt>
      <trkpt lat="43.84851" lon="6.73073">
        <ele>1092.4</ele>
        <time>2025-07-15T14:59:29Z</time>
      </trkpt>
      <trkpt lat="43.84849" lon="6.73071">
        <ele>1092.4</ele>
        <time>2025-07-15T14:59:30Z</time>
      </trkpt>
      <trkpt lat="43.84839" lon="6.73062">
        <ele>1093.2</ele>
        <time>2025-07-15T14:59:34Z</time>
      </trkpt>
      <trkpt lat="43.8483" lon="6.73053">
        <ele>1093.6</ele>
        <time>2025-07-15T14:59:38Z</time>
      </trkpt>
      <trkpt lat="43.84822" lon="6.7304">
        <ele>1094.4</ele>
        <time>2025-07-15T14:59:43Z</time>
      </trkpt>
      <trkpt lat="43.84819" lon="6.73034">
        <ele>1094.6</ele>
        <time>2025-07-15T14:59:45Z</time>
      </trkpt>
      <trkpt lat="43.84811" lon="6.7302">
        <ele>1095</ele>
        <time>2025-07-15T14:59:50Z</time>
      </trkpt>
      <trkpt lat="43.84799" lon="6.73">
        <ele>1095.8</ele>
        <time>2025-07-15T14:59:57Z</time>
      </trkpt>
      <trkpt lat="43.84796" lon="6.72994">
        <ele>1095.8</ele>
        <time>2025-07-15T14:59:59Z</time>
      </trkpt>
      <trkpt lat="43.84789" lon="6.72982">
        <ele>1096.8</ele>
        <time>2025-07-15T15:00:03Z</time>
      </trkpt>
      <trkpt lat="43.8478" lon="6.72966">
        <ele>1097.8</ele>
        <time>2025-07-15T15:00:09Z</time>
      </trkpt>
      <trkpt lat="43.84778" lon="6.72963">
        <ele>1097.8</ele>
        <time>2025-07-15T15:00:10Z</time>
      </trkpt>
      <trkpt lat="43.84763" lon="6.72937">
        <ele>1099</ele>
        <time>2025-07-15T15:00:19Z</time>
      </trkpt>
      <trkpt lat="43.8476" lon="6.72931">
        <ele>1099.2</ele>
        <time>2025-07-15T15:00:21Z</time>
      </trkpt>
      <trkpt lat="43.8475" lon="6.72914">
        <ele>1100</ele>
        <time>2025-07-15T15:00:27Z</time>
      </trkpt>
      <trkpt lat="43.84748" lon="6.72911">
        <ele>1100.2</ele>
        <time>2025-07-15T15:00:28Z</time>
      </trkpt>
      <trkpt lat="43.84742" lon="6.72899">
        <ele>1101.4</ele>
        <time>2025-07-15T15:00:32Z</time>
      </trkpt>
      <trkpt lat="43.84734" lon="6.72884">
        <ele>1102.4</ele>
        <time>2025-07-15T15:00:37Z</time>
      </trkpt>
      <trkpt lat="43.8473" lon="6.72878">
        <ele>1102.6</ele>
        <time>2025-07-15T15:00:39Z</time>
      </trkpt>
      <trkpt lat="43.84717" lon="6.72856">
        <ele>1103.4</ele>
        <time>2025-07-15T15:00:47Z</time>
      </trkpt>
      <trkpt lat="43.84706" lon="6.72835">
        <ele>1104.4</ele>
        <time>2025-07-15T15:00:56Z</time>
      </trkpt>
      <trkpt lat="43.84697" lon="6.72815">
        <ele>1104.6</ele>
        <time>2025-07-15T15:01:03Z</time>
      </trkpt>
      <trkpt lat="43.84686" lon="6.72795">
        <ele>1104.6</ele>
        <time>2025-07-15T15:01:11Z</time>
      </trkpt>
      <trkpt lat="43.84677" lon="6.72782">
        <ele>1104.8</ele>
        <time>2025-07-15T15:01:17Z</time>
      </trkpt>
      <trkpt lat="43.8467" lon="6.72774">
        <ele>1104.4</ele>
        <time>2025-07-15T15:01:23Z</time>
      </trkpt>
      <trkpt lat="43.8467" lon="6.72774">
        <ele>1104.4</ele>
        <time>2025-07-15T15:01:24Z</time>
      </trkpt>
      <trkpt lat="43.8467" lon="6.72778">
        <ele>1104.2</ele>
        <time>2025-07-15T15:01:43Z</time>
      </trkpt>
      <trkpt lat="43.84673" lon="6.72779">
        <ele>1104.4</ele>
        <time>2025-07-15T15:01:45Z</time>
      </trkpt>
      <trkpt lat="43.84681" lon="6.72794">
        <ele>1104.8</ele>
        <time>2025-07-15T15:01:53Z</time>
      </trkpt>
      <trkpt lat="43.84693" lon="6.72809">
        <ele>1104.8</ele>
        <time>2025-07-15T15:02:00Z</time>
      </trkpt>
      <trkpt lat="43.84702" lon="6.72829">
        <ele>1104.8</ele>
        <time>2025-07-15T15:02:06Z</time>
      </trkpt>
      <trkpt lat="43.84709" lon="6.72848">
        <ele>1104.6</ele>
        <time>2025-07-15T15:02:12Z</time>
      </trkpt>
      <trkpt lat="43.84716" lon="6.7286">
        <ele>1104.4</ele>
        <time>2025-07-15T15:02:17Z</time>
      </trkpt>
      <trkpt lat="43.84729" lon="6.72884">
        <ele>1104</ele>
        <time>2025-07-15T15:02:24Z</time>
      </trkpt>
      <trkpt lat="43.84735" lon="6.72895">
        <ele>1103.6</ele>
        <time>2025-07-15T15:02:28Z</time>
      </trkpt>
      <trkpt lat="43.84735" lon="6.72897">
        <ele>1103.4</ele>
        <time>2025-07-15T15:02:29Z</time>
      </trkpt>
      <trkpt lat="43.84735" lon="6.72899">
        <ele>1103.4</ele>
        <time>2025-07-15T15:02:30Z</time>
      </trkpt>
      <trkpt lat="43.84734" lon="6.72903">
        <ele>1103.2</ele>
        <time>2025-07-15T15:02:32Z</time>
      </trkpt>
      <trkpt lat="43.84731" lon="6.72903">
        <ele>1103.2</ele>
        <time>2025-07-15T15:02:34Z</time>
      </trkpt>
      <trkpt lat="43.84726" lon="6.72902">
        <ele>1102.4</ele>
        <time>2025-07-15T15:02:39Z</time>
      </trkpt>
      <trkpt lat="43.84724" lon="6.72902">
        <ele>1102.4</ele>
        <time>2025-07-15T15:02:40Z</time>
      </trkpt>
      <trkpt lat="43.84715" lon="6.729">
        <ele>1101.8</ele>
        <time>2025-07-15T15:02:45Z</time>
      </trkpt>
      <trkpt lat="43.84709" lon="6.72898">
        <ele>1101.4</ele>
        <time>2025-07-15T15:02:48Z</time>
      </trkpt>
      <trkpt lat="43.84706" lon="6.72897">
        <ele>1101.2</ele>
        <time>2025-07-15T15:02:50Z</time>
      </trkpt>
      <trkpt lat="43.84706" lon="6.72899">
        <ele>1101.2</ele>
        <time>2025-07-15T15:02:51Z</time>
      </trkpt>
      <trkpt lat="43.84708" lon="6.72899">
        <ele>1101</ele>
        <time>2025-07-15T15:02:54Z</time>
      </trkpt>
      <trkpt lat="43.84708" lon="6.72898">
        <ele>1101</ele>
        <time>2025-07-15T15:02:55Z</time>
      </trkpt>
      <trkpt lat="43.84708" lon="6.72898">
        <ele>1101</ele>
        <time>2025-07-15T15:02:58Z</time>
      </trkpt>
      <trkpt lat="43.84707" lon="6.72892">
        <ele>1103</ele>
        <time>2025-07-15T15:21:19Z</time>
      </trkpt>
      <trkpt lat="43.84693" lon="6.72881">
        <ele>1103.2</ele>
        <time>2025-07-15T15:21:26Z</time>
      </trkpt>
      <trkpt lat="43.84689" lon="6.72861">
        <ele>1103.2</ele>
        <time>2025-07-15T15:21:32Z</time>
      </trkpt>
      <trkpt lat="43.84687" lon="6.72836">
        <ele>1103.6</ele>
        <time>2025-07-15T15:21:40Z</time>
      </trkpt>
      <trkpt lat="43.84687" lon="6.72822">
        <ele>1104.4</ele>
        <time>2025-07-15T15:21:45Z</time>
      </trkpt>
      <trkpt lat="43.84688" lon="6.7282">
        <ele>1104.6</ele>
        <time>2025-07-15T15:21:46Z</time>
      </trkpt>
      <trkpt lat="43.84688" lon="6.72817">
        <ele>1104.8</ele>
        <time>2025-07-15T15:21:47Z</time>
      </trkpt>
      <trkpt lat="43.84686" lon="6.72808">
        <ele>1105.4</ele>
        <time>2025-07-15T15:21:50Z</time>
      </trkpt>
      <trkpt lat="43.84684" lon="6.72806">
        <ele>1105.4</ele>
        <time>2025-07-15T15:21:51Z</time>
      </trkpt>
      <trkpt lat="43.84673" lon="6.72794">
        <ele>1105.4</ele>
        <time>2025-07-15T15:21:56Z</time>
      </trkpt>
      <trkpt lat="43.8465" lon="6.72782">
        <ele>1105.2</ele>
        <time>2025-07-15T15:22:02Z</time>
      </trkpt>
      <trkpt lat="43.8464" lon="6.72781">
        <ele>1105</ele>
        <time>2025-07-15T15:22:04Z</time>
      </trkpt>
      <trkpt lat="43.84625" lon="6.72784">
        <ele>1105</ele>
        <time>2025-07-15T15:22:07Z</time>
      </trkpt>
      <trkpt lat="43.84614" lon="6.7279">
        <ele>1104.8</ele>
        <time>2025-07-15T15:22:09Z</time>
      </trkpt>
      <trkpt lat="43.84603" lon="6.72799">
        <ele>1104.6</ele>
        <time>2025-07-15T15:22:11Z</time>
      </trkpt>
      <trkpt lat="43.84596" lon="6.72805">
        <ele>1104.4</ele>
        <time>2025-07-15T15:22:12Z</time>
      </trkpt>
      <trkpt lat="43.84574" lon="6.72827">
        <ele>1103.4</ele>
        <time>2025-07-15T15:22:16Z</time>
      </trkpt>
      <trkpt lat="43.84567" lon="6.72835">
        <ele>1103</ele>
        <time>2025-07-15T15:22:17Z</time>
      </trkpt>
      <trkpt lat="43.8453" lon="6.72873">
        <ele>1102.2</ele>
        <time>2025-07-15T15:22:23Z</time>
      </trkpt>
      <trkpt lat="43.84524" lon="6.7288">
        <ele>1101.8</ele>
        <time>2025-07-15T15:22:24Z</time>
      </trkpt>
      <trkpt lat="43.84511" lon="6.72894">
        <ele>1100.8</ele>
        <time>2025-07-15T15:22:26Z</time>
      </trkpt>
      <trkpt lat="43.84492" lon="6.72914">
        <ele>1099.8</ele>
        <time>2025-07-15T15:22:29Z</time>
      </trkpt>
      <trkpt lat="43.84482" lon="6.72929">
        <ele>1099.2</ele>
        <time>2025-07-15T15:22:31Z</time>
      </trkpt>
      <trkpt lat="43.84469" lon="6.72952">
        <ele>1098.6</ele>
        <time>2025-07-15T15:22:34Z</time>
      </trkpt>
      <trkpt lat="43.84454" lon="6.72982">
        <ele>1098.6</ele>
        <time>2025-07-15T15:22:38Z</time>
      </trkpt>
      <trkpt lat="43.84443" lon="6.73012">
        <ele>1098.6</ele>
        <time>2025-07-15T15:22:42Z</time>
      </trkpt>
      <trkpt lat="43.84441" lon="6.7302">
        <ele>1098.6</ele>
        <time>2025-07-15T15:22:43Z</time>
      </trkpt>
      <trkpt lat="43.84441" lon="6.73028">
        <ele>1098.8</ele>
        <time>2025-07-15T15:22:44Z</time>
      </trkpt>
      <trkpt lat="43.84442" lon="6.73036">
        <ele>1098.8</ele>
        <time>2025-07-15T15:22:45Z</time>
      </trkpt>
      <trkpt lat="43.84442" lon="6.73045">
        <ele>1099</ele>
        <time>2025-07-15T15:22:46Z</time>
      </trkpt>
      <trkpt lat="43.84443" lon="6.73051">
        <ele>1099.2</ele>
        <time>2025-07-15T15:22:47Z</time>
      </trkpt>
      <trkpt lat="43.8445" lon="6.7308">
        <ele>1099.8</ele>
        <time>2025-07-15T15:22:51Z</time>
      </trkpt>
      <trkpt lat="43.84453" lon="6.73088">
        <ele>1100</ele>
        <time>2025-07-15T15:22:52Z</time>
      </trkpt>
      <trkpt lat="43.84455" lon="6.73095">
        <ele>1100</ele>
        <time>2025-07-15T15:22:53Z</time>
      </trkpt>
      <trkpt lat="43.84468" lon="6.73137">
        <ele>1100.6</ele>
        <time>2025-07-15T15:23:00Z</time>
      </trkpt>
      <trkpt lat="43.84469" lon="6.73166">
        <ele>1101</ele>
        <time>2025-07-15T15:23:05Z</time>
      </trkpt>
      <trkpt lat="43.8447" lon="6.73171">
        <ele>1101.2</ele>
        <time>2025-07-15T15:23:06Z</time>
      </trkpt>
      <trkpt lat="43.84472" lon="6.73205">
        <ele>1102.4</ele>
        <time>2025-07-15T15:23:13Z</time>
      </trkpt>
      <trkpt lat="43.84474" lon="6.73232">
        <ele>1103.4</ele>
        <time>2025-07-15T15:23:19Z</time>
      </trkpt>
      <trkpt lat="43.84475" lon="6.7324">
        <ele>1103.6</ele>
        <time>2025-07-15T15:23:21Z</time>
      </trkpt>
      <trkpt lat="43.84476" lon="6.73262">
        <ele>1104.4</ele>
        <time>2025-07-15T15:23:26Z</time>
      </trkpt>
      <trkpt lat="43.84478" lon="6.73275">
        <ele>1105</ele>
        <time>2025-07-15T15:23:29Z</time>
      </trkpt>
      <trkpt lat="43.84478" lon="6.73293">
        <ele>1105.6</ele>
        <time>2025-07-15T15:23:33Z</time>
      </trkpt>
      <trkpt lat="43.8448" lon="6.73306">
        <ele>1106.2</ele>
        <time>2025-07-15T15:23:36Z</time>
      </trkpt>
      <trkpt lat="43.8448" lon="6.73319">
        <ele>1106.6</ele>
        <time>2025-07-15T15:23:39Z</time>
      </trkpt>
      <trkpt lat="43.84483" lon="6.73346">
        <ele>1107.4</ele>
        <time>2025-07-15T15:23:45Z</time>
      </trkpt>
      <trkpt lat="43.84484" lon="6.73366">
        <ele>1107.8</ele>
        <time>2025-07-15T15:23:49Z</time>
      </trkpt>
      <trkpt lat="43.84483" lon="6.73387">
        <ele>1108.2</ele>
        <time>2025-07-15T15:23:53Z</time>
      </trkpt>
      <trkpt lat="43.84481" lon="6.73433">
        <ele>1108.8</ele>
        <time>2025-07-15T15:24:01Z</time>
      </trkpt>
      <trkpt lat="43.84479" lon="6.73484">
        <ele>1109</ele>
        <time>2025-07-15T15:24:09Z</time>
      </trkpt>
      <trkpt lat="43.84475" lon="6.73534">
        <ele>1109</ele>
        <time>2025-07-15T15:24:16Z</time>
      </trkpt>
      <trkpt lat="43.8447" lon="6.73591">
        <ele>1108</ele>
        <time>2025-07-15T15:24:23Z</time>
      </trkpt>
      <trkpt lat="43.84469" lon="6.73601">
        <ele>1107.8</ele>
        <time>2025-07-15T15:24:24Z</time>
      </trkpt>
      <trkpt lat="43.84468" lon="6.73645">
        <ele>1107</ele>
        <time>2025-07-15T15:24:29Z</time>
      </trkpt>
      <trkpt lat="43.84468" lon="6.73664">
        <ele>1106.6</ele>
        <time>2025-07-15T15:24:31Z</time>
      </trkpt>
      <trkpt lat="43.84467" lon="6.73704">
        <ele>1106</ele>
        <time>2025-07-15T15:24:35Z</time>
      </trkpt>
      <trkpt lat="43.84467" lon="6.73727">
        <ele>1105.4</ele>
        <time>2025-07-15T15:24:37Z</time>
      </trkpt>
      <trkpt lat="43.84469" lon="6.73775">
        <ele>1104.4</ele>
        <time>2025-07-15T15:24:42Z</time>
      </trkpt>
      <trkpt lat="43.84471" lon="6.73792">
        <ele>1104.2</ele>
        <time>2025-07-15T15:24:44Z</time>
      </trkpt>
      <trkpt lat="43.84473" lon="6.73837">
        <ele>1103.8</ele>
        <time>2025-07-15T15:24:49Z</time>
      </trkpt>
      <trkpt lat="43.84472" lon="6.73855">
        <ele>1103.8</ele>
        <time>2025-07-15T15:24:52Z</time>
      </trkpt>
      <trkpt lat="43.84468" lon="6.73879">
        <ele>1103.4</ele>
        <time>2025-07-15T15:24:55Z</time>
      </trkpt>
      <trkpt lat="43.84454" lon="6.73917">
        <ele>1103.2</ele>
        <time>2025-07-15T15:25:00Z</time>
      </trkpt>
      <trkpt lat="43.84452" lon="6.73923">
        <ele>1103.2</ele>
        <time>2025-07-15T15:25:01Z</time>
      </trkpt>
      <trkpt lat="43.84431" lon="6.73981">
        <ele>1102.6</ele>
        <time>2025-07-15T15:25:09Z</time>
      </trkpt>
      <trkpt lat="43.84417" lon="6.74045">
        <ele>1102.8</ele>
        <time>2025-07-15T15:25:18Z</time>
      </trkpt>
      <trkpt lat="43.84405" lon="6.74107">
        <ele>1103.6</ele>
        <time>2025-07-15T15:25:27Z</time>
      </trkpt>
      <trkpt lat="43.84399" lon="6.74166">
        <ele>1104</ele>
        <time>2025-07-15T15:25:35Z</time>
      </trkpt>
      <trkpt lat="43.84394" lon="6.74187">
        <ele>1104.2</ele>
        <time>2025-07-15T15:25:38Z</time>
      </trkpt>
      <trkpt lat="43.84386" lon="6.74207">
        <ele>1104.2</ele>
        <time>2025-07-15T15:25:41Z</time>
      </trkpt>
      <trkpt lat="43.84374" lon="6.74224">
        <ele>1104.2</ele>
        <time>2025-07-15T15:25:44Z</time>
      </trkpt>
      <trkpt lat="43.84366" lon="6.74235">
        <ele>1104.2</ele>
        <time>2025-07-15T15:25:46Z</time>
      </trkpt>
      <trkpt lat="43.84362" lon="6.7424">
        <ele>1104.2</ele>
        <time>2025-07-15T15:25:47Z</time>
      </trkpt>
      <trkpt lat="43.84347" lon="6.74261">
        <ele>1104.4</ele>
        <time>2025-07-15T15:25:51Z</time>
      </trkpt>
      <trkpt lat="43.84326" lon="6.74284">
        <ele>1104.8</ele>
        <time>2025-07-15T15:25:56Z</time>
      </trkpt>
      <trkpt lat="43.84311" lon="6.74301">
        <ele>1105.2</ele>
        <time>2025-07-15T15:26:00Z</time>
      </trkpt>
      <trkpt lat="43.84296" lon="6.74318">
        <ele>1106.2</ele>
        <time>2025-07-15T15:26:04Z</time>
      </trkpt>
      <trkpt lat="43.84292" lon="6.74322">
        <ele>1106.2</ele>
        <time>2025-07-15T15:26:05Z</time>
      </trkpt>
      <trkpt lat="43.84282" lon="6.74344">
        <ele>1106.8</ele>
        <time>2025-07-15T15:26:09Z</time>
      </trkpt>
      <trkpt lat="43.84279" lon="6.74349">
        <ele>1106.8</ele>
        <time>2025-07-15T15:26:10Z</time>
      </trkpt>
      <trkpt lat="43.84267" lon="6.74367">
        <ele>1107</ele>
        <time>2025-07-15T15:26:14Z</time>
      </trkpt>
      <trkpt lat="43.84251" lon="6.74381">
        <ele>1107.2</ele>
        <time>2025-07-15T15:26:18Z</time>
      </trkpt>
      <trkpt lat="43.84237" lon="6.74388">
        <ele>1107.2</ele>
        <time>2025-07-15T15:26:21Z</time>
      </trkpt>
      <trkpt lat="43.84228" lon="6.74392">
        <ele>1107.2</ele>
        <time>2025-07-15T15:26:23Z</time>
      </trkpt>
      <trkpt lat="43.84207" lon="6.74399">
        <ele>1107.2</ele>
        <time>2025-07-15T15:26:27Z</time>
      </trkpt>
      <trkpt lat="43.84202" lon="6.74401">
        <ele>1107.4</ele>
        <time>2025-07-15T15:26:28Z</time>
      </trkpt>
      <trkpt lat="43.84157" lon="6.74419">
        <ele>1108</ele>
        <time>2025-07-15T15:26:37Z</time>
      </trkpt>
      <trkpt lat="43.84136" lon="6.74431">
        <ele>1108.6</ele>
        <time>2025-07-15T15:26:42Z</time>
      </trkpt>
      <trkpt lat="43.84132" lon="6.74433">
        <ele>1108.8</ele>
        <time>2025-07-15T15:26:43Z</time>
      </trkpt>
      <trkpt lat="43.84128" lon="6.74436">
        <ele>1109</ele>
        <time>2025-07-15T15:26:44Z</time>
      </trkpt>
      <trkpt lat="43.84109" lon="6.74448">
        <ele>1109.6</ele>
        <time>2025-07-15T15:26:49Z</time>
      </trkpt>
      <trkpt lat="43.84101" lon="6.74454">
        <ele>1109.8</ele>
        <time>2025-07-15T15:26:51Z</time>
      </trkpt>
      <trkpt lat="43.84059" lon="6.74476">
        <ele>1110.4</ele>
        <time>2025-07-15T15:27:02Z</time>
      </trkpt>
      <trkpt lat="43.84007" lon="6.745">
        <ele>1110.4</ele>
        <time>2025-07-15T15:27:15Z</time>
      </trkpt>
      <trkpt lat="43.83988" lon="6.74508">
        <ele>1110.8</ele>
        <time>2025-07-15T15:27:20Z</time>
      </trkpt>
      <trkpt lat="43.83975" lon="6.74513">
        <ele>1111.4</ele>
        <time>2025-07-15T15:27:24Z</time>
      </trkpt>
      <trkpt lat="43.83957" lon="6.74518">
        <ele>1112</ele>
        <time>2025-07-15T15:27:30Z</time>
      </trkpt>
      <trkpt lat="43.83945" lon="6.74519">
        <ele>1112.8</ele>
        <time>2025-07-15T15:27:35Z</time>
      </trkpt>
      <trkpt lat="43.8394" lon="6.74519">
        <ele>1113.2</ele>
        <time>2025-07-15T15:27:37Z</time>
      </trkpt>
      <trkpt lat="43.83929" lon="6.74516">
        <ele>1114.4</ele>
        <time>2025-07-15T15:27:42Z</time>
      </trkpt>
      <trkpt lat="43.8392" lon="6.74513">
        <ele>1115.2</ele>
        <time>2025-07-15T15:27:46Z</time>
      </trkpt>
      <trkpt lat="43.83918" lon="6.74512">
        <ele>1115.6</ele>
        <time>2025-07-15T15:27:47Z</time>
      </trkpt>
      <trkpt lat="43.83909" lon="6.74509">
        <ele>1116.2</ele>
        <time>2025-07-15T15:27:51Z</time>
      </trkpt>
      <trkpt lat="43.83897" lon="6.74506">
        <ele>1116.6</ele>
        <time>2025-07-15T15:27:56Z</time>
      </trkpt>
      <trkpt lat="43.83892" lon="6.74504">
        <ele>1116.8</ele>
        <time>2025-07-15T15:27:58Z</time>
      </trkpt>
      <trkpt lat="43.83876" lon="6.74499">
        <ele>1117.2</ele>
        <time>2025-07-15T15:28:04Z</time>
      </trkpt>
      <trkpt lat="43.83853" lon="6.74494">
        <ele>1117</ele>
        <time>2025-07-15T15:28:11Z</time>
      </trkpt>
      <trkpt lat="43.83824" lon="6.74487">
        <ele>1116.4</ele>
        <time>2025-07-15T15:28:19Z</time>
      </trkpt>
      <trkpt lat="43.8382" lon="6.74486">
        <ele>1116.4</ele>
        <time>2025-07-15T15:28:20Z</time>
      </trkpt>
      <trkpt lat="43.83805" lon="6.74486">
        <ele>1116.4</ele>
        <time>2025-07-15T15:28:23Z</time>
      </trkpt>
      <trkpt lat="43.83799" lon="6.74487">
        <ele>1116.4</ele>
        <time>2025-07-15T15:28:24Z</time>
      </trkpt>
      <trkpt lat="43.83764" lon="6.74496">
        <ele>1115.6</ele>
        <time>2025-07-15T15:28:30Z</time>
      </trkpt>
      <trkpt lat="43.83758" lon="6.74499">
        <ele>1115.4</ele>
        <time>2025-07-15T15:28:31Z</time>
      </trkpt>
      <trkpt lat="43.83747" lon="6.7451">
        <ele>1114.6</ele>
        <time>2025-07-15T15:28:33Z</time>
      </trkpt>
      <trkpt lat="43.83742" lon="6.74517">
        <ele>1114.4</ele>
        <time>2025-07-15T15:28:34Z</time>
      </trkpt>
      <trkpt lat="43.83737" lon="6.74525">
        <ele>1114.2</ele>
        <time>2025-07-15T15:28:35Z</time>
      </trkpt>
      <trkpt lat="43.83728" lon="6.74554">
        <ele>1113.8</ele>
        <time>2025-07-15T15:28:38Z</time>
      </trkpt>
      <trkpt lat="43.83723" lon="6.74575">
        <ele>1113.2</ele>
        <time>2025-07-15T15:28:40Z</time>
      </trkpt>
      <trkpt lat="43.83712" lon="6.74624">
        <ele>1112.4</ele>
        <time>2025-07-15T15:28:45Z</time>
      </trkpt>
      <trkpt lat="43.83706" lon="6.74641">
        <ele>1112.4</ele>
        <time>2025-07-15T15:28:47Z</time>
      </trkpt>
      <trkpt lat="43.83698" lon="6.74657">
        <ele>1112.4</ele>
        <time>2025-07-15T15:28:49Z</time>
      </trkpt>
      <trkpt lat="43.83689" lon="6.74671">
        <ele>1112.4</ele>
        <time>2025-07-15T15:28:51Z</time>
      </trkpt>
      <trkpt lat="43.83675" lon="6.7469">
        <ele>1112.4</ele>
        <time>2025-07-15T15:28:54Z</time>
      </trkpt>
      <trkpt lat="43.83647" lon="6.74736">
        <ele>1113.2</ele>
        <time>2025-07-15T15:29:01Z</time>
      </trkpt>
      <trkpt lat="43.83644" lon="6.74743">
        <ele>1113.4</ele>
        <time>2025-07-15T15:29:02Z</time>
      </trkpt>
      <trkpt lat="43.83637" lon="6.74765">
        <ele>1113.8</ele>
        <time>2025-07-15T15:29:05Z</time>
      </trkpt>
      <trkpt lat="43.83635" lon="6.74773">
        <ele>1113.8</ele>
        <time>2025-07-15T15:29:06Z</time>
      </trkpt>
      <trkpt lat="43.8363" lon="6.74791">
        <ele>1114</ele>
        <time>2025-07-15T15:29:09Z</time>
      </trkpt>
      <trkpt lat="43.83626" lon="6.74811">
        <ele>1114.6</ele>
        <time>2025-07-15T15:29:12Z</time>
      </trkpt>
      <trkpt lat="43.83618" lon="6.74845">
        <ele>1115</ele>
        <time>2025-07-15T15:29:17Z</time>
      </trkpt>
      <trkpt lat="43.83617" lon="6.74852">
        <ele>1115</ele>
        <time>2025-07-15T15:29:18Z</time>
      </trkpt>
      <trkpt lat="43.83614" lon="6.74866">
        <ele>1115.2</ele>
        <time>2025-07-15T15:29:20Z</time>
      </trkpt>
      <trkpt lat="43.83609" lon="6.74894">
        <ele>1115.6</ele>
        <time>2025-07-15T15:29:24Z</time>
      </trkpt>
      <trkpt lat="43.83607" lon="6.74908">
        <ele>1115.6</ele>
        <time>2025-07-15T15:29:26Z</time>
      </trkpt>
      <trkpt lat="43.83606" lon="6.74915">
        <ele>1115.6</ele>
        <time>2025-07-15T15:29:27Z</time>
      </trkpt>
      <trkpt lat="43.83597" lon="6.7497">
        <ele>1116</ele>
        <time>2025-07-15T15:29:34Z</time>
      </trkpt>
      <trkpt lat="43.83594" lon="6.74985">
        <ele>1116.2</ele>
        <time>2025-07-15T15:29:36Z</time>
      </trkpt>
      <trkpt lat="43.83591" lon="6.75009">
        <ele>1116.4</ele>
        <time>2025-07-15T15:29:39Z</time>
      </trkpt>
      <trkpt lat="43.83587" lon="6.75033">
        <ele>1116.6</ele>
        <time>2025-07-15T15:29:42Z</time>
      </trkpt>
      <trkpt lat="43.83583" lon="6.75055">
        <ele>1116.8</ele>
        <time>2025-07-15T15:29:45Z</time>
      </trkpt>
      <trkpt lat="43.83579" lon="6.75075">
        <ele>1117.2</ele>
        <time>2025-07-15T15:29:48Z</time>
      </trkpt>
      <trkpt lat="43.83573" lon="6.75104">
        <ele>1118.2</ele>
        <time>2025-07-15T15:29:53Z</time>
      </trkpt>
      <trkpt lat="43.83572" lon="6.7511">
        <ele>1118.4</ele>
        <time>2025-07-15T15:29:54Z</time>
      </trkpt>
      <trkpt lat="43.83568" lon="6.75136">
        <ele>1119.4</ele>
        <time>2025-07-15T15:29:59Z</time>
      </trkpt>
      <trkpt lat="43.83563" lon="6.75162">
        <ele>1120.2</ele>
        <time>2025-07-15T15:30:04Z</time>
      </trkpt>
      <trkpt lat="43.83562" lon="6.75167">
        <ele>1120.4</ele>
        <time>2025-07-15T15:30:05Z</time>
      </trkpt>
      <trkpt lat="43.83555" lon="6.75204">
        <ele>1121</ele>
        <time>2025-07-15T15:30:12Z</time>
      </trkpt>
      <trkpt lat="43.83551" lon="6.75224">
        <ele>1121.4</ele>
        <time>2025-07-15T15:30:16Z</time>
      </trkpt>
      <trkpt lat="43.83543" lon="6.75257">
        <ele>1122.6</ele>
        <time>2025-07-15T15:30:23Z</time>
      </trkpt>
      <trkpt lat="43.83531" lon="6.75315">
        <ele>1123.6</ele>
        <time>2025-07-15T15:30:35Z</time>
      </trkpt>
      <trkpt lat="43.83528" lon="6.75325">
        <ele>1123.6</ele>
        <time>2025-07-15T15:30:36Z</time>
      </trkpt>
      <trkpt lat="43.83519" lon="6.75356">
        <ele>1124.6</ele>
        <time>2025-07-15T15:30:42Z</time>
      </trkpt>
      <trkpt lat="43.83518" lon="6.75361">
        <ele>1124.8</ele>
        <time>2025-07-15T15:30:43Z</time>
      </trkpt>
      <trkpt lat="43.83507" lon="6.75397">
        <ele>1125.2</ele>
        <time>2025-07-15T15:30:50Z</time>
      </trkpt>
      <trkpt lat="43.83496" lon="6.75438">
        <ele>1125.6</ele>
        <time>2025-07-15T15:30:58Z</time>
      </trkpt>
      <trkpt lat="43.83492" lon="6.75454">
        <ele>1125.8</ele>
        <time>2025-07-15T15:31:01Z</time>
      </trkpt>
      <trkpt lat="43.83484" lon="6.75483">
        <ele>1126.2</ele>
        <time>2025-07-15T15:31:06Z</time>
      </trkpt>
      <trkpt lat="43.83483" lon="6.75516">
        <ele>1126.8</ele>
        <time>2025-07-15T15:31:12Z</time>
      </trkpt>
      <trkpt lat="43.83482" lon="6.75522">
        <ele>1126.8</ele>
        <time>2025-07-15T15:31:13Z</time>
      </trkpt>
      <trkpt lat="43.83475" lon="6.75556">
        <ele>1127.4</ele>
        <time>2025-07-15T15:31:19Z</time>
      </trkpt>
      <trkpt lat="43.83469" lon="6.75576">
        <ele>1127.8</ele>
        <time>2025-07-15T15:31:23Z</time>
      </trkpt>
      <trkpt lat="43.83466" lon="6.75591">
        <ele>1128.2</ele>
        <time>2025-07-15T15:31:26Z</time>
      </trkpt>
      <trkpt lat="43.83454" lon="6.7564">
        <ele>1128.8</ele>
        <time>2025-07-15T15:31:35Z</time>
      </trkpt>
      <trkpt lat="43.83453" lon="6.75652">
        <ele>1128.8</ele>
        <time>2025-07-15T15:31:37Z</time>
      </trkpt>
      <trkpt lat="43.83447" lon="6.75691">
        <ele>1129</ele>
        <time>2025-07-15T15:31:43Z</time>
      </trkpt>
      <trkpt lat="43.8344" lon="6.75745">
        <ele>1128.8</ele>
        <time>2025-07-15T15:31:51Z</time>
      </trkpt>
      <trkpt lat="43.83429" lon="6.75806">
        <ele>1129</ele>
        <time>2025-07-15T15:32:00Z</time>
      </trkpt>
      <trkpt lat="43.83417" lon="6.75856">
        <ele>1129.8</ele>
        <time>2025-07-15T15:32:08Z</time>
      </trkpt>
      <trkpt lat="43.83413" lon="6.75869">
        <ele>1130.2</ele>
        <time>2025-07-15T15:32:10Z</time>
      </trkpt>
      <trkpt lat="43.83405" lon="6.75894">
        <ele>1131</ele>
        <time>2025-07-15T15:32:14Z</time>
      </trkpt>
      <trkpt lat="43.83396" lon="6.75921">
        <ele>1131.4</ele>
        <time>2025-07-15T15:32:19Z</time>
      </trkpt>
      <trkpt lat="43.83383" lon="6.75954">
        <ele>1132</ele>
        <time>2025-07-15T15:32:25Z</time>
      </trkpt>
      <trkpt lat="43.83377" lon="6.75969">
        <ele>1132.2</ele>
        <time>2025-07-15T15:32:28Z</time>
      </trkpt>
      <trkpt lat="43.83357" lon="6.76009">
        <ele>1133</ele>
        <time>2025-07-15T15:32:36Z</time>
      </trkpt>
      <trkpt lat="43.83343" lon="6.76033">
        <ele>1133.4</ele>
        <time>2025-07-15T15:32:41Z</time>
      </trkpt>
      <trkpt lat="43.83322" lon="6.76066">
        <ele>1133.2</ele>
        <time>2025-07-15T15:32:47Z</time>
      </trkpt>
      <trkpt lat="43.83293" lon="6.76105">
        <ele>1133</ele>
        <time>2025-07-15T15:32:54Z</time>
      </trkpt>
      <trkpt lat="43.83268" lon="6.76139">
        <ele>1133.6</ele>
        <time>2025-07-15T15:33:01Z</time>
      </trkpt>
      <trkpt lat="43.83257" lon="6.76151">
        <ele>1133.8</ele>
        <time>2025-07-15T15:33:04Z</time>
      </trkpt>
      <trkpt lat="43.83234" lon="6.76174">
        <ele>1134.8</ele>
        <time>2025-07-15T15:33:10Z</time>
      </trkpt>
      <trkpt lat="43.83231" lon="6.76178">
        <ele>1135</ele>
        <time>2025-07-15T15:33:11Z</time>
      </trkpt>
      <trkpt lat="43.83204" lon="6.76202">
        <ele>1135.6</ele>
        <time>2025-07-15T15:33:18Z</time>
      </trkpt>
      <trkpt lat="43.83178" lon="6.76216">
        <ele>1136</ele>
        <time>2025-07-15T15:33:24Z</time>
      </trkpt>
      <trkpt lat="43.83173" lon="6.76217">
        <ele>1136</ele>
        <time>2025-07-15T15:33:25Z</time>
      </trkpt>
      <trkpt lat="43.83142" lon="6.76219">
        <ele>1136.2</ele>
        <time>2025-07-15T15:33:31Z</time>
      </trkpt>
      <trkpt lat="43.83131" lon="6.7622">
        <ele>1136.4</ele>
        <time>2025-07-15T15:33:33Z</time>
      </trkpt>
      <trkpt lat="43.83114" lon="6.76225">
        <ele>1136.4</ele>
        <time>2025-07-15T15:33:36Z</time>
      </trkpt>
      <trkpt lat="43.83095" lon="6.76234">
        <ele>1136.2</ele>
        <time>2025-07-15T15:33:39Z</time>
      </trkpt>
      <trkpt lat="43.83083" lon="6.76244">
        <ele>1136.2</ele>
        <time>2025-07-15T15:33:41Z</time>
      </trkpt>
      <trkpt lat="43.83072" lon="6.76257">
        <ele>1135.8</ele>
        <time>2025-07-15T15:33:43Z</time>
      </trkpt>
      <trkpt lat="43.8306" lon="6.76271">
        <ele>1135.6</ele>
        <time>2025-07-15T15:33:45Z</time>
      </trkpt>
      <trkpt lat="43.83046" lon="6.76281">
        <ele>1135.2</ele>
        <time>2025-07-15T15:33:47Z</time>
      </trkpt>
      <trkpt lat="43.83032" lon="6.76287">
        <ele>1134.8</ele>
        <time>2025-07-15T15:33:49Z</time>
      </trkpt>
      <trkpt lat="43.8302" lon="6.76293">
        <ele>1134.6</ele>
        <time>2025-07-15T15:33:51Z</time>
      </trkpt>
      <trkpt lat="43.83008" lon="6.763">
        <ele>1134.6</ele>
        <time>2025-07-15T15:33:53Z</time>
      </trkpt>
      <trkpt lat="43.82988" lon="6.76315">
        <ele>1134.6</ele>
        <time>2025-07-15T15:33:57Z</time>
      </trkpt>
      <trkpt lat="43.82974" lon="6.76329">
        <ele>1135</ele>
        <time>2025-07-15T15:34:00Z</time>
      </trkpt>
      <trkpt lat="43.82956" lon="6.76345">
        <ele>1135.8</ele>
        <time>2025-07-15T15:34:05Z</time>
      </trkpt>
      <trkpt lat="43.82942" lon="6.7636">
        <ele>1137.2</ele>
        <time>2025-07-15T15:34:10Z</time>
      </trkpt>
      <trkpt lat="43.82935" lon="6.76368">
        <ele>1137.8</ele>
        <time>2025-07-15T15:34:12Z</time>
      </trkpt>
      <trkpt lat="43.82932" lon="6.76373">
        <ele>1138.4</ele>
        <time>2025-07-15T15:34:13Z</time>
      </trkpt>
      <trkpt lat="43.82923" lon="6.76384">
        <ele>1139.4</ele>
        <time>2025-07-15T15:34:16Z</time>
      </trkpt>
      <trkpt lat="43.82919" lon="6.76388">
        <ele>1139.8</ele>
        <time>2025-07-15T15:34:17Z</time>
      </trkpt>
      <trkpt lat="43.82911" lon="6.76397">
        <ele>1140.6</ele>
        <time>2025-07-15T15:34:20Z</time>
      </trkpt>
      <trkpt lat="43.82903" lon="6.76407">
        <ele>1141</ele>
        <time>2025-07-15T15:34:23Z</time>
      </trkpt>
      <trkpt lat="43.82895" lon="6.76415">
        <ele>1141.6</ele>
        <time>2025-07-15T15:34:26Z</time>
      </trkpt>
      <trkpt lat="43.82892" lon="6.76418">
        <ele>1141.6</ele>
        <time>2025-07-15T15:34:27Z</time>
      </trkpt>
      <trkpt lat="43.82882" lon="6.76428">
        <ele>1142.8</ele>
        <time>2025-07-15T15:34:31Z</time>
      </trkpt>
      <trkpt lat="43.82872" lon="6.76438">
        <ele>1143.6</ele>
        <time>2025-07-15T15:34:35Z</time>
      </trkpt>
      <trkpt lat="43.82866" lon="6.76442">
        <ele>1144</ele>
        <time>2025-07-15T15:34:37Z</time>
      </trkpt>
      <trkpt lat="43.82849" lon="6.7646">
        <ele>1144.2</ele>
        <time>2025-07-15T15:34:43Z</time>
      </trkpt>
      <trkpt lat="43.8282" lon="6.76489">
        <ele>1144.6</ele>
        <time>2025-07-15T15:34:52Z</time>
      </trkpt>
      <trkpt lat="43.82814" lon="6.76493">
        <ele>1144.6</ele>
        <time>2025-07-15T15:34:54Z</time>
      </trkpt>
      <trkpt lat="43.82811" lon="6.76497">
        <ele>1144.8</ele>
        <time>2025-07-15T15:34:55Z</time>
      </trkpt>
      <trkpt lat="43.82805" lon="6.76503">
        <ele>1144.8</ele>
        <time>2025-07-15T15:34:57Z</time>
      </trkpt>
      <trkpt lat="43.82795" lon="6.76514">
        <ele>1145</ele>
        <time>2025-07-15T15:35:00Z</time>
      </trkpt>
      <trkpt lat="43.82788" lon="6.76521">
        <ele>1145</ele>
        <time>2025-07-15T15:35:02Z</time>
      </trkpt>
      <trkpt lat="43.82783" lon="6.76525">
        <ele>1145</ele>
        <time>2025-07-15T15:35:03Z</time>
      </trkpt>
      <trkpt lat="43.8277" lon="6.76538">
        <ele>1145</ele>
        <time>2025-07-15T15:35:06Z</time>
      </trkpt>
      <trkpt lat="43.82764" lon="6.76542">
        <ele>1145.2</ele>
        <time>2025-07-15T15:35:08Z</time>
      </trkpt>
      <trkpt lat="43.82752" lon="6.76565">
        <ele>1145.6</ele>
        <time>2025-07-15T15:35:13Z</time>
      </trkpt>
      <trkpt lat="43.8275" lon="6.76569">
        <ele>1146</ele>
        <time>2025-07-15T15:35:14Z</time>
      </trkpt>
      <trkpt lat="43.82744" lon="6.76582">
        <ele>1146.8</ele>
        <time>2025-07-15T15:35:17Z</time>
      </trkpt>
      <trkpt lat="43.8274" lon="6.76594">
        <ele>1147</ele>
        <time>2025-07-15T15:35:19Z</time>
      </trkpt>
      <trkpt lat="43.8273" lon="6.76622">
        <ele>1147.4</ele>
        <time>2025-07-15T15:35:24Z</time>
      </trkpt>
      <trkpt lat="43.82725" lon="6.76636">
        <ele>1147.6</ele>
        <time>2025-07-15T15:35:26Z</time>
      </trkpt>
      <trkpt lat="43.82708" lon="6.76669">
        <ele>1147.6</ele>
        <time>2025-07-15T15:35:31Z</time>
      </trkpt>
      <trkpt lat="43.82669" lon="6.76731">
        <ele>1147.8</ele>
        <time>2025-07-15T15:35:41Z</time>
      </trkpt>
      <trkpt lat="43.82641" lon="6.76768">
        <ele>1147.8</ele>
        <time>2025-07-15T15:35:50Z</time>
      </trkpt>
      <trkpt lat="43.82638" lon="6.76773">
        <ele>1148</ele>
        <time>2025-07-15T15:35:51Z</time>
      </trkpt>
      <trkpt lat="43.82635" lon="6.76778">
        <ele>1148</ele>
        <time>2025-07-15T15:35:52Z</time>
      </trkpt>
      <trkpt lat="43.82626" lon="6.76794">
        <ele>1148.2</ele>
        <time>2025-07-15T15:35:55Z</time>
      </trkpt>
      <trkpt lat="43.82614" lon="6.76825">
        <ele>1148.6</ele>
        <time>2025-07-15T15:36:00Z</time>
      </trkpt>
      <trkpt lat="43.82594" lon="6.76866">
        <ele>1148.8</ele>
        <time>2025-07-15T15:36:06Z</time>
      </trkpt>
      <trkpt lat="43.82582" lon="6.76907">
        <ele>1148.4</ele>
        <time>2025-07-15T15:36:11Z</time>
      </trkpt>
      <trkpt lat="43.82575" lon="6.76977">
        <ele>1148.4</ele>
        <time>2025-07-15T15:36:18Z</time>
      </trkpt>
      <trkpt lat="43.82569" lon="6.77048">
        <ele>1148.8</ele>
        <time>2025-07-15T15:36:27Z</time>
      </trkpt>
      <trkpt lat="43.82566" lon="6.7707">
        <ele>1149</ele>
        <time>2025-07-15T15:36:31Z</time>
      </trkpt>
      <trkpt lat="43.82562" lon="6.77106">
        <ele>1149.6</ele>
        <time>2025-07-15T15:36:35Z</time>
      </trkpt>
      <trkpt lat="43.82561" lon="6.77126">
        <ele>1150</ele>
        <time>2025-07-15T15:36:39Z</time>
      </trkpt>
      <trkpt lat="43.82555" lon="6.77173">
        <ele>1151.2</ele>
        <time>2025-07-15T15:36:46Z</time>
      </trkpt>
      <trkpt lat="43.82554" lon="6.77186">
        <ele>1151.4</ele>
        <time>2025-07-15T15:36:48Z</time>
      </trkpt>
      <trkpt lat="43.82553" lon="6.77214">
        <ele>1152.2</ele>
        <time>2025-07-15T15:36:53Z</time>
      </trkpt>
      <trkpt lat="43.82553" lon="6.7723">
        <ele>1152.8</ele>
        <time>2025-07-15T15:36:56Z</time>
      </trkpt>
      <trkpt lat="43.82552" lon="6.77246">
        <ele>1153.4</ele>
        <time>2025-07-15T15:36:59Z</time>
      </trkpt>
      <trkpt lat="43.82552" lon="6.77279">
        <ele>1154.4</ele>
        <time>2025-07-15T15:37:05Z</time>
      </trkpt>
      <trkpt lat="43.82552" lon="6.773">
        <ele>1155</ele>
        <time>2025-07-15T15:37:09Z</time>
      </trkpt>
      <trkpt lat="43.82552" lon="6.77315">
        <ele>1155.6</ele>
        <time>2025-07-15T15:37:12Z</time>
      </trkpt>
      <trkpt lat="43.82552" lon="6.77346">
        <ele>1156.6</ele>
        <time>2025-07-15T15:37:18Z</time>
      </trkpt>
      <trkpt lat="43.82551" lon="6.77354">
        <ele>1157</ele>
        <time>2025-07-15T15:37:20Z</time>
      </trkpt>
      <trkpt lat="43.82549" lon="6.77368">
        <ele>1157.6</ele>
        <time>2025-07-15T15:37:23Z</time>
      </trkpt>
      <trkpt lat="43.82548" lon="6.77382">
        <ele>1158.2</ele>
        <time>2025-07-15T15:37:26Z</time>
      </trkpt>
      <trkpt lat="43.82547" lon="6.77391">
        <ele>1159</ele>
        <time>2025-07-15T15:37:28Z</time>
      </trkpt>
      <trkpt lat="43.82543" lon="6.77432">
        <ele>1159.6</ele>
        <time>2025-07-15T15:37:36Z</time>
      </trkpt>
      <trkpt lat="43.82542" lon="6.77463">
        <ele>1160</ele>
        <time>2025-07-15T15:37:42Z</time>
      </trkpt>
      <trkpt lat="43.82542" lon="6.7748">
        <ele>1160.4</ele>
        <time>2025-07-15T15:37:45Z</time>
      </trkpt>
      <trkpt lat="43.82544" lon="6.77529">
        <ele>1161</ele>
        <time>2025-07-15T15:37:53Z</time>
      </trkpt>
      <trkpt lat="43.82545" lon="6.77543">
        <ele>1161.2</ele>
        <time>2025-07-15T15:37:55Z</time>
      </trkpt>
      <trkpt lat="43.8255" lon="6.7758">
        <ele>1161.4</ele>
        <time>2025-07-15T15:38:01Z</time>
      </trkpt>
      <trkpt lat="43.82553" lon="6.77634">
        <ele>1162.2</ele>
        <time>2025-07-15T15:38:09Z</time>
      </trkpt>
      <trkpt lat="43.82556" lon="6.7768">
        <ele>1162.8</ele>
        <time>2025-07-15T15:38:16Z</time>
      </trkpt>
      <trkpt lat="43.82556" lon="6.77716">
        <ele>1163.4</ele>
        <time>2025-07-15T15:38:22Z</time>
      </trkpt>
      <trkpt lat="43.82556" lon="6.77723">
        <ele>1163.6</ele>
        <time>2025-07-15T15:38:23Z</time>
      </trkpt>
      <trkpt lat="43.82552" lon="6.77781">
        <ele>1164</ele>
        <time>2025-07-15T15:38:32Z</time>
      </trkpt>
      <trkpt lat="43.82545" lon="6.77861">
        <ele>1164.2</ele>
        <time>2025-07-15T15:38:41Z</time>
      </trkpt>
      <trkpt lat="43.82542" lon="6.77917">
        <ele>1164.2</ele>
        <time>2025-07-15T15:38:48Z</time>
      </trkpt>
      <trkpt lat="43.82542" lon="6.77925">
        <ele>1164.4</ele>
        <time>2025-07-15T15:38:49Z</time>
      </trkpt>
      <trkpt lat="43.82543" lon="6.77939">
        <ele>1164.6</ele>
        <time>2025-07-15T15:38:51Z</time>
      </trkpt>
      <trkpt lat="43.82548" lon="6.77974">
        <ele>1165.2</ele>
        <time>2025-07-15T15:38:55Z</time>
      </trkpt>
      <trkpt lat="43.82553" lon="6.77999">
        <ele>1165.4</ele>
        <time>2025-07-15T15:38:59Z</time>
      </trkpt>
      <trkpt lat="43.82559" lon="6.78038">
        <ele>1166</ele>
        <time>2025-07-15T15:39:04Z</time>
      </trkpt>
      <trkpt lat="43.8256" lon="6.78076">
        <ele>1166.8</ele>
        <time>2025-07-15T15:39:09Z</time>
      </trkpt>
      <trkpt lat="43.82558" lon="6.78088">
        <ele>1167</ele>
        <time>2025-07-15T15:39:11Z</time>
      </trkpt>
      <trkpt lat="43.82556" lon="6.78101">
        <ele>1167.4</ele>
        <time>2025-07-15T15:39:13Z</time>
      </trkpt>
      <trkpt lat="43.82554" lon="6.78106">
        <ele>1167.4</ele>
        <time>2025-07-15T15:39:14Z</time>
      </trkpt>
      <trkpt lat="43.82549" lon="6.78117">
        <ele>1167.8</ele>
        <time>2025-07-15T15:39:16Z</time>
      </trkpt>
      <trkpt lat="43.82534" lon="6.78152">
        <ele>1168.6</ele>
        <time>2025-07-15T15:39:22Z</time>
      </trkpt>
      <trkpt lat="43.82531" lon="6.78157">
        <ele>1168.8</ele>
        <time>2025-07-15T15:39:23Z</time>
      </trkpt>
      <trkpt lat="43.8253" lon="6.78163">
        <ele>1169</ele>
        <time>2025-07-15T15:39:24Z</time>
      </trkpt>
      <trkpt lat="43.82528" lon="6.7817">
        <ele>1169.2</ele>
        <time>2025-07-15T15:39:25Z</time>
      </trkpt>
      <trkpt lat="43.82525" lon="6.78198">
        <ele>1169.6</ele>
        <time>2025-07-15T15:39:29Z</time>
      </trkpt>
      <trkpt lat="43.82527" lon="6.78238">
        <ele>1169.8</ele>
        <time>2025-07-15T15:39:34Z</time>
      </trkpt>
      <trkpt lat="43.82533" lon="6.78302">
        <ele>1169</ele>
        <time>2025-07-15T15:39:41Z</time>
      </trkpt>
      <trkpt lat="43.82539" lon="6.78361">
        <ele>1168.2</ele>
        <time>2025-07-15T15:39:48Z</time>
      </trkpt>
      <trkpt lat="43.82542" lon="6.78435">
        <ele>1167.8</ele>
        <time>2025-07-15T15:39:55Z</time>
      </trkpt>
      <trkpt lat="43.82544" lon="6.78487">
        <ele>1167.8</ele>
        <time>2025-07-15T15:40:01Z</time>
      </trkpt>
      <trkpt lat="43.82545" lon="6.78513">
        <ele>1167.6</ele>
        <time>2025-07-15T15:40:04Z</time>
      </trkpt>
      <trkpt lat="43.82547" lon="6.78593">
        <ele>1168.2</ele>
        <time>2025-07-15T15:40:13Z</time>
      </trkpt>
      <trkpt lat="43.82543" lon="6.78661">
        <ele>1168.2</ele>
        <time>2025-07-15T15:40:21Z</time>
      </trkpt>
      <trkpt lat="43.82536" lon="6.78708">
        <ele>1169</ele>
        <time>2025-07-15T15:40:27Z</time>
      </trkpt>
      <trkpt lat="43.82534" lon="6.78715">
        <ele>1169</ele>
        <time>2025-07-15T15:40:28Z</time>
      </trkpt>
      <trkpt lat="43.8252" lon="6.78758">
        <ele>1169.8</ele>
        <time>2025-07-15T15:40:34Z</time>
      </trkpt>
      <trkpt lat="43.82519" lon="6.78765">
        <ele>1170</ele>
        <time>2025-07-15T15:40:36Z</time>
      </trkpt>
      <trkpt lat="43.82513" lon="6.7879">
        <ele>1171</ele>
        <time>2025-07-15T15:40:39Z</time>
      </trkpt>
      <trkpt lat="43.82507" lon="6.78815">
        <ele>1171.8</ele>
        <time>2025-07-15T15:40:44Z</time>
      </trkpt>
      <trkpt lat="43.82502" lon="6.78843">
        <ele>1172.2</ele>
        <time>2025-07-15T15:40:48Z</time>
      </trkpt>
      <trkpt lat="43.82497" lon="6.78871">
        <ele>1172.4</ele>
        <time>2025-07-15T15:40:52Z</time>
      </trkpt>
      <trkpt lat="43.82486" lon="6.78925">
        <ele>1173</ele>
        <time>2025-07-15T15:41:00Z</time>
      </trkpt>
      <trkpt lat="43.82485" lon="6.78932">
        <ele>1173.2</ele>
        <time>2025-07-15T15:41:01Z</time>
      </trkpt>
      <trkpt lat="43.82479" lon="6.78972">
        <ele>1173.8</ele>
        <time>2025-07-15T15:41:07Z</time>
      </trkpt>
      <trkpt lat="43.82479" lon="6.78979">
        <ele>1173.8</ele>
        <time>2025-07-15T15:41:08Z</time>
      </trkpt>
      <trkpt lat="43.8248" lon="6.79036">
        <ele>1173.6</ele>
        <time>2025-07-15T15:41:16Z</time>
      </trkpt>
      <trkpt lat="43.82488" lon="6.79074">
        <ele>1174</ele>
        <time>2025-07-15T15:41:22Z</time>
      </trkpt>
      <trkpt lat="43.8249" lon="6.79079">
        <ele>1174.2</ele>
        <time>2025-07-15T15:41:23Z</time>
      </trkpt>
      <trkpt lat="43.82492" lon="6.79085">
        <ele>1174.4</ele>
        <time>2025-07-15T15:41:24Z</time>
      </trkpt>
      <trkpt lat="43.82501" lon="6.79115">
        <ele>1175.6</ele>
        <time>2025-07-15T15:41:30Z</time>
      </trkpt>
      <trkpt lat="43.82513" lon="6.79155">
        <ele>1176.6</ele>
        <time>2025-07-15T15:41:37Z</time>
      </trkpt>
      <trkpt lat="43.82515" lon="6.7916">
        <ele>1176.8</ele>
        <time>2025-07-15T15:41:38Z</time>
      </trkpt>
      <trkpt lat="43.82524" lon="6.79203">
        <ele>1177.6</ele>
        <time>2025-07-15T15:41:47Z</time>
      </trkpt>
      <trkpt lat="43.82532" lon="6.79236">
        <ele>1178.8</ele>
        <time>2025-07-15T15:41:55Z</time>
      </trkpt>
      <trkpt lat="43.82534" lon="6.79253">
        <ele>1179.8</ele>
        <time>2025-07-15T15:41:59Z</time>
      </trkpt>
      <trkpt lat="43.82538" lon="6.79269">
        <ele>1180.6</ele>
        <time>2025-07-15T15:42:03Z</time>
      </trkpt>
      <trkpt lat="43.82541" lon="6.7928">
        <ele>1181</ele>
        <time>2025-07-15T15:42:06Z</time>
      </trkpt>
      <trkpt lat="43.82546" lon="6.79302">
        <ele>1182</ele>
        <time>2025-07-15T15:42:11Z</time>
      </trkpt>
      <trkpt lat="43.82546" lon="6.79306">
        <ele>1182</ele>
        <time>2025-07-15T15:42:12Z</time>
      </trkpt>
      <trkpt lat="43.82551" lon="6.79328">
        <ele>1183</ele>
        <time>2025-07-15T15:42:17Z</time>
      </trkpt>
      <trkpt lat="43.82553" lon="6.79336">
        <ele>1183.8</ele>
        <time>2025-07-15T15:42:19Z</time>
      </trkpt>
      <trkpt lat="43.82556" lon="6.79345">
        <ele>1184.2</ele>
        <time>2025-07-15T15:42:22Z</time>
      </trkpt>
      <trkpt lat="43.82568" lon="6.79398">
        <ele>1185.2</ele>
        <time>2025-07-15T15:42:32Z</time>
      </trkpt>
      <trkpt lat="43.82569" lon="6.79403">
        <ele>1185.2</ele>
        <time>2025-07-15T15:42:33Z</time>
      </trkpt>
      <trkpt lat="43.82574" lon="6.79432">
        <ele>1186.2</ele>
        <time>2025-07-15T15:42:39Z</time>
      </trkpt>
      <trkpt lat="43.82576" lon="6.79443">
        <ele>1187</ele>
        <time>2025-07-15T15:42:41Z</time>
      </trkpt>
      <trkpt lat="43.82578" lon="6.79453">
        <ele>1187.4</ele>
        <time>2025-07-15T15:42:43Z</time>
      </trkpt>
      <trkpt lat="43.82583" lon="6.79488">
        <ele>1188.4</ele>
        <time>2025-07-15T15:42:50Z</time>
      </trkpt>
      <trkpt lat="43.82586" lon="6.79517">
        <ele>1189.6</ele>
        <time>2025-07-15T15:42:56Z</time>
      </trkpt>
      <trkpt lat="43.82587" lon="6.79531">
        <ele>1190.8</ele>
        <time>2025-07-15T15:42:59Z</time>
      </trkpt>
      <trkpt lat="43.82588" lon="6.79535">
        <ele>1191</ele>
        <time>2025-07-15T15:43:00Z</time>
      </trkpt>
      <trkpt lat="43.82589" lon="6.79558">
        <ele>1192</ele>
        <time>2025-07-15T15:43:05Z</time>
      </trkpt>
      <trkpt lat="43.8259" lon="6.79588">
        <ele>1193</ele>
        <time>2025-07-15T15:43:11Z</time>
      </trkpt>
      <trkpt lat="43.8259" lon="6.79594">
        <ele>1193</ele>
        <time>2025-07-15T15:43:12Z</time>
      </trkpt>
      <trkpt lat="43.82592" lon="6.79637">
        <ele>1194</ele>
        <time>2025-07-15T15:43:21Z</time>
      </trkpt>
      <trkpt lat="43.82592" lon="6.79647">
        <ele>1194.4</ele>
        <time>2025-07-15T15:43:23Z</time>
      </trkpt>
      <trkpt lat="43.82594" lon="6.79676">
        <ele>1195.2</ele>
        <time>2025-07-15T15:43:29Z</time>
      </trkpt>
      <trkpt lat="43.82595" lon="6.79699">
        <ele>1196</ele>
        <time>2025-07-15T15:43:34Z</time>
      </trkpt>
      <trkpt lat="43.82595" lon="6.79715">
        <ele>1196.2</ele>
        <time>2025-07-15T15:43:37Z</time>
      </trkpt>
      <trkpt lat="43.82597" lon="6.79757">
        <ele>1196.6</ele>
        <time>2025-07-15T15:43:45Z</time>
      </trkpt>
      <trkpt lat="43.82598" lon="6.79806">
        <ele>1197</ele>
        <time>2025-07-15T15:43:54Z</time>
      </trkpt>
      <trkpt lat="43.82598" lon="6.79821">
        <ele>1197.2</ele>
        <time>2025-07-15T15:43:57Z</time>
      </trkpt>
      <trkpt lat="43.82599" lon="6.79842">
        <ele>1197.8</ele>
        <time>2025-07-15T15:44:01Z</time>
      </trkpt>
      <trkpt lat="43.826" lon="6.79857">
        <ele>1198.2</ele>
        <time>2025-07-15T15:44:04Z</time>
      </trkpt>
      <trkpt lat="43.82601" lon="6.79887">
        <ele>1199.4</ele>
        <time>2025-07-15T15:44:10Z</time>
      </trkpt>
      <trkpt lat="43.82602" lon="6.79924">
        <ele>1200.2</ele>
        <time>2025-07-15T15:44:18Z</time>
      </trkpt>
      <trkpt lat="43.82601" lon="6.79928">
        <ele>1200.4</ele>
        <time>2025-07-15T15:44:19Z</time>
      </trkpt>
      <trkpt lat="43.82589" lon="6.79934">
        <ele>1200.4</ele>
        <time>2025-07-15T15:44:23Z</time>
      </trkpt>
      <trkpt lat="43.82557" lon="6.7995">
        <ele>1200.2</ele>
        <time>2025-07-15T15:44:32Z</time>
      </trkpt>
      <trkpt lat="43.82545" lon="6.79962">
        <ele>1200.2</ele>
        <time>2025-07-15T15:44:36Z</time>
      </trkpt>
      <trkpt lat="43.82536" lon="6.79981">
        <ele>1200.6</ele>
        <time>2025-07-15T15:44:41Z</time>
      </trkpt>
      <trkpt lat="43.82534" lon="6.79988">
        <ele>1201</ele>
        <time>2025-07-15T15:44:43Z</time>
      </trkpt>
      <trkpt lat="43.82532" lon="6.79994">
        <ele>1201.6</ele>
        <time>2025-07-15T15:44:46Z</time>
      </trkpt>
      <trkpt lat="43.82529" lon="6.80007">
        <ele>1202.4</ele>
        <time>2025-07-15T15:44:50Z</time>
      </trkpt>
      <trkpt lat="43.82526" lon="6.80017">
        <ele>1202.8</ele>
        <time>2025-07-15T15:44:52Z</time>
      </trkpt>
      <trkpt lat="43.82522" lon="6.80032">
        <ele>1204</ele>
        <time>2025-07-15T15:44:57Z</time>
      </trkpt>
      <trkpt lat="43.82521" lon="6.80035">
        <ele>1204</ele>
        <time>2025-07-15T15:44:58Z</time>
      </trkpt>
      <trkpt lat="43.82516" lon="6.80061">
        <ele>1205</ele>
        <time>2025-07-15T15:45:06Z</time>
      </trkpt>
      <trkpt lat="43.82515" lon="6.80064">
        <ele>1205.2</ele>
        <time>2025-07-15T15:45:07Z</time>
      </trkpt>
      <trkpt lat="43.82511" lon="6.80078">
        <ele>1206.2</ele>
        <time>2025-07-15T15:45:12Z</time>
      </trkpt>
      <trkpt lat="43.82506" lon="6.80093">
        <ele>1207</ele>
        <time>2025-07-15T15:45:17Z</time>
      </trkpt>
      <trkpt lat="43.82505" lon="6.80096">
        <ele>1207.2</ele>
        <time>2025-07-15T15:45:18Z</time>
      </trkpt>
      <trkpt lat="43.82498" lon="6.80107">
        <ele>1207.8</ele>
        <time>2025-07-15T15:45:23Z</time>
      </trkpt>
      <trkpt lat="43.82497" lon="6.8011">
        <ele>1208.2</ele>
        <time>2025-07-15T15:45:24Z</time>
      </trkpt>
      <trkpt lat="43.82494" lon="6.80119">
        <ele>1209.2</ele>
        <time>2025-07-15T15:45:27Z</time>
      </trkpt>
      <trkpt lat="43.82489" lon="6.80131">
        <ele>1210</ele>
        <time>2025-07-15T15:45:31Z</time>
      </trkpt>
      <trkpt lat="43.82488" lon="6.80134">
        <ele>1210.2</ele>
        <time>2025-07-15T15:45:32Z</time>
      </trkpt>
      <trkpt lat="43.82485" lon="6.80148">
        <ele>1211.2</ele>
        <time>2025-07-15T15:45:37Z</time>
      </trkpt>
      <trkpt lat="43.82485" lon="6.80151">
        <ele>1211.4</ele>
        <time>2025-07-15T15:45:38Z</time>
      </trkpt>
      <trkpt lat="43.82482" lon="6.80164">
        <ele>1212</ele>
        <time>2025-07-15T15:45:43Z</time>
      </trkpt>
      <trkpt lat="43.82481" lon="6.80178">
        <ele>1212.4</ele>
        <time>2025-07-15T15:45:48Z</time>
      </trkpt>
      <trkpt lat="43.8248" lon="6.80191">
        <ele>1213</ele>
        <time>2025-07-15T15:45:53Z</time>
      </trkpt>
      <trkpt lat="43.82479" lon="6.80203">
        <ele>1213.6</ele>
        <time>2025-07-15T15:45:57Z</time>
      </trkpt>
      <trkpt lat="43.82478" lon="6.8022">
        <ele>1214.8</ele>
        <time>2025-07-15T15:46:03Z</time>
      </trkpt>
      <trkpt lat="43.82477" lon="6.80238">
        <ele>1215.8</ele>
        <time>2025-07-15T15:46:09Z</time>
      </trkpt>
      <trkpt lat="43.82477" lon="6.80246">
        <ele>1216.2</ele>
        <time>2025-07-15T15:46:12Z</time>
      </trkpt>
      <trkpt lat="43.82477" lon="6.80255">
        <ele>1216.8</ele>
        <time>2025-07-15T15:46:15Z</time>
      </trkpt>
      <trkpt lat="43.82475" lon="6.80278">
        <ele>1217.4</ele>
        <time>2025-07-15T15:46:23Z</time>
      </trkpt>
      <trkpt lat="43.82475" lon="6.80283">
        <ele>1217.6</ele>
        <time>2025-07-15T15:46:25Z</time>
      </trkpt>
      <trkpt lat="43.82474" lon="6.80289">
        <ele>1217.8</ele>
        <time>2025-07-15T15:46:27Z</time>
      </trkpt>
      <trkpt lat="43.82473" lon="6.8031">
        <ele>1218.8</ele>
        <time>2025-07-15T15:46:34Z</time>
      </trkpt>
      <trkpt lat="43.82472" lon="6.80318">
        <ele>1219.2</ele>
        <time>2025-07-15T15:46:37Z</time>
      </trkpt>
      <trkpt lat="43.82473" lon="6.80328">
        <ele>1219.8</ele>
        <time>2025-07-15T15:46:40Z</time>
      </trkpt>
      <trkpt lat="43.82472" lon="6.80342">
        <ele>1221</ele>
        <time>2025-07-15T15:46:45Z</time>
      </trkpt>
      <trkpt lat="43.82471" lon="6.80367">
        <ele>1222</ele>
        <time>2025-07-15T15:46:53Z</time>
      </trkpt>
      <trkpt lat="43.8247" lon="6.8037">
        <ele>1222.2</ele>
        <time>2025-07-15T15:46:54Z</time>
      </trkpt>
      <trkpt lat="43.8247" lon="6.80385">
        <ele>1223.2</ele>
        <time>2025-07-15T15:46:59Z</time>
      </trkpt>
      <trkpt lat="43.82469" lon="6.804">
        <ele>1224</ele>
        <time>2025-07-15T15:47:04Z</time>
      </trkpt>
      <trkpt lat="43.82469" lon="6.80406">
        <ele>1224.2</ele>
        <time>2025-07-15T15:47:06Z</time>
      </trkpt>
      <trkpt lat="43.82469" lon="6.80424">
        <ele>1225</ele>
        <time>2025-07-15T15:47:12Z</time>
      </trkpt>
      <trkpt lat="43.82469" lon="6.80427">
        <ele>1225.2</ele>
        <time>2025-07-15T15:47:13Z</time>
      </trkpt>
      <trkpt lat="43.82467" lon="6.80447">
        <ele>1226</ele>
        <time>2025-07-15T15:47:20Z</time>
      </trkpt>
      <trkpt lat="43.82466" lon="6.80453">
        <ele>1226.4</ele>
        <time>2025-07-15T15:47:22Z</time>
      </trkpt>
      <trkpt lat="43.82464" lon="6.80473">
        <ele>1227.4</ele>
        <time>2025-07-15T15:47:29Z</time>
      </trkpt>
      <trkpt lat="43.82463" lon="6.80475">
        <ele>1227.4</ele>
        <time>2025-07-15T15:47:30Z</time>
      </trkpt>
      <trkpt lat="43.82458" lon="6.80501">
        <ele>1228.4</ele>
        <time>2025-07-15T15:47:39Z</time>
      </trkpt>
      <trkpt lat="43.82457" lon="6.80504">
        <ele>1228.6</ele>
        <time>2025-07-15T15:47:40Z</time>
      </trkpt>
      <trkpt lat="43.8245" lon="6.8051">
        <ele>1229.4</ele>
        <time>2025-07-15T15:47:44Z</time>
      </trkpt>
      <trkpt lat="43.82448" lon="6.8051">
        <ele>1229.8</ele>
        <time>2025-07-15T15:47:45Z</time>
      </trkpt>
      <trkpt lat="43.82443" lon="6.8051">
        <ele>1230</ele>
        <time>2025-07-15T15:47:47Z</time>
      </trkpt>
      <trkpt lat="43.8244" lon="6.80507">
        <ele>1230.4</ele>
        <time>2025-07-15T15:47:49Z</time>
      </trkpt>
      <trkpt lat="43.82437" lon="6.80504">
        <ele>1230.8</ele>
        <time>2025-07-15T15:47:51Z</time>
      </trkpt>
      <trkpt lat="43.82432" lon="6.80498">
        <ele>1231.4</ele>
        <time>2025-07-15T15:47:54Z</time>
      </trkpt>
      <trkpt lat="43.82428" lon="6.80492">
        <ele>1232</ele>
        <time>2025-07-15T15:47:57Z</time>
      </trkpt>
      <trkpt lat="43.82421" lon="6.80486">
        <ele>1233</ele>
        <time>2025-07-15T15:48:01Z</time>
      </trkpt>
      <trkpt lat="43.82418" lon="6.80483">
        <ele>1233.4</ele>
        <time>2025-07-15T15:48:03Z</time>
      </trkpt>
      <trkpt lat="43.82409" lon="6.80476">
        <ele>1234.6</ele>
        <time>2025-07-15T15:48:08Z</time>
      </trkpt>
      <trkpt lat="43.82396" lon="6.80472">
        <ele>1235.6</ele>
        <time>2025-07-15T15:48:14Z</time>
      </trkpt>
      <trkpt lat="43.82394" lon="6.80471">
        <ele>1235.8</ele>
        <time>2025-07-15T15:48:15Z</time>
      </trkpt>
      <trkpt lat="43.82383" lon="6.80471">
        <ele>1236.6</ele>
        <time>2025-07-15T15:48:21Z</time>
      </trkpt>
      <trkpt lat="43.82381" lon="6.80472">
        <ele>1236.8</ele>
        <time>2025-07-15T15:48:22Z</time>
      </trkpt>
      <trkpt lat="43.82369" lon="6.80474">
        <ele>1237.8</ele>
        <time>2025-07-15T15:48:29Z</time>
      </trkpt>
      <trkpt lat="43.82358" lon="6.80477">
        <ele>1239</ele>
        <time>2025-07-15T15:48:35Z</time>
      </trkpt>
      <trkpt lat="43.82354" lon="6.80477">
        <ele>1239.2</ele>
        <time>2025-07-15T15:48:37Z</time>
      </trkpt>
      <trkpt lat="43.82345" lon="6.80482">
        <ele>1240</ele>
        <time>2025-07-15T15:48:41Z</time>
      </trkpt>
      <trkpt lat="43.8234" lon="6.80487">
        <ele>1240.4</ele>
        <time>2025-07-15T15:48:44Z</time>
      </trkpt>
      <trkpt lat="43.82337" lon="6.80495">
        <ele>1241</ele>
        <time>2025-07-15T15:48:47Z</time>
      </trkpt>
      <trkpt lat="43.82329" lon="6.80508">
        <ele>1242</ele>
        <time>2025-07-15T15:48:52Z</time>
      </trkpt>
      <trkpt lat="43.82327" lon="6.80511">
        <ele>1242</ele>
        <time>2025-07-15T15:48:53Z</time>
      </trkpt>
      <trkpt lat="43.82317" lon="6.80522">
        <ele>1243</ele>
        <time>2025-07-15T15:48:59Z</time>
      </trkpt>
      <trkpt lat="43.82312" lon="6.80523">
        <ele>1243.2</ele>
        <time>2025-07-15T15:49:01Z</time>
      </trkpt>
      <trkpt lat="43.82307" lon="6.80519">
        <ele>1243.6</ele>
        <time>2025-07-15T15:49:04Z</time>
      </trkpt>
      <trkpt lat="43.82302" lon="6.80513">
        <ele>1244.4</ele>
        <time>2025-07-15T15:49:07Z</time>
      </trkpt>
      <trkpt lat="43.82299" lon="6.80508">
        <ele>1245.2</ele>
        <time>2025-07-15T15:49:10Z</time>
      </trkpt>
      <trkpt lat="43.82298" lon="6.80506">
        <ele>1245.4</ele>
        <time>2025-07-15T15:49:11Z</time>
      </trkpt>
      <trkpt lat="43.82293" lon="6.80496">
        <ele>1246.2</ele>
        <time>2025-07-15T15:49:15Z</time>
      </trkpt>
      <trkpt lat="43.82289" lon="6.8049">
        <ele>1247</ele>
        <time>2025-07-15T15:49:18Z</time>
      </trkpt>
      <trkpt lat="43.82285" lon="6.80484">
        <ele>1247.2</ele>
        <time>2025-07-15T15:49:21Z</time>
      </trkpt>
      <trkpt lat="43.82281" lon="6.80479">
        <ele>1248.2</ele>
        <time>2025-07-15T15:49:24Z</time>
      </trkpt>
      <trkpt lat="43.82279" lon="6.80474">
        <ele>1248.6</ele>
        <time>2025-07-15T15:49:26Z</time>
      </trkpt>
      <trkpt lat="43.82274" lon="6.80462">
        <ele>1249.2</ele>
        <time>2025-07-15T15:49:31Z</time>
      </trkpt>
      <trkpt lat="43.82271" lon="6.80457">
        <ele>1249.4</ele>
        <time>2025-07-15T15:49:33Z</time>
      </trkpt>
      <trkpt lat="43.82266" lon="6.80436">
        <ele>1250.4</ele>
        <time>2025-07-15T15:49:41Z</time>
      </trkpt>
      <trkpt lat="43.82265" lon="6.80415">
        <ele>1250.8</ele>
        <time>2025-07-15T15:49:48Z</time>
      </trkpt>
      <trkpt lat="43.82265" lon="6.80405">
        <ele>1251.4</ele>
        <time>2025-07-15T15:49:52Z</time>
      </trkpt>
      <trkpt lat="43.82265" lon="6.80396">
        <ele>1251.8</ele>
        <time>2025-07-15T15:49:55Z</time>
      </trkpt>
      <trkpt lat="43.82265" lon="6.80389">
        <ele>1252.4</ele>
        <time>2025-07-15T15:49:58Z</time>
      </trkpt>
      <trkpt lat="43.82265" lon="6.80373">
        <ele>1253.2</ele>
        <time>2025-07-15T15:50:03Z</time>
      </trkpt>
      <trkpt lat="43.82265" lon="6.80369">
        <ele>1253.6</ele>
        <time>2025-07-15T15:50:04Z</time>
      </trkpt>
      <trkpt lat="43.82266" lon="6.80348">
        <ele>1254.4</ele>
        <time>2025-07-15T15:50:10Z</time>
      </trkpt>
      <trkpt lat="43.82265" lon="6.80345">
        <ele>1254.6</ele>
        <time>2025-07-15T15:50:11Z</time>
      </trkpt>
      <trkpt lat="43.82262" lon="6.80329">
        <ele>1255.2</ele>
        <time>2025-07-15T15:50:16Z</time>
      </trkpt>
      <trkpt lat="43.82261" lon="6.80323">
        <ele>1255.6</ele>
        <time>2025-07-15T15:50:18Z</time>
      </trkpt>
      <trkpt lat="43.82254" lon="6.80307">
        <ele>1256.8</ele>
        <time>2025-07-15T15:50:24Z</time>
      </trkpt>
      <trkpt lat="43.82251" lon="6.80301">
        <ele>1257</ele>
        <time>2025-07-15T15:50:26Z</time>
      </trkpt>
      <trkpt lat="43.82241" lon="6.80283">
        <ele>1257.8</ele>
        <time>2025-07-15T15:50:33Z</time>
      </trkpt>
      <trkpt lat="43.8224" lon="6.80281">
        <ele>1258</ele>
        <time>2025-07-15T15:50:34Z</time>
      </trkpt>
      <trkpt lat="43.82233" lon="6.80271">
        <ele>1259</ele>
        <time>2025-07-15T15:50:38Z</time>
      </trkpt>
      <trkpt lat="43.82223" lon="6.80256">
        <ele>1260</ele>
        <time>2025-07-15T15:50:44Z</time>
      </trkpt>
      <trkpt lat="43.82222" lon="6.80253">
        <ele>1260.4</ele>
        <time>2025-07-15T15:50:45Z</time>
      </trkpt>
      <trkpt lat="43.82217" lon="6.80243">
        <ele>1261.4</ele>
        <time>2025-07-15T15:50:49Z</time>
      </trkpt>
      <trkpt lat="43.82211" lon="6.80232">
        <ele>1262.2</ele>
        <time>2025-07-15T15:50:53Z</time>
      </trkpt>
      <trkpt lat="43.82195" lon="6.80209">
        <ele>1263.4</ele>
        <time>2025-07-15T15:51:02Z</time>
      </trkpt>
      <trkpt lat="43.8218" lon="6.80206">
        <ele>1264.6</ele>
        <time>2025-07-15T15:51:08Z</time>
      </trkpt>
      <trkpt lat="43.82172" lon="6.80219">
        <ele>1265.6</ele>
        <time>2025-07-15T15:51:13Z</time>
      </trkpt>
      <trkpt lat="43.82171" lon="6.80222">
        <ele>1265.8</ele>
        <time>2025-07-15T15:51:14Z</time>
      </trkpt>
      <trkpt lat="43.82166" lon="6.80233">
        <ele>1266.8</ele>
        <time>2025-07-15T15:51:18Z</time>
      </trkpt>
      <trkpt lat="43.82163" lon="6.80237">
        <ele>1267.2</ele>
        <time>2025-07-15T15:51:20Z</time>
      </trkpt>
      <trkpt lat="43.82158" lon="6.80248">
        <ele>1267.4</ele>
        <time>2025-07-15T15:51:25Z</time>
      </trkpt>
      <trkpt lat="43.82157" lon="6.8025">
        <ele>1267.8</ele>
        <time>2025-07-15T15:51:26Z</time>
      </trkpt>
      <trkpt lat="43.8215" lon="6.80271">
        <ele>1268.6</ele>
        <time>2025-07-15T15:51:33Z</time>
      </trkpt>
      <trkpt lat="43.82149" lon="6.80274">
        <ele>1268.8</ele>
        <time>2025-07-15T15:51:34Z</time>
      </trkpt>
      <trkpt lat="43.82146" lon="6.8029">
        <ele>1269.8</ele>
        <time>2025-07-15T15:51:39Z</time>
      </trkpt>
      <trkpt lat="43.82144" lon="6.80299">
        <ele>1270.2</ele>
        <time>2025-07-15T15:51:42Z</time>
      </trkpt>
      <trkpt lat="43.82142" lon="6.80312">
        <ele>1270.8</ele>
        <time>2025-07-15T15:51:46Z</time>
      </trkpt>
      <trkpt lat="43.82141" lon="6.80322">
        <ele>1271.6</ele>
        <time>2025-07-15T15:51:49Z</time>
      </trkpt>
      <trkpt lat="43.8214" lon="6.80328">
        <ele>1271.8</ele>
        <time>2025-07-15T15:51:51Z</time>
      </trkpt>
      <trkpt lat="43.82136" lon="6.8035">
        <ele>1272.6</ele>
        <time>2025-07-15T15:51:58Z</time>
      </trkpt>
      <trkpt lat="43.82136" lon="6.80354">
        <ele>1272.8</ele>
        <time>2025-07-15T15:51:59Z</time>
      </trkpt>
      <trkpt lat="43.82133" lon="6.80369">
        <ele>1273.8</ele>
        <time>2025-07-15T15:52:04Z</time>
      </trkpt>
      <trkpt lat="43.82131" lon="6.80381">
        <ele>1274.6</ele>
        <time>2025-07-15T15:52:08Z</time>
      </trkpt>
      <trkpt lat="43.8213" lon="6.80384">
        <ele>1274.8</ele>
        <time>2025-07-15T15:52:09Z</time>
      </trkpt>
      <trkpt lat="43.82127" lon="6.80401">
        <ele>1275.4</ele>
        <time>2025-07-15T15:52:15Z</time>
      </trkpt>
      <trkpt lat="43.82127" lon="6.80407">
        <ele>1276</ele>
        <time>2025-07-15T15:52:17Z</time>
      </trkpt>
      <trkpt lat="43.82125" lon="6.80418">
        <ele>1276.6</ele>
        <time>2025-07-15T15:52:21Z</time>
      </trkpt>
      <trkpt lat="43.82124" lon="6.80428">
        <ele>1277</ele>
        <time>2025-07-15T15:52:24Z</time>
      </trkpt>
      <trkpt lat="43.82124" lon="6.80434">
        <ele>1277.2</ele>
        <time>2025-07-15T15:52:26Z</time>
      </trkpt>
      <trkpt lat="43.82121" lon="6.80449">
        <ele>1278.2</ele>
        <time>2025-07-15T15:52:31Z</time>
      </trkpt>
      <trkpt lat="43.82121" lon="6.80451">
        <ele>1278.4</ele>
        <time>2025-07-15T15:52:32Z</time>
      </trkpt>
      <trkpt lat="43.8212" lon="6.80462">
        <ele>1278.6</ele>
        <time>2025-07-15T15:52:35Z</time>
      </trkpt>
      <trkpt lat="43.82119" lon="6.80468">
        <ele>1279</ele>
        <time>2025-07-15T15:52:37Z</time>
      </trkpt>
      <trkpt lat="43.82119" lon="6.80475">
        <ele>1279.2</ele>
        <time>2025-07-15T15:52:39Z</time>
      </trkpt>
      <trkpt lat="43.82119" lon="6.80499">
        <ele>1280</ele>
        <time>2025-07-15T15:52:45Z</time>
      </trkpt>
      <trkpt lat="43.82119" lon="6.80503">
        <ele>1280.2</ele>
        <time>2025-07-15T15:52:46Z</time>
      </trkpt>
      <trkpt lat="43.82117" lon="6.80509">
        <ele>1280.6</ele>
        <time>2025-07-15T15:52:48Z</time>
      </trkpt>
      <trkpt lat="43.82113" lon="6.80512">
        <ele>1280.8</ele>
        <time>2025-07-15T15:52:50Z</time>
      </trkpt>
      <trkpt lat="43.8211" lon="6.80506">
        <ele>1281</ele>
        <time>2025-07-15T15:52:53Z</time>
      </trkpt>
      <trkpt lat="43.82111" lon="6.80503">
        <ele>1281.2</ele>
        <time>2025-07-15T15:52:54Z</time>
      </trkpt>
      <trkpt lat="43.82112" lon="6.8049">
        <ele>1281.8</ele>
        <time>2025-07-15T15:52:58Z</time>
      </trkpt>
      <trkpt lat="43.82112" lon="6.80481">
        <ele>1282.4</ele>
        <time>2025-07-15T15:53:01Z</time>
      </trkpt>
      <trkpt lat="43.82112" lon="6.80475">
        <ele>1282.8</ele>
        <time>2025-07-15T15:53:03Z</time>
      </trkpt>
      <trkpt lat="43.82112" lon="6.80463">
        <ele>1283.4</ele>
        <time>2025-07-15T15:53:07Z</time>
      </trkpt>
      <trkpt lat="43.82112" lon="6.8046">
        <ele>1283.8</ele>
        <time>2025-07-15T15:53:08Z</time>
      </trkpt>
      <trkpt lat="43.82112" lon="6.80448">
        <ele>1284.4</ele>
        <time>2025-07-15T15:53:12Z</time>
      </trkpt>
      <trkpt lat="43.82112" lon="6.80442">
        <ele>1284.8</ele>
        <time>2025-07-15T15:53:14Z</time>
      </trkpt>
      <trkpt lat="43.82111" lon="6.80425">
        <ele>1285.8</ele>
        <time>2025-07-15T15:53:19Z</time>
      </trkpt>
      <trkpt lat="43.82111" lon="6.80422">
        <ele>1286</ele>
        <time>2025-07-15T15:53:20Z</time>
      </trkpt>
      <trkpt lat="43.8211" lon="6.8041">
        <ele>1286.8</ele>
        <time>2025-07-15T15:53:24Z</time>
      </trkpt>
      <trkpt lat="43.8211" lon="6.80407">
        <ele>1286.8</ele>
        <time>2025-07-15T15:53:25Z</time>
      </trkpt>
      <trkpt lat="43.8211" lon="6.80385">
        <ele>1288</ele>
        <time>2025-07-15T15:53:32Z</time>
      </trkpt>
      <trkpt lat="43.8211" lon="6.80379">
        <ele>1288.2</ele>
        <time>2025-07-15T15:53:34Z</time>
      </trkpt>
      <trkpt lat="43.82108" lon="6.80361">
        <ele>1288.8</ele>
        <time>2025-07-15T15:53:40Z</time>
      </trkpt>
      <trkpt lat="43.82108" lon="6.80358">
        <ele>1289</ele>
        <time>2025-07-15T15:53:41Z</time>
      </trkpt>
      <trkpt lat="43.82106" lon="6.8034">
        <ele>1289.8</ele>
        <time>2025-07-15T15:53:47Z</time>
      </trkpt>
      <trkpt lat="43.82105" lon="6.8033">
        <ele>1290.6</ele>
        <time>2025-07-15T15:53:50Z</time>
      </trkpt>
      <trkpt lat="43.82105" lon="6.80323">
        <ele>1291</ele>
        <time>2025-07-15T15:53:52Z</time>
      </trkpt>
      <trkpt lat="43.82103" lon="6.8031">
        <ele>1291.4</ele>
        <time>2025-07-15T15:53:56Z</time>
      </trkpt>
      <trkpt lat="43.82102" lon="6.803">
        <ele>1292.2</ele>
        <time>2025-07-15T15:53:59Z</time>
      </trkpt>
      <trkpt lat="43.82099" lon="6.80282">
        <ele>1292.8</ele>
        <time>2025-07-15T15:54:04Z</time>
      </trkpt>
      <trkpt lat="43.82097" lon="6.80273">
        <ele>1293.2</ele>
        <time>2025-07-15T15:54:07Z</time>
      </trkpt>
      <trkpt lat="43.82097" lon="6.80261">
        <ele>1294.2</ele>
        <time>2025-07-15T15:54:11Z</time>
      </trkpt>
      <trkpt lat="43.82097" lon="6.80241">
        <ele>1295.2</ele>
        <time>2025-07-15T15:54:17Z</time>
      </trkpt>
      <trkpt lat="43.82094" lon="6.80225">
        <ele>1296.2</ele>
        <time>2025-07-15T15:54:22Z</time>
      </trkpt>
      <trkpt lat="43.82094" lon="6.80222">
        <ele>1296.4</ele>
        <time>2025-07-15T15:54:23Z</time>
      </trkpt>
      <trkpt lat="43.82091" lon="6.80202">
        <ele>1297.8</ele>
        <time>2025-07-15T15:54:29Z</time>
      </trkpt>
      <trkpt lat="43.8209" lon="6.80199">
        <ele>1297.8</ele>
        <time>2025-07-15T15:54:30Z</time>
      </trkpt>
      <trkpt lat="43.82087" lon="6.80176">
        <ele>1298.6</ele>
        <time>2025-07-15T15:54:37Z</time>
      </trkpt>
      <trkpt lat="43.82087" lon="6.80173">
        <ele>1299</ele>
        <time>2025-07-15T15:54:38Z</time>
      </trkpt>
      <trkpt lat="43.82086" lon="6.80163">
        <ele>1299.6</ele>
        <time>2025-07-15T15:54:41Z</time>
      </trkpt>
      <trkpt lat="43.82085" lon="6.8016">
        <ele>1299.6</ele>
        <time>2025-07-15T15:54:42Z</time>
      </trkpt>
      <trkpt lat="43.82081" lon="6.8014">
        <ele>1300.4</ele>
        <time>2025-07-15T15:54:48Z</time>
      </trkpt>
      <trkpt lat="43.8208" lon="6.80136">
        <ele>1300.8</ele>
        <time>2025-07-15T15:54:49Z</time>
      </trkpt>
      <trkpt lat="43.82077" lon="6.80116">
        <ele>1301.8</ele>
        <time>2025-07-15T15:54:55Z</time>
      </trkpt>
      <trkpt lat="43.82075" lon="6.80107">
        <ele>1302.2</ele>
        <time>2025-07-15T15:54:58Z</time>
      </trkpt>
      <trkpt lat="43.82074" lon="6.80097">
        <ele>1302.6</ele>
        <time>2025-07-15T15:55:01Z</time>
      </trkpt>
      <trkpt lat="43.82072" lon="6.80081">
        <ele>1303.4</ele>
        <time>2025-07-15T15:55:06Z</time>
      </trkpt>
      <trkpt lat="43.8207" lon="6.80068">
        <ele>1303.8</ele>
        <time>2025-07-15T15:55:10Z</time>
      </trkpt>
      <trkpt lat="43.82067" lon="6.80049">
        <ele>1304.8</ele>
        <time>2025-07-15T15:55:16Z</time>
      </trkpt>
      <trkpt lat="43.82066" lon="6.80045">
        <ele>1305</ele>
        <time>2025-07-15T15:55:17Z</time>
      </trkpt>
      <trkpt lat="43.82062" lon="6.80023">
        <ele>1305.8</ele>
        <time>2025-07-15T15:55:24Z</time>
      </trkpt>
      <trkpt lat="43.82062" lon="6.8002">
        <ele>1306</ele>
        <time>2025-07-15T15:55:25Z</time>
      </trkpt>
      <trkpt lat="43.82058" lon="6.80001">
        <ele>1307.2</ele>
        <time>2025-07-15T15:55:31Z</time>
      </trkpt>
      <trkpt lat="43.82058" lon="6.79995">
        <ele>1307.6</ele>
        <time>2025-07-15T15:55:33Z</time>
      </trkpt>
      <trkpt lat="43.82056" lon="6.79979">
        <ele>1308.2</ele>
        <time>2025-07-15T15:55:38Z</time>
      </trkpt>
      <trkpt lat="43.82053" lon="6.79964">
        <ele>1309</ele>
        <time>2025-07-15T15:55:43Z</time>
      </trkpt>
      <trkpt lat="43.82052" lon="6.79957">
        <ele>1309.2</ele>
        <time>2025-07-15T15:55:45Z</time>
      </trkpt>
      <trkpt lat="43.82048" lon="6.79943">
        <ele>1310.2</ele>
        <time>2025-07-15T15:55:50Z</time>
      </trkpt>
      <trkpt lat="43.82044" lon="6.79918">
        <ele>1311.2</ele>
        <time>2025-07-15T15:55:58Z</time>
      </trkpt>
      <trkpt lat="43.82041" lon="6.799">
        <ele>1312.2</ele>
        <time>2025-07-15T15:56:04Z</time>
      </trkpt>
      <trkpt lat="43.8204" lon="6.79897">
        <ele>1312.4</ele>
        <time>2025-07-15T15:56:05Z</time>
      </trkpt>
      <trkpt lat="43.8204" lon="6.79894">
        <ele>1312.6</ele>
        <time>2025-07-15T15:56:06Z</time>
      </trkpt>
      <trkpt lat="43.82035" lon="6.7988">
        <ele>1313.4</ele>
        <time>2025-07-15T15:56:11Z</time>
      </trkpt>
      <trkpt lat="43.82029" lon="6.79868">
        <ele>1314</ele>
        <time>2025-07-15T15:56:16Z</time>
      </trkpt>
      <trkpt lat="43.82026" lon="6.79863">
        <ele>1314.2</ele>
        <time>2025-07-15T15:56:18Z</time>
      </trkpt>
      <trkpt lat="43.82017" lon="6.79853">
        <ele>1315</ele>
        <time>2025-07-15T15:56:23Z</time>
      </trkpt>
      <trkpt lat="43.82016" lon="6.79851">
        <ele>1315.2</ele>
        <time>2025-07-15T15:56:24Z</time>
      </trkpt>
      <trkpt lat="43.82005" lon="6.79833">
        <ele>1316.2</ele>
        <time>2025-07-15T15:56:31Z</time>
      </trkpt>
      <trkpt lat="43.82004" lon="6.79831">
        <ele>1316.4</ele>
        <time>2025-07-15T15:56:32Z</time>
      </trkpt>
      <trkpt lat="43.81998" lon="6.79817">
        <ele>1317.2</ele>
        <time>2025-07-15T15:56:37Z</time>
      </trkpt>
      <trkpt lat="43.81997" lon="6.79811">
        <ele>1317.6</ele>
        <time>2025-07-15T15:56:39Z</time>
      </trkpt>
      <trkpt lat="43.81994" lon="6.79798">
        <ele>1318.4</ele>
        <time>2025-07-15T15:56:43Z</time>
      </trkpt>
      <trkpt lat="43.81994" lon="6.79787">
        <ele>1318.8</ele>
        <time>2025-07-15T15:56:46Z</time>
      </trkpt>
      <trkpt lat="43.81993" lon="6.79775">
        <ele>1319.4</ele>
        <time>2025-07-15T15:56:50Z</time>
      </trkpt>
      <trkpt lat="43.81992" lon="6.79762">
        <ele>1319.8</ele>
        <time>2025-07-15T15:56:54Z</time>
      </trkpt>
      <trkpt lat="43.81993" lon="6.79748">
        <ele>1320.4</ele>
        <time>2025-07-15T15:56:58Z</time>
      </trkpt>
      <trkpt lat="43.81992" lon="6.79728">
        <ele>1321.4</ele>
        <time>2025-07-15T15:57:04Z</time>
      </trkpt>
      <trkpt lat="43.81989" lon="6.797">
        <ele>1322.2</ele>
        <time>2025-07-15T15:57:13Z</time>
      </trkpt>
      <trkpt lat="43.81988" lon="6.79696">
        <ele>1322.4</ele>
        <time>2025-07-15T15:57:14Z</time>
      </trkpt>
      <trkpt lat="43.81985" lon="6.79675">
        <ele>1323.6</ele>
        <time>2025-07-15T15:57:21Z</time>
      </trkpt>
      <trkpt lat="43.81983" lon="6.79666">
        <ele>1324</ele>
        <time>2025-07-15T15:57:24Z</time>
      </trkpt>
      <trkpt lat="43.8198" lon="6.79651">
        <ele>1324.8</ele>
        <time>2025-07-15T15:57:29Z</time>
      </trkpt>
      <trkpt lat="43.81977" lon="6.7964">
        <ele>1325.6</ele>
        <time>2025-07-15T15:57:33Z</time>
      </trkpt>
      <trkpt lat="43.81975" lon="6.79633">
        <ele>1326</ele>
        <time>2025-07-15T15:57:35Z</time>
      </trkpt>
      <trkpt lat="43.81973" lon="6.79622">
        <ele>1326.8</ele>
        <time>2025-07-15T15:57:39Z</time>
      </trkpt>
      <trkpt lat="43.81972" lon="6.79619">
        <ele>1327</ele>
        <time>2025-07-15T15:57:40Z</time>
      </trkpt>
      <trkpt lat="43.81967" lon="6.79599">
        <ele>1328</ele>
        <time>2025-07-15T15:57:47Z</time>
      </trkpt>
      <trkpt lat="43.81966" lon="6.79596">
        <ele>1328.2</ele>
        <time>2025-07-15T15:57:48Z</time>
      </trkpt>
      <trkpt lat="43.81963" lon="6.79574">
        <ele>1329</ele>
        <time>2025-07-15T15:57:55Z</time>
      </trkpt>
      <trkpt lat="43.81963" lon="6.7957">
        <ele>1329</ele>
        <time>2025-07-15T15:57:56Z</time>
      </trkpt>
      <trkpt lat="43.81958" lon="6.79549">
        <ele>1330</ele>
        <time>2025-07-15T15:58:03Z</time>
      </trkpt>
      <trkpt lat="43.81954" lon="6.79545">
        <ele>1330.4</ele>
        <time>2025-07-15T15:58:05Z</time>
      </trkpt>
      <trkpt lat="43.8195" lon="6.79547">
        <ele>1330.6</ele>
        <time>2025-07-15T15:58:07Z</time>
      </trkpt>
      <trkpt lat="43.81949" lon="6.79549">
        <ele>1330.8</ele>
        <time>2025-07-15T15:58:08Z</time>
      </trkpt>
      <trkpt lat="43.81948" lon="6.79555">
        <ele>1330.8</ele>
        <time>2025-07-15T15:58:10Z</time>
      </trkpt>
      <trkpt lat="43.81947" lon="6.79558">
        <ele>1330.8</ele>
        <time>2025-07-15T15:58:11Z</time>
      </trkpt>
      <trkpt lat="43.81948" lon="6.79571">
        <ele>1331.8</ele>
        <time>2025-07-15T15:58:15Z</time>
      </trkpt>
      <trkpt lat="43.81949" lon="6.79579">
        <ele>1332.2</ele>
        <time>2025-07-15T15:58:17Z</time>
      </trkpt>
      <trkpt lat="43.81949" lon="6.79599">
        <ele>1332.8</ele>
        <time>2025-07-15T15:58:23Z</time>
      </trkpt>
      <trkpt lat="43.81949" lon="6.79606">
        <ele>1333</ele>
        <time>2025-07-15T15:58:25Z</time>
      </trkpt>
      <trkpt lat="43.81949" lon="6.79626">
        <ele>1334</ele>
        <time>2025-07-15T15:58:31Z</time>
      </trkpt>
      <trkpt lat="43.81949" lon="6.79635">
        <ele>1334.4</ele>
        <time>2025-07-15T15:58:34Z</time>
      </trkpt>
      <trkpt lat="43.81949" lon="6.79642">
        <ele>1335</ele>
        <time>2025-07-15T15:58:36Z</time>
      </trkpt>
      <trkpt lat="43.81949" lon="6.79662">
        <ele>1335.6</ele>
        <time>2025-07-15T15:58:42Z</time>
      </trkpt>
      <trkpt lat="43.81948" lon="6.79669">
        <ele>1336</ele>
        <time>2025-07-15T15:58:44Z</time>
      </trkpt>
      <trkpt lat="43.81948" lon="6.79688">
        <ele>1337</ele>
        <time>2025-07-15T15:58:50Z</time>
      </trkpt>
      <trkpt lat="43.81947" lon="6.79708">
        <ele>1338.2</ele>
        <time>2025-07-15T15:58:56Z</time>
      </trkpt>
      <trkpt lat="43.81947" lon="6.79712">
        <ele>1338.2</ele>
        <time>2025-07-15T15:58:57Z</time>
      </trkpt>
      <trkpt lat="43.81946" lon="6.79731">
        <ele>1339</ele>
        <time>2025-07-15T15:59:03Z</time>
      </trkpt>
      <trkpt lat="43.81945" lon="6.79737">
        <ele>1339.4</ele>
        <time>2025-07-15T15:59:05Z</time>
      </trkpt>
      <trkpt lat="43.81944" lon="6.79746">
        <ele>1340.2</ele>
        <time>2025-07-15T15:59:08Z</time>
      </trkpt>
      <trkpt lat="43.81943" lon="6.79761">
        <ele>1341</ele>
        <time>2025-07-15T15:59:13Z</time>
      </trkpt>
      <trkpt lat="43.81943" lon="6.79764">
        <ele>1341.4</ele>
        <time>2025-07-15T15:59:14Z</time>
      </trkpt>
      <trkpt lat="43.81941" lon="6.79779">
        <ele>1342</ele>
        <time>2025-07-15T15:59:19Z</time>
      </trkpt>
      <trkpt lat="43.8194" lon="6.79785">
        <ele>1342.6</ele>
        <time>2025-07-15T15:59:21Z</time>
      </trkpt>
      <trkpt lat="43.81939" lon="6.79795">
        <ele>1342.8</ele>
        <time>2025-07-15T15:59:24Z</time>
      </trkpt>
      <trkpt lat="43.81937" lon="6.79807">
        <ele>1343.6</ele>
        <time>2025-07-15T15:59:28Z</time>
      </trkpt>
      <trkpt lat="43.81936" lon="6.79813">
        <ele>1343.8</ele>
        <time>2025-07-15T15:59:30Z</time>
      </trkpt>
      <trkpt lat="43.81935" lon="6.79829">
        <ele>1344.6</ele>
        <time>2025-07-15T15:59:35Z</time>
      </trkpt>
      <trkpt lat="43.81934" lon="6.79838">
        <ele>1345</ele>
        <time>2025-07-15T15:59:38Z</time>
      </trkpt>
      <trkpt lat="43.81934" lon="6.79845">
        <ele>1346</ele>
        <time>2025-07-15T15:59:40Z</time>
      </trkpt>
      <trkpt lat="43.81934" lon="6.79857">
        <ele>1346.6</ele>
        <time>2025-07-15T15:59:44Z</time>
      </trkpt>
      <trkpt lat="43.81934" lon="6.79864">
        <ele>1347</ele>
        <time>2025-07-15T15:59:46Z</time>
      </trkpt>
      <trkpt lat="43.81934" lon="6.79869">
        <ele>1347.4</ele>
        <time>2025-07-15T15:59:48Z</time>
      </trkpt>
      <trkpt lat="43.81934" lon="6.79879">
        <ele>1348</ele>
        <time>2025-07-15T15:59:51Z</time>
      </trkpt>
      <trkpt lat="43.81934" lon="6.79885">
        <ele>1348.4</ele>
        <time>2025-07-15T15:59:53Z</time>
      </trkpt>
      <trkpt lat="43.81934" lon="6.79891">
        <ele>1348.8</ele>
        <time>2025-07-15T15:59:55Z</time>
      </trkpt>
      <trkpt lat="43.81934" lon="6.79895">
        <ele>1349.2</ele>
        <time>2025-07-15T15:59:56Z</time>
      </trkpt>
      <trkpt lat="43.81934" lon="6.79917">
        <ele>1349.8</ele>
        <time>2025-07-15T16:00:03Z</time>
      </trkpt>
      <trkpt lat="43.81934" lon="6.7992">
        <ele>1350.2</ele>
        <time>2025-07-15T16:00:04Z</time>
      </trkpt>
      <trkpt lat="43.81937" lon="6.79939">
        <ele>1351.2</ele>
        <time>2025-07-15T16:00:10Z</time>
      </trkpt>
      <trkpt lat="43.81937" lon="6.79942">
        <ele>1351.2</ele>
        <time>2025-07-15T16:00:11Z</time>
      </trkpt>
      <trkpt lat="43.81939" lon="6.79958">
        <ele>1352.2</ele>
        <time>2025-07-15T16:00:16Z</time>
      </trkpt>
      <trkpt lat="43.81939" lon="6.79961">
        <ele>1352.4</ele>
        <time>2025-07-15T16:00:17Z</time>
      </trkpt>
      <trkpt lat="43.8194" lon="6.7998">
        <ele>1353.4</ele>
        <time>2025-07-15T16:00:23Z</time>
      </trkpt>
      <trkpt lat="43.81938" lon="6.79996">
        <ele>1353.8</ele>
        <time>2025-07-15T16:00:28Z</time>
      </trkpt>
      <trkpt lat="43.81939" lon="6.80009">
        <ele>1354.2</ele>
        <time>2025-07-15T16:00:32Z</time>
      </trkpt>
      <trkpt lat="43.81939" lon="6.80023">
        <ele>1355</ele>
        <time>2025-07-15T16:00:36Z</time>
      </trkpt>
      <trkpt lat="43.8194" lon="6.8003">
        <ele>1355.2</ele>
        <time>2025-07-15T16:00:38Z</time>
      </trkpt>
      <trkpt lat="43.81941" lon="6.80043">
        <ele>1356</ele>
        <time>2025-07-15T16:00:42Z</time>
      </trkpt>
      <trkpt lat="43.81942" lon="6.8005">
        <ele>1356.4</ele>
        <time>2025-07-15T16:00:44Z</time>
      </trkpt>
      <trkpt lat="43.81943" lon="6.80067">
        <ele>1356.8</ele>
        <time>2025-07-15T16:00:49Z</time>
      </trkpt>
      <trkpt lat="43.81943" lon="6.8008">
        <ele>1357.4</ele>
        <time>2025-07-15T16:00:53Z</time>
      </trkpt>
      <trkpt lat="43.81943" lon="6.80083">
        <ele>1357.4</ele>
        <time>2025-07-15T16:00:54Z</time>
      </trkpt>
      <trkpt lat="43.81945" lon="6.80102">
        <ele>1358.2</ele>
        <time>2025-07-15T16:00:59Z</time>
      </trkpt>
      <trkpt lat="43.81945" lon="6.80105">
        <ele>1358.6</ele>
        <time>2025-07-15T16:01:00Z</time>
      </trkpt>
      <trkpt lat="43.81943" lon="6.8012">
        <ele>1359.2</ele>
        <time>2025-07-15T16:01:05Z</time>
      </trkpt>
      <trkpt lat="43.81943" lon="6.80123">
        <ele>1359.4</ele>
        <time>2025-07-15T16:01:06Z</time>
      </trkpt>
      <trkpt lat="43.81943" lon="6.80138">
        <ele>1360.2</ele>
        <time>2025-07-15T16:01:11Z</time>
      </trkpt>
      <trkpt lat="43.81943" lon="6.80141">
        <ele>1360.6</ele>
        <time>2025-07-15T16:01:12Z</time>
      </trkpt>
      <trkpt lat="43.81943" lon="6.80163">
        <ele>1361</ele>
        <time>2025-07-15T16:01:19Z</time>
      </trkpt>
      <trkpt lat="43.81942" lon="6.80166">
        <ele>1361.2</ele>
        <time>2025-07-15T16:01:20Z</time>
      </trkpt>
      <trkpt lat="43.81942" lon="6.80171">
        <ele>1361.6</ele>
        <time>2025-07-15T16:01:22Z</time>
      </trkpt>
      <trkpt lat="43.81941" lon="6.80183">
        <ele>1362.4</ele>
        <time>2025-07-15T16:01:26Z</time>
      </trkpt>
      <trkpt lat="43.8194" lon="6.80193">
        <ele>1363</ele>
        <time>2025-07-15T16:01:29Z</time>
      </trkpt>
      <trkpt lat="43.8194" lon="6.80203">
        <ele>1363.6</ele>
        <time>2025-07-15T16:01:32Z</time>
      </trkpt>
      <trkpt lat="43.81941" lon="6.80219">
        <ele>1364</ele>
        <time>2025-07-15T16:01:37Z</time>
      </trkpt>
      <trkpt lat="43.81941" lon="6.80225">
        <ele>1364.6</ele>
        <time>2025-07-15T16:01:39Z</time>
      </trkpt>
      <trkpt lat="43.81942" lon="6.8024">
        <ele>1365.6</ele>
        <time>2025-07-15T16:01:44Z</time>
      </trkpt>
      <trkpt lat="43.81941" lon="6.8026">
        <ele>1366.6</ele>
        <time>2025-07-15T16:01:50Z</time>
      </trkpt>
      <trkpt lat="43.81941" lon="6.80269">
        <ele>1367.4</ele>
        <time>2025-07-15T16:01:53Z</time>
      </trkpt>
      <trkpt lat="43.8194" lon="6.80275">
        <ele>1367.8</ele>
        <time>2025-07-15T16:01:55Z</time>
      </trkpt>
      <trkpt lat="43.81938" lon="6.80296">
        <ele>1369</ele>
        <time>2025-07-15T16:02:02Z</time>
      </trkpt>
      <trkpt lat="43.81939" lon="6.80307">
        <ele>1369.8</ele>
        <time>2025-07-15T16:02:06Z</time>
      </trkpt>
      <trkpt lat="43.81939" lon="6.8031">
        <ele>1369.8</ele>
        <time>2025-07-15T16:02:07Z</time>
      </trkpt>
      <trkpt lat="43.81938" lon="6.80325">
        <ele>1370.8</ele>
        <time>2025-07-15T16:02:12Z</time>
      </trkpt>
      <trkpt lat="43.81938" lon="6.8034">
        <ele>1371.4</ele>
        <time>2025-07-15T16:02:17Z</time>
      </trkpt>
      <trkpt lat="43.81937" lon="6.80346">
        <ele>1371.8</ele>
        <time>2025-07-15T16:02:19Z</time>
      </trkpt>
      <trkpt lat="43.81937" lon="6.80352">
        <ele>1372</ele>
        <time>2025-07-15T16:02:21Z</time>
      </trkpt>
      <trkpt lat="43.81938" lon="6.80364">
        <ele>1372.6</ele>
        <time>2025-07-15T16:02:25Z</time>
      </trkpt>
      <trkpt lat="43.81938" lon="6.80373">
        <ele>1373</ele>
        <time>2025-07-15T16:02:28Z</time>
      </trkpt>
      <trkpt lat="43.81937" lon="6.80382">
        <ele>1373.4</ele>
        <time>2025-07-15T16:02:31Z</time>
      </trkpt>
      <trkpt lat="43.81937" lon="6.80398">
        <ele>1374</ele>
        <time>2025-07-15T16:02:36Z</time>
      </trkpt>
      <trkpt lat="43.81938" lon="6.804">
        <ele>1374</ele>
        <time>2025-07-15T16:02:37Z</time>
      </trkpt>
      <trkpt lat="43.81939" lon="6.80406">
        <ele>1374.2</ele>
        <time>2025-07-15T16:02:39Z</time>
      </trkpt>
      <trkpt lat="43.81938" lon="6.80412">
        <ele>1374.6</ele>
        <time>2025-07-15T16:02:41Z</time>
      </trkpt>
      <trkpt lat="43.81938" lon="6.80423">
        <ele>1375</ele>
        <time>2025-07-15T16:02:44Z</time>
      </trkpt>
      <trkpt lat="43.81936" lon="6.80426">
        <ele>1375.2</ele>
        <time>2025-07-15T16:02:45Z</time>
      </trkpt>
      <trkpt lat="43.81936" lon="6.80429">
        <ele>1375.2</ele>
        <time>2025-07-15T16:02:46Z</time>
      </trkpt>
      <trkpt lat="43.81932" lon="6.80452">
        <ele>1376.2</ele>
        <time>2025-07-15T16:02:52Z</time>
      </trkpt>
      <trkpt lat="43.81931" lon="6.80456">
        <ele>1376.2</ele>
        <time>2025-07-15T16:02:53Z</time>
      </trkpt>
      <trkpt lat="43.8193" lon="6.8048">
        <ele>1376.6</ele>
        <time>2025-07-15T16:02:59Z</time>
      </trkpt>
      <trkpt lat="43.8193" lon="6.80484">
        <ele>1376.6</ele>
        <time>2025-07-15T16:03:00Z</time>
      </trkpt>
      <trkpt lat="43.81929" lon="6.80495">
        <ele>1377</ele>
        <time>2025-07-15T16:03:03Z</time>
      </trkpt>
      <trkpt lat="43.81927" lon="6.80503">
        <ele>1377.4</ele>
        <time>2025-07-15T16:03:05Z</time>
      </trkpt>
      <trkpt lat="43.81925" lon="6.80518">
        <ele>1377.8</ele>
        <time>2025-07-15T16:03:09Z</time>
      </trkpt>
      <trkpt lat="43.81924" lon="6.80529">
        <ele>1378</ele>
        <time>2025-07-15T16:03:12Z</time>
      </trkpt>
      <trkpt lat="43.81925" lon="6.80532">
        <ele>1378.4</ele>
        <time>2025-07-15T16:03:13Z</time>
      </trkpt>
      <trkpt lat="43.81923" lon="6.80536">
        <ele>1378.6</ele>
        <time>2025-07-15T16:03:14Z</time>
      </trkpt>
      <trkpt lat="43.81923" lon="6.80539">
        <ele>1378.8</ele>
        <time>2025-07-15T16:03:15Z</time>
      </trkpt>
      <trkpt lat="43.81921" lon="6.80555">
        <ele>1379.6</ele>
        <time>2025-07-15T16:03:19Z</time>
      </trkpt>
      <trkpt lat="43.8192" lon="6.80562">
        <ele>1379.8</ele>
        <time>2025-07-15T16:03:21Z</time>
      </trkpt>
      <trkpt lat="43.81918" lon="6.80584">
        <ele>1380.6</ele>
        <time>2025-07-15T16:03:27Z</time>
      </trkpt>
      <trkpt lat="43.81918" lon="6.80592">
        <ele>1380.8</ele>
        <time>2025-07-15T16:03:29Z</time>
      </trkpt>
      <trkpt lat="43.81918" lon="6.80608">
        <ele>1381.4</ele>
        <time>2025-07-15T16:03:34Z</time>
      </trkpt>
      <trkpt lat="43.81919" lon="6.80611">
        <ele>1381.6</ele>
        <time>2025-07-15T16:03:35Z</time>
      </trkpt>
      <trkpt lat="43.8192" lon="6.80621">
        <ele>1382</ele>
        <time>2025-07-15T16:03:38Z</time>
      </trkpt>
      <trkpt lat="43.8192" lon="6.8063">
        <ele>1382.6</ele>
        <time>2025-07-15T16:03:41Z</time>
      </trkpt>
      <trkpt lat="43.81922" lon="6.80649">
        <ele>1383.6</ele>
        <time>2025-07-15T16:03:47Z</time>
      </trkpt>
      <trkpt lat="43.81926" lon="6.80668">
        <ele>1384.4</ele>
        <time>2025-07-15T16:03:53Z</time>
      </trkpt>
      <trkpt lat="43.81928" lon="6.80674">
        <ele>1384.8</ele>
        <time>2025-07-15T16:03:55Z</time>
      </trkpt>
      <trkpt lat="43.81932" lon="6.80686">
        <ele>1385.4</ele>
        <time>2025-07-15T16:03:59Z</time>
      </trkpt>
      <trkpt lat="43.81933" lon="6.80692">
        <ele>1385.8</ele>
        <time>2025-07-15T16:04:01Z</time>
      </trkpt>
      <trkpt lat="43.81935" lon="6.80708">
        <ele>1386.6</ele>
        <time>2025-07-15T16:04:06Z</time>
      </trkpt>
      <trkpt lat="43.81935" lon="6.80711">
        <ele>1386.8</ele>
        <time>2025-07-15T16:04:07Z</time>
      </trkpt>
      <trkpt lat="43.81938" lon="6.80727">
        <ele>1388</ele>
        <time>2025-07-15T16:04:12Z</time>
      </trkpt>
      <trkpt lat="43.81939" lon="6.80736">
        <ele>1388.4</ele>
        <time>2025-07-15T16:04:15Z</time>
      </trkpt>
      <trkpt lat="43.81939" lon="6.80749">
        <ele>1389.2</ele>
        <time>2025-07-15T16:04:19Z</time>
      </trkpt>
      <trkpt lat="43.8194" lon="6.80765">
        <ele>1390.2</ele>
        <time>2025-07-15T16:04:24Z</time>
      </trkpt>
      <trkpt lat="43.8194" lon="6.80768">
        <ele>1390.4</ele>
        <time>2025-07-15T16:04:25Z</time>
      </trkpt>
      <trkpt lat="43.81938" lon="6.80781">
        <ele>1391</ele>
        <time>2025-07-15T16:04:29Z</time>
      </trkpt>
      <trkpt lat="43.81936" lon="6.80782">
        <ele>1391.2</ele>
        <time>2025-07-15T16:04:30Z</time>
      </trkpt>
      <trkpt lat="43.81934" lon="6.80782">
        <ele>1391.4</ele>
        <time>2025-07-15T16:04:31Z</time>
      </trkpt>
      <trkpt lat="43.81932" lon="6.80778">
        <ele>1391.8</ele>
        <time>2025-07-15T16:04:33Z</time>
      </trkpt>
      <trkpt lat="43.81934" lon="6.80765">
        <ele>1392.4</ele>
        <time>2025-07-15T16:04:37Z</time>
      </trkpt>
      <trkpt lat="43.81935" lon="6.80758">
        <ele>1393</ele>
        <time>2025-07-15T16:04:39Z</time>
      </trkpt>
      <trkpt lat="43.81935" lon="6.80746">
        <ele>1393.6</ele>
        <time>2025-07-15T16:04:43Z</time>
      </trkpt>
      <trkpt lat="43.81934" lon="6.80739">
        <ele>1393.8</ele>
        <time>2025-07-15T16:04:45Z</time>
      </trkpt>
      <trkpt lat="43.81931" lon="6.80721">
        <ele>1394.4</ele>
        <time>2025-07-15T16:04:51Z</time>
      </trkpt>
      <trkpt lat="43.8193" lon="6.80716">
        <ele>1394.6</ele>
        <time>2025-07-15T16:04:53Z</time>
      </trkpt>
      <trkpt lat="43.81925" lon="6.80703">
        <ele>1395</ele>
        <time>2025-07-15T16:04:58Z</time>
      </trkpt>
      <trkpt lat="43.81921" lon="6.80692">
        <ele>1395.6</ele>
        <time>2025-07-15T16:05:02Z</time>
      </trkpt>
      <trkpt lat="43.81916" lon="6.80678">
        <ele>1396.4</ele>
        <time>2025-07-15T16:05:07Z</time>
      </trkpt>
      <trkpt lat="43.81914" lon="6.80673">
        <ele>1396.6</ele>
        <time>2025-07-15T16:05:09Z</time>
      </trkpt>
      <trkpt lat="43.81905" lon="6.80654">
        <ele>1398.2</ele>
        <time>2025-07-15T16:05:16Z</time>
      </trkpt>
      <trkpt lat="43.819" lon="6.80639">
        <ele>1399.2</ele>
        <time>2025-07-15T16:05:21Z</time>
      </trkpt>
      <trkpt lat="43.81897" lon="6.8063">
        <ele>1399.4</ele>
        <time>2025-07-15T16:05:24Z</time>
      </trkpt>
      <trkpt lat="43.81892" lon="6.80613">
        <ele>1400.4</ele>
        <time>2025-07-15T16:05:30Z</time>
      </trkpt>
      <trkpt lat="43.81891" lon="6.8061">
        <ele>1400.6</ele>
        <time>2025-07-15T16:05:31Z</time>
      </trkpt>
      <trkpt lat="43.81888" lon="6.80597">
        <ele>1401.4</ele>
        <time>2025-07-15T16:05:35Z</time>
      </trkpt>
      <trkpt lat="43.81886" lon="6.80584">
        <ele>1402.2</ele>
        <time>2025-07-15T16:05:39Z</time>
      </trkpt>
      <trkpt lat="43.81886" lon="6.80578">
        <ele>1402.4</ele>
        <time>2025-07-15T16:05:41Z</time>
      </trkpt>
      <trkpt lat="43.81888" lon="6.80558">
        <ele>1403</ele>
        <time>2025-07-15T16:05:47Z</time>
      </trkpt>
      <trkpt lat="43.81889" lon="6.8055">
        <ele>1403.6</ele>
        <time>2025-07-15T16:05:49Z</time>
      </trkpt>
      <trkpt lat="43.81891" lon="6.80536">
        <ele>1404.2</ele>
        <time>2025-07-15T16:05:53Z</time>
      </trkpt>
      <trkpt lat="43.81891" lon="6.80522">
        <ele>1404.8</ele>
        <time>2025-07-15T16:05:57Z</time>
      </trkpt>
      <trkpt lat="43.81891" lon="6.80508">
        <ele>1405.4</ele>
        <time>2025-07-15T16:06:01Z</time>
      </trkpt>
      <trkpt lat="43.81891" lon="6.80498">
        <ele>1406</ele>
        <time>2025-07-15T16:06:04Z</time>
      </trkpt>
      <trkpt lat="43.81891" lon="6.80482">
        <ele>1406.8</ele>
        <time>2025-07-15T16:06:09Z</time>
      </trkpt>
      <trkpt lat="43.81891" lon="6.80475">
        <ele>1407.2</ele>
        <time>2025-07-15T16:06:11Z</time>
      </trkpt>
      <trkpt lat="43.81893" lon="6.80456">
        <ele>1408.2</ele>
        <time>2025-07-15T16:06:17Z</time>
      </trkpt>
      <trkpt lat="43.81894" lon="6.80452">
        <ele>1408.4</ele>
        <time>2025-07-15T16:06:19Z</time>
      </trkpt>
      <trkpt lat="43.81895" lon="6.80442">
        <ele>1409.2</ele>
        <time>2025-07-15T16:06:22Z</time>
      </trkpt>
      <trkpt lat="43.81895" lon="6.8043">
        <ele>1409.6</ele>
        <time>2025-07-15T16:06:26Z</time>
      </trkpt>
      <trkpt lat="43.81894" lon="6.80424">
        <ele>1410.4</ele>
        <time>2025-07-15T16:06:28Z</time>
      </trkpt>
      <trkpt lat="43.8189" lon="6.80412">
        <ele>1411</ele>
        <time>2025-07-15T16:06:32Z</time>
      </trkpt>
      <trkpt lat="43.81888" lon="6.80407">
        <ele>1411.6</ele>
        <time>2025-07-15T16:06:34Z</time>
      </trkpt>
      <trkpt lat="43.81883" lon="6.80391">
        <ele>1412.6</ele>
        <time>2025-07-15T16:06:40Z</time>
      </trkpt>
      <trkpt lat="43.81882" lon="6.80388">
        <ele>1412.8</ele>
        <time>2025-07-15T16:06:41Z</time>
      </trkpt>
      <trkpt lat="43.81879" lon="6.80375">
        <ele>1413.8</ele>
        <time>2025-07-15T16:06:46Z</time>
      </trkpt>
      <trkpt lat="43.81876" lon="6.80367">
        <ele>1414.4</ele>
        <time>2025-07-15T16:06:49Z</time>
      </trkpt>
      <trkpt lat="43.81875" lon="6.80361">
        <ele>1414.6</ele>
        <time>2025-07-15T16:06:51Z</time>
      </trkpt>
      <trkpt lat="43.8187" lon="6.80344">
        <ele>1415.8</ele>
        <time>2025-07-15T16:06:57Z</time>
      </trkpt>
      <trkpt lat="43.81869" lon="6.80338">
        <ele>1416.2</ele>
        <time>2025-07-15T16:06:59Z</time>
      </trkpt>
      <trkpt lat="43.81867" lon="6.8033">
        <ele>1416.8</ele>
        <time>2025-07-15T16:07:02Z</time>
      </trkpt>
      <trkpt lat="43.81861" lon="6.80312">
        <ele>1417.8</ele>
        <time>2025-07-15T16:07:08Z</time>
      </trkpt>
      <trkpt lat="43.8186" lon="6.80309">
        <ele>1418</ele>
        <time>2025-07-15T16:07:09Z</time>
      </trkpt>
      <trkpt lat="43.81855" lon="6.80283">
        <ele>1419.2</ele>
        <time>2025-07-15T16:07:18Z</time>
      </trkpt>
      <trkpt lat="43.81854" lon="6.80279">
        <ele>1419.4</ele>
        <time>2025-07-15T16:07:19Z</time>
      </trkpt>
      <trkpt lat="43.81852" lon="6.80268">
        <ele>1420.4</ele>
        <time>2025-07-15T16:07:23Z</time>
      </trkpt>
      <trkpt lat="43.8185" lon="6.80259">
        <ele>1421</ele>
        <time>2025-07-15T16:07:26Z</time>
      </trkpt>
      <trkpt lat="43.8185" lon="6.80252">
        <ele>1421.4</ele>
        <time>2025-07-15T16:07:28Z</time>
      </trkpt>
      <trkpt lat="43.81848" lon="6.80239">
        <ele>1422.4</ele>
        <time>2025-07-15T16:07:33Z</time>
      </trkpt>
      <trkpt lat="43.81848" lon="6.80233">
        <ele>1422.8</ele>
        <time>2025-07-15T16:07:35Z</time>
      </trkpt>
      <trkpt lat="43.81847" lon="6.80227">
        <ele>1423.2</ele>
        <time>2025-07-15T16:07:37Z</time>
      </trkpt>
      <trkpt lat="43.81847" lon="6.80224">
        <ele>1423.4</ele>
        <time>2025-07-15T16:07:38Z</time>
      </trkpt>
      <trkpt lat="43.81847" lon="6.80221">
        <ele>1423.4</ele>
        <time>2025-07-15T16:07:39Z</time>
      </trkpt>
      <trkpt lat="43.81849" lon="6.80202">
        <ele>1423.8</ele>
        <time>2025-07-15T16:07:45Z</time>
      </trkpt>
      <trkpt lat="43.81851" lon="6.80176">
        <ele>1424.4</ele>
        <time>2025-07-15T16:07:52Z</time>
      </trkpt>
      <trkpt lat="43.8185" lon="6.80168">
        <ele>1424.8</ele>
        <time>2025-07-15T16:07:54Z</time>
      </trkpt>
      <trkpt lat="43.81848" lon="6.80165">
        <ele>1425</ele>
        <time>2025-07-15T16:07:55Z</time>
      </trkpt>
      <trkpt lat="43.81844" lon="6.80164">
        <ele>1425.4</ele>
        <time>2025-07-15T16:07:57Z</time>
      </trkpt>
      <trkpt lat="43.8184" lon="6.80172">
        <ele>1426.2</ele>
        <time>2025-07-15T16:08:00Z</time>
      </trkpt>
      <trkpt lat="43.81838" lon="6.80178">
        <ele>1426.6</ele>
        <time>2025-07-15T16:08:02Z</time>
      </trkpt>
      <trkpt lat="43.81838" lon="6.80181">
        <ele>1426.6</ele>
        <time>2025-07-15T16:08:03Z</time>
      </trkpt>
      <trkpt lat="43.81837" lon="6.80187">
        <ele>1427.2</ele>
        <time>2025-07-15T16:08:05Z</time>
      </trkpt>
      <trkpt lat="43.81836" lon="6.80197">
        <ele>1427.6</ele>
        <time>2025-07-15T16:08:08Z</time>
      </trkpt>
      <trkpt lat="43.81835" lon="6.802">
        <ele>1427.8</ele>
        <time>2025-07-15T16:08:09Z</time>
      </trkpt>
      <trkpt lat="43.81834" lon="6.80203">
        <ele>1427.8</ele>
        <time>2025-07-15T16:08:10Z</time>
      </trkpt>
      <trkpt lat="43.81832" lon="6.80214">
        <ele>1428.2</ele>
        <time>2025-07-15T16:08:13Z</time>
      </trkpt>
      <trkpt lat="43.81832" lon="6.80216">
        <ele>1428.4</ele>
        <time>2025-07-15T16:08:14Z</time>
      </trkpt>
      <trkpt lat="43.81831" lon="6.80223">
        <ele>1428.6</ele>
        <time>2025-07-15T16:08:16Z</time>
      </trkpt>
      <trkpt lat="43.8183" lon="6.80234">
        <ele>1429.2</ele>
        <time>2025-07-15T16:08:20Z</time>
      </trkpt>
      <trkpt lat="43.8183" lon="6.80245">
        <ele>1429.6</ele>
        <time>2025-07-15T16:08:23Z</time>
      </trkpt>
      <trkpt lat="43.81829" lon="6.80263">
        <ele>1430</ele>
        <time>2025-07-15T16:08:28Z</time>
      </trkpt>
      <trkpt lat="43.81828" lon="6.80277">
        <ele>1430.8</ele>
        <time>2025-07-15T16:08:32Z</time>
      </trkpt>
      <trkpt lat="43.81829" lon="6.80291">
        <ele>1431.4</ele>
        <time>2025-07-15T16:08:36Z</time>
      </trkpt>
      <trkpt lat="43.81829" lon="6.803">
        <ele>1431.8</ele>
        <time>2025-07-15T16:08:39Z</time>
      </trkpt>
      <trkpt lat="43.81829" lon="6.80309">
        <ele>1432.2</ele>
        <time>2025-07-15T16:08:42Z</time>
      </trkpt>
      <trkpt lat="43.81829" lon="6.80325">
        <ele>1433</ele>
        <time>2025-07-15T16:08:47Z</time>
      </trkpt>
      <trkpt lat="43.81829" lon="6.80332">
        <ele>1433.2</ele>
        <time>2025-07-15T16:08:49Z</time>
      </trkpt>
      <trkpt lat="43.8183" lon="6.80352">
        <ele>1433.8</ele>
        <time>2025-07-15T16:08:55Z</time>
      </trkpt>
      <trkpt lat="43.8183" lon="6.80357">
        <ele>1434.4</ele>
        <time>2025-07-15T16:08:57Z</time>
      </trkpt>
      <trkpt lat="43.8183" lon="6.8037">
        <ele>1435</ele>
        <time>2025-07-15T16:09:01Z</time>
      </trkpt>
      <trkpt lat="43.8183" lon="6.80376">
        <ele>1435.2</ele>
        <time>2025-07-15T16:09:03Z</time>
      </trkpt>
      <trkpt lat="43.8183" lon="6.80393">
        <ele>1436.2</ele>
        <time>2025-07-15T16:09:08Z</time>
      </trkpt>
      <trkpt lat="43.8183" lon="6.80396">
        <ele>1436.4</ele>
        <time>2025-07-15T16:09:09Z</time>
      </trkpt>
      <trkpt lat="43.8183" lon="6.80401">
        <ele>1436.8</ele>
        <time>2025-07-15T16:09:11Z</time>
      </trkpt>
      <trkpt lat="43.81828" lon="6.80411">
        <ele>1437.2</ele>
        <time>2025-07-15T16:09:14Z</time>
      </trkpt>
      <trkpt lat="43.81826" lon="6.80429">
        <ele>1438.4</ele>
        <time>2025-07-15T16:09:20Z</time>
      </trkpt>
      <trkpt lat="43.81825" lon="6.80432">
        <ele>1438.4</ele>
        <time>2025-07-15T16:09:21Z</time>
      </trkpt>
      <trkpt lat="43.81822" lon="6.80454">
        <ele>1439.2</ele>
        <time>2025-07-15T16:09:27Z</time>
      </trkpt>
      <trkpt lat="43.8182" lon="6.80461">
        <ele>1439.4</ele>
        <time>2025-07-15T16:09:29Z</time>
      </trkpt>
      <trkpt lat="43.8182" lon="6.80463">
        <ele>1439.6</ele>
        <time>2025-07-15T16:09:30Z</time>
      </trkpt>
      <trkpt lat="43.81819" lon="6.8047">
        <ele>1440</ele>
        <time>2025-07-15T16:09:32Z</time>
      </trkpt>
      <trkpt lat="43.81818" lon="6.80477">
        <ele>1440.4</ele>
        <time>2025-07-15T16:09:34Z</time>
      </trkpt>
      <trkpt lat="43.81814" lon="6.80496">
        <ele>1441.2</ele>
        <time>2025-07-15T16:09:40Z</time>
      </trkpt>
      <trkpt lat="43.81813" lon="6.80501">
        <ele>1441.4</ele>
        <time>2025-07-15T16:09:42Z</time>
      </trkpt>
      <trkpt lat="43.81809" lon="6.80519">
        <ele>1442.2</ele>
        <time>2025-07-15T16:09:48Z</time>
      </trkpt>
      <trkpt lat="43.81807" lon="6.80526">
        <ele>1442.4</ele>
        <time>2025-07-15T16:09:50Z</time>
      </trkpt>
      <trkpt lat="43.81805" lon="6.80534">
        <ele>1442.8</ele>
        <time>2025-07-15T16:09:53Z</time>
      </trkpt>
      <trkpt lat="43.81802" lon="6.80543">
        <ele>1443.4</ele>
        <time>2025-07-15T16:09:56Z</time>
      </trkpt>
      <trkpt lat="43.81801" lon="6.80552">
        <ele>1443.8</ele>
        <time>2025-07-15T16:09:59Z</time>
      </trkpt>
      <trkpt lat="43.818" lon="6.80555">
        <ele>1444</ele>
        <time>2025-07-15T16:10:00Z</time>
      </trkpt>
      <trkpt lat="43.81799" lon="6.80567">
        <ele>1444.6</ele>
        <time>2025-07-15T16:10:04Z</time>
      </trkpt>
      <trkpt lat="43.81798" lon="6.80575">
        <ele>1444.4</ele>
        <time>2025-07-15T16:10:06Z</time>
      </trkpt>
      <trkpt lat="43.81796" lon="6.80592">
        <ele>1445.6</ele>
        <time>2025-07-15T16:10:11Z</time>
      </trkpt>
      <trkpt lat="43.81794" lon="6.80598">
        <ele>1445.8</ele>
        <time>2025-07-15T16:10:13Z</time>
      </trkpt>
      <trkpt lat="43.81789" lon="6.80601">
        <ele>1445.8</ele>
        <time>2025-07-15T16:10:15Z</time>
      </trkpt>
      <trkpt lat="43.81786" lon="6.80598">
        <ele>1446</ele>
        <time>2025-07-15T16:10:17Z</time>
      </trkpt>
      <trkpt lat="43.81788" lon="6.80588">
        <ele>1446</ele>
        <time>2025-07-15T16:10:21Z</time>
      </trkpt>
      <trkpt lat="43.8179" lon="6.8058">
        <ele>1446.2</ele>
        <time>2025-07-15T16:10:24Z</time>
      </trkpt>
      <trkpt lat="43.81791" lon="6.8057">
        <ele>1446.6</ele>
        <time>2025-07-15T16:10:27Z</time>
      </trkpt>
      <trkpt lat="43.81791" lon="6.80568">
        <ele>1446.8</ele>
        <time>2025-07-15T16:10:28Z</time>
      </trkpt>
      <trkpt lat="43.81791" lon="6.80556">
        <ele>1447.6</ele>
        <time>2025-07-15T16:10:32Z</time>
      </trkpt>
      <trkpt lat="43.8179" lon="6.80549">
        <ele>1448.4</ele>
        <time>2025-07-15T16:10:35Z</time>
      </trkpt>
      <trkpt lat="43.81789" lon="6.80545">
        <ele>1448.8</ele>
        <time>2025-07-15T16:10:36Z</time>
      </trkpt>
      <trkpt lat="43.81789" lon="6.80527">
        <ele>1449.8</ele>
        <time>2025-07-15T16:10:42Z</time>
      </trkpt>
      <trkpt lat="43.8179" lon="6.80521">
        <ele>1450</ele>
        <time>2025-07-15T16:10:44Z</time>
      </trkpt>
      <trkpt lat="43.81794" lon="6.80495">
        <ele>1450.8</ele>
        <time>2025-07-15T16:10:52Z</time>
      </trkpt>
      <trkpt lat="43.81795" lon="6.80489">
        <ele>1451</ele>
        <time>2025-07-15T16:10:54Z</time>
      </trkpt>
      <trkpt lat="43.81795" lon="6.80472">
        <ele>1451.8</ele>
        <time>2025-07-15T16:10:59Z</time>
      </trkpt>
      <trkpt lat="43.81796" lon="6.80458">
        <ele>1452.4</ele>
        <time>2025-07-15T16:11:03Z</time>
      </trkpt>
      <trkpt lat="43.81794" lon="6.80441">
        <ele>1452.8</ele>
        <time>2025-07-15T16:11:08Z</time>
      </trkpt>
      <trkpt lat="43.81794" lon="6.80429">
        <ele>1453.8</ele>
        <time>2025-07-15T16:11:12Z</time>
      </trkpt>
      <trkpt lat="43.81793" lon="6.80405">
        <ele>1455</ele>
        <time>2025-07-15T16:11:19Z</time>
      </trkpt>
      <trkpt lat="43.81793" lon="6.80395">
        <ele>1455.6</ele>
        <time>2025-07-15T16:11:22Z</time>
      </trkpt>
      <trkpt lat="43.8179" lon="6.80378">
        <ele>1456.2</ele>
        <time>2025-07-15T16:11:27Z</time>
      </trkpt>
      <trkpt lat="43.81787" lon="6.80369">
        <ele>1456.6</ele>
        <time>2025-07-15T16:11:30Z</time>
      </trkpt>
      <trkpt lat="43.81784" lon="6.8036">
        <ele>1457</ele>
        <time>2025-07-15T16:11:33Z</time>
      </trkpt>
      <trkpt lat="43.81779" lon="6.80344">
        <ele>1458.4</ele>
        <time>2025-07-15T16:11:38Z</time>
      </trkpt>
      <trkpt lat="43.81778" lon="6.80341">
        <ele>1458.4</ele>
        <time>2025-07-15T16:11:39Z</time>
      </trkpt>
      <trkpt lat="43.81776" lon="6.80328">
        <ele>1459.6</ele>
        <time>2025-07-15T16:11:43Z</time>
      </trkpt>
      <trkpt lat="43.81775" lon="6.8031">
        <ele>1460.2</ele>
        <time>2025-07-15T16:11:48Z</time>
      </trkpt>
      <trkpt lat="43.81775" lon="6.80295">
        <ele>1460.8</ele>
        <time>2025-07-15T16:11:52Z</time>
      </trkpt>
      <trkpt lat="43.81775" lon="6.80281">
        <ele>1461.4</ele>
        <time>2025-07-15T16:11:56Z</time>
      </trkpt>
      <trkpt lat="43.81772" lon="6.80277">
        <ele>1461.8</ele>
        <time>2025-07-15T16:11:58Z</time>
      </trkpt>
      <trkpt lat="43.81767" lon="6.80276">
        <ele>1462.2</ele>
        <time>2025-07-15T16:12:00Z</time>
      </trkpt>
      <trkpt lat="43.81765" lon="6.80277">
        <ele>1462.2</ele>
        <time>2025-07-15T16:12:01Z</time>
      </trkpt>
      <trkpt lat="43.81763" lon="6.80282">
        <ele>1462.4</ele>
        <time>2025-07-15T16:12:03Z</time>
      </trkpt>
      <trkpt lat="43.81762" lon="6.80286">
        <ele>1463</ele>
        <time>2025-07-15T16:12:04Z</time>
      </trkpt>
      <trkpt lat="43.81763" lon="6.80303">
        <ele>1464.2</ele>
        <time>2025-07-15T16:12:09Z</time>
      </trkpt>
      <trkpt lat="43.81763" lon="6.80306">
        <ele>1464.2</ele>
        <time>2025-07-15T16:12:10Z</time>
      </trkpt>
      <trkpt lat="43.81762" lon="6.80323">
        <ele>1465</ele>
        <time>2025-07-15T16:12:15Z</time>
      </trkpt>
      <trkpt lat="43.81763" lon="6.80352">
        <ele>1465.8</ele>
        <time>2025-07-15T16:12:23Z</time>
      </trkpt>
      <trkpt lat="43.81763" lon="6.80358">
        <ele>1466</ele>
        <time>2025-07-15T16:12:25Z</time>
      </trkpt>
      <trkpt lat="43.81762" lon="6.80372">
        <ele>1466.8</ele>
        <time>2025-07-15T16:12:29Z</time>
      </trkpt>
      <trkpt lat="43.81762" lon="6.80381">
        <ele>1466.8</ele>
        <time>2025-07-15T16:12:32Z</time>
      </trkpt>
      <trkpt lat="43.81762" lon="6.80389">
        <ele>1467</ele>
        <time>2025-07-15T16:12:34Z</time>
      </trkpt>
      <trkpt lat="43.81762" lon="6.80391">
        <ele>1467.2</ele>
        <time>2025-07-15T16:12:35Z</time>
      </trkpt>
      <trkpt lat="43.81761" lon="6.80402">
        <ele>1467.8</ele>
        <time>2025-07-15T16:12:38Z</time>
      </trkpt>
      <trkpt lat="43.8176" lon="6.80405">
        <ele>1468</ele>
        <time>2025-07-15T16:12:39Z</time>
      </trkpt>
      <trkpt lat="43.81755" lon="6.80424">
        <ele>1469.2</ele>
        <time>2025-07-15T16:12:45Z</time>
      </trkpt>
      <trkpt lat="43.81755" lon="6.80427">
        <ele>1469.2</ele>
        <time>2025-07-15T16:12:46Z</time>
      </trkpt>
      <trkpt lat="43.81749" lon="6.80445">
        <ele>1470.4</ele>
        <time>2025-07-15T16:12:52Z</time>
      </trkpt>
      <trkpt lat="43.81747" lon="6.80451">
        <ele>1470.6</ele>
        <time>2025-07-15T16:12:54Z</time>
      </trkpt>
      <trkpt lat="43.8174" lon="6.80469">
        <ele>1471.4</ele>
        <time>2025-07-15T16:13:00Z</time>
      </trkpt>
      <trkpt lat="43.81735" lon="6.80482">
        <ele>1472</ele>
        <time>2025-07-15T16:13:04Z</time>
      </trkpt>
      <trkpt lat="43.81731" lon="6.80494">
        <ele>1472.4</ele>
        <time>2025-07-15T16:13:08Z</time>
      </trkpt>
      <trkpt lat="43.81727" lon="6.80508">
        <ele>1473</ele>
        <time>2025-07-15T16:13:12Z</time>
      </trkpt>
      <trkpt lat="43.81725" lon="6.80527">
        <ele>1473.6</ele>
        <time>2025-07-15T16:13:18Z</time>
      </trkpt>
      <trkpt lat="43.81723" lon="6.8055">
        <ele>1474.6</ele>
        <time>2025-07-15T16:13:25Z</time>
      </trkpt>
      <trkpt lat="43.81719" lon="6.80577">
        <ele>1475.2</ele>
        <time>2025-07-15T16:13:33Z</time>
      </trkpt>
      <trkpt lat="43.81719" lon="6.80581">
        <ele>1475.6</ele>
        <time>2025-07-15T16:13:34Z</time>
      </trkpt>
      <trkpt lat="43.81715" lon="6.80609">
        <ele>1476.6</ele>
        <time>2025-07-15T16:13:42Z</time>
      </trkpt>
      <trkpt lat="43.81713" lon="6.80626">
        <ele>1477.6</ele>
        <time>2025-07-15T16:13:48Z</time>
      </trkpt>
      <trkpt lat="43.81713" lon="6.80629">
        <ele>1477.8</ele>
        <time>2025-07-15T16:13:49Z</time>
      </trkpt>
      <trkpt lat="43.81716" lon="6.80644">
        <ele>1478</ele>
        <time>2025-07-15T16:13:53Z</time>
      </trkpt>
      <trkpt lat="43.81717" lon="6.80647">
        <ele>1478.2</ele>
        <time>2025-07-15T16:13:54Z</time>
      </trkpt>
      <trkpt lat="43.81722" lon="6.80663">
        <ele>1478.8</ele>
        <time>2025-07-15T16:13:59Z</time>
      </trkpt>
      <trkpt lat="43.81724" lon="6.80673">
        <ele>1479.2</ele>
        <time>2025-07-15T16:14:02Z</time>
      </trkpt>
      <trkpt lat="43.81724" lon="6.80683">
        <ele>1479.4</ele>
        <time>2025-07-15T16:14:05Z</time>
      </trkpt>
      <trkpt lat="43.81724" lon="6.80683">
        <ele>1479.6</ele>
        <time>2025-07-15T16:14:06Z</time>
      </trkpt>
      <trkpt lat="43.81722" lon="6.8068">
        <ele>1479.8</ele>
        <time>2025-07-15T16:14:08Z</time>
      </trkpt>
      <trkpt lat="43.81721" lon="6.80676">
        <ele>1480</ele>
        <time>2025-07-15T16:14:09Z</time>
      </trkpt>
      <trkpt lat="43.81716" lon="6.80658">
        <ele>1480.8</ele>
        <time>2025-07-15T16:14:15Z</time>
      </trkpt>
      <trkpt lat="43.81711" lon="6.80643">
        <ele>1482</ele>
        <time>2025-07-15T16:14:20Z</time>
      </trkpt>
      <trkpt lat="43.81707" lon="6.80631">
        <ele>1482.6</ele>
        <time>2025-07-15T16:14:24Z</time>
      </trkpt>
      <trkpt lat="43.81706" lon="6.8062">
        <ele>1483.2</ele>
        <time>2025-07-15T16:14:27Z</time>
      </trkpt>
      <trkpt lat="43.81705" lon="6.80603">
        <ele>1483.6</ele>
        <time>2025-07-15T16:14:32Z</time>
      </trkpt>
      <trkpt lat="43.81703" lon="6.80589">
        <ele>1484.2</ele>
        <time>2025-07-15T16:14:36Z</time>
      </trkpt>
      <trkpt lat="43.81697" lon="6.80571">
        <ele>1484.8</ele>
        <time>2025-07-15T16:14:41Z</time>
      </trkpt>
      <trkpt lat="43.81693" lon="6.80567">
        <ele>1485.2</ele>
        <time>2025-07-15T16:14:43Z</time>
      </trkpt>
      <trkpt lat="43.81676" lon="6.80556">
        <ele>1485.8</ele>
        <time>2025-07-15T16:14:49Z</time>
      </trkpt>
      <trkpt lat="43.81659" lon="6.80546">
        <ele>1486</ele>
        <time>2025-07-15T16:14:55Z</time>
      </trkpt>
      <trkpt lat="43.81653" lon="6.80543">
        <ele>1486.4</ele>
        <time>2025-07-15T16:14:57Z</time>
      </trkpt>
      <trkpt lat="43.81641" lon="6.80535">
        <ele>1486.6</ele>
        <time>2025-07-15T16:15:01Z</time>
      </trkpt>
      <trkpt lat="43.81622" lon="6.80511">
        <ele>1487.2</ele>
        <time>2025-07-15T16:15:09Z</time>
      </trkpt>
      <trkpt lat="43.81618" lon="6.80504">
        <ele>1487.6</ele>
        <time>2025-07-15T16:15:11Z</time>
      </trkpt>
      <trkpt lat="43.81604" lon="6.80488">
        <ele>1488</ele>
        <time>2025-07-15T16:15:16Z</time>
      </trkpt>
      <trkpt lat="43.81587" lon="6.8047">
        <ele>1488.4</ele>
        <time>2025-07-15T16:15:22Z</time>
      </trkpt>
      <trkpt lat="43.81584" lon="6.80467">
        <ele>1488.4</ele>
        <time>2025-07-15T16:15:23Z</time>
      </trkpt>
      <trkpt lat="43.81564" lon="6.80445">
        <ele>1489</ele>
        <time>2025-07-15T16:15:31Z</time>
      </trkpt>
      <trkpt lat="43.81552" lon="6.8043">
        <ele>1489.4</ele>
        <time>2025-07-15T16:15:36Z</time>
      </trkpt>
      <trkpt lat="43.81544" lon="6.80423">
        <ele>1489.6</ele>
        <time>2025-07-15T16:15:39Z</time>
      </trkpt>
      <trkpt lat="43.81527" lon="6.80405">
        <ele>1489.8</ele>
        <time>2025-07-15T16:15:46Z</time>
      </trkpt>
      <trkpt lat="43.81504" lon="6.8038">
        <ele>1490</ele>
        <time>2025-07-15T16:15:55Z</time>
      </trkpt>
      <trkpt lat="43.81489" lon="6.80364">
        <ele>1490.2</ele>
        <time>2025-07-15T16:16:02Z</time>
      </trkpt>
      <trkpt lat="43.81471" lon="6.80348">
        <ele>1490.8</ele>
        <time>2025-07-15T16:16:10Z</time>
      </trkpt>
      <trkpt lat="43.81459" lon="6.80336">
        <ele>1490.2</ele>
        <time>2025-07-15T16:16:17Z</time>
      </trkpt>
      <trkpt lat="43.8145" lon="6.8033">
        <ele>1490</ele>
        <time>2025-07-15T16:16:22Z</time>
      </trkpt>
      <trkpt lat="43.81444" lon="6.80329">
        <ele>1489.8</ele>
        <time>2025-07-15T16:16:26Z</time>
      </trkpt>
      <trkpt lat="43.81442" lon="6.80329">
        <ele>1489.6</ele>
        <time>2025-07-15T16:16:28Z</time>
      </trkpt>
      <trkpt lat="43.81441" lon="6.80329">
        <ele>1489.6</ele>
        <time>2025-07-15T16:16:29Z</time>
      </trkpt>
      <trkpt lat="43.81441" lon="6.80335">
        <ele>1489.4</ele>
        <time>2025-07-15T16:16:32Z</time>
      </trkpt>
      <trkpt lat="43.81442" lon="6.80336">
        <ele>1489.4</ele>
        <time>2025-07-15T16:16:33Z</time>
      </trkpt>
      <trkpt lat="43.81455" lon="6.80342">
        <ele>1489.8</ele>
        <time>2025-07-15T16:16:40Z</time>
      </trkpt>
      <trkpt lat="43.81455" lon="6.80343">
        <ele>1489.8</ele>
        <time>2025-07-15T16:16:43Z</time>
      </trkpt>
      <trkpt lat="43.81454" lon="6.8034">
        <ele>1490.6</ele>
        <time>2025-07-15T16:20:08Z</time>
      </trkpt>
      <trkpt lat="43.81456" lon="6.80341">
        <ele>1490.6</ele>
        <time>2025-07-15T16:20:09Z</time>
      </trkpt>
      <trkpt lat="43.81469" lon="6.80351">
        <ele>1491.2</ele>
        <time>2025-07-15T16:20:15Z</time>
      </trkpt>
      <trkpt lat="43.81489" lon="6.80367">
        <ele>1491.6</ele>
        <time>2025-07-15T16:20:24Z</time>
      </trkpt>
      <trkpt lat="43.81492" lon="6.80369">
        <ele>1491.6</ele>
        <time>2025-07-15T16:20:25Z</time>
      </trkpt>
      <trkpt lat="43.81503" lon="6.80378">
        <ele>1491.8</ele>
        <time>2025-07-15T16:20:30Z</time>
      </trkpt>
      <trkpt lat="43.81506" lon="6.80382">
        <ele>1491.8</ele>
        <time>2025-07-15T16:20:36Z</time>
      </trkpt>
      <trkpt lat="43.81504" lon="6.80381">
        <ele>1492.6</ele>
        <time>2025-07-15T16:34:21Z</time>
      </trkpt>
      <trkpt lat="43.81499" lon="6.80377">
        <ele>1492.8</ele>
        <time>2025-07-15T16:34:24Z</time>
      </trkpt>
      <trkpt lat="43.81484" lon="6.80361">
        <ele>1492.8</ele>
        <time>2025-07-15T16:34:31Z</time>
      </trkpt>
      <trkpt lat="43.81469" lon="6.80346">
        <ele>1492.8</ele>
        <time>2025-07-15T16:34:38Z</time>
      </trkpt>
      <trkpt lat="43.81451" lon="6.80331">
        <ele>1491.4</ele>
        <time>2025-07-15T16:34:46Z</time>
      </trkpt>
      <trkpt lat="43.81447" lon="6.80327">
        <ele>1491</ele>
        <time>2025-07-15T16:34:51Z</time>
      </trkpt>
      <trkpt lat="43.81447" lon="6.80327">
        <ele>1490.8</ele>
        <time>2025-07-15T16:34:53Z</time>
      </trkpt>
      <trkpt lat="43.81445" lon="6.80326">
        <ele>1491</ele>
        <time>2025-07-15T16:36:11Z</time>
      </trkpt>
      <trkpt lat="43.81441" lon="6.80324">
        <ele>1491</ele>
        <time>2025-07-15T16:36:12Z</time>
      </trkpt>
      <trkpt lat="43.81425" lon="6.80317">
        <ele>1490.6</ele>
        <time>2025-07-15T16:36:18Z</time>
      </trkpt>
      <trkpt lat="43.81416" lon="6.80315">
        <ele>1490.2</ele>
        <time>2025-07-15T16:36:21Z</time>
      </trkpt>
      <trkpt lat="43.814" lon="6.80315">
        <ele>1489.6</ele>
        <time>2025-07-15T16:36:25Z</time>
      </trkpt>
      <trkpt lat="43.81392" lon="6.80318">
        <ele>1489.4</ele>
        <time>2025-07-15T16:36:27Z</time>
      </trkpt>
      <trkpt lat="43.81383" lon="6.80324">
        <ele>1489.2</ele>
        <time>2025-07-15T16:36:29Z</time>
      </trkpt>
      <trkpt lat="43.81367" lon="6.8033">
        <ele>1489</ele>
        <time>2025-07-15T16:36:32Z</time>
      </trkpt>
      <trkpt lat="43.81356" lon="6.80331">
        <ele>1488.8</ele>
        <time>2025-07-15T16:36:34Z</time>
      </trkpt>
      <trkpt lat="43.81345" lon="6.80329">
        <ele>1488.6</ele>
        <time>2025-07-15T16:36:36Z</time>
      </trkpt>
      <trkpt lat="43.81333" lon="6.80324">
        <ele>1488.4</ele>
        <time>2025-07-15T16:36:38Z</time>
      </trkpt>
      <trkpt lat="43.81321" lon="6.80319">
        <ele>1488</ele>
        <time>2025-07-15T16:36:40Z</time>
      </trkpt>
      <trkpt lat="43.81308" lon="6.80314">
        <ele>1487.8</ele>
        <time>2025-07-15T16:36:42Z</time>
      </trkpt>
      <trkpt lat="43.81294" lon="6.80306">
        <ele>1487.4</ele>
        <time>2025-07-15T16:36:44Z</time>
      </trkpt>
      <trkpt lat="43.81288" lon="6.80299">
        <ele>1487.4</ele>
        <time>2025-07-15T16:36:45Z</time>
      </trkpt>
      <trkpt lat="43.81278" lon="6.80282">
        <ele>1487.2</ele>
        <time>2025-07-15T16:36:47Z</time>
      </trkpt>
      <trkpt lat="43.81271" lon="6.80274">
        <ele>1487</ele>
        <time>2025-07-15T16:36:48Z</time>
      </trkpt>
      <trkpt lat="43.81264" lon="6.80267">
        <ele>1486.2</ele>
        <time>2025-07-15T16:36:49Z</time>
      </trkpt>
      <trkpt lat="43.81258" lon="6.8026">
        <ele>1486</ele>
        <time>2025-07-15T16:36:50Z</time>
      </trkpt>
      <trkpt lat="43.81244" lon="6.80245">
        <ele>1485.2</ele>
        <time>2025-07-15T16:36:52Z</time>
      </trkpt>
      <trkpt lat="43.81236" lon="6.80241">
        <ele>1484.6</ele>
        <time>2025-07-15T16:36:53Z</time>
      </trkpt>
      <trkpt lat="43.81227" lon="6.80237">
        <ele>1484.2</ele>
        <time>2025-07-15T16:36:54Z</time>
      </trkpt>
      <trkpt lat="43.81211" lon="6.8023">
        <ele>1483.4</ele>
        <time>2025-07-15T16:36:56Z</time>
      </trkpt>
      <trkpt lat="43.81198" lon="6.80227">
        <ele>1482.6</ele>
        <time>2025-07-15T16:36:58Z</time>
      </trkpt>
      <trkpt lat="43.81192" lon="6.80228">
        <ele>1482.2</ele>
        <time>2025-07-15T16:36:59Z</time>
      </trkpt>
      <trkpt lat="43.81188" lon="6.80232">
        <ele>1481.8</ele>
        <time>2025-07-15T16:37:00Z</time>
      </trkpt>
      <trkpt lat="43.81189" lon="6.80243">
        <ele>1480.8</ele>
        <time>2025-07-15T16:37:02Z</time>
      </trkpt>
      <trkpt lat="43.81198" lon="6.80251">
        <ele>1480</ele>
        <time>2025-07-15T16:37:04Z</time>
      </trkpt>
      <trkpt lat="43.81205" lon="6.80255">
        <ele>1479.6</ele>
        <time>2025-07-15T16:37:05Z</time>
      </trkpt>
      <trkpt lat="43.81217" lon="6.80262">
        <ele>1478.8</ele>
        <time>2025-07-15T16:37:07Z</time>
      </trkpt>
      <trkpt lat="43.81222" lon="6.80268">
        <ele>1478.6</ele>
        <time>2025-07-15T16:37:08Z</time>
      </trkpt>
      <trkpt lat="43.81224" lon="6.80277">
        <ele>1478.2</ele>
        <time>2025-07-15T16:37:09Z</time>
      </trkpt>
      <trkpt lat="43.81221" lon="6.80298">
        <ele>1477.4</ele>
        <time>2025-07-15T16:37:11Z</time>
      </trkpt>
      <trkpt lat="43.81217" lon="6.80309">
        <ele>1476.8</ele>
        <time>2025-07-15T16:37:12Z</time>
      </trkpt>
      <trkpt lat="43.81207" lon="6.80328">
        <ele>1475.8</ele>
        <time>2025-07-15T16:37:14Z</time>
      </trkpt>
      <trkpt lat="43.81198" lon="6.8035">
        <ele>1474.8</ele>
        <time>2025-07-15T16:37:16Z</time>
      </trkpt>
      <trkpt lat="43.81194" lon="6.80363">
        <ele>1474.2</ele>
        <time>2025-07-15T16:37:17Z</time>
      </trkpt>
      <trkpt lat="43.81191" lon="6.80375">
        <ele>1474.2</ele>
        <time>2025-07-15T16:37:18Z</time>
      </trkpt>
      <trkpt lat="43.81188" lon="6.80388">
        <ele>1473.6</ele>
        <time>2025-07-15T16:37:19Z</time>
      </trkpt>
      <trkpt lat="43.81186" lon="6.80401">
        <ele>1473</ele>
        <time>2025-07-15T16:37:20Z</time>
      </trkpt>
      <trkpt lat="43.81185" lon="6.80414">
        <ele>1472.2</ele>
        <time>2025-07-15T16:37:21Z</time>
      </trkpt>
      <trkpt lat="43.81182" lon="6.80441">
        <ele>1470.6</ele>
        <time>2025-07-15T16:37:23Z</time>
      </trkpt>
      <trkpt lat="43.81179" lon="6.80468">
        <ele>1469.2</ele>
        <time>2025-07-15T16:37:25Z</time>
      </trkpt>
      <trkpt lat="43.81178" lon="6.80494">
        <ele>1468</ele>
        <time>2025-07-15T16:37:27Z</time>
      </trkpt>
      <trkpt lat="43.81177" lon="6.80507">
        <ele>1467.4</ele>
        <time>2025-07-15T16:37:28Z</time>
      </trkpt>
      <trkpt lat="43.81177" lon="6.80535">
        <ele>1466</ele>
        <time>2025-07-15T16:37:30Z</time>
      </trkpt>
      <trkpt lat="43.81176" lon="6.80563">
        <ele>1464.8</ele>
        <time>2025-07-15T16:37:32Z</time>
      </trkpt>
      <trkpt lat="43.81177" lon="6.80593">
        <ele>1463.8</ele>
        <time>2025-07-15T16:37:34Z</time>
      </trkpt>
      <trkpt lat="43.81178" lon="6.80624">
        <ele>1462.4</ele>
        <time>2025-07-15T16:37:36Z</time>
      </trkpt>
      <trkpt lat="43.81178" lon="6.80657">
        <ele>1461.2</ele>
        <time>2025-07-15T16:37:38Z</time>
      </trkpt>
      <trkpt lat="43.81176" lon="6.8069">
        <ele>1459.2</ele>
        <time>2025-07-15T16:37:40Z</time>
      </trkpt>
      <trkpt lat="43.81173" lon="6.80724">
        <ele>1458</ele>
        <time>2025-07-15T16:37:42Z</time>
      </trkpt>
      <trkpt lat="43.8117" lon="6.80759">
        <ele>1456.8</ele>
        <time>2025-07-15T16:37:44Z</time>
      </trkpt>
      <trkpt lat="43.81167" lon="6.80792">
        <ele>1455.4</ele>
        <time>2025-07-15T16:37:46Z</time>
      </trkpt>
      <trkpt lat="43.81166" lon="6.80809">
        <ele>1454.2</ele>
        <time>2025-07-15T16:37:47Z</time>
      </trkpt>
      <trkpt lat="43.81162" lon="6.80842">
        <ele>1452.2</ele>
        <time>2025-07-15T16:37:49Z</time>
      </trkpt>
      <trkpt lat="43.81157" lon="6.80874">
        <ele>1450.6</ele>
        <time>2025-07-15T16:37:51Z</time>
      </trkpt>
      <trkpt lat="43.81153" lon="6.80906">
        <ele>1448.8</ele>
        <time>2025-07-15T16:37:53Z</time>
      </trkpt>
      <trkpt lat="43.8115" lon="6.80922">
        <ele>1447.4</ele>
        <time>2025-07-15T16:37:54Z</time>
      </trkpt>
      <trkpt lat="43.81146" lon="6.80955">
        <ele>1445.8</ele>
        <time>2025-07-15T16:37:56Z</time>
      </trkpt>
      <trkpt lat="43.8114" lon="6.80987">
        <ele>1444</ele>
        <time>2025-07-15T16:37:58Z</time>
      </trkpt>
      <trkpt lat="43.81134" lon="6.81019">
        <ele>1442</ele>
        <time>2025-07-15T16:38:00Z</time>
      </trkpt>
      <trkpt lat="43.81131" lon="6.81034">
        <ele>1440.8</ele>
        <time>2025-07-15T16:38:01Z</time>
      </trkpt>
      <trkpt lat="43.81125" lon="6.81064">
        <ele>1439.6</ele>
        <time>2025-07-15T16:38:03Z</time>
      </trkpt>
      <trkpt lat="43.81121" lon="6.81094">
        <ele>1438.2</ele>
        <time>2025-07-15T16:38:05Z</time>
      </trkpt>
      <trkpt lat="43.81118" lon="6.81109">
        <ele>1437.6</ele>
        <time>2025-07-15T16:38:06Z</time>
      </trkpt>
      <trkpt lat="43.81113" lon="6.81124">
        <ele>1436.8</ele>
        <time>2025-07-15T16:38:07Z</time>
      </trkpt>
      <trkpt lat="43.81108" lon="6.81138">
        <ele>1435.4</ele>
        <time>2025-07-15T16:38:08Z</time>
      </trkpt>
      <trkpt lat="43.81098" lon="6.81165">
        <ele>1433.8</ele>
        <time>2025-07-15T16:38:10Z</time>
      </trkpt>
      <trkpt lat="43.81092" lon="6.81195">
        <ele>1432.2</ele>
        <time>2025-07-15T16:38:12Z</time>
      </trkpt>
      <trkpt lat="43.81087" lon="6.81225">
        <ele>1430.8</ele>
        <time>2025-07-15T16:38:14Z</time>
      </trkpt>
      <trkpt lat="43.81086" lon="6.8124">
        <ele>1430</ele>
        <time>2025-07-15T16:38:15Z</time>
      </trkpt>
      <trkpt lat="43.81087" lon="6.81255">
        <ele>1429.2</ele>
        <time>2025-07-15T16:38:16Z</time>
      </trkpt>
      <trkpt lat="43.81088" lon="6.81275">
        <ele>1428</ele>
        <time>2025-07-15T16:38:17Z</time>
      </trkpt>
      <trkpt lat="43.81089" lon="6.81288">
        <ele>1427.8</ele>
        <time>2025-07-15T16:38:18Z</time>
      </trkpt>
      <trkpt lat="43.81088" lon="6.81305">
        <ele>1426.6</ele>
        <time>2025-07-15T16:38:19Z</time>
      </trkpt>
      <trkpt lat="43.81086" lon="6.81339">
        <ele>1425.2</ele>
        <time>2025-07-15T16:38:21Z</time>
      </trkpt>
      <trkpt lat="43.81087" lon="6.81355">
        <ele>1424.2</ele>
        <time>2025-07-15T16:38:22Z</time>
      </trkpt>
      <trkpt lat="43.81089" lon="6.81387">
        <ele>1422</ele>
        <time>2025-07-15T16:38:24Z</time>
      </trkpt>
      <trkpt lat="43.81092" lon="6.81417">
        <ele>1420.8</ele>
        <time>2025-07-15T16:38:26Z</time>
      </trkpt>
      <trkpt lat="43.81092" lon="6.81432">
        <ele>1420.4</ele>
        <time>2025-07-15T16:38:27Z</time>
      </trkpt>
      <trkpt lat="43.8109" lon="6.81463">
        <ele>1418.4</ele>
        <time>2025-07-15T16:38:29Z</time>
      </trkpt>
      <trkpt lat="43.81089" lon="6.81478">
        <ele>1418</ele>
        <time>2025-07-15T16:38:30Z</time>
      </trkpt>
      <trkpt lat="43.81088" lon="6.81493">
        <ele>1416.6</ele>
        <time>2025-07-15T16:38:31Z</time>
      </trkpt>
      <trkpt lat="43.81088" lon="6.81508">
        <ele>1416</ele>
        <time>2025-07-15T16:38:32Z</time>
      </trkpt>
      <trkpt lat="43.81088" lon="6.81523">
        <ele>1415.6</ele>
        <time>2025-07-15T16:38:33Z</time>
      </trkpt>
      <trkpt lat="43.8109" lon="6.81539">
        <ele>1414.6</ele>
        <time>2025-07-15T16:38:34Z</time>
      </trkpt>
      <trkpt lat="43.81093" lon="6.81555">
        <ele>1413.2</ele>
        <time>2025-07-15T16:38:35Z</time>
      </trkpt>
      <trkpt lat="43.81099" lon="6.81588">
        <ele>1412.2</ele>
        <time>2025-07-15T16:38:37Z</time>
      </trkpt>
      <trkpt lat="43.81103" lon="6.8162">
        <ele>1410.4</ele>
        <time>2025-07-15T16:38:39Z</time>
      </trkpt>
      <trkpt lat="43.81107" lon="6.81653">
        <ele>1409</ele>
        <time>2025-07-15T16:38:41Z</time>
      </trkpt>
      <trkpt lat="43.81109" lon="6.81668">
        <ele>1407.2</ele>
        <time>2025-07-15T16:38:43Z</time>
      </trkpt>
      <trkpt lat="43.81119" lon="6.81715">
        <ele>1405.8</ele>
        <time>2025-07-15T16:38:45Z</time>
      </trkpt>
      <trkpt lat="43.81125" lon="6.81747">
        <ele>1404.2</ele>
        <time>2025-07-15T16:38:47Z</time>
      </trkpt>
      <trkpt lat="43.8113" lon="6.81777">
        <ele>1402.6</ele>
        <time>2025-07-15T16:38:49Z</time>
      </trkpt>
      <trkpt lat="43.81134" lon="6.81807">
        <ele>1401.8</ele>
        <time>2025-07-15T16:38:51Z</time>
      </trkpt>
      <trkpt lat="43.81137" lon="6.81822">
        <ele>1401.2</ele>
        <time>2025-07-15T16:38:52Z</time>
      </trkpt>
      <trkpt lat="43.81148" lon="6.81862">
        <ele>1399.8</ele>
        <time>2025-07-15T16:38:55Z</time>
      </trkpt>
      <trkpt lat="43.81158" lon="6.81902">
        <ele>1398.8</ele>
        <time>2025-07-15T16:38:58Z</time>
      </trkpt>
      <trkpt lat="43.81163" lon="6.81928">
        <ele>1398.2</ele>
        <time>2025-07-15T16:39:00Z</time>
      </trkpt>
      <trkpt lat="43.81165" lon="6.81941">
        <ele>1397.8</ele>
        <time>2025-07-15T16:39:01Z</time>
      </trkpt>
      <trkpt lat="43.81164" lon="6.81967">
        <ele>1397</ele>
        <time>2025-07-15T16:39:03Z</time>
      </trkpt>
      <trkpt lat="43.81162" lon="6.8198">
        <ele>1396.4</ele>
        <time>2025-07-15T16:39:04Z</time>
      </trkpt>
      <trkpt lat="43.81158" lon="6.81992">
        <ele>1396.2</ele>
        <time>2025-07-15T16:39:05Z</time>
      </trkpt>
      <trkpt lat="43.81154" lon="6.82004">
        <ele>1396</ele>
        <time>2025-07-15T16:39:06Z</time>
      </trkpt>
      <trkpt lat="43.81142" lon="6.82027">
        <ele>1395.4</ele>
        <time>2025-07-15T16:39:08Z</time>
      </trkpt>
      <trkpt lat="43.8113" lon="6.82049">
        <ele>1394.2</ele>
        <time>2025-07-15T16:39:10Z</time>
      </trkpt>
      <trkpt lat="43.81124" lon="6.8206">
        <ele>1393.6</ele>
        <time>2025-07-15T16:39:11Z</time>
      </trkpt>
      <trkpt lat="43.81118" lon="6.8207">
        <ele>1393.4</ele>
        <time>2025-07-15T16:39:12Z</time>
      </trkpt>
      <trkpt lat="43.81112" lon="6.82081">
        <ele>1392.8</ele>
        <time>2025-07-15T16:39:13Z</time>
      </trkpt>
      <trkpt lat="43.81102" lon="6.82103">
        <ele>1391.8</ele>
        <time>2025-07-15T16:39:15Z</time>
      </trkpt>
      <trkpt lat="43.8109" lon="6.82126">
        <ele>1391</ele>
        <time>2025-07-15T16:39:17Z</time>
      </trkpt>
      <trkpt lat="43.81084" lon="6.82137">
        <ele>1390.8</ele>
        <time>2025-07-15T16:39:18Z</time>
      </trkpt>
      <trkpt lat="43.81065" lon="6.82168">
        <ele>1389.8</ele>
        <time>2025-07-15T16:39:21Z</time>
      </trkpt>
      <trkpt lat="43.81065" lon="6.82168">
        <ele>1389.4</ele>
        <time>2025-07-15T16:39:22Z</time>
      </trkpt>
      <trkpt lat="43.81055" lon="6.82192">
        <ele>1389.4</ele>
        <time>2025-07-15T16:39:23Z</time>
      </trkpt>
      <trkpt lat="43.8105" lon="6.82204">
        <ele>1389</ele>
        <time>2025-07-15T16:39:24Z</time>
      </trkpt>
      <trkpt lat="43.81043" lon="6.82231">
        <ele>1388.4</ele>
        <time>2025-07-15T16:39:26Z</time>
      </trkpt>
      <trkpt lat="43.81038" lon="6.82244">
        <ele>1387.8</ele>
        <time>2025-07-15T16:39:27Z</time>
      </trkpt>
      <trkpt lat="43.81032" lon="6.82256">
        <ele>1387.6</ele>
        <time>2025-07-15T16:39:28Z</time>
      </trkpt>
      <trkpt lat="43.81025" lon="6.82268">
        <ele>1386.8</ele>
        <time>2025-07-15T16:39:29Z</time>
      </trkpt>
      <trkpt lat="43.81013" lon="6.82292">
        <ele>1385.8</ele>
        <time>2025-07-15T16:39:31Z</time>
      </trkpt>
      <trkpt lat="43.81" lon="6.82312">
        <ele>1384.2</ele>
        <time>2025-07-15T16:39:33Z</time>
      </trkpt>
      <trkpt lat="43.80993" lon="6.82321">
        <ele>1383</ele>
        <time>2025-07-15T16:39:34Z</time>
      </trkpt>
      <trkpt lat="43.80986" lon="6.82329">
        <ele>1382.4</ele>
        <time>2025-07-15T16:39:35Z</time>
      </trkpt>
      <trkpt lat="43.80981" lon="6.82338">
        <ele>1381.4</ele>
        <time>2025-07-15T16:39:36Z</time>
      </trkpt>
      <trkpt lat="43.80977" lon="6.8235">
        <ele>1380.8</ele>
        <time>2025-07-15T16:39:37Z</time>
      </trkpt>
      <trkpt lat="43.80975" lon="6.82362">
        <ele>1380</ele>
        <time>2025-07-15T16:39:38Z</time>
      </trkpt>
      <trkpt lat="43.80975" lon="6.82375">
        <ele>1379.6</ele>
        <time>2025-07-15T16:39:39Z</time>
      </trkpt>
      <trkpt lat="43.80975" lon="6.82389">
        <ele>1378.8</ele>
        <time>2025-07-15T16:39:40Z</time>
      </trkpt>
      <trkpt lat="43.80978" lon="6.82417">
        <ele>1377.6</ele>
        <time>2025-07-15T16:39:42Z</time>
      </trkpt>
      <trkpt lat="43.80984" lon="6.82462">
        <ele>1376</ele>
        <time>2025-07-15T16:39:45Z</time>
      </trkpt>
      <trkpt lat="43.80989" lon="6.82493">
        <ele>1374.6</ele>
        <time>2025-07-15T16:39:47Z</time>
      </trkpt>
      <trkpt lat="43.80993" lon="6.82524">
        <ele>1373.2</ele>
        <time>2025-07-15T16:39:49Z</time>
      </trkpt>
      <trkpt lat="43.80993" lon="6.82539">
        <ele>1372.4</ele>
        <time>2025-07-15T16:39:50Z</time>
      </trkpt>
      <trkpt lat="43.80992" lon="6.82554">
        <ele>1371.8</ele>
        <time>2025-07-15T16:39:51Z</time>
      </trkpt>
      <trkpt lat="43.80988" lon="6.82569">
        <ele>1371</ele>
        <time>2025-07-15T16:39:52Z</time>
      </trkpt>
      <trkpt lat="43.80983" lon="6.82583">
        <ele>1370.4</ele>
        <time>2025-07-15T16:39:53Z</time>
      </trkpt>
      <trkpt lat="43.80978" lon="6.82597">
        <ele>1369.4</ele>
        <time>2025-07-15T16:39:54Z</time>
      </trkpt>
      <trkpt lat="43.80968" lon="6.82625">
        <ele>1368</ele>
        <time>2025-07-15T16:39:56Z</time>
      </trkpt>
      <trkpt lat="43.80964" lon="6.82639">
        <ele>1366.8</ele>
        <time>2025-07-15T16:39:57Z</time>
      </trkpt>
      <trkpt lat="43.8096" lon="6.82652">
        <ele>1366</ele>
        <time>2025-07-15T16:39:58Z</time>
      </trkpt>
      <trkpt lat="43.80954" lon="6.82666">
        <ele>1365.2</ele>
        <time>2025-07-15T16:39:59Z</time>
      </trkpt>
      <trkpt lat="43.80948" lon="6.82679">
        <ele>1364.4</ele>
        <time>2025-07-15T16:40:00Z</time>
      </trkpt>
      <trkpt lat="43.80941" lon="6.82691">
        <ele>1363.6</ele>
        <time>2025-07-15T16:40:01Z</time>
      </trkpt>
      <trkpt lat="43.80927" lon="6.82714">
        <ele>1362</ele>
        <time>2025-07-15T16:40:03Z</time>
      </trkpt>
      <trkpt lat="43.80918" lon="6.82724">
        <ele>1361.2</ele>
        <time>2025-07-15T16:40:04Z</time>
      </trkpt>
      <trkpt lat="43.80909" lon="6.82733">
        <ele>1360.8</ele>
        <time>2025-07-15T16:40:05Z</time>
      </trkpt>
      <trkpt lat="43.80901" lon="6.82742">
        <ele>1359.4</ele>
        <time>2025-07-15T16:40:06Z</time>
      </trkpt>
      <trkpt lat="43.80886" lon="6.82761">
        <ele>1358</ele>
        <time>2025-07-15T16:40:08Z</time>
      </trkpt>
      <trkpt lat="43.80879" lon="6.8277">
        <ele>1356.6</ele>
        <time>2025-07-15T16:40:09Z</time>
      </trkpt>
      <trkpt lat="43.80861" lon="6.82776">
        <ele>1354.8</ele>
        <time>2025-07-15T16:40:11Z</time>
      </trkpt>
      <trkpt lat="43.80842" lon="6.82771">
        <ele>1353</ele>
        <time>2025-07-15T16:40:13Z</time>
      </trkpt>
      <trkpt lat="43.80834" lon="6.82765">
        <ele>1352.4</ele>
        <time>2025-07-15T16:40:14Z</time>
      </trkpt>
      <trkpt lat="43.80826" lon="6.82757">
        <ele>1351.4</ele>
        <time>2025-07-15T16:40:15Z</time>
      </trkpt>
      <trkpt lat="43.80815" lon="6.82734">
        <ele>1350</ele>
        <time>2025-07-15T16:40:17Z</time>
      </trkpt>
      <trkpt lat="43.80813" lon="6.82721">
        <ele>1349</ele>
        <time>2025-07-15T16:40:18Z</time>
      </trkpt>
      <trkpt lat="43.8081" lon="6.82707">
        <ele>1348.6</ele>
        <time>2025-07-15T16:40:19Z</time>
      </trkpt>
      <trkpt lat="43.80806" lon="6.82695">
        <ele>1347.2</ele>
        <time>2025-07-15T16:40:20Z</time>
      </trkpt>
      <trkpt lat="43.808" lon="6.82685">
        <ele>1346.8</ele>
        <time>2025-07-15T16:40:21Z</time>
      </trkpt>
      <trkpt lat="43.80793" lon="6.82679">
        <ele>1345.6</ele>
        <time>2025-07-15T16:40:22Z</time>
      </trkpt>
      <trkpt lat="43.80784" lon="6.82676">
        <ele>1345</ele>
        <time>2025-07-15T16:40:23Z</time>
      </trkpt>
      <trkpt lat="43.80774" lon="6.82676">
        <ele>1344.4</ele>
        <time>2025-07-15T16:40:24Z</time>
      </trkpt>
      <trkpt lat="43.80764" lon="6.8268">
        <ele>1343.4</ele>
        <time>2025-07-15T16:40:25Z</time>
      </trkpt>
      <trkpt lat="43.80755" lon="6.82685">
        <ele>1343</ele>
        <time>2025-07-15T16:40:26Z</time>
      </trkpt>
      <trkpt lat="43.80746" lon="6.82692">
        <ele>1342.2</ele>
        <time>2025-07-15T16:40:27Z</time>
      </trkpt>
      <trkpt lat="43.80737" lon="6.827">
        <ele>1341.8</ele>
        <time>2025-07-15T16:40:28Z</time>
      </trkpt>
      <trkpt lat="43.80729" lon="6.82708">
        <ele>1341</ele>
        <time>2025-07-15T16:40:29Z</time>
      </trkpt>
      <trkpt lat="43.80722" lon="6.82717">
        <ele>1339.8</ele>
        <time>2025-07-15T16:40:30Z</time>
      </trkpt>
      <trkpt lat="43.80717" lon="6.82729">
        <ele>1339.6</ele>
        <time>2025-07-15T16:40:31Z</time>
      </trkpt>
      <trkpt lat="43.80712" lon="6.82742">
        <ele>1338.4</ele>
        <time>2025-07-15T16:40:32Z</time>
      </trkpt>
      <trkpt lat="43.80706" lon="6.82755">
        <ele>1338</ele>
        <time>2025-07-15T16:40:33Z</time>
      </trkpt>
      <trkpt lat="43.80699" lon="6.82766">
        <ele>1336.8</ele>
        <time>2025-07-15T16:40:34Z</time>
      </trkpt>
      <trkpt lat="43.80685" lon="6.82789">
        <ele>1335.6</ele>
        <time>2025-07-15T16:40:36Z</time>
      </trkpt>
      <trkpt lat="43.80679" lon="6.828">
        <ele>1334.4</ele>
        <time>2025-07-15T16:40:37Z</time>
      </trkpt>
      <trkpt lat="43.80674" lon="6.82813">
        <ele>1333.8</ele>
        <time>2025-07-15T16:40:38Z</time>
      </trkpt>
      <trkpt lat="43.80669" lon="6.82827">
        <ele>1333.2</ele>
        <time>2025-07-15T16:40:39Z</time>
      </trkpt>
      <trkpt lat="43.8066" lon="6.82856">
        <ele>1332</ele>
        <time>2025-07-15T16:40:41Z</time>
      </trkpt>
      <trkpt lat="43.80649" lon="6.82885">
        <ele>1330.8</ele>
        <time>2025-07-15T16:40:43Z</time>
      </trkpt>
      <trkpt lat="43.80637" lon="6.82911">
        <ele>1329.6</ele>
        <time>2025-07-15T16:40:45Z</time>
      </trkpt>
      <trkpt lat="43.80632" lon="6.82925">
        <ele>1328.6</ele>
        <time>2025-07-15T16:40:46Z</time>
      </trkpt>
      <trkpt lat="43.80628" lon="6.82938">
        <ele>1328.2</ele>
        <time>2025-07-15T16:40:47Z</time>
      </trkpt>
      <trkpt lat="43.80627" lon="6.82951">
        <ele>1327.6</ele>
        <time>2025-07-15T16:40:48Z</time>
      </trkpt>
      <trkpt lat="43.80628" lon="6.82963">
        <ele>1326.8</ele>
        <time>2025-07-15T16:40:49Z</time>
      </trkpt>
      <trkpt lat="43.80631" lon="6.82974">
        <ele>1325.4</ele>
        <time>2025-07-15T16:40:50Z</time>
      </trkpt>
      <trkpt lat="43.80637" lon="6.82984">
        <ele>1324.2</ele>
        <time>2025-07-15T16:40:51Z</time>
      </trkpt>
      <trkpt lat="43.80644" lon="6.82994">
        <ele>1324</ele>
        <time>2025-07-15T16:40:52Z</time>
      </trkpt>
      <trkpt lat="43.80651" lon="6.83004">
        <ele>1323.2</ele>
        <time>2025-07-15T16:40:53Z</time>
      </trkpt>
      <trkpt lat="43.80667" lon="6.83024">
        <ele>1322</ele>
        <time>2025-07-15T16:40:55Z</time>
      </trkpt>
      <trkpt lat="43.80683" lon="6.83045">
        <ele>1321</ele>
        <time>2025-07-15T16:40:57Z</time>
      </trkpt>
      <trkpt lat="43.80691" lon="6.83055">
        <ele>1320.2</ele>
        <time>2025-07-15T16:40:58Z</time>
      </trkpt>
      <trkpt lat="43.80699" lon="6.83067">
        <ele>1320</ele>
        <time>2025-07-15T16:40:59Z</time>
      </trkpt>
      <trkpt lat="43.80713" lon="6.83091">
        <ele>1318.8</ele>
        <time>2025-07-15T16:41:01Z</time>
      </trkpt>
      <trkpt lat="43.8072" lon="6.83104">
        <ele>1318.2</ele>
        <time>2025-07-15T16:41:02Z</time>
      </trkpt>
      <trkpt lat="43.80733" lon="6.83131">
        <ele>1316.8</ele>
        <time>2025-07-15T16:41:04Z</time>
      </trkpt>
      <trkpt lat="43.80739" lon="6.83145">
        <ele>1315.8</ele>
        <time>2025-07-15T16:41:05Z</time>
      </trkpt>
      <trkpt lat="43.8075" lon="6.83173">
        <ele>1314.4</ele>
        <time>2025-07-15T16:41:07Z</time>
      </trkpt>
      <trkpt lat="43.8076" lon="6.832">
        <ele>1312.8</ele>
        <time>2025-07-15T16:41:09Z</time>
      </trkpt>
      <trkpt lat="43.80767" lon="6.83229">
        <ele>1310.8</ele>
        <time>2025-07-15T16:41:11Z</time>
      </trkpt>
      <trkpt lat="43.80769" lon="6.83244">
        <ele>1310.4</ele>
        <time>2025-07-15T16:41:12Z</time>
      </trkpt>
      <trkpt lat="43.80771" lon="6.83259">
        <ele>1309.4</ele>
        <time>2025-07-15T16:41:13Z</time>
      </trkpt>
      <trkpt lat="43.80772" lon="6.8329">
        <ele>1308</ele>
        <time>2025-07-15T16:41:15Z</time>
      </trkpt>
      <trkpt lat="43.80772" lon="6.83306">
        <ele>1306.8</ele>
        <time>2025-07-15T16:41:16Z</time>
      </trkpt>
      <trkpt lat="43.80769" lon="6.83337">
        <ele>1305.4</ele>
        <time>2025-07-15T16:41:18Z</time>
      </trkpt>
      <trkpt lat="43.80769" lon="6.83369">
        <ele>1303.6</ele>
        <time>2025-07-15T16:41:20Z</time>
      </trkpt>
      <trkpt lat="43.80768" lon="6.83384">
        <ele>1302.6</ele>
        <time>2025-07-15T16:41:21Z</time>
      </trkpt>
      <trkpt lat="43.80761" lon="6.83415">
        <ele>1300.6</ele>
        <time>2025-07-15T16:41:23Z</time>
      </trkpt>
      <trkpt lat="43.8075" lon="6.83445">
        <ele>1299</ele>
        <time>2025-07-15T16:41:25Z</time>
      </trkpt>
      <trkpt lat="43.80738" lon="6.83473">
        <ele>1297.2</ele>
        <time>2025-07-15T16:41:27Z</time>
      </trkpt>
      <trkpt lat="43.80732" lon="6.83487">
        <ele>1295.8</ele>
        <time>2025-07-15T16:41:28Z</time>
      </trkpt>
      <trkpt lat="43.8072" lon="6.83514">
        <ele>1294.2</ele>
        <time>2025-07-15T16:41:30Z</time>
      </trkpt>
      <trkpt lat="43.80708" lon="6.83544">
        <ele>1292.6</ele>
        <time>2025-07-15T16:41:32Z</time>
      </trkpt>
      <trkpt lat="43.80699" lon="6.83574">
        <ele>1291</ele>
        <time>2025-07-15T16:41:34Z</time>
      </trkpt>
      <trkpt lat="43.80696" lon="6.8359">
        <ele>1289.6</ele>
        <time>2025-07-15T16:41:35Z</time>
      </trkpt>
      <trkpt lat="43.8069" lon="6.83621">
        <ele>1288</ele>
        <time>2025-07-15T16:41:37Z</time>
      </trkpt>
      <trkpt lat="43.80682" lon="6.83652">
        <ele>1286.8</ele>
        <time>2025-07-15T16:41:39Z</time>
      </trkpt>
      <trkpt lat="43.8067" lon="6.83678">
        <ele>1285.4</ele>
        <time>2025-07-15T16:41:41Z</time>
      </trkpt>
      <trkpt lat="43.80662" lon="6.83689">
        <ele>1284.2</ele>
        <time>2025-07-15T16:41:42Z</time>
      </trkpt>
      <trkpt lat="43.80652" lon="6.83699">
        <ele>1283.6</ele>
        <time>2025-07-15T16:41:43Z</time>
      </trkpt>
      <trkpt lat="43.80642" lon="6.83707">
        <ele>1282.4</ele>
        <time>2025-07-15T16:41:44Z</time>
      </trkpt>
      <trkpt lat="43.80632" lon="6.83714">
        <ele>1282</ele>
        <time>2025-07-15T16:41:45Z</time>
      </trkpt>
      <trkpt lat="43.80622" lon="6.83722">
        <ele>1281.2</ele>
        <time>2025-07-15T16:41:46Z</time>
      </trkpt>
      <trkpt lat="43.80601" lon="6.83737">
        <ele>1279</ele>
        <time>2025-07-15T16:41:48Z</time>
      </trkpt>
      <trkpt lat="43.8058" lon="6.83751">
        <ele>1277.2</ele>
        <time>2025-07-15T16:41:50Z</time>
      </trkpt>
      <trkpt lat="43.80569" lon="6.83758">
        <ele>1275.6</ele>
        <time>2025-07-15T16:41:51Z</time>
      </trkpt>
      <trkpt lat="43.80559" lon="6.83765">
        <ele>1275.2</ele>
        <time>2025-07-15T16:41:52Z</time>
      </trkpt>
      <trkpt lat="43.80549" lon="6.83773">
        <ele>1274.2</ele>
        <time>2025-07-15T16:41:53Z</time>
      </trkpt>
      <trkpt lat="43.80529" lon="6.83788">
        <ele>1272.8</ele>
        <time>2025-07-15T16:41:55Z</time>
      </trkpt>
      <trkpt lat="43.80509" lon="6.83803">
        <ele>1271.2</ele>
        <time>2025-07-15T16:41:57Z</time>
      </trkpt>
      <trkpt lat="43.80488" lon="6.83819">
        <ele>1269.8</ele>
        <time>2025-07-15T16:41:59Z</time>
      </trkpt>
      <trkpt lat="43.80478" lon="6.83827">
        <ele>1268.6</ele>
        <time>2025-07-15T16:42:00Z</time>
      </trkpt>
      <trkpt lat="43.80457" lon="6.83842">
        <ele>1267.2</ele>
        <time>2025-07-15T16:42:02Z</time>
      </trkpt>
      <trkpt lat="43.80446" lon="6.8385">
        <ele>1266</ele>
        <time>2025-07-15T16:42:03Z</time>
      </trkpt>
      <trkpt lat="43.80425" lon="6.83865">
        <ele>1264.2</ele>
        <time>2025-07-15T16:42:05Z</time>
      </trkpt>
      <trkpt lat="43.80415" lon="6.83873">
        <ele>1263.8</ele>
        <time>2025-07-15T16:42:06Z</time>
      </trkpt>
      <trkpt lat="43.80405" lon="6.83881">
        <ele>1263</ele>
        <time>2025-07-15T16:42:07Z</time>
      </trkpt>
      <trkpt lat="43.80386" lon="6.83895">
        <ele>1260.8</ele>
        <time>2025-07-15T16:42:09Z</time>
      </trkpt>
      <trkpt lat="43.80374" lon="6.83903">
        <ele>1259.8</ele>
        <time>2025-07-15T16:42:10Z</time>
      </trkpt>
      <trkpt lat="43.80358" lon="6.83917">
        <ele>1258.4</ele>
        <time>2025-07-15T16:42:12Z</time>
      </trkpt>
      <trkpt lat="43.80338" lon="6.83931">
        <ele>1256.8</ele>
        <time>2025-07-15T16:42:14Z</time>
      </trkpt>
      <trkpt lat="43.80326" lon="6.83939">
        <ele>1255.8</ele>
        <time>2025-07-15T16:42:15Z</time>
      </trkpt>
      <trkpt lat="43.80317" lon="6.83943">
        <ele>1254.6</ele>
        <time>2025-07-15T16:42:16Z</time>
      </trkpt>
      <trkpt lat="43.80306" lon="6.83948">
        <ele>1253.4</ele>
        <time>2025-07-15T16:42:17Z</time>
      </trkpt>
      <trkpt lat="43.80284" lon="6.83956">
        <ele>1252</ele>
        <time>2025-07-15T16:42:19Z</time>
      </trkpt>
      <trkpt lat="43.80261" lon="6.8396">
        <ele>1250.6</ele>
        <time>2025-07-15T16:42:21Z</time>
      </trkpt>
      <trkpt lat="43.8025" lon="6.83961">
        <ele>1250</ele>
        <time>2025-07-15T16:42:22Z</time>
      </trkpt>
      <trkpt lat="43.80239" lon="6.8396">
        <ele>1249.2</ele>
        <time>2025-07-15T16:42:23Z</time>
      </trkpt>
      <trkpt lat="43.80207" lon="6.83952">
        <ele>1247.2</ele>
        <time>2025-07-15T16:42:26Z</time>
      </trkpt>
      <trkpt lat="43.80187" lon="6.83942">
        <ele>1246</ele>
        <time>2025-07-15T16:42:28Z</time>
      </trkpt>
      <trkpt lat="43.80177" lon="6.83936">
        <ele>1245.4</ele>
        <time>2025-07-15T16:42:29Z</time>
      </trkpt>
      <trkpt lat="43.80168" lon="6.83928">
        <ele>1244.6</ele>
        <time>2025-07-15T16:42:30Z</time>
      </trkpt>
      <trkpt lat="43.80152" lon="6.83912">
        <ele>1243</ele>
        <time>2025-07-15T16:42:32Z</time>
      </trkpt>
      <trkpt lat="43.80138" lon="6.83895">
        <ele>1241.8</ele>
        <time>2025-07-15T16:42:34Z</time>
      </trkpt>
      <trkpt lat="43.80121" lon="6.83871">
        <ele>1240.4</ele>
        <time>2025-07-15T16:42:37Z</time>
      </trkpt>
      <trkpt lat="43.80111" lon="6.83856">
        <ele>1239.2</ele>
        <time>2025-07-15T16:42:39Z</time>
      </trkpt>
      <trkpt lat="43.80092" lon="6.83817">
        <ele>1238.2</ele>
        <time>2025-07-15T16:42:44Z</time>
      </trkpt>
      <trkpt lat="43.80088" lon="6.83808">
        <ele>1238</ele>
        <time>2025-07-15T16:42:45Z</time>
      </trkpt>
      <trkpt lat="43.80082" lon="6.83796">
        <ele>1237.4</ele>
        <time>2025-07-15T16:42:47Z</time>
      </trkpt>
      <trkpt lat="43.80073" lon="6.83787">
        <ele>1237</ele>
        <time>2025-07-15T16:42:49Z</time>
      </trkpt>
      <trkpt lat="43.80054" lon="6.83777">
        <ele>1236.6</ele>
        <time>2025-07-15T16:42:53Z</time>
      </trkpt>
      <trkpt lat="43.80049" lon="6.83778">
        <ele>1236.4</ele>
        <time>2025-07-15T16:42:54Z</time>
      </trkpt>
      <trkpt lat="43.80045" lon="6.83781">
        <ele>1236.4</ele>
        <time>2025-07-15T16:42:55Z</time>
      </trkpt>
      <trkpt lat="43.80042" lon="6.83793">
        <ele>1236.2</ele>
        <time>2025-07-15T16:42:57Z</time>
      </trkpt>
      <trkpt lat="43.80047" lon="6.83805">
        <ele>1235.8</ele>
        <time>2025-07-15T16:42:59Z</time>
      </trkpt>
      <trkpt lat="43.80057" lon="6.83813">
        <ele>1236</ele>
        <time>2025-07-15T16:43:01Z</time>
      </trkpt>
      <trkpt lat="43.80077" lon="6.83831">
        <ele>1235.8</ele>
        <time>2025-07-15T16:43:05Z</time>
      </trkpt>
      <trkpt lat="43.80088" lon="6.83839">
        <ele>1235.6</ele>
        <time>2025-07-15T16:43:07Z</time>
      </trkpt>
      <trkpt lat="43.801" lon="6.83854">
        <ele>1235.8</ele>
        <time>2025-07-15T16:43:10Z</time>
      </trkpt>
      <trkpt lat="43.80118" lon="6.83889">
        <ele>1236.4</ele>
        <time>2025-07-15T16:43:16Z</time>
      </trkpt>
      <trkpt lat="43.8013" lon="6.83918">
        <ele>1237.4</ele>
        <time>2025-07-15T16:43:21Z</time>
      </trkpt>
      <trkpt lat="43.80132" lon="6.83923">
        <ele>1237.8</ele>
        <time>2025-07-15T16:43:22Z</time>
      </trkpt>
      <trkpt lat="43.80143" lon="6.83951">
        <ele>1238.4</ele>
        <time>2025-07-15T16:43:27Z</time>
      </trkpt>
      <trkpt lat="43.80145" lon="6.83957">
        <ele>1239</ele>
        <time>2025-07-15T16:43:28Z</time>
      </trkpt>
      <trkpt lat="43.80149" lon="6.83969">
        <ele>1239.6</ele>
        <time>2025-07-15T16:43:30Z</time>
      </trkpt>
      <trkpt lat="43.80151" lon="6.83974">
        <ele>1240</ele>
        <time>2025-07-15T16:43:31Z</time>
      </trkpt>
      <trkpt lat="43.80161" lon="6.84002">
        <ele>1241</ele>
        <time>2025-07-15T16:43:36Z</time>
      </trkpt>
      <trkpt lat="43.80168" lon="6.84024">
        <ele>1242.2</ele>
        <time>2025-07-15T16:43:40Z</time>
      </trkpt>
      <trkpt lat="43.80177" lon="6.84057">
        <ele>1243.2</ele>
        <time>2025-07-15T16:43:46Z</time>
      </trkpt>
      <trkpt lat="43.80185" lon="6.84085">
        <ele>1244</ele>
        <time>2025-07-15T16:43:51Z</time>
      </trkpt>
      <trkpt lat="43.8019" lon="6.84102">
        <ele>1244.4</ele>
        <time>2025-07-15T16:43:54Z</time>
      </trkpt>
      <trkpt lat="43.80199" lon="6.84142">
        <ele>1245.6</ele>
        <time>2025-07-15T16:44:01Z</time>
      </trkpt>
      <trkpt lat="43.802" lon="6.84148">
        <ele>1245.6</ele>
        <time>2025-07-15T16:44:02Z</time>
      </trkpt>
      <trkpt lat="43.80209" lon="6.84202">
        <ele>1246</ele>
        <time>2025-07-15T16:44:11Z</time>
      </trkpt>
      <trkpt lat="43.80214" lon="6.84245">
        <ele>1246.4</ele>
        <time>2025-07-15T16:44:18Z</time>
      </trkpt>
      <trkpt lat="43.80214" lon="6.84258">
        <ele>1246.6</ele>
        <time>2025-07-15T16:44:20Z</time>
      </trkpt>
      <trkpt lat="43.80219" lon="6.84299">
        <ele>1247</ele>
        <time>2025-07-15T16:44:27Z</time>
      </trkpt>
      <trkpt lat="43.80224" lon="6.84354">
        <ele>1246.4</ele>
        <time>2025-07-15T16:44:36Z</time>
      </trkpt>
      <trkpt lat="43.80228" lon="6.84402">
        <ele>1245.8</ele>
        <time>2025-07-15T16:44:44Z</time>
      </trkpt>
      <trkpt lat="43.80229" lon="6.84408">
        <ele>1245.8</ele>
        <time>2025-07-15T16:44:45Z</time>
      </trkpt>
      <trkpt lat="43.8023" lon="6.84415">
        <ele>1245.8</ele>
        <time>2025-07-15T16:44:46Z</time>
      </trkpt>
      <trkpt lat="43.80232" lon="6.84448">
        <ele>1245.2</ele>
        <time>2025-07-15T16:44:51Z</time>
      </trkpt>
      <trkpt lat="43.80235" lon="6.84478">
        <ele>1245</ele>
        <time>2025-07-15T16:44:55Z</time>
      </trkpt>
      <trkpt lat="43.80235" lon="6.84485">
        <ele>1244.8</ele>
        <time>2025-07-15T16:44:56Z</time>
      </trkpt>
      <trkpt lat="43.80236" lon="6.84493">
        <ele>1244.6</ele>
        <time>2025-07-15T16:44:57Z</time>
      </trkpt>
      <trkpt lat="43.80239" lon="6.84527">
        <ele>1244.2</ele>
        <time>2025-07-15T16:45:01Z</time>
      </trkpt>
      <trkpt lat="43.80241" lon="6.84554">
        <ele>1243.8</ele>
        <time>2025-07-15T16:45:04Z</time>
      </trkpt>
      <trkpt lat="43.80247" lon="6.84588">
        <ele>1243.4</ele>
        <time>2025-07-15T16:45:08Z</time>
      </trkpt>
      <trkpt lat="43.80257" lon="6.84623">
        <ele>1242.8</ele>
        <time>2025-07-15T16:45:12Z</time>
      </trkpt>
      <trkpt lat="43.80273" lon="6.84675">
        <ele>1242.6</ele>
        <time>2025-07-15T16:45:18Z</time>
      </trkpt>
      <trkpt lat="43.80294" lon="6.84742">
        <ele>1242.4</ele>
        <time>2025-07-15T16:45:26Z</time>
      </trkpt>
      <trkpt lat="43.80318" lon="6.84811">
        <ele>1242.4</ele>
        <time>2025-07-15T16:45:35Z</time>
      </trkpt>
      <trkpt lat="43.80338" lon="6.84865">
        <ele>1244.2</ele>
        <time>2025-07-15T16:45:43Z</time>
      </trkpt>
      <trkpt lat="43.80343" lon="6.84879">
        <ele>1244.2</ele>
        <time>2025-07-15T16:45:45Z</time>
      </trkpt>
      <trkpt lat="43.80361" lon="6.84934">
        <ele>1244.6</ele>
        <time>2025-07-15T16:45:53Z</time>
      </trkpt>
      <trkpt lat="43.80384" lon="6.85">
        <ele>1244.4</ele>
        <time>2025-07-15T16:46:02Z</time>
      </trkpt>
      <trkpt lat="43.80405" lon="6.85067">
        <ele>1245</ele>
        <time>2025-07-15T16:46:11Z</time>
      </trkpt>
      <trkpt lat="43.80419" lon="6.85114">
        <ele>1245.6</ele>
        <time>2025-07-15T16:46:17Z</time>
      </trkpt>
      <trkpt lat="43.80425" lon="6.85131">
        <ele>1245.6</ele>
        <time>2025-07-15T16:46:19Z</time>
      </trkpt>
      <trkpt lat="43.8045" lon="6.85206">
        <ele>1245.8</ele>
        <time>2025-07-15T16:46:29Z</time>
      </trkpt>
      <trkpt lat="43.80462" lon="6.85241">
        <ele>1246.6</ele>
        <time>2025-07-15T16:46:34Z</time>
      </trkpt>
      <trkpt lat="43.80466" lon="6.85255">
        <ele>1247</ele>
        <time>2025-07-15T16:46:36Z</time>
      </trkpt>
      <trkpt lat="43.8047" lon="6.85269">
        <ele>1247.4</ele>
        <time>2025-07-15T16:46:38Z</time>
      </trkpt>
      <trkpt lat="43.80475" lon="6.85282">
        <ele>1247.8</ele>
        <time>2025-07-15T16:46:40Z</time>
      </trkpt>
      <trkpt lat="43.80491" lon="6.85319">
        <ele>1249</ele>
        <time>2025-07-15T16:46:46Z</time>
      </trkpt>
      <trkpt lat="43.80519" lon="6.85384">
        <ele>1249.8</ele>
        <time>2025-07-15T16:46:56Z</time>
      </trkpt>
      <trkpt lat="43.80522" lon="6.8539">
        <ele>1249.8</ele>
        <time>2025-07-15T16:46:57Z</time>
      </trkpt>
      <trkpt lat="43.80536" lon="6.85422">
        <ele>1250</ele>
        <time>2025-07-15T16:47:02Z</time>
      </trkpt>
      <trkpt lat="43.80545" lon="6.85441">
        <ele>1250.2</ele>
        <time>2025-07-15T16:47:05Z</time>
      </trkpt>
      <trkpt lat="43.80574" lon="6.85506">
        <ele>1250.8</ele>
        <time>2025-07-15T16:47:15Z</time>
      </trkpt>
      <trkpt lat="43.80605" lon="6.85574">
        <ele>1251.2</ele>
        <time>2025-07-15T16:47:25Z</time>
      </trkpt>
      <trkpt lat="43.80608" lon="6.8558">
        <ele>1251.2</ele>
        <time>2025-07-15T16:47:26Z</time>
      </trkpt>
      <trkpt lat="43.80634" lon="6.85637">
        <ele>1251.4</ele>
        <time>2025-07-15T16:47:34Z</time>
      </trkpt>
      <trkpt lat="43.80654" lon="6.85677">
        <ele>1251.4</ele>
        <time>2025-07-15T16:47:40Z</time>
      </trkpt>
      <trkpt lat="43.8066" lon="6.85689">
        <ele>1251.4</ele>
        <time>2025-07-15T16:47:42Z</time>
      </trkpt>
      <trkpt lat="43.80684" lon="6.85733">
        <ele>1252.2</ele>
        <time>2025-07-15T16:47:49Z</time>
      </trkpt>
      <trkpt lat="43.8069" lon="6.85746">
        <ele>1252.4</ele>
        <time>2025-07-15T16:47:51Z</time>
      </trkpt>
      <trkpt lat="43.807" lon="6.85765">
        <ele>1253.8</ele>
        <time>2025-07-15T16:47:54Z</time>
      </trkpt>
      <trkpt lat="43.80707" lon="6.85778">
        <ele>1254.8</ele>
        <time>2025-07-15T16:47:56Z</time>
      </trkpt>
      <trkpt lat="43.80716" lon="6.85796">
        <ele>1255.2</ele>
        <time>2025-07-15T16:47:59Z</time>
      </trkpt>
      <trkpt lat="43.80738" lon="6.85838">
        <ele>1256</ele>
        <time>2025-07-15T16:48:06Z</time>
      </trkpt>
      <trkpt lat="43.80745" lon="6.8585">
        <ele>1256.2</ele>
        <time>2025-07-15T16:48:08Z</time>
      </trkpt>
      <trkpt lat="43.80766" lon="6.85889">
        <ele>1257</ele>
        <time>2025-07-15T16:48:15Z</time>
      </trkpt>
      <trkpt lat="43.80783" lon="6.85918">
        <ele>1258</ele>
        <time>2025-07-15T16:48:20Z</time>
      </trkpt>
      <trkpt lat="43.80795" lon="6.85943">
        <ele>1258.2</ele>
        <time>2025-07-15T16:48:24Z</time>
      </trkpt>
      <trkpt lat="43.80802" lon="6.85961">
        <ele>1258.6</ele>
        <time>2025-07-15T16:48:27Z</time>
      </trkpt>
      <trkpt lat="43.80805" lon="6.85968">
        <ele>1258.8</ele>
        <time>2025-07-15T16:48:28Z</time>
      </trkpt>
      <trkpt lat="43.80819" lon="6.86022">
        <ele>1258.8</ele>
        <time>2025-07-15T16:48:35Z</time>
      </trkpt>
      <trkpt lat="43.80839" lon="6.86085">
        <ele>1257.6</ele>
        <time>2025-07-15T16:48:42Z</time>
      </trkpt>
      <trkpt lat="43.80851" lon="6.86117">
        <ele>1257.2</ele>
        <time>2025-07-15T16:48:45Z</time>
      </trkpt>
      <trkpt lat="43.80859" lon="6.86139">
        <ele>1256.4</ele>
        <time>2025-07-15T16:48:47Z</time>
      </trkpt>
      <trkpt lat="43.80866" lon="6.86165">
        <ele>1256</ele>
        <time>2025-07-15T16:48:49Z</time>
      </trkpt>
      <trkpt lat="43.80872" lon="6.86187">
        <ele>1255.6</ele>
        <time>2025-07-15T16:48:51Z</time>
      </trkpt>
      <trkpt lat="43.80877" lon="6.86213">
        <ele>1255</ele>
        <time>2025-07-15T16:48:53Z</time>
      </trkpt>
      <trkpt lat="43.80884" lon="6.86253">
        <ele>1253.8</ele>
        <time>2025-07-15T16:48:56Z</time>
      </trkpt>
      <trkpt lat="43.80894" lon="6.86294">
        <ele>1252.8</ele>
        <time>2025-07-15T16:48:59Z</time>
      </trkpt>
      <trkpt lat="43.80897" lon="6.86305">
        <ele>1252.6</ele>
        <time>2025-07-15T16:49:00Z</time>
      </trkpt>
      <trkpt lat="43.80904" lon="6.86363">
        <ele>1251.6</ele>
        <time>2025-07-15T16:49:04Z</time>
      </trkpt>
      <trkpt lat="43.80902" lon="6.86418">
        <ele>1250.2</ele>
        <time>2025-07-15T16:49:08Z</time>
      </trkpt>
      <trkpt lat="43.80901" lon="6.86433">
        <ele>1249.8</ele>
        <time>2025-07-15T16:49:09Z</time>
      </trkpt>
      <trkpt lat="43.80901" lon="6.86448">
        <ele>1248.6</ele>
        <time>2025-07-15T16:49:10Z</time>
      </trkpt>
      <trkpt lat="43.80903" lon="6.86493">
        <ele>1247.4</ele>
        <time>2025-07-15T16:49:13Z</time>
      </trkpt>
      <trkpt lat="43.80904" lon="6.86524">
        <ele>1246.6</ele>
        <time>2025-07-15T16:49:15Z</time>
      </trkpt>
      <trkpt lat="43.80903" lon="6.86539">
        <ele>1246.2</ele>
        <time>2025-07-15T16:49:16Z</time>
      </trkpt>
      <trkpt lat="43.809" lon="6.86554">
        <ele>1245.8</ele>
        <time>2025-07-15T16:49:17Z</time>
      </trkpt>
      <trkpt lat="43.80896" lon="6.86568">
        <ele>1245.2</ele>
        <time>2025-07-15T16:49:18Z</time>
      </trkpt>
      <trkpt lat="43.80885" lon="6.86591">
        <ele>1244</ele>
        <time>2025-07-15T16:49:20Z</time>
      </trkpt>
      <trkpt lat="43.80861" lon="6.86638">
        <ele>1242.4</ele>
        <time>2025-07-15T16:49:24Z</time>
      </trkpt>
      <trkpt lat="43.80844" lon="6.86675">
        <ele>1241.4</ele>
        <time>2025-07-15T16:49:27Z</time>
      </trkpt>
      <trkpt lat="43.80839" lon="6.86688">
        <ele>1240.6</ele>
        <time>2025-07-15T16:49:28Z</time>
      </trkpt>
      <trkpt lat="43.80832" lon="6.86717">
        <ele>1239.2</ele>
        <time>2025-07-15T16:49:30Z</time>
      </trkpt>
      <trkpt lat="43.8083" lon="6.86732">
        <ele>1238.4</ele>
        <time>2025-07-15T16:49:31Z</time>
      </trkpt>
      <trkpt lat="43.80829" lon="6.86747">
        <ele>1238</ele>
        <time>2025-07-15T16:49:32Z</time>
      </trkpt>
      <trkpt lat="43.80831" lon="6.86776">
        <ele>1237</ele>
        <time>2025-07-15T16:49:34Z</time>
      </trkpt>
      <trkpt lat="43.80833" lon="6.86791">
        <ele>1236.6</ele>
        <time>2025-07-15T16:49:35Z</time>
      </trkpt>
      <trkpt lat="43.80838" lon="6.86834">
        <ele>1235.4</ele>
        <time>2025-07-15T16:49:38Z</time>
      </trkpt>
      <trkpt lat="43.8084" lon="6.86848">
        <ele>1235.4</ele>
        <time>2025-07-15T16:49:39Z</time>
      </trkpt>
      <trkpt lat="43.8084" lon="6.86863">
        <ele>1235.2</ele>
        <time>2025-07-15T16:49:40Z</time>
      </trkpt>
      <trkpt lat="43.80834" lon="6.86922">
        <ele>1234.4</ele>
        <time>2025-07-15T16:49:44Z</time>
      </trkpt>
      <trkpt lat="43.80832" lon="6.86934">
        <ele>1233.8</ele>
        <time>2025-07-15T16:49:45Z</time>
      </trkpt>
      <trkpt lat="43.80827" lon="6.86961">
        <ele>1233.4</ele>
        <time>2025-07-15T16:49:47Z</time>
      </trkpt>
      <trkpt lat="43.80818" lon="6.87001">
        <ele>1233</ele>
        <time>2025-07-15T16:49:50Z</time>
      </trkpt>
      <trkpt lat="43.80811" lon="6.87042">
        <ele>1232.4</ele>
        <time>2025-07-15T16:49:53Z</time>
      </trkpt>
      <trkpt lat="43.80808" lon="6.87071">
        <ele>1231.6</ele>
        <time>2025-07-15T16:49:55Z</time>
      </trkpt>
      <trkpt lat="43.80806" lon="6.87085">
        <ele>1231</ele>
        <time>2025-07-15T16:49:56Z</time>
      </trkpt>
      <trkpt lat="43.808" lon="6.87155">
        <ele>1229.8</ele>
        <time>2025-07-15T16:50:01Z</time>
      </trkpt>
      <trkpt lat="43.808" lon="6.87169">
        <ele>1229.6</ele>
        <time>2025-07-15T16:50:02Z</time>
      </trkpt>
      <trkpt lat="43.80801" lon="6.87183">
        <ele>1229.2</ele>
        <time>2025-07-15T16:50:03Z</time>
      </trkpt>
      <trkpt lat="43.80807" lon="6.87223">
        <ele>1228.2</ele>
        <time>2025-07-15T16:50:06Z</time>
      </trkpt>
      <trkpt lat="43.80813" lon="6.87264">
        <ele>1227.8</ele>
        <time>2025-07-15T16:50:09Z</time>
      </trkpt>
      <trkpt lat="43.80817" lon="6.87306">
        <ele>1227</ele>
        <time>2025-07-15T16:50:12Z</time>
      </trkpt>
      <trkpt lat="43.80819" lon="6.87347">
        <ele>1226</ele>
        <time>2025-07-15T16:50:15Z</time>
      </trkpt>
      <trkpt lat="43.8082" lon="6.87361">
        <ele>1225.8</ele>
        <time>2025-07-15T16:50:16Z</time>
      </trkpt>
      <trkpt lat="43.80824" lon="6.8743">
        <ele>1225</ele>
        <time>2025-07-15T16:50:21Z</time>
      </trkpt>
      <trkpt lat="43.80828" lon="6.87457">
        <ele>1224</ele>
        <time>2025-07-15T16:50:23Z</time>
      </trkpt>
      <trkpt lat="43.80831" lon="6.8747">
        <ele>1223.2</ele>
        <time>2025-07-15T16:50:24Z</time>
      </trkpt>
      <trkpt lat="43.80839" lon="6.8751">
        <ele>1222</ele>
        <time>2025-07-15T16:50:27Z</time>
      </trkpt>
      <trkpt lat="43.80844" lon="6.87535">
        <ele>1221.8</ele>
        <time>2025-07-15T16:50:29Z</time>
      </trkpt>
      <trkpt lat="43.80863" lon="6.87595">
        <ele>1221.4</ele>
        <time>2025-07-15T16:50:34Z</time>
      </trkpt>
      <trkpt lat="43.80868" lon="6.87607">
        <ele>1221.2</ele>
        <time>2025-07-15T16:50:35Z</time>
      </trkpt>
      <trkpt lat="43.8088" lon="6.87645">
        <ele>1220.6</ele>
        <time>2025-07-15T16:50:38Z</time>
      </trkpt>
      <trkpt lat="43.80885" lon="6.87667">
        <ele>1220</ele>
        <time>2025-07-15T16:50:40Z</time>
      </trkpt>
      <trkpt lat="43.80891" lon="6.8772">
        <ele>1218.8</ele>
        <time>2025-07-15T16:50:44Z</time>
      </trkpt>
      <trkpt lat="43.80894" lon="6.87759">
        <ele>1218.4</ele>
        <time>2025-07-15T16:50:47Z</time>
      </trkpt>
      <trkpt lat="43.80896" lon="6.87813">
        <ele>1218</ele>
        <time>2025-07-15T16:50:51Z</time>
      </trkpt>
      <trkpt lat="43.80897" lon="6.87852">
        <ele>1217.6</ele>
        <time>2025-07-15T16:50:54Z</time>
      </trkpt>
      <trkpt lat="43.809" lon="6.87928">
        <ele>1217.2</ele>
        <time>2025-07-15T16:51:00Z</time>
      </trkpt>
      <trkpt lat="43.80901" lon="6.87968">
        <ele>1217</ele>
        <time>2025-07-15T16:51:03Z</time>
      </trkpt>
      <trkpt lat="43.80902" lon="6.8799">
        <ele>1216.8</ele>
        <time>2025-07-15T16:51:05Z</time>
      </trkpt>
      <trkpt lat="43.80905" lon="6.88075">
        <ele>1216.4</ele>
        <time>2025-07-15T16:51:12Z</time>
      </trkpt>
      <trkpt lat="43.80905" lon="6.88098">
        <ele>1216.4</ele>
        <time>2025-07-15T16:51:14Z</time>
      </trkpt>
      <trkpt lat="43.80902" lon="6.88173">
        <ele>1216.8</ele>
        <time>2025-07-15T16:51:21Z</time>
      </trkpt>
      <trkpt lat="43.80893" lon="6.88254">
        <ele>1217.4</ele>
        <time>2025-07-15T16:51:29Z</time>
      </trkpt>
      <trkpt lat="43.8089" lon="6.88273">
        <ele>1217.6</ele>
        <time>2025-07-15T16:51:31Z</time>
      </trkpt>
      <trkpt lat="43.80887" lon="6.88283">
        <ele>1217.6</ele>
        <time>2025-07-15T16:51:32Z</time>
      </trkpt>
      <trkpt lat="43.80882" lon="6.883">
        <ele>1218</ele>
        <time>2025-07-15T16:51:34Z</time>
      </trkpt>
      <trkpt lat="43.80881" lon="6.88309">
        <ele>1218.2</ele>
        <time>2025-07-15T16:51:35Z</time>
      </trkpt>
      <trkpt lat="43.80881" lon="6.88318">
        <ele>1218.2</ele>
        <time>2025-07-15T16:51:36Z</time>
      </trkpt>
      <trkpt lat="43.80881" lon="6.88328">
        <ele>1218.4</ele>
        <time>2025-07-15T16:51:37Z</time>
      </trkpt>
      <trkpt lat="43.8088" lon="6.88337">
        <ele>1218.6</ele>
        <time>2025-07-15T16:51:38Z</time>
      </trkpt>
      <trkpt lat="43.80878" lon="6.88354">
        <ele>1219</ele>
        <time>2025-07-15T16:51:40Z</time>
      </trkpt>
      <trkpt lat="43.80873" lon="6.88386">
        <ele>1219.6</ele>
        <time>2025-07-15T16:51:44Z</time>
      </trkpt>
      <trkpt lat="43.80871" lon="6.88402">
        <ele>1220</ele>
        <time>2025-07-15T16:51:46Z</time>
      </trkpt>
      <trkpt lat="43.80867" lon="6.88433">
        <ele>1220.8</ele>
        <time>2025-07-15T16:51:50Z</time>
      </trkpt>
      <trkpt lat="43.80862" lon="6.88474">
        <ele>1221.4</ele>
        <time>2025-07-15T16:51:55Z</time>
      </trkpt>
      <trkpt lat="43.80856" lon="6.88498">
        <ele>1222</ele>
        <time>2025-07-15T16:51:58Z</time>
      </trkpt>
      <trkpt lat="43.80846" lon="6.8853">
        <ele>1222.6</ele>
        <time>2025-07-15T16:52:02Z</time>
      </trkpt>
      <trkpt lat="43.80834" lon="6.88571">
        <ele>1223.2</ele>
        <time>2025-07-15T16:52:07Z</time>
      </trkpt>
      <trkpt lat="43.80825" lon="6.886">
        <ele>1223.2</ele>
        <time>2025-07-15T16:52:10Z</time>
      </trkpt>
      <trkpt lat="43.80811" lon="6.88657">
        <ele>1222.2</ele>
        <time>2025-07-15T16:52:15Z</time>
      </trkpt>
      <trkpt lat="43.808" lon="6.88709">
        <ele>1221</ele>
        <time>2025-07-15T16:52:19Z</time>
      </trkpt>
      <trkpt lat="43.8079" lon="6.88763">
        <ele>1219.6</ele>
        <time>2025-07-15T16:52:23Z</time>
      </trkpt>
      <trkpt lat="43.80782" lon="6.88805">
        <ele>1218.6</ele>
        <time>2025-07-15T16:52:26Z</time>
      </trkpt>
      <trkpt lat="43.80776" lon="6.88847">
        <ele>1217.6</ele>
        <time>2025-07-15T16:52:29Z</time>
      </trkpt>
      <trkpt lat="43.80772" lon="6.88876">
        <ele>1217</ele>
        <time>2025-07-15T16:52:31Z</time>
      </trkpt>
      <trkpt lat="43.80768" lon="6.88905">
        <ele>1216.2</ele>
        <time>2025-07-15T16:52:33Z</time>
      </trkpt>
      <trkpt lat="43.80759" lon="6.88963">
        <ele>1214.8</ele>
        <time>2025-07-15T16:52:37Z</time>
      </trkpt>
      <trkpt lat="43.80752" lon="6.89008">
        <ele>1213.6</ele>
        <time>2025-07-15T16:52:40Z</time>
      </trkpt>
      <trkpt lat="43.80747" lon="6.89042">
        <ele>1212.4</ele>
        <time>2025-07-15T16:52:42Z</time>
      </trkpt>
      <trkpt lat="43.80745" lon="6.89054">
        <ele>1212.2</ele>
        <time>2025-07-15T16:52:43Z</time>
      </trkpt>
      <trkpt lat="43.80743" lon="6.8907">
        <ele>1211.4</ele>
        <time>2025-07-15T16:52:44Z</time>
      </trkpt>
      <trkpt lat="43.80736" lon="6.89118">
        <ele>1210</ele>
        <time>2025-07-15T16:52:47Z</time>
      </trkpt>
      <trkpt lat="43.80729" lon="6.89164">
        <ele>1208.8</ele>
        <time>2025-07-15T16:52:50Z</time>
      </trkpt>
      <trkpt lat="43.80726" lon="6.89179">
        <ele>1208</ele>
        <time>2025-07-15T16:52:51Z</time>
      </trkpt>
      <trkpt lat="43.80716" lon="6.89207">
        <ele>1207.4</ele>
        <time>2025-07-15T16:52:53Z</time>
      </trkpt>
      <trkpt lat="43.8071" lon="6.8922">
        <ele>1206.6</ele>
        <time>2025-07-15T16:52:54Z</time>
      </trkpt>
      <trkpt lat="43.80704" lon="6.89232">
        <ele>1206.4</ele>
        <time>2025-07-15T16:52:55Z</time>
      </trkpt>
      <trkpt lat="43.80697" lon="6.89242">
        <ele>1206.2</ele>
        <time>2025-07-15T16:52:56Z</time>
      </trkpt>
      <trkpt lat="43.80667" lon="6.89282">
        <ele>1205.6</ele>
        <time>2025-07-15T16:53:00Z</time>
      </trkpt>
      <trkpt lat="43.80632" lon="6.89328">
        <ele>1205.2</ele>
        <time>2025-07-15T16:53:05Z</time>
      </trkpt>
      <trkpt lat="43.80609" lon="6.89356">
        <ele>1204.8</ele>
        <time>2025-07-15T16:53:08Z</time>
      </trkpt>
      <trkpt lat="43.80584" lon="6.8939">
        <ele>1204.2</ele>
        <time>2025-07-15T16:53:12Z</time>
      </trkpt>
      <trkpt lat="43.80551" lon="6.89433">
        <ele>1203.6</ele>
        <time>2025-07-15T16:53:17Z</time>
      </trkpt>
      <trkpt lat="43.80525" lon="6.89466">
        <ele>1203.4</ele>
        <time>2025-07-15T16:53:21Z</time>
      </trkpt>
      <trkpt lat="43.80505" lon="6.89493">
        <ele>1203.2</ele>
        <time>2025-07-15T16:53:24Z</time>
      </trkpt>
      <trkpt lat="43.805" lon="6.89499">
        <ele>1203</ele>
        <time>2025-07-15T16:53:25Z</time>
      </trkpt>
      <trkpt lat="43.80457" lon="6.89555">
        <ele>1202.6</ele>
        <time>2025-07-15T16:53:32Z</time>
      </trkpt>
      <trkpt lat="43.80443" lon="6.89573">
        <ele>1202.4</ele>
        <time>2025-07-15T16:53:34Z</time>
      </trkpt>
      <trkpt lat="43.80437" lon="6.89581">
        <ele>1202.2</ele>
        <time>2025-07-15T16:53:35Z</time>
      </trkpt>
      <trkpt lat="43.80394" lon="6.89637">
        <ele>1201.6</ele>
        <time>2025-07-15T16:53:42Z</time>
      </trkpt>
      <trkpt lat="43.80362" lon="6.89679">
        <ele>1201.2</ele>
        <time>2025-07-15T16:53:47Z</time>
      </trkpt>
      <trkpt lat="43.8033" lon="6.89734">
        <ele>1200.8</ele>
        <time>2025-07-15T16:53:53Z</time>
      </trkpt>
      <trkpt lat="43.80313" lon="6.89785">
        <ele>1200.8</ele>
        <time>2025-07-15T16:53:58Z</time>
      </trkpt>
      <trkpt lat="43.803" lon="6.89848">
        <ele>1201</ele>
        <time>2025-07-15T16:54:04Z</time>
      </trkpt>
      <trkpt lat="43.80295" lon="6.89884">
        <ele>1201.2</ele>
        <time>2025-07-15T16:54:07Z</time>
      </trkpt>
      <trkpt lat="43.80295" lon="6.89905">
        <ele>1201.4</ele>
        <time>2025-07-15T16:54:09Z</time>
      </trkpt>
      <trkpt lat="43.8029" lon="6.89968">
        <ele>1201.4</ele>
        <time>2025-07-15T16:54:14Z</time>
      </trkpt>
      <trkpt lat="43.80285" lon="6.90054">
        <ele>1200.4</ele>
        <time>2025-07-15T16:54:21Z</time>
      </trkpt>
      <trkpt lat="43.8028" lon="6.90077">
        <ele>1200.2</ele>
        <time>2025-07-15T16:54:23Z</time>
      </trkpt>
      <trkpt lat="43.80273" lon="6.901">
        <ele>1200</ele>
        <time>2025-07-15T16:54:25Z</time>
      </trkpt>
      <trkpt lat="43.80264" lon="6.90121">
        <ele>1199.8</ele>
        <time>2025-07-15T16:54:27Z</time>
      </trkpt>
      <trkpt lat="43.80253" lon="6.90141">
        <ele>1199.8</ele>
        <time>2025-07-15T16:54:29Z</time>
      </trkpt>
      <trkpt lat="43.80219" lon="6.90186">
        <ele>1199.4</ele>
        <time>2025-07-15T16:54:34Z</time>
      </trkpt>
      <trkpt lat="43.80206" lon="6.90205">
        <ele>1199</ele>
        <time>2025-07-15T16:54:36Z</time>
      </trkpt>
      <trkpt lat="43.80197" lon="6.90227">
        <ele>1198.4</ele>
        <time>2025-07-15T16:54:38Z</time>
      </trkpt>
      <trkpt lat="43.80194" lon="6.90254">
        <ele>1197.8</ele>
        <time>2025-07-15T16:54:40Z</time>
      </trkpt>
      <trkpt lat="43.80194" lon="6.90268">
        <ele>1197.6</ele>
        <time>2025-07-15T16:54:41Z</time>
      </trkpt>
      <trkpt lat="43.80192" lon="6.90282">
        <ele>1197.2</ele>
        <time>2025-07-15T16:54:42Z</time>
      </trkpt>
      <trkpt lat="43.80184" lon="6.90308">
        <ele>1196.8</ele>
        <time>2025-07-15T16:54:44Z</time>
      </trkpt>
      <trkpt lat="43.8017" lon="6.90325">
        <ele>1196.2</ele>
        <time>2025-07-15T16:54:46Z</time>
      </trkpt>
      <trkpt lat="43.80149" lon="6.90334">
        <ele>1196</ele>
        <time>2025-07-15T16:54:48Z</time>
      </trkpt>
      <trkpt lat="43.80138" lon="6.90336">
        <ele>1195.8</ele>
        <time>2025-07-15T16:54:49Z</time>
      </trkpt>
      <trkpt lat="43.80128" lon="6.90338">
        <ele>1195.6</ele>
        <time>2025-07-15T16:54:50Z</time>
      </trkpt>
      <trkpt lat="43.80118" lon="6.90342">
        <ele>1195.2</ele>
        <time>2025-07-15T16:54:51Z</time>
      </trkpt>
      <trkpt lat="43.80109" lon="6.90348">
        <ele>1194.4</ele>
        <time>2025-07-15T16:54:52Z</time>
      </trkpt>
      <trkpt lat="43.80102" lon="6.90357">
        <ele>1193.4</ele>
        <time>2025-07-15T16:54:53Z</time>
      </trkpt>
      <trkpt lat="43.80099" lon="6.9037">
        <ele>1192.8</ele>
        <time>2025-07-15T16:54:54Z</time>
      </trkpt>
      <trkpt lat="43.80097" lon="6.90384">
        <ele>1192.6</ele>
        <time>2025-07-15T16:54:55Z</time>
      </trkpt>
      <trkpt lat="43.80096" lon="6.90413">
        <ele>1191.8</ele>
        <time>2025-07-15T16:54:57Z</time>
      </trkpt>
      <trkpt lat="43.80097" lon="6.90459">
        <ele>1190.8</ele>
        <time>2025-07-15T16:55:00Z</time>
      </trkpt>
      <trkpt lat="43.80099" lon="6.90487">
        <ele>1189.8</ele>
        <time>2025-07-15T16:55:02Z</time>
      </trkpt>
      <trkpt lat="43.80101" lon="6.90505">
        <ele>1189.4</ele>
        <time>2025-07-15T16:55:03Z</time>
      </trkpt>
      <trkpt lat="43.80109" lon="6.90535">
        <ele>1188.4</ele>
        <time>2025-07-15T16:55:05Z</time>
      </trkpt>
      <trkpt lat="43.80114" lon="6.9055">
        <ele>1188.2</ele>
        <time>2025-07-15T16:55:06Z</time>
      </trkpt>
      <trkpt lat="43.80128" lon="6.90594">
        <ele>1186.8</ele>
        <time>2025-07-15T16:55:09Z</time>
      </trkpt>
      <trkpt lat="43.80135" lon="6.90607">
        <ele>1186</ele>
        <time>2025-07-15T16:55:10Z</time>
      </trkpt>
      <trkpt lat="43.80146" lon="6.90631">
        <ele>1184.8</ele>
        <time>2025-07-15T16:55:12Z</time>
      </trkpt>
      <trkpt lat="43.80154" lon="6.90661">
        <ele>1183.4</ele>
        <time>2025-07-15T16:55:14Z</time>
      </trkpt>
      <trkpt lat="43.80155" lon="6.90696">
        <ele>1182.4</ele>
        <time>2025-07-15T16:55:16Z</time>
      </trkpt>
      <trkpt lat="43.80145" lon="6.9074">
        <ele>1180.8</ele>
        <time>2025-07-15T16:55:19Z</time>
      </trkpt>
      <trkpt lat="43.80137" lon="6.90766">
        <ele>1179.8</ele>
        <time>2025-07-15T16:55:21Z</time>
      </trkpt>
      <trkpt lat="43.80131" lon="6.90779">
        <ele>1179.6</ele>
        <time>2025-07-15T16:55:22Z</time>
      </trkpt>
      <trkpt lat="43.80124" lon="6.90791">
        <ele>1179.2</ele>
        <time>2025-07-15T16:55:23Z</time>
      </trkpt>
      <trkpt lat="43.80109" lon="6.90815">
        <ele>1178.4</ele>
        <time>2025-07-15T16:55:25Z</time>
      </trkpt>
      <trkpt lat="43.80087" lon="6.9085">
        <ele>1177.2</ele>
        <time>2025-07-15T16:55:28Z</time>
      </trkpt>
      <trkpt lat="43.80078" lon="6.90861">
        <ele>1177</ele>
        <time>2025-07-15T16:55:29Z</time>
      </trkpt>
      <trkpt lat="43.80061" lon="6.90882">
        <ele>1175.8</ele>
        <time>2025-07-15T16:55:31Z</time>
      </trkpt>
      <trkpt lat="43.80034" lon="6.90914">
        <ele>1174.6</ele>
        <time>2025-07-15T16:55:34Z</time>
      </trkpt>
      <trkpt lat="43.80024" lon="6.90923">
        <ele>1173.8</ele>
        <time>2025-07-15T16:55:35Z</time>
      </trkpt>
      <trkpt lat="43.80014" lon="6.90929">
        <ele>1173.2</ele>
        <time>2025-07-15T16:55:36Z</time>
      </trkpt>
      <trkpt lat="43.80003" lon="6.90934">
        <ele>1172.6</ele>
        <time>2025-07-15T16:55:37Z</time>
      </trkpt>
      <trkpt lat="43.79991" lon="6.90938">
        <ele>1172.2</ele>
        <time>2025-07-15T16:55:38Z</time>
      </trkpt>
      <trkpt lat="43.79967" lon="6.90941">
        <ele>1171</ele>
        <time>2025-07-15T16:55:40Z</time>
      </trkpt>
      <trkpt lat="43.79933" lon="6.90947">
        <ele>1170.2</ele>
        <time>2025-07-15T16:55:43Z</time>
      </trkpt>
      <trkpt lat="43.79922" lon="6.9095">
        <ele>1170</ele>
        <time>2025-07-15T16:55:44Z</time>
      </trkpt>
      <trkpt lat="43.79889" lon="6.90959">
        <ele>1168.6</ele>
        <time>2025-07-15T16:55:47Z</time>
      </trkpt>
      <trkpt lat="43.79857" lon="6.90966">
        <ele>1167.6</ele>
        <time>2025-07-15T16:55:50Z</time>
      </trkpt>
      <trkpt lat="43.79846" lon="6.90968">
        <ele>1167</ele>
        <time>2025-07-15T16:55:51Z</time>
      </trkpt>
      <trkpt lat="43.79826" lon="6.90972">
        <ele>1166.4</ele>
        <time>2025-07-15T16:55:53Z</time>
      </trkpt>
      <trkpt lat="43.79795" lon="6.90971">
        <ele>1165.4</ele>
        <time>2025-07-15T16:55:56Z</time>
      </trkpt>
      <trkpt lat="43.79786" lon="6.90969">
        <ele>1164.8</ele>
        <time>2025-07-15T16:55:57Z</time>
      </trkpt>
      <trkpt lat="43.79776" lon="6.90966">
        <ele>1164.4</ele>
        <time>2025-07-15T16:55:58Z</time>
      </trkpt>
      <trkpt lat="43.79768" lon="6.90961">
        <ele>1164.2</ele>
        <time>2025-07-15T16:55:59Z</time>
      </trkpt>
      <trkpt lat="43.79753" lon="6.90947">
        <ele>1163.6</ele>
        <time>2025-07-15T16:56:01Z</time>
      </trkpt>
      <trkpt lat="43.79745" lon="6.90938">
        <ele>1163.6</ele>
        <time>2025-07-15T16:56:02Z</time>
      </trkpt>
      <trkpt lat="43.79739" lon="6.90928">
        <ele>1163.4</ele>
        <time>2025-07-15T16:56:03Z</time>
      </trkpt>
      <trkpt lat="43.79729" lon="6.90904">
        <ele>1162.8</ele>
        <time>2025-07-15T16:56:05Z</time>
      </trkpt>
      <trkpt lat="43.79717" lon="6.90882">
        <ele>1162.4</ele>
        <time>2025-07-15T16:56:07Z</time>
      </trkpt>
      <trkpt lat="43.79702" lon="6.90863">
        <ele>1161.4</ele>
        <time>2025-07-15T16:56:09Z</time>
      </trkpt>
      <trkpt lat="43.79695" lon="6.90856">
        <ele>1160.6</ele>
        <time>2025-07-15T16:56:10Z</time>
      </trkpt>
      <trkpt lat="43.79687" lon="6.90852">
        <ele>1160.4</ele>
        <time>2025-07-15T16:56:11Z</time>
      </trkpt>
      <trkpt lat="43.79679" lon="6.90852">
        <ele>1160</ele>
        <time>2025-07-15T16:56:12Z</time>
      </trkpt>
      <trkpt lat="43.79673" lon="6.90856">
        <ele>1159.6</ele>
        <time>2025-07-15T16:56:13Z</time>
      </trkpt>
      <trkpt lat="43.79667" lon="6.90877">
        <ele>1158</ele>
        <time>2025-07-15T16:56:15Z</time>
      </trkpt>
      <trkpt lat="43.79667" lon="6.90903">
        <ele>1156</ele>
        <time>2025-07-15T16:56:17Z</time>
      </trkpt>
      <trkpt lat="43.79668" lon="6.90918">
        <ele>1155.8</ele>
        <time>2025-07-15T16:56:18Z</time>
      </trkpt>
      <trkpt lat="43.79669" lon="6.90948">
        <ele>1154.6</ele>
        <time>2025-07-15T16:56:20Z</time>
      </trkpt>
      <trkpt lat="43.79669" lon="6.90996">
        <ele>1153</ele>
        <time>2025-07-15T16:56:23Z</time>
      </trkpt>
      <trkpt lat="43.79665" lon="6.91027">
        <ele>1152</ele>
        <time>2025-07-15T16:56:25Z</time>
      </trkpt>
      <trkpt lat="43.79659" lon="6.91057">
        <ele>1150.8</ele>
        <time>2025-07-15T16:56:27Z</time>
      </trkpt>
      <trkpt lat="43.79656" lon="6.91073">
        <ele>1150.2</ele>
        <time>2025-07-15T16:56:28Z</time>
      </trkpt>
      <trkpt lat="43.79655" lon="6.9109">
        <ele>1149.6</ele>
        <time>2025-07-15T16:56:29Z</time>
      </trkpt>
      <trkpt lat="43.79656" lon="6.91106">
        <ele>1148.4</ele>
        <time>2025-07-15T16:56:30Z</time>
      </trkpt>
      <trkpt lat="43.7966" lon="6.9114">
        <ele>1147</ele>
        <time>2025-07-15T16:56:32Z</time>
      </trkpt>
      <trkpt lat="43.79666" lon="6.91173">
        <ele>1146.2</ele>
        <time>2025-07-15T16:56:34Z</time>
      </trkpt>
      <trkpt lat="43.79669" lon="6.9119">
        <ele>1145.8</ele>
        <time>2025-07-15T16:56:35Z</time>
      </trkpt>
      <trkpt lat="43.79673" lon="6.91225">
        <ele>1144.6</ele>
        <time>2025-07-15T16:56:37Z</time>
      </trkpt>
      <trkpt lat="43.79675" lon="6.91243">
        <ele>1144</ele>
        <time>2025-07-15T16:56:38Z</time>
      </trkpt>
      <trkpt lat="43.79676" lon="6.91261">
        <ele>1143</ele>
        <time>2025-07-15T16:56:39Z</time>
      </trkpt>
      <trkpt lat="43.79678" lon="6.91297">
        <ele>1141.4</ele>
        <time>2025-07-15T16:56:41Z</time>
      </trkpt>
      <trkpt lat="43.79679" lon="6.91314">
        <ele>1140.2</ele>
        <time>2025-07-15T16:56:42Z</time>
      </trkpt>
      <trkpt lat="43.79678" lon="6.91331">
        <ele>1139.6</ele>
        <time>2025-07-15T16:56:43Z</time>
      </trkpt>
      <trkpt lat="43.79676" lon="6.91346">
        <ele>1138.4</ele>
        <time>2025-07-15T16:56:44Z</time>
      </trkpt>
      <trkpt lat="43.79672" lon="6.91361">
        <ele>1138</ele>
        <time>2025-07-15T16:56:45Z</time>
      </trkpt>
      <trkpt lat="43.79666" lon="6.91375">
        <ele>1136.6</ele>
        <time>2025-07-15T16:56:46Z</time>
      </trkpt>
      <trkpt lat="43.79659" lon="6.91388">
        <ele>1135.6</ele>
        <time>2025-07-15T16:56:47Z</time>
      </trkpt>
      <trkpt lat="43.79652" lon="6.91398">
        <ele>1135</ele>
        <time>2025-07-15T16:56:48Z</time>
      </trkpt>
      <trkpt lat="43.79642" lon="6.91406">
        <ele>1133.8</ele>
        <time>2025-07-15T16:56:49Z</time>
      </trkpt>
      <trkpt lat="43.79624" lon="6.91418">
        <ele>1132</ele>
        <time>2025-07-15T16:56:51Z</time>
      </trkpt>
      <trkpt lat="43.79617" lon="6.91427">
        <ele>1131.6</ele>
        <time>2025-07-15T16:56:52Z</time>
      </trkpt>
      <trkpt lat="43.79612" lon="6.91438">
        <ele>1130.6</ele>
        <time>2025-07-15T16:56:53Z</time>
      </trkpt>
      <trkpt lat="43.79608" lon="6.9145">
        <ele>1129.6</ele>
        <time>2025-07-15T16:56:54Z</time>
      </trkpt>
      <trkpt lat="43.79606" lon="6.91464">
        <ele>1129</ele>
        <time>2025-07-15T16:56:55Z</time>
      </trkpt>
      <trkpt lat="43.79606" lon="6.91479">
        <ele>1127.8</ele>
        <time>2025-07-15T16:56:56Z</time>
      </trkpt>
      <trkpt lat="43.79605" lon="6.91494">
        <ele>1127.4</ele>
        <time>2025-07-15T16:56:57Z</time>
      </trkpt>
      <trkpt lat="43.79603" lon="6.91509">
        <ele>1126.8</ele>
        <time>2025-07-15T16:56:58Z</time>
      </trkpt>
      <trkpt lat="43.79601" lon="6.91524">
        <ele>1126.2</ele>
        <time>2025-07-15T16:56:59Z</time>
      </trkpt>
      <trkpt lat="43.796" lon="6.91539">
        <ele>1125.4</ele>
        <time>2025-07-15T16:57:00Z</time>
      </trkpt>
      <trkpt lat="43.796" lon="6.91554">
        <ele>1125</ele>
        <time>2025-07-15T16:57:01Z</time>
      </trkpt>
      <trkpt lat="43.79602" lon="6.91567">
        <ele>1124.4</ele>
        <time>2025-07-15T16:57:02Z</time>
      </trkpt>
      <trkpt lat="43.79606" lon="6.9158">
        <ele>1123.6</ele>
        <time>2025-07-15T16:57:03Z</time>
      </trkpt>
      <trkpt lat="43.79612" lon="6.91591">
        <ele>1123.2</ele>
        <time>2025-07-15T16:57:04Z</time>
      </trkpt>
      <trkpt lat="43.79625" lon="6.9161">
        <ele>1122.2</ele>
        <time>2025-07-15T16:57:06Z</time>
      </trkpt>
      <trkpt lat="43.79631" lon="6.91621">
        <ele>1121.4</ele>
        <time>2025-07-15T16:57:07Z</time>
      </trkpt>
      <trkpt lat="43.79635" lon="6.91632">
        <ele>1121.2</ele>
        <time>2025-07-15T16:57:08Z</time>
      </trkpt>
      <trkpt lat="43.79637" lon="6.91645">
        <ele>1120.6</ele>
        <time>2025-07-15T16:57:09Z</time>
      </trkpt>
      <trkpt lat="43.79637" lon="6.91658">
        <ele>1119.8</ele>
        <time>2025-07-15T16:57:10Z</time>
      </trkpt>
      <trkpt lat="43.79636" lon="6.91671">
        <ele>1119.4</ele>
        <time>2025-07-15T16:57:11Z</time>
      </trkpt>
      <trkpt lat="43.79634" lon="6.91683">
        <ele>1118.6</ele>
        <time>2025-07-15T16:57:12Z</time>
      </trkpt>
      <trkpt lat="43.79633" lon="6.91695">
        <ele>1118.2</ele>
        <time>2025-07-15T16:57:13Z</time>
      </trkpt>
      <trkpt lat="43.79633" lon="6.91707">
        <ele>1117.2</ele>
        <time>2025-07-15T16:57:14Z</time>
      </trkpt>
      <trkpt lat="43.79633" lon="6.91717">
        <ele>1116.8</ele>
        <time>2025-07-15T16:57:15Z</time>
      </trkpt>
      <trkpt lat="43.79634" lon="6.91739">
        <ele>1115.4</ele>
        <time>2025-07-15T16:57:17Z</time>
      </trkpt>
      <trkpt lat="43.7964" lon="6.91762">
        <ele>1114</ele>
        <time>2025-07-15T16:57:19Z</time>
      </trkpt>
      <trkpt lat="43.79639" lon="6.91788">
        <ele>1112.8</ele>
        <time>2025-07-15T16:57:21Z</time>
      </trkpt>
      <trkpt lat="43.79638" lon="6.91797">
        <ele>1112.6</ele>
        <time>2025-07-15T16:57:22Z</time>
      </trkpt>
      <trkpt lat="43.79636" lon="6.91813">
        <ele>1111.8</ele>
        <time>2025-07-15T16:57:23Z</time>
      </trkpt>
      <trkpt lat="43.79632" lon="6.91839">
        <ele>1110.8</ele>
        <time>2025-07-15T16:57:25Z</time>
      </trkpt>
      <trkpt lat="43.79623" lon="6.91859">
        <ele>1110.2</ele>
        <time>2025-07-15T16:57:27Z</time>
      </trkpt>
      <trkpt lat="43.79617" lon="6.9187">
        <ele>1109.4</ele>
        <time>2025-07-15T16:57:28Z</time>
      </trkpt>
      <trkpt lat="43.79612" lon="6.91896">
        <ele>1107.6</ele>
        <time>2025-07-15T16:57:30Z</time>
      </trkpt>
      <trkpt lat="43.79616" lon="6.9192">
        <ele>1106.4</ele>
        <time>2025-07-15T16:57:32Z</time>
      </trkpt>
      <trkpt lat="43.79619" lon="6.91934">
        <ele>1105.8</ele>
        <time>2025-07-15T16:57:33Z</time>
      </trkpt>
      <trkpt lat="43.79616" lon="6.92004">
        <ele>1103</ele>
        <time>2025-07-15T16:57:38Z</time>
      </trkpt>
      <trkpt lat="43.79613" lon="6.92017">
        <ele>1102.4</ele>
        <time>2025-07-15T16:57:39Z</time>
      </trkpt>
      <trkpt lat="43.79612" lon="6.92028">
        <ele>1101.6</ele>
        <time>2025-07-15T16:57:40Z</time>
      </trkpt>
      <trkpt lat="43.79612" lon="6.92054">
        <ele>1100.8</ele>
        <time>2025-07-15T16:57:42Z</time>
      </trkpt>
      <trkpt lat="43.79621" lon="6.92075">
        <ele>1099.2</ele>
        <time>2025-07-15T16:57:44Z</time>
      </trkpt>
      <trkpt lat="43.79635" lon="6.92091">
        <ele>1098.4</ele>
        <time>2025-07-15T16:57:46Z</time>
      </trkpt>
      <trkpt lat="43.79643" lon="6.92095">
        <ele>1097.8</ele>
        <time>2025-07-15T16:57:47Z</time>
      </trkpt>
      <trkpt lat="43.79651" lon="6.92097">
        <ele>1097.6</ele>
        <time>2025-07-15T16:57:48Z</time>
      </trkpt>
      <trkpt lat="43.79661" lon="6.92098">
        <ele>1096.6</ele>
        <time>2025-07-15T16:57:49Z</time>
      </trkpt>
      <trkpt lat="43.79667" lon="6.921">
        <ele>1096</ele>
        <time>2025-07-15T16:57:50Z</time>
      </trkpt>
      <trkpt lat="43.79676" lon="6.92107">
        <ele>1095.4</ele>
        <time>2025-07-15T16:57:51Z</time>
      </trkpt>
      <trkpt lat="43.7968" lon="6.92113">
        <ele>1095.2</ele>
        <time>2025-07-15T16:57:52Z</time>
      </trkpt>
      <trkpt lat="43.79683" lon="6.92125">
        <ele>1094.6</ele>
        <time>2025-07-15T16:57:53Z</time>
      </trkpt>
      <trkpt lat="43.79684" lon="6.92139">
        <ele>1093.6</ele>
        <time>2025-07-15T16:57:54Z</time>
      </trkpt>
      <trkpt lat="43.79683" lon="6.9215">
        <ele>1092.4</ele>
        <time>2025-07-15T16:57:55Z</time>
      </trkpt>
      <trkpt lat="43.79681" lon="6.92162">
        <ele>1091.8</ele>
        <time>2025-07-15T16:57:56Z</time>
      </trkpt>
      <trkpt lat="43.79675" lon="6.92186">
        <ele>1090.8</ele>
        <time>2025-07-15T16:57:58Z</time>
      </trkpt>
      <trkpt lat="43.79672" lon="6.92198">
        <ele>1090.6</ele>
        <time>2025-07-15T16:57:59Z</time>
      </trkpt>
      <trkpt lat="43.79671" lon="6.9221">
        <ele>1090.2</ele>
        <time>2025-07-15T16:58:00Z</time>
      </trkpt>
      <trkpt lat="43.79673" lon="6.92234">
        <ele>1089.4</ele>
        <time>2025-07-15T16:58:02Z</time>
      </trkpt>
      <trkpt lat="43.79674" lon="6.92263">
        <ele>1088.4</ele>
        <time>2025-07-15T16:58:04Z</time>
      </trkpt>
      <trkpt lat="43.79675" lon="6.92278">
        <ele>1088</ele>
        <time>2025-07-15T16:58:05Z</time>
      </trkpt>
      <trkpt lat="43.79678" lon="6.92307">
        <ele>1086.6</ele>
        <time>2025-07-15T16:58:07Z</time>
      </trkpt>
      <trkpt lat="43.79679" lon="6.92323">
        <ele>1086</ele>
        <time>2025-07-15T16:58:08Z</time>
      </trkpt>
      <trkpt lat="43.79681" lon="6.92341">
        <ele>1085.2</ele>
        <time>2025-07-15T16:58:09Z</time>
      </trkpt>
      <trkpt lat="43.79685" lon="6.92373">
        <ele>1084</ele>
        <time>2025-07-15T16:58:11Z</time>
      </trkpt>
      <trkpt lat="43.79688" lon="6.92402">
        <ele>1082.8</ele>
        <time>2025-07-15T16:58:13Z</time>
      </trkpt>
      <trkpt lat="43.79693" lon="6.92435">
        <ele>1081.6</ele>
        <time>2025-07-15T16:58:15Z</time>
      </trkpt>
      <trkpt lat="43.79701" lon="6.92486">
        <ele>1079.8</ele>
        <time>2025-07-15T16:58:18Z</time>
      </trkpt>
      <trkpt lat="43.79705" lon="6.92507">
        <ele>1078.8</ele>
        <time>2025-07-15T16:58:19Z</time>
      </trkpt>
      <trkpt lat="43.79711" lon="6.92539">
        <ele>1077.2</ele>
        <time>2025-07-15T16:58:21Z</time>
      </trkpt>
      <trkpt lat="43.79717" lon="6.92574">
        <ele>1076</ele>
        <time>2025-07-15T16:58:23Z</time>
      </trkpt>
      <trkpt lat="43.79723" lon="6.9261">
        <ele>1074.6</ele>
        <time>2025-07-15T16:58:25Z</time>
      </trkpt>
      <trkpt lat="43.79725" lon="6.92627">
        <ele>1073.4</ele>
        <time>2025-07-15T16:58:26Z</time>
      </trkpt>
      <trkpt lat="43.79725" lon="6.92654">
        <ele>1072.2</ele>
        <time>2025-07-15T16:58:28Z</time>
      </trkpt>
      <trkpt lat="43.79721" lon="6.92672">
        <ele>1071.8</ele>
        <time>2025-07-15T16:58:29Z</time>
      </trkpt>
      <trkpt lat="43.79716" lon="6.92685">
        <ele>1070.8</ele>
        <time>2025-07-15T16:58:30Z</time>
      </trkpt>
      <trkpt lat="43.79703" lon="6.92707">
        <ele>1069</ele>
        <time>2025-07-15T16:58:32Z</time>
      </trkpt>
      <trkpt lat="43.79694" lon="6.92718">
        <ele>1067.8</ele>
        <time>2025-07-15T16:58:33Z</time>
      </trkpt>
      <trkpt lat="43.79686" lon="6.92729">
        <ele>1067.4</ele>
        <time>2025-07-15T16:58:34Z</time>
      </trkpt>
      <trkpt lat="43.79679" lon="6.92742">
        <ele>1066.2</ele>
        <time>2025-07-15T16:58:35Z</time>
      </trkpt>
      <trkpt lat="43.79674" lon="6.92755">
        <ele>1065.8</ele>
        <time>2025-07-15T16:58:36Z</time>
      </trkpt>
      <trkpt lat="43.7967" lon="6.9277">
        <ele>1064.8</ele>
        <time>2025-07-15T16:58:37Z</time>
      </trkpt>
      <trkpt lat="43.79667" lon="6.92786">
        <ele>1064.4</ele>
        <time>2025-07-15T16:58:38Z</time>
      </trkpt>
      <trkpt lat="43.79664" lon="6.92802">
        <ele>1063.4</ele>
        <time>2025-07-15T16:58:39Z</time>
      </trkpt>
      <trkpt lat="43.79662" lon="6.92818">
        <ele>1062.6</ele>
        <time>2025-07-15T16:58:40Z</time>
      </trkpt>
      <trkpt lat="43.79662" lon="6.92835">
        <ele>1062.2</ele>
        <time>2025-07-15T16:58:41Z</time>
      </trkpt>
      <trkpt lat="43.79662" lon="6.92852">
        <ele>1061.2</ele>
        <time>2025-07-15T16:58:42Z</time>
      </trkpt>
      <trkpt lat="43.79663" lon="6.92869">
        <ele>1060.8</ele>
        <time>2025-07-15T16:58:43Z</time>
      </trkpt>
      <trkpt lat="43.79667" lon="6.92884">
        <ele>1059.6</ele>
        <time>2025-07-15T16:58:44Z</time>
      </trkpt>
      <trkpt lat="43.79673" lon="6.92898">
        <ele>1059</ele>
        <time>2025-07-15T16:58:45Z</time>
      </trkpt>
      <trkpt lat="43.7968" lon="6.92912">
        <ele>1058.4</ele>
        <time>2025-07-15T16:58:46Z</time>
      </trkpt>
      <trkpt lat="43.79693" lon="6.92941">
        <ele>1057.2</ele>
        <time>2025-07-15T16:58:48Z</time>
      </trkpt>
      <trkpt lat="43.79703" lon="6.92971">
        <ele>1055.8</ele>
        <time>2025-07-15T16:58:50Z</time>
      </trkpt>
      <trkpt lat="43.79709" lon="6.92986">
        <ele>1054.8</ele>
        <time>2025-07-15T16:58:51Z</time>
      </trkpt>
      <trkpt lat="43.79721" lon="6.93016">
        <ele>1053.6</ele>
        <time>2025-07-15T16:58:53Z</time>
      </trkpt>
      <trkpt lat="43.79734" lon="6.93046">
        <ele>1052.2</ele>
        <time>2025-07-15T16:58:55Z</time>
      </trkpt>
      <trkpt lat="43.79743" lon="6.93077">
        <ele>1050.8</ele>
        <time>2025-07-15T16:58:57Z</time>
      </trkpt>
      <trkpt lat="43.79745" lon="6.93094">
        <ele>1049.8</ele>
        <time>2025-07-15T16:58:58Z</time>
      </trkpt>
      <trkpt lat="43.79746" lon="6.93127">
        <ele>1048.4</ele>
        <time>2025-07-15T16:59:00Z</time>
      </trkpt>
      <trkpt lat="43.79745" lon="6.93161">
        <ele>1047</ele>
        <time>2025-07-15T16:59:02Z</time>
      </trkpt>
      <trkpt lat="43.79746" lon="6.93178">
        <ele>1046</ele>
        <time>2025-07-15T16:59:03Z</time>
      </trkpt>
      <trkpt lat="43.79752" lon="6.9321">
        <ele>1044.6</ele>
        <time>2025-07-15T16:59:05Z</time>
      </trkpt>
      <trkpt lat="43.79764" lon="6.93238">
        <ele>1043.2</ele>
        <time>2025-07-15T16:59:07Z</time>
      </trkpt>
      <trkpt lat="43.79772" lon="6.93252">
        <ele>1042.6</ele>
        <time>2025-07-15T16:59:08Z</time>
      </trkpt>
      <trkpt lat="43.7978" lon="6.93265">
        <ele>1041.4</ele>
        <time>2025-07-15T16:59:09Z</time>
      </trkpt>
      <trkpt lat="43.79787" lon="6.93279">
        <ele>1041</ele>
        <time>2025-07-15T16:59:10Z</time>
      </trkpt>
      <trkpt lat="43.79792" lon="6.93295">
        <ele>1040.2</ele>
        <time>2025-07-15T16:59:11Z</time>
      </trkpt>
      <trkpt lat="43.79803" lon="6.93345">
        <ele>1037.6</ele>
        <time>2025-07-15T16:59:14Z</time>
      </trkpt>
      <trkpt lat="43.79811" lon="6.93377">
        <ele>1035.8</ele>
        <time>2025-07-15T16:59:16Z</time>
      </trkpt>
      <trkpt lat="43.7982" lon="6.9341">
        <ele>1034.8</ele>
        <time>2025-07-15T16:59:18Z</time>
      </trkpt>
      <trkpt lat="43.79825" lon="6.93426">
        <ele>1033.6</ele>
        <time>2025-07-15T16:59:19Z</time>
      </trkpt>
      <trkpt lat="43.79834" lon="6.93457">
        <ele>1032.6</ele>
        <time>2025-07-15T16:59:21Z</time>
      </trkpt>
      <trkpt lat="43.79837" lon="6.93491">
        <ele>1031.2</ele>
        <time>2025-07-15T16:59:23Z</time>
      </trkpt>
      <trkpt lat="43.79835" lon="6.93525">
        <ele>1029.6</ele>
        <time>2025-07-15T16:59:25Z</time>
      </trkpt>
      <trkpt lat="43.79833" lon="6.93541">
        <ele>1028.6</ele>
        <time>2025-07-15T16:59:26Z</time>
      </trkpt>
      <trkpt lat="43.79831" lon="6.93557">
        <ele>1028.2</ele>
        <time>2025-07-15T16:59:27Z</time>
      </trkpt>
      <trkpt lat="43.7983" lon="6.93574">
        <ele>1027</ele>
        <time>2025-07-15T16:59:28Z</time>
      </trkpt>
      <trkpt lat="43.7983" lon="6.93591">
        <ele>1026.6</ele>
        <time>2025-07-15T16:59:29Z</time>
      </trkpt>
      <trkpt lat="43.79832" lon="6.93607">
        <ele>1025</ele>
        <time>2025-07-15T16:59:30Z</time>
      </trkpt>
      <trkpt lat="43.79839" lon="6.93639">
        <ele>1023.2</ele>
        <time>2025-07-15T16:59:32Z</time>
      </trkpt>
      <trkpt lat="43.79844" lon="6.93672">
        <ele>1021.4</ele>
        <time>2025-07-15T16:59:34Z</time>
      </trkpt>
      <trkpt lat="43.79847" lon="6.93689">
        <ele>1020.4</ele>
        <time>2025-07-15T16:59:35Z</time>
      </trkpt>
      <trkpt lat="43.79849" lon="6.93724">
        <ele>1018.8</ele>
        <time>2025-07-15T16:59:37Z</time>
      </trkpt>
      <trkpt lat="43.79854" lon="6.93758">
        <ele>1017.4</ele>
        <time>2025-07-15T16:59:39Z</time>
      </trkpt>
      <trkpt lat="43.79857" lon="6.93775">
        <ele>1016.8</ele>
        <time>2025-07-15T16:59:40Z</time>
      </trkpt>
      <trkpt lat="43.79862" lon="6.93791">
        <ele>1015.8</ele>
        <time>2025-07-15T16:59:41Z</time>
      </trkpt>
      <trkpt lat="43.79867" lon="6.93807">
        <ele>1014.6</ele>
        <time>2025-07-15T16:59:42Z</time>
      </trkpt>
      <trkpt lat="43.79872" lon="6.93824">
        <ele>1014.2</ele>
        <time>2025-07-15T16:59:43Z</time>
      </trkpt>
      <trkpt lat="43.79877" lon="6.9384">
        <ele>1013.4</ele>
        <time>2025-07-15T16:59:44Z</time>
      </trkpt>
      <trkpt lat="43.79888" lon="6.93872">
        <ele>1011.6</ele>
        <time>2025-07-15T16:59:46Z</time>
      </trkpt>
      <trkpt lat="43.79898" lon="6.93903">
        <ele>1010.4</ele>
        <time>2025-07-15T16:59:48Z</time>
      </trkpt>
      <trkpt lat="43.79902" lon="6.93918">
        <ele>1009.4</ele>
        <time>2025-07-15T16:59:49Z</time>
      </trkpt>
      <trkpt lat="43.79905" lon="6.93934">
        <ele>1009</ele>
        <time>2025-07-15T16:59:50Z</time>
      </trkpt>
      <trkpt lat="43.79904" lon="6.93949">
        <ele>1008.2</ele>
        <time>2025-07-15T16:59:51Z</time>
      </trkpt>
      <trkpt lat="43.799" lon="6.93964">
        <ele>1007.8</ele>
        <time>2025-07-15T16:59:52Z</time>
      </trkpt>
      <trkpt lat="43.79895" lon="6.93977">
        <ele>1006.4</ele>
        <time>2025-07-15T16:59:53Z</time>
      </trkpt>
      <trkpt lat="43.79885" lon="6.94005">
        <ele>1005</ele>
        <time>2025-07-15T16:59:55Z</time>
      </trkpt>
      <trkpt lat="43.79874" lon="6.94033">
        <ele>1004</ele>
        <time>2025-07-15T16:59:57Z</time>
      </trkpt>
      <trkpt lat="43.79869" lon="6.94047">
        <ele>1003</ele>
        <time>2025-07-15T16:59:58Z</time>
      </trkpt>
      <trkpt lat="43.79855" lon="6.94074">
        <ele>1001.6</ele>
        <time>2025-07-15T17:00:00Z</time>
      </trkpt>
      <trkpt lat="43.79841" lon="6.941">
        <ele>999.8</ele>
        <time>2025-07-15T17:00:02Z</time>
      </trkpt>
      <trkpt lat="43.79828" lon="6.94129">
        <ele>998.2</ele>
        <time>2025-07-15T17:00:04Z</time>
      </trkpt>
      <trkpt lat="43.79824" lon="6.94144">
        <ele>997.4</ele>
        <time>2025-07-15T17:00:05Z</time>
      </trkpt>
      <trkpt lat="43.79819" lon="6.9416">
        <ele>997</ele>
        <time>2025-07-15T17:00:06Z</time>
      </trkpt>
      <trkpt lat="43.79814" lon="6.94175">
        <ele>996.4</ele>
        <time>2025-07-15T17:00:07Z</time>
      </trkpt>
      <trkpt lat="43.79798" lon="6.942">
        <ele>995</ele>
        <time>2025-07-15T17:00:09Z</time>
      </trkpt>
      <trkpt lat="43.79778" lon="6.94215">
        <ele>993.4</ele>
        <time>2025-07-15T17:00:11Z</time>
      </trkpt>
      <trkpt lat="43.7977" lon="6.94225">
        <ele>992.6</ele>
        <time>2025-07-15T17:00:12Z</time>
      </trkpt>
      <trkpt lat="43.79765" lon="6.94237">
        <ele>991.8</ele>
        <time>2025-07-15T17:00:13Z</time>
      </trkpt>
      <trkpt lat="43.79762" lon="6.94251">
        <ele>990.8</ele>
        <time>2025-07-15T17:00:14Z</time>
      </trkpt>
      <trkpt lat="43.79761" lon="6.94266">
        <ele>990.2</ele>
        <time>2025-07-15T17:00:15Z</time>
      </trkpt>
      <trkpt lat="43.79761" lon="6.94281">
        <ele>989.4</ele>
        <time>2025-07-15T17:00:16Z</time>
      </trkpt>
      <trkpt lat="43.7976" lon="6.94312">
        <ele>988.4</ele>
        <time>2025-07-15T17:00:18Z</time>
      </trkpt>
      <trkpt lat="43.79757" lon="6.94356">
        <ele>986.2</ele>
        <time>2025-07-15T17:00:21Z</time>
      </trkpt>
      <trkpt lat="43.7976" lon="6.94381">
        <ele>984.4</ele>
        <time>2025-07-15T17:00:23Z</time>
      </trkpt>
      <trkpt lat="43.7976" lon="6.9439">
        <ele>983.8</ele>
        <time>2025-07-15T17:00:24Z</time>
      </trkpt>
      <trkpt lat="43.79759" lon="6.94398">
        <ele>983</ele>
        <time>2025-07-15T17:00:25Z</time>
      </trkpt>
      <trkpt lat="43.79756" lon="6.94403">
        <ele>982.4</ele>
        <time>2025-07-15T17:00:26Z</time>
      </trkpt>
      <trkpt lat="43.79752" lon="6.94404">
        <ele>981.8</ele>
        <time>2025-07-15T17:00:27Z</time>
      </trkpt>
      <trkpt lat="43.79748" lon="6.94401">
        <ele>980.8</ele>
        <time>2025-07-15T17:00:28Z</time>
      </trkpt>
      <trkpt lat="43.79748" lon="6.94386">
        <ele>980</ele>
        <time>2025-07-15T17:00:30Z</time>
      </trkpt>
      <trkpt lat="43.79749" lon="6.94381">
        <ele>979.2</ele>
        <time>2025-07-15T17:00:31Z</time>
      </trkpt>
      <trkpt lat="43.79749" lon="6.94378">
        <ele>978.4</ele>
        <time>2025-07-15T17:00:32Z</time>
      </trkpt>
      <trkpt lat="43.79749" lon="6.94378">
        <ele>978</ele>
        <time>2025-07-15T17:00:33Z</time>
      </trkpt>
      <trkpt lat="43.79749" lon="6.94378">
        <ele>977</ele>
        <time>2025-07-15T17:00:34Z</time>
      </trkpt>
      <trkpt lat="43.7975" lon="6.94356">
        <ele>975.6</ele>
        <time>2025-07-15T17:02:44Z</time>
      </trkpt>
      <trkpt lat="43.79749" lon="6.94346">
        <ele>975.6</ele>
        <time>2025-07-15T17:02:46Z</time>
      </trkpt>
      <trkpt lat="43.79748" lon="6.94324">
        <ele>975.2</ele>
        <time>2025-07-15T17:02:49Z</time>
      </trkpt>
      <trkpt lat="43.79747" lon="6.94316">
        <ele>975</ele>
        <time>2025-07-15T17:02:50Z</time>
      </trkpt>
      <trkpt lat="43.79743" lon="6.94298">
        <ele>974.4</ele>
        <time>2025-07-15T17:02:52Z</time>
      </trkpt>
      <trkpt lat="43.79741" lon="6.94288">
        <ele>974.4</ele>
        <time>2025-07-15T17:02:54Z</time>
      </trkpt>
      <trkpt lat="43.79739" lon="6.94267">
        <ele>973.8</ele>
        <time>2025-07-15T17:02:55Z</time>
      </trkpt>
      <trkpt lat="43.79738" lon="6.94255">
        <ele>973.6</ele>
        <time>2025-07-15T17:02:56Z</time>
      </trkpt>
      <trkpt lat="43.79739" lon="6.94243">
        <ele>973.2</ele>
        <time>2025-07-15T17:02:57Z</time>
      </trkpt>
      <trkpt lat="43.79741" lon="6.94203">
        <ele>972.2</ele>
        <time>2025-07-15T17:03:00Z</time>
      </trkpt>
      <trkpt lat="43.79744" lon="6.94175">
        <ele>971.8</ele>
        <time>2025-07-15T17:03:02Z</time>
      </trkpt>
      <trkpt lat="43.7975" lon="6.94147">
        <ele>971</ele>
        <time>2025-07-15T17:03:04Z</time>
      </trkpt>
      <trkpt lat="43.79755" lon="6.9412">
        <ele>970</ele>
        <time>2025-07-15T17:03:06Z</time>
      </trkpt>
      <trkpt lat="43.79757" lon="6.94106">
        <ele>969.2</ele>
        <time>2025-07-15T17:03:07Z</time>
      </trkpt>
      <trkpt lat="43.79758" lon="6.94081">
        <ele>968.4</ele>
        <time>2025-07-15T17:03:09Z</time>
      </trkpt>
      <trkpt lat="43.79761" lon="6.94043">
        <ele>967.4</ele>
        <time>2025-07-15T17:03:12Z</time>
      </trkpt>
      <trkpt lat="43.79763" lon="6.9403">
        <ele>966.2</ele>
        <time>2025-07-15T17:03:13Z</time>
      </trkpt>
      <trkpt lat="43.79771" lon="6.94006">
        <ele>964.8</ele>
        <time>2025-07-15T17:03:15Z</time>
      </trkpt>
      <trkpt lat="43.79775" lon="6.93995">
        <ele>964</ele>
        <time>2025-07-15T17:03:16Z</time>
      </trkpt>
      <trkpt lat="43.7978" lon="6.93984">
        <ele>963.6</ele>
        <time>2025-07-15T17:03:17Z</time>
      </trkpt>
      <trkpt lat="43.79787" lon="6.93963">
        <ele>963</ele>
        <time>2025-07-15T17:03:19Z</time>
      </trkpt>
      <trkpt lat="43.79788" lon="6.93952">
        <ele>963</ele>
        <time>2025-07-15T17:03:20Z</time>
      </trkpt>
      <trkpt lat="43.79789" lon="6.9394">
        <ele>962.2</ele>
        <time>2025-07-15T17:03:21Z</time>
      </trkpt>
      <trkpt lat="43.79787" lon="6.93915">
        <ele>961</ele>
        <time>2025-07-15T17:03:23Z</time>
      </trkpt>
      <trkpt lat="43.79786" lon="6.93901">
        <ele>960.8</ele>
        <time>2025-07-15T17:03:24Z</time>
      </trkpt>
      <trkpt lat="43.79783" lon="6.93877">
        <ele>960</ele>
        <time>2025-07-15T17:03:26Z</time>
      </trkpt>
      <trkpt lat="43.79774" lon="6.93857">
        <ele>958.6</ele>
        <time>2025-07-15T17:03:28Z</time>
      </trkpt>
      <trkpt lat="43.79759" lon="6.93846">
        <ele>957.4</ele>
        <time>2025-07-15T17:03:30Z</time>
      </trkpt>
      <trkpt lat="43.79749" lon="6.93845">
        <ele>957</ele>
        <time>2025-07-15T17:03:31Z</time>
      </trkpt>
      <trkpt lat="43.7974" lon="6.93847">
        <ele>956.4</ele>
        <time>2025-07-15T17:03:32Z</time>
      </trkpt>
      <trkpt lat="43.79731" lon="6.93851">
        <ele>956.4</ele>
        <time>2025-07-15T17:03:33Z</time>
      </trkpt>
      <trkpt lat="43.79723" lon="6.93857">
        <ele>955.8</ele>
        <time>2025-07-15T17:03:34Z</time>
      </trkpt>
      <trkpt lat="43.79717" lon="6.93865">
        <ele>955.2</ele>
        <time>2025-07-15T17:03:35Z</time>
      </trkpt>
      <trkpt lat="43.79711" lon="6.93874">
        <ele>955</ele>
        <time>2025-07-15T17:03:36Z</time>
      </trkpt>
      <trkpt lat="43.79708" lon="6.93885">
        <ele>954.2</ele>
        <time>2025-07-15T17:03:37Z</time>
      </trkpt>
      <trkpt lat="43.79705" lon="6.93898">
        <ele>953.8</ele>
        <time>2025-07-15T17:03:38Z</time>
      </trkpt>
      <trkpt lat="43.79705" lon="6.93911">
        <ele>952.8</ele>
        <time>2025-07-15T17:03:39Z</time>
      </trkpt>
      <trkpt lat="43.79705" lon="6.93924">
        <ele>952.6</ele>
        <time>2025-07-15T17:03:40Z</time>
      </trkpt>
      <trkpt lat="43.79707" lon="6.93937">
        <ele>951.6</ele>
        <time>2025-07-15T17:03:41Z</time>
      </trkpt>
      <trkpt lat="43.79711" lon="6.93974">
        <ele>950</ele>
        <time>2025-07-15T17:03:44Z</time>
      </trkpt>
      <trkpt lat="43.79714" lon="6.93999">
        <ele>948.6</ele>
        <time>2025-07-15T17:03:46Z</time>
      </trkpt>
      <trkpt lat="43.79715" lon="6.94011">
        <ele>948.6</ele>
        <time>2025-07-15T17:03:47Z</time>
      </trkpt>
      <trkpt lat="43.79715" lon="6.94023">
        <ele>947.8</ele>
        <time>2025-07-15T17:03:48Z</time>
      </trkpt>
      <trkpt lat="43.79714" lon="6.94046">
        <ele>946.8</ele>
        <time>2025-07-15T17:03:50Z</time>
      </trkpt>
      <trkpt lat="43.79713" lon="6.94056">
        <ele>946</ele>
        <time>2025-07-15T17:03:51Z</time>
      </trkpt>
      <trkpt lat="43.79712" lon="6.94066">
        <ele>945.6</ele>
        <time>2025-07-15T17:03:52Z</time>
      </trkpt>
      <trkpt lat="43.79709" lon="6.94086">
        <ele>944.6</ele>
        <time>2025-07-15T17:03:54Z</time>
      </trkpt>
      <trkpt lat="43.79704" lon="6.94106">
        <ele>943.2</ele>
        <time>2025-07-15T17:03:56Z</time>
      </trkpt>
      <trkpt lat="43.79698" lon="6.94128">
        <ele>942.2</ele>
        <time>2025-07-15T17:03:58Z</time>
      </trkpt>
      <trkpt lat="43.79694" lon="6.94138">
        <ele>941.6</ele>
        <time>2025-07-15T17:03:59Z</time>
      </trkpt>
      <trkpt lat="43.7969" lon="6.94147">
        <ele>940.8</ele>
        <time>2025-07-15T17:04:00Z</time>
      </trkpt>
      <trkpt lat="43.79686" lon="6.94156">
        <ele>940.4</ele>
        <time>2025-07-15T17:04:01Z</time>
      </trkpt>
      <trkpt lat="43.79681" lon="6.94163">
        <ele>939.6</ele>
        <time>2025-07-15T17:04:02Z</time>
      </trkpt>
      <trkpt lat="43.79673" lon="6.94175">
        <ele>938.4</ele>
        <time>2025-07-15T17:04:04Z</time>
      </trkpt>
      <trkpt lat="43.7967" lon="6.94179">
        <ele>938.2</ele>
        <time>2025-07-15T17:04:05Z</time>
      </trkpt>
      <trkpt lat="43.79663" lon="6.94184">
        <ele>936.6</ele>
        <time>2025-07-15T17:04:07Z</time>
      </trkpt>
      <trkpt lat="43.79659" lon="6.94187">
        <ele>935.6</ele>
        <time>2025-07-15T17:04:09Z</time>
      </trkpt>
      <trkpt lat="43.79657" lon="6.9419">
        <ele>935.4</ele>
        <time>2025-07-15T17:04:10Z</time>
      </trkpt>
      <trkpt lat="43.79658" lon="6.94196">
        <ele>934.4</ele>
        <time>2025-07-15T17:04:12Z</time>
      </trkpt>
      <trkpt lat="43.79664" lon="6.94198">
        <ele>933.4</ele>
        <time>2025-07-15T17:04:15Z</time>
      </trkpt>
      <trkpt lat="43.79664" lon="6.94196">
        <ele>933.4</ele>
        <time>2025-07-15T17:04:16Z</time>
      </trkpt>
      <trkpt lat="43.79665" lon="6.94194">
        <ele>933.4</ele>
        <time>2025-07-15T17:04:17Z</time>
      </trkpt>
      <trkpt lat="43.79662" lon="6.9419">
        <ele>933.4</ele>
        <time>2025-07-15T17:04:19Z</time>
      </trkpt>
      <trkpt lat="43.7966" lon="6.94197">
        <ele>933.2</ele>
        <time>2025-07-15T17:04:22Z</time>
      </trkpt>
      <trkpt lat="43.79661" lon="6.94199">
        <ele>933.2</ele>
        <time>2025-07-15T17:04:23Z</time>
      </trkpt>
      <trkpt lat="43.79664" lon="6.94205">
        <ele>933.2</ele>
        <time>2025-07-15T17:04:25Z</time>
      </trkpt>
      <trkpt lat="43.79664" lon="6.94208">
        <ele>933.2</ele>
        <time>2025-07-15T17:04:26Z</time>
      </trkpt>
      <trkpt lat="43.79659" lon="6.94229">
        <ele>934</ele>
        <time>2025-07-15T17:04:33Z</time>
      </trkpt>
      <trkpt lat="43.79656" lon="6.94239">
        <ele>934.8</ele>
        <time>2025-07-15T17:04:36Z</time>
      </trkpt>
      <trkpt lat="43.79652" lon="6.94256">
        <ele>936</ele>
        <time>2025-07-15T17:04:41Z</time>
      </trkpt>
      <trkpt lat="43.79652" lon="6.94259">
        <ele>936</ele>
        <time>2025-07-15T17:04:42Z</time>
      </trkpt>
      <trkpt lat="43.79649" lon="6.94273">
        <ele>937.2</ele>
        <time>2025-07-15T17:04:46Z</time>
      </trkpt>
      <trkpt lat="43.79642" lon="6.9429">
        <ele>938</ele>
        <time>2025-07-15T17:04:51Z</time>
      </trkpt>
      <trkpt lat="43.7964" lon="6.94298">
        <ele>938.4</ele>
        <time>2025-07-15T17:04:53Z</time>
      </trkpt>
      <trkpt lat="43.79633" lon="6.94315">
        <ele>939.6</ele>
        <time>2025-07-15T17:04:58Z</time>
      </trkpt>
      <trkpt lat="43.79628" lon="6.94328">
        <ele>941</ele>
        <time>2025-07-15T17:05:02Z</time>
      </trkpt>
      <trkpt lat="43.79624" lon="6.94345">
        <ele>941.6</ele>
        <time>2025-07-15T17:05:07Z</time>
      </trkpt>
      <trkpt lat="43.79621" lon="6.94356">
        <ele>942</ele>
        <time>2025-07-15T17:05:10Z</time>
      </trkpt>
      <trkpt lat="43.79618" lon="6.94367">
        <ele>942.2</ele>
        <time>2025-07-15T17:05:13Z</time>
      </trkpt>
      <trkpt lat="43.79617" lon="6.94369">
        <ele>942.2</ele>
        <time>2025-07-15T17:05:14Z</time>
      </trkpt>
      <trkpt lat="43.79618" lon="6.94374">
        <ele>942.4</ele>
        <time>2025-07-15T17:05:16Z</time>
      </trkpt>
      <trkpt lat="43.79622" lon="6.94371">
        <ele>942.4</ele>
        <time>2025-07-15T17:05:19Z</time>
      </trkpt>
      <trkpt lat="43.79625" lon="6.94361">
        <ele>942.4</ele>
        <time>2025-07-15T17:05:25Z</time>
      </trkpt>
      <trkpt lat="43.79625" lon="6.94361">
        <ele>942.4</ele>
        <time>2025-07-15T17:05:26Z</time>
      </trkpt>
      <trkpt lat="43.79622" lon="6.94352">
        <ele>941.2</ele>
        <time>2025-07-15T17:05:49Z</time>
      </trkpt>
      <trkpt lat="43.79621" lon="6.94348">
        <ele>941.2</ele>
        <time>2025-07-15T17:05:51Z</time>
      </trkpt>
      <trkpt lat="43.79619" lon="6.94346">
        <ele>941.2</ele>
        <time>2025-07-15T17:05:52Z</time>
      </trkpt>
      <trkpt lat="43.79617" lon="6.94346">
        <ele>941.2</ele>
        <time>2025-07-15T17:05:55Z</time>
      </trkpt>
      <trkpt lat="43.79616" lon="6.94345">
        <ele>941.4</ele>
        <time>2025-07-15T17:05:56Z</time>
      </trkpt>
      <trkpt lat="43.79616" lon="6.94345">
        <ele>941.4</ele>
        <time>2025-07-15T17:05:58Z</time>
      </trkpt>
      <trkpt lat="43.79615" lon="6.94338">
        <ele>940.6</ele>
        <time>2025-07-15T17:08:48Z</time>
      </trkpt>
      <trkpt lat="43.79614" lon="6.94335">
        <ele>940.6</ele>
        <time>2025-07-15T17:08:49Z</time>
      </trkpt>
      <trkpt lat="43.79613" lon="6.94332">
        <ele>940.4</ele>
        <time>2025-07-15T17:08:50Z</time>
      </trkpt>
      <trkpt lat="43.7961" lon="6.94323">
        <ele>940.4</ele>
        <time>2025-07-15T17:08:53Z</time>
      </trkpt>
      <trkpt lat="43.79607" lon="6.94321">
        <ele>940</ele>
        <time>2025-07-15T17:08:55Z</time>
      </trkpt>
      <trkpt lat="43.79606" lon="6.9432">
        <ele>939.8</ele>
        <time>2025-07-15T17:08:57Z</time>
      </trkpt>
      <trkpt lat="43.79605" lon="6.94319">
        <ele>939.4</ele>
        <time>2025-07-15T17:08:58Z</time>
      </trkpt>
      <trkpt lat="43.79604" lon="6.94318">
        <ele>939.4</ele>
        <time>2025-07-15T17:08:59Z</time>
      </trkpt>
      <trkpt lat="43.79601" lon="6.94316">
        <ele>938.8</ele>
        <time>2025-07-15T17:09:02Z</time>
      </trkpt>
      <trkpt lat="43.79599" lon="6.94316">
        <ele>938.6</ele>
        <time>2025-07-15T17:09:03Z</time>
      </trkpt>
      <trkpt lat="43.79592" lon="6.94317">
        <ele>938.2</ele>
        <time>2025-07-15T17:09:06Z</time>
      </trkpt>
      <trkpt lat="43.79592" lon="6.94314">
        <ele>937.8</ele>
        <time>2025-07-15T17:09:09Z</time>
      </trkpt>
      <trkpt lat="43.79591" lon="6.9431">
        <ele>937.4</ele>
        <time>2025-07-15T17:09:11Z</time>
      </trkpt>
      <trkpt lat="43.7959" lon="6.94306">
        <ele>937</ele>
        <time>2025-07-15T17:09:14Z</time>
      </trkpt>
      <trkpt lat="43.7959" lon="6.94305">
        <ele>937</ele>
        <time>2025-07-15T17:09:15Z</time>
      </trkpt>
      <trkpt lat="43.79589" lon="6.94303">
        <ele>936.6</ele>
        <time>2025-07-15T17:09:16Z</time>
      </trkpt>
      <trkpt lat="43.79589" lon="6.94294">
        <ele>936.2</ele>
        <time>2025-07-15T17:09:19Z</time>
      </trkpt>
      <trkpt lat="43.79589" lon="6.94288">
        <ele>936.2</ele>
        <time>2025-07-15T17:09:21Z</time>
      </trkpt>
      <trkpt lat="43.79588" lon="6.94281">
        <ele>936</ele>
        <time>2025-07-15T17:09:23Z</time>
      </trkpt>
      <trkpt lat="43.79589" lon="6.94266">
        <ele>935.8</ele>
        <time>2025-07-15T17:09:27Z</time>
      </trkpt>
      <trkpt lat="43.79589" lon="6.94263">
        <ele>935.8</ele>
        <time>2025-07-15T17:09:29Z</time>
      </trkpt>
      <trkpt lat="43.79591" lon="6.94251">
        <ele>935.6</ele>
        <time>2025-07-15T17:09:32Z</time>
      </trkpt>
      <trkpt lat="43.7959" lon="6.94249">
        <ele>935.4</ele>
        <time>2025-07-15T17:09:33Z</time>
      </trkpt>
      <trkpt lat="43.79586" lon="6.94245">
        <ele>935.2</ele>
        <time>2025-07-15T17:09:37Z</time>
      </trkpt>
      <trkpt lat="43.79587" lon="6.94237">
        <ele>935</ele>
        <time>2025-07-15T17:09:39Z</time>
      </trkpt>
      <trkpt lat="43.79595" lon="6.94219">
        <ele>934.8</ele>
        <time>2025-07-15T17:09:44Z</time>
      </trkpt>
      <trkpt lat="43.79597" lon="6.94213">
        <ele>934.6</ele>
        <time>2025-07-15T17:09:46Z</time>
      </trkpt>
      <trkpt lat="43.79596" lon="6.94208">
        <ele>934.4</ele>
        <time>2025-07-15T17:09:48Z</time>
      </trkpt>
      <trkpt lat="43.79589" lon="6.94211">
        <ele>933.4</ele>
        <time>2025-07-15T17:09:51Z</time>
      </trkpt>
      <trkpt lat="43.79586" lon="6.94213">
        <ele>933.2</ele>
        <time>2025-07-15T17:09:52Z</time>
      </trkpt>
      <trkpt lat="43.79582" lon="6.9422">
        <ele>932.2</ele>
        <time>2025-07-15T17:09:56Z</time>
      </trkpt>
      <trkpt lat="43.79582" lon="6.9422">
        <ele>931.8</ele>
        <time>2025-07-15T17:09:58Z</time>
      </trkpt>
      <trkpt lat="43.79579" lon="6.94227">
        <ele>930.8</ele>
        <time>2025-07-15T17:10:07Z</time>
      </trkpt>
      <trkpt lat="43.79579" lon="6.9423">
        <ele>930.8</ele>
        <time>2025-07-15T17:10:08Z</time>
      </trkpt>
      <trkpt lat="43.79574" lon="6.94247">
        <ele>931</ele>
        <time>2025-07-15T17:10:13Z</time>
      </trkpt>
      <trkpt lat="43.79572" lon="6.94261">
        <ele>931.8</ele>
        <time>2025-07-15T17:10:18Z</time>
      </trkpt>
      <trkpt lat="43.79571" lon="6.94263">
        <ele>932</ele>
        <time>2025-07-15T17:10:19Z</time>
      </trkpt>
      <trkpt lat="43.79569" lon="6.94267">
        <ele>932.4</ele>
        <time>2025-07-15T17:10:21Z</time>
      </trkpt>
      <trkpt lat="43.79568" lon="6.9427">
        <ele>932.4</ele>
        <time>2025-07-15T17:10:22Z</time>
      </trkpt>
      <trkpt lat="43.79567" lon="6.94273">
        <ele>932.6</ele>
        <time>2025-07-15T17:10:23Z</time>
      </trkpt>
      <trkpt lat="43.79564" lon="6.94283">
        <ele>932.8</ele>
        <time>2025-07-15T17:10:26Z</time>
      </trkpt>
      <trkpt lat="43.7956" lon="6.94292">
        <ele>933.2</ele>
        <time>2025-07-15T17:10:29Z</time>
      </trkpt>
      <trkpt lat="43.79554" lon="6.94305">
        <ele>933.4</ele>
        <time>2025-07-15T17:10:33Z</time>
      </trkpt>
      <trkpt lat="43.79552" lon="6.94319">
        <ele>933.4</ele>
        <time>2025-07-15T17:10:37Z</time>
      </trkpt>
      <trkpt lat="43.79556" lon="6.94324">
        <ele>933.2</ele>
        <time>2025-07-15T17:10:38Z</time>
      </trkpt>
      <trkpt lat="43.79563" lon="6.94335">
        <ele>933.4</ele>
        <time>2025-07-15T17:10:40Z</time>
      </trkpt>
      <trkpt lat="43.79564" lon="6.94345">
        <ele>933.2</ele>
        <time>2025-07-15T17:10:42Z</time>
      </trkpt>
      <trkpt lat="43.79564" lon="6.9435">
        <ele>933.2</ele>
        <time>2025-07-15T17:10:43Z</time>
      </trkpt>
      <trkpt lat="43.7956" lon="6.94356">
        <ele>933.2</ele>
        <time>2025-07-15T17:10:44Z</time>
      </trkpt>
      <trkpt lat="43.79555" lon="6.94361">
        <ele>933</ele>
        <time>2025-07-15T17:10:45Z</time>
      </trkpt>
      <trkpt lat="43.7955" lon="6.94366">
        <ele>933</ele>
        <time>2025-07-15T17:10:46Z</time>
      </trkpt>
      <trkpt lat="43.79543" lon="6.94375">
        <ele>932.6</ele>
        <time>2025-07-15T17:10:48Z</time>
      </trkpt>
      <trkpt lat="43.79539" lon="6.94378">
        <ele>932.4</ele>
        <time>2025-07-15T17:10:49Z</time>
      </trkpt>
      <trkpt lat="43.79537" lon="6.94381">
        <ele>932</ele>
        <time>2025-07-15T17:10:51Z</time>
      </trkpt>
      <trkpt lat="43.79538" lon="6.94383">
        <ele>931.4</ele>
        <time>2025-07-15T17:10:55Z</time>
      </trkpt>
      <trkpt lat="43.79559" lon="6.94391">
        <ele>933.2</ele>
        <time>2025-07-15T18:35:11Z</time>
      </trkpt>
      <trkpt lat="43.79558" lon="6.94395">
        <ele>933.4</ele>
        <time>2025-07-15T18:35:14Z</time>
      </trkpt>
      <trkpt lat="43.7956" lon="6.944">
        <ele>933.4</ele>
        <time>2025-07-15T18:35:21Z</time>
      </trkpt>
      <trkpt lat="43.7956" lon="6.944">
        <ele>933.4</ele>
        <time>2025-07-15T18:35:23Z</time>
      </trkpt>
      <trkpt lat="43.79561" lon="6.94395">
        <ele>933.8</ele>
        <time>2025-07-15T18:38:55Z</time>
      </trkpt>
      <trkpt lat="43.7956" lon="6.94391">
        <ele>933.8</ele>
        <time>2025-07-15T18:38:56Z</time>
      </trkpt>
      <trkpt lat="43.79558" lon="6.94389">
        <ele>933.8</ele>
        <time>2025-07-15T18:38:57Z</time>
      </trkpt>
      <trkpt lat="43.79552" lon="6.94386">
        <ele>933.4</ele>
        <time>2025-07-15T18:38:59Z</time>
      </trkpt>
      <trkpt lat="43.79546" lon="6.94385">
        <ele>933</ele>
        <time>2025-07-15T18:39:02Z</time>
      </trkpt>
      <trkpt lat="43.79546" lon="6.94385">
        <ele>932.8</ele>
        <time>2025-07-15T18:39:04Z</time>
      </trkpt>
      <trkpt lat="43.79546" lon="6.94385">
        <ele>932.6</ele>
        <time>2025-07-15T18:39:05Z</time>
      </trkpt>
      <trkpt lat="43.79546" lon="6.94385">
        <ele>932.2</ele>
        <time>2025-07-15T18:39:06Z</time>
      </trkpt>
      <trkpt lat="43.79545" lon="6.94381">
        <ele>930.8</ele>
        <time>2025-07-15T18:41:31Z</time>
      </trkpt>
      <trkpt lat="43.79544" lon="6.94376">
        <ele>930.8</ele>
        <time>2025-07-15T18:41:33Z</time>
      </trkpt>
      <trkpt lat="43.79541" lon="6.94368">
        <ele>931</ele>
        <time>2025-07-15T18:41:36Z</time>
      </trkpt>
      <trkpt lat="43.79542" lon="6.94364">
        <ele>931.2</ele>
        <time>2025-07-15T18:41:38Z</time>
      </trkpt>
      <trkpt lat="43.79544" lon="6.94351">
        <ele>931.4</ele>
        <time>2025-07-15T18:41:42Z</time>
      </trkpt>
      <trkpt lat="43.79544" lon="6.94349">
        <ele>931.4</ele>
        <time>2025-07-15T18:41:43Z</time>
      </trkpt>
      <trkpt lat="43.79546" lon="6.94331">
        <ele>931.8</ele>
        <time>2025-07-15T18:41:48Z</time>
      </trkpt>
      <trkpt lat="43.79546" lon="6.94328">
        <ele>931.8</ele>
        <time>2025-07-15T18:41:49Z</time>
      </trkpt>
      <trkpt lat="43.79547" lon="6.94318">
        <ele>932</ele>
        <time>2025-07-15T18:41:52Z</time>
      </trkpt>
      <trkpt lat="43.79549" lon="6.9431">
        <ele>932.4</ele>
        <time>2025-07-15T18:41:54Z</time>
      </trkpt>
      <trkpt lat="43.79556" lon="6.94291">
        <ele>933</ele>
        <time>2025-07-15T18:41:59Z</time>
      </trkpt>
      <trkpt lat="43.79562" lon="6.94279">
        <ele>933.2</ele>
        <time>2025-07-15T18:42:03Z</time>
      </trkpt>
      <trkpt lat="43.79563" lon="6.94276">
        <ele>933.2</ele>
        <time>2025-07-15T18:42:04Z</time>
      </trkpt>
      <trkpt lat="43.79571" lon="6.94253">
        <ele>933.2</ele>
        <time>2025-07-15T18:42:09Z</time>
      </trkpt>
      <trkpt lat="43.79573" lon="6.94241">
        <ele>932.8</ele>
        <time>2025-07-15T18:42:12Z</time>
      </trkpt>
      <trkpt lat="43.79574" lon="6.94234">
        <ele>932.6</ele>
        <time>2025-07-15T18:42:14Z</time>
      </trkpt>
      <trkpt lat="43.79577" lon="6.94219">
        <ele>932</ele>
        <time>2025-07-15T18:42:19Z</time>
      </trkpt>
      <trkpt lat="43.79579" lon="6.94211">
        <ele>931.4</ele>
        <time>2025-07-15T18:42:22Z</time>
      </trkpt>
      <trkpt lat="43.79579" lon="6.94208">
        <ele>931</ele>
        <time>2025-07-15T18:42:27Z</time>
      </trkpt>
      <trkpt lat="43.79582" lon="6.942">
        <ele>930.8</ele>
        <time>2025-07-15T18:42:35Z</time>
      </trkpt>
      <trkpt lat="43.79584" lon="6.94194">
        <ele>930.8</ele>
        <time>2025-07-15T18:42:37Z</time>
      </trkpt>
      <trkpt lat="43.79592" lon="6.94185">
        <ele>930.2</ele>
        <time>2025-07-15T18:42:42Z</time>
      </trkpt>
      <trkpt lat="43.79598" lon="6.94185">
        <ele>929.8</ele>
        <time>2025-07-15T18:42:45Z</time>
      </trkpt>
      <trkpt lat="43.79602" lon="6.94186">
        <ele>929.6</ele>
        <time>2025-07-15T18:42:47Z</time>
      </trkpt>
      <trkpt lat="43.79603" lon="6.94185">
        <ele>929.6</ele>
        <time>2025-07-15T18:42:48Z</time>
      </trkpt>
      <trkpt lat="43.79606" lon="6.94181">
        <ele>929.4</ele>
        <time>2025-07-15T18:42:51Z</time>
      </trkpt>
      <trkpt lat="43.79606" lon="6.9418">
        <ele>929.4</ele>
        <time>2025-07-15T18:42:53Z</time>
      </trkpt>
      <trkpt lat="43.79608" lon="6.94176">
        <ele>929.2</ele>
        <time>2025-07-15T18:43:03Z</time>
      </trkpt>
      <trkpt lat="43.79608" lon="6.94176">
        <ele>929</ele>
        <time>2025-07-15T18:43:04Z</time>
      </trkpt>
      <trkpt lat="43.79608" lon="6.94176">
        <ele>929</ele>
        <time>2025-07-15T18:43:05Z</time>
      </trkpt>
      <trkpt lat="43.79607" lon="6.94173">
        <ele>928.4</ele>
        <time>2025-07-15T18:43:27Z</time>
      </trkpt>
      <trkpt lat="43.79603" lon="6.94174">
        <ele>928.4</ele>
        <time>2025-07-15T18:43:29Z</time>
      </trkpt>
      <trkpt lat="43.79598" lon="6.94181">
        <ele>928.4</ele>
        <time>2025-07-15T18:43:32Z</time>
      </trkpt>
      <trkpt lat="43.79599" lon="6.94183">
        <ele>928.6</ele>
        <time>2025-07-15T18:43:33Z</time>
      </trkpt>
      <trkpt lat="43.79609" lon="6.94188">
        <ele>928.8</ele>
        <time>2025-07-15T18:43:37Z</time>
      </trkpt>
      <trkpt lat="43.79623" lon="6.94193">
        <ele>929.6</ele>
        <time>2025-07-15T18:43:42Z</time>
      </trkpt>
      <trkpt lat="43.79625" lon="6.94194">
        <ele>929.8</ele>
        <time>2025-07-15T18:43:43Z</time>
      </trkpt>
      <trkpt lat="43.79642" lon="6.94195">
        <ele>930.6</ele>
        <time>2025-07-15T18:43:49Z</time>
      </trkpt>
      <trkpt lat="43.79647" lon="6.94194">
        <ele>931</ele>
        <time>2025-07-15T18:43:51Z</time>
      </trkpt>
      <trkpt lat="43.79655" lon="6.94197">
        <ele>931.6</ele>
        <time>2025-07-15T18:43:54Z</time>
      </trkpt>
      <trkpt lat="43.7966" lon="6.94203">
        <ele>932.2</ele>
        <time>2025-07-15T18:43:57Z</time>
      </trkpt>
      <trkpt lat="43.79661" lon="6.94211">
        <ele>932.8</ele>
        <time>2025-07-15T18:44:00Z</time>
      </trkpt>
      <trkpt lat="43.79659" lon="6.94219">
        <ele>933.4</ele>
        <time>2025-07-15T18:44:03Z</time>
      </trkpt>
      <trkpt lat="43.79659" lon="6.94222">
        <ele>933.8</ele>
        <time>2025-07-15T18:44:04Z</time>
      </trkpt>
      <trkpt lat="43.79655" lon="6.94235">
        <ele>934.6</ele>
        <time>2025-07-15T18:44:09Z</time>
      </trkpt>
      <trkpt lat="43.79654" lon="6.9424">
        <ele>935</ele>
        <time>2025-07-15T18:44:11Z</time>
      </trkpt>
      <trkpt lat="43.79654" lon="6.94242">
        <ele>935.2</ele>
        <time>2025-07-15T18:44:12Z</time>
      </trkpt>
      <trkpt lat="43.79653" lon="6.94242">
        <ele>935.4</ele>
        <time>2025-07-15T18:44:14Z</time>
      </trkpt>
      <trkpt lat="43.79653" lon="6.94243">
        <ele>935.8</ele>
        <time>2025-07-15T18:44:16Z</time>
      </trkpt>
      <trkpt lat="43.79652" lon="6.94248">
        <ele>935.4</ele>
        <time>2025-07-15T18:45:11Z</time>
      </trkpt>
      <trkpt lat="43.79651" lon="6.94252">
        <ele>935.4</ele>
        <time>2025-07-15T18:45:12Z</time>
      </trkpt>
      <trkpt lat="43.79649" lon="6.94262">
        <ele>936</ele>
        <time>2025-07-15T18:45:15Z</time>
      </trkpt>
      <trkpt lat="43.79643" lon="6.94283">
        <ele>937</ele>
        <time>2025-07-15T18:45:21Z</time>
      </trkpt>
      <trkpt lat="43.79642" lon="6.94287">
        <ele>937.4</ele>
        <time>2025-07-15T18:45:22Z</time>
      </trkpt>
      <trkpt lat="43.79637" lon="6.943">
        <ele>938.2</ele>
        <time>2025-07-15T18:45:26Z</time>
      </trkpt>
      <trkpt lat="43.79631" lon="6.94314">
        <ele>939</ele>
        <time>2025-07-15T18:45:30Z</time>
      </trkpt>
      <trkpt lat="43.7963" lon="6.94317">
        <ele>939.4</ele>
        <time>2025-07-15T18:45:31Z</time>
      </trkpt>
      <trkpt lat="43.79624" lon="6.94333">
        <ele>940.6</ele>
        <time>2025-07-15T18:45:36Z</time>
      </trkpt>
      <trkpt lat="43.79623" lon="6.9434">
        <ele>941</ele>
        <time>2025-07-15T18:45:38Z</time>
      </trkpt>
      <trkpt lat="43.79622" lon="6.94346">
        <ele>941.8</ele>
        <time>2025-07-15T18:45:40Z</time>
      </trkpt>
      <trkpt lat="43.79616" lon="6.94375">
        <ele>942.8</ele>
        <time>2025-07-15T18:45:48Z</time>
      </trkpt>
      <trkpt lat="43.79615" lon="6.94379">
        <ele>942.8</ele>
        <time>2025-07-15T18:45:49Z</time>
      </trkpt>
      <trkpt lat="43.79612" lon="6.94404">
        <ele>943.2</ele>
        <time>2025-07-15T18:45:56Z</time>
      </trkpt>
      <trkpt lat="43.79606" lon="6.94443">
        <ele>943</ele>
        <time>2025-07-15T18:46:05Z</time>
      </trkpt>
      <trkpt lat="43.79602" lon="6.94461">
        <ele>942.4</ele>
        <time>2025-07-15T18:46:08Z</time>
      </trkpt>
      <trkpt lat="43.79601" lon="6.94475">
        <ele>942.2</ele>
        <time>2025-07-15T18:46:10Z</time>
      </trkpt>
      <trkpt lat="43.79601" lon="6.94482">
        <ele>941.8</ele>
        <time>2025-07-15T18:46:11Z</time>
      </trkpt>
      <trkpt lat="43.79601" lon="6.9449">
        <ele>941.6</ele>
        <time>2025-07-15T18:46:12Z</time>
      </trkpt>
      <trkpt lat="43.79604" lon="6.94515">
        <ele>940.8</ele>
        <time>2025-07-15T18:46:15Z</time>
      </trkpt>
      <trkpt lat="43.79605" lon="6.94524">
        <ele>940.4</ele>
        <time>2025-07-15T18:46:16Z</time>
      </trkpt>
      <trkpt lat="43.79609" lon="6.94555">
        <ele>939.2</ele>
        <time>2025-07-15T18:46:19Z</time>
      </trkpt>
      <trkpt lat="43.79611" lon="6.94565">
        <ele>938.6</ele>
        <time>2025-07-15T18:46:20Z</time>
      </trkpt>
      <trkpt lat="43.79614" lon="6.94574">
        <ele>938</ele>
        <time>2025-07-15T18:46:21Z</time>
      </trkpt>
      <trkpt lat="43.79622" lon="6.94592">
        <ele>936</ele>
        <time>2025-07-15T18:46:23Z</time>
      </trkpt>
      <trkpt lat="43.79629" lon="6.94609">
        <ele>934.6</ele>
        <time>2025-07-15T18:46:25Z</time>
      </trkpt>
      <trkpt lat="43.79638" lon="6.94635">
        <ele>933.2</ele>
        <time>2025-07-15T18:46:28Z</time>
      </trkpt>
      <trkpt lat="43.79644" lon="6.9465">
        <ele>931.4</ele>
        <time>2025-07-15T18:46:30Z</time>
      </trkpt>
      <trkpt lat="43.79647" lon="6.94657">
        <ele>930.8</ele>
        <time>2025-07-15T18:46:31Z</time>
      </trkpt>
      <trkpt lat="43.7965" lon="6.94664">
        <ele>930.2</ele>
        <time>2025-07-15T18:46:32Z</time>
      </trkpt>
      <trkpt lat="43.79653" lon="6.94671">
        <ele>930</ele>
        <time>2025-07-15T18:46:33Z</time>
      </trkpt>
      <trkpt lat="43.79656" lon="6.94679">
        <ele>928.8</ele>
        <time>2025-07-15T18:46:34Z</time>
      </trkpt>
      <trkpt lat="43.7966" lon="6.94697">
        <ele>927.8</ele>
        <time>2025-07-15T18:46:36Z</time>
      </trkpt>
      <trkpt lat="43.79662" lon="6.94707">
        <ele>927</ele>
        <time>2025-07-15T18:46:37Z</time>
      </trkpt>
      <trkpt lat="43.79666" lon="6.94728">
        <ele>926</ele>
        <time>2025-07-15T18:46:39Z</time>
      </trkpt>
      <trkpt lat="43.79668" lon="6.94738">
        <ele>925.6</ele>
        <time>2025-07-15T18:46:40Z</time>
      </trkpt>
      <trkpt lat="43.7967" lon="6.94751">
        <ele>924.8</ele>
        <time>2025-07-15T18:46:41Z</time>
      </trkpt>
      <trkpt lat="43.79673" lon="6.94771">
        <ele>923</ele>
        <time>2025-07-15T18:46:43Z</time>
      </trkpt>
      <trkpt lat="43.79674" lon="6.94781">
        <ele>921.8</ele>
        <time>2025-07-15T18:46:44Z</time>
      </trkpt>
      <trkpt lat="43.79676" lon="6.94802">
        <ele>920.4</ele>
        <time>2025-07-15T18:46:46Z</time>
      </trkpt>
      <trkpt lat="43.79679" lon="6.94825">
        <ele>918.8</ele>
        <time>2025-07-15T18:46:48Z</time>
      </trkpt>
      <trkpt lat="43.79682" lon="6.94847">
        <ele>917.4</ele>
        <time>2025-07-15T18:46:50Z</time>
      </trkpt>
      <trkpt lat="43.79683" lon="6.94859">
        <ele>916.2</ele>
        <time>2025-07-15T18:46:51Z</time>
      </trkpt>
      <trkpt lat="43.79686" lon="6.94882">
        <ele>914.8</ele>
        <time>2025-07-15T18:46:53Z</time>
      </trkpt>
      <trkpt lat="43.79686" lon="6.94893">
        <ele>914.2</ele>
        <time>2025-07-15T18:46:54Z</time>
      </trkpt>
      <trkpt lat="43.79687" lon="6.94905">
        <ele>913</ele>
        <time>2025-07-15T18:46:55Z</time>
      </trkpt>
      <trkpt lat="43.79687" lon="6.94916">
        <ele>912.6</ele>
        <time>2025-07-15T18:46:56Z</time>
      </trkpt>
      <trkpt lat="43.79686" lon="6.94927">
        <ele>912</ele>
        <time>2025-07-15T18:46:57Z</time>
      </trkpt>
      <trkpt lat="43.79685" lon="6.94937">
        <ele>910.6</ele>
        <time>2025-07-15T18:46:58Z</time>
      </trkpt>
      <trkpt lat="43.79683" lon="6.94947">
        <ele>910.2</ele>
        <time>2025-07-15T18:46:59Z</time>
      </trkpt>
      <trkpt lat="43.79681" lon="6.94956">
        <ele>909.6</ele>
        <time>2025-07-15T18:47:00Z</time>
      </trkpt>
      <trkpt lat="43.79679" lon="6.94965">
        <ele>909</ele>
        <time>2025-07-15T18:47:01Z</time>
      </trkpt>
      <trkpt lat="43.79677" lon="6.94973">
        <ele>908</ele>
        <time>2025-07-15T18:47:02Z</time>
      </trkpt>
      <trkpt lat="43.79673" lon="6.94988">
        <ele>906.8</ele>
        <time>2025-07-15T18:47:04Z</time>
      </trkpt>
      <trkpt lat="43.79671" lon="6.94996">
        <ele>905.6</ele>
        <time>2025-07-15T18:47:05Z</time>
      </trkpt>
      <trkpt lat="43.79668" lon="6.95011">
        <ele>904</ele>
        <time>2025-07-15T18:47:07Z</time>
      </trkpt>
      <trkpt lat="43.79664" lon="6.95024">
        <ele>902.6</ele>
        <time>2025-07-15T18:47:09Z</time>
      </trkpt>
      <trkpt lat="43.79663" lon="6.95033">
        <ele>901.4</ele>
        <time>2025-07-15T18:47:11Z</time>
      </trkpt>
      <trkpt lat="43.79663" lon="6.95037">
        <ele>900.6</ele>
        <time>2025-07-15T18:47:12Z</time>
      </trkpt>
      <trkpt lat="43.79663" lon="6.9504">
        <ele>900.4</ele>
        <time>2025-07-15T18:47:13Z</time>
      </trkpt>
      <trkpt lat="43.79663" lon="6.95043">
        <ele>899.2</ele>
        <time>2025-07-15T18:47:16Z</time>
      </trkpt>
      <trkpt lat="43.79663" lon="6.95043">
        <ele>899.2</ele>
        <time>2025-07-15T18:47:17Z</time>
      </trkpt>
      <trkpt lat="43.79663" lon="6.95054">
        <ele>898</ele>
        <time>2025-07-15T18:49:29Z</time>
      </trkpt>
      <trkpt lat="43.79663" lon="6.95063">
        <ele>898</ele>
        <time>2025-07-15T18:49:31Z</time>
      </trkpt>
      <trkpt lat="43.79665" lon="6.95092">
        <ele>897.6</ele>
        <time>2025-07-15T18:49:37Z</time>
      </trkpt>
      <trkpt lat="43.79666" lon="6.95102">
        <ele>897</ele>
        <time>2025-07-15T18:49:40Z</time>
      </trkpt>
      <trkpt lat="43.79666" lon="6.95111">
        <ele>896.4</ele>
        <time>2025-07-15T18:49:43Z</time>
      </trkpt>
      <trkpt lat="43.79665" lon="6.95124">
        <ele>896</ele>
        <time>2025-07-15T18:49:46Z</time>
      </trkpt>
      <trkpt lat="43.79665" lon="6.95135">
        <ele>895.8</ele>
        <time>2025-07-15T18:49:48Z</time>
      </trkpt>
      <trkpt lat="43.79664" lon="6.95156">
        <ele>895.4</ele>
        <time>2025-07-15T18:49:51Z</time>
      </trkpt>
      <trkpt lat="43.79662" lon="6.95171">
        <ele>895</ele>
        <time>2025-07-15T18:49:53Z</time>
      </trkpt>
      <trkpt lat="43.7966" lon="6.95182">
        <ele>895</ele>
        <time>2025-07-15T18:49:54Z</time>
      </trkpt>
      <trkpt lat="43.79651" lon="6.95218">
        <ele>894</ele>
        <time>2025-07-15T18:49:58Z</time>
      </trkpt>
      <trkpt lat="43.79649" lon="6.95226">
        <ele>893.8</ele>
        <time>2025-07-15T18:49:59Z</time>
      </trkpt>
      <trkpt lat="43.79646" lon="6.95237">
        <ele>893.4</ele>
        <time>2025-07-15T18:50:00Z</time>
      </trkpt>
      <trkpt lat="43.79644" lon="6.9526">
        <ele>892.6</ele>
        <time>2025-07-15T18:50:02Z</time>
      </trkpt>
      <trkpt lat="43.79652" lon="6.95296">
        <ele>891.2</ele>
        <time>2025-07-15T18:50:05Z</time>
      </trkpt>
      <trkpt lat="43.79659" lon="6.95336">
        <ele>890.2</ele>
        <time>2025-07-15T18:50:08Z</time>
      </trkpt>
      <trkpt lat="43.79664" lon="6.95361">
        <ele>888.6</ele>
        <time>2025-07-15T18:50:10Z</time>
      </trkpt>
      <trkpt lat="43.79673" lon="6.95388">
        <ele>887.6</ele>
        <time>2025-07-15T18:50:12Z</time>
      </trkpt>
      <trkpt lat="43.79679" lon="6.95399">
        <ele>887.2</ele>
        <time>2025-07-15T18:50:13Z</time>
      </trkpt>
      <trkpt lat="43.79684" lon="6.9541">
        <ele>886.2</ele>
        <time>2025-07-15T18:50:14Z</time>
      </trkpt>
      <trkpt lat="43.79689" lon="6.9542">
        <ele>886</ele>
        <time>2025-07-15T18:50:15Z</time>
      </trkpt>
      <trkpt lat="43.79695" lon="6.95429">
        <ele>885.2</ele>
        <time>2025-07-15T18:50:16Z</time>
      </trkpt>
      <trkpt lat="43.79699" lon="6.95436">
        <ele>884</ele>
        <time>2025-07-15T18:50:17Z</time>
      </trkpt>
      <trkpt lat="43.79703" lon="6.95443">
        <ele>883.8</ele>
        <time>2025-07-15T18:50:18Z</time>
      </trkpt>
      <trkpt lat="43.79708" lon="6.95451">
        <ele>883</ele>
        <time>2025-07-15T18:50:19Z</time>
      </trkpt>
      <trkpt lat="43.79711" lon="6.95457">
        <ele>882.6</ele>
        <time>2025-07-15T18:50:20Z</time>
      </trkpt>
      <trkpt lat="43.79714" lon="6.95471">
        <ele>881.6</ele>
        <time>2025-07-15T18:50:22Z</time>
      </trkpt>
      <trkpt lat="43.79708" lon="6.95477">
        <ele>880.6</ele>
        <time>2025-07-15T18:50:24Z</time>
      </trkpt>
      <trkpt lat="43.79704" lon="6.95474">
        <ele>880.4</ele>
        <time>2025-07-15T18:50:25Z</time>
      </trkpt>
      <trkpt lat="43.79699" lon="6.95467">
        <ele>880</ele>
        <time>2025-07-15T18:50:26Z</time>
      </trkpt>
      <trkpt lat="43.79693" lon="6.9545">
        <ele>879.4</ele>
        <time>2025-07-15T18:50:28Z</time>
      </trkpt>
      <trkpt lat="43.79689" lon="6.95443">
        <ele>878.6</ele>
        <time>2025-07-15T18:50:29Z</time>
      </trkpt>
      <trkpt lat="43.79684" lon="6.95434">
        <ele>878</ele>
        <time>2025-07-15T18:50:30Z</time>
      </trkpt>
      <trkpt lat="43.79666" lon="6.95407">
        <ele>876.6</ele>
        <time>2025-07-15T18:50:33Z</time>
      </trkpt>
      <trkpt lat="43.79661" lon="6.95399">
        <ele>876.2</ele>
        <time>2025-07-15T18:50:34Z</time>
      </trkpt>
      <trkpt lat="43.79651" lon="6.95381">
        <ele>875</ele>
        <time>2025-07-15T18:50:36Z</time>
      </trkpt>
      <trkpt lat="43.79637" lon="6.9535">
        <ele>873.8</ele>
        <time>2025-07-15T18:50:39Z</time>
      </trkpt>
      <trkpt lat="43.79623" lon="6.95316">
        <ele>872</ele>
        <time>2025-07-15T18:50:42Z</time>
      </trkpt>
      <trkpt lat="43.79612" lon="6.95293">
        <ele>871</ele>
        <time>2025-07-15T18:50:44Z</time>
      </trkpt>
      <trkpt lat="43.79606" lon="6.95281">
        <ele>870.6</ele>
        <time>2025-07-15T18:50:45Z</time>
      </trkpt>
      <trkpt lat="43.79596" lon="6.9526">
        <ele>869.6</ele>
        <time>2025-07-15T18:50:47Z</time>
      </trkpt>
      <trkpt lat="43.79589" lon="6.95239">
        <ele>868.6</ele>
        <time>2025-07-15T18:50:49Z</time>
      </trkpt>
      <trkpt lat="43.79585" lon="6.9523">
        <ele>868</ele>
        <time>2025-07-15T18:50:50Z</time>
      </trkpt>
      <trkpt lat="43.79581" lon="6.95225">
        <ele>867.6</ele>
        <time>2025-07-15T18:50:51Z</time>
      </trkpt>
      <trkpt lat="43.79575" lon="6.95224">
        <ele>866.8</ele>
        <time>2025-07-15T18:50:52Z</time>
      </trkpt>
      <trkpt lat="43.79571" lon="6.95227">
        <ele>866.2</ele>
        <time>2025-07-15T18:50:53Z</time>
      </trkpt>
      <trkpt lat="43.79568" lon="6.95233">
        <ele>865.4</ele>
        <time>2025-07-15T18:50:54Z</time>
      </trkpt>
      <trkpt lat="43.79566" lon="6.95247">
        <ele>864.4</ele>
        <time>2025-07-15T18:50:56Z</time>
      </trkpt>
      <trkpt lat="43.79569" lon="6.95255">
        <ele>863.8</ele>
        <time>2025-07-15T18:50:57Z</time>
      </trkpt>
      <trkpt lat="43.79578" lon="6.95272">
        <ele>863</ele>
        <time>2025-07-15T18:50:59Z</time>
      </trkpt>
      <trkpt lat="43.79583" lon="6.95281">
        <ele>862.6</ele>
        <time>2025-07-15T18:51:00Z</time>
      </trkpt>
      <trkpt lat="43.79591" lon="6.95302">
        <ele>861.8</ele>
        <time>2025-07-15T18:51:02Z</time>
      </trkpt>
      <trkpt lat="43.79594" lon="6.95314">
        <ele>861.4</ele>
        <time>2025-07-15T18:51:03Z</time>
      </trkpt>
      <trkpt lat="43.79603" lon="6.9535">
        <ele>859.8</ele>
        <time>2025-07-15T18:51:06Z</time>
      </trkpt>
      <trkpt lat="43.79612" lon="6.95385">
        <ele>858.2</ele>
        <time>2025-07-15T18:51:09Z</time>
      </trkpt>
      <trkpt lat="43.79627" lon="6.95418">
        <ele>857</ele>
        <time>2025-07-15T18:51:12Z</time>
      </trkpt>
      <trkpt lat="43.79637" lon="6.9544">
        <ele>855.8</ele>
        <time>2025-07-15T18:51:14Z</time>
      </trkpt>
      <trkpt lat="43.79642" lon="6.95452">
        <ele>854.8</ele>
        <time>2025-07-15T18:51:15Z</time>
      </trkpt>
      <trkpt lat="43.7965" lon="6.95478">
        <ele>853.6</ele>
        <time>2025-07-15T18:51:17Z</time>
      </trkpt>
      <trkpt lat="43.79653" lon="6.95491">
        <ele>853</ele>
        <time>2025-07-15T18:51:18Z</time>
      </trkpt>
      <trkpt lat="43.79659" lon="6.95517">
        <ele>851.8</ele>
        <time>2025-07-15T18:51:20Z</time>
      </trkpt>
      <trkpt lat="43.79664" lon="6.95544">
        <ele>850.4</ele>
        <time>2025-07-15T18:51:22Z</time>
      </trkpt>
      <trkpt lat="43.79667" lon="6.9557">
        <ele>849.2</ele>
        <time>2025-07-15T18:51:24Z</time>
      </trkpt>
      <trkpt lat="43.79665" lon="6.95602">
        <ele>848</ele>
        <time>2025-07-15T18:51:26Z</time>
      </trkpt>
      <trkpt lat="43.79662" lon="6.95628">
        <ele>846.8</ele>
        <time>2025-07-15T18:51:28Z</time>
      </trkpt>
      <trkpt lat="43.79656" lon="6.9566">
        <ele>845</ele>
        <time>2025-07-15T18:51:30Z</time>
      </trkpt>
      <trkpt lat="43.79647" lon="6.95688">
        <ele>843.8</ele>
        <time>2025-07-15T18:51:32Z</time>
      </trkpt>
      <trkpt lat="43.79638" lon="6.95717">
        <ele>842.4</ele>
        <time>2025-07-15T18:51:34Z</time>
      </trkpt>
      <trkpt lat="43.79631" lon="6.95746">
        <ele>841</ele>
        <time>2025-07-15T18:51:36Z</time>
      </trkpt>
      <trkpt lat="43.79629" lon="6.95761">
        <ele>840.4</ele>
        <time>2025-07-15T18:51:37Z</time>
      </trkpt>
      <trkpt lat="43.79627" lon="6.95777">
        <ele>840</ele>
        <time>2025-07-15T18:51:38Z</time>
      </trkpt>
      <trkpt lat="43.79623" lon="6.95806">
        <ele>838.8</ele>
        <time>2025-07-15T18:51:40Z</time>
      </trkpt>
      <trkpt lat="43.79619" lon="6.9582">
        <ele>838</ele>
        <time>2025-07-15T18:51:41Z</time>
      </trkpt>
      <trkpt lat="43.79615" lon="6.9583">
        <ele>837.2</ele>
        <time>2025-07-15T18:51:42Z</time>
      </trkpt>
      <trkpt lat="43.79609" lon="6.95842">
        <ele>836.4</ele>
        <time>2025-07-15T18:51:43Z</time>
      </trkpt>
      <trkpt lat="43.796" lon="6.95856">
        <ele>835.4</ele>
        <time>2025-07-15T18:51:44Z</time>
      </trkpt>
      <trkpt lat="43.79591" lon="6.95866">
        <ele>835</ele>
        <time>2025-07-15T18:51:45Z</time>
      </trkpt>
      <trkpt lat="43.79583" lon="6.95876">
        <ele>834</ele>
        <time>2025-07-15T18:51:46Z</time>
      </trkpt>
      <trkpt lat="43.79565" lon="6.95896">
        <ele>832.2</ele>
        <time>2025-07-15T18:51:48Z</time>
      </trkpt>
      <trkpt lat="43.7955" lon="6.95918">
        <ele>831</ele>
        <time>2025-07-15T18:51:50Z</time>
      </trkpt>
      <trkpt lat="43.79544" lon="6.95931">
        <ele>830.2</ele>
        <time>2025-07-15T18:51:51Z</time>
      </trkpt>
      <trkpt lat="43.79539" lon="6.95945">
        <ele>829.8</ele>
        <time>2025-07-15T18:51:52Z</time>
      </trkpt>
      <trkpt lat="43.79536" lon="6.9596">
        <ele>828.6</ele>
        <time>2025-07-15T18:51:53Z</time>
      </trkpt>
      <trkpt lat="43.79533" lon="6.95976">
        <ele>828.2</ele>
        <time>2025-07-15T18:51:54Z</time>
      </trkpt>
      <trkpt lat="43.79529" lon="6.95991">
        <ele>827.4</ele>
        <time>2025-07-15T18:51:55Z</time>
      </trkpt>
      <trkpt lat="43.79517" lon="6.96017">
        <ele>826.2</ele>
        <time>2025-07-15T18:51:57Z</time>
      </trkpt>
      <trkpt lat="43.79509" lon="6.96028">
        <ele>825.2</ele>
        <time>2025-07-15T18:51:58Z</time>
      </trkpt>
      <trkpt lat="43.79493" lon="6.96048">
        <ele>823.8</ele>
        <time>2025-07-15T18:52:00Z</time>
      </trkpt>
      <trkpt lat="43.79485" lon="6.96057">
        <ele>823.4</ele>
        <time>2025-07-15T18:52:01Z</time>
      </trkpt>
      <trkpt lat="43.7948" lon="6.96064">
        <ele>822.6</ele>
        <time>2025-07-15T18:52:02Z</time>
      </trkpt>
      <trkpt lat="43.79475" lon="6.96074">
        <ele>821.4</ele>
        <time>2025-07-15T18:52:03Z</time>
      </trkpt>
      <trkpt lat="43.7947" lon="6.96088">
        <ele>820.6</ele>
        <time>2025-07-15T18:52:04Z</time>
      </trkpt>
      <trkpt lat="43.7947" lon="6.961">
        <ele>819.6</ele>
        <time>2025-07-15T18:52:05Z</time>
      </trkpt>
      <trkpt lat="43.79472" lon="6.96114">
        <ele>819</ele>
        <time>2025-07-15T18:52:06Z</time>
      </trkpt>
      <trkpt lat="43.79474" lon="6.96124">
        <ele>818.4</ele>
        <time>2025-07-15T18:52:07Z</time>
      </trkpt>
      <trkpt lat="43.79478" lon="6.96138">
        <ele>817.8</ele>
        <time>2025-07-15T18:52:08Z</time>
      </trkpt>
      <trkpt lat="43.7948" lon="6.96156">
        <ele>817.4</ele>
        <time>2025-07-15T18:52:09Z</time>
      </trkpt>
      <trkpt lat="43.7948" lon="6.96168">
        <ele>816.6</ele>
        <time>2025-07-15T18:52:10Z</time>
      </trkpt>
      <trkpt lat="43.79479" lon="6.96187">
        <ele>816.2</ele>
        <time>2025-07-15T18:52:11Z</time>
      </trkpt>
      <trkpt lat="43.79478" lon="6.96199">
        <ele>815</ele>
        <time>2025-07-15T18:52:12Z</time>
      </trkpt>
      <trkpt lat="43.79474" lon="6.96233">
        <ele>813.4</ele>
        <time>2025-07-15T18:52:14Z</time>
      </trkpt>
      <trkpt lat="43.79472" lon="6.96249">
        <ele>812.2</ele>
        <time>2025-07-15T18:52:15Z</time>
      </trkpt>
      <trkpt lat="43.79467" lon="6.96278">
        <ele>811</ele>
        <time>2025-07-15T18:52:17Z</time>
      </trkpt>
      <trkpt lat="43.79455" lon="6.9631">
        <ele>809.8</ele>
        <time>2025-07-15T18:52:19Z</time>
      </trkpt>
      <trkpt lat="43.79449" lon="6.96324">
        <ele>809.2</ele>
        <time>2025-07-15T18:52:20Z</time>
      </trkpt>
      <trkpt lat="43.79442" lon="6.96338">
        <ele>808.6</ele>
        <time>2025-07-15T18:52:21Z</time>
      </trkpt>
      <trkpt lat="43.79433" lon="6.96364">
        <ele>807.2</ele>
        <time>2025-07-15T18:52:23Z</time>
      </trkpt>
      <trkpt lat="43.7943" lon="6.96378">
        <ele>806.2</ele>
        <time>2025-07-15T18:52:24Z</time>
      </trkpt>
      <trkpt lat="43.79429" lon="6.96392">
        <ele>805.6</ele>
        <time>2025-07-15T18:52:25Z</time>
      </trkpt>
      <trkpt lat="43.79429" lon="6.96407">
        <ele>804.4</ele>
        <time>2025-07-15T18:52:26Z</time>
      </trkpt>
      <trkpt lat="43.79432" lon="6.96421">
        <ele>804</ele>
        <time>2025-07-15T18:52:27Z</time>
      </trkpt>
      <trkpt lat="43.79436" lon="6.96434">
        <ele>803.2</ele>
        <time>2025-07-15T18:52:28Z</time>
      </trkpt>
      <trkpt lat="43.79443" lon="6.96449">
        <ele>802.2</ele>
        <time>2025-07-15T18:52:29Z</time>
      </trkpt>
      <trkpt lat="43.79446" lon="6.9646">
        <ele>801.8</ele>
        <time>2025-07-15T18:52:30Z</time>
      </trkpt>
      <trkpt lat="43.79449" lon="6.96476">
        <ele>800.6</ele>
        <time>2025-07-15T18:52:31Z</time>
      </trkpt>
      <trkpt lat="43.79449" lon="6.96487">
        <ele>800.2</ele>
        <time>2025-07-15T18:52:32Z</time>
      </trkpt>
      <trkpt lat="43.79447" lon="6.96501">
        <ele>799.4</ele>
        <time>2025-07-15T18:52:33Z</time>
      </trkpt>
      <trkpt lat="43.79444" lon="6.96514">
        <ele>799</ele>
        <time>2025-07-15T18:52:34Z</time>
      </trkpt>
      <trkpt lat="43.79439" lon="6.96528">
        <ele>798</ele>
        <time>2025-07-15T18:52:35Z</time>
      </trkpt>
      <trkpt lat="43.79433" lon="6.96543">
        <ele>796.8</ele>
        <time>2025-07-15T18:52:36Z</time>
      </trkpt>
      <trkpt lat="43.79425" lon="6.96569">
        <ele>795.4</ele>
        <time>2025-07-15T18:52:38Z</time>
      </trkpt>
      <trkpt lat="43.79417" lon="6.96601">
        <ele>794</ele>
        <time>2025-07-15T18:52:40Z</time>
      </trkpt>
      <trkpt lat="43.79416" lon="6.96613">
        <ele>792.8</ele>
        <time>2025-07-15T18:52:41Z</time>
      </trkpt>
      <trkpt lat="43.79413" lon="6.96644">
        <ele>791.6</ele>
        <time>2025-07-15T18:52:43Z</time>
      </trkpt>
      <trkpt lat="43.79411" lon="6.96678">
        <ele>790.2</ele>
        <time>2025-07-15T18:52:45Z</time>
      </trkpt>
      <trkpt lat="43.79412" lon="6.96705">
        <ele>789</ele>
        <time>2025-07-15T18:52:47Z</time>
      </trkpt>
      <trkpt lat="43.79415" lon="6.96734">
        <ele>787.6</ele>
        <time>2025-07-15T18:52:49Z</time>
      </trkpt>
      <trkpt lat="43.79419" lon="6.96761">
        <ele>786</ele>
        <time>2025-07-15T18:52:51Z</time>
      </trkpt>
      <trkpt lat="43.79423" lon="6.96799">
        <ele>783.8</ele>
        <time>2025-07-15T18:52:54Z</time>
      </trkpt>
      <trkpt lat="43.79423" lon="6.96809">
        <ele>783</ele>
        <time>2025-07-15T18:52:55Z</time>
      </trkpt>
      <trkpt lat="43.79422" lon="6.96817">
        <ele>782.6</ele>
        <time>2025-07-15T18:52:56Z</time>
      </trkpt>
      <trkpt lat="43.7942" lon="6.96824">
        <ele>781.6</ele>
        <time>2025-07-15T18:52:57Z</time>
      </trkpt>
      <trkpt lat="43.79417" lon="6.9683">
        <ele>781.2</ele>
        <time>2025-07-15T18:52:58Z</time>
      </trkpt>
      <trkpt lat="43.79414" lon="6.96838">
        <ele>780.2</ele>
        <time>2025-07-15T18:52:59Z</time>
      </trkpt>
      <trkpt lat="43.79411" lon="6.96852">
        <ele>779</ele>
        <time>2025-07-15T18:53:01Z</time>
      </trkpt>
      <trkpt lat="43.7941" lon="6.9686">
        <ele>778.4</ele>
        <time>2025-07-15T18:53:02Z</time>
      </trkpt>
      <trkpt lat="43.7941" lon="6.96871">
        <ele>778</ele>
        <time>2025-07-15T18:53:03Z</time>
      </trkpt>
      <trkpt lat="43.79411" lon="6.96878">
        <ele>777.6</ele>
        <time>2025-07-15T18:53:04Z</time>
      </trkpt>
      <trkpt lat="43.79415" lon="6.96896">
        <ele>776.8</ele>
        <time>2025-07-15T18:53:06Z</time>
      </trkpt>
      <trkpt lat="43.79423" lon="6.96912">
        <ele>776.4</ele>
        <time>2025-07-15T18:53:08Z</time>
      </trkpt>
      <trkpt lat="43.7943" lon="6.96919">
        <ele>775.8</ele>
        <time>2025-07-15T18:53:09Z</time>
      </trkpt>
      <trkpt lat="43.79456" lon="6.96934">
        <ele>774.4</ele>
        <time>2025-07-15T18:53:13Z</time>
      </trkpt>
      <trkpt lat="43.79463" lon="6.96938">
        <ele>774</ele>
        <time>2025-07-15T18:53:14Z</time>
      </trkpt>
      <trkpt lat="43.79475" lon="6.96954">
        <ele>773</ele>
        <time>2025-07-15T18:53:16Z</time>
      </trkpt>
      <trkpt lat="43.79478" lon="6.96978">
        <ele>772</ele>
        <time>2025-07-15T18:53:18Z</time>
      </trkpt>
      <trkpt lat="43.79476" lon="6.96987">
        <ele>771.6</ele>
        <time>2025-07-15T18:53:19Z</time>
      </trkpt>
      <trkpt lat="43.79471" lon="6.96999">
        <ele>771</ele>
        <time>2025-07-15T18:53:20Z</time>
      </trkpt>
      <trkpt lat="43.79465" lon="6.97008">
        <ele>770.4</ele>
        <time>2025-07-15T18:53:21Z</time>
      </trkpt>
      <trkpt lat="43.79456" lon="6.97027">
        <ele>769</ele>
        <time>2025-07-15T18:53:23Z</time>
      </trkpt>
      <trkpt lat="43.79448" lon="6.97055">
        <ele>768</ele>
        <time>2025-07-15T18:53:25Z</time>
      </trkpt>
      <trkpt lat="43.79446" lon="6.97079">
        <ele>767</ele>
        <time>2025-07-15T18:53:27Z</time>
      </trkpt>
      <trkpt lat="43.79447" lon="6.97093">
        <ele>766</ele>
        <time>2025-07-15T18:53:28Z</time>
      </trkpt>
      <trkpt lat="43.79446" lon="6.97106">
        <ele>765.8</ele>
        <time>2025-07-15T18:53:29Z</time>
      </trkpt>
      <trkpt lat="43.79444" lon="6.9712">
        <ele>764.8</ele>
        <time>2025-07-15T18:53:30Z</time>
      </trkpt>
      <trkpt lat="43.7944" lon="6.97133">
        <ele>764.2</ele>
        <time>2025-07-15T18:53:31Z</time>
      </trkpt>
      <trkpt lat="43.79434" lon="6.97145">
        <ele>763.4</ele>
        <time>2025-07-15T18:53:32Z</time>
      </trkpt>
      <trkpt lat="43.79427" lon="6.97156">
        <ele>762.2</ele>
        <time>2025-07-15T18:53:33Z</time>
      </trkpt>
      <trkpt lat="43.79421" lon="6.97169">
        <ele>761.8</ele>
        <time>2025-07-15T18:53:34Z</time>
      </trkpt>
      <trkpt lat="43.79416" lon="6.97181">
        <ele>760.6</ele>
        <time>2025-07-15T18:53:35Z</time>
      </trkpt>
      <trkpt lat="43.79412" lon="6.97195">
        <ele>760.2</ele>
        <time>2025-07-15T18:53:36Z</time>
      </trkpt>
      <trkpt lat="43.7941" lon="6.97209">
        <ele>759.2</ele>
        <time>2025-07-15T18:53:37Z</time>
      </trkpt>
      <trkpt lat="43.79406" lon="6.97239">
        <ele>758</ele>
        <time>2025-07-15T18:53:39Z</time>
      </trkpt>
      <trkpt lat="43.79401" lon="6.97269">
        <ele>756.8</ele>
        <time>2025-07-15T18:53:41Z</time>
      </trkpt>
      <trkpt lat="43.79396" lon="6.97298">
        <ele>755.6</ele>
        <time>2025-07-15T18:53:43Z</time>
      </trkpt>
      <trkpt lat="43.79394" lon="6.97313">
        <ele>754.4</ele>
        <time>2025-07-15T18:53:44Z</time>
      </trkpt>
      <trkpt lat="43.79393" lon="6.97327">
        <ele>754</ele>
        <time>2025-07-15T18:53:45Z</time>
      </trkpt>
      <trkpt lat="43.79394" lon="6.97342">
        <ele>753</ele>
        <time>2025-07-15T18:53:46Z</time>
      </trkpt>
      <trkpt lat="43.79395" lon="6.97357">
        <ele>752</ele>
        <time>2025-07-15T18:53:47Z</time>
      </trkpt>
      <trkpt lat="43.79397" lon="6.97371">
        <ele>751.6</ele>
        <time>2025-07-15T18:53:48Z</time>
      </trkpt>
      <trkpt lat="43.79399" lon="6.97384">
        <ele>750.8</ele>
        <time>2025-07-15T18:53:49Z</time>
      </trkpt>
      <trkpt lat="43.79401" lon="6.9741">
        <ele>749.6</ele>
        <time>2025-07-15T18:53:51Z</time>
      </trkpt>
      <trkpt lat="43.79401" lon="6.97422">
        <ele>748.6</ele>
        <time>2025-07-15T18:53:52Z</time>
      </trkpt>
      <trkpt lat="43.79399" lon="6.97433">
        <ele>748.2</ele>
        <time>2025-07-15T18:53:53Z</time>
      </trkpt>
      <trkpt lat="43.79393" lon="6.97443">
        <ele>747.4</ele>
        <time>2025-07-15T18:53:54Z</time>
      </trkpt>
      <trkpt lat="43.79387" lon="6.97451">
        <ele>746.8</ele>
        <time>2025-07-15T18:53:55Z</time>
      </trkpt>
      <trkpt lat="43.79369" lon="6.9746">
        <ele>745.4</ele>
        <time>2025-07-15T18:53:57Z</time>
      </trkpt>
      <trkpt lat="43.79352" lon="6.97457">
        <ele>744</ele>
        <time>2025-07-15T18:53:59Z</time>
      </trkpt>
      <trkpt lat="43.79344" lon="6.97454">
        <ele>743.8</ele>
        <time>2025-07-15T18:54:00Z</time>
      </trkpt>
      <trkpt lat="43.79321" lon="6.97442">
        <ele>742.8</ele>
        <time>2025-07-15T18:54:03Z</time>
      </trkpt>
      <trkpt lat="43.79297" lon="6.97426">
        <ele>742.4</ele>
        <time>2025-07-15T18:54:06Z</time>
      </trkpt>
      <trkpt lat="43.79268" lon="6.97402">
        <ele>741.6</ele>
        <time>2025-07-15T18:54:10Z</time>
      </trkpt>
      <trkpt lat="43.79245" lon="6.97381">
        <ele>740.4</ele>
        <time>2025-07-15T18:54:13Z</time>
      </trkpt>
      <trkpt lat="43.79231" lon="6.97361">
        <ele>739</ele>
        <time>2025-07-15T18:54:15Z</time>
      </trkpt>
      <trkpt lat="43.79225" lon="6.9735">
        <ele>738.6</ele>
        <time>2025-07-15T18:54:16Z</time>
      </trkpt>
      <trkpt lat="43.7922" lon="6.97338">
        <ele>738</ele>
        <time>2025-07-15T18:54:17Z</time>
      </trkpt>
      <trkpt lat="43.79209" lon="6.97313">
        <ele>736.6</ele>
        <time>2025-07-15T18:54:19Z</time>
      </trkpt>
      <trkpt lat="43.79203" lon="6.97302">
        <ele>735.6</ele>
        <time>2025-07-15T18:54:20Z</time>
      </trkpt>
      <trkpt lat="43.79196" lon="6.97292">
        <ele>735.2</ele>
        <time>2025-07-15T18:54:21Z</time>
      </trkpt>
      <trkpt lat="43.79187" lon="6.97283">
        <ele>734.2</ele>
        <time>2025-07-15T18:54:22Z</time>
      </trkpt>
      <trkpt lat="43.79178" lon="6.97276">
        <ele>733.8</ele>
        <time>2025-07-15T18:54:23Z</time>
      </trkpt>
      <trkpt lat="43.79169" lon="6.9727">
        <ele>733</ele>
        <time>2025-07-15T18:54:24Z</time>
      </trkpt>
      <trkpt lat="43.7916" lon="6.97263">
        <ele>732</ele>
        <time>2025-07-15T18:54:25Z</time>
      </trkpt>
      <trkpt lat="43.79148" lon="6.97242">
        <ele>730.8</ele>
        <time>2025-07-15T18:54:27Z</time>
      </trkpt>
      <trkpt lat="43.7914" lon="6.97214">
        <ele>728.8</ele>
        <time>2025-07-15T18:54:29Z</time>
      </trkpt>
      <trkpt lat="43.7913" lon="6.97193">
        <ele>727.4</ele>
        <time>2025-07-15T18:54:31Z</time>
      </trkpt>
      <trkpt lat="43.79122" lon="6.97184">
        <ele>726.6</ele>
        <time>2025-07-15T18:54:32Z</time>
      </trkpt>
      <trkpt lat="43.79112" lon="6.97177">
        <ele>726.2</ele>
        <time>2025-07-15T18:54:33Z</time>
      </trkpt>
      <trkpt lat="43.79102" lon="6.97171">
        <ele>725.2</ele>
        <time>2025-07-15T18:54:34Z</time>
      </trkpt>
      <trkpt lat="43.79081" lon="6.97158">
        <ele>724</ele>
        <time>2025-07-15T18:54:36Z</time>
      </trkpt>
      <trkpt lat="43.79061" lon="6.97143">
        <ele>722.6</ele>
        <time>2025-07-15T18:54:38Z</time>
      </trkpt>
      <trkpt lat="43.79046" lon="6.97123">
        <ele>721.2</ele>
        <time>2025-07-15T18:54:40Z</time>
      </trkpt>
      <trkpt lat="43.7904" lon="6.97109">
        <ele>720</ele>
        <time>2025-07-15T18:54:41Z</time>
      </trkpt>
      <trkpt lat="43.79038" lon="6.97099">
        <ele>719.2</ele>
        <time>2025-07-15T18:54:42Z</time>
      </trkpt>
      <trkpt lat="43.79036" lon="6.97086">
        <ele>718.4</ele>
        <time>2025-07-15T18:54:43Z</time>
      </trkpt>
      <trkpt lat="43.79036" lon="6.9707">
        <ele>717.2</ele>
        <time>2025-07-15T18:54:44Z</time>
      </trkpt>
      <trkpt lat="43.79041" lon="6.97047">
        <ele>715.2</ele>
        <time>2025-07-15T18:54:46Z</time>
      </trkpt>
      <trkpt lat="43.79045" lon="6.97035">
        <ele>714.6</ele>
        <time>2025-07-15T18:54:47Z</time>
      </trkpt>
      <trkpt lat="43.79048" lon="6.97024">
        <ele>713.6</ele>
        <time>2025-07-15T18:54:48Z</time>
      </trkpt>
      <trkpt lat="43.79048" lon="6.97014">
        <ele>713.2</ele>
        <time>2025-07-15T18:54:49Z</time>
      </trkpt>
      <trkpt lat="43.79045" lon="6.97005">
        <ele>712.6</ele>
        <time>2025-07-15T18:54:50Z</time>
      </trkpt>
      <trkpt lat="43.79038" lon="6.97">
        <ele>711.4</ele>
        <time>2025-07-15T18:54:51Z</time>
      </trkpt>
      <trkpt lat="43.79032" lon="6.96999">
        <ele>711.2</ele>
        <time>2025-07-15T18:54:52Z</time>
      </trkpt>
      <trkpt lat="43.79025" lon="6.97002">
        <ele>710.4</ele>
        <time>2025-07-15T18:54:53Z</time>
      </trkpt>
      <trkpt lat="43.79019" lon="6.97009">
        <ele>710.2</ele>
        <time>2025-07-15T18:54:54Z</time>
      </trkpt>
      <trkpt lat="43.79007" lon="6.9703">
        <ele>709.4</ele>
        <time>2025-07-15T18:54:56Z</time>
      </trkpt>
      <trkpt lat="43.79003" lon="6.97038">
        <ele>708.6</ele>
        <time>2025-07-15T18:54:57Z</time>
      </trkpt>
      <trkpt lat="43.7899" lon="6.97056">
        <ele>707.6</ele>
        <time>2025-07-15T18:54:59Z</time>
      </trkpt>
      <trkpt lat="43.78982" lon="6.97063">
        <ele>707.2</ele>
        <time>2025-07-15T18:55:00Z</time>
      </trkpt>
      <trkpt lat="43.78973" lon="6.97069">
        <ele>706.8</ele>
        <time>2025-07-15T18:55:01Z</time>
      </trkpt>
      <trkpt lat="43.78963" lon="6.97073">
        <ele>706.2</ele>
        <time>2025-07-15T18:55:02Z</time>
      </trkpt>
      <trkpt lat="43.78953" lon="6.97075">
        <ele>706</ele>
        <time>2025-07-15T18:55:03Z</time>
      </trkpt>
      <trkpt lat="43.78932" lon="6.97073">
        <ele>704.6</ele>
        <time>2025-07-15T18:55:05Z</time>
      </trkpt>
      <trkpt lat="43.78925" lon="6.9707">
        <ele>704.2</ele>
        <time>2025-07-15T18:55:06Z</time>
      </trkpt>
      <trkpt lat="43.78916" lon="6.97068">
        <ele>703.2</ele>
        <time>2025-07-15T18:55:07Z</time>
      </trkpt>
      <trkpt lat="43.78894" lon="6.97076">
        <ele>701.8</ele>
        <time>2025-07-15T18:55:09Z</time>
      </trkpt>
      <trkpt lat="43.78887" lon="6.97082">
        <ele>700.6</ele>
        <time>2025-07-15T18:55:10Z</time>
      </trkpt>
      <trkpt lat="43.78879" lon="6.97091">
        <ele>699.8</ele>
        <time>2025-07-15T18:55:11Z</time>
      </trkpt>
      <trkpt lat="43.78871" lon="6.97102">
        <ele>698.8</ele>
        <time>2025-07-15T18:55:12Z</time>
      </trkpt>
      <trkpt lat="43.78865" lon="6.97114">
        <ele>698.6</ele>
        <time>2025-07-15T18:55:13Z</time>
      </trkpt>
      <trkpt lat="43.7886" lon="6.97131">
        <ele>697.8</ele>
        <time>2025-07-15T18:55:14Z</time>
      </trkpt>
      <trkpt lat="43.78857" lon="6.97147">
        <ele>697.2</ele>
        <time>2025-07-15T18:55:15Z</time>
      </trkpt>
      <trkpt lat="43.78854" lon="6.97162">
        <ele>696.4</ele>
        <time>2025-07-15T18:55:16Z</time>
      </trkpt>
      <trkpt lat="43.78852" lon="6.97175">
        <ele>695.2</ele>
        <time>2025-07-15T18:55:17Z</time>
      </trkpt>
      <trkpt lat="43.78847" lon="6.97211">
        <ele>693.6</ele>
        <time>2025-07-15T18:55:19Z</time>
      </trkpt>
      <trkpt lat="43.78843" lon="6.97226">
        <ele>693</ele>
        <time>2025-07-15T18:55:20Z</time>
      </trkpt>
      <trkpt lat="43.78839" lon="6.97238">
        <ele>692.4</ele>
        <time>2025-07-15T18:55:21Z</time>
      </trkpt>
      <trkpt lat="43.78834" lon="6.97252">
        <ele>691.8</ele>
        <time>2025-07-15T18:55:22Z</time>
      </trkpt>
      <trkpt lat="43.78827" lon="6.97266">
        <ele>690.6</ele>
        <time>2025-07-15T18:55:23Z</time>
      </trkpt>
      <trkpt lat="43.78818" lon="6.97281">
        <ele>688.6</ele>
        <time>2025-07-15T18:55:24Z</time>
      </trkpt>
      <trkpt lat="43.78799" lon="6.97304">
        <ele>686.8</ele>
        <time>2025-07-15T18:55:26Z</time>
      </trkpt>
      <trkpt lat="43.78781" lon="6.97323">
        <ele>685</ele>
        <time>2025-07-15T18:55:28Z</time>
      </trkpt>
      <trkpt lat="43.7877" lon="6.97336">
        <ele>683.4</ele>
        <time>2025-07-15T18:55:29Z</time>
      </trkpt>
      <trkpt lat="43.7875" lon="6.97356">
        <ele>681.8</ele>
        <time>2025-07-15T18:55:31Z</time>
      </trkpt>
      <trkpt lat="43.7873" lon="6.97369">
        <ele>680.4</ele>
        <time>2025-07-15T18:55:33Z</time>
      </trkpt>
      <trkpt lat="43.78707" lon="6.97384">
        <ele>678.6</ele>
        <time>2025-07-15T18:55:35Z</time>
      </trkpt>
      <trkpt lat="43.78696" lon="6.97389">
        <ele>677.6</ele>
        <time>2025-07-15T18:55:36Z</time>
      </trkpt>
      <trkpt lat="43.78685" lon="6.97393">
        <ele>677</ele>
        <time>2025-07-15T18:55:37Z</time>
      </trkpt>
      <trkpt lat="43.78663" lon="6.97402">
        <ele>675.8</ele>
        <time>2025-07-15T18:55:39Z</time>
      </trkpt>
      <trkpt lat="43.78654" lon="6.97407">
        <ele>675.2</ele>
        <time>2025-07-15T18:55:40Z</time>
      </trkpt>
      <trkpt lat="43.78635" lon="6.9742">
        <ele>674.4</ele>
        <time>2025-07-15T18:55:42Z</time>
      </trkpt>
      <trkpt lat="43.78615" lon="6.97429">
        <ele>673.6</ele>
        <time>2025-07-15T18:55:44Z</time>
      </trkpt>
      <trkpt lat="43.78605" lon="6.97431">
        <ele>673</ele>
        <time>2025-07-15T18:55:45Z</time>
      </trkpt>
      <trkpt lat="43.78577" lon="6.97436">
        <ele>672.2</ele>
        <time>2025-07-15T18:55:48Z</time>
      </trkpt>
      <trkpt lat="43.78565" lon="6.9744">
        <ele>671.6</ele>
        <time>2025-07-15T18:55:49Z</time>
      </trkpt>
      <trkpt lat="43.78556" lon="6.97445">
        <ele>671.2</ele>
        <time>2025-07-15T18:55:50Z</time>
      </trkpt>
      <trkpt lat="43.78533" lon="6.97462">
        <ele>670.6</ele>
        <time>2025-07-15T18:55:53Z</time>
      </trkpt>
      <trkpt lat="43.78515" lon="6.97477">
        <ele>669.8</ele>
        <time>2025-07-15T18:55:55Z</time>
      </trkpt>
      <trkpt lat="43.78501" lon="6.97487">
        <ele>669.4</ele>
        <time>2025-07-15T18:55:57Z</time>
      </trkpt>
      <trkpt lat="43.78461" lon="6.97516">
        <ele>668.4</ele>
        <time>2025-07-15T18:56:02Z</time>
      </trkpt>
      <trkpt lat="43.78435" lon="6.97528">
        <ele>667.2</ele>
        <time>2025-07-15T18:56:05Z</time>
      </trkpt>
      <trkpt lat="43.78403" lon="6.97547">
        <ele>666</ele>
        <time>2025-07-15T18:56:09Z</time>
      </trkpt>
      <trkpt lat="43.78373" lon="6.97563">
        <ele>664.8</ele>
        <time>2025-07-15T18:56:13Z</time>
      </trkpt>
      <trkpt lat="43.78355" lon="6.97568">
        <ele>664.4</ele>
        <time>2025-07-15T18:56:15Z</time>
      </trkpt>
      <trkpt lat="43.78333" lon="6.97572">
        <ele>663.6</ele>
        <time>2025-07-15T18:56:18Z</time>
      </trkpt>
      <trkpt lat="43.78325" lon="6.97574">
        <ele>663.6</ele>
        <time>2025-07-15T18:56:19Z</time>
      </trkpt>
      <trkpt lat="43.78309" lon="6.97584">
        <ele>663</ele>
        <time>2025-07-15T18:56:21Z</time>
      </trkpt>
      <trkpt lat="43.78276" lon="6.97618">
        <ele>662.6</ele>
        <time>2025-07-15T18:56:26Z</time>
      </trkpt>
      <trkpt lat="43.78243" lon="6.97649">
        <ele>661.6</ele>
        <time>2025-07-15T18:56:31Z</time>
      </trkpt>
      <trkpt lat="43.78237" lon="6.97653">
        <ele>661.4</ele>
        <time>2025-07-15T18:56:32Z</time>
      </trkpt>
      <trkpt lat="43.78207" lon="6.97676">
        <ele>660.6</ele>
        <time>2025-07-15T18:56:36Z</time>
      </trkpt>
      <trkpt lat="43.78186" lon="6.97697">
        <ele>660.2</ele>
        <time>2025-07-15T18:56:39Z</time>
      </trkpt>
      <trkpt lat="43.78167" lon="6.97715">
        <ele>659.4</ele>
        <time>2025-07-15T18:56:42Z</time>
      </trkpt>
      <trkpt lat="43.7816" lon="6.9772">
        <ele>659.2</ele>
        <time>2025-07-15T18:56:43Z</time>
      </trkpt>
      <trkpt lat="43.78152" lon="6.97723">
        <ele>659</ele>
        <time>2025-07-15T18:56:44Z</time>
      </trkpt>
      <trkpt lat="43.78141" lon="6.97725">
        <ele>658.8</ele>
        <time>2025-07-15T18:56:45Z</time>
      </trkpt>
      <trkpt lat="43.78126" lon="6.97725">
        <ele>658.4</ele>
        <time>2025-07-15T18:56:47Z</time>
      </trkpt>
      <trkpt lat="43.78117" lon="6.97724">
        <ele>658.2</ele>
        <time>2025-07-15T18:56:48Z</time>
      </trkpt>
      <trkpt lat="43.78082" lon="6.97721">
        <ele>657.2</ele>
        <time>2025-07-15T18:56:52Z</time>
      </trkpt>
      <trkpt lat="43.78073" lon="6.97722">
        <ele>656.8</ele>
        <time>2025-07-15T18:56:53Z</time>
      </trkpt>
      <trkpt lat="43.78056" lon="6.97726">
        <ele>656.2</ele>
        <time>2025-07-15T18:56:55Z</time>
      </trkpt>
      <trkpt lat="43.78048" lon="6.9773">
        <ele>656</ele>
        <time>2025-07-15T18:56:56Z</time>
      </trkpt>
      <trkpt lat="43.78016" lon="6.9775">
        <ele>655.6</ele>
        <time>2025-07-15T18:57:00Z</time>
      </trkpt>
      <trkpt lat="43.77995" lon="6.9777">
        <ele>655</ele>
        <time>2025-07-15T18:57:03Z</time>
      </trkpt>
      <trkpt lat="43.77988" lon="6.97776">
        <ele>655</ele>
        <time>2025-07-15T18:57:04Z</time>
      </trkpt>
      <trkpt lat="43.77972" lon="6.97783">
        <ele>654.4</ele>
        <time>2025-07-15T18:57:06Z</time>
      </trkpt>
      <trkpt lat="43.77956" lon="6.97783">
        <ele>654</ele>
        <time>2025-07-15T18:57:08Z</time>
      </trkpt>
      <trkpt lat="43.77948" lon="6.97781">
        <ele>653.6</ele>
        <time>2025-07-15T18:57:09Z</time>
      </trkpt>
      <trkpt lat="43.77915" lon="6.9777">
        <ele>652.4</ele>
        <time>2025-07-15T18:57:13Z</time>
      </trkpt>
      <trkpt lat="43.77905" lon="6.9777">
        <ele>652.2</ele>
        <time>2025-07-15T18:57:14Z</time>
      </trkpt>
      <trkpt lat="43.77899" lon="6.97772">
        <ele>651.8</ele>
        <time>2025-07-15T18:57:15Z</time>
      </trkpt>
      <trkpt lat="43.77883" lon="6.9778">
        <ele>651.2</ele>
        <time>2025-07-15T18:57:17Z</time>
      </trkpt>
      <trkpt lat="43.77849" lon="6.97812">
        <ele>650.4</ele>
        <time>2025-07-15T18:57:22Z</time>
      </trkpt>
      <trkpt lat="43.77843" lon="6.9782">
        <ele>650.4</ele>
        <time>2025-07-15T18:57:23Z</time>
      </trkpt>
      <trkpt lat="43.77818" lon="6.97849">
        <ele>649.4</ele>
        <time>2025-07-15T18:57:27Z</time>
      </trkpt>
      <trkpt lat="43.77801" lon="6.9786">
        <ele>649.2</ele>
        <time>2025-07-15T18:57:29Z</time>
      </trkpt>
      <trkpt lat="43.77786" lon="6.97871">
        <ele>648.6</ele>
        <time>2025-07-15T18:57:31Z</time>
      </trkpt>
      <trkpt lat="43.77781" lon="6.97877">
        <ele>648.6</ele>
        <time>2025-07-15T18:57:32Z</time>
      </trkpt>
      <trkpt lat="43.77775" lon="6.97886">
        <ele>648.2</ele>
        <time>2025-07-15T18:57:33Z</time>
      </trkpt>
      <trkpt lat="43.77759" lon="6.97917">
        <ele>647.6</ele>
        <time>2025-07-15T18:57:36Z</time>
      </trkpt>
      <trkpt lat="43.7775" lon="6.97935">
        <ele>647.2</ele>
        <time>2025-07-15T18:57:38Z</time>
      </trkpt>
      <trkpt lat="43.77742" lon="6.97945">
        <ele>646.8</ele>
        <time>2025-07-15T18:57:39Z</time>
      </trkpt>
      <trkpt lat="43.77736" lon="6.97953">
        <ele>646.6</ele>
        <time>2025-07-15T18:57:40Z</time>
      </trkpt>
      <trkpt lat="43.77708" lon="6.97985">
        <ele>645.8</ele>
        <time>2025-07-15T18:57:44Z</time>
      </trkpt>
      <trkpt lat="43.77695" lon="6.97996">
        <ele>644.8</ele>
        <time>2025-07-15T18:57:46Z</time>
      </trkpt>
      <trkpt lat="43.77679" lon="6.98006">
        <ele>644.2</ele>
        <time>2025-07-15T18:57:48Z</time>
      </trkpt>
      <trkpt lat="43.77654" lon="6.98019">
        <ele>643.6</ele>
        <time>2025-07-15T18:57:51Z</time>
      </trkpt>
      <trkpt lat="43.77638" lon="6.98029">
        <ele>643</ele>
        <time>2025-07-15T18:57:53Z</time>
      </trkpt>
      <trkpt lat="43.77599" lon="6.98059">
        <ele>642</ele>
        <time>2025-07-15T18:57:58Z</time>
      </trkpt>
      <trkpt lat="43.77561" lon="6.98112">
        <ele>641</ele>
        <time>2025-07-15T18:58:04Z</time>
      </trkpt>
      <trkpt lat="43.77537" lon="6.98165">
        <ele>640</ele>
        <time>2025-07-15T18:58:08Z</time>
      </trkpt>
      <trkpt lat="43.77526" lon="6.98194">
        <ele>638.6</ele>
        <time>2025-07-15T18:58:12Z</time>
      </trkpt>
      <trkpt lat="43.77514" lon="6.98215">
        <ele>638.4</ele>
        <time>2025-07-15T18:58:13Z</time>
      </trkpt>
      <trkpt lat="43.77496" lon="6.98239">
        <ele>637.6</ele>
        <time>2025-07-15T18:58:16Z</time>
      </trkpt>
      <trkpt lat="43.77475" lon="6.98266">
        <ele>636.8</ele>
        <time>2025-07-15T18:58:19Z</time>
      </trkpt>
      <trkpt lat="43.77465" lon="6.98282">
        <ele>636.4</ele>
        <time>2025-07-15T18:58:21Z</time>
      </trkpt>
      <trkpt lat="43.77455" lon="6.98304">
        <ele>636.4</ele>
        <time>2025-07-15T18:58:23Z</time>
      </trkpt>
      <trkpt lat="43.77451" lon="6.98315">
        <ele>636.2</ele>
        <time>2025-07-15T18:58:24Z</time>
      </trkpt>
      <trkpt lat="43.77436" lon="6.98347">
        <ele>635.4</ele>
        <time>2025-07-15T18:58:28Z</time>
      </trkpt>
      <trkpt lat="43.77422" lon="6.98363">
        <ele>635.2</ele>
        <time>2025-07-15T18:58:29Z</time>
      </trkpt>
      <trkpt lat="43.77409" lon="6.98375">
        <ele>634.2</ele>
        <time>2025-07-15T18:58:31Z</time>
      </trkpt>
      <trkpt lat="43.77395" lon="6.98391">
        <ele>633.8</ele>
        <time>2025-07-15T18:58:33Z</time>
      </trkpt>
      <trkpt lat="43.77389" lon="6.984">
        <ele>633.6</ele>
        <time>2025-07-15T18:58:34Z</time>
      </trkpt>
      <trkpt lat="43.77384" lon="6.98409">
        <ele>633.2</ele>
        <time>2025-07-15T18:58:35Z</time>
      </trkpt>
      <trkpt lat="43.77368" lon="6.98437">
        <ele>632.6</ele>
        <time>2025-07-15T18:58:38Z</time>
      </trkpt>
      <trkpt lat="43.77356" lon="6.98454">
        <ele>632.2</ele>
        <time>2025-07-15T18:58:40Z</time>
      </trkpt>
      <trkpt lat="43.77352" lon="6.9846">
        <ele>632</ele>
        <time>2025-07-15T18:58:41Z</time>
      </trkpt>
      <trkpt lat="43.77326" lon="6.98493">
        <ele>630.8</ele>
        <time>2025-07-15T18:58:45Z</time>
      </trkpt>
      <trkpt lat="43.7732" lon="6.98501">
        <ele>630</ele>
        <time>2025-07-15T18:58:47Z</time>
      </trkpt>
      <trkpt lat="43.77306" lon="6.98516">
        <ele>629.6</ele>
        <time>2025-07-15T18:58:49Z</time>
      </trkpt>
      <trkpt lat="43.77285" lon="6.98538">
        <ele>628.4</ele>
        <time>2025-07-15T18:58:52Z</time>
      </trkpt>
      <trkpt lat="43.77268" lon="6.98551">
        <ele>628.4</ele>
        <time>2025-07-15T18:58:53Z</time>
      </trkpt>
      <trkpt lat="43.77248" lon="6.98563">
        <ele>627.4</ele>
        <time>2025-07-15T18:58:56Z</time>
      </trkpt>
      <trkpt lat="43.7724" lon="6.98567">
        <ele>626.8</ele>
        <time>2025-07-15T18:58:57Z</time>
      </trkpt>
      <trkpt lat="43.77232" lon="6.98569">
        <ele>626.6</ele>
        <time>2025-07-15T18:58:58Z</time>
      </trkpt>
      <trkpt lat="43.77224" lon="6.9857">
        <ele>626.2</ele>
        <time>2025-07-15T18:58:59Z</time>
      </trkpt>
      <trkpt lat="43.77216" lon="6.9857">
        <ele>626</ele>
        <time>2025-07-15T18:59:00Z</time>
      </trkpt>
      <trkpt lat="43.77199" lon="6.98566">
        <ele>625.2</ele>
        <time>2025-07-15T18:59:02Z</time>
      </trkpt>
      <trkpt lat="43.77183" lon="6.98559">
        <ele>624.6</ele>
        <time>2025-07-15T18:59:04Z</time>
      </trkpt>
      <trkpt lat="43.77168" lon="6.98547">
        <ele>624</ele>
        <time>2025-07-15T18:59:06Z</time>
      </trkpt>
      <trkpt lat="43.77161" lon="6.98539">
        <ele>623.8</ele>
        <time>2025-07-15T18:59:07Z</time>
      </trkpt>
      <trkpt lat="43.77133" lon="6.9851">
        <ele>622.8</ele>
        <time>2025-07-15T18:59:11Z</time>
      </trkpt>
      <trkpt lat="43.77111" lon="6.98491">
        <ele>622</ele>
        <time>2025-07-15T18:59:14Z</time>
      </trkpt>
      <trkpt lat="43.77104" lon="6.98487">
        <ele>621.8</ele>
        <time>2025-07-15T18:59:15Z</time>
      </trkpt>
      <trkpt lat="43.77086" lon="6.98488">
        <ele>621.4</ele>
        <time>2025-07-15T18:59:17Z</time>
      </trkpt>
      <trkpt lat="43.7707" lon="6.98498">
        <ele>621</ele>
        <time>2025-07-15T18:59:19Z</time>
      </trkpt>
      <trkpt lat="43.77062" lon="6.98503">
        <ele>620.4</ele>
        <time>2025-07-15T18:59:20Z</time>
      </trkpt>
      <trkpt lat="43.77054" lon="6.98508">
        <ele>620.2</ele>
        <time>2025-07-15T18:59:21Z</time>
      </trkpt>
      <trkpt lat="43.77037" lon="6.98513">
        <ele>619.4</ele>
        <time>2025-07-15T18:59:23Z</time>
      </trkpt>
      <trkpt lat="43.77028" lon="6.98511">
        <ele>619.2</ele>
        <time>2025-07-15T18:59:24Z</time>
      </trkpt>
      <trkpt lat="43.7702" lon="6.98506">
        <ele>618.8</ele>
        <time>2025-07-15T18:59:25Z</time>
      </trkpt>
      <trkpt lat="43.76996" lon="6.98491">
        <ele>618</ele>
        <time>2025-07-15T18:59:28Z</time>
      </trkpt>
      <trkpt lat="43.76969" lon="6.98486">
        <ele>617.4</ele>
        <time>2025-07-15T18:59:31Z</time>
      </trkpt>
      <trkpt lat="43.76957" lon="6.98484">
        <ele>616.8</ele>
        <time>2025-07-15T18:59:32Z</time>
      </trkpt>
      <trkpt lat="43.76948" lon="6.98482">
        <ele>616.8</ele>
        <time>2025-07-15T18:59:33Z</time>
      </trkpt>
      <trkpt lat="43.7693" lon="6.98482">
        <ele>616</ele>
        <time>2025-07-15T18:59:35Z</time>
      </trkpt>
      <trkpt lat="43.76919" lon="6.98484">
        <ele>615.8</ele>
        <time>2025-07-15T18:59:36Z</time>
      </trkpt>
      <trkpt lat="43.76892" lon="6.98491">
        <ele>614.8</ele>
        <time>2025-07-15T18:59:39Z</time>
      </trkpt>
      <trkpt lat="43.76885" lon="6.98495">
        <ele>614.8</ele>
        <time>2025-07-15T18:59:40Z</time>
      </trkpt>
      <trkpt lat="43.76877" lon="6.98501">
        <ele>614.4</ele>
        <time>2025-07-15T18:59:41Z</time>
      </trkpt>
      <trkpt lat="43.7686" lon="6.98517">
        <ele>613.6</ele>
        <time>2025-07-15T18:59:43Z</time>
      </trkpt>
      <trkpt lat="43.76837" lon="6.98531">
        <ele>612.4</ele>
        <time>2025-07-15T18:59:46Z</time>
      </trkpt>
      <trkpt lat="43.76828" lon="6.98538">
        <ele>612.2</ele>
        <time>2025-07-15T18:59:47Z</time>
      </trkpt>
      <trkpt lat="43.76815" lon="6.98555">
        <ele>611</ele>
        <time>2025-07-15T18:59:49Z</time>
      </trkpt>
      <trkpt lat="43.76791" lon="6.98592">
        <ele>610</ele>
        <time>2025-07-15T18:59:53Z</time>
      </trkpt>
      <trkpt lat="43.76784" lon="6.986">
        <ele>609.4</ele>
        <time>2025-07-15T18:59:54Z</time>
      </trkpt>
      <trkpt lat="43.7677" lon="6.98611">
        <ele>608.8</ele>
        <time>2025-07-15T18:59:56Z</time>
      </trkpt>
      <trkpt lat="43.76745" lon="6.98628">
        <ele>608</ele>
        <time>2025-07-15T18:59:59Z</time>
      </trkpt>
      <trkpt lat="43.76738" lon="6.98633">
        <ele>607.8</ele>
        <time>2025-07-15T19:00:00Z</time>
      </trkpt>
      <trkpt lat="43.76723" lon="6.98649">
        <ele>606.8</ele>
        <time>2025-07-15T19:00:02Z</time>
      </trkpt>
      <trkpt lat="43.76717" lon="6.98657">
        <ele>606.6</ele>
        <time>2025-07-15T19:00:03Z</time>
      </trkpt>
      <trkpt lat="43.767" lon="6.98683">
        <ele>606</ele>
        <time>2025-07-15T19:00:06Z</time>
      </trkpt>
      <trkpt lat="43.76691" lon="6.98692">
        <ele>605.4</ele>
        <time>2025-07-15T19:00:08Z</time>
      </trkpt>
      <trkpt lat="43.76676" lon="6.987">
        <ele>605</ele>
        <time>2025-07-15T19:00:09Z</time>
      </trkpt>
      <trkpt lat="43.76658" lon="6.98706">
        <ele>604.2</ele>
        <time>2025-07-15T19:00:11Z</time>
      </trkpt>
      <trkpt lat="43.76624" lon="6.98715">
        <ele>603</ele>
        <time>2025-07-15T19:00:15Z</time>
      </trkpt>
      <trkpt lat="43.76616" lon="6.98715">
        <ele>602.8</ele>
        <time>2025-07-15T19:00:16Z</time>
      </trkpt>
      <trkpt lat="43.76605" lon="6.98714">
        <ele>602.6</ele>
        <time>2025-07-15T19:00:17Z</time>
      </trkpt>
      <trkpt lat="43.76587" lon="6.98709">
        <ele>602</ele>
        <time>2025-07-15T19:00:19Z</time>
      </trkpt>
      <trkpt lat="43.76579" lon="6.98707">
        <ele>601.6</ele>
        <time>2025-07-15T19:00:20Z</time>
      </trkpt>
      <trkpt lat="43.76548" lon="6.98701">
        <ele>600.8</ele>
        <time>2025-07-15T19:00:23Z</time>
      </trkpt>
      <trkpt lat="43.76521" lon="6.987">
        <ele>599.6</ele>
        <time>2025-07-15T19:00:26Z</time>
      </trkpt>
      <trkpt lat="43.76485" lon="6.98709">
        <ele>598.6</ele>
        <time>2025-07-15T19:00:30Z</time>
      </trkpt>
      <trkpt lat="43.76476" lon="6.98713">
        <ele>598.2</ele>
        <time>2025-07-15T19:00:31Z</time>
      </trkpt>
      <trkpt lat="43.76451" lon="6.98736">
        <ele>597.4</ele>
        <time>2025-07-15T19:00:34Z</time>
      </trkpt>
      <trkpt lat="43.76424" lon="6.98773">
        <ele>596.4</ele>
        <time>2025-07-15T19:00:38Z</time>
      </trkpt>
      <trkpt lat="43.76416" lon="6.98781">
        <ele>596</ele>
        <time>2025-07-15T19:00:39Z</time>
      </trkpt>
      <trkpt lat="43.7641" lon="6.98786">
        <ele>595.8</ele>
        <time>2025-07-15T19:00:40Z</time>
      </trkpt>
      <trkpt lat="43.764" lon="6.9879">
        <ele>595.2</ele>
        <time>2025-07-15T19:00:41Z</time>
      </trkpt>
      <trkpt lat="43.76389" lon="6.98794">
        <ele>595</ele>
        <time>2025-07-15T19:00:42Z</time>
      </trkpt>
      <trkpt lat="43.76373" lon="6.98794">
        <ele>594.4</ele>
        <time>2025-07-15T19:00:44Z</time>
      </trkpt>
      <trkpt lat="43.76363" lon="6.98791">
        <ele>594</ele>
        <time>2025-07-15T19:00:45Z</time>
      </trkpt>
      <trkpt lat="43.76344" lon="6.98783">
        <ele>593.4</ele>
        <time>2025-07-15T19:00:47Z</time>
      </trkpt>
      <trkpt lat="43.76329" lon="6.98772">
        <ele>593.2</ele>
        <time>2025-07-15T19:00:49Z</time>
      </trkpt>
      <trkpt lat="43.76322" lon="6.98764">
        <ele>592.8</ele>
        <time>2025-07-15T19:00:50Z</time>
      </trkpt>
      <trkpt lat="43.76314" lon="6.98758">
        <ele>592.6</ele>
        <time>2025-07-15T19:00:51Z</time>
      </trkpt>
      <trkpt lat="43.76297" lon="6.98751">
        <ele>591.8</ele>
        <time>2025-07-15T19:00:53Z</time>
      </trkpt>
      <trkpt lat="43.76286" lon="6.98752">
        <ele>591.6</ele>
        <time>2025-07-15T19:00:54Z</time>
      </trkpt>
      <trkpt lat="43.76279" lon="6.98755">
        <ele>591.2</ele>
        <time>2025-07-15T19:00:55Z</time>
      </trkpt>
      <trkpt lat="43.76271" lon="6.9876">
        <ele>591</ele>
        <time>2025-07-15T19:00:56Z</time>
      </trkpt>
      <trkpt lat="43.76253" lon="6.98772">
        <ele>590.4</ele>
        <time>2025-07-15T19:00:58Z</time>
      </trkpt>
      <trkpt lat="43.76238" lon="6.98781">
        <ele>589.2</ele>
        <time>2025-07-15T19:01:00Z</time>
      </trkpt>
      <trkpt lat="43.7623" lon="6.98786">
        <ele>589</ele>
        <time>2025-07-15T19:01:01Z</time>
      </trkpt>
      <trkpt lat="43.76205" lon="6.98802">
        <ele>587.8</ele>
        <time>2025-07-15T19:01:04Z</time>
      </trkpt>
      <trkpt lat="43.76193" lon="6.98815">
        <ele>587.6</ele>
        <time>2025-07-15T19:01:06Z</time>
      </trkpt>
      <trkpt lat="43.76175" lon="6.98841">
        <ele>586.6</ele>
        <time>2025-07-15T19:01:09Z</time>
      </trkpt>
      <trkpt lat="43.76171" lon="6.98848">
        <ele>586.6</ele>
        <time>2025-07-15T19:01:10Z</time>
      </trkpt>
      <trkpt lat="43.76167" lon="6.98857">
        <ele>586.2</ele>
        <time>2025-07-15T19:01:11Z</time>
      </trkpt>
      <trkpt lat="43.76157" lon="6.98877">
        <ele>585.8</ele>
        <time>2025-07-15T19:01:13Z</time>
      </trkpt>
      <trkpt lat="43.76148" lon="6.98889">
        <ele>585.4</ele>
        <time>2025-07-15T19:01:15Z</time>
      </trkpt>
      <trkpt lat="43.76125" lon="6.98893">
        <ele>584.6</ele>
        <time>2025-07-15T19:01:18Z</time>
      </trkpt>
      <trkpt lat="43.76119" lon="6.9889">
        <ele>584.2</ele>
        <time>2025-07-15T19:01:19Z</time>
      </trkpt>
      <trkpt lat="43.76107" lon="6.98887">
        <ele>583.6</ele>
        <time>2025-07-15T19:01:21Z</time>
      </trkpt>
      <trkpt lat="43.76107" lon="6.98887">
        <ele>583.4</ele>
        <time>2025-07-15T19:01:22Z</time>
      </trkpt>
      <trkpt lat="43.76099" lon="6.98888">
        <ele>583.2</ele>
        <time>2025-07-15T19:01:23Z</time>
      </trkpt>
      <trkpt lat="43.76085" lon="6.98903">
        <ele>583</ele>
        <time>2025-07-15T19:01:25Z</time>
      </trkpt>
      <trkpt lat="43.76077" lon="6.98937">
        <ele>583</ele>
        <time>2025-07-15T19:01:29Z</time>
      </trkpt>
      <trkpt lat="43.76063" lon="6.98974">
        <ele>583.4</ele>
        <time>2025-07-15T19:01:35Z</time>
      </trkpt>
      <trkpt lat="43.76041" lon="6.98995">
        <ele>583.2</ele>
        <time>2025-07-15T19:01:38Z</time>
      </trkpt>
      <trkpt lat="43.76015" lon="6.99012">
        <ele>583</ele>
        <time>2025-07-15T19:01:42Z</time>
      </trkpt>
      <trkpt lat="43.76009" lon="6.99015">
        <ele>583</ele>
        <time>2025-07-15T19:01:43Z</time>
      </trkpt>
      <trkpt lat="43.75984" lon="6.99022">
        <ele>582.4</ele>
        <time>2025-07-15T19:01:47Z</time>
      </trkpt>
      <trkpt lat="43.75977" lon="6.99023">
        <ele>582.4</ele>
        <time>2025-07-15T19:01:48Z</time>
      </trkpt>
      <trkpt lat="43.75969" lon="6.99023">
        <ele>582.2</ele>
        <time>2025-07-15T19:01:49Z</time>
      </trkpt>
      <trkpt lat="43.75942" lon="6.99018">
        <ele>581.8</ele>
        <time>2025-07-15T19:01:53Z</time>
      </trkpt>
      <trkpt lat="43.75915" lon="6.99016">
        <ele>581.6</ele>
        <time>2025-07-15T19:01:57Z</time>
      </trkpt>
      <trkpt lat="43.759" lon="6.99017">
        <ele>581.8</ele>
        <time>2025-07-15T19:01:59Z</time>
      </trkpt>
      <trkpt lat="43.75862" lon="6.99016">
        <ele>581.2</ele>
        <time>2025-07-15T19:02:05Z</time>
      </trkpt>
      <trkpt lat="43.75855" lon="6.99015">
        <ele>581.2</ele>
        <time>2025-07-15T19:02:06Z</time>
      </trkpt>
      <trkpt lat="43.75808" lon="6.99009">
        <ele>580.4</ele>
        <time>2025-07-15T19:02:13Z</time>
      </trkpt>
      <trkpt lat="43.75799" lon="6.99008">
        <ele>580.4</ele>
        <time>2025-07-15T19:02:14Z</time>
      </trkpt>
      <trkpt lat="43.75788" lon="6.99008">
        <ele>580.4</ele>
        <time>2025-07-15T19:02:17Z</time>
      </trkpt>
      <trkpt lat="43.75769" lon="6.99006">
        <ele>580.2</ele>
        <time>2025-07-15T19:02:19Z</time>
      </trkpt>
      <trkpt lat="43.75741" lon="6.99004">
        <ele>580</ele>
        <time>2025-07-15T19:02:23Z</time>
      </trkpt>
      <trkpt lat="43.75696" lon="6.99001">
        <ele>579.4</ele>
        <time>2025-07-15T19:02:29Z</time>
      </trkpt>
      <trkpt lat="43.75686" lon="6.99001">
        <ele>578.8</ele>
        <time>2025-07-15T19:02:30Z</time>
      </trkpt>
      <trkpt lat="43.7566" lon="6.99003">
        <ele>578.2</ele>
        <time>2025-07-15T19:02:33Z</time>
      </trkpt>
      <trkpt lat="43.75652" lon="6.99005">
        <ele>577.8</ele>
        <time>2025-07-15T19:02:34Z</time>
      </trkpt>
      <trkpt lat="43.75626" lon="6.99009">
        <ele>576.8</ele>
        <time>2025-07-15T19:02:37Z</time>
      </trkpt>
      <trkpt lat="43.75591" lon="6.99018">
        <ele>576</ele>
        <time>2025-07-15T19:02:42Z</time>
      </trkpt>
      <trkpt lat="43.75556" lon="6.99039">
        <ele>575.8</ele>
        <time>2025-07-15T19:02:46Z</time>
      </trkpt>
      <trkpt lat="43.75544" lon="6.99053">
        <ele>575.8</ele>
        <time>2025-07-15T19:02:48Z</time>
      </trkpt>
      <trkpt lat="43.75518" lon="6.9908">
        <ele>575.6</ele>
        <time>2025-07-15T19:02:52Z</time>
      </trkpt>
      <trkpt lat="43.75495" lon="6.99095">
        <ele>575.4</ele>
        <time>2025-07-15T19:02:55Z</time>
      </trkpt>
      <trkpt lat="43.75487" lon="6.99096">
        <ele>575.2</ele>
        <time>2025-07-15T19:02:56Z</time>
      </trkpt>
      <trkpt lat="43.75479" lon="6.99097">
        <ele>575</ele>
        <time>2025-07-15T19:02:57Z</time>
      </trkpt>
      <trkpt lat="43.7547" lon="6.99096">
        <ele>574.8</ele>
        <time>2025-07-15T19:02:58Z</time>
      </trkpt>
      <trkpt lat="43.75451" lon="6.99095">
        <ele>574.6</ele>
        <time>2025-07-15T19:03:00Z</time>
      </trkpt>
      <trkpt lat="43.75426" lon="6.99095">
        <ele>574</ele>
        <time>2025-07-15T19:03:03Z</time>
      </trkpt>
      <trkpt lat="43.75416" lon="6.99097">
        <ele>573.8</ele>
        <time>2025-07-15T19:03:04Z</time>
      </trkpt>
      <trkpt lat="43.75409" lon="6.991">
        <ele>573.6</ele>
        <time>2025-07-15T19:03:05Z</time>
      </trkpt>
      <trkpt lat="43.75386" lon="6.99113">
        <ele>573.2</ele>
        <time>2025-07-15T19:03:08Z</time>
      </trkpt>
      <trkpt lat="43.75371" lon="6.99125">
        <ele>573</ele>
        <time>2025-07-15T19:03:10Z</time>
      </trkpt>
      <trkpt lat="43.75349" lon="6.99142">
        <ele>572.8</ele>
        <time>2025-07-15T19:03:13Z</time>
      </trkpt>
      <trkpt lat="43.75316" lon="6.99165">
        <ele>572</ele>
        <time>2025-07-15T19:03:17Z</time>
      </trkpt>
      <trkpt lat="43.75299" lon="6.99178">
        <ele>571.6</ele>
        <time>2025-07-15T19:03:19Z</time>
      </trkpt>
      <trkpt lat="43.75285" lon="6.99196">
        <ele>570.4</ele>
        <time>2025-07-15T19:03:21Z</time>
      </trkpt>
      <trkpt lat="43.75259" lon="6.99236">
        <ele>569.2</ele>
        <time>2025-07-15T19:03:25Z</time>
      </trkpt>
      <trkpt lat="43.75235" lon="6.99273">
        <ele>568</ele>
        <time>2025-07-15T19:03:29Z</time>
      </trkpt>
      <trkpt lat="43.75229" lon="6.99285">
        <ele>567.8</ele>
        <time>2025-07-15T19:03:30Z</time>
      </trkpt>
      <trkpt lat="43.75219" lon="6.99316">
        <ele>566.8</ele>
        <time>2025-07-15T19:03:33Z</time>
      </trkpt>
      <trkpt lat="43.75214" lon="6.99326">
        <ele>566.4</ele>
        <time>2025-07-15T19:03:34Z</time>
      </trkpt>
      <trkpt lat="43.75209" lon="6.99334">
        <ele>566.4</ele>
        <time>2025-07-15T19:03:35Z</time>
      </trkpt>
      <trkpt lat="43.75195" lon="6.99347">
        <ele>566</ele>
        <time>2025-07-15T19:03:37Z</time>
      </trkpt>
      <trkpt lat="43.75178" lon="6.99347">
        <ele>565.8</ele>
        <time>2025-07-15T19:03:39Z</time>
      </trkpt>
      <trkpt lat="43.75167" lon="6.99346">
        <ele>565.4</ele>
        <time>2025-07-15T19:03:40Z</time>
      </trkpt>
      <trkpt lat="43.75128" lon="6.99341">
        <ele>564.6</ele>
        <time>2025-07-15T19:03:44Z</time>
      </trkpt>
      <trkpt lat="43.75111" lon="6.9934">
        <ele>563.6</ele>
        <time>2025-07-15T19:03:46Z</time>
      </trkpt>
      <trkpt lat="43.75101" lon="6.99342">
        <ele>563</ele>
        <time>2025-07-15T19:03:47Z</time>
      </trkpt>
      <trkpt lat="43.7509" lon="6.99348">
        <ele>562.6</ele>
        <time>2025-07-15T19:03:48Z</time>
      </trkpt>
      <trkpt lat="43.75075" lon="6.99364">
        <ele>561.6</ele>
        <time>2025-07-15T19:03:50Z</time>
      </trkpt>
      <trkpt lat="43.75071" lon="6.99372">
        <ele>561.4</ele>
        <time>2025-07-15T19:03:51Z</time>
      </trkpt>
      <trkpt lat="43.75065" lon="6.99384">
        <ele>560.8</ele>
        <time>2025-07-15T19:03:52Z</time>
      </trkpt>
      <trkpt lat="43.75061" lon="6.99398">
        <ele>560.2</ele>
        <time>2025-07-15T19:03:53Z</time>
      </trkpt>
      <trkpt lat="43.75058" lon="6.99412">
        <ele>559.8</ele>
        <time>2025-07-15T19:03:54Z</time>
      </trkpt>
      <trkpt lat="43.75053" lon="6.99442">
        <ele>559.2</ele>
        <time>2025-07-15T19:03:56Z</time>
      </trkpt>
      <trkpt lat="43.75049" lon="6.99475">
        <ele>558</ele>
        <time>2025-07-15T19:03:58Z</time>
      </trkpt>
      <trkpt lat="43.75048" lon="6.99491">
        <ele>557.2</ele>
        <time>2025-07-15T19:03:59Z</time>
      </trkpt>
      <trkpt lat="43.75049" lon="6.99506">
        <ele>556.4</ele>
        <time>2025-07-15T19:04:00Z</time>
      </trkpt>
      <trkpt lat="43.75053" lon="6.99532">
        <ele>555.4</ele>
        <time>2025-07-15T19:04:02Z</time>
      </trkpt>
      <trkpt lat="43.75064" lon="6.99559">
        <ele>554.2</ele>
        <time>2025-07-15T19:04:04Z</time>
      </trkpt>
      <trkpt lat="43.75066" lon="6.99568">
        <ele>553.6</ele>
        <time>2025-07-15T19:04:05Z</time>
      </trkpt>
      <trkpt lat="43.75069" lon="6.99581">
        <ele>552.8</ele>
        <time>2025-07-15T19:04:06Z</time>
      </trkpt>
      <trkpt lat="43.75069" lon="6.99594">
        <ele>552</ele>
        <time>2025-07-15T19:04:07Z</time>
      </trkpt>
      <trkpt lat="43.75067" lon="6.99607">
        <ele>551.6</ele>
        <time>2025-07-15T19:04:08Z</time>
      </trkpt>
      <trkpt lat="43.75063" lon="6.99619">
        <ele>550.4</ele>
        <time>2025-07-15T19:04:09Z</time>
      </trkpt>
      <trkpt lat="43.75052" lon="6.99636">
        <ele>549.4</ele>
        <time>2025-07-15T19:04:11Z</time>
      </trkpt>
      <trkpt lat="43.75032" lon="6.99642">
        <ele>547.8</ele>
        <time>2025-07-15T19:04:13Z</time>
      </trkpt>
      <trkpt lat="43.75018" lon="6.99644">
        <ele>547</ele>
        <time>2025-07-15T19:04:14Z</time>
      </trkpt>
      <trkpt lat="43.75005" lon="6.99645">
        <ele>546.6</ele>
        <time>2025-07-15T19:04:15Z</time>
      </trkpt>
      <trkpt lat="43.74983" lon="6.99648">
        <ele>545.4</ele>
        <time>2025-07-15T19:04:17Z</time>
      </trkpt>
      <trkpt lat="43.74956" lon="6.99651">
        <ele>543.6</ele>
        <time>2025-07-15T19:04:19Z</time>
      </trkpt>
      <trkpt lat="43.74935" lon="6.99653">
        <ele>541.8</ele>
        <time>2025-07-15T19:04:21Z</time>
      </trkpt>
      <trkpt lat="43.74923" lon="6.99652">
        <ele>541.2</ele>
        <time>2025-07-15T19:04:22Z</time>
      </trkpt>
      <trkpt lat="43.74911" lon="6.99649">
        <ele>540.2</ele>
        <time>2025-07-15T19:04:23Z</time>
      </trkpt>
      <trkpt lat="43.74898" lon="6.99645">
        <ele>539.8</ele>
        <time>2025-07-15T19:04:24Z</time>
      </trkpt>
      <trkpt lat="43.74886" lon="6.99641">
        <ele>539</ele>
        <time>2025-07-15T19:04:25Z</time>
      </trkpt>
      <trkpt lat="43.74876" lon="6.99638">
        <ele>538.2</ele>
        <time>2025-07-15T19:04:26Z</time>
      </trkpt>
      <trkpt lat="43.74865" lon="6.99635">
        <ele>537.8</ele>
        <time>2025-07-15T19:04:27Z</time>
      </trkpt>
      <trkpt lat="43.7484" lon="6.99641">
        <ele>536.2</ele>
        <time>2025-07-15T19:04:29Z</time>
      </trkpt>
      <trkpt lat="43.7483" lon="6.99646">
        <ele>535</ele>
        <time>2025-07-15T19:04:30Z</time>
      </trkpt>
      <trkpt lat="43.74814" lon="6.99665">
        <ele>533.6</ele>
        <time>2025-07-15T19:04:32Z</time>
      </trkpt>
      <trkpt lat="43.74807" lon="6.99678">
        <ele>532.8</ele>
        <time>2025-07-15T19:04:33Z</time>
      </trkpt>
      <trkpt lat="43.74803" lon="6.99692">
        <ele>532.4</ele>
        <time>2025-07-15T19:04:34Z</time>
      </trkpt>
      <trkpt lat="43.74801" lon="6.99702">
        <ele>531.4</ele>
        <time>2025-07-15T19:04:35Z</time>
      </trkpt>
      <trkpt lat="43.74796" lon="6.99729">
        <ele>530.6</ele>
        <time>2025-07-15T19:04:37Z</time>
      </trkpt>
      <trkpt lat="43.74792" lon="6.99742">
        <ele>529.4</ele>
        <time>2025-07-15T19:04:38Z</time>
      </trkpt>
      <trkpt lat="43.74787" lon="6.9975">
        <ele>529</ele>
        <time>2025-07-15T19:04:39Z</time>
      </trkpt>
      <trkpt lat="43.74779" lon="6.99762">
        <ele>527.8</ele>
        <time>2025-07-15T19:04:40Z</time>
      </trkpt>
      <trkpt lat="43.74773" lon="6.99768">
        <ele>527.2</ele>
        <time>2025-07-15T19:04:41Z</time>
      </trkpt>
      <trkpt lat="43.74766" lon="6.99776">
        <ele>526.2</ele>
        <time>2025-07-15T19:04:42Z</time>
      </trkpt>
      <trkpt lat="43.74757" lon="6.99782">
        <ele>525.6</ele>
        <time>2025-07-15T19:04:43Z</time>
      </trkpt>
      <trkpt lat="43.74749" lon="6.99788">
        <ele>524.6</ele>
        <time>2025-07-15T19:04:44Z</time>
      </trkpt>
      <trkpt lat="43.74731" lon="6.998">
        <ele>523.6</ele>
        <time>2025-07-15T19:04:46Z</time>
      </trkpt>
      <trkpt lat="43.74611" lon="6.9987">
        <ele>515.4</ele>
        <time>2025-07-15T19:04:58Z</time>
      </trkpt>
      <trkpt lat="43.74602" lon="6.99876">
        <ele>514.4</ele>
        <time>2025-07-15T19:04:59Z</time>
      </trkpt>
      <trkpt lat="43.74591" lon="6.99884">
        <ele>514</ele>
        <time>2025-07-15T19:05:00Z</time>
      </trkpt>
      <trkpt lat="43.7458" lon="6.99888">
        <ele>513</ele>
        <time>2025-07-15T19:05:01Z</time>
      </trkpt>
      <trkpt lat="43.74557" lon="6.99892">
        <ele>511.8</ele>
        <time>2025-07-15T19:05:03Z</time>
      </trkpt>
      <trkpt lat="43.74531" lon="6.99899">
        <ele>510.6</ele>
        <time>2025-07-15T19:05:05Z</time>
      </trkpt>
      <trkpt lat="43.74523" lon="6.99902">
        <ele>509.8</ele>
        <time>2025-07-15T19:05:06Z</time>
      </trkpt>
      <trkpt lat="43.74513" lon="6.99907">
        <ele>509.2</ele>
        <time>2025-07-15T19:05:07Z</time>
      </trkpt>
      <trkpt lat="43.74503" lon="6.99913">
        <ele>508</ele>
        <time>2025-07-15T19:05:08Z</time>
      </trkpt>
      <trkpt lat="43.74492" lon="6.99917">
        <ele>507.8</ele>
        <time>2025-07-15T19:05:09Z</time>
      </trkpt>
      <trkpt lat="43.74478" lon="6.9992">
        <ele>506.8</ele>
        <time>2025-07-15T19:05:10Z</time>
      </trkpt>
      <trkpt lat="43.74444" lon="6.9992">
        <ele>505.2</ele>
        <time>2025-07-15T19:05:13Z</time>
      </trkpt>
      <trkpt lat="43.7443" lon="6.99921">
        <ele>504.8</ele>
        <time>2025-07-15T19:05:14Z</time>
      </trkpt>
      <trkpt lat="43.74421" lon="6.99922">
        <ele>503.8</ele>
        <time>2025-07-15T19:05:15Z</time>
      </trkpt>
      <trkpt lat="43.7441" lon="6.99922">
        <ele>503.4</ele>
        <time>2025-07-15T19:05:16Z</time>
      </trkpt>
      <trkpt lat="43.74387" lon="6.99911">
        <ele>502</ele>
        <time>2025-07-15T19:05:18Z</time>
      </trkpt>
      <trkpt lat="43.74365" lon="6.99903">
        <ele>500.4</ele>
        <time>2025-07-15T19:05:20Z</time>
      </trkpt>
      <trkpt lat="43.74357" lon="6.99903">
        <ele>499.6</ele>
        <time>2025-07-15T19:05:21Z</time>
      </trkpt>
      <trkpt lat="43.74346" lon="6.99906">
        <ele>498.4</ele>
        <time>2025-07-15T19:05:22Z</time>
      </trkpt>
      <trkpt lat="43.74333" lon="6.99908">
        <ele>497.2</ele>
        <time>2025-07-15T19:05:23Z</time>
      </trkpt>
      <trkpt lat="43.74324" lon="6.99908">
        <ele>496.6</ele>
        <time>2025-07-15T19:05:24Z</time>
      </trkpt>
      <trkpt lat="43.74312" lon="6.99907">
        <ele>495.6</ele>
        <time>2025-07-15T19:05:25Z</time>
      </trkpt>
      <trkpt lat="43.74304" lon="6.99908">
        <ele>495.2</ele>
        <time>2025-07-15T19:05:26Z</time>
      </trkpt>
      <trkpt lat="43.74296" lon="6.99911">
        <ele>494.4</ele>
        <time>2025-07-15T19:05:27Z</time>
      </trkpt>
      <trkpt lat="43.74286" lon="6.99918">
        <ele>493.6</ele>
        <time>2025-07-15T19:05:28Z</time>
      </trkpt>
      <trkpt lat="43.7428" lon="6.99927">
        <ele>492.8</ele>
        <time>2025-07-15T19:05:29Z</time>
      </trkpt>
      <trkpt lat="43.74276" lon="6.99939">
        <ele>491.8</ele>
        <time>2025-07-15T19:05:30Z</time>
      </trkpt>
      <trkpt lat="43.74268" lon="6.9996">
        <ele>490.4</ele>
        <time>2025-07-15T19:05:32Z</time>
      </trkpt>
      <trkpt lat="43.74253" lon="6.99975">
        <ele>489.4</ele>
        <time>2025-07-15T19:05:34Z</time>
      </trkpt>
      <trkpt lat="43.74245" lon="6.99979">
        <ele>489.2</ele>
        <time>2025-07-15T19:05:35Z</time>
      </trkpt>
      <trkpt lat="43.74237" lon="6.99982">
        <ele>488.6</ele>
        <time>2025-07-15T19:05:36Z</time>
      </trkpt>
      <trkpt lat="43.74221" lon="6.99988">
        <ele>488.2</ele>
        <time>2025-07-15T19:05:38Z</time>
      </trkpt>
      <trkpt lat="43.74205" lon="6.99995">
        <ele>487.8</ele>
        <time>2025-07-15T19:05:40Z</time>
      </trkpt>
      <trkpt lat="43.74193" lon="7.00001">
        <ele>487.6</ele>
        <time>2025-07-15T19:05:42Z</time>
      </trkpt>
      <trkpt lat="43.74178" lon="7.00005">
        <ele>487.4</ele>
        <time>2025-07-15T19:05:44Z</time>
      </trkpt>
      <trkpt lat="43.74166" lon="7.00007">
        <ele>487.2</ele>
        <time>2025-07-15T19:05:46Z</time>
      </trkpt>
      <trkpt lat="43.74155" lon="7.00011">
        <ele>486.8</ele>
        <time>2025-07-15T19:05:48Z</time>
      </trkpt>
      <trkpt lat="43.74117" lon="7.00021">
        <ele>486.2</ele>
        <time>2025-07-15T19:05:53Z</time>
      </trkpt>
      <trkpt lat="43.74099" lon="7.00028">
        <ele>486</ele>
        <time>2025-07-15T19:05:55Z</time>
      </trkpt>
      <trkpt lat="43.74093" lon="7.00031">
        <ele>485.4</ele>
        <time>2025-07-15T19:05:56Z</time>
      </trkpt>
      <trkpt lat="43.74085" lon="7.00034">
        <ele>485.2</ele>
        <time>2025-07-15T19:05:57Z</time>
      </trkpt>
      <trkpt lat="43.74069" lon="7.00035">
        <ele>484.6</ele>
        <time>2025-07-15T19:05:59Z</time>
      </trkpt>
      <trkpt lat="43.74061" lon="7.00032">
        <ele>484</ele>
        <time>2025-07-15T19:06:00Z</time>
      </trkpt>
      <trkpt lat="43.74046" lon="7.00029">
        <ele>483.4</ele>
        <time>2025-07-15T19:06:02Z</time>
      </trkpt>
      <trkpt lat="43.74037" lon="7.0003">
        <ele>482.6</ele>
        <time>2025-07-15T19:06:03Z</time>
      </trkpt>
      <trkpt lat="43.74011" lon="7.00037">
        <ele>481.2</ele>
        <time>2025-07-15T19:06:06Z</time>
      </trkpt>
      <trkpt lat="43.73983" lon="7.00042">
        <ele>480</ele>
        <time>2025-07-15T19:06:09Z</time>
      </trkpt>
      <trkpt lat="43.73934" lon="7.00042">
        <ele>478</ele>
        <time>2025-07-15T19:06:14Z</time>
      </trkpt>
      <trkpt lat="43.73924" lon="7.0004">
        <ele>476.8</ele>
        <time>2025-07-15T19:06:15Z</time>
      </trkpt>
      <trkpt lat="43.73905" lon="7.00037">
        <ele>475.4</ele>
        <time>2025-07-15T19:06:17Z</time>
      </trkpt>
      <trkpt lat="43.73872" lon="7.00032">
        <ele>473.8</ele>
        <time>2025-07-15T19:06:20Z</time>
      </trkpt>
      <trkpt lat="43.73863" lon="7.00031">
        <ele>473.2</ele>
        <time>2025-07-15T19:06:21Z</time>
      </trkpt>
      <trkpt lat="43.73853" lon="7.0003">
        <ele>472.4</ele>
        <time>2025-07-15T19:06:22Z</time>
      </trkpt>
      <trkpt lat="43.73831" lon="7.00024">
        <ele>471</ele>
        <time>2025-07-15T19:06:24Z</time>
      </trkpt>
      <trkpt lat="43.73517" lon="6.99879">
        <ele>451</ele>
        <time>2025-07-15T19:06:55Z</time>
      </trkpt>
      <trkpt lat="43.73508" lon="6.99885">
        <ele>450.4</ele>
        <time>2025-07-15T19:06:56Z</time>
      </trkpt>
      <trkpt lat="43.73497" lon="6.99889">
        <ele>449.6</ele>
        <time>2025-07-15T19:06:57Z</time>
      </trkpt>
      <trkpt lat="43.7347" lon="6.99896">
        <ele>448.2</ele>
        <time>2025-07-15T19:06:59Z</time>
      </trkpt>
      <trkpt lat="43.73456" lon="6.99896">
        <ele>447.6</ele>
        <time>2025-07-15T19:07:00Z</time>
      </trkpt>
      <trkpt lat="43.73445" lon="6.99896">
        <ele>447</ele>
        <time>2025-07-15T19:07:01Z</time>
      </trkpt>
      <trkpt lat="43.73421" lon="6.99895">
        <ele>445.8</ele>
        <time>2025-07-15T19:07:03Z</time>
      </trkpt>
      <trkpt lat="43.73397" lon="6.99896">
        <ele>444.2</ele>
        <time>2025-07-15T19:07:05Z</time>
      </trkpt>
      <trkpt lat="43.73387" lon="6.99894">
        <ele>443.2</ele>
        <time>2025-07-15T19:07:06Z</time>
      </trkpt>
      <trkpt lat="43.73376" lon="6.99891">
        <ele>442.2</ele>
        <time>2025-07-15T19:07:07Z</time>
      </trkpt>
      <trkpt lat="43.73366" lon="6.9989">
        <ele>441.8</ele>
        <time>2025-07-15T19:07:08Z</time>
      </trkpt>
      <trkpt lat="43.73357" lon="6.99892">
        <ele>441</ele>
        <time>2025-07-15T19:07:09Z</time>
      </trkpt>
      <trkpt lat="43.73337" lon="6.99899">
        <ele>439.2</ele>
        <time>2025-07-15T19:07:11Z</time>
      </trkpt>
      <trkpt lat="43.73315" lon="6.99902">
        <ele>438.2</ele>
        <time>2025-07-15T19:07:13Z</time>
      </trkpt>
      <trkpt lat="43.73304" lon="6.99902">
        <ele>437.4</ele>
        <time>2025-07-15T19:07:14Z</time>
      </trkpt>
      <trkpt lat="43.73284" lon="6.99899">
        <ele>436</ele>
        <time>2025-07-15T19:07:16Z</time>
      </trkpt>
      <trkpt lat="43.73253" lon="6.99894">
        <ele>434.6</ele>
        <time>2025-07-15T19:07:19Z</time>
      </trkpt>
      <trkpt lat="43.73242" lon="6.9989">
        <ele>433.4</ele>
        <time>2025-07-15T19:07:20Z</time>
      </trkpt>
      <trkpt lat="43.73212" lon="6.99878">
        <ele>432</ele>
        <time>2025-07-15T19:07:23Z</time>
      </trkpt>
      <trkpt lat="43.73195" lon="6.9987">
        <ele>430.6</ele>
        <time>2025-07-15T19:07:25Z</time>
      </trkpt>
      <trkpt lat="43.73165" lon="6.99853">
        <ele>429.2</ele>
        <time>2025-07-15T19:07:28Z</time>
      </trkpt>
      <trkpt lat="43.73157" lon="6.9985">
        <ele>428.6</ele>
        <time>2025-07-15T19:07:29Z</time>
      </trkpt>
      <trkpt lat="43.73145" lon="6.99847">
        <ele>427.6</ele>
        <time>2025-07-15T19:07:30Z</time>
      </trkpt>
      <trkpt lat="43.73124" lon="6.99842">
        <ele>426</ele>
        <time>2025-07-15T19:07:32Z</time>
      </trkpt>
      <trkpt lat="43.73114" lon="6.99839">
        <ele>425.2</ele>
        <time>2025-07-15T19:07:33Z</time>
      </trkpt>
      <trkpt lat="43.73103" lon="6.99836">
        <ele>424.8</ele>
        <time>2025-07-15T19:07:34Z</time>
      </trkpt>
      <trkpt lat="43.73093" lon="6.9983">
        <ele>424</ele>
        <time>2025-07-15T19:07:35Z</time>
      </trkpt>
      <trkpt lat="43.73083" lon="6.99824">
        <ele>423.6</ele>
        <time>2025-07-15T19:07:36Z</time>
      </trkpt>
      <trkpt lat="43.73073" lon="6.99816">
        <ele>422.6</ele>
        <time>2025-07-15T19:07:37Z</time>
      </trkpt>
      <trkpt lat="43.73055" lon="6.99799">
        <ele>421</ele>
        <time>2025-07-15T19:07:39Z</time>
      </trkpt>
      <trkpt lat="43.73039" lon="6.99781">
        <ele>420</ele>
        <time>2025-07-15T19:07:41Z</time>
      </trkpt>
      <trkpt lat="43.7303" lon="6.99773">
        <ele>419.2</ele>
        <time>2025-07-15T19:07:42Z</time>
      </trkpt>
      <trkpt lat="43.73021" lon="6.99767">
        <ele>418.6</ele>
        <time>2025-07-15T19:07:43Z</time>
      </trkpt>
      <trkpt lat="43.73003" lon="6.9976">
        <ele>417.2</ele>
        <time>2025-07-15T19:07:45Z</time>
      </trkpt>
      <trkpt lat="43.72991" lon="6.99755">
        <ele>416.2</ele>
        <time>2025-07-15T19:07:46Z</time>
      </trkpt>
      <trkpt lat="43.7297" lon="6.99746">
        <ele>414.8</ele>
        <time>2025-07-15T19:07:48Z</time>
      </trkpt>
      <trkpt lat="43.72948" lon="6.99737">
        <ele>413.8</ele>
        <time>2025-07-15T19:07:50Z</time>
      </trkpt>
      <trkpt lat="43.72938" lon="6.99734">
        <ele>412.8</ele>
        <time>2025-07-15T19:07:51Z</time>
      </trkpt>
      <trkpt lat="43.72927" lon="6.99729">
        <ele>412.2</ele>
        <time>2025-07-15T19:07:52Z</time>
      </trkpt>
      <trkpt lat="43.72915" lon="6.99724">
        <ele>411.8</ele>
        <time>2025-07-15T19:07:53Z</time>
      </trkpt>
      <trkpt lat="43.72904" lon="6.99719">
        <ele>410.6</ele>
        <time>2025-07-15T19:07:54Z</time>
      </trkpt>
      <trkpt lat="43.7288" lon="6.99712">
        <ele>409.2</ele>
        <time>2025-07-15T19:07:56Z</time>
      </trkpt>
      <trkpt lat="43.72869" lon="6.9971">
        <ele>408.6</ele>
        <time>2025-07-15T19:07:57Z</time>
      </trkpt>
      <trkpt lat="43.72857" lon="6.99709">
        <ele>407.8</ele>
        <time>2025-07-15T19:07:58Z</time>
      </trkpt>
      <trkpt lat="43.72831" lon="6.99707">
        <ele>406.4</ele>
        <time>2025-07-15T19:08:00Z</time>
      </trkpt>
      <trkpt lat="43.72819" lon="6.99705">
        <ele>405.6</ele>
        <time>2025-07-15T19:08:01Z</time>
      </trkpt>
      <trkpt lat="43.72807" lon="6.99703">
        <ele>405.2</ele>
        <time>2025-07-15T19:08:02Z</time>
      </trkpt>
      <trkpt lat="43.72786" lon="6.997">
        <ele>404</ele>
        <time>2025-07-15T19:08:04Z</time>
      </trkpt>
      <trkpt lat="43.72775" lon="6.997">
        <ele>402.4</ele>
        <time>2025-07-15T19:08:05Z</time>
      </trkpt>
      <trkpt lat="43.72762" lon="6.99703">
        <ele>401</ele>
        <time>2025-07-15T19:08:06Z</time>
      </trkpt>
      <trkpt lat="43.72752" lon="6.99708">
        <ele>400.4</ele>
        <time>2025-07-15T19:08:07Z</time>
      </trkpt>
      <trkpt lat="43.72743" lon="6.99716">
        <ele>399.6</ele>
        <time>2025-07-15T19:08:08Z</time>
      </trkpt>
      <trkpt lat="43.72736" lon="6.99724">
        <ele>398.8</ele>
        <time>2025-07-15T19:08:09Z</time>
      </trkpt>
      <trkpt lat="43.72728" lon="6.99732">
        <ele>397.8</ele>
        <time>2025-07-15T19:08:10Z</time>
      </trkpt>
      <trkpt lat="43.72721" lon="6.99738">
        <ele>397.2</ele>
        <time>2025-07-15T19:08:11Z</time>
      </trkpt>
      <trkpt lat="43.72712" lon="6.99741">
        <ele>396.2</ele>
        <time>2025-07-15T19:08:12Z</time>
      </trkpt>
      <trkpt lat="43.72704" lon="6.99741">
        <ele>395.2</ele>
        <time>2025-07-15T19:08:13Z</time>
      </trkpt>
      <trkpt lat="43.72696" lon="6.99738">
        <ele>394.8</ele>
        <time>2025-07-15T19:08:14Z</time>
      </trkpt>
      <trkpt lat="43.72686" lon="6.99732">
        <ele>393.8</ele>
        <time>2025-07-15T19:08:15Z</time>
      </trkpt>
      <trkpt lat="43.72675" lon="6.99725">
        <ele>393.4</ele>
        <time>2025-07-15T19:08:16Z</time>
      </trkpt>
      <trkpt lat="43.72657" lon="6.99718">
        <ele>392.6</ele>
        <time>2025-07-15T19:08:18Z</time>
      </trkpt>
      <trkpt lat="43.72646" lon="6.99716">
        <ele>392.2</ele>
        <time>2025-07-15T19:08:19Z</time>
      </trkpt>
      <trkpt lat="43.72615" lon="6.99706">
        <ele>390.8</ele>
        <time>2025-07-15T19:08:22Z</time>
      </trkpt>
      <trkpt lat="43.72595" lon="6.99694">
        <ele>389</ele>
        <time>2025-07-15T19:08:24Z</time>
      </trkpt>
      <trkpt lat="43.72576" lon="6.9968">
        <ele>388</ele>
        <time>2025-07-15T19:08:26Z</time>
      </trkpt>
      <trkpt lat="43.72567" lon="6.99671">
        <ele>387.4</ele>
        <time>2025-07-15T19:08:27Z</time>
      </trkpt>
      <trkpt lat="43.72559" lon="6.99662">
        <ele>387</ele>
        <time>2025-07-15T19:08:28Z</time>
      </trkpt>
      <trkpt lat="43.72551" lon="6.99652">
        <ele>386.2</ele>
        <time>2025-07-15T19:08:29Z</time>
      </trkpt>
      <trkpt lat="43.72544" lon="6.9964">
        <ele>385.6</ele>
        <time>2025-07-15T19:08:30Z</time>
      </trkpt>
      <trkpt lat="43.72536" lon="6.99629">
        <ele>384.8</ele>
        <time>2025-07-15T19:08:31Z</time>
      </trkpt>
      <trkpt lat="43.72529" lon="6.99617">
        <ele>384.2</ele>
        <time>2025-07-15T19:08:32Z</time>
      </trkpt>
      <trkpt lat="43.72513" lon="6.99595">
        <ele>382.8</ele>
        <time>2025-07-15T19:08:34Z</time>
      </trkpt>
      <trkpt lat="43.72485" lon="6.99563">
        <ele>381.8</ele>
        <time>2025-07-15T19:08:37Z</time>
      </trkpt>
      <trkpt lat="43.72467" lon="6.99544">
        <ele>380</ele>
        <time>2025-07-15T19:08:39Z</time>
      </trkpt>
      <trkpt lat="43.72448" lon="6.99525">
        <ele>378.4</ele>
        <time>2025-07-15T19:08:41Z</time>
      </trkpt>
      <trkpt lat="43.7243" lon="6.99505">
        <ele>377.2</ele>
        <time>2025-07-15T19:08:43Z</time>
      </trkpt>
      <trkpt lat="43.72422" lon="6.99494">
        <ele>377</ele>
        <time>2025-07-15T19:08:44Z</time>
      </trkpt>
      <trkpt lat="43.72422" lon="6.99494">
        <ele>376.2</ele>
        <time>2025-07-15T19:08:45Z</time>
      </trkpt>
      <trkpt lat="43.72404" lon="6.99476">
        <ele>375</ele>
        <time>2025-07-15T19:08:46Z</time>
      </trkpt>
      <trkpt lat="43.72395" lon="6.9947">
        <ele>374.6</ele>
        <time>2025-07-15T19:08:47Z</time>
      </trkpt>
      <trkpt lat="43.72385" lon="6.99466">
        <ele>374</ele>
        <time>2025-07-15T19:08:48Z</time>
      </trkpt>
      <trkpt lat="43.72364" lon="6.99466">
        <ele>373</ele>
        <time>2025-07-15T19:08:50Z</time>
      </trkpt>
      <trkpt lat="43.72353" lon="6.99467">
        <ele>372</ele>
        <time>2025-07-15T19:08:51Z</time>
      </trkpt>
      <trkpt lat="43.72321" lon="6.99469">
        <ele>370.6</ele>
        <time>2025-07-15T19:08:54Z</time>
      </trkpt>
      <trkpt lat="43.72308" lon="6.99468">
        <ele>370.2</ele>
        <time>2025-07-15T19:08:55Z</time>
      </trkpt>
      <trkpt lat="43.72288" lon="6.99461">
        <ele>369.2</ele>
        <time>2025-07-15T19:08:57Z</time>
      </trkpt>
      <trkpt lat="43.72269" lon="6.99448">
        <ele>367.8</ele>
        <time>2025-07-15T19:08:59Z</time>
      </trkpt>
      <trkpt lat="43.7226" lon="6.99441">
        <ele>366.8</ele>
        <time>2025-07-15T19:09:00Z</time>
      </trkpt>
      <trkpt lat="43.72241" lon="6.99425">
        <ele>365.6</ele>
        <time>2025-07-15T19:09:02Z</time>
      </trkpt>
      <trkpt lat="43.72224" lon="6.99411">
        <ele>364.4</ele>
        <time>2025-07-15T19:09:04Z</time>
      </trkpt>
      <trkpt lat="43.72194" lon="6.99387">
        <ele>363</ele>
        <time>2025-07-15T19:09:07Z</time>
      </trkpt>
      <trkpt lat="43.72164" lon="6.99364">
        <ele>361.8</ele>
        <time>2025-07-15T19:09:10Z</time>
      </trkpt>
      <trkpt lat="43.72145" lon="6.99351">
        <ele>360.4</ele>
        <time>2025-07-15T19:09:12Z</time>
      </trkpt>
      <trkpt lat="43.72137" lon="6.99348">
        <ele>360.2</ele>
        <time>2025-07-15T19:09:13Z</time>
      </trkpt>
      <trkpt lat="43.72126" lon="6.99347">
        <ele>359.4</ele>
        <time>2025-07-15T19:09:14Z</time>
      </trkpt>
      <trkpt lat="43.72117" lon="6.99349">
        <ele>359</ele>
        <time>2025-07-15T19:09:15Z</time>
      </trkpt>
      <trkpt lat="43.72108" lon="6.99355">
        <ele>358.2</ele>
        <time>2025-07-15T19:09:16Z</time>
      </trkpt>
      <trkpt lat="43.72101" lon="6.99363">
        <ele>357.4</ele>
        <time>2025-07-15T19:09:17Z</time>
      </trkpt>
      <trkpt lat="43.72095" lon="6.9937">
        <ele>357</ele>
        <time>2025-07-15T19:09:18Z</time>
      </trkpt>
      <trkpt lat="43.72079" lon="6.99394">
        <ele>355.6</ele>
        <time>2025-07-15T19:09:20Z</time>
      </trkpt>
      <trkpt lat="43.72059" lon="6.99426">
        <ele>354</ele>
        <time>2025-07-15T19:09:23Z</time>
      </trkpt>
      <trkpt lat="43.72053" lon="6.99435">
        <ele>353.4</ele>
        <time>2025-07-15T19:09:24Z</time>
      </trkpt>
      <trkpt lat="43.7204" lon="6.99447">
        <ele>351.8</ele>
        <time>2025-07-15T19:09:26Z</time>
      </trkpt>
      <trkpt lat="43.72033" lon="6.99448">
        <ele>351.4</ele>
        <time>2025-07-15T19:09:27Z</time>
      </trkpt>
      <trkpt lat="43.72026" lon="6.99444">
        <ele>350</ele>
        <time>2025-07-15T19:09:28Z</time>
      </trkpt>
      <trkpt lat="43.72021" lon="6.99438">
        <ele>349.6</ele>
        <time>2025-07-15T19:09:29Z</time>
      </trkpt>
      <trkpt lat="43.72018" lon="6.99429">
        <ele>348.4</ele>
        <time>2025-07-15T19:09:30Z</time>
      </trkpt>
      <trkpt lat="43.72017" lon="6.99418">
        <ele>347.4</ele>
        <time>2025-07-15T19:09:31Z</time>
      </trkpt>
      <trkpt lat="43.72019" lon="6.99393">
        <ele>345.8</ele>
        <time>2025-07-15T19:09:33Z</time>
      </trkpt>
      <trkpt lat="43.72021" lon="6.99379">
        <ele>345.4</ele>
        <time>2025-07-15T19:09:34Z</time>
      </trkpt>
      <trkpt lat="43.72023" lon="6.99365">
        <ele>344.6</ele>
        <time>2025-07-15T19:09:35Z</time>
      </trkpt>
      <trkpt lat="43.72024" lon="6.99353">
        <ele>344.4</ele>
        <time>2025-07-15T19:09:36Z</time>
      </trkpt>
      <trkpt lat="43.72022" lon="6.99342">
        <ele>343.4</ele>
        <time>2025-07-15T19:09:37Z</time>
      </trkpt>
      <trkpt lat="43.72017" lon="6.99335">
        <ele>342.8</ele>
        <time>2025-07-15T19:09:38Z</time>
      </trkpt>
      <trkpt lat="43.72008" lon="6.9933">
        <ele>342.4</ele>
        <time>2025-07-15T19:09:39Z</time>
      </trkpt>
      <trkpt lat="43.71997" lon="6.99329">
        <ele>341.6</ele>
        <time>2025-07-15T19:09:40Z</time>
      </trkpt>
      <trkpt lat="43.71988" lon="6.99332">
        <ele>341.2</ele>
        <time>2025-07-15T19:09:41Z</time>
      </trkpt>
      <trkpt lat="43.71978" lon="6.99334">
        <ele>340.6</ele>
        <time>2025-07-15T19:09:42Z</time>
      </trkpt>
      <trkpt lat="43.71968" lon="6.99335">
        <ele>340</ele>
        <time>2025-07-15T19:09:43Z</time>
      </trkpt>
      <trkpt lat="43.71961" lon="6.99333">
        <ele>339.8</ele>
        <time>2025-07-15T19:09:44Z</time>
      </trkpt>
      <trkpt lat="43.71942" lon="6.99325">
        <ele>339</ele>
        <time>2025-07-15T19:09:46Z</time>
      </trkpt>
      <trkpt lat="43.71924" lon="6.99324">
        <ele>337.8</ele>
        <time>2025-07-15T19:09:48Z</time>
      </trkpt>
      <trkpt lat="43.71902" lon="6.99325">
        <ele>336.2</ele>
        <time>2025-07-15T19:09:50Z</time>
      </trkpt>
      <trkpt lat="43.71883" lon="6.99325">
        <ele>335.4</ele>
        <time>2025-07-15T19:09:52Z</time>
      </trkpt>
      <trkpt lat="43.71875" lon="6.99322">
        <ele>335</ele>
        <time>2025-07-15T19:09:53Z</time>
      </trkpt>
      <trkpt lat="43.71866" lon="6.99317">
        <ele>333.8</ele>
        <time>2025-07-15T19:09:54Z</time>
      </trkpt>
      <trkpt lat="43.71851" lon="6.99304">
        <ele>332.8</ele>
        <time>2025-07-15T19:09:56Z</time>
      </trkpt>
      <trkpt lat="43.71837" lon="6.99286">
        <ele>331.6</ele>
        <time>2025-07-15T19:09:58Z</time>
      </trkpt>
      <trkpt lat="43.71823" lon="6.99268">
        <ele>330.6</ele>
        <time>2025-07-15T19:10:00Z</time>
      </trkpt>
      <trkpt lat="43.71816" lon="6.99259">
        <ele>329.8</ele>
        <time>2025-07-15T19:10:01Z</time>
      </trkpt>
      <trkpt lat="43.71805" lon="6.99245">
        <ele>328.2</ele>
        <time>2025-07-15T19:10:03Z</time>
      </trkpt>
      <trkpt lat="43.71799" lon="6.99239">
        <ele>327.4</ele>
        <time>2025-07-15T19:10:04Z</time>
      </trkpt>
      <trkpt lat="43.71792" lon="6.99233">
        <ele>327.2</ele>
        <time>2025-07-15T19:10:05Z</time>
      </trkpt>
      <trkpt lat="43.71785" lon="6.99231">
        <ele>326.6</ele>
        <time>2025-07-15T19:10:06Z</time>
      </trkpt>
      <trkpt lat="43.7178" lon="6.99231">
        <ele>326.2</ele>
        <time>2025-07-15T19:10:07Z</time>
      </trkpt>
      <trkpt lat="43.71775" lon="6.99231">
        <ele>325</ele>
        <time>2025-07-15T19:10:08Z</time>
      </trkpt>
      <trkpt lat="43.7177" lon="6.99232">
        <ele>324.4</ele>
        <time>2025-07-15T19:10:09Z</time>
      </trkpt>
      <trkpt lat="43.71764" lon="6.99231">
        <ele>324</ele>
        <time>2025-07-15T19:10:10Z</time>
      </trkpt>
      <trkpt lat="43.71762" lon="6.99229">
        <ele>323.8</ele>
        <time>2025-07-15T19:10:11Z</time>
      </trkpt>
      <trkpt lat="43.71759" lon="6.99225">
        <ele>323.6</ele>
        <time>2025-07-15T19:10:12Z</time>
      </trkpt>
      <trkpt lat="43.71757" lon="6.99217">
        <ele>322.8</ele>
        <time>2025-07-15T19:10:14Z</time>
      </trkpt>
      <trkpt lat="43.71759" lon="6.99212">
        <ele>321.6</ele>
        <time>2025-07-15T19:10:16Z</time>
      </trkpt>
      <trkpt lat="43.7176" lon="6.99208">
        <ele>321.4</ele>
        <time>2025-07-15T19:10:17Z</time>
      </trkpt>
      <trkpt lat="43.71762" lon="6.99207">
        <ele>320.8</ele>
        <time>2025-07-15T19:10:18Z</time>
      </trkpt>
      <trkpt lat="43.71763" lon="6.99207">
        <ele>320.4</ele>
        <time>2025-07-15T19:10:19Z</time>
      </trkpt>
      <trkpt lat="43.71772" lon="6.99209">
        <ele>319.2</ele>
        <time>2025-07-15T19:10:23Z</time>
      </trkpt>
      <trkpt lat="43.71787" lon="6.99212">
        <ele>318.6</ele>
        <time>2025-07-15T19:10:28Z</time>
      </trkpt>
      <trkpt lat="43.71809" lon="6.99222">
        <ele>318.2</ele>
        <time>2025-07-15T19:10:34Z</time>
      </trkpt>
      <trkpt lat="43.71834" lon="6.9923">
        <ele>317.4</ele>
        <time>2025-07-15T19:10:40Z</time>
      </trkpt>
      <trkpt lat="43.71838" lon="6.99231">
        <ele>317.2</ele>
        <time>2025-07-15T19:10:41Z</time>
      </trkpt>
      <trkpt lat="43.71859" lon="6.99241">
        <ele>316.8</ele>
        <time>2025-07-15T19:10:45Z</time>
      </trkpt>
      <trkpt lat="43.7187" lon="6.99247">
        <ele>316.2</ele>
        <time>2025-07-15T19:10:47Z</time>
      </trkpt>
      <trkpt lat="43.71879" lon="6.9925">
        <ele>315.4</ele>
        <time>2025-07-15T19:10:49Z</time>
      </trkpt>
      <trkpt lat="43.71891" lon="6.99255">
        <ele>315</ele>
        <time>2025-07-15T19:10:51Z</time>
      </trkpt>
      <trkpt lat="43.71896" lon="6.99258">
        <ele>315</ele>
        <time>2025-07-15T19:10:52Z</time>
      </trkpt>
      <trkpt lat="43.7192" lon="6.99268">
        <ele>314</ele>
        <time>2025-07-15T19:10:56Z</time>
      </trkpt>
      <trkpt lat="43.71933" lon="6.99272">
        <ele>313.4</ele>
        <time>2025-07-15T19:10:59Z</time>
      </trkpt>
      <trkpt lat="43.71938" lon="6.99274">
        <ele>313</ele>
        <time>2025-07-15T19:11:00Z</time>
      </trkpt>
      <trkpt lat="43.71948" lon="6.99277">
        <ele>312.8</ele>
        <time>2025-07-15T19:11:02Z</time>
      </trkpt>
      <trkpt lat="43.71958" lon="6.99275">
        <ele>312.4</ele>
        <time>2025-07-15T19:11:04Z</time>
      </trkpt>
      <trkpt lat="43.71964" lon="6.99273">
        <ele>312</ele>
        <time>2025-07-15T19:11:05Z</time>
      </trkpt>
      <trkpt lat="43.71969" lon="6.99269">
        <ele>312</ele>
        <time>2025-07-15T19:11:06Z</time>
      </trkpt>
      <trkpt lat="43.71974" lon="6.99264">
        <ele>311.8</ele>
        <time>2025-07-15T19:11:07Z</time>
      </trkpt>
      <trkpt lat="43.71981" lon="6.99251">
        <ele>311.4</ele>
        <time>2025-07-15T19:11:09Z</time>
      </trkpt>
      <trkpt lat="43.71984" lon="6.99234">
        <ele>311.2</ele>
        <time>2025-07-15T19:11:11Z</time>
      </trkpt>
      <trkpt lat="43.71984" lon="6.99226">
        <ele>310.6</ele>
        <time>2025-07-15T19:11:12Z</time>
      </trkpt>
      <trkpt lat="43.71985" lon="6.99198">
        <ele>310.2</ele>
        <time>2025-07-15T19:11:15Z</time>
      </trkpt>
      <trkpt lat="43.71982" lon="6.99183">
        <ele>310</ele>
        <time>2025-07-15T19:11:17Z</time>
      </trkpt>
      <trkpt lat="43.71978" lon="6.99169">
        <ele>309.8</ele>
        <time>2025-07-15T19:11:19Z</time>
      </trkpt>
      <trkpt lat="43.71973" lon="6.99156">
        <ele>310</ele>
        <time>2025-07-15T19:11:21Z</time>
      </trkpt>
      <trkpt lat="43.71967" lon="6.99147">
        <ele>310.2</ele>
        <time>2025-07-15T19:11:23Z</time>
      </trkpt>
      <trkpt lat="43.71961" lon="6.99139">
        <ele>310.2</ele>
        <time>2025-07-15T19:11:25Z</time>
      </trkpt>
      <trkpt lat="43.71941" lon="6.99114">
        <ele>311.2</ele>
        <time>2025-07-15T19:11:32Z</time>
      </trkpt>
      <trkpt lat="43.7192" lon="6.99085">
        <ele>312</ele>
        <time>2025-07-15T19:11:40Z</time>
      </trkpt>
      <trkpt lat="43.71916" lon="6.99081">
        <ele>312.2</ele>
        <time>2025-07-15T19:11:41Z</time>
      </trkpt>
      <trkpt lat="43.71897" lon="6.99057">
        <ele>313.2</ele>
        <time>2025-07-15T19:11:49Z</time>
      </trkpt>
      <trkpt lat="43.71876" lon="6.99038">
        <ele>314.4</ele>
        <time>2025-07-15T19:11:56Z</time>
      </trkpt>
      <trkpt lat="43.7187" lon="6.99033">
        <ele>314.6</ele>
        <time>2025-07-15T19:11:58Z</time>
      </trkpt>
      <trkpt lat="43.71845" lon="6.99006">
        <ele>315.4</ele>
        <time>2025-07-15T19:12:07Z</time>
      </trkpt>
      <trkpt lat="43.71823" lon="6.98984">
        <ele>316.6</ele>
        <time>2025-07-15T19:12:15Z</time>
      </trkpt>
      <trkpt lat="43.71803" lon="6.98983">
        <ele>317.4</ele>
        <time>2025-07-15T19:12:21Z</time>
      </trkpt>
      <trkpt lat="43.71797" lon="6.98984">
        <ele>317.6</ele>
        <time>2025-07-15T19:12:23Z</time>
      </trkpt>
      <trkpt lat="43.71773" lon="6.98987">
        <ele>318.6</ele>
        <time>2025-07-15T19:12:30Z</time>
      </trkpt>
      <trkpt lat="43.71766" lon="6.98987">
        <ele>318.8</ele>
        <time>2025-07-15T19:12:32Z</time>
      </trkpt>
      <trkpt lat="43.71755" lon="6.98984">
        <ele>319.4</ele>
        <time>2025-07-15T19:12:35Z</time>
      </trkpt>
      <trkpt lat="43.71753" lon="6.98983">
        <ele>319.4</ele>
        <time>2025-07-15T19:12:36Z</time>
      </trkpt>
      <trkpt lat="43.71732" lon="6.98977">
        <ele>320.2</ele>
        <time>2025-07-15T19:12:42Z</time>
      </trkpt>
      <trkpt lat="43.71701" lon="6.98966">
        <ele>321.4</ele>
        <time>2025-07-15T19:12:51Z</time>
      </trkpt>
      <trkpt lat="43.71696" lon="6.98963">
        <ele>321.4</ele>
        <time>2025-07-15T19:12:53Z</time>
      </trkpt>
      <trkpt lat="43.71693" lon="6.98962">
        <ele>322</ele>
        <time>2025-07-15T19:12:55Z</time>
      </trkpt>
      <trkpt lat="43.71693" lon="6.98962">
        <ele>322.2</ele>
        <time>2025-07-15T19:12:59Z</time>
      </trkpt>
      <trkpt lat="43.71691" lon="6.98962">
        <ele>322.8</ele>
        <time>2025-07-15T19:14:27Z</time>
      </trkpt>
      <trkpt lat="43.71676" lon="6.98956">
        <ele>322.8</ele>
        <time>2025-07-15T19:14:32Z</time>
      </trkpt>
      <trkpt lat="43.71652" lon="6.98948">
        <ele>323.4</ele>
        <time>2025-07-15T19:14:39Z</time>
      </trkpt>
      <trkpt lat="43.71649" lon="6.98947">
        <ele>323.6</ele>
        <time>2025-07-15T19:14:40Z</time>
      </trkpt>
      <trkpt lat="43.71621" lon="6.98938">
        <ele>324.8</ele>
        <time>2025-07-15T19:14:48Z</time>
      </trkpt>
      <trkpt lat="43.71589" lon="6.98927">
        <ele>326</ele>
        <time>2025-07-15T19:14:58Z</time>
      </trkpt>
      <trkpt lat="43.71568" lon="6.98917">
        <ele>327.2</ele>
        <time>2025-07-15T19:15:05Z</time>
      </trkpt>
      <trkpt lat="43.71565" lon="6.98915">
        <ele>327.2</ele>
        <time>2025-07-15T19:15:06Z</time>
      </trkpt>
      <trkpt lat="43.71542" lon="6.98893">
        <ele>328.4</ele>
        <time>2025-07-15T19:15:14Z</time>
      </trkpt>
      <trkpt lat="43.71534" lon="6.98885">
        <ele>329</ele>
        <time>2025-07-15T19:15:17Z</time>
      </trkpt>
      <trkpt lat="43.71522" lon="6.98877">
        <ele>329.6</ele>
        <time>2025-07-15T19:15:21Z</time>
      </trkpt>
      <trkpt lat="43.71515" lon="6.98875">
        <ele>329.8</ele>
        <time>2025-07-15T19:15:23Z</time>
      </trkpt>
      <trkpt lat="43.71499" lon="6.98875">
        <ele>330.4</ele>
        <time>2025-07-15T19:15:28Z</time>
      </trkpt>
      <trkpt lat="43.71496" lon="6.98877">
        <ele>330.6</ele>
        <time>2025-07-15T19:15:29Z</time>
      </trkpt>
      <trkpt lat="43.71482" lon="6.98886">
        <ele>331.2</ele>
        <time>2025-07-15T19:15:34Z</time>
      </trkpt>
      <trkpt lat="43.71467" lon="6.98894">
        <ele>331.8</ele>
        <time>2025-07-15T19:15:39Z</time>
      </trkpt>
      <trkpt lat="43.71459" lon="6.98898">
        <ele>332.2</ele>
        <time>2025-07-15T19:15:41Z</time>
      </trkpt>
      <trkpt lat="43.71443" lon="6.98898">
        <ele>332.6</ele>
        <time>2025-07-15T19:15:46Z</time>
      </trkpt>
      <trkpt lat="43.7144" lon="6.98897">
        <ele>333</ele>
        <time>2025-07-15T19:15:47Z</time>
      </trkpt>
      <trkpt lat="43.71429" lon="6.98888">
        <ele>333.4</ele>
        <time>2025-07-15T19:15:51Z</time>
      </trkpt>
      <trkpt lat="43.71416" lon="6.98866">
        <ele>334.2</ele>
        <time>2025-07-15T19:15:57Z</time>
      </trkpt>
      <trkpt lat="43.71415" lon="6.98861">
        <ele>334.2</ele>
        <time>2025-07-15T19:15:58Z</time>
      </trkpt>
      <trkpt lat="43.71411" lon="6.98834">
        <ele>335.2</ele>
        <time>2025-07-15T19:16:04Z</time>
      </trkpt>
      <trkpt lat="43.71411" lon="6.98829">
        <ele>335.4</ele>
        <time>2025-07-15T19:16:05Z</time>
      </trkpt>
      <trkpt lat="43.71407" lon="6.98796">
        <ele>336.4</ele>
        <time>2025-07-15T19:16:12Z</time>
      </trkpt>
      <trkpt lat="43.71405" lon="6.98787">
        <ele>336.8</ele>
        <time>2025-07-15T19:16:14Z</time>
      </trkpt>
      <trkpt lat="43.71391" lon="6.9876">
        <ele>337.6</ele>
        <time>2025-07-15T19:16:21Z</time>
      </trkpt>
      <trkpt lat="43.71373" lon="6.98729">
        <ele>338.6</ele>
        <time>2025-07-15T19:16:29Z</time>
      </trkpt>
      <trkpt lat="43.7137" lon="6.98725">
        <ele>338.8</ele>
        <time>2025-07-15T19:16:30Z</time>
      </trkpt>
      <trkpt lat="43.71356" lon="6.98701">
        <ele>339.6</ele>
        <time>2025-07-15T19:16:37Z</time>
      </trkpt>
      <trkpt lat="43.7135" lon="6.98688">
        <ele>340.2</ele>
        <time>2025-07-15T19:16:40Z</time>
      </trkpt>
      <trkpt lat="43.71346" lon="6.98667">
        <ele>340.8</ele>
        <time>2025-07-15T19:16:44Z</time>
      </trkpt>
      <trkpt lat="43.71342" lon="6.98646">
        <ele>341.2</ele>
        <time>2025-07-15T19:16:48Z</time>
      </trkpt>
      <trkpt lat="43.71339" lon="6.98624">
        <ele>341.4</ele>
        <time>2025-07-15T19:16:52Z</time>
      </trkpt>
      <trkpt lat="43.71337" lon="6.98612">
        <ele>341.6</ele>
        <time>2025-07-15T19:16:54Z</time>
      </trkpt>
      <trkpt lat="43.71335" lon="6.98601">
        <ele>341.6</ele>
        <time>2025-07-15T19:16:56Z</time>
      </trkpt>
      <trkpt lat="43.71332" lon="6.98583">
        <ele>341.6</ele>
        <time>2025-07-15T19:16:59Z</time>
      </trkpt>
      <trkpt lat="43.71328" lon="6.9856">
        <ele>341.8</ele>
        <time>2025-07-15T19:17:03Z</time>
      </trkpt>
      <trkpt lat="43.71324" lon="6.98544">
        <ele>342.2</ele>
        <time>2025-07-15T19:17:06Z</time>
      </trkpt>
      <trkpt lat="43.71321" lon="6.98537">
        <ele>342.2</ele>
        <time>2025-07-15T19:17:07Z</time>
      </trkpt>
      <trkpt lat="43.71319" lon="6.98533">
        <ele>342.4</ele>
        <time>2025-07-15T19:17:08Z</time>
      </trkpt>
      <trkpt lat="43.71315" lon="6.98528">
        <ele>342.6</ele>
        <time>2025-07-15T19:17:09Z</time>
      </trkpt>
      <trkpt lat="43.71308" lon="6.98522">
        <ele>342.6</ele>
        <time>2025-07-15T19:17:11Z</time>
      </trkpt>
      <trkpt lat="43.71298" lon="6.98519">
        <ele>342.8</ele>
        <time>2025-07-15T19:17:13Z</time>
      </trkpt>
      <trkpt lat="43.71293" lon="6.98519">
        <ele>342.8</ele>
        <time>2025-07-15T19:17:14Z</time>
      </trkpt>
      <trkpt lat="43.71284" lon="6.98522">
        <ele>343</ele>
        <time>2025-07-15T19:17:16Z</time>
      </trkpt>
      <trkpt lat="43.71275" lon="6.98529">
        <ele>343</ele>
        <time>2025-07-15T19:17:18Z</time>
      </trkpt>
      <trkpt lat="43.7127" lon="6.98533">
        <ele>343</ele>
        <time>2025-07-15T19:17:19Z</time>
      </trkpt>
      <trkpt lat="43.71267" lon="6.98538">
        <ele>343</ele>
        <time>2025-07-15T19:17:20Z</time>
      </trkpt>
      <trkpt lat="43.71262" lon="6.98552">
        <ele>343</ele>
        <time>2025-07-15T19:17:22Z</time>
      </trkpt>
      <trkpt lat="43.71261" lon="6.98559">
        <ele>343</ele>
        <time>2025-07-15T19:17:23Z</time>
      </trkpt>
      <trkpt lat="43.7126" lon="6.98572">
        <ele>343.2</ele>
        <time>2025-07-15T19:17:25Z</time>
      </trkpt>
      <trkpt lat="43.7126" lon="6.98587">
        <ele>343.6</ele>
        <time>2025-07-15T19:17:27Z</time>
      </trkpt>
      <trkpt lat="43.7126" lon="6.98599">
        <ele>343.8</ele>
        <time>2025-07-15T19:17:29Z</time>
      </trkpt>
      <trkpt lat="43.71258" lon="6.9861">
        <ele>344</ele>
        <time>2025-07-15T19:17:31Z</time>
      </trkpt>
      <trkpt lat="43.71253" lon="6.98623">
        <ele>344.4</ele>
        <time>2025-07-15T19:17:34Z</time>
      </trkpt>
      <trkpt lat="43.71251" lon="6.98629">
        <ele>344.6</ele>
        <time>2025-07-15T19:17:35Z</time>
      </trkpt>
      <trkpt lat="43.71244" lon="6.98652">
        <ele>346</ele>
        <time>2025-07-15T19:17:40Z</time>
      </trkpt>
      <trkpt lat="43.71238" lon="6.98675">
        <ele>346.8</ele>
        <time>2025-07-15T19:17:45Z</time>
      </trkpt>
      <trkpt lat="43.71234" lon="6.98685">
        <ele>347</ele>
        <time>2025-07-15T19:17:47Z</time>
      </trkpt>
      <trkpt lat="43.7122" lon="6.98711">
        <ele>348.4</ele>
        <time>2025-07-15T19:17:54Z</time>
      </trkpt>
      <trkpt lat="43.71217" lon="6.98714">
        <ele>348.6</ele>
        <time>2025-07-15T19:17:55Z</time>
      </trkpt>
      <trkpt lat="43.71201" lon="6.98735">
        <ele>349.4</ele>
        <time>2025-07-15T19:18:01Z</time>
      </trkpt>
      <trkpt lat="43.71198" lon="6.98738">
        <ele>349.8</ele>
        <time>2025-07-15T19:18:02Z</time>
      </trkpt>
      <trkpt lat="43.7119" lon="6.98753">
        <ele>350.4</ele>
        <time>2025-07-15T19:18:06Z</time>
      </trkpt>
      <trkpt lat="43.71182" lon="6.98768">
        <ele>351.2</ele>
        <time>2025-07-15T19:18:10Z</time>
      </trkpt>
      <trkpt lat="43.7118" lon="6.98778">
        <ele>351.6</ele>
        <time>2025-07-15T19:18:13Z</time>
      </trkpt>
      <trkpt lat="43.71174" lon="6.98798">
        <ele>352.4</ele>
        <time>2025-07-15T19:18:17Z</time>
      </trkpt>
      <trkpt lat="43.71168" lon="6.98818">
        <ele>353</ele>
        <time>2025-07-15T19:18:21Z</time>
      </trkpt>
      <trkpt lat="43.71161" lon="6.98834">
        <ele>353.4</ele>
        <time>2025-07-15T19:18:25Z</time>
      </trkpt>
      <trkpt lat="43.71153" lon="6.98844">
        <ele>354</ele>
        <time>2025-07-15T19:18:28Z</time>
      </trkpt>
      <trkpt lat="43.71144" lon="6.98853">
        <ele>354.4</ele>
        <time>2025-07-15T19:18:31Z</time>
      </trkpt>
      <trkpt lat="43.71132" lon="6.9886">
        <ele>355.2</ele>
        <time>2025-07-15T19:18:35Z</time>
      </trkpt>
      <trkpt lat="43.71122" lon="6.98864">
        <ele>355.8</ele>
        <time>2025-07-15T19:18:38Z</time>
      </trkpt>
      <trkpt lat="43.71112" lon="6.98869">
        <ele>356.4</ele>
        <time>2025-07-15T19:18:41Z</time>
      </trkpt>
      <trkpt lat="43.71105" lon="6.98874">
        <ele>357</ele>
        <time>2025-07-15T19:18:43Z</time>
      </trkpt>
      <trkpt lat="43.71091" lon="6.98882">
        <ele>357.6</ele>
        <time>2025-07-15T19:18:47Z</time>
      </trkpt>
      <trkpt lat="43.71084" lon="6.98885">
        <ele>358</ele>
        <time>2025-07-15T19:18:49Z</time>
      </trkpt>
      <trkpt lat="43.71071" lon="6.98892">
        <ele>358.8</ele>
        <time>2025-07-15T19:18:53Z</time>
      </trkpt>
      <trkpt lat="43.71054" lon="6.989">
        <ele>359.8</ele>
        <time>2025-07-15T19:18:58Z</time>
      </trkpt>
      <trkpt lat="43.71048" lon="6.98902">
        <ele>360</ele>
        <time>2025-07-15T19:19:00Z</time>
      </trkpt>
      <trkpt lat="43.71034" lon="6.98904">
        <ele>360.6</ele>
        <time>2025-07-15T19:19:04Z</time>
      </trkpt>
      <trkpt lat="43.7102" lon="6.98908">
        <ele>361.2</ele>
        <time>2025-07-15T19:19:08Z</time>
      </trkpt>
      <trkpt lat="43.71001" lon="6.98914">
        <ele>361.8</ele>
        <time>2025-07-15T19:19:13Z</time>
      </trkpt>
      <trkpt lat="43.70984" lon="6.98922">
        <ele>362.4</ele>
        <time>2025-07-15T19:19:18Z</time>
      </trkpt>
      <trkpt lat="43.70968" lon="6.9893">
        <ele>363.2</ele>
        <time>2025-07-15T19:19:23Z</time>
      </trkpt>
      <trkpt lat="43.70959" lon="6.98935">
        <ele>363.6</ele>
        <time>2025-07-15T19:19:26Z</time>
      </trkpt>
      <trkpt lat="43.70947" lon="6.9894">
        <ele>364.4</ele>
        <time>2025-07-15T19:19:30Z</time>
      </trkpt>
      <trkpt lat="43.70945" lon="6.98941">
        <ele>364.6</ele>
        <time>2025-07-15T19:19:31Z</time>
      </trkpt>
      <trkpt lat="43.70931" lon="6.98947">
        <ele>365.6</ele>
        <time>2025-07-15T19:19:37Z</time>
      </trkpt>
      <trkpt lat="43.70906" lon="6.98958">
        <ele>367</ele>
        <time>2025-07-15T19:19:45Z</time>
      </trkpt>
      <trkpt lat="43.70884" lon="6.98956">
        <ele>368.2</ele>
        <time>2025-07-15T19:19:52Z</time>
      </trkpt>
      <trkpt lat="43.70859" lon="6.98953">
        <ele>369.2</ele>
        <time>2025-07-15T19:20:00Z</time>
      </trkpt>
      <trkpt lat="43.70841" lon="6.98957">
        <ele>370.6</ele>
        <time>2025-07-15T19:20:06Z</time>
      </trkpt>
      <trkpt lat="43.70835" lon="6.98959">
        <ele>370.8</ele>
        <time>2025-07-15T19:20:08Z</time>
      </trkpt>
      <trkpt lat="43.70818" lon="6.98969">
        <ele>371.6</ele>
        <time>2025-07-15T19:20:14Z</time>
      </trkpt>
      <trkpt lat="43.70815" lon="6.9897">
        <ele>371.6</ele>
        <time>2025-07-15T19:20:15Z</time>
      </trkpt>
      <trkpt lat="43.70798" lon="6.98979">
        <ele>372.6</ele>
        <time>2025-07-15T19:20:21Z</time>
      </trkpt>
      <trkpt lat="43.70793" lon="6.98982">
        <ele>372.8</ele>
        <time>2025-07-15T19:20:23Z</time>
      </trkpt>
      <trkpt lat="43.70778" lon="6.98991">
        <ele>373.8</ele>
        <time>2025-07-15T19:20:29Z</time>
      </trkpt>
      <trkpt lat="43.70772" lon="6.98994">
        <ele>374</ele>
        <time>2025-07-15T19:20:31Z</time>
      </trkpt>
      <trkpt lat="43.70754" lon="6.99002">
        <ele>375</ele>
        <time>2025-07-15T19:20:38Z</time>
      </trkpt>
      <trkpt lat="43.70751" lon="6.99003">
        <ele>375.2</ele>
        <time>2025-07-15T19:20:39Z</time>
      </trkpt>
      <trkpt lat="43.70736" lon="6.99011">
        <ele>376</ele>
        <time>2025-07-15T19:20:45Z</time>
      </trkpt>
      <trkpt lat="43.70728" lon="6.99015">
        <ele>376.4</ele>
        <time>2025-07-15T19:20:48Z</time>
      </trkpt>
      <trkpt lat="43.70715" lon="6.9902">
        <ele>377.2</ele>
        <time>2025-07-15T19:20:53Z</time>
      </trkpt>
      <trkpt lat="43.70706" lon="6.99025">
        <ele>377.8</ele>
        <time>2025-07-15T19:20:57Z</time>
      </trkpt>
      <trkpt lat="43.70698" lon="6.9903">
        <ele>378.4</ele>
        <time>2025-07-15T19:21:00Z</time>
      </trkpt>
      <trkpt lat="43.70687" lon="6.99035">
        <ele>379</ele>
        <time>2025-07-15T19:21:05Z</time>
      </trkpt>
      <trkpt lat="43.70682" lon="6.99037">
        <ele>379.4</ele>
        <time>2025-07-15T19:21:07Z</time>
      </trkpt>
      <trkpt lat="43.70673" lon="6.99041">
        <ele>380</ele>
        <time>2025-07-15T19:21:11Z</time>
      </trkpt>
      <trkpt lat="43.70663" lon="6.99046">
        <ele>380.6</ele>
        <time>2025-07-15T19:21:15Z</time>
      </trkpt>
      <trkpt lat="43.7065" lon="6.99055">
        <ele>381.2</ele>
        <time>2025-07-15T19:21:20Z</time>
      </trkpt>
      <trkpt lat="43.70641" lon="6.99064">
        <ele>381.8</ele>
        <time>2025-07-15T19:21:24Z</time>
      </trkpt>
      <trkpt lat="43.7063" lon="6.99076">
        <ele>382.4</ele>
        <time>2025-07-15T19:21:29Z</time>
      </trkpt>
      <trkpt lat="43.70621" lon="6.99091">
        <ele>382.8</ele>
        <time>2025-07-15T19:21:34Z</time>
      </trkpt>
      <trkpt lat="43.70612" lon="6.99105">
        <ele>383.6</ele>
        <time>2025-07-15T19:21:39Z</time>
      </trkpt>
      <trkpt lat="43.70608" lon="6.99109">
        <ele>384</ele>
        <time>2025-07-15T19:21:41Z</time>
      </trkpt>
      <trkpt lat="43.70596" lon="6.99117">
        <ele>384.8</ele>
        <time>2025-07-15T19:21:46Z</time>
      </trkpt>
      <trkpt lat="43.7059" lon="6.9912">
        <ele>385.2</ele>
        <time>2025-07-15T19:21:48Z</time>
      </trkpt>
      <trkpt lat="43.70574" lon="6.99123">
        <ele>385.8</ele>
        <time>2025-07-15T19:21:54Z</time>
      </trkpt>
      <trkpt lat="43.70569" lon="6.99125">
        <ele>386.2</ele>
        <time>2025-07-15T19:21:56Z</time>
      </trkpt>
      <trkpt lat="43.70552" lon="6.99126">
        <ele>387</ele>
        <time>2025-07-15T19:22:02Z</time>
      </trkpt>
      <trkpt lat="43.70545" lon="6.99127">
        <ele>387.2</ele>
        <time>2025-07-15T19:22:05Z</time>
      </trkpt>
      <trkpt lat="43.70527" lon="6.9913">
        <ele>387.8</ele>
        <time>2025-07-15T19:22:11Z</time>
      </trkpt>
      <trkpt lat="43.70517" lon="6.99131">
        <ele>388.4</ele>
        <time>2025-07-15T19:22:15Z</time>
      </trkpt>
      <trkpt lat="43.70503" lon="6.99133">
        <ele>389</ele>
        <time>2025-07-15T19:22:20Z</time>
      </trkpt>
      <trkpt lat="43.70491" lon="6.99134">
        <ele>389.6</ele>
        <time>2025-07-15T19:22:25Z</time>
      </trkpt>
      <trkpt lat="43.70487" lon="6.99135">
        <ele>389.6</ele>
        <time>2025-07-15T19:22:26Z</time>
      </trkpt>
      <trkpt lat="43.70463" lon="6.99138">
        <ele>390.8</ele>
        <time>2025-07-15T19:22:35Z</time>
      </trkpt>
      <trkpt lat="43.70438" lon="6.99139">
        <ele>392</ele>
        <time>2025-07-15T19:22:44Z</time>
      </trkpt>
      <trkpt lat="43.70436" lon="6.99139">
        <ele>392</ele>
        <time>2025-07-15T19:22:45Z</time>
      </trkpt>
      <trkpt lat="43.70417" lon="6.99136">
        <ele>392.8</ele>
        <time>2025-07-15T19:22:52Z</time>
      </trkpt>
      <trkpt lat="43.70412" lon="6.99135">
        <ele>393.2</ele>
        <time>2025-07-15T19:22:54Z</time>
      </trkpt>
      <trkpt lat="43.70396" lon="6.9913">
        <ele>393.6</ele>
        <time>2025-07-15T19:23:00Z</time>
      </trkpt>
      <trkpt lat="43.70385" lon="6.99125">
        <ele>394.4</ele>
        <time>2025-07-15T19:23:05Z</time>
      </trkpt>
      <trkpt lat="43.70375" lon="6.9912">
        <ele>395</ele>
        <time>2025-07-15T19:23:09Z</time>
      </trkpt>
      <trkpt lat="43.70366" lon="6.99114">
        <ele>395.4</ele>
        <time>2025-07-15T19:23:13Z</time>
      </trkpt>
      <trkpt lat="43.70354" lon="6.99105">
        <ele>396</ele>
        <time>2025-07-15T19:23:18Z</time>
      </trkpt>
      <trkpt lat="43.70346" lon="6.99098">
        <ele>396.8</ele>
        <time>2025-07-15T19:23:22Z</time>
      </trkpt>
      <trkpt lat="43.70338" lon="6.99091">
        <ele>397.2</ele>
        <time>2025-07-15T19:23:26Z</time>
      </trkpt>
      <trkpt lat="43.70325" lon="6.99077">
        <ele>397.8</ele>
        <time>2025-07-15T19:23:32Z</time>
      </trkpt>
      <trkpt lat="43.70308" lon="6.9906">
        <ele>399</ele>
        <time>2025-07-15T19:23:40Z</time>
      </trkpt>
      <trkpt lat="43.70301" lon="6.99054">
        <ele>399.4</ele>
        <time>2025-07-15T19:23:43Z</time>
      </trkpt>
      <trkpt lat="43.70294" lon="6.99049">
        <ele>400</ele>
        <time>2025-07-15T19:23:46Z</time>
      </trkpt>
      <trkpt lat="43.70282" lon="6.99043">
        <ele>400.6</ele>
        <time>2025-07-15T19:23:51Z</time>
      </trkpt>
      <trkpt lat="43.70276" lon="6.99043">
        <ele>401</ele>
        <time>2025-07-15T19:23:53Z</time>
      </trkpt>
      <trkpt lat="43.70259" lon="6.99048">
        <ele>401.6</ele>
        <time>2025-07-15T19:23:59Z</time>
      </trkpt>
      <trkpt lat="43.70253" lon="6.99056">
        <ele>402.2</ele>
        <time>2025-07-15T19:24:02Z</time>
      </trkpt>
      <trkpt lat="43.70248" lon="6.99066">
        <ele>402.6</ele>
        <time>2025-07-15T19:24:05Z</time>
      </trkpt>
      <trkpt lat="43.70244" lon="6.99085">
        <ele>403.2</ele>
        <time>2025-07-15T19:24:10Z</time>
      </trkpt>
      <trkpt lat="43.70242" lon="6.99096">
        <ele>403.4</ele>
        <time>2025-07-15T19:24:13Z</time>
      </trkpt>
      <trkpt lat="43.70233" lon="6.99123">
        <ele>404.2</ele>
        <time>2025-07-15T19:24:21Z</time>
      </trkpt>
      <trkpt lat="43.70232" lon="6.99126">
        <ele>404.4</ele>
        <time>2025-07-15T19:24:22Z</time>
      </trkpt>
      <trkpt lat="43.70218" lon="6.99147">
        <ele>405.2</ele>
        <time>2025-07-15T19:24:30Z</time>
      </trkpt>
      <trkpt lat="43.70216" lon="6.9915">
        <ele>405.4</ele>
        <time>2025-07-15T19:24:31Z</time>
      </trkpt>
      <trkpt lat="43.70199" lon="6.99163">
        <ele>406.4</ele>
        <time>2025-07-15T19:24:38Z</time>
      </trkpt>
      <trkpt lat="43.70194" lon="6.99166">
        <ele>406.6</ele>
        <time>2025-07-15T19:24:40Z</time>
      </trkpt>
      <trkpt lat="43.70181" lon="6.9917">
        <ele>407.2</ele>
        <time>2025-07-15T19:24:45Z</time>
      </trkpt>
      <trkpt lat="43.70164" lon="6.99171">
        <ele>408</ele>
        <time>2025-07-15T19:24:51Z</time>
      </trkpt>
      <trkpt lat="43.70157" lon="6.99169">
        <ele>408.4</ele>
        <time>2025-07-15T19:24:54Z</time>
      </trkpt>
      <trkpt lat="43.70141" lon="6.99162">
        <ele>409.2</ele>
        <time>2025-07-15T19:25:00Z</time>
      </trkpt>
      <trkpt lat="43.70136" lon="6.99159">
        <ele>409.4</ele>
        <time>2025-07-15T19:25:02Z</time>
      </trkpt>
      <trkpt lat="43.70117" lon="6.9914">
        <ele>410.2</ele>
        <time>2025-07-15T19:25:11Z</time>
      </trkpt>
      <trkpt lat="43.701" lon="6.99116">
        <ele>411.4</ele>
        <time>2025-07-15T19:25:20Z</time>
      </trkpt>
      <trkpt lat="43.70097" lon="6.99109">
        <ele>411.6</ele>
        <time>2025-07-15T19:25:22Z</time>
      </trkpt>
      <trkpt lat="43.70086" lon="6.99087">
        <ele>412.4</ele>
        <time>2025-07-15T19:25:29Z</time>
      </trkpt>
      <trkpt lat="43.70083" lon="6.9908">
        <ele>412.6</ele>
        <time>2025-07-15T19:25:31Z</time>
      </trkpt>
      <trkpt lat="43.7007" lon="6.99055">
        <ele>413.6</ele>
        <time>2025-07-15T19:25:39Z</time>
      </trkpt>
      <trkpt lat="43.70067" lon="6.99049">
        <ele>413.8</ele>
        <time>2025-07-15T19:25:41Z</time>
      </trkpt>
      <trkpt lat="43.70055" lon="6.99026">
        <ele>414.6</ele>
        <time>2025-07-15T19:25:48Z</time>
      </trkpt>
      <trkpt lat="43.70052" lon="6.99019">
        <ele>414.8</ele>
        <time>2025-07-15T19:25:50Z</time>
      </trkpt>
      <trkpt lat="43.70039" lon="6.98994">
        <ele>415.8</ele>
        <time>2025-07-15T19:25:58Z</time>
      </trkpt>
      <trkpt lat="43.70035" lon="6.98987">
        <ele>416</ele>
        <time>2025-07-15T19:26:00Z</time>
      </trkpt>
      <trkpt lat="43.70025" lon="6.98969">
        <ele>416.8</ele>
        <time>2025-07-15T19:26:06Z</time>
      </trkpt>
      <trkpt lat="43.7002" lon="6.98959">
        <ele>417</ele>
        <time>2025-07-15T19:26:09Z</time>
      </trkpt>
      <trkpt lat="43.70015" lon="6.98947">
        <ele>417.6</ele>
        <time>2025-07-15T19:26:13Z</time>
      </trkpt>
      <trkpt lat="43.7001" lon="6.98937">
        <ele>418</ele>
        <time>2025-07-15T19:26:16Z</time>
      </trkpt>
      <trkpt lat="43.7" lon="6.98917">
        <ele>418.4</ele>
        <time>2025-07-15T19:26:22Z</time>
      </trkpt>
      <trkpt lat="43.6999" lon="6.98897">
        <ele>419.2</ele>
        <time>2025-07-15T19:26:28Z</time>
      </trkpt>
      <trkpt lat="43.69986" lon="6.9889">
        <ele>419.4</ele>
        <time>2025-07-15T19:26:30Z</time>
      </trkpt>
      <trkpt lat="43.69976" lon="6.98874">
        <ele>420.2</ele>
        <time>2025-07-15T19:26:35Z</time>
      </trkpt>
      <trkpt lat="43.69964" lon="6.98855">
        <ele>420.8</ele>
        <time>2025-07-15T19:26:41Z</time>
      </trkpt>
      <trkpt lat="43.69953" lon="6.98835">
        <ele>421.6</ele>
        <time>2025-07-15T19:26:47Z</time>
      </trkpt>
      <trkpt lat="43.69945" lon="6.98826">
        <ele>422</ele>
        <time>2025-07-15T19:26:50Z</time>
      </trkpt>
      <trkpt lat="43.69937" lon="6.98813">
        <ele>422.6</ele>
        <time>2025-07-15T19:26:54Z</time>
      </trkpt>
      <trkpt lat="43.69928" lon="6.98801">
        <ele>423.2</ele>
        <time>2025-07-15T19:26:58Z</time>
      </trkpt>
      <trkpt lat="43.6992" lon="6.98789">
        <ele>423.6</ele>
        <time>2025-07-15T19:27:02Z</time>
      </trkpt>
      <trkpt lat="43.699" lon="6.98764">
        <ele>424.8</ele>
        <time>2025-07-15T19:27:11Z</time>
      </trkpt>
      <trkpt lat="43.69882" lon="6.98734">
        <ele>425.6</ele>
        <time>2025-07-15T19:27:20Z</time>
      </trkpt>
      <trkpt lat="43.69873" lon="6.98706">
        <ele>426</ele>
        <time>2025-07-15T19:27:27Z</time>
      </trkpt>
      <trkpt lat="43.69872" lon="6.98701">
        <ele>426</ele>
        <time>2025-07-15T19:27:28Z</time>
      </trkpt>
      <trkpt lat="43.6986" lon="6.98657">
        <ele>427</ele>
        <time>2025-07-15T19:27:39Z</time>
      </trkpt>
      <trkpt lat="43.69854" lon="6.9863">
        <ele>427.8</ele>
        <time>2025-07-15T19:27:46Z</time>
      </trkpt>
      <trkpt lat="43.69848" lon="6.98609">
        <ele>428.4</ele>
        <time>2025-07-15T19:27:51Z</time>
      </trkpt>
      <trkpt lat="43.69845" lon="6.98594">
        <ele>428.8</ele>
        <time>2025-07-15T19:27:55Z</time>
      </trkpt>
      <trkpt lat="43.69839" lon="6.98575">
        <ele>429.4</ele>
        <time>2025-07-15T19:28:00Z</time>
      </trkpt>
      <trkpt lat="43.69836" lon="6.98565">
        <ele>429.6</ele>
        <time>2025-07-15T19:28:03Z</time>
      </trkpt>
      <trkpt lat="43.69828" lon="6.98544">
        <ele>430.8</ele>
        <time>2025-07-15T19:28:09Z</time>
      </trkpt>
      <trkpt lat="43.69825" lon="6.98537">
        <ele>431</ele>
        <time>2025-07-15T19:28:11Z</time>
      </trkpt>
      <trkpt lat="43.69811" lon="6.98505">
        <ele>431.6</ele>
        <time>2025-07-15T19:28:20Z</time>
      </trkpt>
      <trkpt lat="43.6981" lon="6.98501">
        <ele>431.8</ele>
        <time>2025-07-15T19:28:21Z</time>
      </trkpt>
      <trkpt lat="43.698" lon="6.98478">
        <ele>432.4</ele>
        <time>2025-07-15T19:28:27Z</time>
      </trkpt>
      <trkpt lat="43.69794" lon="6.98455">
        <ele>432.8</ele>
        <time>2025-07-15T19:28:33Z</time>
      </trkpt>
      <trkpt lat="43.69792" lon="6.98443">
        <ele>433.2</ele>
        <time>2025-07-15T19:28:36Z</time>
      </trkpt>
      <trkpt lat="43.69787" lon="6.9841">
        <ele>434.2</ele>
        <time>2025-07-15T19:28:45Z</time>
      </trkpt>
      <trkpt lat="43.69784" lon="6.98374">
        <ele>435</ele>
        <time>2025-07-15T19:28:54Z</time>
      </trkpt>
      <trkpt lat="43.69784" lon="6.98358">
        <ele>435.2</ele>
        <time>2025-07-15T19:28:58Z</time>
      </trkpt>
      <trkpt lat="43.69786" lon="6.9835">
        <ele>435.4</ele>
        <time>2025-07-15T19:29:00Z</time>
      </trkpt>
      <trkpt lat="43.69797" lon="6.98311">
        <ele>436.4</ele>
        <time>2025-07-15T19:29:11Z</time>
      </trkpt>
      <trkpt lat="43.69805" lon="6.98284">
        <ele>437.2</ele>
        <time>2025-07-15T19:29:18Z</time>
      </trkpt>
      <trkpt lat="43.69814" lon="6.98259">
        <ele>437.4</ele>
        <time>2025-07-15T19:29:25Z</time>
      </trkpt>
      <trkpt lat="43.69815" lon="6.98255">
        <ele>437.6</ele>
        <time>2025-07-15T19:29:26Z</time>
      </trkpt>
      <trkpt lat="43.69823" lon="6.98226">
        <ele>438.2</ele>
        <time>2025-07-15T19:29:34Z</time>
      </trkpt>
      <trkpt lat="43.69829" lon="6.98204">
        <ele>438.4</ele>
        <time>2025-07-15T19:29:40Z</time>
      </trkpt>
      <trkpt lat="43.69831" lon="6.98201">
        <ele>438.6</ele>
        <time>2025-07-15T19:29:41Z</time>
      </trkpt>
      <trkpt lat="43.69844" lon="6.98174">
        <ele>439.4</ele>
        <time>2025-07-15T19:29:49Z</time>
      </trkpt>
      <trkpt lat="43.69846" lon="6.98165">
        <ele>439.8</ele>
        <time>2025-07-15T19:29:51Z</time>
      </trkpt>
      <trkpt lat="43.69852" lon="6.98141">
        <ele>440</ele>
        <time>2025-07-15T19:29:57Z</time>
      </trkpt>
      <trkpt lat="43.6986" lon="6.98116">
        <ele>440.6</ele>
        <time>2025-07-15T19:30:04Z</time>
      </trkpt>
      <trkpt lat="43.69864" lon="6.98105">
        <ele>440.8</ele>
        <time>2025-07-15T19:30:07Z</time>
      </trkpt>
      <trkpt lat="43.69869" lon="6.98079">
        <ele>441.8</ele>
        <time>2025-07-15T19:30:14Z</time>
      </trkpt>
      <trkpt lat="43.6987" lon="6.98073">
        <ele>441.8</ele>
        <time>2025-07-15T19:30:16Z</time>
      </trkpt>
      <trkpt lat="43.69871" lon="6.98066">
        <ele>442</ele>
        <time>2025-07-15T19:30:18Z</time>
      </trkpt>
      <trkpt lat="43.69869" lon="6.98027">
        <ele>442.8</ele>
        <time>2025-07-15T19:30:27Z</time>
      </trkpt>
      <trkpt lat="43.69866" lon="6.98013">
        <ele>443.2</ele>
        <time>2025-07-15T19:30:30Z</time>
      </trkpt>
      <trkpt lat="43.69859" lon="6.97989">
        <ele>443.8</ele>
        <time>2025-07-15T19:30:36Z</time>
      </trkpt>
      <trkpt lat="43.69848" lon="6.9797">
        <ele>444.4</ele>
        <time>2025-07-15T19:30:42Z</time>
      </trkpt>
      <trkpt lat="43.69843" lon="6.97962">
        <ele>444.6</ele>
        <time>2025-07-15T19:30:44Z</time>
      </trkpt>
      <trkpt lat="43.69829" lon="6.97939">
        <ele>445</ele>
        <time>2025-07-15T19:30:52Z</time>
      </trkpt>
      <trkpt lat="43.69822" lon="6.97937">
        <ele>445.4</ele>
        <time>2025-07-15T19:30:56Z</time>
      </trkpt>
      <trkpt lat="43.69821" lon="6.97936">
        <ele>445.4</ele>
        <time>2025-07-15T19:30:57Z</time>
      </trkpt>
      <trkpt lat="43.69821" lon="6.97936">
        <ele>445.4</ele>
        <time>2025-07-15T19:30:59Z</time>
      </trkpt>
      <trkpt lat="43.69824" lon="6.97934">
        <ele>445.2</ele>
        <time>2025-07-15T19:34:27Z</time>
      </trkpt>
      <trkpt lat="43.69824" lon="6.9793">
        <ele>445.2</ele>
        <time>2025-07-15T19:34:28Z</time>
      </trkpt>
      <trkpt lat="43.6982" lon="6.97912">
        <ele>445.4</ele>
        <time>2025-07-15T19:34:32Z</time>
      </trkpt>
      <trkpt lat="43.69815" lon="6.97878">
        <ele>446</ele>
        <time>2025-07-15T19:34:39Z</time>
      </trkpt>
      <trkpt lat="43.69814" lon="6.97855">
        <ele>446.6</ele>
        <time>2025-07-15T19:34:43Z</time>
      </trkpt>
      <trkpt lat="43.69812" lon="6.97835">
        <ele>447</ele>
        <time>2025-07-15T19:34:47Z</time>
      </trkpt>
      <trkpt lat="43.69809" lon="6.97809">
        <ele>447.6</ele>
        <time>2025-07-15T19:34:53Z</time>
      </trkpt>
      <trkpt lat="43.69808" lon="6.97805">
        <ele>447.8</ele>
        <time>2025-07-15T19:34:54Z</time>
      </trkpt>
      <trkpt lat="43.69793" lon="6.97768">
        <ele>448.2</ele>
        <time>2025-07-15T19:35:02Z</time>
      </trkpt>
      <trkpt lat="43.69776" lon="6.97744">
        <ele>448.2</ele>
        <time>2025-07-15T19:35:08Z</time>
      </trkpt>
      <trkpt lat="43.69773" lon="6.97741">
        <ele>448.2</ele>
        <time>2025-07-15T19:35:09Z</time>
      </trkpt>
      <trkpt lat="43.69748" lon="6.97727">
        <ele>448.4</ele>
        <time>2025-07-15T19:35:16Z</time>
      </trkpt>
      <trkpt lat="43.69722" lon="6.97724">
        <ele>448.8</ele>
        <time>2025-07-15T19:35:23Z</time>
      </trkpt>
      <trkpt lat="43.69718" lon="6.97724">
        <ele>448.8</ele>
        <time>2025-07-15T19:35:24Z</time>
      </trkpt>
      <trkpt lat="43.69693" lon="6.97734">
        <ele>449.6</ele>
        <time>2025-07-15T19:35:31Z</time>
      </trkpt>
      <trkpt lat="43.69689" lon="6.97736">
        <ele>449.8</ele>
        <time>2025-07-15T19:35:32Z</time>
      </trkpt>
      <trkpt lat="43.69672" lon="6.97752">
        <ele>450.6</ele>
        <time>2025-07-15T19:35:38Z</time>
      </trkpt>
      <trkpt lat="43.69669" lon="6.97755">
        <ele>450.8</ele>
        <time>2025-07-15T19:35:39Z</time>
      </trkpt>
      <trkpt lat="43.6965" lon="6.97776">
        <ele>451.6</ele>
        <time>2025-07-15T19:35:46Z</time>
      </trkpt>
      <trkpt lat="43.69642" lon="6.97785">
        <ele>451.8</ele>
        <time>2025-07-15T19:35:49Z</time>
      </trkpt>
      <trkpt lat="43.69626" lon="6.97801">
        <ele>452.6</ele>
        <time>2025-07-15T19:35:55Z</time>
      </trkpt>
      <trkpt lat="43.69618" lon="6.97809">
        <ele>453</ele>
        <time>2025-07-15T19:35:58Z</time>
      </trkpt>
      <trkpt lat="43.69601" lon="6.97827">
        <ele>453.8</ele>
        <time>2025-07-15T19:36:05Z</time>
      </trkpt>
      <trkpt lat="43.69595" lon="6.97832">
        <ele>454</ele>
        <time>2025-07-15T19:36:07Z</time>
      </trkpt>
      <trkpt lat="43.69584" lon="6.9784">
        <ele>454.8</ele>
        <time>2025-07-15T19:36:12Z</time>
      </trkpt>
      <trkpt lat="43.69574" lon="6.97845">
        <ele>455.2</ele>
        <time>2025-07-15T19:36:16Z</time>
      </trkpt>
      <trkpt lat="43.69567" lon="6.97845">
        <ele>455.4</ele>
        <time>2025-07-15T19:36:18Z</time>
      </trkpt>
      <trkpt lat="43.69552" lon="6.97844">
        <ele>456</ele>
        <time>2025-07-15T19:36:23Z</time>
      </trkpt>
      <trkpt lat="43.69549" lon="6.97844">
        <ele>456.2</ele>
        <time>2025-07-15T19:36:24Z</time>
      </trkpt>
      <trkpt lat="43.69527" lon="6.97848">
        <ele>457</ele>
        <time>2025-07-15T19:36:31Z</time>
      </trkpt>
      <trkpt lat="43.69521" lon="6.9785">
        <ele>457.4</ele>
        <time>2025-07-15T19:36:33Z</time>
      </trkpt>
      <trkpt lat="43.69496" lon="6.97864">
        <ele>458.4</ele>
        <time>2025-07-15T19:36:41Z</time>
      </trkpt>
      <trkpt lat="43.69493" lon="6.97866">
        <ele>458.4</ele>
        <time>2025-07-15T19:36:42Z</time>
      </trkpt>
      <trkpt lat="43.6947" lon="6.9788">
        <ele>459.2</ele>
        <time>2025-07-15T19:36:50Z</time>
      </trkpt>
      <trkpt lat="43.69462" lon="6.97883">
        <ele>459.6</ele>
        <time>2025-07-15T19:36:53Z</time>
      </trkpt>
      <trkpt lat="43.69449" lon="6.97885">
        <ele>460</ele>
        <time>2025-07-15T19:36:58Z</time>
      </trkpt>
      <trkpt lat="43.69437" lon="6.97886">
        <ele>460.8</ele>
        <time>2025-07-15T19:37:02Z</time>
      </trkpt>
      <trkpt lat="43.69426" lon="6.97884">
        <ele>461.2</ele>
        <time>2025-07-15T19:37:06Z</time>
      </trkpt>
      <trkpt lat="43.69403" lon="6.97884">
        <ele>462</ele>
        <time>2025-07-15T19:37:14Z</time>
      </trkpt>
      <trkpt lat="43.69399" lon="6.97883">
        <ele>462</ele>
        <time>2025-07-15T19:37:15Z</time>
      </trkpt>
      <trkpt lat="43.69374" lon="6.97891">
        <ele>463</ele>
        <time>2025-07-15T19:37:23Z</time>
      </trkpt>
      <trkpt lat="43.69371" lon="6.97892">
        <ele>463.2</ele>
        <time>2025-07-15T19:37:24Z</time>
      </trkpt>
      <trkpt lat="43.69349" lon="6.9791">
        <ele>464</ele>
        <time>2025-07-15T19:37:32Z</time>
      </trkpt>
      <trkpt lat="43.69346" lon="6.97913">
        <ele>464.4</ele>
        <time>2025-07-15T19:37:33Z</time>
      </trkpt>
      <trkpt lat="43.69328" lon="6.97928">
        <ele>465.2</ele>
        <time>2025-07-15T19:37:40Z</time>
      </trkpt>
      <trkpt lat="43.69322" lon="6.97931">
        <ele>465.4</ele>
        <time>2025-07-15T19:37:42Z</time>
      </trkpt>
      <trkpt lat="43.69303" lon="6.97939">
        <ele>466.2</ele>
        <time>2025-07-15T19:37:48Z</time>
      </trkpt>
      <trkpt lat="43.69297" lon="6.97941">
        <ele>466.4</ele>
        <time>2025-07-15T19:37:50Z</time>
      </trkpt>
      <trkpt lat="43.69282" lon="6.97947">
        <ele>467.4</ele>
        <time>2025-07-15T19:37:55Z</time>
      </trkpt>
      <trkpt lat="43.69279" lon="6.97947">
        <ele>467.6</ele>
        <time>2025-07-15T19:37:56Z</time>
      </trkpt>
      <trkpt lat="43.69255" lon="6.97957">
        <ele>468.6</ele>
        <time>2025-07-15T19:38:04Z</time>
      </trkpt>
      <trkpt lat="43.69253" lon="6.97959">
        <ele>468.8</ele>
        <time>2025-07-15T19:38:05Z</time>
      </trkpt>
      <trkpt lat="43.69238" lon="6.97977">
        <ele>469.2</ele>
        <time>2025-07-15T19:38:11Z</time>
      </trkpt>
      <trkpt lat="43.69229" lon="6.97993">
        <ele>469.8</ele>
        <time>2025-07-15T19:38:16Z</time>
      </trkpt>
      <trkpt lat="43.69225" lon="6.97999">
        <ele>469.8</ele>
        <time>2025-07-15T19:38:18Z</time>
      </trkpt>
      <trkpt lat="43.69203" lon="6.98014">
        <ele>470.6</ele>
        <time>2025-07-15T19:38:26Z</time>
      </trkpt>
      <trkpt lat="43.692" lon="6.98015">
        <ele>471</ele>
        <time>2025-07-15T19:38:27Z</time>
      </trkpt>
      <trkpt lat="43.69177" lon="6.98017">
        <ele>471.8</ele>
        <time>2025-07-15T19:38:34Z</time>
      </trkpt>
      <trkpt lat="43.69171" lon="6.98016">
        <ele>472.2</ele>
        <time>2025-07-15T19:38:36Z</time>
      </trkpt>
      <trkpt lat="43.69161" lon="6.98011">
        <ele>473</ele>
        <time>2025-07-15T19:38:40Z</time>
      </trkpt>
      <trkpt lat="43.69152" lon="6.98007">
        <ele>473.4</ele>
        <time>2025-07-15T19:38:43Z</time>
      </trkpt>
      <trkpt lat="43.69134" lon="6.97999">
        <ele>474.2</ele>
        <time>2025-07-15T19:38:49Z</time>
      </trkpt>
      <trkpt lat="43.69127" lon="6.97996">
        <ele>474.4</ele>
        <time>2025-07-15T19:38:51Z</time>
      </trkpt>
      <trkpt lat="43.69106" lon="6.97987">
        <ele>475.2</ele>
        <time>2025-07-15T19:38:58Z</time>
      </trkpt>
      <trkpt lat="43.69099" lon="6.97985">
        <ele>475.6</ele>
        <time>2025-07-15T19:39:00Z</time>
      </trkpt>
      <trkpt lat="43.69077" lon="6.97977">
        <ele>476.6</ele>
        <time>2025-07-15T19:39:07Z</time>
      </trkpt>
      <trkpt lat="43.6907" lon="6.97973">
        <ele>476.8</ele>
        <time>2025-07-15T19:39:09Z</time>
      </trkpt>
      <trkpt lat="43.69046" lon="6.97964">
        <ele>477.8</ele>
        <time>2025-07-15T19:39:17Z</time>
      </trkpt>
      <trkpt lat="43.69043" lon="6.97963">
        <ele>477.8</ele>
        <time>2025-07-15T19:39:18Z</time>
      </trkpt>
      <trkpt lat="43.69016" lon="6.97956">
        <ele>479</ele>
        <time>2025-07-15T19:39:26Z</time>
      </trkpt>
      <trkpt lat="43.69013" lon="6.97956">
        <ele>479</ele>
        <time>2025-07-15T19:39:27Z</time>
      </trkpt>
      <trkpt lat="43.68995" lon="6.97955">
        <ele>480.2</ele>
        <time>2025-07-15T19:39:33Z</time>
      </trkpt>
      <trkpt lat="43.68987" lon="6.97955">
        <ele>480.2</ele>
        <time>2025-07-15T19:39:35Z</time>
      </trkpt>
      <trkpt lat="43.68961" lon="6.97952">
        <ele>481</ele>
        <time>2025-07-15T19:39:43Z</time>
      </trkpt>
      <trkpt lat="43.68958" lon="6.97952">
        <ele>481</ele>
        <time>2025-07-15T19:39:44Z</time>
      </trkpt>
      <trkpt lat="43.68933" lon="6.97949">
        <ele>482.2</ele>
        <time>2025-07-15T19:39:52Z</time>
      </trkpt>
      <trkpt lat="43.68927" lon="6.97948">
        <ele>482.4</ele>
        <time>2025-07-15T19:39:54Z</time>
      </trkpt>
      <trkpt lat="43.68901" lon="6.97938">
        <ele>483.2</ele>
        <time>2025-07-15T19:40:03Z</time>
      </trkpt>
      <trkpt lat="43.68877" lon="6.97922">
        <ele>484.2</ele>
        <time>2025-07-15T19:40:11Z</time>
      </trkpt>
      <trkpt lat="43.68874" lon="6.9792">
        <ele>484.2</ele>
        <time>2025-07-15T19:40:12Z</time>
      </trkpt>
      <trkpt lat="43.68851" lon="6.97904">
        <ele>485.2</ele>
        <time>2025-07-15T19:40:20Z</time>
      </trkpt>
      <trkpt lat="43.68842" lon="6.97899">
        <ele>485.4</ele>
        <time>2025-07-15T19:40:23Z</time>
      </trkpt>
      <trkpt lat="43.68826" lon="6.9789">
        <ele>486.2</ele>
        <time>2025-07-15T19:40:28Z</time>
      </trkpt>
      <trkpt lat="43.68812" lon="6.97886">
        <ele>486.8</ele>
        <time>2025-07-15T19:40:32Z</time>
      </trkpt>
      <trkpt lat="43.68799" lon="6.97882">
        <ele>487.4</ele>
        <time>2025-07-15T19:40:36Z</time>
      </trkpt>
      <trkpt lat="43.68778" lon="6.97883">
        <ele>488.2</ele>
        <time>2025-07-15T19:40:42Z</time>
      </trkpt>
      <trkpt lat="43.68775" lon="6.97883">
        <ele>488.4</ele>
        <time>2025-07-15T19:40:43Z</time>
      </trkpt>
      <trkpt lat="43.68755" lon="6.97886">
        <ele>489</ele>
        <time>2025-07-15T19:40:49Z</time>
      </trkpt>
      <trkpt lat="43.6873" lon="6.9789">
        <ele>489.6</ele>
        <time>2025-07-15T19:40:57Z</time>
      </trkpt>
      <trkpt lat="43.6872" lon="6.97891">
        <ele>490.2</ele>
        <time>2025-07-15T19:41:00Z</time>
      </trkpt>
      <trkpt lat="43.68704" lon="6.97891">
        <ele>491</ele>
        <time>2025-07-15T19:41:05Z</time>
      </trkpt>
      <trkpt lat="43.68695" lon="6.97888">
        <ele>491.2</ele>
        <time>2025-07-15T19:41:08Z</time>
      </trkpt>
      <trkpt lat="43.68674" lon="6.97878">
        <ele>492.2</ele>
        <time>2025-07-15T19:41:15Z</time>
      </trkpt>
      <trkpt lat="43.68665" lon="6.97873">
        <ele>492.6</ele>
        <time>2025-07-15T19:41:18Z</time>
      </trkpt>
      <trkpt lat="43.68648" lon="6.97863">
        <ele>493.2</ele>
        <time>2025-07-15T19:41:24Z</time>
      </trkpt>
      <trkpt lat="43.68633" lon="6.97855">
        <ele>493.8</ele>
        <time>2025-07-15T19:41:29Z</time>
      </trkpt>
      <trkpt lat="43.68628" lon="6.97852">
        <ele>494.4</ele>
        <time>2025-07-15T19:41:31Z</time>
      </trkpt>
      <trkpt lat="43.6861" lon="6.97842">
        <ele>495</ele>
        <time>2025-07-15T19:41:37Z</time>
      </trkpt>
      <trkpt lat="43.68607" lon="6.97839">
        <ele>495.4</ele>
        <time>2025-07-15T19:41:38Z</time>
      </trkpt>
      <trkpt lat="43.68587" lon="6.97818">
        <ele>496</ele>
        <time>2025-07-15T19:41:46Z</time>
      </trkpt>
      <trkpt lat="43.6858" lon="6.97807">
        <ele>496.4</ele>
        <time>2025-07-15T19:41:49Z</time>
      </trkpt>
      <trkpt lat="43.6857" lon="6.97795">
        <ele>497</ele>
        <time>2025-07-15T19:41:53Z</time>
      </trkpt>
      <trkpt lat="43.68561" lon="6.97782">
        <ele>497.8</ele>
        <time>2025-07-15T19:41:57Z</time>
      </trkpt>
      <trkpt lat="43.68557" lon="6.97775">
        <ele>498</ele>
        <time>2025-07-15T19:41:59Z</time>
      </trkpt>
      <trkpt lat="43.68541" lon="6.97753">
        <ele>498.8</ele>
        <time>2025-07-15T19:42:06Z</time>
      </trkpt>
      <trkpt lat="43.68539" lon="6.9775">
        <ele>498.8</ele>
        <time>2025-07-15T19:42:07Z</time>
      </trkpt>
      <trkpt lat="43.68521" lon="6.97734">
        <ele>499.8</ele>
        <time>2025-07-15T19:42:14Z</time>
      </trkpt>
      <trkpt lat="43.68494" lon="6.97721">
        <ele>501</ele>
        <time>2025-07-15T19:42:23Z</time>
      </trkpt>
      <trkpt lat="43.68477" lon="6.97704">
        <ele>501.8</ele>
        <time>2025-07-15T19:42:30Z</time>
      </trkpt>
      <trkpt lat="43.68473" lon="6.97699">
        <ele>502</ele>
        <time>2025-07-15T19:42:32Z</time>
      </trkpt>
      <trkpt lat="43.68455" lon="6.97677">
        <ele>503.2</ele>
        <time>2025-07-15T19:42:40Z</time>
      </trkpt>
      <trkpt lat="43.68453" lon="6.97674">
        <ele>503.4</ele>
        <time>2025-07-15T19:42:41Z</time>
      </trkpt>
      <trkpt lat="43.68438" lon="6.97657">
        <ele>504.4</ele>
        <time>2025-07-15T19:42:47Z</time>
      </trkpt>
      <trkpt lat="43.68426" lon="6.97645">
        <ele>505</ele>
        <time>2025-07-15T19:42:52Z</time>
      </trkpt>
      <trkpt lat="43.68419" lon="6.97637">
        <ele>505.6</ele>
        <time>2025-07-15T19:42:55Z</time>
      </trkpt>
      <trkpt lat="43.68401" lon="6.97619">
        <ele>506.4</ele>
        <time>2025-07-15T19:43:02Z</time>
      </trkpt>
      <trkpt lat="43.68399" lon="6.97616">
        <ele>506.6</ele>
        <time>2025-07-15T19:43:03Z</time>
      </trkpt>
      <trkpt lat="43.6838" lon="6.97601">
        <ele>507.6</ele>
        <time>2025-07-15T19:43:10Z</time>
      </trkpt>
      <trkpt lat="43.68355" lon="6.97588">
        <ele>508.8</ele>
        <time>2025-07-15T19:43:19Z</time>
      </trkpt>
      <trkpt lat="43.68337" lon="6.97572">
        <ele>509.4</ele>
        <time>2025-07-15T19:43:26Z</time>
      </trkpt>
      <trkpt lat="43.68333" lon="6.97566">
        <ele>509.8</ele>
        <time>2025-07-15T19:43:28Z</time>
      </trkpt>
      <trkpt lat="43.68318" lon="6.9755">
        <ele>510.4</ele>
        <time>2025-07-15T19:43:34Z</time>
      </trkpt>
      <trkpt lat="43.68313" lon="6.97543">
        <ele>510.8</ele>
        <time>2025-07-15T19:43:36Z</time>
      </trkpt>
      <trkpt lat="43.68302" lon="6.97527">
        <ele>511.4</ele>
        <time>2025-07-15T19:43:41Z</time>
      </trkpt>
      <trkpt lat="43.68292" lon="6.97513">
        <ele>511.8</ele>
        <time>2025-07-15T19:43:45Z</time>
      </trkpt>
      <trkpt lat="43.68285" lon="6.97497">
        <ele>512.6</ele>
        <time>2025-07-15T19:43:49Z</time>
      </trkpt>
      <trkpt lat="43.68278" lon="6.97476">
        <ele>513.2</ele>
        <time>2025-07-15T19:43:54Z</time>
      </trkpt>
      <trkpt lat="43.68275" lon="6.97467">
        <ele>513.4</ele>
        <time>2025-07-15T19:43:56Z</time>
      </trkpt>
      <trkpt lat="43.68271" lon="6.97445">
        <ele>514.2</ele>
        <time>2025-07-15T19:44:01Z</time>
      </trkpt>
      <trkpt lat="43.6827" lon="6.97436">
        <ele>514.6</ele>
        <time>2025-07-15T19:44:03Z</time>
      </trkpt>
      <trkpt lat="43.68263" lon="6.97412">
        <ele>515.4</ele>
        <time>2025-07-15T19:44:08Z</time>
      </trkpt>
      <trkpt lat="43.68259" lon="6.97399">
        <ele>515.8</ele>
        <time>2025-07-15T19:44:11Z</time>
      </trkpt>
      <trkpt lat="43.6825" lon="6.9738">
        <ele>516.4</ele>
        <time>2025-07-15T19:44:16Z</time>
      </trkpt>
      <trkpt lat="43.68242" lon="6.97367">
        <ele>517</ele>
        <time>2025-07-15T19:44:20Z</time>
      </trkpt>
      <trkpt lat="43.68237" lon="6.97357">
        <ele>517.6</ele>
        <time>2025-07-15T19:44:23Z</time>
      </trkpt>
      <trkpt lat="43.68233" lon="6.97347">
        <ele>518</ele>
        <time>2025-07-15T19:44:26Z</time>
      </trkpt>
      <trkpt lat="43.68224" lon="6.97321">
        <ele>518.6</ele>
        <time>2025-07-15T19:44:33Z</time>
      </trkpt>
      <trkpt lat="43.68224" lon="6.97321">
        <ele>518.6</ele>
        <time>2025-07-15T19:44:34Z</time>
      </trkpt>
      <trkpt lat="43.68216" lon="6.97297">
        <ele>519.2</ele>
        <time>2025-07-15T19:44:40Z</time>
      </trkpt>
      <trkpt lat="43.68214" lon="6.97289">
        <ele>519.6</ele>
        <time>2025-07-15T19:44:42Z</time>
      </trkpt>
      <trkpt lat="43.68208" lon="6.97271">
        <ele>520.4</ele>
        <time>2025-07-15T19:44:47Z</time>
      </trkpt>
      <trkpt lat="43.68203" lon="6.97261">
        <ele>520.6</ele>
        <time>2025-07-15T19:44:50Z</time>
      </trkpt>
      <trkpt lat="43.68193" lon="6.97236">
        <ele>521.4</ele>
        <time>2025-07-15T19:44:57Z</time>
      </trkpt>
      <trkpt lat="43.68191" lon="6.97228">
        <ele>521.8</ele>
        <time>2025-07-15T19:45:00Z</time>
      </trkpt>
      <trkpt lat="43.68182" lon="6.97206">
        <ele>522.4</ele>
        <time>2025-07-15T19:45:05Z</time>
      </trkpt>
      <trkpt lat="43.68179" lon="6.97195">
        <ele>523</ele>
        <time>2025-07-15T19:45:08Z</time>
      </trkpt>
      <trkpt lat="43.68168" lon="6.9718">
        <ele>523.8</ele>
        <time>2025-07-15T19:45:13Z</time>
      </trkpt>
      <trkpt lat="43.68165" lon="6.97178">
        <ele>524</ele>
        <time>2025-07-15T19:45:14Z</time>
      </trkpt>
      <trkpt lat="43.68148" lon="6.97174">
        <ele>524.6</ele>
        <time>2025-07-15T19:45:19Z</time>
      </trkpt>
      <trkpt lat="43.68131" lon="6.9718">
        <ele>525.2</ele>
        <time>2025-07-15T19:45:24Z</time>
      </trkpt>
      <trkpt lat="43.68128" lon="6.97181">
        <ele>525.2</ele>
        <time>2025-07-15T19:45:25Z</time>
      </trkpt>
      <trkpt lat="43.68109" lon="6.97191">
        <ele>526</ele>
        <time>2025-07-15T19:45:31Z</time>
      </trkpt>
      <trkpt lat="43.68104" lon="6.97193">
        <ele>526.2</ele>
        <time>2025-07-15T19:45:33Z</time>
      </trkpt>
      <trkpt lat="43.68097" lon="6.97193">
        <ele>526.4</ele>
        <time>2025-07-15T19:45:35Z</time>
      </trkpt>
      <trkpt lat="43.68089" lon="6.97192">
        <ele>526.6</ele>
        <time>2025-07-15T19:45:38Z</time>
      </trkpt>
      <trkpt lat="43.68086" lon="6.97188">
        <ele>527</ele>
        <time>2025-07-15T19:45:40Z</time>
      </trkpt>
      <trkpt lat="43.68082" lon="6.97181">
        <ele>527.2</ele>
        <time>2025-07-15T19:45:42Z</time>
      </trkpt>
      <trkpt lat="43.68071" lon="6.97166">
        <ele>527.8</ele>
        <time>2025-07-15T19:45:47Z</time>
      </trkpt>
      <trkpt lat="43.68048" lon="6.97141">
        <ele>527.6</ele>
        <time>2025-07-15T19:45:56Z</time>
      </trkpt>
      <trkpt lat="43.68039" lon="6.97138">
        <ele>527.4</ele>
        <time>2025-07-15T19:45:58Z</time>
      </trkpt>
      <trkpt lat="43.6803" lon="6.97142">
        <ele>527.2</ele>
        <time>2025-07-15T19:46:00Z</time>
      </trkpt>
      <trkpt lat="43.68013" lon="6.97162">
        <ele>526.6</ele>
        <time>2025-07-15T19:46:04Z</time>
      </trkpt>
      <trkpt lat="43.68002" lon="6.97179">
        <ele>525.8</ele>
        <time>2025-07-15T19:46:07Z</time>
      </trkpt>
      <trkpt lat="43.67972" lon="6.97221">
        <ele>524.8</ele>
        <time>2025-07-15T19:46:14Z</time>
      </trkpt>
      <trkpt lat="43.6795" lon="6.97253">
        <ele>523.6</ele>
        <time>2025-07-15T19:46:19Z</time>
      </trkpt>
      <trkpt lat="43.67945" lon="6.9726">
        <ele>523.4</ele>
        <time>2025-07-15T19:46:20Z</time>
      </trkpt>
      <trkpt lat="43.67932" lon="6.97279">
        <ele>522.6</ele>
        <time>2025-07-15T19:46:23Z</time>
      </trkpt>
      <trkpt lat="43.67923" lon="6.97291">
        <ele>522.2</ele>
        <time>2025-07-15T19:46:25Z</time>
      </trkpt>
      <trkpt lat="43.67917" lon="6.97294">
        <ele>521.8</ele>
        <time>2025-07-15T19:46:26Z</time>
      </trkpt>
      <trkpt lat="43.67911" lon="6.97296">
        <ele>521.6</ele>
        <time>2025-07-15T19:46:27Z</time>
      </trkpt>
      <trkpt lat="43.67905" lon="6.97297">
        <ele>521.4</ele>
        <time>2025-07-15T19:46:28Z</time>
      </trkpt>
      <trkpt lat="43.67898" lon="6.97301">
        <ele>521.4</ele>
        <time>2025-07-15T19:46:29Z</time>
      </trkpt>
      <trkpt lat="43.67895" lon="6.97304">
        <ele>521.2</ele>
        <time>2025-07-15T19:46:30Z</time>
      </trkpt>
      <trkpt lat="43.67881" lon="6.9732">
        <ele>521</ele>
        <time>2025-07-15T19:46:33Z</time>
      </trkpt>
      <trkpt lat="43.67871" lon="6.97327">
        <ele>520.8</ele>
        <time>2025-07-15T19:46:35Z</time>
      </trkpt>
      <trkpt lat="43.67867" lon="6.9733">
        <ele>520.8</ele>
        <time>2025-07-15T19:46:36Z</time>
      </trkpt>
      <trkpt lat="43.6786" lon="6.97342">
        <ele>520.6</ele>
        <time>2025-07-15T19:46:38Z</time>
      </trkpt>
      <trkpt lat="43.67858" lon="6.97356">
        <ele>520.4</ele>
        <time>2025-07-15T19:46:40Z</time>
      </trkpt>
      <trkpt lat="43.67856" lon="6.97364">
        <ele>520.4</ele>
        <time>2025-07-15T19:46:41Z</time>
      </trkpt>
      <trkpt lat="43.67852" lon="6.97378">
        <ele>520.4</ele>
        <time>2025-07-15T19:46:43Z</time>
      </trkpt>
      <trkpt lat="43.67847" lon="6.97392">
        <ele>520.2</ele>
        <time>2025-07-15T19:46:45Z</time>
      </trkpt>
      <trkpt lat="43.67839" lon="6.97404">
        <ele>520</ele>
        <time>2025-07-15T19:46:47Z</time>
      </trkpt>
      <trkpt lat="43.67835" lon="6.97409">
        <ele>520</ele>
        <time>2025-07-15T19:46:48Z</time>
      </trkpt>
      <trkpt lat="43.6783" lon="6.97413">
        <ele>519.8</ele>
        <time>2025-07-15T19:46:49Z</time>
      </trkpt>
      <trkpt lat="43.67809" lon="6.97425">
        <ele>519.4</ele>
        <time>2025-07-15T19:46:53Z</time>
      </trkpt>
      <trkpt lat="43.67763" lon="6.97444">
        <ele>518.4</ele>
        <time>2025-07-15T19:47:01Z</time>
      </trkpt>
      <trkpt lat="43.67752" lon="6.97443">
        <ele>517.8</ele>
        <time>2025-07-15T19:47:03Z</time>
      </trkpt>
      <trkpt lat="43.67741" lon="6.97446">
        <ele>517.4</ele>
        <time>2025-07-15T19:47:05Z</time>
      </trkpt>
      <trkpt lat="43.67733" lon="6.97451">
        <ele>517.2</ele>
        <time>2025-07-15T19:47:06Z</time>
      </trkpt>
      <trkpt lat="43.67715" lon="6.97463">
        <ele>516.2</ele>
        <time>2025-07-15T19:47:09Z</time>
      </trkpt>
      <trkpt lat="43.67707" lon="6.97468">
        <ele>515.6</ele>
        <time>2025-07-15T19:47:10Z</time>
      </trkpt>
      <trkpt lat="43.67693" lon="6.97475">
        <ele>515</ele>
        <time>2025-07-15T19:47:12Z</time>
      </trkpt>
      <trkpt lat="43.67674" lon="6.97485">
        <ele>514</ele>
        <time>2025-07-15T19:47:15Z</time>
      </trkpt>
      <trkpt lat="43.67667" lon="6.9749">
        <ele>513.6</ele>
        <time>2025-07-15T19:47:16Z</time>
      </trkpt>
      <trkpt lat="43.6765" lon="6.97503">
        <ele>513.2</ele>
        <time>2025-07-15T19:47:19Z</time>
      </trkpt>
      <trkpt lat="43.6764" lon="6.97513">
        <ele>513</ele>
        <time>2025-07-15T19:47:21Z</time>
      </trkpt>
      <trkpt lat="43.67628" lon="6.97531">
        <ele>512.4</ele>
        <time>2025-07-15T19:47:25Z</time>
      </trkpt>
      <trkpt lat="43.67622" lon="6.97544">
        <ele>512</ele>
        <time>2025-07-15T19:47:29Z</time>
      </trkpt>
      <trkpt lat="43.6762" lon="6.97548">
        <ele>511.8</ele>
        <time>2025-07-15T19:47:31Z</time>
      </trkpt>
      <trkpt lat="43.6762" lon="6.97549">
        <ele>511.8</ele>
        <time>2025-07-15T19:47:33Z</time>
      </trkpt>
      <trkpt lat="43.6762" lon="6.97549">
        <ele>511.6</ele>
        <time>2025-07-15T19:47:34Z</time>
      </trkpt>
      <trkpt lat="43.6762" lon="6.97549">
        <ele>511.6</ele>
        <time>2025-07-15T19:47:35Z</time>
      </trkpt>
      <trkpt lat="43.67619" lon="6.97554">
        <ele>511.2</ele>
        <time>2025-07-15T19:50:54Z</time>
      </trkpt>
      <trkpt lat="43.67618" lon="6.97557">
        <ele>511.2</ele>
        <time>2025-07-15T19:50:55Z</time>
      </trkpt>
      <trkpt lat="43.67611" lon="6.97581">
        <ele>511</ele>
        <time>2025-07-15T19:51:00Z</time>
      </trkpt>
      <trkpt lat="43.67608" lon="6.97592">
        <ele>511</ele>
        <time>2025-07-15T19:51:02Z</time>
      </trkpt>
      <trkpt lat="43.676" lon="6.97613">
        <ele>511</ele>
        <time>2025-07-15T19:51:06Z</time>
      </trkpt>
      <trkpt lat="43.67575" lon="6.97649">
        <ele>510.8</ele>
        <time>2025-07-15T19:51:14Z</time>
      </trkpt>
      <trkpt lat="43.67572" lon="6.97654">
        <ele>510.8</ele>
        <time>2025-07-15T19:51:15Z</time>
      </trkpt>
      <trkpt lat="43.67553" lon="6.97672">
        <ele>510.4</ele>
        <time>2025-07-15T19:51:19Z</time>
      </trkpt>
      <trkpt lat="43.67542" lon="6.97684">
        <ele>510.2</ele>
        <time>2025-07-15T19:51:21Z</time>
      </trkpt>
      <trkpt lat="43.67533" lon="6.977">
        <ele>509.8</ele>
        <time>2025-07-15T19:51:23Z</time>
      </trkpt>
      <trkpt lat="43.6753" lon="6.97709">
        <ele>509.6</ele>
        <time>2025-07-15T19:51:24Z</time>
      </trkpt>
      <trkpt lat="43.67522" lon="6.97726">
        <ele>508.6</ele>
        <time>2025-07-15T19:51:26Z</time>
      </trkpt>
      <trkpt lat="43.67516" lon="6.97734">
        <ele>508.4</ele>
        <time>2025-07-15T19:51:27Z</time>
      </trkpt>
      <trkpt lat="43.6751" lon="6.97741">
        <ele>507.8</ele>
        <time>2025-07-15T19:51:28Z</time>
      </trkpt>
      <trkpt lat="43.67496" lon="6.97754">
        <ele>507.2</ele>
        <time>2025-07-15T19:51:30Z</time>
      </trkpt>
      <trkpt lat="43.67481" lon="6.97767">
        <ele>505.6</ele>
        <time>2025-07-15T19:51:32Z</time>
      </trkpt>
      <trkpt lat="43.67465" lon="6.97781">
        <ele>504.8</ele>
        <time>2025-07-15T19:51:34Z</time>
      </trkpt>
      <trkpt lat="43.67454" lon="6.97791">
        <ele>503.4</ele>
        <time>2025-07-15T19:51:36Z</time>
      </trkpt>
      <trkpt lat="43.67447" lon="6.97798">
        <ele>502.8</ele>
        <time>2025-07-15T19:51:37Z</time>
      </trkpt>
      <trkpt lat="43.67443" lon="6.97814">
        <ele>501.4</ele>
        <time>2025-07-15T19:51:39Z</time>
      </trkpt>
      <trkpt lat="43.67444" lon="6.97822">
        <ele>500.6</ele>
        <time>2025-07-15T19:51:40Z</time>
      </trkpt>
      <trkpt lat="43.67447" lon="6.97829">
        <ele>500.2</ele>
        <time>2025-07-15T19:51:41Z</time>
      </trkpt>
      <trkpt lat="43.67453" lon="6.97833">
        <ele>499.4</ele>
        <time>2025-07-15T19:51:42Z</time>
      </trkpt>
      <trkpt lat="43.67458" lon="6.97835">
        <ele>499.2</ele>
        <time>2025-07-15T19:51:43Z</time>
      </trkpt>
      <trkpt lat="43.67466" lon="6.97833">
        <ele>498.6</ele>
        <time>2025-07-15T19:51:44Z</time>
      </trkpt>
      <trkpt lat="43.67472" lon="6.97828">
        <ele>498.2</ele>
        <time>2025-07-15T19:51:45Z</time>
      </trkpt>
      <trkpt lat="43.67478" lon="6.97821">
        <ele>497.8</ele>
        <time>2025-07-15T19:51:46Z</time>
      </trkpt>
      <trkpt lat="43.67483" lon="6.97813">
        <ele>497.4</ele>
        <time>2025-07-15T19:51:47Z</time>
      </trkpt>
      <trkpt lat="43.67489" lon="6.97805">
        <ele>497.4</ele>
        <time>2025-07-15T19:51:48Z</time>
      </trkpt>
      <trkpt lat="43.67503" lon="6.97792">
        <ele>496.6</ele>
        <time>2025-07-15T19:51:50Z</time>
      </trkpt>
      <trkpt lat="43.6752" lon="6.9778">
        <ele>495.4</ele>
        <time>2025-07-15T19:51:52Z</time>
      </trkpt>
      <trkpt lat="43.67547" lon="6.97763">
        <ele>494.2</ele>
        <time>2025-07-15T19:51:55Z</time>
      </trkpt>
      <trkpt lat="43.67557" lon="6.97756">
        <ele>493.2</ele>
        <time>2025-07-15T19:51:56Z</time>
      </trkpt>
      <trkpt lat="43.67576" lon="6.97744">
        <ele>491.6</ele>
        <time>2025-07-15T19:51:58Z</time>
      </trkpt>
      <trkpt lat="43.67584" lon="6.97738">
        <ele>490.4</ele>
        <time>2025-07-15T19:51:59Z</time>
      </trkpt>
      <trkpt lat="43.67599" lon="6.97725">
        <ele>488.6</ele>
        <time>2025-07-15T19:52:01Z</time>
      </trkpt>
      <trkpt lat="43.67613" lon="6.97713">
        <ele>486.6</ele>
        <time>2025-07-15T19:52:03Z</time>
      </trkpt>
      <trkpt lat="43.6762" lon="6.9771">
        <ele>486.2</ele>
        <time>2025-07-15T19:52:04Z</time>
      </trkpt>
      <trkpt lat="43.67627" lon="6.97712">
        <ele>484.8</ele>
        <time>2025-07-15T19:52:05Z</time>
      </trkpt>
      <trkpt lat="43.67632" lon="6.97716">
        <ele>483.6</ele>
        <time>2025-07-15T19:52:06Z</time>
      </trkpt>
      <trkpt lat="43.67636" lon="6.97722">
        <ele>483.2</ele>
        <time>2025-07-15T19:52:07Z</time>
      </trkpt>
      <trkpt lat="43.67637" lon="6.9773">
        <ele>482.2</ele>
        <time>2025-07-15T19:52:08Z</time>
      </trkpt>
      <trkpt lat="43.67631" lon="6.97746">
        <ele>481.4</ele>
        <time>2025-07-15T19:52:10Z</time>
      </trkpt>
      <trkpt lat="43.67626" lon="6.97753">
        <ele>480.8</ele>
        <time>2025-07-15T19:52:11Z</time>
      </trkpt>
      <trkpt lat="43.67607" lon="6.97775">
        <ele>480</ele>
        <time>2025-07-15T19:52:14Z</time>
      </trkpt>
      <trkpt lat="43.67601" lon="6.97785">
        <ele>479.6</ele>
        <time>2025-07-15T19:52:15Z</time>
      </trkpt>
      <trkpt lat="43.67584" lon="6.97814">
        <ele>478</ele>
        <time>2025-07-15T19:52:18Z</time>
      </trkpt>
      <trkpt lat="43.67579" lon="6.97824">
        <ele>477.8</ele>
        <time>2025-07-15T19:52:19Z</time>
      </trkpt>
      <trkpt lat="43.67574" lon="6.97833">
        <ele>476.8</ele>
        <time>2025-07-15T19:52:20Z</time>
      </trkpt>
      <trkpt lat="43.67562" lon="6.97858">
        <ele>475</ele>
        <time>2025-07-15T19:52:22Z</time>
      </trkpt>
      <trkpt lat="43.6755" lon="6.9788">
        <ele>473.2</ele>
        <time>2025-07-15T19:52:24Z</time>
      </trkpt>
      <trkpt lat="43.67544" lon="6.97891">
        <ele>472.2</ele>
        <time>2025-07-15T19:52:25Z</time>
      </trkpt>
      <trkpt lat="43.6753" lon="6.9791">
        <ele>470.8</ele>
        <time>2025-07-15T19:52:27Z</time>
      </trkpt>
      <trkpt lat="43.67523" lon="6.97917">
        <ele>470.2</ele>
        <time>2025-07-15T19:52:28Z</time>
      </trkpt>
      <trkpt lat="43.67515" lon="6.97923">
        <ele>469.2</ele>
        <time>2025-07-15T19:52:29Z</time>
      </trkpt>
      <trkpt lat="43.67498" lon="6.97941">
        <ele>467.8</ele>
        <time>2025-07-15T19:52:31Z</time>
      </trkpt>
      <trkpt lat="43.67479" lon="6.97959">
        <ele>466.6</ele>
        <time>2025-07-15T19:52:33Z</time>
      </trkpt>
      <trkpt lat="43.67469" lon="6.97968">
        <ele>465.4</ele>
        <time>2025-07-15T19:52:34Z</time>
      </trkpt>
      <trkpt lat="43.6745" lon="6.97985">
        <ele>463.4</ele>
        <time>2025-07-15T19:52:36Z</time>
      </trkpt>
      <trkpt lat="43.67441" lon="6.97994">
        <ele>462.2</ele>
        <time>2025-07-15T19:52:37Z</time>
      </trkpt>
      <trkpt lat="43.67422" lon="6.98016">
        <ele>459.8</ele>
        <time>2025-07-15T19:52:39Z</time>
      </trkpt>
      <trkpt lat="43.67405" lon="6.98039">
        <ele>457</ele>
        <time>2025-07-15T19:52:41Z</time>
      </trkpt>
      <trkpt lat="43.67387" lon="6.98063">
        <ele>454.4</ele>
        <time>2025-07-15T19:52:43Z</time>
      </trkpt>
      <trkpt lat="43.67379" lon="6.98075">
        <ele>452.4</ele>
        <time>2025-07-15T19:52:44Z</time>
      </trkpt>
      <trkpt lat="43.67362" lon="6.98097">
        <ele>450</ele>
        <time>2025-07-15T19:52:46Z</time>
      </trkpt>
      <trkpt lat="43.67353" lon="6.98106">
        <ele>449</ele>
        <time>2025-07-15T19:52:47Z</time>
      </trkpt>
      <trkpt lat="43.67343" lon="6.98114">
        <ele>446.8</ele>
        <time>2025-07-15T19:52:48Z</time>
      </trkpt>
      <trkpt lat="43.67333" lon="6.98123">
        <ele>446</ele>
        <time>2025-07-15T19:52:49Z</time>
      </trkpt>
      <trkpt lat="43.67323" lon="6.98131">
        <ele>444.2</ele>
        <time>2025-07-15T19:52:50Z</time>
      </trkpt>
      <trkpt lat="43.67312" lon="6.98139">
        <ele>442</ele>
        <time>2025-07-15T19:52:51Z</time>
      </trkpt>
      <trkpt lat="43.67302" lon="6.98147">
        <ele>441</ele>
        <time>2025-07-15T19:52:52Z</time>
      </trkpt>
      <trkpt lat="43.67291" lon="6.98156">
        <ele>439</ele>
        <time>2025-07-15T19:52:53Z</time>
      </trkpt>
      <trkpt lat="43.67271" lon="6.98173">
        <ele>436</ele>
        <time>2025-07-15T19:52:55Z</time>
      </trkpt>
      <trkpt lat="43.67263" lon="6.9818">
        <ele>434.8</ele>
        <time>2025-07-15T19:52:56Z</time>
      </trkpt>
      <trkpt lat="43.67253" lon="6.98188">
        <ele>433</ele>
        <time>2025-07-15T19:52:57Z</time>
      </trkpt>
      <trkpt lat="43.67246" lon="6.98195">
        <ele>431.2</ele>
        <time>2025-07-15T19:52:58Z</time>
      </trkpt>
      <trkpt lat="43.6723" lon="6.98216">
        <ele>428.4</ele>
        <time>2025-07-15T19:53:00Z</time>
      </trkpt>
      <trkpt lat="43.67224" lon="6.98227">
        <ele>427.4</ele>
        <time>2025-07-15T19:53:01Z</time>
      </trkpt>
      <trkpt lat="43.67216" lon="6.98237">
        <ele>426</ele>
        <time>2025-07-15T19:53:02Z</time>
      </trkpt>
      <trkpt lat="43.67208" lon="6.98246">
        <ele>425</ele>
        <time>2025-07-15T19:53:03Z</time>
      </trkpt>
      <trkpt lat="43.67201" lon="6.98254">
        <ele>423</ele>
        <time>2025-07-15T19:53:04Z</time>
      </trkpt>
      <trkpt lat="43.67193" lon="6.98262">
        <ele>421.4</ele>
        <time>2025-07-15T19:53:05Z</time>
      </trkpt>
      <trkpt lat="43.67182" lon="6.98272">
        <ele>420.4</ele>
        <time>2025-07-15T19:53:06Z</time>
      </trkpt>
      <trkpt lat="43.67175" lon="6.98278">
        <ele>418.8</ele>
        <time>2025-07-15T19:53:07Z</time>
      </trkpt>
      <trkpt lat="43.67155" lon="6.98293">
        <ele>416.4</ele>
        <time>2025-07-15T19:53:09Z</time>
      </trkpt>
      <trkpt lat="43.67145" lon="6.98299">
        <ele>414.6</ele>
        <time>2025-07-15T19:53:10Z</time>
      </trkpt>
      <trkpt lat="43.67135" lon="6.98306">
        <ele>413.8</ele>
        <time>2025-07-15T19:53:11Z</time>
      </trkpt>
      <trkpt lat="43.67125" lon="6.98312">
        <ele>412.4</ele>
        <time>2025-07-15T19:53:12Z</time>
      </trkpt>
      <trkpt lat="43.67104" lon="6.98325">
        <ele>409.8</ele>
        <time>2025-07-15T19:53:14Z</time>
      </trkpt>
      <trkpt lat="43.67094" lon="6.98331">
        <ele>408.8</ele>
        <time>2025-07-15T19:53:15Z</time>
      </trkpt>
      <trkpt lat="43.67083" lon="6.98338">
        <ele>407.2</ele>
        <time>2025-07-15T19:53:16Z</time>
      </trkpt>
      <trkpt lat="43.67072" lon="6.98344">
        <ele>405.6</ele>
        <time>2025-07-15T19:53:17Z</time>
      </trkpt>
      <trkpt lat="43.67061" lon="6.98351">
        <ele>404.6</ele>
        <time>2025-07-15T19:53:18Z</time>
      </trkpt>
      <trkpt lat="43.6705" lon="6.98357">
        <ele>403</ele>
        <time>2025-07-15T19:53:19Z</time>
      </trkpt>
      <trkpt lat="43.67029" lon="6.9837">
        <ele>400</ele>
        <time>2025-07-15T19:53:21Z</time>
      </trkpt>
      <trkpt lat="43.67008" lon="6.98382">
        <ele>397.2</ele>
        <time>2025-07-15T19:53:23Z</time>
      </trkpt>
      <trkpt lat="43.66999" lon="6.98388">
        <ele>395.2</ele>
        <time>2025-07-15T19:53:24Z</time>
      </trkpt>
      <trkpt lat="43.6699" lon="6.98395">
        <ele>394.2</ele>
        <time>2025-07-15T19:53:25Z</time>
      </trkpt>
      <trkpt lat="43.66981" lon="6.98403">
        <ele>392.6</ele>
        <time>2025-07-15T19:53:26Z</time>
      </trkpt>
      <trkpt lat="43.66967" lon="6.9842">
        <ele>390.2</ele>
        <time>2025-07-15T19:53:28Z</time>
      </trkpt>
      <trkpt lat="43.6696" lon="6.98428">
        <ele>389.2</ele>
        <time>2025-07-15T19:53:29Z</time>
      </trkpt>
      <trkpt lat="43.66953" lon="6.98434">
        <ele>388.6</ele>
        <time>2025-07-15T19:53:30Z</time>
      </trkpt>
      <trkpt lat="43.66945" lon="6.98439">
        <ele>387.4</ele>
        <time>2025-07-15T19:53:31Z</time>
      </trkpt>
      <trkpt lat="43.66937" lon="6.98442">
        <ele>387</ele>
        <time>2025-07-15T19:53:32Z</time>
      </trkpt>
      <trkpt lat="43.66928" lon="6.98445">
        <ele>386.2</ele>
        <time>2025-07-15T19:53:33Z</time>
      </trkpt>
      <trkpt lat="43.66903" lon="6.98449">
        <ele>385</ele>
        <time>2025-07-15T19:53:36Z</time>
      </trkpt>
      <trkpt lat="43.66877" lon="6.98453">
        <ele>384</ele>
        <time>2025-07-15T19:53:39Z</time>
      </trkpt>
      <trkpt lat="43.66852" lon="6.98456">
        <ele>382.8</ele>
        <time>2025-07-15T19:53:42Z</time>
      </trkpt>
      <trkpt lat="43.66844" lon="6.98457">
        <ele>382.4</ele>
        <time>2025-07-15T19:53:43Z</time>
      </trkpt>
      <trkpt lat="43.66835" lon="6.98457">
        <ele>382.2</ele>
        <time>2025-07-15T19:53:44Z</time>
      </trkpt>
      <trkpt lat="43.6682" lon="6.98451">
        <ele>381.6</ele>
        <time>2025-07-15T19:53:46Z</time>
      </trkpt>
      <trkpt lat="43.668" lon="6.98437">
        <ele>380.6</ele>
        <time>2025-07-15T19:53:49Z</time>
      </trkpt>
      <trkpt lat="43.66794" lon="6.9843">
        <ele>380</ele>
        <time>2025-07-15T19:53:50Z</time>
      </trkpt>
      <trkpt lat="43.66791" lon="6.98421">
        <ele>379.8</ele>
        <time>2025-07-15T19:53:51Z</time>
      </trkpt>
      <trkpt lat="43.66775" lon="6.98377">
        <ele>379.6</ele>
        <time>2025-07-15T19:53:56Z</time>
      </trkpt>
      <trkpt lat="43.66756" lon="6.98348">
        <ele>380.8</ele>
        <time>2025-07-15T19:54:02Z</time>
      </trkpt>
      <trkpt lat="43.66748" lon="6.98335">
        <ele>381</ele>
        <time>2025-07-15T19:54:07Z</time>
      </trkpt>
      <trkpt lat="43.66741" lon="6.98327">
        <ele>380.8</ele>
        <time>2025-07-15T19:54:13Z</time>
      </trkpt>
      <trkpt lat="43.66737" lon="6.98324">
        <ele>380.6</ele>
        <time>2025-07-15T19:54:19Z</time>
      </trkpt>
      <trkpt lat="43.66734" lon="6.9832">
        <ele>380</ele>
        <time>2025-07-15T19:54:36Z</time>
      </trkpt>
      <trkpt lat="43.66729" lon="6.98315">
        <ele>380</ele>
        <time>2025-07-15T19:54:38Z</time>
      </trkpt>
      <trkpt lat="43.66715" lon="6.98294">
        <ele>379.6</ele>
        <time>2025-07-15T19:54:43Z</time>
      </trkpt>
      <trkpt lat="43.66712" lon="6.98288">
        <ele>379.6</ele>
        <time>2025-07-15T19:54:44Z</time>
      </trkpt>
      <trkpt lat="43.66702" lon="6.98263">
        <ele>379.2</ele>
        <time>2025-07-15T19:54:48Z</time>
      </trkpt>
      <trkpt lat="43.66701" lon="6.98257">
        <ele>379.2</ele>
        <time>2025-07-15T19:54:49Z</time>
      </trkpt>
      <trkpt lat="43.66686" lon="6.9822">
        <ele>378.6</ele>
        <time>2025-07-15T19:54:54Z</time>
      </trkpt>
      <trkpt lat="43.66681" lon="6.98209">
        <ele>378.2</ele>
        <time>2025-07-15T19:54:56Z</time>
      </trkpt>
      <trkpt lat="43.66679" lon="6.98205">
        <ele>378</ele>
        <time>2025-07-15T19:54:57Z</time>
      </trkpt>
      <trkpt lat="43.66677" lon="6.982">
        <ele>377.8</ele>
        <time>2025-07-15T19:54:58Z</time>
      </trkpt>
      <trkpt lat="43.66667" lon="6.98182">
        <ele>377.4</ele>
        <time>2025-07-15T19:55:02Z</time>
      </trkpt>
      <trkpt lat="43.66664" lon="6.98175">
        <ele>377.4</ele>
        <time>2025-07-15T19:55:03Z</time>
      </trkpt>
      <trkpt lat="43.6666" lon="6.98161">
        <ele>377</ele>
        <time>2025-07-15T19:55:05Z</time>
      </trkpt>
      <trkpt lat="43.66656" lon="6.98153">
        <ele>377</ele>
        <time>2025-07-15T19:55:06Z</time>
      </trkpt>
      <trkpt lat="43.66651" lon="6.98144">
        <ele>376.8</ele>
        <time>2025-07-15T19:55:07Z</time>
      </trkpt>
      <trkpt lat="43.66636" lon="6.9811">
        <ele>375.8</ele>
        <time>2025-07-15T19:55:11Z</time>
      </trkpt>
      <trkpt lat="43.66631" lon="6.98099">
        <ele>375.4</ele>
        <time>2025-07-15T19:55:12Z</time>
      </trkpt>
      <trkpt lat="43.66623" lon="6.98082">
        <ele>374.6</ele>
        <time>2025-07-15T19:55:14Z</time>
      </trkpt>
      <trkpt lat="43.66608" lon="6.98056">
        <ele>373.4</ele>
        <time>2025-07-15T19:55:17Z</time>
      </trkpt>
      <trkpt lat="43.66599" lon="6.98039">
        <ele>373</ele>
        <time>2025-07-15T19:55:19Z</time>
      </trkpt>
      <trkpt lat="43.66575" lon="6.98001">
        <ele>372.4</ele>
        <time>2025-07-15T19:55:24Z</time>
      </trkpt>
      <trkpt lat="43.66563" lon="6.97978">
        <ele>372.2</ele>
        <time>2025-07-15T19:55:27Z</time>
      </trkpt>
      <trkpt lat="43.66544" lon="6.97939">
        <ele>372.2</ele>
        <time>2025-07-15T19:55:32Z</time>
      </trkpt>
      <trkpt lat="43.6654" lon="6.97925">
        <ele>372.4</ele>
        <time>2025-07-15T19:55:34Z</time>
      </trkpt>
      <trkpt lat="43.66518" lon="6.9787">
        <ele>373</ele>
        <time>2025-07-15T19:55:42Z</time>
      </trkpt>
      <trkpt lat="43.66504" lon="6.97843">
        <ele>373.6</ele>
        <time>2025-07-15T19:55:47Z</time>
      </trkpt>
      <trkpt lat="43.66498" lon="6.97831">
        <ele>373.8</ele>
        <time>2025-07-15T19:55:49Z</time>
      </trkpt>
      <trkpt lat="43.66481" lon="6.97798">
        <ele>373.8</ele>
        <time>2025-07-15T19:55:54Z</time>
      </trkpt>
      <trkpt lat="43.66476" lon="6.97791">
        <ele>373.6</ele>
        <time>2025-07-15T19:55:55Z</time>
      </trkpt>
      <trkpt lat="43.66469" lon="6.97784">
        <ele>373.4</ele>
        <time>2025-07-15T19:55:57Z</time>
      </trkpt>
      <trkpt lat="43.66435" lon="6.97757">
        <ele>373.6</ele>
        <time>2025-07-15T19:56:04Z</time>
      </trkpt>
      <trkpt lat="43.66424" lon="6.97753">
        <ele>373.6</ele>
        <time>2025-07-15T19:56:06Z</time>
      </trkpt>
      <trkpt lat="43.66412" lon="6.97754">
        <ele>374</ele>
        <time>2025-07-15T19:56:08Z</time>
      </trkpt>
      <trkpt lat="43.664" lon="6.97756">
        <ele>374.4</ele>
        <time>2025-07-15T19:56:10Z</time>
      </trkpt>
      <trkpt lat="43.6639" lon="6.97753">
        <ele>374.6</ele>
        <time>2025-07-15T19:56:12Z</time>
      </trkpt>
      <trkpt lat="43.66366" lon="6.97737">
        <ele>375.2</ele>
        <time>2025-07-15T19:56:18Z</time>
      </trkpt>
      <trkpt lat="43.66359" lon="6.97728">
        <ele>375</ele>
        <time>2025-07-15T19:56:20Z</time>
      </trkpt>
      <trkpt lat="43.66346" lon="6.97707">
        <ele>374.6</ele>
        <time>2025-07-15T19:56:24Z</time>
      </trkpt>
      <trkpt lat="43.66326" lon="6.97673">
        <ele>373.8</ele>
        <time>2025-07-15T19:56:29Z</time>
      </trkpt>
      <trkpt lat="43.66322" lon="6.97665">
        <ele>373.4</ele>
        <time>2025-07-15T19:56:30Z</time>
      </trkpt>
      <trkpt lat="43.6631" lon="6.97645">
        <ele>372.4</ele>
        <time>2025-07-15T19:56:33Z</time>
      </trkpt>
      <trkpt lat="43.66301" lon="6.97634">
        <ele>372</ele>
        <time>2025-07-15T19:56:35Z</time>
      </trkpt>
      <trkpt lat="43.66291" lon="6.97621">
        <ele>371</ele>
        <time>2025-07-15T19:56:37Z</time>
      </trkpt>
      <trkpt lat="43.66278" lon="6.97601">
        <ele>369.8</ele>
        <time>2025-07-15T19:56:40Z</time>
      </trkpt>
      <trkpt lat="43.66273" lon="6.97594">
        <ele>369.6</ele>
        <time>2025-07-15T19:56:41Z</time>
      </trkpt>
      <trkpt lat="43.66253" lon="6.9757">
        <ele>368.8</ele>
        <time>2025-07-15T19:56:45Z</time>
      </trkpt>
      <trkpt lat="43.66247" lon="6.97564">
        <ele>368.6</ele>
        <time>2025-07-15T19:56:46Z</time>
      </trkpt>
      <trkpt lat="43.66238" lon="6.97554">
        <ele>368.4</ele>
        <time>2025-07-15T19:56:48Z</time>
      </trkpt>
      <trkpt lat="43.66192" lon="6.97504">
        <ele>367.6</ele>
        <time>2025-07-15T19:56:57Z</time>
      </trkpt>
      <trkpt lat="43.66188" lon="6.97498">
        <ele>367.6</ele>
        <time>2025-07-15T19:56:58Z</time>
      </trkpt>
      <trkpt lat="43.66183" lon="6.97493">
        <ele>367.6</ele>
        <time>2025-07-15T19:56:59Z</time>
      </trkpt>
      <trkpt lat="43.66157" lon="6.9747">
        <ele>367.4</ele>
        <time>2025-07-15T19:57:04Z</time>
      </trkpt>
      <trkpt lat="43.66124" lon="6.97441">
        <ele>367</ele>
        <time>2025-07-15T19:57:11Z</time>
      </trkpt>
      <trkpt lat="43.66105" lon="6.97426">
        <ele>366.4</ele>
        <time>2025-07-15T19:57:14Z</time>
      </trkpt>
      <trkpt lat="43.66093" lon="6.97417">
        <ele>365.6</ele>
        <time>2025-07-15T19:57:16Z</time>
      </trkpt>
      <trkpt lat="43.66086" lon="6.97413">
        <ele>365</ele>
        <time>2025-07-15T19:57:17Z</time>
      </trkpt>
      <trkpt lat="43.66068" lon="6.974">
        <ele>363.8</ele>
        <time>2025-07-15T19:57:20Z</time>
      </trkpt>
      <trkpt lat="43.66056" lon="6.97393">
        <ele>363.2</ele>
        <time>2025-07-15T19:57:22Z</time>
      </trkpt>
      <trkpt lat="43.66034" lon="6.97379">
        <ele>363</ele>
        <time>2025-07-15T19:57:27Z</time>
      </trkpt>
      <trkpt lat="43.66015" lon="6.97369">
        <ele>365.2</ele>
        <time>2025-07-15T19:57:33Z</time>
      </trkpt>
      <trkpt lat="43.66012" lon="6.97367">
        <ele>365.6</ele>
        <time>2025-07-15T19:57:34Z</time>
      </trkpt>
      <trkpt lat="43.66006" lon="6.97363">
        <ele>366.2</ele>
        <time>2025-07-15T19:57:36Z</time>
      </trkpt>
      <trkpt lat="43.65992" lon="6.97355">
        <ele>367.4</ele>
        <time>2025-07-15T19:57:41Z</time>
      </trkpt>
      <trkpt lat="43.6599" lon="6.97354">
        <ele>367.4</ele>
        <time>2025-07-15T19:57:42Z</time>
      </trkpt>
      <trkpt lat="43.65967" lon="6.97343">
        <ele>367.4</ele>
        <time>2025-07-15T19:57:49Z</time>
      </trkpt>
      <trkpt lat="43.65963" lon="6.9734">
        <ele>367.4</ele>
        <time>2025-07-15T19:57:50Z</time>
      </trkpt>
      <trkpt lat="43.65954" lon="6.97335">
        <ele>367.2</ele>
        <time>2025-07-15T19:57:52Z</time>
      </trkpt>
      <trkpt lat="43.65946" lon="6.9733">
        <ele>367</ele>
        <time>2025-07-15T19:57:54Z</time>
      </trkpt>
      <trkpt lat="43.65941" lon="6.97327">
        <ele>366.8</ele>
        <time>2025-07-15T19:57:55Z</time>
      </trkpt>
      <trkpt lat="43.65926" lon="6.9732">
        <ele>366.2</ele>
        <time>2025-07-15T19:57:58Z</time>
      </trkpt>
      <trkpt lat="43.65921" lon="6.97318">
        <ele>366.2</ele>
        <time>2025-07-15T19:57:59Z</time>
      </trkpt>
      <trkpt lat="43.65915" lon="6.97317">
        <ele>366</ele>
        <time>2025-07-15T19:58:00Z</time>
      </trkpt>
      <trkpt lat="43.65892" lon="6.97318">
        <ele>365.6</ele>
        <time>2025-07-15T19:58:05Z</time>
      </trkpt>
      <trkpt lat="43.65856" lon="6.97325">
        <ele>365.6</ele>
        <time>2025-07-15T19:58:12Z</time>
      </trkpt>
      <trkpt lat="43.65836" lon="6.97326">
        <ele>365.6</ele>
        <time>2025-07-15T19:58:16Z</time>
      </trkpt>
      <trkpt lat="43.65826" lon="6.97324">
        <ele>365.6</ele>
        <time>2025-07-15T19:58:18Z</time>
      </trkpt>
      <trkpt lat="43.6578" lon="6.97313">
        <ele>365.6</ele>
        <time>2025-07-15T19:58:28Z</time>
      </trkpt>
      <trkpt lat="43.65745" lon="6.97304">
        <ele>365.6</ele>
        <time>2025-07-15T19:58:35Z</time>
      </trkpt>
      <trkpt lat="43.65734" lon="6.973">
        <ele>365.4</ele>
        <time>2025-07-15T19:58:37Z</time>
      </trkpt>
      <trkpt lat="43.6571" lon="6.97291">
        <ele>364.8</ele>
        <time>2025-07-15T19:58:41Z</time>
      </trkpt>
      <trkpt lat="43.65696" lon="6.97284">
        <ele>364.2</ele>
        <time>2025-07-15T19:58:43Z</time>
      </trkpt>
      <trkpt lat="43.65683" lon="6.97277">
        <ele>363.6</ele>
        <time>2025-07-15T19:58:45Z</time>
      </trkpt>
      <trkpt lat="43.65667" lon="6.97269">
        <ele>363</ele>
        <time>2025-07-15T19:58:47Z</time>
      </trkpt>
      <trkpt lat="43.65644" lon="6.97257">
        <ele>361.8</ele>
        <time>2025-07-15T19:58:50Z</time>
      </trkpt>
      <trkpt lat="43.65626" lon="6.97249">
        <ele>360.6</ele>
        <time>2025-07-15T19:58:53Z</time>
      </trkpt>
      <trkpt lat="43.65615" lon="6.97242">
        <ele>359.6</ele>
        <time>2025-07-15T19:58:55Z</time>
      </trkpt>
      <trkpt lat="43.6561" lon="6.97237">
        <ele>359</ele>
        <time>2025-07-15T19:58:56Z</time>
      </trkpt>
      <trkpt lat="43.65606" lon="6.97231">
        <ele>358.6</ele>
        <time>2025-07-15T19:58:57Z</time>
      </trkpt>
      <trkpt lat="43.656" lon="6.97222">
        <ele>358.2</ele>
        <time>2025-07-15T19:58:59Z</time>
      </trkpt>
      <trkpt lat="43.65597" lon="6.97219">
        <ele>358.2</ele>
        <time>2025-07-15T19:59:00Z</time>
      </trkpt>
      <trkpt lat="43.65593" lon="6.97221">
        <ele>358</ele>
        <time>2025-07-15T19:59:01Z</time>
      </trkpt>
      <trkpt lat="43.65591" lon="6.97226">
        <ele>358</ele>
        <time>2025-07-15T19:59:02Z</time>
      </trkpt>
      <trkpt lat="43.65589" lon="6.97238">
        <ele>358</ele>
        <time>2025-07-15T19:59:04Z</time>
      </trkpt>
      <trkpt lat="43.65586" lon="6.97251">
        <ele>357.8</ele>
        <time>2025-07-15T19:59:06Z</time>
      </trkpt>
      <trkpt lat="43.65566" lon="6.97283">
        <ele>357.8</ele>
        <time>2025-07-15T19:59:12Z</time>
      </trkpt>
      <trkpt lat="43.65543" lon="6.97306">
        <ele>358</ele>
        <time>2025-07-15T19:59:18Z</time>
      </trkpt>
      <trkpt lat="43.65516" lon="6.97325">
        <ele>358.4</ele>
        <time>2025-07-15T19:59:24Z</time>
      </trkpt>
      <trkpt lat="43.65511" lon="6.97327">
        <ele>358.6</ele>
        <time>2025-07-15T19:59:25Z</time>
      </trkpt>
      <trkpt lat="43.6548" lon="6.97334">
        <ele>358</ele>
        <time>2025-07-15T19:59:30Z</time>
      </trkpt>
      <trkpt lat="43.65451" lon="6.9734">
        <ele>357</ele>
        <time>2025-07-15T19:59:34Z</time>
      </trkpt>
      <trkpt lat="43.6543" lon="6.97346">
        <ele>355.8</ele>
        <time>2025-07-15T19:59:37Z</time>
      </trkpt>
      <trkpt lat="43.65422" lon="6.97348">
        <ele>355.8</ele>
        <time>2025-07-15T19:59:38Z</time>
      </trkpt>
      <trkpt lat="43.654" lon="6.97352">
        <ele>354.6</ele>
        <time>2025-07-15T19:59:41Z</time>
      </trkpt>
      <trkpt lat="43.65377" lon="6.97353">
        <ele>353</ele>
        <time>2025-07-15T19:59:44Z</time>
      </trkpt>
      <trkpt lat="43.6537" lon="6.97352">
        <ele>352.6</ele>
        <time>2025-07-15T19:59:45Z</time>
      </trkpt>
      <trkpt lat="43.65363" lon="6.97351">
        <ele>352.2</ele>
        <time>2025-07-15T19:59:46Z</time>
      </trkpt>
      <trkpt lat="43.65349" lon="6.97348">
        <ele>351.6</ele>
        <time>2025-07-15T19:59:48Z</time>
      </trkpt>
      <trkpt lat="43.65342" lon="6.97348">
        <ele>351.4</ele>
        <time>2025-07-15T19:59:49Z</time>
      </trkpt>
      <trkpt lat="43.65313" lon="6.97353">
        <ele>350.6</ele>
        <time>2025-07-15T19:59:53Z</time>
      </trkpt>
      <trkpt lat="43.65299" lon="6.97356">
        <ele>350.4</ele>
        <time>2025-07-15T19:59:55Z</time>
      </trkpt>
      <trkpt lat="43.65247" lon="6.97366">
        <ele>349.6</ele>
        <time>2025-07-15T20:00:02Z</time>
      </trkpt>
      <trkpt lat="43.6524" lon="6.97367">
        <ele>349.2</ele>
        <time>2025-07-15T20:00:03Z</time>
      </trkpt>
      <trkpt lat="43.65205" lon="6.97365">
        <ele>349</ele>
        <time>2025-07-15T20:00:08Z</time>
      </trkpt>
      <trkpt lat="43.65198" lon="6.97364">
        <ele>349</ele>
        <time>2025-07-15T20:00:09Z</time>
      </trkpt>
      <trkpt lat="43.65171" lon="6.97356">
        <ele>349</ele>
        <time>2025-07-15T20:00:13Z</time>
      </trkpt>
      <trkpt lat="43.65137" lon="6.97354">
        <ele>348.4</ele>
        <time>2025-07-15T20:00:18Z</time>
      </trkpt>
      <trkpt lat="43.6513" lon="6.97355">
        <ele>348.4</ele>
        <time>2025-07-15T20:00:19Z</time>
      </trkpt>
      <trkpt lat="43.65117" lon="6.9736">
        <ele>348.2</ele>
        <time>2025-07-15T20:00:21Z</time>
      </trkpt>
      <trkpt lat="43.65104" lon="6.97366">
        <ele>348.2</ele>
        <time>2025-07-15T20:00:23Z</time>
      </trkpt>
      <trkpt lat="43.65074" lon="6.97385">
        <ele>347.8</ele>
        <time>2025-07-15T20:00:28Z</time>
      </trkpt>
      <trkpt lat="43.65068" lon="6.97389">
        <ele>347.8</ele>
        <time>2025-07-15T20:00:29Z</time>
      </trkpt>
      <trkpt lat="43.65062" lon="6.97394">
        <ele>347.6</ele>
        <time>2025-07-15T20:00:30Z</time>
      </trkpt>
      <trkpt lat="43.65046" lon="6.97409">
        <ele>347.4</ele>
        <time>2025-07-15T20:00:33Z</time>
      </trkpt>
      <trkpt lat="43.6504" lon="6.97416">
        <ele>347.4</ele>
        <time>2025-07-15T20:00:34Z</time>
      </trkpt>
      <trkpt lat="43.65031" lon="6.9743">
        <ele>347.2</ele>
        <time>2025-07-15T20:00:36Z</time>
      </trkpt>
      <trkpt lat="43.65021" lon="6.97452">
        <ele>347</ele>
        <time>2025-07-15T20:00:39Z</time>
      </trkpt>
      <trkpt lat="43.65011" lon="6.97482">
        <ele>346.4</ele>
        <time>2025-07-15T20:00:43Z</time>
      </trkpt>
      <trkpt lat="43.65006" lon="6.9749">
        <ele>346.2</ele>
        <time>2025-07-15T20:00:44Z</time>
      </trkpt>
      <trkpt lat="43.65002" lon="6.97495">
        <ele>346</ele>
        <time>2025-07-15T20:00:45Z</time>
      </trkpt>
      <trkpt lat="43.64998" lon="6.97501">
        <ele>346</ele>
        <time>2025-07-15T20:00:46Z</time>
      </trkpt>
      <trkpt lat="43.64989" lon="6.97511">
        <ele>345.8</ele>
        <time>2025-07-15T20:00:48Z</time>
      </trkpt>
      <trkpt lat="43.64976" lon="6.97521">
        <ele>345.6</ele>
        <time>2025-07-15T20:00:50Z</time>
      </trkpt>
      <trkpt lat="43.64939" lon="6.97554">
        <ele>345.2</ele>
        <time>2025-07-15T20:00:57Z</time>
      </trkpt>
      <trkpt lat="43.64934" lon="6.97558">
        <ele>345.2</ele>
        <time>2025-07-15T20:00:58Z</time>
      </trkpt>
      <trkpt lat="43.64915" lon="6.97574">
        <ele>345.4</ele>
        <time>2025-07-15T20:01:03Z</time>
      </trkpt>
      <trkpt lat="43.64889" lon="6.97574">
        <ele>345.4</ele>
        <time>2025-07-15T20:01:08Z</time>
      </trkpt>
      <trkpt lat="43.64846" lon="6.97582">
        <ele>345.2</ele>
        <time>2025-07-15T20:01:16Z</time>
      </trkpt>
      <trkpt lat="43.64804" lon="6.97584">
        <ele>345.8</ele>
        <time>2025-07-15T20:01:24Z</time>
      </trkpt>
      <trkpt lat="43.64785" lon="6.97584">
        <ele>346.8</ele>
        <time>2025-07-15T20:01:28Z</time>
      </trkpt>
      <trkpt lat="43.64764" lon="6.97584">
        <ele>347.8</ele>
        <time>2025-07-15T20:01:33Z</time>
      </trkpt>
      <trkpt lat="43.64759" lon="6.97585">
        <ele>348.2</ele>
        <time>2025-07-15T20:01:34Z</time>
      </trkpt>
      <trkpt lat="43.64756" lon="6.97585">
        <ele>348.4</ele>
        <time>2025-07-15T20:01:35Z</time>
      </trkpt>
      <trkpt lat="43.64747" lon="6.97587">
        <ele>348.8</ele>
        <time>2025-07-15T20:01:37Z</time>
      </trkpt>
      <trkpt lat="43.64743" lon="6.97587">
        <ele>348.8</ele>
        <time>2025-07-15T20:01:38Z</time>
      </trkpt>
      <trkpt lat="43.64739" lon="6.97588">
        <ele>349.2</ele>
        <time>2025-07-15T20:01:39Z</time>
      </trkpt>
      <trkpt lat="43.64723" lon="6.9759">
        <ele>350</ele>
        <time>2025-07-15T20:01:43Z</time>
      </trkpt>
      <trkpt lat="43.64714" lon="6.97591">
        <ele>350.2</ele>
        <time>2025-07-15T20:01:45Z</time>
      </trkpt>
      <trkpt lat="43.64702" lon="6.9759">
        <ele>351</ele>
        <time>2025-07-15T20:01:48Z</time>
      </trkpt>
      <trkpt lat="43.64687" lon="6.97588">
        <ele>351.6</ele>
        <time>2025-07-15T20:01:52Z</time>
      </trkpt>
      <trkpt lat="43.64676" lon="6.97585">
        <ele>352</ele>
        <time>2025-07-15T20:01:55Z</time>
      </trkpt>
      <trkpt lat="43.64668" lon="6.97585">
        <ele>352.2</ele>
        <time>2025-07-15T20:01:57Z</time>
      </trkpt>
      <trkpt lat="43.64659" lon="6.97589">
        <ele>353.2</ele>
        <time>2025-07-15T20:02:00Z</time>
      </trkpt>
      <trkpt lat="43.64654" lon="6.97592">
        <ele>353.8</ele>
        <time>2025-07-15T20:02:02Z</time>
      </trkpt>
      <trkpt lat="43.64646" lon="6.97598">
        <ele>354.4</ele>
        <time>2025-07-15T20:02:05Z</time>
      </trkpt>
      <trkpt lat="43.64636" lon="6.97607">
        <ele>355.6</ele>
        <time>2025-07-15T20:02:09Z</time>
      </trkpt>
      <trkpt lat="43.64625" lon="6.97616">
        <ele>356.8</ele>
        <time>2025-07-15T20:02:13Z</time>
      </trkpt>
      <trkpt lat="43.64623" lon="6.97618">
        <ele>357</ele>
        <time>2025-07-15T20:02:14Z</time>
      </trkpt>
      <trkpt lat="43.6462" lon="6.97622">
        <ele>357.4</ele>
        <time>2025-07-15T20:02:15Z</time>
      </trkpt>
      <trkpt lat="43.64617" lon="6.97624">
        <ele>357.6</ele>
        <time>2025-07-15T20:02:16Z</time>
      </trkpt>
      <trkpt lat="43.64614" lon="6.97627">
        <ele>357.8</ele>
        <time>2025-07-15T20:02:17Z</time>
      </trkpt>
      <trkpt lat="43.64612" lon="6.97629">
        <ele>358</ele>
        <time>2025-07-15T20:02:18Z</time>
      </trkpt>
      <trkpt lat="43.64604" lon="6.97633">
        <ele>359</ele>
        <time>2025-07-15T20:02:21Z</time>
      </trkpt>
      <trkpt lat="43.64601" lon="6.97634">
        <ele>359.6</ele>
        <time>2025-07-15T20:02:23Z</time>
      </trkpt>
      <trkpt lat="43.64596" lon="6.97637">
        <ele>360.2</ele>
        <time>2025-07-15T20:02:26Z</time>
      </trkpt>
      <trkpt lat="43.64589" lon="6.97643">
        <ele>360.8</ele>
        <time>2025-07-15T20:02:30Z</time>
      </trkpt>
      <trkpt lat="43.64575" lon="6.97652">
        <ele>361.2</ele>
        <time>2025-07-15T20:02:36Z</time>
      </trkpt>
      <trkpt lat="43.64569" lon="6.97657">
        <ele>361.6</ele>
        <time>2025-07-15T20:02:39Z</time>
      </trkpt>
      <trkpt lat="43.64553" lon="6.97669">
        <ele>361.8</ele>
        <time>2025-07-15T20:02:46Z</time>
      </trkpt>
      <trkpt lat="43.64539" lon="6.97677">
        <ele>362.2</ele>
        <time>2025-07-15T20:02:51Z</time>
      </trkpt>
      <trkpt lat="43.64535" lon="6.97681">
        <ele>362.6</ele>
        <time>2025-07-15T20:02:53Z</time>
      </trkpt>
      <trkpt lat="43.64525" lon="6.9769">
        <ele>362.8</ele>
        <time>2025-07-15T20:02:59Z</time>
      </trkpt>
      <trkpt lat="43.64518" lon="6.977">
        <ele>363.4</ele>
        <time>2025-07-15T20:03:05Z</time>
      </trkpt>
      <trkpt lat="43.64517" lon="6.97701">
        <ele>363.4</ele>
        <time>2025-07-15T20:03:06Z</time>
      </trkpt>
      <trkpt lat="43.64506" lon="6.97716">
        <ele>363.2</ele>
        <time>2025-07-15T20:03:14Z</time>
      </trkpt>
      <trkpt lat="43.64493" lon="6.97733">
        <ele>362.8</ele>
        <time>2025-07-15T20:03:22Z</time>
      </trkpt>
      <trkpt lat="43.64483" lon="6.97745">
        <ele>362.4</ele>
        <time>2025-07-15T20:03:28Z</time>
      </trkpt>
      <trkpt lat="43.64481" lon="6.97747">
        <ele>362.4</ele>
        <time>2025-07-15T20:03:29Z</time>
      </trkpt>
      <trkpt lat="43.64469" lon="6.97761">
        <ele>362</ele>
        <time>2025-07-15T20:03:35Z</time>
      </trkpt>
      <trkpt lat="43.64455" lon="6.97774">
        <ele>361.4</ele>
        <time>2025-07-15T20:03:41Z</time>
      </trkpt>
      <trkpt lat="43.64452" lon="6.97777">
        <ele>361.2</ele>
        <time>2025-07-15T20:03:43Z</time>
      </trkpt>
      <trkpt lat="43.64449" lon="6.97782">
        <ele>360.8</ele>
        <time>2025-07-15T20:03:48Z</time>
      </trkpt>
      <trkpt lat="43.64449" lon="6.97782">
        <ele>360.8</ele>
        <time>2025-07-15T20:03:49Z</time>
      </trkpt>
      <trkpt lat="43.64445" lon="6.9779">
        <ele>360.6</ele>
        <time>2025-07-15T20:04:42Z</time>
      </trkpt>
      <trkpt lat="43.6444" lon="6.97795">
        <ele>360.6</ele>
        <time>2025-07-15T20:04:44Z</time>
      </trkpt>
      <trkpt lat="43.64422" lon="6.97814">
        <ele>360.6</ele>
        <time>2025-07-15T20:04:50Z</time>
      </trkpt>
      <trkpt lat="43.64419" lon="6.97818">
        <ele>360.6</ele>
        <time>2025-07-15T20:04:51Z</time>
      </trkpt>
      <trkpt lat="43.64403" lon="6.9783">
        <ele>360.4</ele>
        <time>2025-07-15T20:04:55Z</time>
      </trkpt>
      <trkpt lat="43.64398" lon="6.97833">
        <ele>360.4</ele>
        <time>2025-07-15T20:04:56Z</time>
      </trkpt>
      <trkpt lat="43.64361" lon="6.97853">
        <ele>360</ele>
        <time>2025-07-15T20:05:04Z</time>
      </trkpt>
      <trkpt lat="43.6432" lon="6.97878">
        <ele>359.6</ele>
        <time>2025-07-15T20:05:13Z</time>
      </trkpt>
      <trkpt lat="43.64295" lon="6.97897">
        <ele>359.4</ele>
        <time>2025-07-15T20:05:19Z</time>
      </trkpt>
      <trkpt lat="43.64283" lon="6.97908">
        <ele>359.6</ele>
        <time>2025-07-15T20:05:22Z</time>
      </trkpt>
      <trkpt lat="43.64265" lon="6.97923">
        <ele>359.4</ele>
        <time>2025-07-15T20:05:26Z</time>
      </trkpt>
      <trkpt lat="43.64254" lon="6.97935">
        <ele>359.4</ele>
        <time>2025-07-15T20:05:29Z</time>
      </trkpt>
      <trkpt lat="43.6422" lon="6.97965">
        <ele>359.2</ele>
        <time>2025-07-15T20:05:37Z</time>
      </trkpt>
      <trkpt lat="43.64211" lon="6.97969">
        <ele>359.2</ele>
        <time>2025-07-15T20:05:39Z</time>
      </trkpt>
      <trkpt lat="43.64186" lon="6.97973">
        <ele>359.4</ele>
        <time>2025-07-15T20:05:44Z</time>
      </trkpt>
      <trkpt lat="43.6415" lon="6.97979">
        <ele>360</ele>
        <time>2025-07-15T20:05:52Z</time>
      </trkpt>
      <trkpt lat="43.64116" lon="6.9798">
        <ele>360.6</ele>
        <time>2025-07-15T20:05:59Z</time>
      </trkpt>
      <trkpt lat="43.6411" lon="6.9798">
        <ele>360.6</ele>
        <time>2025-07-15T20:06:00Z</time>
      </trkpt>
      <trkpt lat="43.64072" lon="6.97973">
        <ele>360</ele>
        <time>2025-07-15T20:06:06Z</time>
      </trkpt>
      <trkpt lat="43.64065" lon="6.97971">
        <ele>359.8</ele>
        <time>2025-07-15T20:06:07Z</time>
      </trkpt>
      <trkpt lat="43.6405" lon="6.97963">
        <ele>359</ele>
        <time>2025-07-15T20:06:09Z</time>
      </trkpt>
      <trkpt lat="43.64044" lon="6.97957">
        <ele>358.8</ele>
        <time>2025-07-15T20:06:10Z</time>
      </trkpt>
      <trkpt lat="43.64038" lon="6.9795">
        <ele>358.4</ele>
        <time>2025-07-15T20:06:11Z</time>
      </trkpt>
      <trkpt lat="43.64029" lon="6.97937">
        <ele>357.6</ele>
        <time>2025-07-15T20:06:13Z</time>
      </trkpt>
      <trkpt lat="43.64019" lon="6.97919">
        <ele>357.2</ele>
        <time>2025-07-15T20:06:15Z</time>
      </trkpt>
      <trkpt lat="43.64015" lon="6.97911">
        <ele>356.6</ele>
        <time>2025-07-15T20:06:16Z</time>
      </trkpt>
      <trkpt lat="43.64008" lon="6.97897">
        <ele>356.2</ele>
        <time>2025-07-15T20:06:18Z</time>
      </trkpt>
      <trkpt lat="43.63996" lon="6.97874">
        <ele>356</ele>
        <time>2025-07-15T20:06:21Z</time>
      </trkpt>
      <trkpt lat="43.63992" lon="6.9786">
        <ele>356</ele>
        <time>2025-07-15T20:06:23Z</time>
      </trkpt>
      <trkpt lat="43.63989" lon="6.97824">
        <ele>356.2</ele>
        <time>2025-07-15T20:06:28Z</time>
      </trkpt>
      <trkpt lat="43.6399" lon="6.97772">
        <ele>356.8</ele>
        <time>2025-07-15T20:06:36Z</time>
      </trkpt>
      <trkpt lat="43.63983" lon="6.9773">
        <ele>357.8</ele>
        <time>2025-07-15T20:06:43Z</time>
      </trkpt>
      <trkpt lat="43.63982" lon="6.97725">
        <ele>358</ele>
        <time>2025-07-15T20:06:44Z</time>
      </trkpt>
      <trkpt lat="43.63967" lon="6.97676">
        <ele>358.2</ele>
        <time>2025-07-15T20:06:52Z</time>
      </trkpt>
      <trkpt lat="43.63954" lon="6.97638">
        <ele>358.2</ele>
        <time>2025-07-15T20:06:59Z</time>
      </trkpt>
      <trkpt lat="43.63943" lon="6.97603">
        <ele>358</ele>
        <time>2025-07-15T20:07:05Z</time>
      </trkpt>
      <trkpt lat="43.63942" lon="6.97598">
        <ele>358</ele>
        <time>2025-07-15T20:07:06Z</time>
      </trkpt>
      <trkpt lat="43.63942" lon="6.97583">
        <ele>358</ele>
        <time>2025-07-15T20:07:08Z</time>
      </trkpt>
      <trkpt lat="43.63938" lon="6.97571">
        <ele>357.8</ele>
        <time>2025-07-15T20:07:10Z</time>
      </trkpt>
      <trkpt lat="43.63929" lon="6.97564">
        <ele>357.6</ele>
        <time>2025-07-15T20:07:12Z</time>
      </trkpt>
      <trkpt lat="43.63923" lon="6.97562">
        <ele>357.6</ele>
        <time>2025-07-15T20:07:13Z</time>
      </trkpt>
      <trkpt lat="43.63908" lon="6.97561">
        <ele>357.2</ele>
        <time>2025-07-15T20:07:16Z</time>
      </trkpt>
      <trkpt lat="43.63899" lon="6.97558">
        <ele>357</ele>
        <time>2025-07-15T20:07:18Z</time>
      </trkpt>
      <trkpt lat="43.63893" lon="6.97555">
        <ele>356.8</ele>
        <time>2025-07-15T20:07:19Z</time>
      </trkpt>
      <trkpt lat="43.63869" lon="6.97543">
        <ele>356.6</ele>
        <time>2025-07-15T20:07:23Z</time>
      </trkpt>
      <trkpt lat="43.63851" lon="6.97531">
        <ele>356</ele>
        <time>2025-07-15T20:07:26Z</time>
      </trkpt>
      <trkpt lat="43.63846" lon="6.97525">
        <ele>355.6</ele>
        <time>2025-07-15T20:07:27Z</time>
      </trkpt>
      <trkpt lat="43.6384" lon="6.97516">
        <ele>355.2</ele>
        <time>2025-07-15T20:07:28Z</time>
      </trkpt>
      <trkpt lat="43.63828" lon="6.97486">
        <ele>354</ele>
        <time>2025-07-15T20:07:31Z</time>
      </trkpt>
      <trkpt lat="43.6382" lon="6.97465">
        <ele>353.4</ele>
        <time>2025-07-15T20:07:33Z</time>
      </trkpt>
      <trkpt lat="43.63816" lon="6.97455">
        <ele>352.8</ele>
        <time>2025-07-15T20:07:34Z</time>
      </trkpt>
      <trkpt lat="43.63807" lon="6.97438">
        <ele>351.6</ele>
        <time>2025-07-15T20:07:36Z</time>
      </trkpt>
      <trkpt lat="43.63785" lon="6.97415">
        <ele>350.2</ele>
        <time>2025-07-15T20:07:39Z</time>
      </trkpt>
      <trkpt lat="43.63769" lon="6.97404">
        <ele>349.2</ele>
        <time>2025-07-15T20:07:41Z</time>
      </trkpt>
      <trkpt lat="43.63744" lon="6.97389">
        <ele>348</ele>
        <time>2025-07-15T20:07:44Z</time>
      </trkpt>
      <trkpt lat="43.63735" lon="6.97384">
        <ele>347.4</ele>
        <time>2025-07-15T20:07:45Z</time>
      </trkpt>
      <trkpt lat="43.63726" lon="6.97381">
        <ele>346.6</ele>
        <time>2025-07-15T20:07:46Z</time>
      </trkpt>
      <trkpt lat="43.63708" lon="6.97379">
        <ele>345.4</ele>
        <time>2025-07-15T20:07:48Z</time>
      </trkpt>
      <trkpt lat="43.63699" lon="6.9738">
        <ele>345.2</ele>
        <time>2025-07-15T20:07:49Z</time>
      </trkpt>
      <trkpt lat="43.63682" lon="6.97383">
        <ele>344.4</ele>
        <time>2025-07-15T20:07:51Z</time>
      </trkpt>
      <trkpt lat="43.63662" lon="6.9739">
        <ele>342.6</ele>
        <time>2025-07-15T20:07:53Z</time>
      </trkpt>
      <trkpt lat="43.63653" lon="6.97393">
        <ele>342</ele>
        <time>2025-07-15T20:07:54Z</time>
      </trkpt>
      <trkpt lat="43.63643" lon="6.97396">
        <ele>341.2</ele>
        <time>2025-07-15T20:07:55Z</time>
      </trkpt>
      <trkpt lat="43.63625" lon="6.97402">
        <ele>339.8</ele>
        <time>2025-07-15T20:07:57Z</time>
      </trkpt>
      <trkpt lat="43.63598" lon="6.97404">
        <ele>338</ele>
        <time>2025-07-15T20:08:00Z</time>
      </trkpt>
      <trkpt lat="43.6358" lon="6.97402">
        <ele>336.4</ele>
        <time>2025-07-15T20:08:02Z</time>
      </trkpt>
      <trkpt lat="43.63563" lon="6.97398">
        <ele>335</ele>
        <time>2025-07-15T20:08:04Z</time>
      </trkpt>
      <trkpt lat="43.63549" lon="6.97396">
        <ele>333.4</ele>
        <time>2025-07-15T20:08:06Z</time>
      </trkpt>
      <trkpt lat="43.63532" lon="6.974">
        <ele>332.4</ele>
        <time>2025-07-15T20:08:08Z</time>
      </trkpt>
      <trkpt lat="43.63523" lon="6.97403">
        <ele>331.8</ele>
        <time>2025-07-15T20:08:09Z</time>
      </trkpt>
      <trkpt lat="43.63516" lon="6.97406">
        <ele>331.6</ele>
        <time>2025-07-15T20:08:10Z</time>
      </trkpt>
      <trkpt lat="43.63506" lon="6.97412">
        <ele>330.8</ele>
        <time>2025-07-15T20:08:11Z</time>
      </trkpt>
      <trkpt lat="43.63498" lon="6.97419">
        <ele>329.8</ele>
        <time>2025-07-15T20:08:12Z</time>
      </trkpt>
      <trkpt lat="43.63491" lon="6.97426">
        <ele>329.4</ele>
        <time>2025-07-15T20:08:13Z</time>
      </trkpt>
      <trkpt lat="43.63485" lon="6.97433">
        <ele>328.4</ele>
        <time>2025-07-15T20:08:14Z</time>
      </trkpt>
      <trkpt lat="43.63471" lon="6.97452">
        <ele>327.4</ele>
        <time>2025-07-15T20:08:16Z</time>
      </trkpt>
      <trkpt lat="43.63459" lon="6.97471">
        <ele>326.2</ele>
        <time>2025-07-15T20:08:18Z</time>
      </trkpt>
      <trkpt lat="43.63448" lon="6.97492">
        <ele>325.2</ele>
        <time>2025-07-15T20:08:20Z</time>
      </trkpt>
      <trkpt lat="43.63441" lon="6.975">
        <ele>324.8</ele>
        <time>2025-07-15T20:08:21Z</time>
      </trkpt>
      <trkpt lat="43.63426" lon="6.97512">
        <ele>323.6</ele>
        <time>2025-07-15T20:08:23Z</time>
      </trkpt>
      <trkpt lat="43.63417" lon="6.97514">
        <ele>323.4</ele>
        <time>2025-07-15T20:08:24Z</time>
      </trkpt>
      <trkpt lat="43.63408" lon="6.97513">
        <ele>322.8</ele>
        <time>2025-07-15T20:08:25Z</time>
      </trkpt>
      <trkpt lat="43.634" lon="6.97512">
        <ele>322.4</ele>
        <time>2025-07-15T20:08:26Z</time>
      </trkpt>
      <trkpt lat="43.63391" lon="6.97512">
        <ele>322</ele>
        <time>2025-07-15T20:08:27Z</time>
      </trkpt>
      <trkpt lat="43.63383" lon="6.97513">
        <ele>321</ele>
        <time>2025-07-15T20:08:28Z</time>
      </trkpt>
      <trkpt lat="43.63374" lon="6.97516">
        <ele>320.6</ele>
        <time>2025-07-15T20:08:29Z</time>
      </trkpt>
      <trkpt lat="43.63356" lon="6.97525">
        <ele>319.6</ele>
        <time>2025-07-15T20:08:31Z</time>
      </trkpt>
      <trkpt lat="43.63347" lon="6.97529">
        <ele>318.8</ele>
        <time>2025-07-15T20:08:32Z</time>
      </trkpt>
      <trkpt lat="43.63338" lon="6.97532">
        <ele>318.4</ele>
        <time>2025-07-15T20:08:33Z</time>
      </trkpt>
      <trkpt lat="43.63329" lon="6.97532">
        <ele>318.2</ele>
        <time>2025-07-15T20:08:34Z</time>
      </trkpt>
      <trkpt lat="43.63313" lon="6.97526">
        <ele>317.4</ele>
        <time>2025-07-15T20:08:36Z</time>
      </trkpt>
      <trkpt lat="43.63307" lon="6.97522">
        <ele>316.6</ele>
        <time>2025-07-15T20:08:37Z</time>
      </trkpt>
      <trkpt lat="43.63299" lon="6.97516">
        <ele>316.2</ele>
        <time>2025-07-15T20:08:38Z</time>
      </trkpt>
      <trkpt lat="43.63283" lon="6.97501">
        <ele>314.4</ele>
        <time>2025-07-15T20:08:40Z</time>
      </trkpt>
      <trkpt lat="43.63276" lon="6.97497">
        <ele>314.2</ele>
        <time>2025-07-15T20:08:41Z</time>
      </trkpt>
      <trkpt lat="43.63268" lon="6.97495">
        <ele>313.8</ele>
        <time>2025-07-15T20:08:42Z</time>
      </trkpt>
      <trkpt lat="43.6326" lon="6.97494">
        <ele>313.2</ele>
        <time>2025-07-15T20:08:43Z</time>
      </trkpt>
      <trkpt lat="43.63252" lon="6.97494">
        <ele>312.8</ele>
        <time>2025-07-15T20:08:44Z</time>
      </trkpt>
      <trkpt lat="43.63243" lon="6.97494">
        <ele>312.2</ele>
        <time>2025-07-15T20:08:45Z</time>
      </trkpt>
      <trkpt lat="43.63226" lon="6.97497">
        <ele>311.2</ele>
        <time>2025-07-15T20:08:47Z</time>
      </trkpt>
      <trkpt lat="43.63199" lon="6.97502">
        <ele>309.8</ele>
        <time>2025-07-15T20:08:50Z</time>
      </trkpt>
      <trkpt lat="43.63182" lon="6.97504">
        <ele>308</ele>
        <time>2025-07-15T20:08:52Z</time>
      </trkpt>
      <trkpt lat="43.63155" lon="6.97508">
        <ele>307</ele>
        <time>2025-07-15T20:08:55Z</time>
      </trkpt>
      <trkpt lat="43.63147" lon="6.9751">
        <ele>306.2</ele>
        <time>2025-07-15T20:08:56Z</time>
      </trkpt>
      <trkpt lat="43.63141" lon="6.97511">
        <ele>306</ele>
        <time>2025-07-15T20:08:57Z</time>
      </trkpt>
      <trkpt lat="43.63124" lon="6.97514">
        <ele>304.8</ele>
        <time>2025-07-15T20:08:59Z</time>
      </trkpt>
      <trkpt lat="43.63117" lon="6.97516">
        <ele>304.4</ele>
        <time>2025-07-15T20:09:00Z</time>
      </trkpt>
      <trkpt lat="43.63111" lon="6.97518">
        <ele>303.6</ele>
        <time>2025-07-15T20:09:01Z</time>
      </trkpt>
      <trkpt lat="43.63105" lon="6.97523">
        <ele>303.2</ele>
        <time>2025-07-15T20:09:02Z</time>
      </trkpt>
      <trkpt lat="43.63097" lon="6.97531">
        <ele>302.4</ele>
        <time>2025-07-15T20:09:03Z</time>
      </trkpt>
      <trkpt lat="43.63091" lon="6.9754">
        <ele>302.2</ele>
        <time>2025-07-15T20:09:04Z</time>
      </trkpt>
      <trkpt lat="43.63086" lon="6.97549">
        <ele>301.4</ele>
        <time>2025-07-15T20:09:05Z</time>
      </trkpt>
      <trkpt lat="43.63078" lon="6.97567">
        <ele>300.6</ele>
        <time>2025-07-15T20:09:07Z</time>
      </trkpt>
      <trkpt lat="43.63072" lon="6.97579">
        <ele>300.2</ele>
        <time>2025-07-15T20:09:08Z</time>
      </trkpt>
      <trkpt lat="43.63058" lon="6.97594">
        <ele>299.2</ele>
        <time>2025-07-15T20:09:10Z</time>
      </trkpt>
      <trkpt lat="43.6305" lon="6.97598">
        <ele>299</ele>
        <time>2025-07-15T20:09:11Z</time>
      </trkpt>
      <trkpt lat="43.63042" lon="6.97602">
        <ele>298.2</ele>
        <time>2025-07-15T20:09:12Z</time>
      </trkpt>
      <trkpt lat="43.63025" lon="6.97608">
        <ele>297.2</ele>
        <time>2025-07-15T20:09:14Z</time>
      </trkpt>
      <trkpt lat="43.6301" lon="6.97611">
        <ele>296.2</ele>
        <time>2025-07-15T20:09:16Z</time>
      </trkpt>
      <trkpt lat="43.62992" lon="6.97613">
        <ele>294.8</ele>
        <time>2025-07-15T20:09:18Z</time>
      </trkpt>
      <trkpt lat="43.62984" lon="6.97613">
        <ele>294.6</ele>
        <time>2025-07-15T20:09:19Z</time>
      </trkpt>
      <trkpt lat="43.62968" lon="6.97611">
        <ele>294</ele>
        <time>2025-07-15T20:09:21Z</time>
      </trkpt>
      <trkpt lat="43.6296" lon="6.97607">
        <ele>293.4</ele>
        <time>2025-07-15T20:09:22Z</time>
      </trkpt>
      <trkpt lat="43.62952" lon="6.97602">
        <ele>293.2</ele>
        <time>2025-07-15T20:09:23Z</time>
      </trkpt>
      <trkpt lat="43.62944" lon="6.97596">
        <ele>292.6</ele>
        <time>2025-07-15T20:09:24Z</time>
      </trkpt>
      <trkpt lat="43.62938" lon="6.97591">
        <ele>291.6</ele>
        <time>2025-07-15T20:09:25Z</time>
      </trkpt>
      <trkpt lat="43.62914" lon="6.9757">
        <ele>290.4</ele>
        <time>2025-07-15T20:09:28Z</time>
      </trkpt>
      <trkpt lat="43.62892" lon="6.97551">
        <ele>289</ele>
        <time>2025-07-15T20:09:31Z</time>
      </trkpt>
      <trkpt lat="43.62885" lon="6.97546">
        <ele>288.2</ele>
        <time>2025-07-15T20:09:32Z</time>
      </trkpt>
      <trkpt lat="43.62878" lon="6.97542">
        <ele>288</ele>
        <time>2025-07-15T20:09:33Z</time>
      </trkpt>
      <trkpt lat="43.6287" lon="6.97538">
        <ele>287.4</ele>
        <time>2025-07-15T20:09:34Z</time>
      </trkpt>
      <trkpt lat="43.62862" lon="6.97535">
        <ele>286.8</ele>
        <time>2025-07-15T20:09:35Z</time>
      </trkpt>
      <trkpt lat="43.62854" lon="6.97535">
        <ele>286.4</ele>
        <time>2025-07-15T20:09:36Z</time>
      </trkpt>
      <trkpt lat="43.62837" lon="6.97539">
        <ele>285.6</ele>
        <time>2025-07-15T20:09:38Z</time>
      </trkpt>
      <trkpt lat="43.6281" lon="6.97545">
        <ele>284.2</ele>
        <time>2025-07-15T20:09:41Z</time>
      </trkpt>
      <trkpt lat="43.62801" lon="6.97545">
        <ele>283.8</ele>
        <time>2025-07-15T20:09:42Z</time>
      </trkpt>
      <trkpt lat="43.62792" lon="6.97544">
        <ele>283</ele>
        <time>2025-07-15T20:09:43Z</time>
      </trkpt>
      <trkpt lat="43.62775" lon="6.97539">
        <ele>282</ele>
        <time>2025-07-15T20:09:45Z</time>
      </trkpt>
      <trkpt lat="43.62767" lon="6.97536">
        <ele>281.2</ele>
        <time>2025-07-15T20:09:46Z</time>
      </trkpt>
      <trkpt lat="43.62759" lon="6.97535">
        <ele>280.8</ele>
        <time>2025-07-15T20:09:47Z</time>
      </trkpt>
      <trkpt lat="43.62742" lon="6.97537">
        <ele>280</ele>
        <time>2025-07-15T20:09:49Z</time>
      </trkpt>
      <trkpt lat="43.62733" lon="6.9754">
        <ele>279.2</ele>
        <time>2025-07-15T20:09:50Z</time>
      </trkpt>
      <trkpt lat="43.62725" lon="6.97545">
        <ele>278.4</ele>
        <time>2025-07-15T20:09:51Z</time>
      </trkpt>
      <trkpt lat="43.62717" lon="6.97552">
        <ele>278.2</ele>
        <time>2025-07-15T20:09:52Z</time>
      </trkpt>
      <trkpt lat="43.6271" lon="6.97559">
        <ele>277.6</ele>
        <time>2025-07-15T20:09:53Z</time>
      </trkpt>
      <trkpt lat="43.62695" lon="6.97573">
        <ele>276.8</ele>
        <time>2025-07-15T20:09:55Z</time>
      </trkpt>
      <trkpt lat="43.62688" lon="6.97578">
        <ele>276.6</ele>
        <time>2025-07-15T20:09:56Z</time>
      </trkpt>
      <trkpt lat="43.62681" lon="6.9758">
        <ele>275.8</ele>
        <time>2025-07-15T20:09:57Z</time>
      </trkpt>
      <trkpt lat="43.62671" lon="6.97581">
        <ele>275</ele>
        <time>2025-07-15T20:09:58Z</time>
      </trkpt>
      <trkpt lat="43.62662" lon="6.9758">
        <ele>274.6</ele>
        <time>2025-07-15T20:09:59Z</time>
      </trkpt>
      <trkpt lat="43.62653" lon="6.97577">
        <ele>273.8</ele>
        <time>2025-07-15T20:10:00Z</time>
      </trkpt>
      <trkpt lat="43.62645" lon="6.97572">
        <ele>273.4</ele>
        <time>2025-07-15T20:10:01Z</time>
      </trkpt>
      <trkpt lat="43.62636" lon="6.97566">
        <ele>272.6</ele>
        <time>2025-07-15T20:10:02Z</time>
      </trkpt>
      <trkpt lat="43.62622" lon="6.97555">
        <ele>271.8</ele>
        <time>2025-07-15T20:10:04Z</time>
      </trkpt>
      <trkpt lat="43.62615" lon="6.97551">
        <ele>271.2</ele>
        <time>2025-07-15T20:10:05Z</time>
      </trkpt>
      <trkpt lat="43.62602" lon="6.97544">
        <ele>269.8</ele>
        <time>2025-07-15T20:10:07Z</time>
      </trkpt>
      <trkpt lat="43.62596" lon="6.97541">
        <ele>269.6</ele>
        <time>2025-07-15T20:10:08Z</time>
      </trkpt>
      <trkpt lat="43.62589" lon="6.9754">
        <ele>269</ele>
        <time>2025-07-15T20:10:09Z</time>
      </trkpt>
      <trkpt lat="43.62575" lon="6.97545">
        <ele>267.8</ele>
        <time>2025-07-15T20:10:11Z</time>
      </trkpt>
      <trkpt lat="43.62553" lon="6.9755">
        <ele>266.6</ele>
        <time>2025-07-15T20:10:14Z</time>
      </trkpt>
      <trkpt lat="43.62538" lon="6.97547">
        <ele>265.8</ele>
        <time>2025-07-15T20:10:16Z</time>
      </trkpt>
      <trkpt lat="43.62531" lon="6.97542">
        <ele>265.4</ele>
        <time>2025-07-15T20:10:17Z</time>
      </trkpt>
      <trkpt lat="43.62513" lon="6.97526">
        <ele>265</ele>
        <time>2025-07-15T20:10:20Z</time>
      </trkpt>
      <trkpt lat="43.62472" lon="6.97483">
        <ele>264.4</ele>
        <time>2025-07-15T20:10:27Z</time>
      </trkpt>
      <trkpt lat="43.62467" lon="6.97477">
        <ele>264.4</ele>
        <time>2025-07-15T20:10:28Z</time>
      </trkpt>
      <trkpt lat="43.62438" lon="6.97447">
        <ele>263.6</ele>
        <time>2025-07-15T20:10:33Z</time>
      </trkpt>
      <trkpt lat="43.62421" lon="6.97427">
        <ele>262.8</ele>
        <time>2025-07-15T20:10:36Z</time>
      </trkpt>
      <trkpt lat="43.62415" lon="6.9742">
        <ele>262.4</ele>
        <time>2025-07-15T20:10:37Z</time>
      </trkpt>
      <trkpt lat="43.62396" lon="6.974">
        <ele>261</ele>
        <time>2025-07-15T20:10:40Z</time>
      </trkpt>
      <trkpt lat="43.62377" lon="6.97379">
        <ele>260.2</ele>
        <time>2025-07-15T20:10:43Z</time>
      </trkpt>
      <trkpt lat="43.62369" lon="6.9737">
        <ele>259.8</ele>
        <time>2025-07-15T20:10:44Z</time>
      </trkpt>
      <trkpt lat="43.62353" lon="6.97344">
        <ele>258.6</ele>
        <time>2025-07-15T20:10:47Z</time>
      </trkpt>
      <trkpt lat="43.62349" lon="6.97338">
        <ele>258.4</ele>
        <time>2025-07-15T20:10:48Z</time>
      </trkpt>
      <trkpt lat="43.62333" lon="6.9731">
        <ele>257.2</ele>
        <time>2025-07-15T20:10:51Z</time>
      </trkpt>
      <trkpt lat="43.62328" lon="6.97301">
        <ele>256.8</ele>
        <time>2025-07-15T20:10:52Z</time>
      </trkpt>
      <trkpt lat="43.62322" lon="6.97294">
        <ele>256.4</ele>
        <time>2025-07-15T20:10:53Z</time>
      </trkpt>
      <trkpt lat="43.62314" lon="6.97291">
        <ele>256</ele>
        <time>2025-07-15T20:10:54Z</time>
      </trkpt>
      <trkpt lat="43.62306" lon="6.97289">
        <ele>255.6</ele>
        <time>2025-07-15T20:10:55Z</time>
      </trkpt>
      <trkpt lat="43.623" lon="6.97291">
        <ele>255.2</ele>
        <time>2025-07-15T20:10:56Z</time>
      </trkpt>
      <trkpt lat="43.62292" lon="6.97294">
        <ele>254.6</ele>
        <time>2025-07-15T20:10:57Z</time>
      </trkpt>
      <trkpt lat="43.62283" lon="6.97298">
        <ele>254.4</ele>
        <time>2025-07-15T20:10:58Z</time>
      </trkpt>
      <trkpt lat="43.62268" lon="6.97306">
        <ele>253.6</ele>
        <time>2025-07-15T20:11:00Z</time>
      </trkpt>
      <trkpt lat="43.62228" lon="6.9733">
        <ele>252.2</ele>
        <time>2025-07-15T20:11:06Z</time>
      </trkpt>
      <trkpt lat="43.62195" lon="6.97349">
        <ele>251</ele>
        <time>2025-07-15T20:11:11Z</time>
      </trkpt>
      <trkpt lat="43.62175" lon="6.97361">
        <ele>250.6</ele>
        <time>2025-07-15T20:11:14Z</time>
      </trkpt>
      <trkpt lat="43.62159" lon="6.97372">
        <ele>250.4</ele>
        <time>2025-07-15T20:11:17Z</time>
      </trkpt>
      <trkpt lat="43.62146" lon="6.97379">
        <ele>250</ele>
        <time>2025-07-15T20:11:19Z</time>
      </trkpt>
      <trkpt lat="43.62135" lon="6.97386">
        <ele>250</ele>
        <time>2025-07-15T20:11:21Z</time>
      </trkpt>
      <trkpt lat="43.62131" lon="6.97389">
        <ele>250</ele>
        <time>2025-07-15T20:11:22Z</time>
      </trkpt>
      <trkpt lat="43.62122" lon="6.97394">
        <ele>250</ele>
        <time>2025-07-15T20:11:24Z</time>
      </trkpt>
      <trkpt lat="43.62117" lon="6.97389">
        <ele>250</ele>
        <time>2025-07-15T20:11:26Z</time>
      </trkpt>
      <trkpt lat="43.62116" lon="6.97383">
        <ele>250.2</ele>
        <time>2025-07-15T20:11:27Z</time>
      </trkpt>
      <trkpt lat="43.62109" lon="6.97357">
        <ele>250.2</ele>
        <time>2025-07-15T20:11:32Z</time>
      </trkpt>
      <trkpt lat="43.62107" lon="6.9733">
        <ele>250.8</ele>
        <time>2025-07-15T20:11:37Z</time>
      </trkpt>
      <trkpt lat="43.62105" lon="6.97311">
        <ele>251</ele>
        <time>2025-07-15T20:11:40Z</time>
      </trkpt>
      <trkpt lat="43.62102" lon="6.97299">
        <ele>251.2</ele>
        <time>2025-07-15T20:11:42Z</time>
      </trkpt>
      <trkpt lat="43.62101" lon="6.97293">
        <ele>251.2</ele>
        <time>2025-07-15T20:11:43Z</time>
      </trkpt>
      <trkpt lat="43.62095" lon="6.97268">
        <ele>251.2</ele>
        <time>2025-07-15T20:11:47Z</time>
      </trkpt>
      <trkpt lat="43.62094" lon="6.97262">
        <ele>251.2</ele>
        <time>2025-07-15T20:11:48Z</time>
      </trkpt>
      <trkpt lat="43.62093" lon="6.97255">
        <ele>251.2</ele>
        <time>2025-07-15T20:11:49Z</time>
      </trkpt>
      <trkpt lat="43.6209" lon="6.97241">
        <ele>251</ele>
        <time>2025-07-15T20:11:51Z</time>
      </trkpt>
      <trkpt lat="43.62084" lon="6.97219">
        <ele>250.8</ele>
        <time>2025-07-15T20:11:54Z</time>
      </trkpt>
      <trkpt lat="43.62081" lon="6.97213">
        <ele>250.6</ele>
        <time>2025-07-15T20:11:55Z</time>
      </trkpt>
      <trkpt lat="43.62073" lon="6.97187">
        <ele>249.8</ele>
        <time>2025-07-15T20:11:58Z</time>
      </trkpt>
      <trkpt lat="43.6207" lon="6.9718">
        <ele>249.8</ele>
        <time>2025-07-15T20:11:59Z</time>
      </trkpt>
      <trkpt lat="43.62062" lon="6.97151">
        <ele>249</ele>
        <time>2025-07-15T20:12:03Z</time>
      </trkpt>
      <trkpt lat="43.6206" lon="6.97144">
        <ele>249</ele>
        <time>2025-07-15T20:12:04Z</time>
      </trkpt>
      <trkpt lat="43.62052" lon="6.97116">
        <ele>248.6</ele>
        <time>2025-07-15T20:12:09Z</time>
      </trkpt>
      <trkpt lat="43.62046" lon="6.97101">
        <ele>248.6</ele>
        <time>2025-07-15T20:12:14Z</time>
      </trkpt>
      <trkpt lat="43.62044" lon="6.971">
        <ele>248.6</ele>
        <time>2025-07-15T20:12:18Z</time>
      </trkpt>
      <trkpt lat="43.62042" lon="6.97093">
        <ele>248.4</ele>
        <time>2025-07-15T20:12:45Z</time>
      </trkpt>
      <trkpt lat="43.62041" lon="6.97086">
        <ele>248.6</ele>
        <time>2025-07-15T20:12:47Z</time>
      </trkpt>
      <trkpt lat="43.62038" lon="6.97083">
        <ele>248.8</ele>
        <time>2025-07-15T20:12:49Z</time>
      </trkpt>
      <trkpt lat="43.62032" lon="6.97084">
        <ele>248.8</ele>
        <time>2025-07-15T20:12:51Z</time>
      </trkpt>
      <trkpt lat="43.62013" lon="6.97098">
        <ele>249.2</ele>
        <time>2025-07-15T20:12:56Z</time>
      </trkpt>
      <trkpt lat="43.61986" lon="6.97118">
        <ele>249.2</ele>
        <time>2025-07-15T20:13:02Z</time>
      </trkpt>
      <trkpt lat="43.61957" lon="6.97139">
        <ele>248.2</ele>
        <time>2025-07-15T20:13:08Z</time>
      </trkpt>
      <trkpt lat="43.61953" lon="6.97143">
        <ele>248</ele>
        <time>2025-07-15T20:13:09Z</time>
      </trkpt>
      <trkpt lat="43.61932" lon="6.97155">
        <ele>247.2</ele>
        <time>2025-07-15T20:13:14Z</time>
      </trkpt>
      <trkpt lat="43.61922" lon="6.97156">
        <ele>247</ele>
        <time>2025-07-15T20:13:16Z</time>
      </trkpt>
      <trkpt lat="43.61918" lon="6.97158">
        <ele>247</ele>
        <time>2025-07-15T20:13:17Z</time>
      </trkpt>
      <trkpt lat="43.61913" lon="6.97162">
        <ele>246.8</ele>
        <time>2025-07-15T20:13:18Z</time>
      </trkpt>
      <trkpt lat="43.6189" lon="6.97179">
        <ele>246.2</ele>
        <time>2025-07-15T20:13:24Z</time>
      </trkpt>
      <trkpt lat="43.61882" lon="6.97185">
        <ele>245.8</ele>
        <time>2025-07-15T20:13:27Z</time>
      </trkpt>
      <trkpt lat="43.61874" lon="6.9719">
        <ele>245.6</ele>
        <time>2025-07-15T20:13:30Z</time>
      </trkpt>
      <trkpt lat="43.61858" lon="6.97204">
        <ele>245.4</ele>
        <time>2025-07-15T20:13:35Z</time>
      </trkpt>
      <trkpt lat="43.61828" lon="6.97227">
        <ele>245.6</ele>
        <time>2025-07-15T20:13:43Z</time>
      </trkpt>
      <trkpt lat="43.61816" lon="6.97236">
        <ele>245.6</ele>
        <time>2025-07-15T20:13:46Z</time>
      </trkpt>
      <trkpt lat="43.61809" lon="6.97242">
        <ele>245.6</ele>
        <time>2025-07-15T20:13:48Z</time>
      </trkpt>
      <trkpt lat="43.61804" lon="6.97245">
        <ele>245.6</ele>
        <time>2025-07-15T20:13:49Z</time>
      </trkpt>
      <trkpt lat="43.61781" lon="6.97262">
        <ele>245.4</ele>
        <time>2025-07-15T20:13:56Z</time>
      </trkpt>
      <trkpt lat="43.6177" lon="6.9727">
        <ele>245.2</ele>
        <time>2025-07-15T20:14:00Z</time>
      </trkpt>
      <trkpt lat="43.61768" lon="6.97272">
        <ele>245.4</ele>
        <time>2025-07-15T20:14:02Z</time>
      </trkpt>
      <trkpt lat="43.61767" lon="6.97272">
        <ele>245</ele>
        <time>2025-07-15T20:14:04Z</time>
      </trkpt>
      <trkpt lat="43.61764" lon="6.97276">
        <ele>245.2</ele>
        <time>2025-07-15T20:14:06Z</time>
      </trkpt>
      <trkpt lat="43.61745" lon="6.9729">
        <ele>245</ele>
        <time>2025-07-15T20:14:12Z</time>
      </trkpt>
      <trkpt lat="43.61715" lon="6.97313">
        <ele>245</ele>
        <time>2025-07-15T20:14:18Z</time>
      </trkpt>
      <trkpt lat="43.61693" lon="6.97329">
        <ele>245</ele>
        <time>2025-07-15T20:14:22Z</time>
      </trkpt>
      <trkpt lat="43.61682" lon="6.97336">
        <ele>245</ele>
        <time>2025-07-15T20:14:24Z</time>
      </trkpt>
      <trkpt lat="43.61677" lon="6.97341">
        <ele>245</ele>
        <time>2025-07-15T20:14:25Z</time>
      </trkpt>
      <trkpt lat="43.61667" lon="6.97348">
        <ele>245</ele>
        <time>2025-07-15T20:14:27Z</time>
      </trkpt>
      <trkpt lat="43.61657" lon="6.97348">
        <ele>245</ele>
        <time>2025-07-15T20:14:29Z</time>
      </trkpt>
      <trkpt lat="43.61647" lon="6.97339">
        <ele>245</ele>
        <time>2025-07-15T20:14:31Z</time>
      </trkpt>
      <trkpt lat="43.61643" lon="6.97333">
        <ele>245</ele>
        <time>2025-07-15T20:14:32Z</time>
      </trkpt>
      <trkpt lat="43.61621" lon="6.97299">
        <ele>244.2</ele>
        <time>2025-07-15T20:14:37Z</time>
      </trkpt>
      <trkpt lat="43.61613" lon="6.97285">
        <ele>244</ele>
        <time>2025-07-15T20:14:39Z</time>
      </trkpt>
      <trkpt lat="43.61601" lon="6.97262">
        <ele>243.4</ele>
        <time>2025-07-15T20:14:42Z</time>
      </trkpt>
      <trkpt lat="43.61591" lon="6.97249">
        <ele>242.8</ele>
        <time>2025-07-15T20:14:44Z</time>
      </trkpt>
      <trkpt lat="43.61562" lon="6.97205">
        <ele>241.6</ele>
        <time>2025-07-15T20:14:50Z</time>
      </trkpt>
      <trkpt lat="43.61539" lon="6.97169">
        <ele>240.8</ele>
        <time>2025-07-15T20:14:55Z</time>
      </trkpt>
      <trkpt lat="43.61521" lon="6.97144">
        <ele>240</ele>
        <time>2025-07-15T20:14:59Z</time>
      </trkpt>
      <trkpt lat="43.61517" lon="6.97138">
        <ele>239.8</ele>
        <time>2025-07-15T20:15:00Z</time>
      </trkpt>
      <trkpt lat="43.61493" lon="6.9711">
        <ele>238.8</ele>
        <time>2025-07-15T20:15:05Z</time>
      </trkpt>
      <trkpt lat="43.61488" lon="6.97105">
        <ele>238.6</ele>
        <time>2025-07-15T20:15:06Z</time>
      </trkpt>
      <trkpt lat="43.61452" lon="6.97069">
        <ele>237.8</ele>
        <time>2025-07-15T20:15:13Z</time>
      </trkpt>
      <trkpt lat="43.61442" lon="6.9706">
        <ele>237.6</ele>
        <time>2025-07-15T20:15:15Z</time>
      </trkpt>
      <trkpt lat="43.61404" lon="6.9702">
        <ele>237</ele>
        <time>2025-07-15T20:15:23Z</time>
      </trkpt>
      <trkpt lat="43.6139" lon="6.97006">
        <ele>236.8</ele>
        <time>2025-07-15T20:15:26Z</time>
      </trkpt>
      <trkpt lat="43.61373" lon="6.96986">
        <ele>236.8</ele>
        <time>2025-07-15T20:15:30Z</time>
      </trkpt>
      <trkpt lat="43.61361" lon="6.96972">
        <ele>236.6</ele>
        <time>2025-07-15T20:15:33Z</time>
      </trkpt>
      <trkpt lat="43.6135" lon="6.96961">
        <ele>236.6</ele>
        <time>2025-07-15T20:15:36Z</time>
      </trkpt>
      <trkpt lat="43.61348" lon="6.96958">
        <ele>236.6</ele>
        <time>2025-07-15T20:15:37Z</time>
      </trkpt>
      <trkpt lat="43.61344" lon="6.96948">
        <ele>236.4</ele>
        <time>2025-07-15T20:15:41Z</time>
      </trkpt>
      <trkpt lat="43.6134" lon="6.96929">
        <ele>236.4</ele>
        <time>2025-07-15T20:15:45Z</time>
      </trkpt>
      <trkpt lat="43.61331" lon="6.96919">
        <ele>236.4</ele>
        <time>2025-07-15T20:15:47Z</time>
      </trkpt>
      <trkpt lat="43.61326" lon="6.96917">
        <ele>236.2</ele>
        <time>2025-07-15T20:15:48Z</time>
      </trkpt>
      <trkpt lat="43.61315" lon="6.96917">
        <ele>236.2</ele>
        <time>2025-07-15T20:15:50Z</time>
      </trkpt>
      <trkpt lat="43.61306" lon="6.96914">
        <ele>236.2</ele>
        <time>2025-07-15T20:15:52Z</time>
      </trkpt>
      <trkpt lat="43.61303" lon="6.96911">
        <ele>236.2</ele>
        <time>2025-07-15T20:15:53Z</time>
      </trkpt>
      <trkpt lat="43.6129" lon="6.96897">
        <ele>236.8</ele>
        <time>2025-07-15T20:15:57Z</time>
      </trkpt>
      <trkpt lat="43.61287" lon="6.96893">
        <ele>237</ele>
        <time>2025-07-15T20:15:58Z</time>
      </trkpt>
      <trkpt lat="43.61283" lon="6.96884">
        <ele>237.8</ele>
        <time>2025-07-15T20:16:00Z</time>
      </trkpt>
      <trkpt lat="43.61272" lon="6.96869">
        <ele>238.6</ele>
        <time>2025-07-15T20:16:05Z</time>
      </trkpt>
      <trkpt lat="43.61269" lon="6.96865">
        <ele>239</ele>
        <time>2025-07-15T20:16:06Z</time>
      </trkpt>
      <trkpt lat="43.61257" lon="6.96852">
        <ele>240.2</ele>
        <time>2025-07-15T20:16:11Z</time>
      </trkpt>
      <trkpt lat="43.61256" lon="6.9685">
        <ele>240.2</ele>
        <time>2025-07-15T20:16:12Z</time>
      </trkpt>
      <trkpt lat="43.61252" lon="6.96843">
        <ele>241.4</ele>
        <time>2025-07-15T20:16:16Z</time>
      </trkpt>
      <trkpt lat="43.61252" lon="6.96843">
        <ele>241.6</ele>
        <time>2025-07-15T20:16:17Z</time>
      </trkpt>
      <trkpt lat="43.61252" lon="6.96843">
        <ele>241.8</ele>
        <time>2025-07-15T20:16:18Z</time>
      </trkpt>
      <trkpt lat="43.61251" lon="6.96841">
        <ele>242.8</ele>
        <time>2025-07-15T20:21:37Z</time>
      </trkpt>
      <trkpt lat="43.61248" lon="6.96839">
        <ele>242.8</ele>
        <time>2025-07-15T20:21:39Z</time>
      </trkpt>
      <trkpt lat="43.61243" lon="6.9684">
        <ele>243</ele>
        <time>2025-07-15T20:21:41Z</time>
      </trkpt>
      <trkpt lat="43.61238" lon="6.96834">
        <ele>243</ele>
        <time>2025-07-15T20:21:43Z</time>
      </trkpt>
      <trkpt lat="43.61234" lon="6.96814">
        <ele>243</ele>
        <time>2025-07-15T20:21:47Z</time>
      </trkpt>
      <trkpt lat="43.61235" lon="6.96788">
        <ele>243.2</ele>
        <time>2025-07-15T20:21:51Z</time>
      </trkpt>
      <trkpt lat="43.61235" lon="6.96781">
        <ele>243.2</ele>
        <time>2025-07-15T20:21:52Z</time>
      </trkpt>
      <trkpt lat="43.61232" lon="6.96765">
        <ele>243.4</ele>
        <time>2025-07-15T20:21:54Z</time>
      </trkpt>
      <trkpt lat="43.61228" lon="6.96754">
        <ele>243.4</ele>
        <time>2025-07-15T20:21:56Z</time>
      </trkpt>
      <trkpt lat="43.61224" lon="6.96747">
        <ele>243.4</ele>
        <time>2025-07-15T20:21:57Z</time>
      </trkpt>
      <trkpt lat="43.61216" lon="6.96737">
        <ele>243.4</ele>
        <time>2025-07-15T20:21:59Z</time>
      </trkpt>
      <trkpt lat="43.61209" lon="6.96729">
        <ele>243.2</ele>
        <time>2025-07-15T20:22:01Z</time>
      </trkpt>
      <trkpt lat="43.61203" lon="6.96725">
        <ele>243.2</ele>
        <time>2025-07-15T20:22:02Z</time>
      </trkpt>
      <trkpt lat="43.61193" lon="6.9672">
        <ele>243.2</ele>
        <time>2025-07-15T20:22:04Z</time>
      </trkpt>
      <trkpt lat="43.61183" lon="6.96719">
        <ele>243.4</ele>
        <time>2025-07-15T20:22:06Z</time>
      </trkpt>
      <trkpt lat="43.61177" lon="6.96721">
        <ele>243.4</ele>
        <time>2025-07-15T20:22:07Z</time>
      </trkpt>
      <trkpt lat="43.61172" lon="6.96722">
        <ele>243.4</ele>
        <time>2025-07-15T20:22:08Z</time>
      </trkpt>
      <trkpt lat="43.61163" lon="6.96728">
        <ele>243.4</ele>
        <time>2025-07-15T20:22:10Z</time>
      </trkpt>
      <trkpt lat="43.61152" lon="6.96735">
        <ele>243.4</ele>
        <time>2025-07-15T20:22:12Z</time>
      </trkpt>
      <trkpt lat="43.61147" lon="6.96737">
        <ele>243.6</ele>
        <time>2025-07-15T20:22:13Z</time>
      </trkpt>
      <trkpt lat="43.61138" lon="6.96735">
        <ele>243.6</ele>
        <time>2025-07-15T20:22:15Z</time>
      </trkpt>
      <trkpt lat="43.61118" lon="6.96717">
        <ele>243.8</ele>
        <time>2025-07-15T20:22:20Z</time>
      </trkpt>
      <trkpt lat="43.61105" lon="6.96703">
        <ele>244.8</ele>
        <time>2025-07-15T20:22:25Z</time>
      </trkpt>
      <trkpt lat="43.61102" lon="6.967">
        <ele>245.2</ele>
        <time>2025-07-15T20:22:26Z</time>
      </trkpt>
      <trkpt lat="43.61087" lon="6.96687">
        <ele>246.2</ele>
        <time>2025-07-15T20:22:31Z</time>
      </trkpt>
      <trkpt lat="43.61075" lon="6.96674">
        <ele>247.2</ele>
        <time>2025-07-15T20:22:36Z</time>
      </trkpt>
      <trkpt lat="43.6107" lon="6.96669">
        <ele>248</ele>
        <time>2025-07-15T20:22:38Z</time>
      </trkpt>
      <trkpt lat="43.6106" lon="6.9666">
        <ele>248.6</ele>
        <time>2025-07-15T20:22:41Z</time>
      </trkpt>
      <trkpt lat="43.61048" lon="6.96648">
        <ele>249.4</ele>
        <time>2025-07-15T20:22:45Z</time>
      </trkpt>
      <trkpt lat="43.61042" lon="6.96642">
        <ele>249.6</ele>
        <time>2025-07-15T20:22:47Z</time>
      </trkpt>
      <trkpt lat="43.61028" lon="6.96626">
        <ele>250.2</ele>
        <time>2025-07-15T20:22:53Z</time>
      </trkpt>
      <trkpt lat="43.61003" lon="6.96601">
        <ele>250.2</ele>
        <time>2025-07-15T20:23:00Z</time>
      </trkpt>
      <trkpt lat="43.6098" lon="6.96577">
        <ele>250</ele>
        <time>2025-07-15T20:23:05Z</time>
      </trkpt>
      <trkpt lat="43.60945" lon="6.96542">
        <ele>249</ele>
        <time>2025-07-15T20:23:12Z</time>
      </trkpt>
      <trkpt lat="43.60899" lon="6.96497">
        <ele>248.8</ele>
        <time>2025-07-15T20:23:21Z</time>
      </trkpt>
      <trkpt lat="43.60896" lon="6.96493">
        <ele>248.8</ele>
        <time>2025-07-15T20:23:22Z</time>
      </trkpt>
      <trkpt lat="43.60862" lon="6.9646">
        <ele>248.8</ele>
        <time>2025-07-15T20:23:29Z</time>
      </trkpt>
      <trkpt lat="43.60817" lon="6.96414">
        <ele>250</ele>
        <time>2025-07-15T20:23:39Z</time>
      </trkpt>
      <trkpt lat="43.60789" lon="6.96386">
        <ele>250.4</ele>
        <time>2025-07-15T20:23:46Z</time>
      </trkpt>
      <trkpt lat="43.6078" lon="6.96376">
        <ele>251</ele>
        <time>2025-07-15T20:23:48Z</time>
      </trkpt>
      <trkpt lat="43.60765" lon="6.96359">
        <ele>251.4</ele>
        <time>2025-07-15T20:23:52Z</time>
      </trkpt>
      <trkpt lat="43.60751" lon="6.96345">
        <ele>252</ele>
        <time>2025-07-15T20:23:56Z</time>
      </trkpt>
      <trkpt lat="43.60743" lon="6.96337">
        <ele>252.6</ele>
        <time>2025-07-15T20:23:58Z</time>
      </trkpt>
      <trkpt lat="43.60736" lon="6.96329">
        <ele>253.2</ele>
        <time>2025-07-15T20:24:00Z</time>
      </trkpt>
      <trkpt lat="43.6071" lon="6.96305">
        <ele>254.4</ele>
        <time>2025-07-15T20:24:07Z</time>
      </trkpt>
      <trkpt lat="43.60702" lon="6.96297">
        <ele>254.6</ele>
        <time>2025-07-15T20:24:09Z</time>
      </trkpt>
      <trkpt lat="43.60688" lon="6.96283">
        <ele>254.8</ele>
        <time>2025-07-15T20:24:12Z</time>
      </trkpt>
      <trkpt lat="43.60658" lon="6.96253">
        <ele>254.4</ele>
        <time>2025-07-15T20:24:18Z</time>
      </trkpt>
      <trkpt lat="43.60615" lon="6.96211">
        <ele>253.4</ele>
        <time>2025-07-15T20:24:26Z</time>
      </trkpt>
      <trkpt lat="43.60592" lon="6.9619">
        <ele>253.6</ele>
        <time>2025-07-15T20:24:31Z</time>
      </trkpt>
      <trkpt lat="43.60582" lon="6.9618">
        <ele>254</ele>
        <time>2025-07-15T20:24:34Z</time>
      </trkpt>
      <trkpt lat="43.60573" lon="6.96172">
        <ele>254.8</ele>
        <time>2025-07-15T20:24:37Z</time>
      </trkpt>
      <trkpt lat="43.6057" lon="6.96169">
        <ele>255.4</ele>
        <time>2025-07-15T20:24:38Z</time>
      </trkpt>
      <trkpt lat="43.60559" lon="6.96159">
        <ele>256.4</ele>
        <time>2025-07-15T20:24:42Z</time>
      </trkpt>
      <trkpt lat="43.60548" lon="6.96149">
        <ele>258</ele>
        <time>2025-07-15T20:24:47Z</time>
      </trkpt>
      <trkpt lat="43.60543" lon="6.96145">
        <ele>258.6</ele>
        <time>2025-07-15T20:24:49Z</time>
      </trkpt>
      <trkpt lat="43.60535" lon="6.96137">
        <ele>259.2</ele>
        <time>2025-07-15T20:24:52Z</time>
      </trkpt>
      <trkpt lat="43.60527" lon="6.96131">
        <ele>260</ele>
        <time>2025-07-15T20:24:55Z</time>
      </trkpt>
      <trkpt lat="43.60522" lon="6.96126">
        <ele>260.6</ele>
        <time>2025-07-15T20:24:57Z</time>
      </trkpt>
      <trkpt lat="43.60509" lon="6.96117">
        <ele>261.6</ele>
        <time>2025-07-15T20:25:01Z</time>
      </trkpt>
      <trkpt lat="43.60496" lon="6.96103">
        <ele>262.6</ele>
        <time>2025-07-15T20:25:06Z</time>
      </trkpt>
      <trkpt lat="43.60485" lon="6.96092">
        <ele>263.6</ele>
        <time>2025-07-15T20:25:10Z</time>
      </trkpt>
      <trkpt lat="43.60474" lon="6.9608">
        <ele>265</ele>
        <time>2025-07-15T20:25:15Z</time>
      </trkpt>
      <trkpt lat="43.60473" lon="6.96079">
        <ele>265.2</ele>
        <time>2025-07-15T20:25:16Z</time>
      </trkpt>
      <trkpt lat="43.60471" lon="6.96079">
        <ele>265.8</ele>
        <time>2025-07-15T20:25:19Z</time>
      </trkpt>
      <trkpt lat="43.60469" lon="6.96072">
        <ele>266.4</ele>
        <time>2025-07-15T20:26:16Z</time>
      </trkpt>
      <trkpt lat="43.60469" lon="6.96069">
        <ele>266.6</ele>
        <time>2025-07-15T20:26:17Z</time>
      </trkpt>
      <trkpt lat="43.60465" lon="6.96058">
        <ele>266.6</ele>
        <time>2025-07-15T20:26:20Z</time>
      </trkpt>
      <trkpt lat="43.6046" lon="6.96052">
        <ele>266.6</ele>
        <time>2025-07-15T20:26:22Z</time>
      </trkpt>
      <trkpt lat="43.60443" lon="6.96051">
        <ele>266.8</ele>
        <time>2025-07-15T20:26:27Z</time>
      </trkpt>
      <trkpt lat="43.60423" lon="6.96042">
        <ele>267.2</ele>
        <time>2025-07-15T20:26:33Z</time>
      </trkpt>
      <trkpt lat="43.60415" lon="6.96037">
        <ele>267.6</ele>
        <time>2025-07-15T20:26:35Z</time>
      </trkpt>
      <trkpt lat="43.60393" lon="6.96022">
        <ele>268.2</ele>
        <time>2025-07-15T20:26:41Z</time>
      </trkpt>
      <trkpt lat="43.60373" lon="6.9601">
        <ele>268.8</ele>
        <time>2025-07-15T20:26:47Z</time>
      </trkpt>
      <trkpt lat="43.60361" lon="6.96002">
        <ele>269</ele>
        <time>2025-07-15T20:26:50Z</time>
      </trkpt>
      <trkpt lat="43.60346" lon="6.95989">
        <ele>269</ele>
        <time>2025-07-15T20:26:56Z</time>
      </trkpt>
      <trkpt lat="43.60323" lon="6.95973">
        <ele>268.8</ele>
        <time>2025-07-15T20:27:03Z</time>
      </trkpt>
      <trkpt lat="43.60289" lon="6.95949">
        <ele>268.6</ele>
        <time>2025-07-15T20:27:11Z</time>
      </trkpt>
      <trkpt lat="43.60256" lon="6.95928">
        <ele>268.4</ele>
        <time>2025-07-15T20:27:18Z</time>
      </trkpt>
      <trkpt lat="43.60208" lon="6.95896">
        <ele>268.6</ele>
        <time>2025-07-15T20:27:28Z</time>
      </trkpt>
      <trkpt lat="43.60166" lon="6.95868">
        <ele>269.8</ele>
        <time>2025-07-15T20:27:37Z</time>
      </trkpt>
      <trkpt lat="43.60137" lon="6.9585">
        <ele>270.6</ele>
        <time>2025-07-15T20:27:44Z</time>
      </trkpt>
      <trkpt lat="43.60131" lon="6.95846">
        <ele>270.8</ele>
        <time>2025-07-15T20:27:45Z</time>
      </trkpt>
      <trkpt lat="43.60102" lon="6.95826">
        <ele>270.8</ele>
        <time>2025-07-15T20:27:51Z</time>
      </trkpt>
      <trkpt lat="43.60063" lon="6.95801">
        <ele>270.4</ele>
        <time>2025-07-15T20:27:59Z</time>
      </trkpt>
      <trkpt lat="43.60018" lon="6.95772">
        <ele>270.2</ele>
        <time>2025-07-15T20:28:08Z</time>
      </trkpt>
      <trkpt lat="43.59989" lon="6.95754">
        <ele>270.2</ele>
        <time>2025-07-15T20:28:14Z</time>
      </trkpt>
      <trkpt lat="43.59964" lon="6.95737">
        <ele>270.2</ele>
        <time>2025-07-15T20:28:20Z</time>
      </trkpt>
      <trkpt lat="43.59948" lon="6.95724">
        <ele>270.8</ele>
        <time>2025-07-15T20:28:25Z</time>
      </trkpt>
      <trkpt lat="43.59931" lon="6.95714">
        <ele>272.2</ele>
        <time>2025-07-15T20:28:31Z</time>
      </trkpt>
      <trkpt lat="43.59921" lon="6.95706">
        <ele>273.2</ele>
        <time>2025-07-15T20:28:35Z</time>
      </trkpt>
      <trkpt lat="43.59918" lon="6.95704">
        <ele>273.6</ele>
        <time>2025-07-15T20:28:37Z</time>
      </trkpt>
      <trkpt lat="43.59909" lon="6.95699">
        <ele>274.2</ele>
        <time>2025-07-15T20:28:41Z</time>
      </trkpt>
      <trkpt lat="43.59904" lon="6.95696">
        <ele>274.6</ele>
        <time>2025-07-15T20:28:43Z</time>
      </trkpt>
      <trkpt lat="43.59892" lon="6.95688">
        <ele>275.4</ele>
        <time>2025-07-15T20:28:48Z</time>
      </trkpt>
      <trkpt lat="43.59885" lon="6.95682">
        <ele>276</ele>
        <time>2025-07-15T20:28:51Z</time>
      </trkpt>
      <trkpt lat="43.5988" lon="6.95676">
        <ele>276.4</ele>
        <time>2025-07-15T20:28:53Z</time>
      </trkpt>
      <trkpt lat="43.59871" lon="6.95662">
        <ele>276.8</ele>
        <time>2025-07-15T20:28:57Z</time>
      </trkpt>
      <trkpt lat="43.59861" lon="6.95641">
        <ele>276.8</ele>
        <time>2025-07-15T20:29:01Z</time>
      </trkpt>
      <trkpt lat="43.59858" lon="6.95631">
        <ele>276.8</ele>
        <time>2025-07-15T20:29:03Z</time>
      </trkpt>
      <trkpt lat="43.59852" lon="6.95607">
        <ele>276.4</ele>
        <time>2025-07-15T20:29:08Z</time>
      </trkpt>
      <trkpt lat="43.59844" lon="6.95586">
        <ele>276.4</ele>
        <time>2025-07-15T20:29:13Z</time>
      </trkpt>
      <trkpt lat="43.59834" lon="6.95556">
        <ele>276.2</ele>
        <time>2025-07-15T20:29:19Z</time>
      </trkpt>
      <trkpt lat="43.59819" lon="6.95521">
        <ele>275.6</ele>
        <time>2025-07-15T20:29:24Z</time>
      </trkpt>
      <trkpt lat="43.59817" lon="6.95514">
        <ele>275.2</ele>
        <time>2025-07-15T20:29:25Z</time>
      </trkpt>
      <trkpt lat="43.59809" lon="6.95491">
        <ele>273.8</ele>
        <time>2025-07-15T20:29:28Z</time>
      </trkpt>
      <trkpt lat="43.59804" lon="6.95476">
        <ele>273</ele>
        <time>2025-07-15T20:29:30Z</time>
      </trkpt>
      <trkpt lat="43.59801" lon="6.95471">
        <ele>272.6</ele>
        <time>2025-07-15T20:29:31Z</time>
      </trkpt>
      <trkpt lat="43.59799" lon="6.95465">
        <ele>272.4</ele>
        <time>2025-07-15T20:29:32Z</time>
      </trkpt>
      <trkpt lat="43.59793" lon="6.95451">
        <ele>271.8</ele>
        <time>2025-07-15T20:29:36Z</time>
      </trkpt>
      <trkpt lat="43.59791" lon="6.95449">
        <ele>271.8</ele>
        <time>2025-07-15T20:29:37Z</time>
      </trkpt>
      <trkpt lat="43.59789" lon="6.95448">
        <ele>271.8</ele>
        <time>2025-07-15T20:29:39Z</time>
      </trkpt>
      <trkpt lat="43.59789" lon="6.95448">
        <ele>271.8</ele>
        <time>2025-07-15T20:29:40Z</time>
      </trkpt>
      <trkpt lat="43.59789" lon="6.95448">
        <ele>272</ele>
        <time>2025-07-15T20:29:42Z</time>
      </trkpt>
      <trkpt lat="43.59786" lon="6.95448">
        <ele>272.2</ele>
        <time>2025-07-15T20:29:57Z</time>
      </trkpt>
      <trkpt lat="43.59784" lon="6.95448">
        <ele>272.2</ele>
        <time>2025-07-15T20:29:58Z</time>
      </trkpt>
      <trkpt lat="43.59763" lon="6.95449">
        <ele>272</ele>
        <time>2025-07-15T20:30:04Z</time>
      </trkpt>
      <trkpt lat="43.59732" lon="6.95449">
        <ele>272</ele>
        <time>2025-07-15T20:30:11Z</time>
      </trkpt>
      <trkpt lat="43.59723" lon="6.95449">
        <ele>272</ele>
        <time>2025-07-15T20:30:13Z</time>
      </trkpt>
      <trkpt lat="43.59711" lon="6.95452">
        <ele>272</ele>
        <time>2025-07-15T20:30:16Z</time>
      </trkpt>
      <trkpt lat="43.59707" lon="6.95453">
        <ele>272</ele>
        <time>2025-07-15T20:30:17Z</time>
      </trkpt>
      <trkpt lat="43.597" lon="6.95458">
        <ele>272</ele>
        <time>2025-07-15T20:30:19Z</time>
      </trkpt>
      <trkpt lat="43.59697" lon="6.95463">
        <ele>272</ele>
        <time>2025-07-15T20:30:20Z</time>
      </trkpt>
      <trkpt lat="43.59695" lon="6.95468">
        <ele>272</ele>
        <time>2025-07-15T20:30:21Z</time>
      </trkpt>
      <trkpt lat="43.59684" lon="6.95494">
        <ele>271.8</ele>
        <time>2025-07-15T20:30:25Z</time>
      </trkpt>
      <trkpt lat="43.59672" lon="6.95505">
        <ele>271.4</ele>
        <time>2025-07-15T20:30:27Z</time>
      </trkpt>
      <trkpt lat="43.59666" lon="6.95511">
        <ele>271.2</ele>
        <time>2025-07-15T20:30:28Z</time>
      </trkpt>
      <trkpt lat="43.59662" lon="6.95517">
        <ele>270.8</ele>
        <time>2025-07-15T20:30:29Z</time>
      </trkpt>
      <trkpt lat="43.59651" lon="6.95534">
        <ele>270.2</ele>
        <time>2025-07-15T20:30:31Z</time>
      </trkpt>
      <trkpt lat="43.59641" lon="6.95555">
        <ele>269</ele>
        <time>2025-07-15T20:30:33Z</time>
      </trkpt>
      <trkpt lat="43.5963" lon="6.95575">
        <ele>267.6</ele>
        <time>2025-07-15T20:30:35Z</time>
      </trkpt>
      <trkpt lat="43.59616" lon="6.9559">
        <ele>266.2</ele>
        <time>2025-07-15T20:30:37Z</time>
      </trkpt>
      <trkpt lat="43.59608" lon="6.95596">
        <ele>265.8</ele>
        <time>2025-07-15T20:30:38Z</time>
      </trkpt>
      <trkpt lat="43.59601" lon="6.956">
        <ele>265.4</ele>
        <time>2025-07-15T20:30:39Z</time>
      </trkpt>
      <trkpt lat="43.59591" lon="6.95604">
        <ele>265</ele>
        <time>2025-07-15T20:30:40Z</time>
      </trkpt>
      <trkpt lat="43.59578" lon="6.9561">
        <ele>264.4</ele>
        <time>2025-07-15T20:30:42Z</time>
      </trkpt>
      <trkpt lat="43.59555" lon="6.9562">
        <ele>264</ele>
        <time>2025-07-15T20:30:45Z</time>
      </trkpt>
      <trkpt lat="43.59524" lon="6.9563">
        <ele>263.4</ele>
        <time>2025-07-15T20:30:49Z</time>
      </trkpt>
      <trkpt lat="43.59508" lon="6.95636">
        <ele>263</ele>
        <time>2025-07-15T20:30:51Z</time>
      </trkpt>
      <trkpt lat="43.59467" lon="6.95653">
        <ele>261.8</ele>
        <time>2025-07-15T20:30:56Z</time>
      </trkpt>
      <trkpt lat="43.59461" lon="6.95655">
        <ele>261.8</ele>
        <time>2025-07-15T20:30:57Z</time>
      </trkpt>
      <trkpt lat="43.59416" lon="6.95665">
        <ele>261</ele>
        <time>2025-07-15T20:31:03Z</time>
      </trkpt>
      <trkpt lat="43.59387" lon="6.95669">
        <ele>260.8</ele>
        <time>2025-07-15T20:31:07Z</time>
      </trkpt>
      <trkpt lat="43.59366" lon="6.95673">
        <ele>260.8</ele>
        <time>2025-07-15T20:31:10Z</time>
      </trkpt>
      <trkpt lat="43.59325" lon="6.9568">
        <ele>260.6</ele>
        <time>2025-07-15T20:31:16Z</time>
      </trkpt>
      <trkpt lat="43.59312" lon="6.95682">
        <ele>260.4</ele>
        <time>2025-07-15T20:31:18Z</time>
      </trkpt>
      <trkpt lat="43.59285" lon="6.95685">
        <ele>259.8</ele>
        <time>2025-07-15T20:31:22Z</time>
      </trkpt>
      <trkpt lat="43.59257" lon="6.9569">
        <ele>259.4</ele>
        <time>2025-07-15T20:31:26Z</time>
      </trkpt>
      <trkpt lat="43.59208" lon="6.95698">
        <ele>259</ele>
        <time>2025-07-15T20:31:33Z</time>
      </trkpt>
      <trkpt lat="43.59195" lon="6.95701">
        <ele>258.8</ele>
        <time>2025-07-15T20:31:35Z</time>
      </trkpt>
      <trkpt lat="43.59155" lon="6.95709">
        <ele>257.8</ele>
        <time>2025-07-15T20:31:41Z</time>
      </trkpt>
      <trkpt lat="43.59142" lon="6.95711">
        <ele>257.4</ele>
        <time>2025-07-15T20:31:43Z</time>
      </trkpt>
      <trkpt lat="43.59116" lon="6.95712">
        <ele>257</ele>
        <time>2025-07-15T20:31:47Z</time>
      </trkpt>
      <trkpt lat="43.59111" lon="6.95712">
        <ele>256.6</ele>
        <time>2025-07-15T20:31:48Z</time>
      </trkpt>
      <trkpt lat="43.59105" lon="6.9571">
        <ele>256.4</ele>
        <time>2025-07-15T20:31:49Z</time>
      </trkpt>
      <trkpt lat="43.59095" lon="6.95705">
        <ele>256.2</ele>
        <time>2025-07-15T20:31:51Z</time>
      </trkpt>
      <trkpt lat="43.59085" lon="6.95709">
        <ele>255.4</ele>
        <time>2025-07-15T20:31:53Z</time>
      </trkpt>
      <trkpt lat="43.59076" lon="6.95718">
        <ele>254.6</ele>
        <time>2025-07-15T20:31:55Z</time>
      </trkpt>
      <trkpt lat="43.59065" lon="6.95722">
        <ele>254.2</ele>
        <time>2025-07-15T20:31:57Z</time>
      </trkpt>
      <trkpt lat="43.59029" lon="6.95728">
        <ele>253.4</ele>
        <time>2025-07-15T20:32:02Z</time>
      </trkpt>
      <trkpt lat="43.59012" lon="6.95731">
        <ele>252.8</ele>
        <time>2025-07-15T20:32:04Z</time>
      </trkpt>
      <trkpt lat="43.58976" lon="6.95737">
        <ele>251.6</ele>
        <time>2025-07-15T20:32:08Z</time>
      </trkpt>
      <trkpt lat="43.58957" lon="6.95736">
        <ele>250.6</ele>
        <time>2025-07-15T20:32:10Z</time>
      </trkpt>
      <trkpt lat="43.58939" lon="6.95733">
        <ele>249.6</ele>
        <time>2025-07-15T20:32:12Z</time>
      </trkpt>
      <trkpt lat="43.58931" lon="6.9573">
        <ele>249</ele>
        <time>2025-07-15T20:32:13Z</time>
      </trkpt>
      <trkpt lat="43.58906" lon="6.95723">
        <ele>247.6</ele>
        <time>2025-07-15T20:32:16Z</time>
      </trkpt>
      <trkpt lat="43.58883" lon="6.95716">
        <ele>247.2</ele>
        <time>2025-07-15T20:32:19Z</time>
      </trkpt>
      <trkpt lat="43.58825" lon="6.95699">
        <ele>246.8</ele>
        <time>2025-07-15T20:32:27Z</time>
      </trkpt>
      <trkpt lat="43.58805" lon="6.95694">
        <ele>247.2</ele>
        <time>2025-07-15T20:32:30Z</time>
      </trkpt>
      <trkpt lat="43.58792" lon="6.95693">
        <ele>247.2</ele>
        <time>2025-07-15T20:32:32Z</time>
      </trkpt>
      <trkpt lat="43.58761" lon="6.95697">
        <ele>247.4</ele>
        <time>2025-07-15T20:32:37Z</time>
      </trkpt>
      <trkpt lat="43.58756" lon="6.95699">
        <ele>247.4</ele>
        <time>2025-07-15T20:32:38Z</time>
      </trkpt>
      <trkpt lat="43.58706" lon="6.95705">
        <ele>247.4</ele>
        <time>2025-07-15T20:32:45Z</time>
      </trkpt>
      <trkpt lat="43.58671" lon="6.95704">
        <ele>246.4</ele>
        <time>2025-07-15T20:32:49Z</time>
      </trkpt>
      <trkpt lat="43.58662" lon="6.95703">
        <ele>246</ele>
        <time>2025-07-15T20:32:50Z</time>
      </trkpt>
      <trkpt lat="43.58643" lon="6.95702">
        <ele>245.2</ele>
        <time>2025-07-15T20:32:52Z</time>
      </trkpt>
      <trkpt lat="43.58624" lon="6.957">
        <ele>242.4</ele>
        <time>2025-07-15T20:32:54Z</time>
      </trkpt>
      <trkpt lat="43.58605" lon="6.95696">
        <ele>241</ele>
        <time>2025-07-15T20:32:56Z</time>
      </trkpt>
      <trkpt lat="43.58584" lon="6.95692">
        <ele>239.8</ele>
        <time>2025-07-15T20:32:58Z</time>
      </trkpt>
      <trkpt lat="43.58564" lon="6.95687">
        <ele>238.2</ele>
        <time>2025-07-15T20:33:00Z</time>
      </trkpt>
      <trkpt lat="43.58553" lon="6.95684">
        <ele>237</ele>
        <time>2025-07-15T20:33:01Z</time>
      </trkpt>
      <trkpt lat="43.58531" lon="6.95678">
        <ele>234.8</ele>
        <time>2025-07-15T20:33:03Z</time>
      </trkpt>
      <trkpt lat="43.58511" lon="6.95673">
        <ele>232.8</ele>
        <time>2025-07-15T20:33:05Z</time>
      </trkpt>
      <trkpt lat="43.58491" lon="6.95669">
        <ele>230.8</ele>
        <time>2025-07-15T20:33:07Z</time>
      </trkpt>
      <trkpt lat="43.58481" lon="6.95667">
        <ele>229</ele>
        <time>2025-07-15T20:33:08Z</time>
      </trkpt>
      <trkpt lat="43.58463" lon="6.95664">
        <ele>226.6</ele>
        <time>2025-07-15T20:33:10Z</time>
      </trkpt>
      <trkpt lat="43.58444" lon="6.95667">
        <ele>224.4</ele>
        <time>2025-07-15T20:33:12Z</time>
      </trkpt>
      <trkpt lat="43.58428" lon="6.95678">
        <ele>221.8</ele>
        <time>2025-07-15T20:33:14Z</time>
      </trkpt>
      <trkpt lat="43.5842" lon="6.95685">
        <ele>220.8</ele>
        <time>2025-07-15T20:33:15Z</time>
      </trkpt>
      <trkpt lat="43.58403" lon="6.95701">
        <ele>219.4</ele>
        <time>2025-07-15T20:33:17Z</time>
      </trkpt>
      <trkpt lat="43.58385" lon="6.95719">
        <ele>218</ele>
        <time>2025-07-15T20:33:19Z</time>
      </trkpt>
      <trkpt lat="43.58376" lon="6.95728">
        <ele>217.4</ele>
        <time>2025-07-15T20:33:20Z</time>
      </trkpt>
      <trkpt lat="43.58366" lon="6.95736">
        <ele>216.2</ele>
        <time>2025-07-15T20:33:21Z</time>
      </trkpt>
      <trkpt lat="43.58348" lon="6.95753">
        <ele>215</ele>
        <time>2025-07-15T20:33:23Z</time>
      </trkpt>
      <trkpt lat="43.5834" lon="6.95761">
        <ele>214</ele>
        <time>2025-07-15T20:33:24Z</time>
      </trkpt>
      <trkpt lat="43.58331" lon="6.95769">
        <ele>213.6</ele>
        <time>2025-07-15T20:33:25Z</time>
      </trkpt>
      <trkpt lat="43.58322" lon="6.95778">
        <ele>212.8</ele>
        <time>2025-07-15T20:33:26Z</time>
      </trkpt>
      <trkpt lat="43.58305" lon="6.95798">
        <ele>211.8</ele>
        <time>2025-07-15T20:33:28Z</time>
      </trkpt>
      <trkpt lat="43.58296" lon="6.95807">
        <ele>210.6</ele>
        <time>2025-07-15T20:33:29Z</time>
      </trkpt>
      <trkpt lat="43.58286" lon="6.95814">
        <ele>210</ele>
        <time>2025-07-15T20:33:30Z</time>
      </trkpt>
      <trkpt lat="43.58277" lon="6.9582">
        <ele>208.8</ele>
        <time>2025-07-15T20:33:31Z</time>
      </trkpt>
      <trkpt lat="43.58269" lon="6.95825">
        <ele>208.4</ele>
        <time>2025-07-15T20:33:32Z</time>
      </trkpt>
      <trkpt lat="43.58258" lon="6.9583">
        <ele>207.6</ele>
        <time>2025-07-15T20:33:33Z</time>
      </trkpt>
      <trkpt lat="43.58247" lon="6.95836">
        <ele>206.4</ele>
        <time>2025-07-15T20:33:34Z</time>
      </trkpt>
      <trkpt lat="43.58234" lon="6.95842">
        <ele>206</ele>
        <time>2025-07-15T20:33:35Z</time>
      </trkpt>
      <trkpt lat="43.58222" lon="6.95848">
        <ele>204.8</ele>
        <time>2025-07-15T20:33:36Z</time>
      </trkpt>
      <trkpt lat="43.58202" lon="6.95859">
        <ele>203.6</ele>
        <time>2025-07-15T20:33:38Z</time>
      </trkpt>
      <trkpt lat="43.58179" lon="6.95869">
        <ele>201.4</ele>
        <time>2025-07-15T20:33:40Z</time>
      </trkpt>
      <trkpt lat="43.58169" lon="6.95872">
        <ele>200</ele>
        <time>2025-07-15T20:33:41Z</time>
      </trkpt>
      <trkpt lat="43.58159" lon="6.95877">
        <ele>199.6</ele>
        <time>2025-07-15T20:33:42Z</time>
      </trkpt>
      <trkpt lat="43.58152" lon="6.9588">
        <ele>198.4</ele>
        <time>2025-07-15T20:33:43Z</time>
      </trkpt>
      <trkpt lat="43.58134" lon="6.95886">
        <ele>196.2</ele>
        <time>2025-07-15T20:33:45Z</time>
      </trkpt>
      <trkpt lat="43.58119" lon="6.95894">
        <ele>194.6</ele>
        <time>2025-07-15T20:33:47Z</time>
      </trkpt>
      <trkpt lat="43.58113" lon="6.95896">
        <ele>193.4</ele>
        <time>2025-07-15T20:33:48Z</time>
      </trkpt>
      <trkpt lat="43.58107" lon="6.95899">
        <ele>192.8</ele>
        <time>2025-07-15T20:33:49Z</time>
      </trkpt>
      <trkpt lat="43.581" lon="6.95901">
        <ele>191.8</ele>
        <time>2025-07-15T20:33:50Z</time>
      </trkpt>
      <trkpt lat="43.58093" lon="6.95904">
        <ele>191.4</ele>
        <time>2025-07-15T20:33:51Z</time>
      </trkpt>
      <trkpt lat="43.58088" lon="6.95909">
        <ele>190.2</ele>
        <time>2025-07-15T20:33:52Z</time>
      </trkpt>
      <trkpt lat="43.58083" lon="6.95914">
        <ele>189.6</ele>
        <time>2025-07-15T20:33:53Z</time>
      </trkpt>
      <trkpt lat="43.58076" lon="6.95921">
        <ele>188.6</ele>
        <time>2025-07-15T20:33:54Z</time>
      </trkpt>
      <trkpt lat="43.58061" lon="6.95936">
        <ele>187.2</ele>
        <time>2025-07-15T20:33:56Z</time>
      </trkpt>
      <trkpt lat="43.58052" lon="6.95944">
        <ele>186.4</ele>
        <time>2025-07-15T20:33:57Z</time>
      </trkpt>
      <trkpt lat="43.58046" lon="6.9595">
        <ele>186</ele>
        <time>2025-07-15T20:33:58Z</time>
      </trkpt>
      <trkpt lat="43.5803" lon="6.95966">
        <ele>184.6</ele>
        <time>2025-07-15T20:34:00Z</time>
      </trkpt>
      <trkpt lat="43.58015" lon="6.95979">
        <ele>183</ele>
        <time>2025-07-15T20:34:02Z</time>
      </trkpt>
      <trkpt lat="43.57995" lon="6.95998">
        <ele>181.8</ele>
        <time>2025-07-15T20:34:05Z</time>
      </trkpt>
      <trkpt lat="43.57979" lon="6.96009">
        <ele>180.2</ele>
        <time>2025-07-15T20:34:07Z</time>
      </trkpt>
      <trkpt lat="43.57973" lon="6.9601">
        <ele>179.8</ele>
        <time>2025-07-15T20:34:08Z</time>
      </trkpt>
      <trkpt lat="43.57966" lon="6.96008">
        <ele>178.8</ele>
        <time>2025-07-15T20:34:09Z</time>
      </trkpt>
      <trkpt lat="43.57952" lon="6.95996">
        <ele>177.2</ele>
        <time>2025-07-15T20:34:11Z</time>
      </trkpt>
      <trkpt lat="43.57935" lon="6.95977">
        <ele>176</ele>
        <time>2025-07-15T20:34:14Z</time>
      </trkpt>
      <trkpt lat="43.57921" lon="6.95964">
        <ele>175.4</ele>
        <time>2025-07-15T20:34:16Z</time>
      </trkpt>
      <trkpt lat="43.57913" lon="6.95959">
        <ele>175.4</ele>
        <time>2025-07-15T20:34:17Z</time>
      </trkpt>
      <trkpt lat="43.57907" lon="6.95957">
        <ele>175</ele>
        <time>2025-07-15T20:34:18Z</time>
      </trkpt>
      <trkpt lat="43.57889" lon="6.95953">
        <ele>174.8</ele>
        <time>2025-07-15T20:34:20Z</time>
      </trkpt>
      <trkpt lat="43.57865" lon="6.95955">
        <ele>173.8</ele>
        <time>2025-07-15T20:34:23Z</time>
      </trkpt>
      <trkpt lat="43.57846" lon="6.95958">
        <ele>173.4</ele>
        <time>2025-07-15T20:34:25Z</time>
      </trkpt>
      <trkpt lat="43.57829" lon="6.9596">
        <ele>172.8</ele>
        <time>2025-07-15T20:34:27Z</time>
      </trkpt>
      <trkpt lat="43.5779" lon="6.95961">
        <ele>171.8</ele>
        <time>2025-07-15T20:34:32Z</time>
      </trkpt>
      <trkpt lat="43.57753" lon="6.95961">
        <ele>172</ele>
        <time>2025-07-15T20:34:38Z</time>
      </trkpt>
      <trkpt lat="43.57722" lon="6.95963">
        <ele>172.4</ele>
        <time>2025-07-15T20:34:44Z</time>
      </trkpt>
      <trkpt lat="43.57692" lon="6.95975">
        <ele>173</ele>
        <time>2025-07-15T20:34:50Z</time>
      </trkpt>
      <trkpt lat="43.57654" lon="6.9599">
        <ele>173.6</ele>
        <time>2025-07-15T20:34:57Z</time>
      </trkpt>
      <trkpt lat="43.5765" lon="6.95992">
        <ele>173.8</ele>
        <time>2025-07-15T20:34:58Z</time>
      </trkpt>
      <trkpt lat="43.57639" lon="6.95997">
        <ele>174</ele>
        <time>2025-07-15T20:35:00Z</time>
      </trkpt>
      <trkpt lat="43.57605" lon="6.9601">
        <ele>174.6</ele>
        <time>2025-07-15T20:35:06Z</time>
      </trkpt>
      <trkpt lat="43.57587" lon="6.96015">
        <ele>175.4</ele>
        <time>2025-07-15T20:35:09Z</time>
      </trkpt>
      <trkpt lat="43.57544" lon="6.96025">
        <ele>175.8</ele>
        <time>2025-07-15T20:35:16Z</time>
      </trkpt>
      <trkpt lat="43.5752" lon="6.96029">
        <ele>175.4</ele>
        <time>2025-07-15T20:35:20Z</time>
      </trkpt>
      <trkpt lat="43.57508" lon="6.96026">
        <ele>175.2</ele>
        <time>2025-07-15T20:35:22Z</time>
      </trkpt>
      <trkpt lat="43.57479" lon="6.96013">
        <ele>175.2</ele>
        <time>2025-07-15T20:35:27Z</time>
      </trkpt>
      <trkpt lat="43.57469" lon="6.96005">
        <ele>175</ele>
        <time>2025-07-15T20:35:29Z</time>
      </trkpt>
      <trkpt lat="43.57442" lon="6.95978">
        <ele>175.2</ele>
        <time>2025-07-15T20:35:35Z</time>
      </trkpt>
      <trkpt lat="43.57419" lon="6.95958">
        <ele>176.6</ele>
        <time>2025-07-15T20:35:41Z</time>
      </trkpt>
      <trkpt lat="43.57389" lon="6.95939">
        <ele>177.8</ele>
        <time>2025-07-15T20:35:48Z</time>
      </trkpt>
      <trkpt lat="43.57384" lon="6.95935">
        <ele>177.8</ele>
        <time>2025-07-15T20:35:49Z</time>
      </trkpt>
      <trkpt lat="43.57348" lon="6.9591">
        <ele>177.6</ele>
        <time>2025-07-15T20:35:56Z</time>
      </trkpt>
      <trkpt lat="43.57313" lon="6.95883">
        <ele>176.6</ele>
        <time>2025-07-15T20:36:02Z</time>
      </trkpt>
      <trkpt lat="43.573" lon="6.95873">
        <ele>175.8</ele>
        <time>2025-07-15T20:36:04Z</time>
      </trkpt>
      <trkpt lat="43.57294" lon="6.9587">
        <ele>175.4</ele>
        <time>2025-07-15T20:36:05Z</time>
      </trkpt>
      <trkpt lat="43.57288" lon="6.95865">
        <ele>174.8</ele>
        <time>2025-07-15T20:36:06Z</time>
      </trkpt>
      <trkpt lat="43.57276" lon="6.95857">
        <ele>174</ele>
        <time>2025-07-15T20:36:08Z</time>
      </trkpt>
      <trkpt lat="43.57263" lon="6.95854">
        <ele>173</ele>
        <time>2025-07-15T20:36:10Z</time>
      </trkpt>
      <trkpt lat="43.57256" lon="6.95855">
        <ele>172.6</ele>
        <time>2025-07-15T20:36:11Z</time>
      </trkpt>
      <trkpt lat="43.57249" lon="6.95856">
        <ele>172.6</ele>
        <time>2025-07-15T20:36:12Z</time>
      </trkpt>
      <trkpt lat="43.57238" lon="6.95862">
        <ele>172.4</ele>
        <time>2025-07-15T20:36:14Z</time>
      </trkpt>
      <trkpt lat="43.57218" lon="6.95881">
        <ele>172</ele>
        <time>2025-07-15T20:36:18Z</time>
      </trkpt>
      <trkpt lat="43.57214" lon="6.95886">
        <ele>172</ele>
        <time>2025-07-15T20:36:19Z</time>
      </trkpt>
      <trkpt lat="43.57201" lon="6.95899">
        <ele>171.6</ele>
        <time>2025-07-15T20:36:22Z</time>
      </trkpt>
      <trkpt lat="43.57197" lon="6.95903">
        <ele>171.4</ele>
        <time>2025-07-15T20:36:23Z</time>
      </trkpt>
      <trkpt lat="43.57187" lon="6.95908">
        <ele>171.2</ele>
        <time>2025-07-15T20:36:25Z</time>
      </trkpt>
      <trkpt lat="43.57167" lon="6.95913">
        <ele>170.6</ele>
        <time>2025-07-15T20:36:29Z</time>
      </trkpt>
      <trkpt lat="43.57157" lon="6.95912">
        <ele>170.4</ele>
        <time>2025-07-15T20:36:31Z</time>
      </trkpt>
      <trkpt lat="43.57149" lon="6.9592">
        <ele>170.2</ele>
        <time>2025-07-15T20:36:33Z</time>
      </trkpt>
      <trkpt lat="43.57146" lon="6.95926">
        <ele>170</ele>
        <time>2025-07-15T20:36:34Z</time>
      </trkpt>
      <trkpt lat="43.57145" lon="6.95931">
        <ele>170</ele>
        <time>2025-07-15T20:36:35Z</time>
      </trkpt>
      <trkpt lat="43.57142" lon="6.95948">
        <ele>169.6</ele>
        <time>2025-07-15T20:36:38Z</time>
      </trkpt>
      <trkpt lat="43.57139" lon="6.95953">
        <ele>169.4</ele>
        <time>2025-07-15T20:36:39Z</time>
      </trkpt>
      <trkpt lat="43.57135" lon="6.95958">
        <ele>169.4</ele>
        <time>2025-07-15T20:36:40Z</time>
      </trkpt>
      <trkpt lat="43.57127" lon="6.95966">
        <ele>169.2</ele>
        <time>2025-07-15T20:36:42Z</time>
      </trkpt>
      <trkpt lat="43.57093" lon="6.9599">
        <ele>169</ele>
        <time>2025-07-15T20:36:49Z</time>
      </trkpt>
      <trkpt lat="43.57043" lon="6.96018">
        <ele>169</ele>
        <time>2025-07-15T20:36:59Z</time>
      </trkpt>
      <trkpt lat="43.57024" lon="6.96028">
        <ele>168.6</ele>
        <time>2025-07-15T20:37:02Z</time>
      </trkpt>
      <trkpt lat="43.57011" lon="6.96036">
        <ele>168.4</ele>
        <time>2025-07-15T20:37:04Z</time>
      </trkpt>
      <trkpt lat="43.56985" lon="6.96053">
        <ele>167.4</ele>
        <time>2025-07-15T20:37:08Z</time>
      </trkpt>
      <trkpt lat="43.56965" lon="6.96066">
        <ele>166.6</ele>
        <time>2025-07-15T20:37:11Z</time>
      </trkpt>
      <trkpt lat="43.56958" lon="6.96071">
        <ele>166.2</ele>
        <time>2025-07-15T20:37:12Z</time>
      </trkpt>
      <trkpt lat="43.56936" lon="6.96085">
        <ele>164.8</ele>
        <time>2025-07-15T20:37:15Z</time>
      </trkpt>
      <trkpt lat="43.56929" lon="6.96091">
        <ele>164.8</ele>
        <time>2025-07-15T20:37:16Z</time>
      </trkpt>
      <trkpt lat="43.56913" lon="6.96101">
        <ele>163.8</ele>
        <time>2025-07-15T20:37:18Z</time>
      </trkpt>
      <trkpt lat="43.56892" lon="6.96118">
        <ele>162.4</ele>
        <time>2025-07-15T20:37:21Z</time>
      </trkpt>
      <trkpt lat="43.56879" lon="6.96128">
        <ele>161.6</ele>
        <time>2025-07-15T20:37:23Z</time>
      </trkpt>
      <trkpt lat="43.56873" lon="6.96134">
        <ele>161.2</ele>
        <time>2025-07-15T20:37:24Z</time>
      </trkpt>
      <trkpt lat="43.56848" lon="6.96156">
        <ele>160</ele>
        <time>2025-07-15T20:37:28Z</time>
      </trkpt>
      <trkpt lat="43.56835" lon="6.96166">
        <ele>159.4</ele>
        <time>2025-07-15T20:37:30Z</time>
      </trkpt>
      <trkpt lat="43.56818" lon="6.96183">
        <ele>158.8</ele>
        <time>2025-07-15T20:37:33Z</time>
      </trkpt>
      <trkpt lat="43.56807" lon="6.96193">
        <ele>158.4</ele>
        <time>2025-07-15T20:37:35Z</time>
      </trkpt>
      <trkpt lat="43.56801" lon="6.96198">
        <ele>158</ele>
        <time>2025-07-15T20:37:36Z</time>
      </trkpt>
      <trkpt lat="43.56795" lon="6.96204">
        <ele>157.8</ele>
        <time>2025-07-15T20:37:37Z</time>
      </trkpt>
      <trkpt lat="43.56791" lon="6.96212">
        <ele>157.2</ele>
        <time>2025-07-15T20:37:38Z</time>
      </trkpt>
      <trkpt lat="43.56786" lon="6.96221">
        <ele>157</ele>
        <time>2025-07-15T20:37:39Z</time>
      </trkpt>
      <trkpt lat="43.56779" lon="6.9624">
        <ele>156</ele>
        <time>2025-07-15T20:37:41Z</time>
      </trkpt>
      <trkpt lat="43.56772" lon="6.96259">
        <ele>154.8</ele>
        <time>2025-07-15T20:37:43Z</time>
      </trkpt>
      <trkpt lat="43.56768" lon="6.96269">
        <ele>154.4</ele>
        <time>2025-07-15T20:37:44Z</time>
      </trkpt>
      <trkpt lat="43.56756" lon="6.96297">
        <ele>153.6</ele>
        <time>2025-07-15T20:37:47Z</time>
      </trkpt>
      <trkpt lat="43.56742" lon="6.96326">
        <ele>153</ele>
        <time>2025-07-15T20:37:50Z</time>
      </trkpt>
      <trkpt lat="43.56737" lon="6.96335">
        <ele>152.8</ele>
        <time>2025-07-15T20:37:51Z</time>
      </trkpt>
      <trkpt lat="43.56731" lon="6.96344">
        <ele>152.4</ele>
        <time>2025-07-15T20:37:52Z</time>
      </trkpt>
      <trkpt lat="43.56705" lon="6.96374">
        <ele>151.4</ele>
        <time>2025-07-15T20:37:56Z</time>
      </trkpt>
      <trkpt lat="43.56686" lon="6.96397">
        <ele>150.2</ele>
        <time>2025-07-15T20:37:59Z</time>
      </trkpt>
      <trkpt lat="43.56666" lon="6.96419">
        <ele>149</ele>
        <time>2025-07-15T20:38:03Z</time>
      </trkpt>
      <trkpt lat="43.56631" lon="6.96452">
        <ele>148</ele>
        <time>2025-07-15T20:38:07Z</time>
      </trkpt>
      <trkpt lat="43.56624" lon="6.96457">
        <ele>147.6</ele>
        <time>2025-07-15T20:38:08Z</time>
      </trkpt>
      <trkpt lat="43.56616" lon="6.9646">
        <ele>147.2</ele>
        <time>2025-07-15T20:38:09Z</time>
      </trkpt>
      <trkpt lat="43.56609" lon="6.96463">
        <ele>147</ele>
        <time>2025-07-15T20:38:10Z</time>
      </trkpt>
      <trkpt lat="43.5657" lon="6.96474">
        <ele>146</ele>
        <time>2025-07-15T20:38:15Z</time>
      </trkpt>
      <trkpt lat="43.56562" lon="6.96476">
        <ele>145.8</ele>
        <time>2025-07-15T20:38:16Z</time>
      </trkpt>
      <trkpt lat="43.56508" lon="6.9649">
        <ele>145.2</ele>
        <time>2025-07-15T20:38:23Z</time>
      </trkpt>
      <trkpt lat="43.56493" lon="6.96494">
        <ele>145</ele>
        <time>2025-07-15T20:38:25Z</time>
      </trkpt>
      <trkpt lat="43.56463" lon="6.96503">
        <ele>144.8</ele>
        <time>2025-07-15T20:38:29Z</time>
      </trkpt>
      <trkpt lat="43.56443" lon="6.9651">
        <ele>144.6</ele>
        <time>2025-07-15T20:38:32Z</time>
      </trkpt>
      <trkpt lat="43.56404" lon="6.96523">
        <ele>144</ele>
        <time>2025-07-15T20:38:38Z</time>
      </trkpt>
      <trkpt lat="43.56374" lon="6.96537">
        <ele>143.8</ele>
        <time>2025-07-15T20:38:43Z</time>
      </trkpt>
      <trkpt lat="43.56354" lon="6.96544">
        <ele>143.6</ele>
        <time>2025-07-15T20:38:46Z</time>
      </trkpt>
      <trkpt lat="43.56309" lon="6.96566">
        <ele>143.6</ele>
        <time>2025-07-15T20:38:53Z</time>
      </trkpt>
      <trkpt lat="43.56264" lon="6.96599">
        <ele>143.4</ele>
        <time>2025-07-15T20:39:01Z</time>
      </trkpt>
      <trkpt lat="43.56218" lon="6.96636">
        <ele>143.2</ele>
        <time>2025-07-15T20:39:09Z</time>
      </trkpt>
      <trkpt lat="43.56206" lon="6.96646">
        <ele>142.8</ele>
        <time>2025-07-15T20:39:11Z</time>
      </trkpt>
      <trkpt lat="43.56164" lon="6.9668">
        <ele>142.4</ele>
        <time>2025-07-15T20:39:18Z</time>
      </trkpt>
      <trkpt lat="43.56128" lon="6.9671">
        <ele>141.8</ele>
        <time>2025-07-15T20:39:24Z</time>
      </trkpt>
      <trkpt lat="43.56104" lon="6.9673">
        <ele>141.4</ele>
        <time>2025-07-15T20:39:28Z</time>
      </trkpt>
      <trkpt lat="43.56063" lon="6.96762">
        <ele>141.2</ele>
        <time>2025-07-15T20:39:35Z</time>
      </trkpt>
      <trkpt lat="43.56033" lon="6.96783">
        <ele>141.4</ele>
        <time>2025-07-15T20:39:40Z</time>
      </trkpt>
      <trkpt lat="43.55982" lon="6.96805">
        <ele>142</ele>
        <time>2025-07-15T20:39:48Z</time>
      </trkpt>
      <trkpt lat="43.55938" lon="6.96813">
        <ele>142</ele>
        <time>2025-07-15T20:39:55Z</time>
      </trkpt>
      <trkpt lat="43.5588" lon="6.96825">
        <ele>141</ele>
        <time>2025-07-15T20:40:04Z</time>
      </trkpt>
      <trkpt lat="43.55842" lon="6.96831">
        <ele>139.8</ele>
        <time>2025-07-15T20:40:10Z</time>
      </trkpt>
      <trkpt lat="43.55823" lon="6.96835">
        <ele>139.6</ele>
        <time>2025-07-15T20:40:13Z</time>
      </trkpt>
      <trkpt lat="43.55816" lon="6.96836">
        <ele>139.6</ele>
        <time>2025-07-15T20:40:14Z</time>
      </trkpt>
      <trkpt lat="43.55799" lon="6.96838">
        <ele>139.4</ele>
        <time>2025-07-15T20:40:17Z</time>
      </trkpt>
      <trkpt lat="43.55768" lon="6.96844">
        <ele>139.2</ele>
        <time>2025-07-15T20:40:22Z</time>
      </trkpt>
      <trkpt lat="43.55733" lon="6.96849">
        <ele>139.8</ele>
        <time>2025-07-15T20:40:28Z</time>
      </trkpt>
      <trkpt lat="43.55726" lon="6.96848">
        <ele>139.8</ele>
        <time>2025-07-15T20:40:29Z</time>
      </trkpt>
      <trkpt lat="43.5572" lon="6.96845">
        <ele>139.8</ele>
        <time>2025-07-15T20:40:30Z</time>
      </trkpt>
      <trkpt lat="43.55701" lon="6.96844">
        <ele>140</ele>
        <time>2025-07-15T20:40:33Z</time>
      </trkpt>
      <trkpt lat="43.55675" lon="6.96832">
        <ele>140.2</ele>
        <time>2025-07-15T20:40:37Z</time>
      </trkpt>
      <trkpt lat="43.55628" lon="6.96798">
        <ele>140.2</ele>
        <time>2025-07-15T20:40:45Z</time>
      </trkpt>
      <trkpt lat="43.5558" lon="6.96755">
        <ele>139.6</ele>
        <time>2025-07-15T20:40:53Z</time>
      </trkpt>
      <trkpt lat="43.55574" lon="6.9675">
        <ele>139.4</ele>
        <time>2025-07-15T20:40:54Z</time>
      </trkpt>
      <trkpt lat="43.55561" lon="6.96738">
        <ele>139</ele>
        <time>2025-07-15T20:40:56Z</time>
      </trkpt>
      <trkpt lat="43.55523" lon="6.96703">
        <ele>137.8</ele>
        <time>2025-07-15T20:41:02Z</time>
      </trkpt>
      <trkpt lat="43.55511" lon="6.96692">
        <ele>137.4</ele>
        <time>2025-07-15T20:41:04Z</time>
      </trkpt>
      <trkpt lat="43.55494" lon="6.96677">
        <ele>136.8</ele>
        <time>2025-07-15T20:41:07Z</time>
      </trkpt>
      <trkpt lat="43.55478" lon="6.96662">
        <ele>136.2</ele>
        <time>2025-07-15T20:41:10Z</time>
      </trkpt>
      <trkpt lat="43.5547" lon="6.96654">
        <ele>136</ele>
        <time>2025-07-15T20:41:12Z</time>
      </trkpt>
      <trkpt lat="43.55465" lon="6.96645">
        <ele>135.8</ele>
        <time>2025-07-15T20:41:14Z</time>
      </trkpt>
      <trkpt lat="43.55453" lon="6.96629">
        <ele>135.2</ele>
        <time>2025-07-15T20:41:19Z</time>
      </trkpt>
      <trkpt lat="43.55442" lon="6.96616">
        <ele>135</ele>
        <time>2025-07-15T20:41:24Z</time>
      </trkpt>
      <trkpt lat="43.55438" lon="6.96614">
        <ele>135</ele>
        <time>2025-07-15T20:41:28Z</time>
      </trkpt>
      <trkpt lat="43.55437" lon="6.96608">
        <ele>135</ele>
        <time>2025-07-15T20:41:33Z</time>
      </trkpt>
      <trkpt lat="43.55434" lon="6.96602">
        <ele>135</ele>
        <time>2025-07-15T20:41:35Z</time>
      </trkpt>
      <trkpt lat="43.55426" lon="6.96584">
        <ele>135</ele>
        <time>2025-07-15T20:41:39Z</time>
      </trkpt>
      <trkpt lat="43.55422" lon="6.96571">
        <ele>135.2</ele>
        <time>2025-07-15T20:41:41Z</time>
      </trkpt>
      <trkpt lat="43.55421" lon="6.96558">
        <ele>135.2</ele>
        <time>2025-07-15T20:41:43Z</time>
      </trkpt>
      <trkpt lat="43.55415" lon="6.96497">
        <ele>135.2</ele>
        <time>2025-07-15T20:41:51Z</time>
      </trkpt>
      <trkpt lat="43.55411" lon="6.96453">
        <ele>135.2</ele>
        <time>2025-07-15T20:41:57Z</time>
      </trkpt>
      <trkpt lat="43.55413" lon="6.96432">
        <ele>135.4</ele>
        <time>2025-07-15T20:42:00Z</time>
      </trkpt>
      <trkpt lat="43.55414" lon="6.96425">
        <ele>135.4</ele>
        <time>2025-07-15T20:42:01Z</time>
      </trkpt>
      <trkpt lat="43.55413" lon="6.96419">
        <ele>135.4</ele>
        <time>2025-07-15T20:42:02Z</time>
      </trkpt>
      <trkpt lat="43.55406" lon="6.96409">
        <ele>135.6</ele>
        <time>2025-07-15T20:42:04Z</time>
      </trkpt>
      <trkpt lat="43.55393" lon="6.964">
        <ele>135.8</ele>
        <time>2025-07-15T20:42:07Z</time>
      </trkpt>
      <trkpt lat="43.55381" lon="6.96383">
        <ele>135.8</ele>
        <time>2025-07-15T20:42:10Z</time>
      </trkpt>
      <trkpt lat="43.55355" lon="6.96356">
        <ele>135.8</ele>
        <time>2025-07-15T20:42:16Z</time>
      </trkpt>
      <trkpt lat="43.55311" lon="6.96322">
        <ele>135.6</ele>
        <time>2025-07-15T20:42:25Z</time>
      </trkpt>
      <trkpt lat="43.55293" lon="6.96305">
        <ele>135.6</ele>
        <time>2025-07-15T20:42:29Z</time>
      </trkpt>
      <trkpt lat="43.55279" lon="6.96291">
        <ele>135.6</ele>
        <time>2025-07-15T20:42:32Z</time>
      </trkpt>
      <trkpt lat="43.55232" lon="6.96251">
        <ele>136</ele>
        <time>2025-07-15T20:42:42Z</time>
      </trkpt>
      <trkpt lat="43.55197" lon="6.96228">
        <ele>136</ele>
        <time>2025-07-15T20:42:49Z</time>
      </trkpt>
      <trkpt lat="43.5515" lon="6.9621">
        <ele>136</ele>
        <time>2025-07-15T20:42:58Z</time>
      </trkpt>
      <trkpt lat="43.55099" lon="6.96201">
        <ele>136</ele>
        <time>2025-07-15T20:43:07Z</time>
      </trkpt>
      <trkpt lat="43.55061" lon="6.96201">
        <ele>135.6</ele>
        <time>2025-07-15T20:43:14Z</time>
      </trkpt>
      <trkpt lat="43.55055" lon="6.96202">
        <ele>135.6</ele>
        <time>2025-07-15T20:43:15Z</time>
      </trkpt>
      <trkpt lat="43.55029" lon="6.96208">
        <ele>135.6</ele>
        <time>2025-07-15T20:43:21Z</time>
      </trkpt>
      <trkpt lat="43.5502" lon="6.96205">
        <ele>135.6</ele>
        <time>2025-07-15T20:43:23Z</time>
      </trkpt>
      <trkpt lat="43.55011" lon="6.96207">
        <ele>135.4</ele>
        <time>2025-07-15T20:43:25Z</time>
      </trkpt>
      <trkpt lat="43.54997" lon="6.96214">
        <ele>135.4</ele>
        <time>2025-07-15T20:43:28Z</time>
      </trkpt>
      <trkpt lat="43.54986" lon="6.96214">
        <ele>135.4</ele>
        <time>2025-07-15T20:43:30Z</time>
      </trkpt>
      <trkpt lat="43.54965" lon="6.9621">
        <ele>135.4</ele>
        <time>2025-07-15T20:43:34Z</time>
      </trkpt>
      <trkpt lat="43.54949" lon="6.96211">
        <ele>135.4</ele>
        <time>2025-07-15T20:43:37Z</time>
      </trkpt>
      <trkpt lat="43.54944" lon="6.96211">
        <ele>135.4</ele>
        <time>2025-07-15T20:43:38Z</time>
      </trkpt>
      <trkpt lat="43.54906" lon="6.96219">
        <ele>135.2</ele>
        <time>2025-07-15T20:43:45Z</time>
      </trkpt>
      <trkpt lat="43.54854" lon="6.96224">
        <ele>135.4</ele>
        <time>2025-07-15T20:43:54Z</time>
      </trkpt>
      <trkpt lat="43.54795" lon="6.96229">
        <ele>135.6</ele>
        <time>2025-07-15T20:44:04Z</time>
      </trkpt>
      <trkpt lat="43.54778" lon="6.9623">
        <ele>135.4</ele>
        <time>2025-07-15T20:44:07Z</time>
      </trkpt>
      <trkpt lat="43.54725" lon="6.96233">
        <ele>135.4</ele>
        <time>2025-07-15T20:44:16Z</time>
      </trkpt>
      <trkpt lat="43.54667" lon="6.96236">
        <ele>135.4</ele>
        <time>2025-07-15T20:44:26Z</time>
      </trkpt>
      <trkpt lat="43.54655" lon="6.96235">
        <ele>135.6</ele>
        <time>2025-07-15T20:44:28Z</time>
      </trkpt>
      <trkpt lat="43.54649" lon="6.96234">
        <ele>135.6</ele>
        <time>2025-07-15T20:44:29Z</time>
      </trkpt>
      <trkpt lat="43.54626" lon="6.96225">
        <ele>135.6</ele>
        <time>2025-07-15T20:44:33Z</time>
      </trkpt>
      <trkpt lat="43.54569" lon="6.96198">
        <ele>135.6</ele>
        <time>2025-07-15T20:44:43Z</time>
      </trkpt>
      <trkpt lat="43.54522" lon="6.96163">
        <ele>135.4</ele>
        <time>2025-07-15T20:44:52Z</time>
      </trkpt>
      <trkpt lat="43.54516" lon="6.96158">
        <ele>135.4</ele>
        <time>2025-07-15T20:44:53Z</time>
      </trkpt>
      <trkpt lat="43.54472" lon="6.96111">
        <ele>135.4</ele>
        <time>2025-07-15T20:45:02Z</time>
      </trkpt>
      <trkpt lat="43.54454" lon="6.96092">
        <ele>135.4</ele>
        <time>2025-07-15T20:45:06Z</time>
      </trkpt>
      <trkpt lat="43.54412" lon="6.96043">
        <ele>135</ele>
        <time>2025-07-15T20:45:15Z</time>
      </trkpt>
      <trkpt lat="43.54407" lon="6.96038">
        <ele>135</ele>
        <time>2025-07-15T20:45:16Z</time>
      </trkpt>
      <trkpt lat="43.54389" lon="6.96017">
        <ele>134.8</ele>
        <time>2025-07-15T20:45:20Z</time>
      </trkpt>
      <trkpt lat="43.5437" lon="6.95999">
        <ele>134.8</ele>
        <time>2025-07-15T20:45:24Z</time>
      </trkpt>
      <trkpt lat="43.54355" lon="6.95987">
        <ele>134.6</ele>
        <time>2025-07-15T20:45:27Z</time>
      </trkpt>
      <trkpt lat="43.54344" lon="6.95981">
        <ele>134.6</ele>
        <time>2025-07-15T20:45:29Z</time>
      </trkpt>
      <trkpt lat="43.54339" lon="6.95977">
        <ele>134.6</ele>
        <time>2025-07-15T20:45:30Z</time>
      </trkpt>
      <trkpt lat="43.54333" lon="6.95974">
        <ele>134.6</ele>
        <time>2025-07-15T20:45:31Z</time>
      </trkpt>
      <trkpt lat="43.54322" lon="6.95974">
        <ele>134.4</ele>
        <time>2025-07-15T20:45:33Z</time>
      </trkpt>
      <trkpt lat="43.54314" lon="6.95982">
        <ele>134.2</ele>
        <time>2025-07-15T20:45:35Z</time>
      </trkpt>
      <trkpt lat="43.54312" lon="6.95989">
        <ele>134</ele>
        <time>2025-07-15T20:45:36Z</time>
      </trkpt>
      <trkpt lat="43.54312" lon="6.95997">
        <ele>134</ele>
        <time>2025-07-15T20:45:37Z</time>
      </trkpt>
      <trkpt lat="43.54316" lon="6.96012">
        <ele>134</ele>
        <time>2025-07-15T20:45:39Z</time>
      </trkpt>
      <trkpt lat="43.54323" lon="6.96027">
        <ele>133.8</ele>
        <time>2025-07-15T20:45:41Z</time>
      </trkpt>
      <trkpt lat="43.54335" lon="6.96054">
        <ele>133.2</ele>
        <time>2025-07-15T20:45:45Z</time>
      </trkpt>
      <trkpt lat="43.54345" lon="6.96073">
        <ele>132.6</ele>
        <time>2025-07-15T20:45:50Z</time>
      </trkpt>
      <trkpt lat="43.54347" lon="6.96075">
        <ele>132.6</ele>
        <time>2025-07-15T20:45:51Z</time>
      </trkpt>
      <trkpt lat="43.54351" lon="6.96073">
        <ele>132.4</ele>
        <time>2025-07-15T20:45:53Z</time>
      </trkpt>
      <trkpt lat="43.54347" lon="6.96059">
        <ele>132.6</ele>
        <time>2025-07-15T20:45:57Z</time>
      </trkpt>
      <trkpt lat="43.54337" lon="6.96037">
        <ele>132.8</ele>
        <time>2025-07-15T20:46:01Z</time>
      </trkpt>
      <trkpt lat="43.54336" lon="6.9603">
        <ele>133</ele>
        <time>2025-07-15T20:46:02Z</time>
      </trkpt>
      <trkpt lat="43.54337" lon="6.96023">
        <ele>133</ele>
        <time>2025-07-15T20:46:03Z</time>
      </trkpt>
      <trkpt lat="43.54342" lon="6.96002">
        <ele>133.2</ele>
        <time>2025-07-15T20:46:06Z</time>
      </trkpt>
      <trkpt lat="43.54341" lon="6.9599">
        <ele>133.4</ele>
        <time>2025-07-15T20:46:08Z</time>
      </trkpt>
      <trkpt lat="43.54339" lon="6.95984">
        <ele>133.8</ele>
        <time>2025-07-15T20:46:09Z</time>
      </trkpt>
      <trkpt lat="43.54335" lon="6.9598">
        <ele>133.8</ele>
        <time>2025-07-15T20:46:10Z</time>
      </trkpt>
      <trkpt lat="43.5433" lon="6.95977">
        <ele>134</ele>
        <time>2025-07-15T20:46:11Z</time>
      </trkpt>
      <trkpt lat="43.54326" lon="6.95976">
        <ele>134.2</ele>
        <time>2025-07-15T20:46:12Z</time>
      </trkpt>
      <trkpt lat="43.54316" lon="6.95977">
        <ele>134.2</ele>
        <time>2025-07-15T20:46:14Z</time>
      </trkpt>
      <trkpt lat="43.54306" lon="6.95978">
        <ele>134.2</ele>
        <time>2025-07-15T20:46:16Z</time>
      </trkpt>
      <trkpt lat="43.54301" lon="6.95979">
        <ele>134.2</ele>
        <time>2025-07-15T20:46:17Z</time>
      </trkpt>
      <trkpt lat="43.54291" lon="6.95984">
        <ele>134</ele>
        <time>2025-07-15T20:46:19Z</time>
      </trkpt>
      <trkpt lat="43.54286" lon="6.95987">
        <ele>134</ele>
        <time>2025-07-15T20:46:20Z</time>
      </trkpt>
      <trkpt lat="43.54261" lon="6.96012">
        <ele>133.2</ele>
        <time>2025-07-15T20:46:25Z</time>
      </trkpt>
      <trkpt lat="43.54249" lon="6.96023">
        <ele>133</ele>
        <time>2025-07-15T20:46:27Z</time>
      </trkpt>
      <trkpt lat="43.5423" lon="6.96043">
        <ele>131.8</ele>
        <time>2025-07-15T20:46:30Z</time>
      </trkpt>
      <trkpt lat="43.54223" lon="6.96049">
        <ele>131.6</ele>
        <time>2025-07-15T20:46:31Z</time>
      </trkpt>
      <trkpt lat="43.5421" lon="6.96058">
        <ele>131</ele>
        <time>2025-07-15T20:46:33Z</time>
      </trkpt>
      <trkpt lat="43.54205" lon="6.96063">
        <ele>130.6</ele>
        <time>2025-07-15T20:46:34Z</time>
      </trkpt>
      <trkpt lat="43.54199" lon="6.96068">
        <ele>130.4</ele>
        <time>2025-07-15T20:46:35Z</time>
      </trkpt>
      <trkpt lat="43.54183" lon="6.96082">
        <ele>130.4</ele>
        <time>2025-07-15T20:46:39Z</time>
      </trkpt>
      <trkpt lat="43.54167" lon="6.96091">
        <ele>131.8</ele>
        <time>2025-07-15T20:46:44Z</time>
      </trkpt>
      <trkpt lat="43.54158" lon="6.96092">
        <ele>132.6</ele>
        <time>2025-07-15T20:46:47Z</time>
      </trkpt>
      <trkpt lat="43.54155" lon="6.96088">
        <ele>133</ele>
        <time>2025-07-15T20:46:48Z</time>
      </trkpt>
      <trkpt lat="43.54153" lon="6.96084">
        <ele>133.2</ele>
        <time>2025-07-15T20:46:49Z</time>
      </trkpt>
      <trkpt lat="43.54132" lon="6.96049">
        <ele>133.6</ele>
        <time>2025-07-15T20:46:57Z</time>
      </trkpt>
      <trkpt lat="43.54118" lon="6.96027">
        <ele>133.8</ele>
        <time>2025-07-15T20:47:02Z</time>
      </trkpt>
      <trkpt lat="43.5411" lon="6.96015">
        <ele>133.8</ele>
        <time>2025-07-15T20:47:05Z</time>
      </trkpt>
      <trkpt lat="43.54095" lon="6.95988">
        <ele>134.2</ele>
        <time>2025-07-15T20:47:12Z</time>
      </trkpt>
      <trkpt lat="43.54089" lon="6.95979">
        <ele>134.4</ele>
        <time>2025-07-15T20:47:14Z</time>
      </trkpt>
      <trkpt lat="43.54068" lon="6.95943">
        <ele>134.4</ele>
        <time>2025-07-15T20:47:22Z</time>
      </trkpt>
      <trkpt lat="43.54034" lon="6.9589">
        <ele>134.4</ele>
        <time>2025-07-15T20:47:33Z</time>
      </trkpt>
      <trkpt lat="43.54019" lon="6.95867">
        <ele>134.4</ele>
        <time>2025-07-15T20:47:39Z</time>
      </trkpt>
      <trkpt lat="43.54014" lon="6.95862">
        <ele>134.4</ele>
        <time>2025-07-15T20:47:42Z</time>
      </trkpt>
      <trkpt lat="43.54013" lon="6.95863">
        <ele>134.4</ele>
        <time>2025-07-15T20:47:43Z</time>
      </trkpt>
      <trkpt lat="43.5401" lon="6.95866">
        <ele>134.4</ele>
        <time>2025-07-15T20:47:46Z</time>
      </trkpt>
      <trkpt lat="43.54008" lon="6.95865">
        <ele>134.4</ele>
        <time>2025-07-15T20:47:48Z</time>
      </trkpt>
      <trkpt lat="43.54008" lon="6.95864">
        <ele>134.2</ele>
        <time>2025-07-15T20:47:49Z</time>
      </trkpt>
      <trkpt lat="43.54002" lon="6.95866">
        <ele>134.2</ele>
        <time>2025-07-15T20:47:53Z</time>
      </trkpt>
      <trkpt lat="43.53997" lon="6.95867">
        <ele>134</ele>
        <time>2025-07-15T20:47:56Z</time>
      </trkpt>
      <trkpt lat="43.53995" lon="6.95865">
        <ele>134</ele>
        <time>2025-07-15T20:47:58Z</time>
      </trkpt>
      <trkpt lat="43.53992" lon="6.95863">
        <ele>133.8</ele>
        <time>2025-07-15T20:48:03Z</time>
      </trkpt>
      <trkpt lat="43.53992" lon="6.95863">
        <ele>133.8</ele>
        <time>2025-07-15T20:48:04Z</time>
      </trkpt>
      <trkpt lat="43.5399" lon="6.95857">
        <ele>133.4</ele>
        <time>2025-07-15T20:48:15Z</time>
      </trkpt>
      <trkpt lat="43.53987" lon="6.95852">
        <ele>133.4</ele>
        <time>2025-07-15T20:48:17Z</time>
      </trkpt>
      <trkpt lat="43.53981" lon="6.95842">
        <ele>133.2</ele>
        <time>2025-07-15T20:48:21Z</time>
      </trkpt>
      <trkpt lat="43.53975" lon="6.95831">
        <ele>133.2</ele>
        <time>2025-07-15T20:48:25Z</time>
      </trkpt>
      <trkpt lat="43.53961" lon="6.95808">
        <ele>133.2</ele>
        <time>2025-07-15T20:48:36Z</time>
      </trkpt>
      <trkpt lat="43.53959" lon="6.95805">
        <ele>133.2</ele>
        <time>2025-07-15T20:48:40Z</time>
      </trkpt>
      <trkpt lat="43.53957" lon="6.95801">
        <ele>133.4</ele>
        <time>2025-07-15T20:48:42Z</time>
      </trkpt>
      <trkpt lat="43.53948" lon="6.95786">
        <ele>133.6</ele>
        <time>2025-07-15T20:48:47Z</time>
      </trkpt>
      <trkpt lat="43.53938" lon="6.95769">
        <ele>133.6</ele>
        <time>2025-07-15T20:48:53Z</time>
      </trkpt>
      <trkpt lat="43.53929" lon="6.95754">
        <ele>133.4</ele>
        <time>2025-07-15T20:49:00Z</time>
      </trkpt>
      <trkpt lat="43.53929" lon="6.95754">
        <ele>133.4</ele>
        <time>2025-07-15T20:49:02Z</time>
      </trkpt>
      <trkpt lat="43.53927" lon="6.9575">
        <ele>132.6</ele>
        <time>2025-07-15T20:57:47Z</time>
      </trkpt>
      <trkpt lat="43.53923" lon="6.95744">
        <ele>132.6</ele>
        <time>2025-07-15T20:57:50Z</time>
      </trkpt>
      <trkpt lat="43.5391" lon="6.95722">
        <ele>132.6</ele>
        <time>2025-07-15T20:57:58Z</time>
      </trkpt>
      <trkpt lat="43.53897" lon="6.95701">
        <ele>132.2</ele>
        <time>2025-07-15T20:58:08Z</time>
      </trkpt>
      <trkpt lat="43.53896" lon="6.95694">
        <ele>132.2</ele>
        <time>2025-07-15T20:58:14Z</time>
      </trkpt>
      <trkpt lat="43.539" lon="6.95679">
        <ele>132.4</ele>
        <time>2025-07-15T20:58:19Z</time>
      </trkpt>
      <trkpt lat="43.53899" lon="6.95675">
        <ele>132.4</ele>
        <time>2025-07-15T20:58:20Z</time>
      </trkpt>
      <trkpt lat="43.53895" lon="6.95669">
        <ele>132.4</ele>
        <time>2025-07-15T20:58:22Z</time>
      </trkpt>
      <trkpt lat="43.5388" lon="6.95645">
        <ele>132.4</ele>
        <time>2025-07-15T20:58:29Z</time>
      </trkpt>
      <trkpt lat="43.5386" lon="6.95612">
        <ele>132.4</ele>
        <time>2025-07-15T20:58:37Z</time>
      </trkpt>
      <trkpt lat="43.53839" lon="6.95579">
        <ele>132.2</ele>
        <time>2025-07-15T20:58:45Z</time>
      </trkpt>
      <trkpt lat="43.53829" lon="6.95565">
        <ele>132.2</ele>
        <time>2025-07-15T20:58:48Z</time>
      </trkpt>
      <trkpt lat="43.53812" lon="6.95542">
        <ele>132.2</ele>
        <time>2025-07-15T20:58:53Z</time>
      </trkpt>
      <trkpt lat="43.53785" lon="6.95504">
        <ele>132.2</ele>
        <time>2025-07-15T20:59:01Z</time>
      </trkpt>
      <trkpt lat="43.53756" lon="6.95465">
        <ele>132.4</ele>
        <time>2025-07-15T20:59:09Z</time>
      </trkpt>
      <trkpt lat="43.53726" lon="6.95428">
        <ele>132.6</ele>
        <time>2025-07-15T20:59:17Z</time>
      </trkpt>
      <trkpt lat="43.53696" lon="6.95391">
        <ele>132.6</ele>
        <time>2025-07-15T20:59:26Z</time>
      </trkpt>
      <trkpt lat="43.53666" lon="6.95361">
        <ele>132.8</ele>
        <time>2025-07-15T20:59:34Z</time>
      </trkpt>
      <trkpt lat="43.53621" lon="6.95313">
        <ele>132.8</ele>
        <time>2025-07-15T20:59:46Z</time>
      </trkpt>
      <trkpt lat="43.5359" lon="6.95276">
        <ele>133</ele>
        <time>2025-07-15T20:59:55Z</time>
      </trkpt>
      <trkpt lat="43.53552" lon="6.95229">
        <ele>133.2</ele>
        <time>2025-07-15T21:00:06Z</time>
      </trkpt>
      <trkpt lat="43.5351" lon="6.9518">
        <ele>132.8</ele>
        <time>2025-07-15T21:00:17Z</time>
      </trkpt>
      <trkpt lat="43.53468" lon="6.95133">
        <ele>132.8</ele>
        <time>2025-07-15T21:00:28Z</time>
      </trkpt>
      <trkpt lat="43.5343" lon="6.95093">
        <ele>132.8</ele>
        <time>2025-07-15T21:00:38Z</time>
      </trkpt>
      <trkpt lat="43.53397" lon="6.9506">
        <ele>132.6</ele>
        <time>2025-07-15T21:00:46Z</time>
      </trkpt>
      <trkpt lat="43.53361" lon="6.95024">
        <ele>132.6</ele>
        <time>2025-07-15T21:00:55Z</time>
      </trkpt>
      <trkpt lat="43.5333" lon="6.94995">
        <ele>132.4</ele>
        <time>2025-07-15T21:01:03Z</time>
      </trkpt>
      <trkpt lat="43.53291" lon="6.94958">
        <ele>132.6</ele>
        <time>2025-07-15T21:01:13Z</time>
      </trkpt>
      <trkpt lat="43.53265" lon="6.94934">
        <ele>132.6</ele>
        <time>2025-07-15T21:01:20Z</time>
      </trkpt>
      <trkpt lat="43.53224" lon="6.949">
        <ele>132.6</ele>
        <time>2025-07-15T21:01:30Z</time>
      </trkpt>
      <trkpt lat="43.53195" lon="6.94869">
        <ele>132.8</ele>
        <time>2025-07-15T21:01:38Z</time>
      </trkpt>
      <trkpt lat="43.53187" lon="6.94856">
        <ele>133</ele>
        <time>2025-07-15T21:01:41Z</time>
      </trkpt>
      <trkpt lat="43.5318" lon="6.94842">
        <ele>133.2</ele>
        <time>2025-07-15T21:01:44Z</time>
      </trkpt>
      <trkpt lat="43.53166" lon="6.94812">
        <ele>133.8</ele>
        <time>2025-07-15T21:01:51Z</time>
      </trkpt>
      <trkpt lat="43.53153" lon="6.94799">
        <ele>134.2</ele>
        <time>2025-07-15T21:01:55Z</time>
      </trkpt>
      <trkpt lat="43.53146" lon="6.94794">
        <ele>134.4</ele>
        <time>2025-07-15T21:01:57Z</time>
      </trkpt>
      <trkpt lat="43.5311" lon="6.94777">
        <ele>135.2</ele>
        <time>2025-07-15T21:02:06Z</time>
      </trkpt>
      <trkpt lat="43.53102" lon="6.94773">
        <ele>135.4</ele>
        <time>2025-07-15T21:02:08Z</time>
      </trkpt>
      <trkpt lat="43.53076" lon="6.94762">
        <ele>135.6</ele>
        <time>2025-07-15T21:02:14Z</time>
      </trkpt>
      <trkpt lat="43.53068" lon="6.94758">
        <ele>135.6</ele>
        <time>2025-07-15T21:02:16Z</time>
      </trkpt>
      <trkpt lat="43.53015" lon="6.94734">
        <ele>134.4</ele>
        <time>2025-07-15T21:02:27Z</time>
      </trkpt>
      <trkpt lat="43.53" lon="6.94729">
        <ele>134.2</ele>
        <time>2025-07-15T21:02:30Z</time>
      </trkpt>
      <trkpt lat="43.52979" lon="6.94722">
        <ele>134</ele>
        <time>2025-07-15T21:02:35Z</time>
      </trkpt>
      <trkpt lat="43.52951" lon="6.94712">
        <ele>133.4</ele>
        <time>2025-07-15T21:02:42Z</time>
      </trkpt>
      <trkpt lat="43.52925" lon="6.94697">
        <ele>133.4</ele>
        <time>2025-07-15T21:02:49Z</time>
      </trkpt>
      <trkpt lat="43.52917" lon="6.94693">
        <ele>133.4</ele>
        <time>2025-07-15T21:02:51Z</time>
      </trkpt>
      <trkpt lat="43.52894" lon="6.94679">
        <ele>133.4</ele>
        <time>2025-07-15T21:02:57Z</time>
      </trkpt>
      <trkpt lat="43.52856" lon="6.94656">
        <ele>133.2</ele>
        <time>2025-07-15T21:03:05Z</time>
      </trkpt>
      <trkpt lat="43.52851" lon="6.94654">
        <ele>133.2</ele>
        <time>2025-07-15T21:03:06Z</time>
      </trkpt>
      <trkpt lat="43.52833" lon="6.94642">
        <ele>133.2</ele>
        <time>2025-07-15T21:03:10Z</time>
      </trkpt>
      <trkpt lat="43.52819" lon="6.94633">
        <ele>133.4</ele>
        <time>2025-07-15T21:03:13Z</time>
      </trkpt>
      <trkpt lat="43.5281" lon="6.94626">
        <ele>133.2</ele>
        <time>2025-07-15T21:03:15Z</time>
      </trkpt>
      <trkpt lat="43.52773" lon="6.94601">
        <ele>133.2</ele>
        <time>2025-07-15T21:03:24Z</time>
      </trkpt>
      <trkpt lat="43.52752" lon="6.94584">
        <ele>133</ele>
        <time>2025-07-15T21:03:31Z</time>
      </trkpt>
      <trkpt lat="43.52741" lon="6.94576">
        <ele>133.2</ele>
        <time>2025-07-15T21:03:37Z</time>
      </trkpt>
      <trkpt lat="43.5274" lon="6.94574">
        <ele>133.2</ele>
        <time>2025-07-15T21:03:38Z</time>
      </trkpt>
      <trkpt lat="43.5274" lon="6.94571">
        <ele>133.2</ele>
        <time>2025-07-15T21:03:40Z</time>
      </trkpt>
      <trkpt lat="43.5274" lon="6.94568">
        <ele>133.2</ele>
        <time>2025-07-15T21:03:41Z</time>
      </trkpt>
      <trkpt lat="43.52742" lon="6.94546">
        <ele>133</ele>
        <time>2025-07-15T21:03:47Z</time>
      </trkpt>
      <trkpt lat="43.52743" lon="6.94522">
        <ele>132.4</ele>
        <time>2025-07-15T21:03:51Z</time>
      </trkpt>
      <trkpt lat="43.52744" lon="6.94516">
        <ele>132.2</ele>
        <time>2025-07-15T21:03:52Z</time>
      </trkpt>
      <trkpt lat="43.52745" lon="6.9449">
        <ele>131.4</ele>
        <time>2025-07-15T21:03:56Z</time>
      </trkpt>
      <trkpt lat="43.52746" lon="6.94484">
        <ele>131.4</ele>
        <time>2025-07-15T21:03:57Z</time>
      </trkpt>
      <trkpt lat="43.52748" lon="6.94478">
        <ele>131.2</ele>
        <time>2025-07-15T21:03:58Z</time>
      </trkpt>
      <trkpt lat="43.52756" lon="6.94449">
        <ele>131.2</ele>
        <time>2025-07-15T21:04:03Z</time>
      </trkpt>
      <trkpt lat="43.52759" lon="6.94438">
        <ele>131.2</ele>
        <time>2025-07-15T21:04:05Z</time>
      </trkpt>
      <trkpt lat="43.5277" lon="6.94395">
        <ele>131.4</ele>
        <time>2025-07-15T21:04:13Z</time>
      </trkpt>
      <trkpt lat="43.52773" lon="6.94384">
        <ele>131.2</ele>
        <time>2025-07-15T21:04:15Z</time>
      </trkpt>
      <trkpt lat="43.5278" lon="6.94363">
        <ele>131.2</ele>
        <time>2025-07-15T21:04:19Z</time>
      </trkpt>
      <trkpt lat="43.52783" lon="6.94353">
        <ele>131.2</ele>
        <time>2025-07-15T21:04:21Z</time>
      </trkpt>
      <trkpt lat="43.52793" lon="6.94335">
        <ele>131.2</ele>
        <time>2025-07-15T21:04:25Z</time>
      </trkpt>
      <trkpt lat="43.52802" lon="6.94323">
        <ele>131</ele>
        <time>2025-07-15T21:04:28Z</time>
      </trkpt>
      <trkpt lat="43.52814" lon="6.94305">
        <ele>131</ele>
        <time>2025-07-15T21:04:33Z</time>
      </trkpt>
      <trkpt lat="43.52832" lon="6.94275">
        <ele>131</ele>
        <time>2025-07-15T21:04:40Z</time>
      </trkpt>
      <trkpt lat="43.52837" lon="6.94254">
        <ele>131</ele>
        <time>2025-07-15T21:04:44Z</time>
      </trkpt>
      <trkpt lat="43.5284" lon="6.94245">
        <ele>131</ele>
        <time>2025-07-15T21:04:46Z</time>
      </trkpt>
      <trkpt lat="43.52848" lon="6.94233">
        <ele>130.8</ele>
        <time>2025-07-15T21:04:50Z</time>
      </trkpt>
      <trkpt lat="43.52856" lon="6.94224">
        <ele>130.8</ele>
        <time>2025-07-15T21:04:54Z</time>
      </trkpt>
      <trkpt lat="43.52857" lon="6.94221">
        <ele>131</ele>
        <time>2025-07-15T21:04:58Z</time>
      </trkpt>
      <trkpt lat="43.52856" lon="6.9422">
        <ele>131.2</ele>
        <time>2025-07-15T21:04:59Z</time>
      </trkpt>
      <trkpt lat="43.52851" lon="6.94211">
        <ele>132</ele>
        <time>2025-07-15T21:05:06Z</time>
      </trkpt>
      <trkpt lat="43.52843" lon="6.94204">
        <ele>132.4</ele>
        <time>2025-07-15T21:05:14Z</time>
      </trkpt>
      <trkpt lat="43.52841" lon="6.94205">
        <ele>132.2</ele>
        <time>2025-07-15T21:05:16Z</time>
      </trkpt>
      <trkpt lat="43.52841" lon="6.94205">
        <ele>132.2</ele>
        <time>2025-07-15T21:05:18Z</time>
      </trkpt>
      <trkpt lat="43.52836" lon="6.94206">
        <ele>131.4</ele>
        <time>2025-07-15T21:05:26Z</time>
      </trkpt>
      <trkpt lat="43.52833" lon="6.94205">
        <ele>131.4</ele>
        <time>2025-07-15T21:05:27Z</time>
      </trkpt>
      <trkpt lat="43.52824" lon="6.942">
        <ele>131.2</ele>
        <time>2025-07-15T21:05:32Z</time>
      </trkpt>
      <trkpt lat="43.52809" lon="6.94197">
        <ele>131.6</ele>
        <time>2025-07-15T21:05:38Z</time>
      </trkpt>
      <trkpt lat="43.52787" lon="6.94192">
        <ele>131.8</ele>
        <time>2025-07-15T21:05:44Z</time>
      </trkpt>
      <trkpt lat="43.52759" lon="6.94188">
        <ele>131.8</ele>
        <time>2025-07-15T21:05:51Z</time>
      </trkpt>
      <trkpt lat="43.52718" lon="6.94179">
        <ele>131.6</ele>
        <time>2025-07-15T21:06:00Z</time>
      </trkpt>
      <trkpt lat="43.52678" lon="6.9417">
        <ele>131.6</ele>
        <time>2025-07-15T21:06:08Z</time>
      </trkpt>
      <trkpt lat="43.52658" lon="6.94165">
        <ele>131.4</ele>
        <time>2025-07-15T21:06:13Z</time>
      </trkpt>
      <trkpt lat="43.52649" lon="6.94163">
        <ele>131.6</ele>
        <time>2025-07-15T21:06:15Z</time>
      </trkpt>
      <trkpt lat="43.5262" lon="6.94156">
        <ele>131.8</ele>
        <time>2025-07-15T21:06:22Z</time>
      </trkpt>
      <trkpt lat="43.52601" lon="6.94153">
        <ele>131.8</ele>
        <time>2025-07-15T21:06:26Z</time>
      </trkpt>
      <trkpt lat="43.52588" lon="6.94149">
        <ele>131.8</ele>
        <time>2025-07-15T21:06:29Z</time>
      </trkpt>
      <trkpt lat="43.52575" lon="6.94148">
        <ele>131.8</ele>
        <time>2025-07-15T21:06:33Z</time>
      </trkpt>
      <trkpt lat="43.52573" lon="6.94146">
        <ele>131.8</ele>
        <time>2025-07-15T21:06:34Z</time>
      </trkpt>
      <trkpt lat="43.5257" lon="6.94143">
        <ele>131.8</ele>
        <time>2025-07-15T21:06:38Z</time>
      </trkpt>
      <trkpt lat="43.52568" lon="6.94141">
        <ele>131.8</ele>
        <time>2025-07-15T21:06:40Z</time>
      </trkpt>
      <trkpt lat="43.5256" lon="6.94137">
        <ele>131.8</ele>
        <time>2025-07-15T21:06:44Z</time>
      </trkpt>
      <trkpt lat="43.52558" lon="6.94137">
        <ele>131.8</ele>
        <time>2025-07-15T21:06:45Z</time>
      </trkpt>
      <trkpt lat="43.52555" lon="6.94144">
        <ele>131.8</ele>
        <time>2025-07-15T21:06:48Z</time>
      </trkpt>
      <trkpt lat="43.52552" lon="6.94147">
        <ele>131.8</ele>
        <time>2025-07-15T21:06:50Z</time>
      </trkpt>
      <trkpt lat="43.52549" lon="6.94148">
        <ele>131.8</ele>
        <time>2025-07-15T21:06:52Z</time>
      </trkpt>
      <trkpt lat="43.52548" lon="6.94148">
        <ele>131.8</ele>
        <time>2025-07-15T21:06:55Z</time>
      </trkpt>
      <trkpt lat="43.52545" lon="6.94153">
        <ele>131.6</ele>
        <time>2025-07-15T21:07:26Z</time>
      </trkpt>
      <trkpt lat="43.52542" lon="6.9417">
        <ele>131.6</ele>
        <time>2025-07-15T21:07:30Z</time>
      </trkpt>
      <trkpt lat="43.52539" lon="6.94188">
        <ele>131.6</ele>
        <time>2025-07-15T21:07:34Z</time>
      </trkpt>
      <trkpt lat="43.52545" lon="6.94197">
        <ele>131.4</ele>
        <time>2025-07-15T21:07:37Z</time>
      </trkpt>
      <trkpt lat="43.52558" lon="6.94215">
        <ele>131.2</ele>
        <time>2025-07-15T21:07:42Z</time>
      </trkpt>
      <trkpt lat="43.52576" lon="6.94241">
        <ele>131</ele>
        <time>2025-07-15T21:07:49Z</time>
      </trkpt>
      <trkpt lat="43.52577" lon="6.94244">
        <ele>131</ele>
        <time>2025-07-15T21:07:50Z</time>
      </trkpt>
      <trkpt lat="43.52576" lon="6.94251">
        <ele>131</ele>
        <time>2025-07-15T21:07:52Z</time>
      </trkpt>
      <trkpt lat="43.52567" lon="6.94274">
        <ele>131</ele>
        <time>2025-07-15T21:07:57Z</time>
      </trkpt>
      <trkpt lat="43.52552" lon="6.94308">
        <ele>131</ele>
        <time>2025-07-15T21:08:04Z</time>
      </trkpt>
      <trkpt lat="43.52543" lon="6.9433">
        <ele>131.2</ele>
        <time>2025-07-15T21:08:10Z</time>
      </trkpt>
      <trkpt lat="43.52532" lon="6.94355">
        <ele>131.6</ele>
        <time>2025-07-15T21:08:16Z</time>
      </trkpt>
      <trkpt lat="43.52522" lon="6.94376">
        <ele>132</ele>
        <time>2025-07-15T21:08:23Z</time>
      </trkpt>
      <trkpt lat="43.52512" lon="6.94391">
        <ele>132.6</ele>
        <time>2025-07-15T21:08:30Z</time>
      </trkpt>
      <trkpt lat="43.52511" lon="6.94395">
        <ele>132.6</ele>
        <time>2025-07-15T21:08:32Z</time>
      </trkpt>
      <trkpt lat="43.52509" lon="6.94396">
        <ele>132.8</ele>
        <time>2025-07-15T21:08:34Z</time>
      </trkpt>
      <trkpt lat="43.52508" lon="6.94397">
        <ele>132.8</ele>
        <time>2025-07-15T21:08:35Z</time>
      </trkpt>
      <trkpt lat="43.52504" lon="6.94399">
        <ele>133</ele>
        <time>2025-07-15T21:08:41Z</time>
      </trkpt>
      <trkpt lat="43.525" lon="6.94393">
        <ele>133.2</ele>
        <time>2025-07-15T21:09:00Z</time>
      </trkpt>
      <trkpt lat="43.52497" lon="6.94389">
        <ele>133.2</ele>
        <time>2025-07-15T21:09:03Z</time>
      </trkpt>
      <trkpt lat="43.52495" lon="6.94387">
        <ele>133.4</ele>
        <time>2025-07-15T21:09:07Z</time>
      </trkpt>
      <trkpt lat="43.52493" lon="6.94381">
        <ele>133.2</ele>
        <time>2025-07-15T21:09:40Z</time>
      </trkpt>
      <trkpt lat="43.52485" lon="6.94369">
        <ele>133</ele>
        <time>2025-07-15T21:09:46Z</time>
      </trkpt>
      <trkpt lat="43.52474" lon="6.94354">
        <ele>133</ele>
        <time>2025-07-15T21:09:53Z</time>
      </trkpt>
      <trkpt lat="43.5246" lon="6.94335">
        <ele>133.4</ele>
        <time>2025-07-15T21:10:01Z</time>
      </trkpt>
      <trkpt lat="43.52459" lon="6.94332">
        <ele>133.4</ele>
        <time>2025-07-15T21:10:03Z</time>
      </trkpt>
      <trkpt lat="43.5246" lon="6.94331">
        <ele>133.6</ele>
        <time>2025-07-15T21:10:05Z</time>
      </trkpt>
      <trkpt lat="43.5246" lon="6.94331">
        <ele>133.6</ele>
        <time>2025-07-15T21:10:07Z</time>
      </trkpt>
      <trkpt lat="43.52448" lon="6.94315">
        <ele>133.6</ele>
        <time>2025-07-15T21:10:32Z</time>
      </trkpt>
      <trkpt lat="43.52446" lon="6.94312">
        <ele>133.6</ele>
        <time>2025-07-15T21:10:34Z</time>
      </trkpt>
      <trkpt lat="43.52438" lon="6.9429">
        <ele>133.8</ele>
        <time>2025-07-15T21:10:47Z</time>
      </trkpt>
      <trkpt lat="43.52435" lon="6.94283">
        <ele>134.2</ele>
        <time>2025-07-15T21:10:51Z</time>
      </trkpt>
      <trkpt lat="43.5243" lon="6.94273">
        <ele>134.6</ele>
        <time>2025-07-15T21:10:57Z</time>
      </trkpt>
      <trkpt lat="43.52419" lon="6.94254">
        <ele>135.2</ele>
        <time>2025-07-15T21:11:09Z</time>
      </trkpt>
      <trkpt lat="43.52418" lon="6.94252">
        <ele>135.4</ele>
        <time>2025-07-15T21:11:10Z</time>
      </trkpt>
      <trkpt lat="43.52412" lon="6.94243">
        <ele>135.8</ele>
        <time>2025-07-15T21:11:17Z</time>
      </trkpt>
      <trkpt lat="43.52406" lon="6.9423">
        <ele>136.2</ele>
        <time>2025-07-15T21:11:25Z</time>
      </trkpt>
      <trkpt lat="43.52406" lon="6.94229">
        <ele>136.4</ele>
        <time>2025-07-15T21:11:26Z</time>
      </trkpt>
      <trkpt lat="43.52399" lon="6.94215">
        <ele>136.6</ele>
        <time>2025-07-15T21:11:35Z</time>
      </trkpt>
      <trkpt lat="43.52392" lon="6.94201">
        <ele>137.4</ele>
        <time>2025-07-15T21:11:45Z</time>
      </trkpt>
      <trkpt lat="43.52391" lon="6.942">
        <ele>137.4</ele>
        <time>2025-07-15T21:11:46Z</time>
      </trkpt>
      <trkpt lat="43.52386" lon="6.94186">
        <ele>138</ele>
        <time>2025-07-15T21:11:55Z</time>
      </trkpt>
      <trkpt lat="43.52383" lon="6.9418">
        <ele>138.4</ele>
        <time>2025-07-15T21:11:59Z</time>
      </trkpt>
      <trkpt lat="43.52379" lon="6.94174">
        <ele>139.2</ele>
        <time>2025-07-15T21:12:04Z</time>
      </trkpt>
      <trkpt lat="43.52377" lon="6.94169">
        <ele>139.6</ele>
        <time>2025-07-15T21:12:07Z</time>
      </trkpt>
      <trkpt lat="43.52373" lon="6.94162">
        <ele>140</ele>
        <time>2025-07-15T21:12:12Z</time>
      </trkpt>
      <trkpt lat="43.52372" lon="6.94161">
        <ele>140.2</ele>
        <time>2025-07-15T21:12:13Z</time>
      </trkpt>
      <trkpt lat="43.5237" lon="6.94158">
        <ele>140.4</ele>
        <time>2025-07-15T21:12:16Z</time>
      </trkpt>
      <trkpt lat="43.52368" lon="6.94158">
        <ele>140.6</ele>
        <time>2025-07-15T21:12:19Z</time>
      </trkpt>
      <trkpt lat="43.52366" lon="6.94156">
        <ele>140.8</ele>
        <time>2025-07-15T21:12:21Z</time>
      </trkpt>
      <trkpt lat="43.52364" lon="6.94155">
        <ele>141.2</ele>
        <time>2025-07-15T21:12:27Z</time>
      </trkpt>
      <trkpt lat="43.52363" lon="6.94155">
        <ele>141.2</ele>
        <time>2025-07-15T21:12:29Z</time>
      </trkpt>
      <trkpt lat="43.5236" lon="6.94153">
        <ele>141.2</ele>
        <time>2025-07-15T21:12:33Z</time>
      </trkpt>
      <trkpt lat="43.52357" lon="6.94151">
        <ele>141.2</ele>
        <time>2025-07-15T21:12:35Z</time>
      </trkpt>
      <trkpt lat="43.52342" lon="6.94149">
        <ele>141.8</ele>
        <time>2025-07-15T21:12:41Z</time>
      </trkpt>
      <trkpt lat="43.52339" lon="6.94148">
        <ele>142</ele>
        <time>2025-07-15T21:12:42Z</time>
      </trkpt>
      <trkpt lat="43.52326" lon="6.94143">
        <ele>142.8</ele>
        <time>2025-07-15T21:12:47Z</time>
      </trkpt>
      <trkpt lat="43.5232" lon="6.94142">
        <ele>143</ele>
        <time>2025-07-15T21:12:49Z</time>
      </trkpt>
      <trkpt lat="43.52308" lon="6.94135">
        <ele>144.2</ele>
        <time>2025-07-15T21:12:54Z</time>
      </trkpt>
      <trkpt lat="43.523" lon="6.9412">
        <ele>144.8</ele>
        <time>2025-07-15T21:12:59Z</time>
      </trkpt>
      <trkpt lat="43.52297" lon="6.94096">
        <ele>144.8</ele>
        <time>2025-07-15T21:13:04Z</time>
      </trkpt>
      <trkpt lat="43.52284" lon="6.94071">
        <ele>144.6</ele>
        <time>2025-07-15T21:13:10Z</time>
      </trkpt>
      <trkpt lat="43.52267" lon="6.94058">
        <ele>144.8</ele>
        <time>2025-07-15T21:13:15Z</time>
      </trkpt>
      <trkpt lat="43.52251" lon="6.9405">
        <ele>144.8</ele>
        <time>2025-07-15T21:13:20Z</time>
      </trkpt>
      <trkpt lat="43.52226" lon="6.94034">
        <ele>144.8</ele>
        <time>2025-07-15T21:13:26Z</time>
      </trkpt>
      <trkpt lat="43.52222" lon="6.94031">
        <ele>144.8</ele>
        <time>2025-07-15T21:13:27Z</time>
      </trkpt>
      <trkpt lat="43.52198" lon="6.94016">
        <ele>145.4</ele>
        <time>2025-07-15T21:13:34Z</time>
      </trkpt>
      <trkpt lat="43.52183" lon="6.94004">
        <ele>146.2</ele>
        <time>2025-07-15T21:13:39Z</time>
      </trkpt>
      <trkpt lat="43.52181" lon="6.94001">
        <ele>146.4</ele>
        <time>2025-07-15T21:13:40Z</time>
      </trkpt>
      <trkpt lat="43.5217" lon="6.93992">
        <ele>147.8</ele>
        <time>2025-07-15T21:13:45Z</time>
      </trkpt>
      <trkpt lat="43.52168" lon="6.9399">
        <ele>147.8</ele>
        <time>2025-07-15T21:13:46Z</time>
      </trkpt>
      <trkpt lat="43.52157" lon="6.93972">
        <ele>148.6</ele>
        <time>2025-07-15T21:13:52Z</time>
      </trkpt>
      <trkpt lat="43.52143" lon="6.93968">
        <ele>149</ele>
        <time>2025-07-15T21:13:56Z</time>
      </trkpt>
      <trkpt lat="43.5213" lon="6.93977">
        <ele>149.4</ele>
        <time>2025-07-15T21:14:00Z</time>
      </trkpt>
      <trkpt lat="43.52128" lon="6.9398">
        <ele>149.6</ele>
        <time>2025-07-15T21:14:01Z</time>
      </trkpt>
      <trkpt lat="43.52126" lon="6.93993">
        <ele>149.8</ele>
        <time>2025-07-15T21:14:04Z</time>
      </trkpt>
      <trkpt lat="43.52123" lon="6.93999">
        <ele>150</ele>
        <time>2025-07-15T21:14:06Z</time>
      </trkpt>
      <trkpt lat="43.52113" lon="6.94014">
        <ele>150.8</ele>
        <time>2025-07-15T21:14:12Z</time>
      </trkpt>
      <trkpt lat="43.52098" lon="6.94032">
        <ele>152</ele>
        <time>2025-07-15T21:14:18Z</time>
      </trkpt>
      <trkpt lat="43.52093" lon="6.94036">
        <ele>152.2</ele>
        <time>2025-07-15T21:14:20Z</time>
      </trkpt>
      <trkpt lat="43.5208" lon="6.94045">
        <ele>153</ele>
        <time>2025-07-15T21:14:25Z</time>
      </trkpt>
      <trkpt lat="43.52077" lon="6.94046">
        <ele>153.2</ele>
        <time>2025-07-15T21:14:26Z</time>
      </trkpt>
      <trkpt lat="43.52066" lon="6.94051">
        <ele>154.2</ele>
        <time>2025-07-15T21:14:30Z</time>
      </trkpt>
      <trkpt lat="43.52059" lon="6.9405">
        <ele>154.8</ele>
        <time>2025-07-15T21:14:33Z</time>
      </trkpt>
      <trkpt lat="43.52051" lon="6.94049">
        <ele>155.4</ele>
        <time>2025-07-15T21:14:36Z</time>
      </trkpt>
      <trkpt lat="43.52043" lon="6.94046">
        <ele>155.6</ele>
        <time>2025-07-15T21:14:39Z</time>
      </trkpt>
      <trkpt lat="43.5203" lon="6.94042">
        <ele>156.4</ele>
        <time>2025-07-15T21:14:44Z</time>
      </trkpt>
      <trkpt lat="43.52027" lon="6.94041">
        <ele>156.4</ele>
        <time>2025-07-15T21:14:45Z</time>
      </trkpt>
      <trkpt lat="43.52016" lon="6.94036">
        <ele>157.2</ele>
        <time>2025-07-15T21:14:50Z</time>
      </trkpt>
      <trkpt lat="43.52013" lon="6.94035">
        <ele>157.4</ele>
        <time>2025-07-15T21:14:51Z</time>
      </trkpt>
      <trkpt lat="43.51999" lon="6.9403">
        <ele>158.2</ele>
        <time>2025-07-15T21:14:56Z</time>
      </trkpt>
      <trkpt lat="43.51995" lon="6.94029">
        <ele>158.6</ele>
        <time>2025-07-15T21:14:58Z</time>
      </trkpt>
      <trkpt lat="43.51986" lon="6.94025">
        <ele>159.2</ele>
        <time>2025-07-15T21:15:02Z</time>
      </trkpt>
      <trkpt lat="43.5198" lon="6.94022">
        <ele>159.6</ele>
        <time>2025-07-15T21:15:05Z</time>
      </trkpt>
      <trkpt lat="43.51971" lon="6.94017">
        <ele>160.2</ele>
        <time>2025-07-15T21:15:09Z</time>
      </trkpt>
      <trkpt lat="43.51964" lon="6.94013">
        <ele>161</ele>
        <time>2025-07-15T21:15:12Z</time>
      </trkpt>
      <trkpt lat="43.51953" lon="6.94007">
        <ele>161.6</ele>
        <time>2025-07-15T21:15:17Z</time>
      </trkpt>
      <trkpt lat="43.51945" lon="6.94002">
        <ele>162</ele>
        <time>2025-07-15T21:15:21Z</time>
      </trkpt>
      <trkpt lat="43.51943" lon="6.94">
        <ele>162.2</ele>
        <time>2025-07-15T21:15:22Z</time>
      </trkpt>
      <trkpt lat="43.51927" lon="6.93991">
        <ele>162.6</ele>
        <time>2025-07-15T21:15:29Z</time>
      </trkpt>
      <trkpt lat="43.5191" lon="6.93981">
        <ele>162.6</ele>
        <time>2025-07-15T21:15:34Z</time>
      </trkpt>
      <trkpt lat="43.51894" lon="6.93971">
        <ele>161.8</ele>
        <time>2025-07-15T21:15:40Z</time>
      </trkpt>
      <trkpt lat="43.51874" lon="6.93961">
        <ele>160.8</ele>
        <time>2025-07-15T21:15:47Z</time>
      </trkpt>
      <trkpt lat="43.51857" lon="6.93944">
        <ele>160</ele>
        <time>2025-07-15T21:15:52Z</time>
      </trkpt>
      <trkpt lat="43.51855" lon="6.93938">
        <ele>159.8</ele>
        <time>2025-07-15T21:15:53Z</time>
      </trkpt>
      <trkpt lat="43.51853" lon="6.93932">
        <ele>159.6</ele>
        <time>2025-07-15T21:15:54Z</time>
      </trkpt>
      <trkpt lat="43.5184" lon="6.93905">
        <ele>158.4</ele>
        <time>2025-07-15T21:15:58Z</time>
      </trkpt>
      <trkpt lat="43.51822" lon="6.93879">
        <ele>157.2</ele>
        <time>2025-07-15T21:16:02Z</time>
      </trkpt>
      <trkpt lat="43.51813" lon="6.93866">
        <ele>156.2</ele>
        <time>2025-07-15T21:16:04Z</time>
      </trkpt>
      <trkpt lat="43.5181" lon="6.93861">
        <ele>156</ele>
        <time>2025-07-15T21:16:05Z</time>
      </trkpt>
      <trkpt lat="43.51807" lon="6.93855">
        <ele>155.4</ele>
        <time>2025-07-15T21:16:06Z</time>
      </trkpt>
      <trkpt lat="43.51801" lon="6.93839">
        <ele>154.6</ele>
        <time>2025-07-15T21:16:08Z</time>
      </trkpt>
      <trkpt lat="43.518" lon="6.9383">
        <ele>154.2</ele>
        <time>2025-07-15T21:16:09Z</time>
      </trkpt>
      <trkpt lat="43.51797" lon="6.93809">
        <ele>153.2</ele>
        <time>2025-07-15T21:16:11Z</time>
      </trkpt>
      <trkpt lat="43.51794" lon="6.93781">
        <ele>152.2</ele>
        <time>2025-07-15T21:16:14Z</time>
      </trkpt>
      <trkpt lat="43.51794" lon="6.9377">
        <ele>151.8</ele>
        <time>2025-07-15T21:16:15Z</time>
      </trkpt>
      <trkpt lat="43.51791" lon="6.93745">
        <ele>150.8</ele>
        <time>2025-07-15T21:16:17Z</time>
      </trkpt>
      <trkpt lat="43.5179" lon="6.93734">
        <ele>150.2</ele>
        <time>2025-07-15T21:16:18Z</time>
      </trkpt>
      <trkpt lat="43.51788" lon="6.93724">
        <ele>149.8</ele>
        <time>2025-07-15T21:16:19Z</time>
      </trkpt>
      <trkpt lat="43.51781" lon="6.93694">
        <ele>148.4</ele>
        <time>2025-07-15T21:16:22Z</time>
      </trkpt>
      <trkpt lat="43.51781" lon="6.93683">
        <ele>147.8</ele>
        <time>2025-07-15T21:16:23Z</time>
      </trkpt>
      <trkpt lat="43.51781" lon="6.9367">
        <ele>147.6</ele>
        <time>2025-07-15T21:16:24Z</time>
      </trkpt>
      <trkpt lat="43.51782" lon="6.93658">
        <ele>147</ele>
        <time>2025-07-15T21:16:25Z</time>
      </trkpt>
      <trkpt lat="43.51784" lon="6.93634">
        <ele>145.6</ele>
        <time>2025-07-15T21:16:27Z</time>
      </trkpt>
      <trkpt lat="43.51787" lon="6.93609">
        <ele>144.2</ele>
        <time>2025-07-15T21:16:29Z</time>
      </trkpt>
      <trkpt lat="43.51787" lon="6.93583">
        <ele>143.2</ele>
        <time>2025-07-15T21:16:31Z</time>
      </trkpt>
      <trkpt lat="43.51787" lon="6.93572">
        <ele>142.6</ele>
        <time>2025-07-15T21:16:32Z</time>
      </trkpt>
      <trkpt lat="43.51785" lon="6.93563">
        <ele>142.4</ele>
        <time>2025-07-15T21:16:33Z</time>
      </trkpt>
      <trkpt lat="43.51782" lon="6.93553">
        <ele>142</ele>
        <time>2025-07-15T21:16:34Z</time>
      </trkpt>
      <trkpt lat="43.51776" lon="6.93542">
        <ele>141.8</ele>
        <time>2025-07-15T21:16:35Z</time>
      </trkpt>
      <trkpt lat="43.51765" lon="6.9353">
        <ele>141.4</ele>
        <time>2025-07-15T21:16:37Z</time>
      </trkpt>
      <trkpt lat="43.51758" lon="6.93526">
        <ele>141.2</ele>
        <time>2025-07-15T21:16:38Z</time>
      </trkpt>
      <trkpt lat="43.5175" lon="6.93525">
        <ele>141.2</ele>
        <time>2025-07-15T21:16:39Z</time>
      </trkpt>
      <trkpt lat="43.51737" lon="6.93527">
        <ele>141</ele>
        <time>2025-07-15T21:16:41Z</time>
      </trkpt>
      <trkpt lat="43.51727" lon="6.93534">
        <ele>140.8</ele>
        <time>2025-07-15T21:16:43Z</time>
      </trkpt>
      <trkpt lat="43.51724" lon="6.93537">
        <ele>140.8</ele>
        <time>2025-07-15T21:16:44Z</time>
      </trkpt>
      <trkpt lat="43.51707" lon="6.93565">
        <ele>140.8</ele>
        <time>2025-07-15T21:16:49Z</time>
      </trkpt>
      <trkpt lat="43.51698" lon="6.93585">
        <ele>141.6</ele>
        <time>2025-07-15T21:16:53Z</time>
      </trkpt>
      <trkpt lat="43.51691" lon="6.93599">
        <ele>141.8</ele>
        <time>2025-07-15T21:16:56Z</time>
      </trkpt>
      <trkpt lat="43.51682" lon="6.93617">
        <ele>142.8</ele>
        <time>2025-07-15T21:17:00Z</time>
      </trkpt>
      <trkpt lat="43.51674" lon="6.93636">
        <ele>144</ele>
        <time>2025-07-15T21:17:04Z</time>
      </trkpt>
      <trkpt lat="43.51666" lon="6.93661">
        <ele>145.2</ele>
        <time>2025-07-15T21:17:09Z</time>
      </trkpt>
      <trkpt lat="43.5166" lon="6.93685">
        <ele>146.6</ele>
        <time>2025-07-15T21:17:14Z</time>
      </trkpt>
      <trkpt lat="43.51655" lon="6.93698">
        <ele>147.8</ele>
        <time>2025-07-15T21:17:17Z</time>
      </trkpt>
      <trkpt lat="43.51647" lon="6.93714">
        <ele>149</ele>
        <time>2025-07-15T21:17:21Z</time>
      </trkpt>
      <trkpt lat="43.51635" lon="6.93733">
        <ele>150.2</ele>
        <time>2025-07-15T21:17:26Z</time>
      </trkpt>
      <trkpt lat="43.51625" lon="6.9375">
        <ele>151.4</ele>
        <time>2025-07-15T21:17:31Z</time>
      </trkpt>
      <trkpt lat="43.51614" lon="6.9377">
        <ele>152.2</ele>
        <time>2025-07-15T21:17:37Z</time>
      </trkpt>
      <trkpt lat="43.51598" lon="6.93779">
        <ele>152.2</ele>
        <time>2025-07-15T21:17:42Z</time>
      </trkpt>
      <trkpt lat="43.51581" lon="6.93773">
        <ele>152</ele>
        <time>2025-07-15T21:17:46Z</time>
      </trkpt>
      <trkpt lat="43.51557" lon="6.93756">
        <ele>151.4</ele>
        <time>2025-07-15T21:17:52Z</time>
      </trkpt>
      <trkpt lat="43.51548" lon="6.93751">
        <ele>151.4</ele>
        <time>2025-07-15T21:17:54Z</time>
      </trkpt>
      <trkpt lat="43.51539" lon="6.93745">
        <ele>151</ele>
        <time>2025-07-15T21:17:56Z</time>
      </trkpt>
      <trkpt lat="43.51534" lon="6.93741">
        <ele>150.8</ele>
        <time>2025-07-15T21:17:57Z</time>
      </trkpt>
      <trkpt lat="43.51523" lon="6.93734">
        <ele>150.2</ele>
        <time>2025-07-15T21:17:59Z</time>
      </trkpt>
      <trkpt lat="43.51518" lon="6.93729">
        <ele>150</ele>
        <time>2025-07-15T21:18:00Z</time>
      </trkpt>
      <trkpt lat="43.51509" lon="6.93719">
        <ele>149.8</ele>
        <time>2025-07-15T21:18:02Z</time>
      </trkpt>
      <trkpt lat="43.515" lon="6.93707">
        <ele>149.4</ele>
        <time>2025-07-15T21:18:04Z</time>
      </trkpt>
      <trkpt lat="43.51489" lon="6.93699">
        <ele>148.8</ele>
        <time>2025-07-15T21:18:06Z</time>
      </trkpt>
      <trkpt lat="43.51477" lon="6.93695">
        <ele>148.4</ele>
        <time>2025-07-15T21:18:08Z</time>
      </trkpt>
      <trkpt lat="43.51459" lon="6.93694">
        <ele>148</ele>
        <time>2025-07-15T21:18:11Z</time>
      </trkpt>
      <trkpt lat="43.51422" lon="6.93689">
        <ele>147.8</ele>
        <time>2025-07-15T21:18:17Z</time>
      </trkpt>
      <trkpt lat="43.5141" lon="6.93689">
        <ele>147.8</ele>
        <time>2025-07-15T21:18:19Z</time>
      </trkpt>
      <trkpt lat="43.51375" lon="6.93693">
        <ele>147.8</ele>
        <time>2025-07-15T21:18:25Z</time>
      </trkpt>
      <trkpt lat="43.51369" lon="6.93695">
        <ele>147.8</ele>
        <time>2025-07-15T21:18:26Z</time>
      </trkpt>
      <trkpt lat="43.51347" lon="6.93706">
        <ele>148</ele>
        <time>2025-07-15T21:18:30Z</time>
      </trkpt>
      <trkpt lat="43.51336" lon="6.93708">
        <ele>148.4</ele>
        <time>2025-07-15T21:18:32Z</time>
      </trkpt>
      <trkpt lat="43.51308" lon="6.93705">
        <ele>148.6</ele>
        <time>2025-07-15T21:18:37Z</time>
      </trkpt>
      <trkpt lat="43.51296" lon="6.93703">
        <ele>148.8</ele>
        <time>2025-07-15T21:18:39Z</time>
      </trkpt>
      <trkpt lat="43.51263" lon="6.93697">
        <ele>149</ele>
        <time>2025-07-15T21:18:45Z</time>
      </trkpt>
      <trkpt lat="43.51252" lon="6.93695">
        <ele>149</ele>
        <time>2025-07-15T21:18:47Z</time>
      </trkpt>
      <trkpt lat="43.51242" lon="6.93697">
        <ele>149</ele>
        <time>2025-07-15T21:18:49Z</time>
      </trkpt>
      <trkpt lat="43.51236" lon="6.937">
        <ele>149</ele>
        <time>2025-07-15T21:18:50Z</time>
      </trkpt>
      <trkpt lat="43.51232" lon="6.93704">
        <ele>149</ele>
        <time>2025-07-15T21:18:51Z</time>
      </trkpt>
      <trkpt lat="43.51221" lon="6.93721">
        <ele>149</ele>
        <time>2025-07-15T21:18:54Z</time>
      </trkpt>
      <trkpt lat="43.51217" lon="6.93728">
        <ele>148.8</ele>
        <time>2025-07-15T21:18:55Z</time>
      </trkpt>
      <trkpt lat="43.51206" lon="6.93738">
        <ele>148.6</ele>
        <time>2025-07-15T21:18:57Z</time>
      </trkpt>
      <trkpt lat="43.51193" lon="6.93741">
        <ele>148.4</ele>
        <time>2025-07-15T21:18:59Z</time>
      </trkpt>
      <trkpt lat="43.51187" lon="6.93741">
        <ele>148.2</ele>
        <time>2025-07-15T21:19:00Z</time>
      </trkpt>
      <trkpt lat="43.51158" lon="6.93741">
        <ele>147.4</ele>
        <time>2025-07-15T21:19:04Z</time>
      </trkpt>
      <trkpt lat="43.51144" lon="6.93738">
        <ele>147</ele>
        <time>2025-07-15T21:19:06Z</time>
      </trkpt>
      <trkpt lat="43.51136" lon="6.93736">
        <ele>146.6</ele>
        <time>2025-07-15T21:19:07Z</time>
      </trkpt>
      <trkpt lat="43.51122" lon="6.9373">
        <ele>146.2</ele>
        <time>2025-07-15T21:19:09Z</time>
      </trkpt>
      <trkpt lat="43.51093" lon="6.93712">
        <ele>145.2</ele>
        <time>2025-07-15T21:19:13Z</time>
      </trkpt>
      <trkpt lat="43.51069" lon="6.93685">
        <ele>143.8</ele>
        <time>2025-07-15T21:19:17Z</time>
      </trkpt>
      <trkpt lat="43.51062" lon="6.9368">
        <ele>143.6</ele>
        <time>2025-07-15T21:19:18Z</time>
      </trkpt>
      <trkpt lat="43.51055" lon="6.93678">
        <ele>143.4</ele>
        <time>2025-07-15T21:19:19Z</time>
      </trkpt>
      <trkpt lat="43.51041" lon="6.9368">
        <ele>143.2</ele>
        <time>2025-07-15T21:19:21Z</time>
      </trkpt>
      <trkpt lat="43.51009" lon="6.93696">
        <ele>142.8</ele>
        <time>2025-07-15T21:19:26Z</time>
      </trkpt>
      <trkpt lat="43.51002" lon="6.937">
        <ele>142.6</ele>
        <time>2025-07-15T21:19:27Z</time>
      </trkpt>
      <trkpt lat="43.50963" lon="6.93722">
        <ele>142.2</ele>
        <time>2025-07-15T21:19:33Z</time>
      </trkpt>
      <trkpt lat="43.50957" lon="6.93724">
        <ele>142.2</ele>
        <time>2025-07-15T21:19:34Z</time>
      </trkpt>
      <trkpt lat="43.5095" lon="6.93725">
        <ele>142</ele>
        <time>2025-07-15T21:19:35Z</time>
      </trkpt>
      <trkpt lat="43.5093" lon="6.93725">
        <ele>141.8</ele>
        <time>2025-07-15T21:19:38Z</time>
      </trkpt>
      <trkpt lat="43.50923" lon="6.93726">
        <ele>141.6</ele>
        <time>2025-07-15T21:19:39Z</time>
      </trkpt>
      <trkpt lat="43.5091" lon="6.93731">
        <ele>141.4</ele>
        <time>2025-07-15T21:19:41Z</time>
      </trkpt>
      <trkpt lat="43.50904" lon="6.93734">
        <ele>141.2</ele>
        <time>2025-07-15T21:19:42Z</time>
      </trkpt>
      <trkpt lat="43.5088" lon="6.93749">
        <ele>140.6</ele>
        <time>2025-07-15T21:19:46Z</time>
      </trkpt>
      <trkpt lat="43.50863" lon="6.93759">
        <ele>140.4</ele>
        <time>2025-07-15T21:19:49Z</time>
      </trkpt>
      <trkpt lat="43.50844" lon="6.93772">
        <ele>139.8</ele>
        <time>2025-07-15T21:19:53Z</time>
      </trkpt>
      <trkpt lat="43.50839" lon="6.93775">
        <ele>139.8</ele>
        <time>2025-07-15T21:19:54Z</time>
      </trkpt>
      <trkpt lat="43.50827" lon="6.93784">
        <ele>139.6</ele>
        <time>2025-07-15T21:19:57Z</time>
      </trkpt>
      <trkpt lat="43.50823" lon="6.93787">
        <ele>139.8</ele>
        <time>2025-07-15T21:19:58Z</time>
      </trkpt>
      <trkpt lat="43.5082" lon="6.93791">
        <ele>139.8</ele>
        <time>2025-07-15T21:19:59Z</time>
      </trkpt>
      <trkpt lat="43.50818" lon="6.93796">
        <ele>139.8</ele>
        <time>2025-07-15T21:20:00Z</time>
      </trkpt>
      <trkpt lat="43.50814" lon="6.93809">
        <ele>139.8</ele>
        <time>2025-07-15T21:20:02Z</time>
      </trkpt>
      <trkpt lat="43.50813" lon="6.93815">
        <ele>139.8</ele>
        <time>2025-07-15T21:20:03Z</time>
      </trkpt>
      <trkpt lat="43.50804" lon="6.93857">
        <ele>140.2</ele>
        <time>2025-07-15T21:20:10Z</time>
      </trkpt>
      <trkpt lat="43.50792" lon="6.93893">
        <ele>140.6</ele>
        <time>2025-07-15T21:20:17Z</time>
      </trkpt>
      <trkpt lat="43.50784" lon="6.93928">
        <ele>141.2</ele>
        <time>2025-07-15T21:20:23Z</time>
      </trkpt>
      <trkpt lat="43.50778" lon="6.93978">
        <ele>141.2</ele>
        <time>2025-07-15T21:20:31Z</time>
      </trkpt>
      <trkpt lat="43.50774" lon="6.94028">
        <ele>140.4</ele>
        <time>2025-07-15T21:20:38Z</time>
      </trkpt>
      <trkpt lat="43.50772" lon="6.94045">
        <ele>140.2</ele>
        <time>2025-07-15T21:20:40Z</time>
      </trkpt>
      <trkpt lat="43.50768" lon="6.94072">
        <ele>139.6</ele>
        <time>2025-07-15T21:20:43Z</time>
      </trkpt>
      <trkpt lat="43.50761" lon="6.94115">
        <ele>138.2</ele>
        <time>2025-07-15T21:20:48Z</time>
      </trkpt>
      <trkpt lat="43.50759" lon="6.94124">
        <ele>138</ele>
        <time>2025-07-15T21:20:49Z</time>
      </trkpt>
      <trkpt lat="43.50755" lon="6.9414">
        <ele>137.2</ele>
        <time>2025-07-15T21:20:51Z</time>
      </trkpt>
      <trkpt lat="43.50753" lon="6.94147">
        <ele>137</ele>
        <time>2025-07-15T21:20:52Z</time>
      </trkpt>
      <trkpt lat="43.50746" lon="6.94162">
        <ele>136.2</ele>
        <time>2025-07-15T21:20:54Z</time>
      </trkpt>
      <trkpt lat="43.50743" lon="6.94169">
        <ele>135.6</ele>
        <time>2025-07-15T21:20:55Z</time>
      </trkpt>
      <trkpt lat="43.50738" lon="6.94176">
        <ele>135.4</ele>
        <time>2025-07-15T21:20:56Z</time>
      </trkpt>
      <trkpt lat="43.50728" lon="6.94187">
        <ele>134.6</ele>
        <time>2025-07-15T21:20:58Z</time>
      </trkpt>
      <trkpt lat="43.50723" lon="6.94192">
        <ele>134.2</ele>
        <time>2025-07-15T21:20:59Z</time>
      </trkpt>
      <trkpt lat="43.50708" lon="6.94208">
        <ele>133.4</ele>
        <time>2025-07-15T21:21:02Z</time>
      </trkpt>
      <trkpt lat="43.50702" lon="6.94213">
        <ele>133.4</ele>
        <time>2025-07-15T21:21:03Z</time>
      </trkpt>
      <trkpt lat="43.50697" lon="6.94215">
        <ele>133.2</ele>
        <time>2025-07-15T21:21:04Z</time>
      </trkpt>
      <trkpt lat="43.50691" lon="6.94215">
        <ele>133.2</ele>
        <time>2025-07-15T21:21:05Z</time>
      </trkpt>
      <trkpt lat="43.50681" lon="6.94211">
        <ele>133.2</ele>
        <time>2025-07-15T21:21:07Z</time>
      </trkpt>
      <trkpt lat="43.50674" lon="6.94203">
        <ele>133.4</ele>
        <time>2025-07-15T21:21:09Z</time>
      </trkpt>
      <trkpt lat="43.50669" lon="6.94194">
        <ele>134</ele>
        <time>2025-07-15T21:21:11Z</time>
      </trkpt>
      <trkpt lat="43.50665" lon="6.94183">
        <ele>134.6</ele>
        <time>2025-07-15T21:21:14Z</time>
      </trkpt>
      <trkpt lat="43.50662" lon="6.94173">
        <ele>135.2</ele>
        <time>2025-07-15T21:21:17Z</time>
      </trkpt>
      <trkpt lat="43.50658" lon="6.94164">
        <ele>135.8</ele>
        <time>2025-07-15T21:21:20Z</time>
      </trkpt>
      <trkpt lat="43.50653" lon="6.94155">
        <ele>136.2</ele>
        <time>2025-07-15T21:21:23Z</time>
      </trkpt>
      <trkpt lat="43.50647" lon="6.94141">
        <ele>136.8</ele>
        <time>2025-07-15T21:21:26Z</time>
      </trkpt>
      <trkpt lat="43.50644" lon="6.94133">
        <ele>137</ele>
        <time>2025-07-15T21:21:28Z</time>
      </trkpt>
      <trkpt lat="43.50638" lon="6.94116">
        <ele>138</ele>
        <time>2025-07-15T21:21:32Z</time>
      </trkpt>
      <trkpt lat="43.50629" lon="6.94096">
        <ele>139</ele>
        <time>2025-07-15T21:21:37Z</time>
      </trkpt>
      <trkpt lat="43.50615" lon="6.94066">
        <ele>140.2</ele>
        <time>2025-07-15T21:21:45Z</time>
      </trkpt>
      <trkpt lat="43.50613" lon="6.94062">
        <ele>140.2</ele>
        <time>2025-07-15T21:21:46Z</time>
      </trkpt>
      <trkpt lat="43.50596" lon="6.94041">
        <ele>141.4</ele>
        <time>2025-07-15T21:21:53Z</time>
      </trkpt>
      <trkpt lat="43.50593" lon="6.94038">
        <ele>141.6</ele>
        <time>2025-07-15T21:21:54Z</time>
      </trkpt>
      <trkpt lat="43.50577" lon="6.94026">
        <ele>142.4</ele>
        <time>2025-07-15T21:21:59Z</time>
      </trkpt>
      <trkpt lat="43.50566" lon="6.94018">
        <ele>142.8</ele>
        <time>2025-07-15T21:22:03Z</time>
      </trkpt>
      <trkpt lat="43.5055" lon="6.94006">
        <ele>143.4</ele>
        <time>2025-07-15T21:22:08Z</time>
      </trkpt>
      <trkpt lat="43.50533" lon="6.9399">
        <ele>144</ele>
        <time>2025-07-15T21:22:14Z</time>
      </trkpt>
      <trkpt lat="43.50525" lon="6.93982">
        <ele>144.6</ele>
        <time>2025-07-15T21:22:17Z</time>
      </trkpt>
      <trkpt lat="43.50507" lon="6.93964">
        <ele>145.2</ele>
        <time>2025-07-15T21:22:24Z</time>
      </trkpt>
      <trkpt lat="43.50505" lon="6.93962">
        <ele>145.4</ele>
        <time>2025-07-15T21:22:25Z</time>
      </trkpt>
      <trkpt lat="43.50484" lon="6.93936">
        <ele>146.2</ele>
        <time>2025-07-15T21:22:34Z</time>
      </trkpt>
      <trkpt lat="43.50482" lon="6.93934">
        <ele>146.4</ele>
        <time>2025-07-15T21:22:35Z</time>
      </trkpt>
      <trkpt lat="43.5047" lon="6.93916">
        <ele>147</ele>
        <time>2025-07-15T21:22:41Z</time>
      </trkpt>
      <trkpt lat="43.50463" lon="6.93908">
        <ele>147.4</ele>
        <time>2025-07-15T21:22:44Z</time>
      </trkpt>
      <trkpt lat="43.50452" lon="6.93893">
        <ele>148.6</ele>
        <time>2025-07-15T21:22:49Z</time>
      </trkpt>
      <trkpt lat="43.5045" lon="6.9389">
        <ele>148.6</ele>
        <time>2025-07-15T21:22:50Z</time>
      </trkpt>
      <trkpt lat="43.50443" lon="6.93873">
        <ele>149.2</ele>
        <time>2025-07-15T21:22:55Z</time>
      </trkpt>
      <trkpt lat="43.50439" lon="6.9386">
        <ele>149.6</ele>
        <time>2025-07-15T21:22:58Z</time>
      </trkpt>
      <trkpt lat="43.50431" lon="6.93847">
        <ele>150.4</ele>
        <time>2025-07-15T21:23:02Z</time>
      </trkpt>
      <trkpt lat="43.50425" lon="6.93845">
        <ele>150.6</ele>
        <time>2025-07-15T21:23:04Z</time>
      </trkpt>
      <trkpt lat="43.50418" lon="6.93846">
        <ele>150.8</ele>
        <time>2025-07-15T21:23:06Z</time>
      </trkpt>
      <trkpt lat="43.50408" lon="6.93857">
        <ele>151.4</ele>
        <time>2025-07-15T21:23:10Z</time>
      </trkpt>
      <trkpt lat="43.50407" lon="6.93871">
        <ele>151.6</ele>
        <time>2025-07-15T21:23:13Z</time>
      </trkpt>
      <trkpt lat="43.50408" lon="6.93876">
        <ele>151.8</ele>
        <time>2025-07-15T21:23:14Z</time>
      </trkpt>
      <trkpt lat="43.50419" lon="6.93893">
        <ele>152</ele>
        <time>2025-07-15T21:23:19Z</time>
      </trkpt>
      <trkpt lat="43.5044" lon="6.93911">
        <ele>152.6</ele>
        <time>2025-07-15T21:23:27Z</time>
      </trkpt>
      <trkpt lat="43.50454" lon="6.93934">
        <ele>153.4</ele>
        <time>2025-07-15T21:23:34Z</time>
      </trkpt>
      <trkpt lat="43.50456" lon="6.93938">
        <ele>153.6</ele>
        <time>2025-07-15T21:23:35Z</time>
      </trkpt>
      <trkpt lat="43.50473" lon="6.93963">
        <ele>154.8</ele>
        <time>2025-07-15T21:23:43Z</time>
      </trkpt>
      <trkpt lat="43.50486" lon="6.93981">
        <ele>155.8</ele>
        <time>2025-07-15T21:23:49Z</time>
      </trkpt>
      <trkpt lat="43.50488" lon="6.93984">
        <ele>156</ele>
        <time>2025-07-15T21:23:50Z</time>
      </trkpt>
      <trkpt lat="43.50505" lon="6.94002">
        <ele>156.8</ele>
        <time>2025-07-15T21:23:57Z</time>
      </trkpt>
      <trkpt lat="43.50512" lon="6.94011">
        <ele>157.2</ele>
        <time>2025-07-15T21:24:00Z</time>
      </trkpt>
      <trkpt lat="43.50524" lon="6.94024">
        <ele>157.8</ele>
        <time>2025-07-15T21:24:05Z</time>
      </trkpt>
      <trkpt lat="43.50531" lon="6.94032">
        <ele>158.2</ele>
        <time>2025-07-15T21:24:08Z</time>
      </trkpt>
      <trkpt lat="43.50542" lon="6.94045">
        <ele>158.8</ele>
        <time>2025-07-15T21:24:13Z</time>
      </trkpt>
      <trkpt lat="43.50552" lon="6.94056">
        <ele>159.4</ele>
        <time>2025-07-15T21:24:17Z</time>
      </trkpt>
      <trkpt lat="43.50564" lon="6.9407">
        <ele>160</ele>
        <time>2025-07-15T21:24:22Z</time>
      </trkpt>
      <trkpt lat="43.50566" lon="6.94074">
        <ele>160.2</ele>
        <time>2025-07-15T21:24:23Z</time>
      </trkpt>
      <trkpt lat="43.50584" lon="6.94092">
        <ele>161</ele>
        <time>2025-07-15T21:24:30Z</time>
      </trkpt>
      <trkpt lat="43.50588" lon="6.94099">
        <ele>161.4</ele>
        <time>2025-07-15T21:24:32Z</time>
      </trkpt>
      <trkpt lat="43.50591" lon="6.94115">
        <ele>162.2</ele>
        <time>2025-07-15T21:24:36Z</time>
      </trkpt>
      <trkpt lat="43.50591" lon="6.94119">
        <ele>162.4</ele>
        <time>2025-07-15T21:24:37Z</time>
      </trkpt>
      <trkpt lat="43.50584" lon="6.94138">
        <ele>163.6</ele>
        <time>2025-07-15T21:24:42Z</time>
      </trkpt>
      <trkpt lat="43.50572" lon="6.94163">
        <ele>164.6</ele>
        <time>2025-07-15T21:24:49Z</time>
      </trkpt>
      <trkpt lat="43.50572" lon="6.94185">
        <ele>165.4</ele>
        <time>2025-07-15T21:24:54Z</time>
      </trkpt>
      <trkpt lat="43.50573" lon="6.94189">
        <ele>165.6</ele>
        <time>2025-07-15T21:24:55Z</time>
      </trkpt>
      <trkpt lat="43.5058" lon="6.94204">
        <ele>166.6</ele>
        <time>2025-07-15T21:24:59Z</time>
      </trkpt>
      <trkpt lat="43.50582" lon="6.94207">
        <ele>166.8</ele>
        <time>2025-07-15T21:25:00Z</time>
      </trkpt>
      <trkpt lat="43.50593" lon="6.94217">
        <ele>167.2</ele>
        <time>2025-07-15T21:25:04Z</time>
      </trkpt>
      <trkpt lat="43.50601" lon="6.94224">
        <ele>167.4</ele>
        <time>2025-07-15T21:25:07Z</time>
      </trkpt>
      <trkpt lat="43.50606" lon="6.9423">
        <ele>167.8</ele>
        <time>2025-07-15T21:25:09Z</time>
      </trkpt>
      <trkpt lat="43.50613" lon="6.94245">
        <ele>168.2</ele>
        <time>2025-07-15T21:25:13Z</time>
      </trkpt>
      <trkpt lat="43.50623" lon="6.94267">
        <ele>168.8</ele>
        <time>2025-07-15T21:25:19Z</time>
      </trkpt>
      <trkpt lat="43.50628" lon="6.9428">
        <ele>169.4</ele>
        <time>2025-07-15T21:25:22Z</time>
      </trkpt>
      <trkpt lat="43.50631" lon="6.94299">
        <ele>170</ele>
        <time>2025-07-15T21:25:26Z</time>
      </trkpt>
      <trkpt lat="43.50631" lon="6.94303">
        <ele>170</ele>
        <time>2025-07-15T21:25:27Z</time>
      </trkpt>
      <trkpt lat="43.50633" lon="6.94324">
        <ele>170.8</ele>
        <time>2025-07-15T21:25:32Z</time>
      </trkpt>
      <trkpt lat="43.50632" lon="6.94328">
        <ele>171</ele>
        <time>2025-07-15T21:25:33Z</time>
      </trkpt>
      <trkpt lat="43.50625" lon="6.94342">
        <ele>171.6</ele>
        <time>2025-07-15T21:25:37Z</time>
      </trkpt>
      <trkpt lat="43.50619" lon="6.94351">
        <ele>172</ele>
        <time>2025-07-15T21:25:40Z</time>
      </trkpt>
      <trkpt lat="43.50609" lon="6.94371">
        <ele>172.6</ele>
        <time>2025-07-15T21:25:46Z</time>
      </trkpt>
      <trkpt lat="43.50604" lon="6.94381">
        <ele>173.2</ele>
        <time>2025-07-15T21:25:49Z</time>
      </trkpt>
      <trkpt lat="43.50601" lon="6.94395">
        <ele>173.8</ele>
        <time>2025-07-15T21:25:53Z</time>
      </trkpt>
      <trkpt lat="43.50598" lon="6.94411">
        <ele>174.2</ele>
        <time>2025-07-15T21:25:58Z</time>
      </trkpt>
      <trkpt lat="43.50598" lon="6.94414">
        <ele>174.4</ele>
        <time>2025-07-15T21:25:59Z</time>
      </trkpt>
      <trkpt lat="43.50594" lon="6.9444">
        <ele>175.4</ele>
        <time>2025-07-15T21:26:06Z</time>
      </trkpt>
      <trkpt lat="43.5059" lon="6.94459">
        <ele>176</ele>
        <time>2025-07-15T21:26:12Z</time>
      </trkpt>
      <trkpt lat="43.50589" lon="6.94466">
        <ele>176.4</ele>
        <time>2025-07-15T21:26:14Z</time>
      </trkpt>
      <trkpt lat="43.50584" lon="6.94491">
        <ele>177.2</ele>
        <time>2025-07-15T21:26:21Z</time>
      </trkpt>
      <trkpt lat="43.50583" lon="6.94494">
        <ele>177.4</ele>
        <time>2025-07-15T21:26:22Z</time>
      </trkpt>
      <trkpt lat="43.50574" lon="6.94514">
        <ele>178.2</ele>
        <time>2025-07-15T21:26:28Z</time>
      </trkpt>
      <trkpt lat="43.50569" lon="6.94522">
        <ele>178.6</ele>
        <time>2025-07-15T21:26:31Z</time>
      </trkpt>
      <trkpt lat="43.50561" lon="6.94536">
        <ele>179</ele>
        <time>2025-07-15T21:26:35Z</time>
      </trkpt>
      <trkpt lat="43.50552" lon="6.94549">
        <ele>179.6</ele>
        <time>2025-07-15T21:26:39Z</time>
      </trkpt>
      <trkpt lat="43.50544" lon="6.94562">
        <ele>180.2</ele>
        <time>2025-07-15T21:26:43Z</time>
      </trkpt>
      <trkpt lat="43.50538" lon="6.94574">
        <ele>180.8</ele>
        <time>2025-07-15T21:26:47Z</time>
      </trkpt>
      <trkpt lat="43.50533" lon="6.94585">
        <ele>181</ele>
        <time>2025-07-15T21:26:50Z</time>
      </trkpt>
      <trkpt lat="43.50523" lon="6.94604">
        <ele>181.8</ele>
        <time>2025-07-15T21:26:56Z</time>
      </trkpt>
      <trkpt lat="43.50518" lon="6.94635">
        <ele>182.8</ele>
        <time>2025-07-15T21:27:03Z</time>
      </trkpt>
      <trkpt lat="43.50518" lon="6.9464">
        <ele>183</ele>
        <time>2025-07-15T21:27:04Z</time>
      </trkpt>
      <trkpt lat="43.50519" lon="6.94661">
        <ele>183.4</ele>
        <time>2025-07-15T21:27:09Z</time>
      </trkpt>
      <trkpt lat="43.5052" lon="6.94682">
        <ele>183.6</ele>
        <time>2025-07-15T21:27:14Z</time>
      </trkpt>
      <trkpt lat="43.50521" lon="6.94685">
        <ele>183.8</ele>
        <time>2025-07-15T21:27:15Z</time>
      </trkpt>
      <trkpt lat="43.50521" lon="6.94688">
        <ele>183.8</ele>
        <time>2025-07-15T21:27:16Z</time>
      </trkpt>
      <trkpt lat="43.50524" lon="6.94718">
        <ele>184.8</ele>
        <time>2025-07-15T21:27:23Z</time>
      </trkpt>
      <trkpt lat="43.50525" lon="6.9474">
        <ele>185.6</ele>
        <time>2025-07-15T21:27:28Z</time>
      </trkpt>
      <trkpt lat="43.50526" lon="6.94752">
        <ele>185.8</ele>
        <time>2025-07-15T21:27:31Z</time>
      </trkpt>
      <trkpt lat="43.50528" lon="6.94764">
        <ele>186</ele>
        <time>2025-07-15T21:27:34Z</time>
      </trkpt>
      <trkpt lat="43.50528" lon="6.94794">
        <ele>187</ele>
        <time>2025-07-15T21:27:41Z</time>
      </trkpt>
      <trkpt lat="43.50521" lon="6.94817">
        <ele>188.2</ele>
        <time>2025-07-15T21:27:47Z</time>
      </trkpt>
      <trkpt lat="43.50519" lon="6.9482">
        <ele>188.2</ele>
        <time>2025-07-15T21:27:48Z</time>
      </trkpt>
      <trkpt lat="43.50504" lon="6.94835">
        <ele>189.2</ele>
        <time>2025-07-15T21:27:54Z</time>
      </trkpt>
      <trkpt lat="43.50498" lon="6.9484">
        <ele>189.4</ele>
        <time>2025-07-15T21:27:56Z</time>
      </trkpt>
      <trkpt lat="43.50483" lon="6.94855">
        <ele>190.2</ele>
        <time>2025-07-15T21:28:02Z</time>
      </trkpt>
      <trkpt lat="43.50476" lon="6.94863">
        <ele>190.6</ele>
        <time>2025-07-15T21:28:05Z</time>
      </trkpt>
      <trkpt lat="43.50468" lon="6.94871">
        <ele>191.2</ele>
        <time>2025-07-15T21:28:08Z</time>
      </trkpt>
      <trkpt lat="43.50461" lon="6.94885">
        <ele>191.8</ele>
        <time>2025-07-15T21:28:12Z</time>
      </trkpt>
      <trkpt lat="43.50459" lon="6.94892">
        <ele>192.2</ele>
        <time>2025-07-15T21:28:14Z</time>
      </trkpt>
      <trkpt lat="43.50459" lon="6.94906">
        <ele>192.6</ele>
        <time>2025-07-15T21:28:17Z</time>
      </trkpt>
      <trkpt lat="43.50465" lon="6.94928">
        <ele>193.2</ele>
        <time>2025-07-15T21:28:22Z</time>
      </trkpt>
      <trkpt lat="43.50468" lon="6.94931">
        <ele>193.2</ele>
        <time>2025-07-15T21:28:23Z</time>
      </trkpt>
      <trkpt lat="43.50484" lon="6.9495">
        <ele>194</ele>
        <time>2025-07-15T21:28:30Z</time>
      </trkpt>
      <trkpt lat="43.50487" lon="6.94953">
        <ele>194.2</ele>
        <time>2025-07-15T21:28:31Z</time>
      </trkpt>
      <trkpt lat="43.50501" lon="6.94977">
        <ele>195</ele>
        <time>2025-07-15T21:28:38Z</time>
      </trkpt>
      <trkpt lat="43.50502" lon="6.94985">
        <ele>195.2</ele>
        <time>2025-07-15T21:28:40Z</time>
      </trkpt>
      <trkpt lat="43.50502" lon="6.95001">
        <ele>195.8</ele>
        <time>2025-07-15T21:28:44Z</time>
      </trkpt>
      <trkpt lat="43.505" lon="6.95017">
        <ele>196.2</ele>
        <time>2025-07-15T21:28:48Z</time>
      </trkpt>
      <trkpt lat="43.50502" lon="6.9503">
        <ele>196.8</ele>
        <time>2025-07-15T21:28:51Z</time>
      </trkpt>
      <trkpt lat="43.50502" lon="6.95053">
        <ele>197.4</ele>
        <time>2025-07-15T21:28:56Z</time>
      </trkpt>
      <trkpt lat="43.50499" lon="6.9507">
        <ele>198.2</ele>
        <time>2025-07-15T21:29:00Z</time>
      </trkpt>
      <trkpt lat="43.50499" lon="6.95074">
        <ele>198.4</ele>
        <time>2025-07-15T21:29:01Z</time>
      </trkpt>
      <trkpt lat="43.50499" lon="6.95102">
        <ele>199.2</ele>
        <time>2025-07-15T21:29:08Z</time>
      </trkpt>
      <trkpt lat="43.50499" lon="6.95106">
        <ele>199.4</ele>
        <time>2025-07-15T21:29:09Z</time>
      </trkpt>
      <trkpt lat="43.50501" lon="6.95136">
        <ele>200</ele>
        <time>2025-07-15T21:29:16Z</time>
      </trkpt>
      <trkpt lat="43.50502" lon="6.9514">
        <ele>200.4</ele>
        <time>2025-07-15T21:29:17Z</time>
      </trkpt>
      <trkpt lat="43.50505" lon="6.95168">
        <ele>201</ele>
        <time>2025-07-15T21:29:24Z</time>
      </trkpt>
      <trkpt lat="43.50507" lon="6.95181">
        <ele>201.4</ele>
        <time>2025-07-15T21:29:27Z</time>
      </trkpt>
      <trkpt lat="43.50509" lon="6.952">
        <ele>202</ele>
        <time>2025-07-15T21:29:32Z</time>
      </trkpt>
      <trkpt lat="43.50508" lon="6.9521">
        <ele>202.4</ele>
        <time>2025-07-15T21:29:35Z</time>
      </trkpt>
      <trkpt lat="43.50507" lon="6.95217">
        <ele>202.6</ele>
        <time>2025-07-15T21:29:37Z</time>
      </trkpt>
      <trkpt lat="43.50506" lon="6.95223">
        <ele>202.8</ele>
        <time>2025-07-15T21:29:39Z</time>
      </trkpt>
      <trkpt lat="43.50507" lon="6.95234">
        <ele>203.4</ele>
        <time>2025-07-15T21:29:43Z</time>
      </trkpt>
      <trkpt lat="43.50507" lon="6.95235">
        <ele>203.4</ele>
        <time>2025-07-15T21:29:44Z</time>
      </trkpt>
      <trkpt lat="43.50507" lon="6.95235">
        <ele>203.6</ele>
        <time>2025-07-15T21:29:46Z</time>
      </trkpt>
      <trkpt lat="43.50504" lon="6.95235">
        <ele>204.2</ele>
        <time>2025-07-15T21:31:39Z</time>
      </trkpt>
      <trkpt lat="43.50495" lon="6.95245">
        <ele>204.2</ele>
        <time>2025-07-15T21:31:43Z</time>
      </trkpt>
      <trkpt lat="43.50483" lon="6.95264">
        <ele>204.2</ele>
        <time>2025-07-15T21:31:48Z</time>
      </trkpt>
      <trkpt lat="43.50476" lon="6.95274">
        <ele>204.6</ele>
        <time>2025-07-15T21:31:51Z</time>
      </trkpt>
      <trkpt lat="43.50465" lon="6.95294">
        <ele>205.4</ele>
        <time>2025-07-15T21:31:57Z</time>
      </trkpt>
      <trkpt lat="43.50454" lon="6.95312">
        <ele>206.2</ele>
        <time>2025-07-15T21:32:03Z</time>
      </trkpt>
      <trkpt lat="43.50452" lon="6.95314">
        <ele>206.4</ele>
        <time>2025-07-15T21:32:04Z</time>
      </trkpt>
      <trkpt lat="43.5044" lon="6.95327">
        <ele>207.2</ele>
        <time>2025-07-15T21:32:10Z</time>
      </trkpt>
      <trkpt lat="43.50438" lon="6.9533">
        <ele>207.4</ele>
        <time>2025-07-15T21:32:11Z</time>
      </trkpt>
      <trkpt lat="43.50428" lon="6.95338">
        <ele>207.8</ele>
        <time>2025-07-15T21:32:16Z</time>
      </trkpt>
      <trkpt lat="43.50414" lon="6.95345">
        <ele>208.4</ele>
        <time>2025-07-15T21:32:22Z</time>
      </trkpt>
      <trkpt lat="43.50405" lon="6.95345">
        <ele>208.6</ele>
        <time>2025-07-15T21:32:26Z</time>
      </trkpt>
      <trkpt lat="43.50388" lon="6.95345">
        <ele>209.8</ele>
        <time>2025-07-15T21:32:32Z</time>
      </trkpt>
      <trkpt lat="43.50385" lon="6.95344">
        <ele>210</ele>
        <time>2025-07-15T21:32:33Z</time>
      </trkpt>
      <trkpt lat="43.50372" lon="6.9534">
        <ele>211</ele>
        <time>2025-07-15T21:32:39Z</time>
      </trkpt>
      <trkpt lat="43.50365" lon="6.95339">
        <ele>211.2</ele>
        <time>2025-07-15T21:32:42Z</time>
      </trkpt>
      <trkpt lat="43.50352" lon="6.9534">
        <ele>211.8</ele>
        <time>2025-07-15T21:32:47Z</time>
      </trkpt>
      <trkpt lat="43.50347" lon="6.95342">
        <ele>212</ele>
        <time>2025-07-15T21:32:49Z</time>
      </trkpt>
      <trkpt lat="43.50334" lon="6.95342">
        <ele>212.6</ele>
        <time>2025-07-15T21:32:54Z</time>
      </trkpt>
      <trkpt lat="43.50321" lon="6.9534">
        <ele>213</ele>
        <time>2025-07-15T21:32:59Z</time>
      </trkpt>
      <trkpt lat="43.50309" lon="6.95337">
        <ele>213.4</ele>
        <time>2025-07-15T21:33:04Z</time>
      </trkpt>
      <trkpt lat="43.50297" lon="6.95331">
        <ele>214.2</ele>
        <time>2025-07-15T21:33:09Z</time>
      </trkpt>
      <trkpt lat="43.50293" lon="6.95327">
        <ele>214.6</ele>
        <time>2025-07-15T21:33:12Z</time>
      </trkpt>
      <trkpt lat="43.50283" lon="6.95316">
        <ele>215.2</ele>
        <time>2025-07-15T21:33:18Z</time>
      </trkpt>
      <trkpt lat="43.50281" lon="6.95314">
        <ele>215.4</ele>
        <time>2025-07-15T21:33:19Z</time>
      </trkpt>
      <trkpt lat="43.5027" lon="6.953">
        <ele>216</ele>
        <time>2025-07-15T21:33:24Z</time>
      </trkpt>
      <trkpt lat="43.50261" lon="6.95295">
        <ele>216.4</ele>
        <time>2025-07-15T21:33:28Z</time>
      </trkpt>
      <trkpt lat="43.50254" lon="6.95293">
        <ele>216.8</ele>
        <time>2025-07-15T21:33:31Z</time>
      </trkpt>
      <trkpt lat="43.50239" lon="6.95298">
        <ele>217.4</ele>
        <time>2025-07-15T21:33:36Z</time>
      </trkpt>
      <trkpt lat="43.50227" lon="6.95306">
        <ele>217.6</ele>
        <time>2025-07-15T21:33:40Z</time>
      </trkpt>
      <trkpt lat="43.50225" lon="6.95308">
        <ele>217.8</ele>
        <time>2025-07-15T21:33:42Z</time>
      </trkpt>
      <trkpt lat="43.50206" lon="6.95324">
        <ele>218.2</ele>
        <time>2025-07-15T21:33:50Z</time>
      </trkpt>
      <trkpt lat="43.50187" lon="6.9533">
        <ele>218.6</ele>
        <time>2025-07-15T21:33:56Z</time>
      </trkpt>
      <trkpt lat="43.50187" lon="6.9533">
        <ele>218.8</ele>
        <time>2025-07-15T21:33:57Z</time>
      </trkpt>
      <trkpt lat="43.5017" lon="6.95328">
        <ele>219.2</ele>
        <time>2025-07-15T21:34:03Z</time>
      </trkpt>
      <trkpt lat="43.50157" lon="6.95322">
        <ele>219.6</ele>
        <time>2025-07-15T21:34:08Z</time>
      </trkpt>
      <trkpt lat="43.50153" lon="6.95319">
        <ele>219.8</ele>
        <time>2025-07-15T21:34:09Z</time>
      </trkpt>
      <trkpt lat="43.50145" lon="6.95319">
        <ele>220.2</ele>
        <time>2025-07-15T21:34:13Z</time>
      </trkpt>
      <trkpt lat="43.50145" lon="6.95319">
        <ele>220.2</ele>
        <time>2025-07-15T21:34:14Z</time>
      </trkpt>
      <trkpt lat="43.50146" lon="6.95323">
        <ele>220.4</ele>
        <time>2025-07-15T21:34:15Z</time>
      </trkpt>
      <trkpt lat="43.50148" lon="6.95324">
        <ele>220.4</ele>
        <time>2025-07-15T21:34:16Z</time>
      </trkpt>
      <trkpt lat="43.50154" lon="6.95328">
        <ele>220.6</ele>
        <time>2025-07-15T21:34:19Z</time>
      </trkpt>
      <trkpt lat="43.50166" lon="6.95336">
        <ele>220.8</ele>
        <time>2025-07-15T21:34:23Z</time>
      </trkpt>
      <trkpt lat="43.50173" lon="6.95338">
        <ele>220.4</ele>
        <time>2025-07-15T21:34:28Z</time>
      </trkpt>
      <trkpt lat="43.50173" lon="6.95339">
        <ele>220.4</ele>
        <time>2025-07-15T21:34:30Z</time>
      </trkpt>
      <trkpt lat="43.50169" lon="6.95337">
        <ele>219.8</ele>
        <time>2025-07-15T21:35:36Z</time>
      </trkpt>
      <trkpt lat="43.50169" lon="6.95337">
        <ele>219.8</ele>
        <time>2025-07-15T21:35:37Z</time>
      </trkpt>
      <trkpt lat="43.50158" lon="6.95331">
        <ele>220</ele>
        <time>2025-07-15T21:35:41Z</time>
      </trkpt>
      <trkpt lat="43.50135" lon="6.95319">
        <ele>220.4</ele>
        <time>2025-07-15T21:35:47Z</time>
      </trkpt>
      <trkpt lat="43.50134" lon="6.95319">
        <ele>220.8</ele>
        <time>2025-07-15T21:35:50Z</time>
      </trkpt>
      <trkpt lat="43.50116" lon="6.9531">
        <ele>222.2</ele>
        <time>2025-07-15T21:36:49Z</time>
      </trkpt>
      <trkpt lat="43.50125" lon="6.95315">
        <ele>222.2</ele>
        <time>2025-07-15T21:36:51Z</time>
      </trkpt>
      <trkpt lat="43.50149" lon="6.95327">
        <ele>222</ele>
        <time>2025-07-15T21:36:57Z</time>
      </trkpt>
      <trkpt lat="43.50168" lon="6.95336">
        <ele>221.4</ele>
        <time>2025-07-15T21:37:02Z</time>
      </trkpt>
      <trkpt lat="43.5017" lon="6.95337">
        <ele>221.2</ele>
        <time>2025-07-15T21:37:03Z</time>
      </trkpt>
      <trkpt lat="43.50177" lon="6.95341">
        <ele>220.4</ele>
        <time>2025-07-15T21:37:08Z</time>
      </trkpt>
      <trkpt lat="43.50177" lon="6.95341">
        <ele>220.4</ele>
        <time>2025-07-15T21:37:09Z</time>
      </trkpt>
    </trkseg>
  </trk>
</gpx>